<?xml version="1.0" encoding="UTF-8" standalone="no" ?>
<gpx xmlns="http://www.topografix.com/GPX/1/1" xmlns:xsi="http://www.w3.org/2001/XMLSchema-instance" xsi:schemaLocation="http://www.topografix.com/GPX/1/1 http://www.topografix.com/GPX/1/1/gpx.xsd" version="1.1" creator="VisuGPX - https://www.visugpx.com">
  <metadata>
    <name>Villars-sur-Var Le Lac Tournefort Massoin</name>
    <desc><![CDATA[On monte par le vallon au lieu du GR, à part le début où on pousse le vélo, le reste de la montée est roulant. On arrive à la chapelle comme avec le GR. Ensuite on part à droite sur le lac. On alterne des petits poussages avec des parties qui se pédalent.
Arrivé au Lac, 3 possibilités soit rentrer direct sur Villars, soit descendre sur Bayrols, puis Tournefort, soit ce que nous avons fait cad prendre la route et dans la 1ere épingle on prend la piste qui descend pour rejoindre le sentier qui fait Bayrols Tournefort.
Arrivé à Tournefort le chemin qui va sur Massoin étant coupé nous avons fait demi-tour et pris la route pour rejoindre Massoin.
A Massoin grosse remontée en poussage pour rejoindre le sentier qui va du Lac à Villars.
Après s'être régalé des virages du sentier on retombe sur la route.
De là on peut retourner à Villars par la route ou faire la boucle qui part à gauche à 200m, joli single pour terminer la rando.]]></desc>
  </metadata>
  <trk>
    <name><![CDATA[Villars-sur-Var Cyclisme]]></name>
    <extensions>
      <line xmlns="http://www.topografix.com/GPX/gpx_style/0/2">
        <color>0000FF</color>
        <width>4</width>
      </line>
    </extensions>
    <trkseg>
      <trkpt lat="43.93783" lon="7.09599">
        <ele>425.20001220703</ele>
        <time>2022-03-19T08:43:35.000Z</time>
      </trkpt>
      <trkpt lat="43.93783" lon="7.09598">
        <ele>426.60000610352</ele>
        <time>2022-03-19T08:43:39.000Z</time>
      </trkpt>
      <trkpt lat="43.93783" lon="7.09598">
        <ele>426.60000610352</ele>
        <time>2022-03-19T08:43:40.000Z</time>
      </trkpt>
      <trkpt lat="43.93889" lon="7.09621">
        <ele>469.79998779297</ele>
        <time>2022-03-19T09:04:47.000Z</time>
      </trkpt>
      <trkpt lat="43.93888" lon="7.0962">
        <ele>470.60000610352</ele>
        <time>2022-03-19T09:04:56.000Z</time>
      </trkpt>
      <trkpt lat="43.93888" lon="7.09617">
        <ele>470.60000610352</ele>
        <time>2022-03-19T09:05:05.000Z</time>
      </trkpt>
      <trkpt lat="43.93889" lon="7.09611">
        <ele>471</ele>
        <time>2022-03-19T09:05:10.000Z</time>
      </trkpt>
      <trkpt lat="43.93889" lon="7.09608">
        <ele>471.60000610352</ele>
        <time>2022-03-19T09:05:13.000Z</time>
      </trkpt>
      <trkpt lat="43.93889" lon="7.09606">
        <ele>472.20001220703</ele>
        <time>2022-03-19T09:05:15.000Z</time>
      </trkpt>
      <trkpt lat="43.9389" lon="7.096">
        <ele>473.20001220703</ele>
        <time>2022-03-19T09:05:21.000Z</time>
      </trkpt>
      <trkpt lat="43.93891" lon="7.09593">
        <ele>474.39999389648</ele>
        <time>2022-03-19T09:05:28.000Z</time>
      </trkpt>
      <trkpt lat="43.93891" lon="7.09592">
        <ele>474.60000610352</ele>
        <time>2022-03-19T09:05:30.000Z</time>
      </trkpt>
      <trkpt lat="43.93892" lon="7.09588">
        <ele>475.39999389648</ele>
        <time>2022-03-19T09:05:34.000Z</time>
      </trkpt>
      <trkpt lat="43.93893" lon="7.09585">
        <ele>476.20001220703</ele>
        <time>2022-03-19T09:05:37.000Z</time>
      </trkpt>
      <trkpt lat="43.93893" lon="7.09583">
        <ele>476.79998779297</ele>
        <time>2022-03-19T09:05:39.000Z</time>
      </trkpt>
      <trkpt lat="43.93894" lon="7.09577">
        <ele>477.79998779297</ele>
        <time>2022-03-19T09:05:46.000Z</time>
      </trkpt>
      <trkpt lat="43.93895" lon="7.09572">
        <ele>479</ele>
        <time>2022-03-19T09:05:51.000Z</time>
      </trkpt>
      <trkpt lat="43.93896" lon="7.09569">
        <ele>479.79998779297</ele>
        <time>2022-03-19T09:05:55.000Z</time>
      </trkpt>
      <trkpt lat="43.93896" lon="7.09568">
        <ele>480</ele>
        <time>2022-03-19T09:05:56.000Z</time>
      </trkpt>
      <trkpt lat="43.93897" lon="7.09562">
        <ele>481.20001220703</ele>
        <time>2022-03-19T09:06:03.000Z</time>
      </trkpt>
      <trkpt lat="43.93898" lon="7.09559">
        <ele>482.20001220703</ele>
        <time>2022-03-19T09:06:07.000Z</time>
      </trkpt>
      <trkpt lat="43.93898" lon="7.09556">
        <ele>483</ele>
        <time>2022-03-19T09:06:12.000Z</time>
      </trkpt>
      <trkpt lat="43.93899" lon="7.09555">
        <ele>483.20001220703</ele>
        <time>2022-03-19T09:06:13.000Z</time>
      </trkpt>
      <trkpt lat="43.939" lon="7.09549">
        <ele>484.39999389648</ele>
        <time>2022-03-19T09:06:20.000Z</time>
      </trkpt>
      <trkpt lat="43.93903" lon="7.09545">
        <ele>485.39999389648</ele>
        <time>2022-03-19T09:06:25.000Z</time>
      </trkpt>
      <trkpt lat="43.93904" lon="7.09542">
        <ele>486</ele>
        <time>2022-03-19T09:06:28.000Z</time>
      </trkpt>
      <trkpt lat="43.93904" lon="7.0954">
        <ele>486.39999389648</ele>
        <time>2022-03-19T09:06:30.000Z</time>
      </trkpt>
      <trkpt lat="43.93906" lon="7.09535">
        <ele>487.60000610352</ele>
        <time>2022-03-19T09:06:36.000Z</time>
      </trkpt>
      <trkpt lat="43.93907" lon="7.09533">
        <ele>487.79998779297</ele>
        <time>2022-03-19T09:06:38.000Z</time>
      </trkpt>
      <trkpt lat="43.93909" lon="7.0953">
        <ele>488.60000610352</ele>
        <time>2022-03-19T09:06:42.000Z</time>
      </trkpt>
      <trkpt lat="43.93911" lon="7.09524">
        <ele>489.60000610352</ele>
        <time>2022-03-19T09:06:47.000Z</time>
      </trkpt>
      <trkpt lat="43.93913" lon="7.09517">
        <ele>490.79998779297</ele>
        <time>2022-03-19T09:06:54.000Z</time>
      </trkpt>
      <trkpt lat="43.93913" lon="7.09514">
        <ele>491.20001220703</ele>
        <time>2022-03-19T09:06:57.000Z</time>
      </trkpt>
      <trkpt lat="43.93914" lon="7.09511">
        <ele>491.79998779297</ele>
        <time>2022-03-19T09:07:00.000Z</time>
      </trkpt>
      <trkpt lat="43.93915" lon="7.09509">
        <ele>492.60000610352</ele>
        <time>2022-03-19T09:07:05.000Z</time>
      </trkpt>
      <trkpt lat="43.93915" lon="7.09507">
        <ele>493</ele>
        <time>2022-03-19T09:07:08.000Z</time>
      </trkpt>
      <trkpt lat="43.93916" lon="7.09505">
        <ele>493</ele>
        <time>2022-03-19T09:07:10.000Z</time>
      </trkpt>
      <trkpt lat="43.93916" lon="7.09503">
        <ele>493</ele>
        <time>2022-03-19T09:07:11.000Z</time>
      </trkpt>
      <trkpt lat="43.93918" lon="7.09499">
        <ele>493</ele>
        <time>2022-03-19T09:07:14.000Z</time>
      </trkpt>
      <trkpt lat="43.9392" lon="7.09489">
        <ele>493.60000610352</ele>
        <time>2022-03-19T09:07:19.000Z</time>
      </trkpt>
      <trkpt lat="43.93922" lon="7.09484">
        <ele>494</ele>
        <time>2022-03-19T09:07:22.000Z</time>
      </trkpt>
      <trkpt lat="43.93925" lon="7.09478">
        <ele>494.79998779297</ele>
        <time>2022-03-19T09:07:26.000Z</time>
      </trkpt>
      <trkpt lat="43.93927" lon="7.09475">
        <ele>495</ele>
        <time>2022-03-19T09:07:28.000Z</time>
      </trkpt>
      <trkpt lat="43.93931" lon="7.09467">
        <ele>495.39999389648</ele>
        <time>2022-03-19T09:07:33.000Z</time>
      </trkpt>
      <trkpt lat="43.93935" lon="7.09461">
        <ele>496</ele>
        <time>2022-03-19T09:07:36.000Z</time>
      </trkpt>
      <trkpt lat="43.93938" lon="7.09456">
        <ele>497.39999389648</ele>
        <time>2022-03-19T09:07:39.000Z</time>
      </trkpt>
      <trkpt lat="43.93938" lon="7.09454">
        <ele>497.79998779297</ele>
        <time>2022-03-19T09:07:40.000Z</time>
      </trkpt>
      <trkpt lat="43.9394" lon="7.09451">
        <ele>498.60000610352</ele>
        <time>2022-03-19T09:07:42.000Z</time>
      </trkpt>
      <trkpt lat="43.93942" lon="7.09445">
        <ele>499.60000610352</ele>
        <time>2022-03-19T09:07:45.000Z</time>
      </trkpt>
      <trkpt lat="43.93943" lon="7.09444">
        <ele>499.79998779297</ele>
        <time>2022-03-19T09:07:46.000Z</time>
      </trkpt>
      <trkpt lat="43.93946" lon="7.09439">
        <ele>500.60000610352</ele>
        <time>2022-03-19T09:07:50.000Z</time>
      </trkpt>
      <trkpt lat="43.93947" lon="7.09436">
        <ele>501.39999389648</ele>
        <time>2022-03-19T09:07:52.000Z</time>
      </trkpt>
      <trkpt lat="43.93949" lon="7.09434">
        <ele>501.79998779297</ele>
        <time>2022-03-19T09:07:54.000Z</time>
      </trkpt>
      <trkpt lat="43.93951" lon="7.09429">
        <ele>503</ele>
        <time>2022-03-19T09:07:58.000Z</time>
      </trkpt>
      <trkpt lat="43.93952" lon="7.09428">
        <ele>503.20001220703</ele>
        <time>2022-03-19T09:07:59.000Z</time>
      </trkpt>
      <trkpt lat="43.93955" lon="7.09425">
        <ele>504</ele>
        <time>2022-03-19T09:08:02.000Z</time>
      </trkpt>
      <trkpt lat="43.93956" lon="7.09424">
        <ele>504.20001220703</ele>
        <time>2022-03-19T09:08:03.000Z</time>
      </trkpt>
      <trkpt lat="43.93955" lon="7.09425">
        <ele>504.39999389648</ele>
        <time>2022-03-19T09:08:04.000Z</time>
      </trkpt>
      <trkpt lat="43.93956" lon="7.09424">
        <ele>505.20001220703</ele>
        <time>2022-03-19T09:08:09.000Z</time>
      </trkpt>
      <trkpt lat="43.93955" lon="7.09423">
        <ele>505.20001220703</ele>
        <time>2022-03-19T09:08:12.000Z</time>
      </trkpt>
      <trkpt lat="43.93956" lon="7.09419">
        <ele>505.39999389648</ele>
        <time>2022-03-19T09:08:28.000Z</time>
      </trkpt>
      <trkpt lat="43.93957" lon="7.09417">
        <ele>505.39999389648</ele>
        <time>2022-03-19T09:08:29.000Z</time>
      </trkpt>
      <trkpt lat="43.9396" lon="7.09413">
        <ele>505.60000610352</ele>
        <time>2022-03-19T09:08:32.000Z</time>
      </trkpt>
      <trkpt lat="43.93962" lon="7.09407">
        <ele>506.20001220703</ele>
        <time>2022-03-19T09:08:35.000Z</time>
      </trkpt>
      <trkpt lat="43.93968" lon="7.09399">
        <ele>507.39999389648</ele>
        <time>2022-03-19T09:08:40.000Z</time>
      </trkpt>
      <trkpt lat="43.93973" lon="7.09391">
        <ele>508.60000610352</ele>
        <time>2022-03-19T09:08:45.000Z</time>
      </trkpt>
      <trkpt lat="43.93974" lon="7.09389">
        <ele>509</ele>
        <time>2022-03-19T09:08:46.000Z</time>
      </trkpt>
      <trkpt lat="43.93975" lon="7.09387">
        <ele>510</ele>
        <time>2022-03-19T09:08:48.000Z</time>
      </trkpt>
      <trkpt lat="43.93978" lon="7.09382">
        <ele>511</ele>
        <time>2022-03-19T09:08:51.000Z</time>
      </trkpt>
      <trkpt lat="43.93979" lon="7.09381">
        <ele>511.20001220703</ele>
        <time>2022-03-19T09:08:52.000Z</time>
      </trkpt>
      <trkpt lat="43.93979" lon="7.0938">
        <ele>512.20001220703</ele>
        <time>2022-03-19T09:08:55.000Z</time>
      </trkpt>
      <trkpt lat="43.93979" lon="7.0938">
        <ele>512.40002441406</ele>
        <time>2022-03-19T09:08:56.000Z</time>
      </trkpt>
      <trkpt lat="43.93983" lon="7.09375">
        <ele>513.20001220703</ele>
        <time>2022-03-19T09:09:04.000Z</time>
      </trkpt>
      <trkpt lat="43.93983" lon="7.09374">
        <ele>513.40002441406</ele>
        <time>2022-03-19T09:09:05.000Z</time>
      </trkpt>
      <trkpt lat="43.93986" lon="7.09372">
        <ele>514.40002441406</ele>
        <time>2022-03-19T09:09:10.000Z</time>
      </trkpt>
      <trkpt lat="43.93988" lon="7.09368">
        <ele>515</ele>
        <time>2022-03-19T09:09:14.000Z</time>
      </trkpt>
      <trkpt lat="43.9399" lon="7.09367">
        <ele>515.40002441406</ele>
        <time>2022-03-19T09:09:17.000Z</time>
      </trkpt>
      <trkpt lat="43.93992" lon="7.09363">
        <ele>516.40002441406</ele>
        <time>2022-03-19T09:09:22.000Z</time>
      </trkpt>
      <trkpt lat="43.93994" lon="7.09359">
        <ele>517.20001220703</ele>
        <time>2022-03-19T09:09:26.000Z</time>
      </trkpt>
      <trkpt lat="43.93996" lon="7.09357">
        <ele>517.79998779297</ele>
        <time>2022-03-19T09:09:29.000Z</time>
      </trkpt>
      <trkpt lat="43.93999" lon="7.09354">
        <ele>518.59997558594</ele>
        <time>2022-03-19T09:09:33.000Z</time>
      </trkpt>
      <trkpt lat="43.93999" lon="7.09353">
        <ele>518.79998779297</ele>
        <time>2022-03-19T09:09:34.000Z</time>
      </trkpt>
      <trkpt lat="43.94004" lon="7.09346">
        <ele>519.79998779297</ele>
        <time>2022-03-19T09:09:41.000Z</time>
      </trkpt>
      <trkpt lat="43.94007" lon="7.09342">
        <ele>520.40002441406</ele>
        <time>2022-03-19T09:09:47.000Z</time>
      </trkpt>
      <trkpt lat="43.94008" lon="7.0934">
        <ele>520.79998779297</ele>
        <time>2022-03-19T09:09:49.000Z</time>
      </trkpt>
      <trkpt lat="43.94012" lon="7.09335">
        <ele>521.79998779297</ele>
        <time>2022-03-19T09:09:56.000Z</time>
      </trkpt>
      <trkpt lat="43.94015" lon="7.09331">
        <ele>522.79998779297</ele>
        <time>2022-03-19T09:10:02.000Z</time>
      </trkpt>
      <trkpt lat="43.94018" lon="7.09326">
        <ele>524</ele>
        <time>2022-03-19T09:10:09.000Z</time>
      </trkpt>
      <trkpt lat="43.94021" lon="7.09322">
        <ele>525</ele>
        <time>2022-03-19T09:10:15.000Z</time>
      </trkpt>
      <trkpt lat="43.94024" lon="7.09319">
        <ele>526</ele>
        <time>2022-03-19T09:10:21.000Z</time>
      </trkpt>
      <trkpt lat="43.94025" lon="7.09318">
        <ele>526.20001220703</ele>
        <time>2022-03-19T09:10:22.000Z</time>
      </trkpt>
      <trkpt lat="43.9403" lon="7.09314">
        <ele>527.40002441406</ele>
        <time>2022-03-19T09:10:30.000Z</time>
      </trkpt>
      <trkpt lat="43.9403" lon="7.09313">
        <ele>527.59997558594</ele>
        <time>2022-03-19T09:10:31.000Z</time>
      </trkpt>
      <trkpt lat="43.94033" lon="7.09311">
        <ele>528.40002441406</ele>
        <time>2022-03-19T09:10:36.000Z</time>
      </trkpt>
      <trkpt lat="43.94037" lon="7.09308">
        <ele>529.20001220703</ele>
        <time>2022-03-19T09:10:41.000Z</time>
      </trkpt>
      <trkpt lat="43.94038" lon="7.09307">
        <ele>529.59997558594</ele>
        <time>2022-03-19T09:10:43.000Z</time>
      </trkpt>
      <trkpt lat="43.94041" lon="7.09303">
        <ele>530.59997558594</ele>
        <time>2022-03-19T09:10:49.000Z</time>
      </trkpt>
      <trkpt lat="43.94044" lon="7.093">
        <ele>531.40002441406</ele>
        <time>2022-03-19T09:10:54.000Z</time>
      </trkpt>
      <trkpt lat="43.94046" lon="7.09299">
        <ele>531.79998779297</ele>
        <time>2022-03-19T09:10:56.000Z</time>
      </trkpt>
      <trkpt lat="43.9405" lon="7.09297">
        <ele>532.79998779297</ele>
        <time>2022-03-19T09:11:02.000Z</time>
      </trkpt>
      <trkpt lat="43.94051" lon="7.09296">
        <ele>533</ele>
        <time>2022-03-19T09:11:04.000Z</time>
      </trkpt>
      <trkpt lat="43.94053" lon="7.09294">
        <ele>534</ele>
        <time>2022-03-19T09:11:08.000Z</time>
      </trkpt>
      <trkpt lat="43.94056" lon="7.09291">
        <ele>535</ele>
        <time>2022-03-19T09:11:14.000Z</time>
      </trkpt>
      <trkpt lat="43.94058" lon="7.0929">
        <ele>535.40002441406</ele>
        <time>2022-03-19T09:11:17.000Z</time>
      </trkpt>
      <trkpt lat="43.9406" lon="7.09288">
        <ele>536.20001220703</ele>
        <time>2022-03-19T09:11:21.000Z</time>
      </trkpt>
      <trkpt lat="43.94066" lon="7.09284">
        <ele>537.20001220703</ele>
        <time>2022-03-19T09:11:28.000Z</time>
      </trkpt>
      <trkpt lat="43.9407" lon="7.09279">
        <ele>538.20001220703</ele>
        <time>2022-03-19T09:11:34.000Z</time>
      </trkpt>
      <trkpt lat="43.94071" lon="7.09278">
        <ele>538.40002441406</ele>
        <time>2022-03-19T09:11:35.000Z</time>
      </trkpt>
      <trkpt lat="43.94077" lon="7.09275">
        <ele>539.20001220703</ele>
        <time>2022-03-19T09:11:43.000Z</time>
      </trkpt>
      <trkpt lat="43.94079" lon="7.09273">
        <ele>540.40002441406</ele>
        <time>2022-03-19T09:11:47.000Z</time>
      </trkpt>
      <trkpt lat="43.94082" lon="7.0927">
        <ele>541</ele>
        <time>2022-03-19T09:11:51.000Z</time>
      </trkpt>
      <trkpt lat="43.94083" lon="7.09269">
        <ele>541.40002441406</ele>
        <time>2022-03-19T09:11:53.000Z</time>
      </trkpt>
      <trkpt lat="43.94088" lon="7.09266">
        <ele>542.40002441406</ele>
        <time>2022-03-19T09:11:59.000Z</time>
      </trkpt>
      <trkpt lat="43.94089" lon="7.09265">
        <ele>543</ele>
        <time>2022-03-19T09:12:01.000Z</time>
      </trkpt>
      <trkpt lat="43.94092" lon="7.09263">
        <ele>543.59997558594</ele>
        <time>2022-03-19T09:12:05.000Z</time>
      </trkpt>
      <trkpt lat="43.94096" lon="7.0926">
        <ele>544.59997558594</ele>
        <time>2022-03-19T09:12:10.000Z</time>
      </trkpt>
      <trkpt lat="43.94097" lon="7.09259">
        <ele>545</ele>
        <time>2022-03-19T09:12:11.000Z</time>
      </trkpt>
      <trkpt lat="43.94101" lon="7.09256">
        <ele>545.79998779297</ele>
        <time>2022-03-19T09:12:16.000Z</time>
      </trkpt>
      <trkpt lat="43.94104" lon="7.09254">
        <ele>546.20001220703</ele>
        <time>2022-03-19T09:12:21.000Z</time>
      </trkpt>
      <trkpt lat="43.94106" lon="7.09253">
        <ele>546.79998779297</ele>
        <time>2022-03-19T09:12:25.000Z</time>
      </trkpt>
      <trkpt lat="43.94109" lon="7.09251">
        <ele>547.59997558594</ele>
        <time>2022-03-19T09:12:31.000Z</time>
      </trkpt>
      <trkpt lat="43.94111" lon="7.0925">
        <ele>547.79998779297</ele>
        <time>2022-03-19T09:12:34.000Z</time>
      </trkpt>
      <trkpt lat="43.94114" lon="7.09248">
        <ele>548.79998779297</ele>
        <time>2022-03-19T09:12:39.000Z</time>
      </trkpt>
      <trkpt lat="43.94116" lon="7.09247">
        <ele>549.20001220703</ele>
        <time>2022-03-19T09:12:41.000Z</time>
      </trkpt>
      <trkpt lat="43.9412" lon="7.09245">
        <ele>550</ele>
        <time>2022-03-19T09:12:46.000Z</time>
      </trkpt>
      <trkpt lat="43.94122" lon="7.09243">
        <ele>550.40002441406</ele>
        <time>2022-03-19T09:12:49.000Z</time>
      </trkpt>
      <trkpt lat="43.94124" lon="7.09241">
        <ele>551</ele>
        <time>2022-03-19T09:12:52.000Z</time>
      </trkpt>
      <trkpt lat="43.94127" lon="7.09238">
        <ele>551.79998779297</ele>
        <time>2022-03-19T09:12:57.000Z</time>
      </trkpt>
      <trkpt lat="43.94128" lon="7.09236">
        <ele>552.20001220703</ele>
        <time>2022-03-19T09:12:59.000Z</time>
      </trkpt>
      <trkpt lat="43.94131" lon="7.09233">
        <ele>553.20001220703</ele>
        <time>2022-03-19T09:13:04.000Z</time>
      </trkpt>
      <trkpt lat="43.94133" lon="7.09232">
        <ele>553.59997558594</ele>
        <time>2022-03-19T09:13:06.000Z</time>
      </trkpt>
      <trkpt lat="43.94135" lon="7.09229">
        <ele>554.40002441406</ele>
        <time>2022-03-19T09:13:10.000Z</time>
      </trkpt>
      <trkpt lat="43.94136" lon="7.09229">
        <ele>555</ele>
        <time>2022-03-19T09:13:15.000Z</time>
      </trkpt>
      <trkpt lat="43.9414" lon="7.09224">
        <ele>555.20001220703</ele>
        <time>2022-03-19T09:13:21.000Z</time>
      </trkpt>
      <trkpt lat="43.94142" lon="7.09222">
        <ele>555.40002441406</ele>
        <time>2022-03-19T09:13:23.000Z</time>
      </trkpt>
      <trkpt lat="43.94148" lon="7.09218">
        <ele>556.40002441406</ele>
        <time>2022-03-19T09:13:28.000Z</time>
      </trkpt>
      <trkpt lat="43.9415" lon="7.09217">
        <ele>556.59997558594</ele>
        <time>2022-03-19T09:13:29.000Z</time>
      </trkpt>
      <trkpt lat="43.94153" lon="7.09215">
        <ele>558</ele>
        <time>2022-03-19T09:13:33.000Z</time>
      </trkpt>
      <trkpt lat="43.94155" lon="7.09214">
        <ele>559</ele>
        <time>2022-03-19T09:13:37.000Z</time>
      </trkpt>
      <trkpt lat="43.94157" lon="7.09212">
        <ele>559.40002441406</ele>
        <time>2022-03-19T09:13:40.000Z</time>
      </trkpt>
      <trkpt lat="43.9416" lon="7.09211">
        <ele>560</ele>
        <time>2022-03-19T09:13:44.000Z</time>
      </trkpt>
      <trkpt lat="43.94162" lon="7.0921">
        <ele>560.79998779297</ele>
        <time>2022-03-19T09:13:48.000Z</time>
      </trkpt>
      <trkpt lat="43.94163" lon="7.0921">
        <ele>561.20001220703</ele>
        <time>2022-03-19T09:13:49.000Z</time>
      </trkpt>
      <trkpt lat="43.94165" lon="7.09208">
        <ele>562</ele>
        <time>2022-03-19T09:13:53.000Z</time>
      </trkpt>
      <trkpt lat="43.94167" lon="7.09207">
        <ele>562.20001220703</ele>
        <time>2022-03-19T09:13:55.000Z</time>
      </trkpt>
      <trkpt lat="43.94171" lon="7.09205">
        <ele>563.40002441406</ele>
        <time>2022-03-19T09:14:00.000Z</time>
      </trkpt>
      <trkpt lat="43.94173" lon="7.09204">
        <ele>563.79998779297</ele>
        <time>2022-03-19T09:14:03.000Z</time>
      </trkpt>
      <trkpt lat="43.94175" lon="7.09202">
        <ele>564.40002441406</ele>
        <time>2022-03-19T09:14:06.000Z</time>
      </trkpt>
      <trkpt lat="43.9418" lon="7.092">
        <ele>565.40002441406</ele>
        <time>2022-03-19T09:14:12.000Z</time>
      </trkpt>
      <trkpt lat="43.94181" lon="7.09199">
        <ele>565.79998779297</ele>
        <time>2022-03-19T09:14:14.000Z</time>
      </trkpt>
      <trkpt lat="43.94185" lon="7.09197">
        <ele>566.40002441406</ele>
        <time>2022-03-19T09:14:18.000Z</time>
      </trkpt>
      <trkpt lat="43.9419" lon="7.09195">
        <ele>567.59997558594</ele>
        <time>2022-03-19T09:14:24.000Z</time>
      </trkpt>
      <trkpt lat="43.94197" lon="7.09192">
        <ele>568.79998779297</ele>
        <time>2022-03-19T09:14:31.000Z</time>
      </trkpt>
      <trkpt lat="43.94202" lon="7.09186">
        <ele>569.79998779297</ele>
        <time>2022-03-19T09:14:39.000Z</time>
      </trkpt>
      <trkpt lat="43.94202" lon="7.09185">
        <ele>570</ele>
        <time>2022-03-19T09:14:40.000Z</time>
      </trkpt>
      <trkpt lat="43.94205" lon="7.09182">
        <ele>571</ele>
        <time>2022-03-19T09:14:44.000Z</time>
      </trkpt>
      <trkpt lat="43.94207" lon="7.09179">
        <ele>571.79998779297</ele>
        <time>2022-03-19T09:14:48.000Z</time>
      </trkpt>
      <trkpt lat="43.94207" lon="7.09176">
        <ele>572.20001220703</ele>
        <time>2022-03-19T09:14:50.000Z</time>
      </trkpt>
      <trkpt lat="43.94207" lon="7.09175">
        <ele>572.20001220703</ele>
        <time>2022-03-19T09:14:51.000Z</time>
      </trkpt>
      <trkpt lat="43.94208" lon="7.09171">
        <ele>572.40002441406</ele>
        <time>2022-03-19T09:14:53.000Z</time>
      </trkpt>
      <trkpt lat="43.94208" lon="7.09165">
        <ele>573.20001220703</ele>
        <time>2022-03-19T09:14:58.000Z</time>
      </trkpt>
      <trkpt lat="43.94208" lon="7.09161">
        <ele>573.79998779297</ele>
        <time>2022-03-19T09:15:02.000Z</time>
      </trkpt>
      <trkpt lat="43.94208" lon="7.09158">
        <ele>574.20001220703</ele>
        <time>2022-03-19T09:15:05.000Z</time>
      </trkpt>
      <trkpt lat="43.94207" lon="7.09152">
        <ele>575.20001220703</ele>
        <time>2022-03-19T09:15:11.000Z</time>
      </trkpt>
      <trkpt lat="43.94208" lon="7.0915">
        <ele>575.40002441406</ele>
        <time>2022-03-19T09:15:13.000Z</time>
      </trkpt>
      <trkpt lat="43.94207" lon="7.09148">
        <ele>576.40002441406</ele>
        <time>2022-03-19T09:15:17.000Z</time>
      </trkpt>
      <trkpt lat="43.94207" lon="7.09147">
        <ele>576.79998779297</ele>
        <time>2022-03-19T09:15:19.000Z</time>
      </trkpt>
      <trkpt lat="43.94208" lon="7.09139">
        <ele>577</ele>
        <time>2022-03-19T09:15:24.000Z</time>
      </trkpt>
      <trkpt lat="43.94209" lon="7.09134">
        <ele>577.40002441406</ele>
        <time>2022-03-19T09:15:26.000Z</time>
      </trkpt>
      <trkpt lat="43.94209" lon="7.09127">
        <ele>578.20001220703</ele>
        <time>2022-03-19T09:15:29.000Z</time>
      </trkpt>
      <trkpt lat="43.94211" lon="7.09125">
        <ele>578.40002441406</ele>
        <time>2022-03-19T09:15:31.000Z</time>
      </trkpt>
      <trkpt lat="43.94211" lon="7.09124">
        <ele>578.59997558594</ele>
        <time>2022-03-19T09:15:32.000Z</time>
      </trkpt>
      <trkpt lat="43.94211" lon="7.09122">
        <ele>578.79998779297</ele>
        <time>2022-03-19T09:15:33.000Z</time>
      </trkpt>
      <trkpt lat="43.94212" lon="7.09115">
        <ele>579.59997558594</ele>
        <time>2022-03-19T09:15:36.000Z</time>
      </trkpt>
      <trkpt lat="43.94215" lon="7.09109">
        <ele>580.59997558594</ele>
        <time>2022-03-19T09:15:40.000Z</time>
      </trkpt>
      <trkpt lat="43.94218" lon="7.09104">
        <ele>581.59997558594</ele>
        <time>2022-03-19T09:15:44.000Z</time>
      </trkpt>
      <trkpt lat="43.94219" lon="7.09099">
        <ele>582.40002441406</ele>
        <time>2022-03-19T09:15:47.000Z</time>
      </trkpt>
      <trkpt lat="43.94221" lon="7.09096">
        <ele>582.79998779297</ele>
        <time>2022-03-19T09:15:49.000Z</time>
      </trkpt>
      <trkpt lat="43.94224" lon="7.0909">
        <ele>583.79998779297</ele>
        <time>2022-03-19T09:15:53.000Z</time>
      </trkpt>
      <trkpt lat="43.94225" lon="7.09089">
        <ele>584</ele>
        <time>2022-03-19T09:15:54.000Z</time>
      </trkpt>
      <trkpt lat="43.94228" lon="7.09084">
        <ele>585.40002441406</ele>
        <time>2022-03-19T09:15:59.000Z</time>
      </trkpt>
      <trkpt lat="43.94229" lon="7.09082">
        <ele>585.79998779297</ele>
        <time>2022-03-19T09:16:01.000Z</time>
      </trkpt>
      <trkpt lat="43.94231" lon="7.09078">
        <ele>586.59997558594</ele>
        <time>2022-03-19T09:16:05.000Z</time>
      </trkpt>
      <trkpt lat="43.94233" lon="7.09074">
        <ele>587.40002441406</ele>
        <time>2022-03-19T09:16:09.000Z</time>
      </trkpt>
      <trkpt lat="43.94235" lon="7.0907">
        <ele>588</ele>
        <time>2022-03-19T09:16:11.000Z</time>
      </trkpt>
      <trkpt lat="43.94237" lon="7.09064">
        <ele>589.20001220703</ele>
        <time>2022-03-19T09:16:16.000Z</time>
      </trkpt>
      <trkpt lat="43.94237" lon="7.09062">
        <ele>589.40002441406</ele>
        <time>2022-03-19T09:16:17.000Z</time>
      </trkpt>
      <trkpt lat="43.94239" lon="7.09059">
        <ele>590.20001220703</ele>
        <time>2022-03-19T09:16:19.000Z</time>
      </trkpt>
      <trkpt lat="43.94241" lon="7.09055">
        <ele>590.59997558594</ele>
        <time>2022-03-19T09:16:23.000Z</time>
      </trkpt>
      <trkpt lat="43.94241" lon="7.09054">
        <ele>591.20001220703</ele>
        <time>2022-03-19T09:16:26.000Z</time>
      </trkpt>
      <trkpt lat="43.94242" lon="7.09053">
        <ele>591.40002441406</ele>
        <time>2022-03-19T09:16:28.000Z</time>
      </trkpt>
      <trkpt lat="43.94242" lon="7.09051">
        <ele>592.20001220703</ele>
        <time>2022-03-19T09:16:34.000Z</time>
      </trkpt>
      <trkpt lat="43.94242" lon="7.0905">
        <ele>592.40002441406</ele>
        <time>2022-03-19T09:16:35.000Z</time>
      </trkpt>
      <trkpt lat="43.94244" lon="7.09041">
        <ele>593.40002441406</ele>
        <time>2022-03-19T09:16:43.000Z</time>
      </trkpt>
      <trkpt lat="43.94245" lon="7.09037">
        <ele>594.40002441406</ele>
        <time>2022-03-19T09:16:48.000Z</time>
      </trkpt>
      <trkpt lat="43.94246" lon="7.09036">
        <ele>594.59997558594</ele>
        <time>2022-03-19T09:16:49.000Z</time>
      </trkpt>
      <trkpt lat="43.94248" lon="7.0903">
        <ele>595.79998779297</ele>
        <time>2022-03-19T09:16:55.000Z</time>
      </trkpt>
      <trkpt lat="43.94248" lon="7.09028">
        <ele>596.40002441406</ele>
        <time>2022-03-19T09:16:57.000Z</time>
      </trkpt>
      <trkpt lat="43.94248" lon="7.09027">
        <ele>596.79998779297</ele>
        <time>2022-03-19T09:17:00.000Z</time>
      </trkpt>
      <trkpt lat="43.94247" lon="7.09023">
        <ele>597.79998779297</ele>
        <time>2022-03-19T09:17:05.000Z</time>
      </trkpt>
      <trkpt lat="43.94248" lon="7.09022">
        <ele>598</ele>
        <time>2022-03-19T09:17:07.000Z</time>
      </trkpt>
      <trkpt lat="43.9425" lon="7.09017">
        <ele>599</ele>
        <time>2022-03-19T09:17:13.000Z</time>
      </trkpt>
      <trkpt lat="43.9425" lon="7.09016">
        <ele>599.20001220703</ele>
        <time>2022-03-19T09:17:14.000Z</time>
      </trkpt>
      <trkpt lat="43.94253" lon="7.09012">
        <ele>600</ele>
        <time>2022-03-19T09:17:19.000Z</time>
      </trkpt>
      <trkpt lat="43.94255" lon="7.09009">
        <ele>601.20001220703</ele>
        <time>2022-03-19T09:17:24.000Z</time>
      </trkpt>
      <trkpt lat="43.94258" lon="7.09003">
        <ele>602.40002441406</ele>
        <time>2022-03-19T09:17:30.000Z</time>
      </trkpt>
      <trkpt lat="43.94258" lon="7.09002">
        <ele>602.59997558594</ele>
        <time>2022-03-19T09:17:31.000Z</time>
      </trkpt>
      <trkpt lat="43.94263" lon="7.08993">
        <ele>603.40002441406</ele>
        <time>2022-03-19T09:17:39.000Z</time>
      </trkpt>
      <trkpt lat="43.94265" lon="7.08989">
        <ele>604.40002441406</ele>
        <time>2022-03-19T09:17:43.000Z</time>
      </trkpt>
      <trkpt lat="43.94266" lon="7.08989">
        <ele>604.59997558594</ele>
        <time>2022-03-19T09:17:44.000Z</time>
      </trkpt>
      <trkpt lat="43.9427" lon="7.08985">
        <ele>605.59997558594</ele>
        <time>2022-03-19T09:17:49.000Z</time>
      </trkpt>
      <trkpt lat="43.94274" lon="7.08983">
        <ele>606.20001220703</ele>
        <time>2022-03-19T09:17:53.000Z</time>
      </trkpt>
      <trkpt lat="43.94277" lon="7.08979">
        <ele>606.59997558594</ele>
        <time>2022-03-19T09:17:58.000Z</time>
      </trkpt>
      <trkpt lat="43.9428" lon="7.08977">
        <ele>607.40002441406</ele>
        <time>2022-03-19T09:18:02.000Z</time>
      </trkpt>
      <trkpt lat="43.94283" lon="7.08975">
        <ele>607.79998779297</ele>
        <time>2022-03-19T09:18:06.000Z</time>
      </trkpt>
      <trkpt lat="43.94289" lon="7.0897">
        <ele>608.79998779297</ele>
        <time>2022-03-19T09:18:13.000Z</time>
      </trkpt>
      <trkpt lat="43.9429" lon="7.0897">
        <ele>609</ele>
        <time>2022-03-19T09:18:14.000Z</time>
      </trkpt>
      <trkpt lat="43.94295" lon="7.08966">
        <ele>610</ele>
        <time>2022-03-19T09:18:21.000Z</time>
      </trkpt>
      <trkpt lat="43.943" lon="7.08961">
        <ele>611.20001220703</ele>
        <time>2022-03-19T09:18:28.000Z</time>
      </trkpt>
      <trkpt lat="43.94302" lon="7.0896">
        <ele>611.59997558594</ele>
        <time>2022-03-19T09:18:30.000Z</time>
      </trkpt>
      <trkpt lat="43.94304" lon="7.08958">
        <ele>612.40002441406</ele>
        <time>2022-03-19T09:18:33.000Z</time>
      </trkpt>
      <trkpt lat="43.94307" lon="7.08956">
        <ele>613.40002441406</ele>
        <time>2022-03-19T09:18:38.000Z</time>
      </trkpt>
      <trkpt lat="43.94308" lon="7.08955">
        <ele>614</ele>
        <time>2022-03-19T09:18:41.000Z</time>
      </trkpt>
      <trkpt lat="43.9431" lon="7.08953">
        <ele>614.59997558594</ele>
        <time>2022-03-19T09:18:44.000Z</time>
      </trkpt>
      <trkpt lat="43.94315" lon="7.08948">
        <ele>615.79998779297</ele>
        <time>2022-03-19T09:18:51.000Z</time>
      </trkpt>
      <trkpt lat="43.94317" lon="7.08947">
        <ele>616.20001220703</ele>
        <time>2022-03-19T09:18:53.000Z</time>
      </trkpt>
      <trkpt lat="43.94318" lon="7.08945">
        <ele>616.79998779297</ele>
        <time>2022-03-19T09:18:55.000Z</time>
      </trkpt>
      <trkpt lat="43.94322" lon="7.08941">
        <ele>617.79998779297</ele>
        <time>2022-03-19T09:19:01.000Z</time>
      </trkpt>
      <trkpt lat="43.94324" lon="7.0894">
        <ele>618.20001220703</ele>
        <time>2022-03-19T09:19:03.000Z</time>
      </trkpt>
      <trkpt lat="43.94327" lon="7.08936">
        <ele>619</ele>
        <time>2022-03-19T09:19:09.000Z</time>
      </trkpt>
      <trkpt lat="43.9433" lon="7.08934">
        <ele>620</ele>
        <time>2022-03-19T09:19:14.000Z</time>
      </trkpt>
      <trkpt lat="43.94334" lon="7.0893">
        <ele>621.20001220703</ele>
        <time>2022-03-19T09:19:20.000Z</time>
      </trkpt>
      <trkpt lat="43.94335" lon="7.08929">
        <ele>621.40002441406</ele>
        <time>2022-03-19T09:19:22.000Z</time>
      </trkpt>
      <trkpt lat="43.94338" lon="7.08925">
        <ele>622.20001220703</ele>
        <time>2022-03-19T09:19:27.000Z</time>
      </trkpt>
      <trkpt lat="43.94339" lon="7.08924">
        <ele>622.79998779297</ele>
        <time>2022-03-19T09:19:29.000Z</time>
      </trkpt>
      <trkpt lat="43.9434" lon="7.08922">
        <ele>623.20001220703</ele>
        <time>2022-03-19T09:19:32.000Z</time>
      </trkpt>
      <trkpt lat="43.94343" lon="7.0892">
        <ele>624.40002441406</ele>
        <time>2022-03-19T09:19:37.000Z</time>
      </trkpt>
      <trkpt lat="43.94343" lon="7.08918">
        <ele>624.59997558594</ele>
        <time>2022-03-19T09:19:38.000Z</time>
      </trkpt>
      <trkpt lat="43.94346" lon="7.08915">
        <ele>625.40002441406</ele>
        <time>2022-03-19T09:19:43.000Z</time>
      </trkpt>
      <trkpt lat="43.94349" lon="7.08913">
        <ele>626.59997558594</ele>
        <time>2022-03-19T09:19:48.000Z</time>
      </trkpt>
      <trkpt lat="43.94352" lon="7.08908">
        <ele>627.59997558594</ele>
        <time>2022-03-19T09:19:54.000Z</time>
      </trkpt>
      <trkpt lat="43.94352" lon="7.08908">
        <ele>628</ele>
        <time>2022-03-19T09:19:55.000Z</time>
      </trkpt>
      <trkpt lat="43.94354" lon="7.08906">
        <ele>628.79998779297</ele>
        <time>2022-03-19T09:20:01.000Z</time>
      </trkpt>
      <trkpt lat="43.94358" lon="7.08902">
        <ele>629.20001220703</ele>
        <time>2022-03-19T09:20:09.000Z</time>
      </trkpt>
      <trkpt lat="43.94362" lon="7.08896">
        <ele>629.79998779297</ele>
        <time>2022-03-19T09:20:14.000Z</time>
      </trkpt>
      <trkpt lat="43.94364" lon="7.08894">
        <ele>630.40002441406</ele>
        <time>2022-03-19T09:20:16.000Z</time>
      </trkpt>
      <trkpt lat="43.94368" lon="7.08888">
        <ele>631</ele>
        <time>2022-03-19T09:20:20.000Z</time>
      </trkpt>
      <trkpt lat="43.94372" lon="7.08882">
        <ele>632.40002441406</ele>
        <time>2022-03-19T09:20:24.000Z</time>
      </trkpt>
      <trkpt lat="43.94375" lon="7.08878">
        <ele>633.59997558594</ele>
        <time>2022-03-19T09:20:28.000Z</time>
      </trkpt>
      <trkpt lat="43.94377" lon="7.08874">
        <ele>634.79998779297</ele>
        <time>2022-03-19T09:20:31.000Z</time>
      </trkpt>
      <trkpt lat="43.9438" lon="7.0887">
        <ele>635.40002441406</ele>
        <time>2022-03-19T09:20:35.000Z</time>
      </trkpt>
      <trkpt lat="43.94382" lon="7.08868">
        <ele>635.79998779297</ele>
        <time>2022-03-19T09:20:37.000Z</time>
      </trkpt>
      <trkpt lat="43.94383" lon="7.08867">
        <ele>636</ele>
        <time>2022-03-19T09:20:38.000Z</time>
      </trkpt>
      <trkpt lat="43.94386" lon="7.08865">
        <ele>637</ele>
        <time>2022-03-19T09:20:41.000Z</time>
      </trkpt>
      <trkpt lat="43.94389" lon="7.0886">
        <ele>638.20001220703</ele>
        <time>2022-03-19T09:20:45.000Z</time>
      </trkpt>
      <trkpt lat="43.94391" lon="7.08858">
        <ele>639.20001220703</ele>
        <time>2022-03-19T09:20:48.000Z</time>
      </trkpt>
      <trkpt lat="43.94392" lon="7.08857">
        <ele>639.59997558594</ele>
        <time>2022-03-19T09:20:49.000Z</time>
      </trkpt>
      <trkpt lat="43.94399" lon="7.08851">
        <ele>640.59997558594</ele>
        <time>2022-03-19T09:20:55.000Z</time>
      </trkpt>
      <trkpt lat="43.944" lon="7.0885">
        <ele>641.20001220703</ele>
        <time>2022-03-19T09:20:57.000Z</time>
      </trkpt>
      <trkpt lat="43.94402" lon="7.08847">
        <ele>641.79998779297</ele>
        <time>2022-03-19T09:20:59.000Z</time>
      </trkpt>
      <trkpt lat="43.94404" lon="7.08845">
        <ele>642.59997558594</ele>
        <time>2022-03-19T09:21:03.000Z</time>
      </trkpt>
      <trkpt lat="43.94404" lon="7.08844">
        <ele>642.79998779297</ele>
        <time>2022-03-19T09:21:05.000Z</time>
      </trkpt>
      <trkpt lat="43.94408" lon="7.0884">
        <ele>643</ele>
        <time>2022-03-19T09:21:11.000Z</time>
      </trkpt>
      <trkpt lat="43.94411" lon="7.08837">
        <ele>644</ele>
        <time>2022-03-19T09:21:16.000Z</time>
      </trkpt>
      <trkpt lat="43.94413" lon="7.08835">
        <ele>644.40002441406</ele>
        <time>2022-03-19T09:21:19.000Z</time>
      </trkpt>
      <trkpt lat="43.94413" lon="7.08834">
        <ele>645</ele>
        <time>2022-03-19T09:21:22.000Z</time>
      </trkpt>
      <trkpt lat="43.94415" lon="7.08832">
        <ele>645.20001220703</ele>
        <time>2022-03-19T09:21:25.000Z</time>
      </trkpt>
      <trkpt lat="43.94419" lon="7.08827">
        <ele>645.79998779297</ele>
        <time>2022-03-19T09:21:32.000Z</time>
      </trkpt>
      <trkpt lat="43.9442" lon="7.08827">
        <ele>646.20001220703</ele>
        <time>2022-03-19T09:21:33.000Z</time>
      </trkpt>
      <trkpt lat="43.94424" lon="7.08822">
        <ele>647.20001220703</ele>
        <time>2022-03-19T09:21:39.000Z</time>
      </trkpt>
      <trkpt lat="43.94425" lon="7.08822">
        <ele>647.40002441406</ele>
        <time>2022-03-19T09:21:40.000Z</time>
      </trkpt>
      <trkpt lat="43.94429" lon="7.08819">
        <ele>648.20001220703</ele>
        <time>2022-03-19T09:21:46.000Z</time>
      </trkpt>
      <trkpt lat="43.9443" lon="7.08818">
        <ele>648.40002441406</ele>
        <time>2022-03-19T09:21:47.000Z</time>
      </trkpt>
      <trkpt lat="43.94432" lon="7.08816">
        <ele>649</ele>
        <time>2022-03-19T09:21:50.000Z</time>
      </trkpt>
      <trkpt lat="43.94433" lon="7.08815">
        <ele>649.59997558594</ele>
        <time>2022-03-19T09:21:52.000Z</time>
      </trkpt>
      <trkpt lat="43.94434" lon="7.08815">
        <ele>649.79998779297</ele>
        <time>2022-03-19T09:21:53.000Z</time>
      </trkpt>
      <trkpt lat="43.94437" lon="7.08813">
        <ele>650.59997558594</ele>
        <time>2022-03-19T09:21:57.000Z</time>
      </trkpt>
      <trkpt lat="43.9444" lon="7.08813">
        <ele>651</ele>
        <time>2022-03-19T09:22:00.000Z</time>
      </trkpt>
      <trkpt lat="43.94444" lon="7.08811">
        <ele>651.59997558594</ele>
        <time>2022-03-19T09:22:05.000Z</time>
      </trkpt>
      <trkpt lat="43.94446" lon="7.08811">
        <ele>652</ele>
        <time>2022-03-19T09:22:07.000Z</time>
      </trkpt>
      <trkpt lat="43.94451" lon="7.08809">
        <ele>652.59997558594</ele>
        <time>2022-03-19T09:22:12.000Z</time>
      </trkpt>
      <trkpt lat="43.94452" lon="7.08809">
        <ele>653</ele>
        <time>2022-03-19T09:22:14.000Z</time>
      </trkpt>
      <trkpt lat="43.94452" lon="7.08808">
        <ele>653.59997558594</ele>
        <time>2022-03-19T09:22:18.000Z</time>
      </trkpt>
      <trkpt lat="43.94453" lon="7.08807">
        <ele>653.79998779297</ele>
        <time>2022-03-19T09:22:19.000Z</time>
      </trkpt>
      <trkpt lat="43.94454" lon="7.08807">
        <ele>653.79998779297</ele>
        <time>2022-03-19T09:22:20.000Z</time>
      </trkpt>
      <trkpt lat="43.94458" lon="7.08805">
        <ele>653.79998779297</ele>
        <time>2022-03-19T09:22:23.000Z</time>
      </trkpt>
      <trkpt lat="43.94463" lon="7.08804">
        <ele>654.20001220703</ele>
        <time>2022-03-19T09:22:26.000Z</time>
      </trkpt>
      <trkpt lat="43.94465" lon="7.08805">
        <ele>654.79998779297</ele>
        <time>2022-03-19T09:22:28.000Z</time>
      </trkpt>
      <trkpt lat="43.94469" lon="7.08806">
        <ele>655.79998779297</ele>
        <time>2022-03-19T09:22:32.000Z</time>
      </trkpt>
      <trkpt lat="43.9447" lon="7.08807">
        <ele>655.79998779297</ele>
        <time>2022-03-19T09:22:33.000Z</time>
      </trkpt>
      <trkpt lat="43.94471" lon="7.08807">
        <ele>656</ele>
        <time>2022-03-19T09:22:36.000Z</time>
      </trkpt>
      <trkpt lat="43.94471" lon="7.08808">
        <ele>656</ele>
        <time>2022-03-19T09:22:37.000Z</time>
      </trkpt>
      <trkpt lat="43.94471" lon="7.08808">
        <ele>656</ele>
        <time>2022-03-19T09:22:48.000Z</time>
      </trkpt>
      <trkpt lat="43.94474" lon="7.08809">
        <ele>656</ele>
        <time>2022-03-19T09:22:53.000Z</time>
      </trkpt>
      <trkpt lat="43.94476" lon="7.08808">
        <ele>656.40002441406</ele>
        <time>2022-03-19T09:23:00.000Z</time>
      </trkpt>
      <trkpt lat="43.94473" lon="7.08809">
        <ele>656</ele>
        <time>2022-03-19T09:23:07.000Z</time>
      </trkpt>
      <trkpt lat="43.94473" lon="7.08809">
        <ele>655.79998779297</ele>
        <time>2022-03-19T09:23:15.000Z</time>
      </trkpt>
      <trkpt lat="43.94473" lon="7.08809">
        <ele>656.20001220703</ele>
        <time>2022-03-19T09:23:26.000Z</time>
      </trkpt>
      <trkpt lat="43.94473" lon="7.08808">
        <ele>656.20001220703</ele>
        <time>2022-03-19T09:23:32.000Z</time>
      </trkpt>
      <trkpt lat="43.94472" lon="7.08809">
        <ele>656</ele>
        <time>2022-03-19T09:23:46.000Z</time>
      </trkpt>
      <trkpt lat="43.94474" lon="7.08808">
        <ele>655.79998779297</ele>
        <time>2022-03-19T09:23:57.000Z</time>
      </trkpt>
      <trkpt lat="43.94475" lon="7.08808">
        <ele>656</ele>
        <time>2022-03-19T09:24:12.000Z</time>
      </trkpt>
      <trkpt lat="43.94475" lon="7.08809">
        <ele>655.79998779297</ele>
        <time>2022-03-19T09:24:29.000Z</time>
      </trkpt>
      <trkpt lat="43.94475" lon="7.08808">
        <ele>656</ele>
        <time>2022-03-19T09:24:42.000Z</time>
      </trkpt>
      <trkpt lat="43.94474" lon="7.08808">
        <ele>655.59997558594</ele>
        <time>2022-03-19T09:24:53.000Z</time>
      </trkpt>
      <trkpt lat="43.94475" lon="7.08806">
        <ele>655.40002441406</ele>
        <time>2022-03-19T09:25:08.000Z</time>
      </trkpt>
      <trkpt lat="43.94477" lon="7.08805">
        <ele>655.59997558594</ele>
        <time>2022-03-19T09:25:13.000Z</time>
      </trkpt>
      <trkpt lat="43.94481" lon="7.08804">
        <ele>656</ele>
        <time>2022-03-19T09:25:17.000Z</time>
      </trkpt>
      <trkpt lat="43.94483" lon="7.08803">
        <ele>656</ele>
        <time>2022-03-19T09:25:18.000Z</time>
      </trkpt>
      <trkpt lat="43.9449" lon="7.08801">
        <ele>656</ele>
        <time>2022-03-19T09:25:22.000Z</time>
      </trkpt>
      <trkpt lat="43.94491" lon="7.08801">
        <ele>656.20001220703</ele>
        <time>2022-03-19T09:25:23.000Z</time>
      </trkpt>
      <trkpt lat="43.94498" lon="7.08802">
        <ele>656.59997558594</ele>
        <time>2022-03-19T09:25:27.000Z</time>
      </trkpt>
      <trkpt lat="43.94501" lon="7.08803">
        <ele>657</ele>
        <time>2022-03-19T09:25:29.000Z</time>
      </trkpt>
      <trkpt lat="43.94502" lon="7.08803">
        <ele>657.40002441406</ele>
        <time>2022-03-19T09:25:30.000Z</time>
      </trkpt>
      <trkpt lat="43.94507" lon="7.08804">
        <ele>658.20001220703</ele>
        <time>2022-03-19T09:25:33.000Z</time>
      </trkpt>
      <trkpt lat="43.94512" lon="7.08805">
        <ele>658.79998779297</ele>
        <time>2022-03-19T09:25:36.000Z</time>
      </trkpt>
      <trkpt lat="43.94513" lon="7.08806">
        <ele>659</ele>
        <time>2022-03-19T09:25:37.000Z</time>
      </trkpt>
      <trkpt lat="43.94514" lon="7.08808">
        <ele>659.20001220703</ele>
        <time>2022-03-19T09:25:38.000Z</time>
      </trkpt>
      <trkpt lat="43.94518" lon="7.08811">
        <ele>660</ele>
        <time>2022-03-19T09:25:41.000Z</time>
      </trkpt>
      <trkpt lat="43.94519" lon="7.08811">
        <ele>660.20001220703</ele>
        <time>2022-03-19T09:25:42.000Z</time>
      </trkpt>
      <trkpt lat="43.94526" lon="7.08814">
        <ele>661</ele>
        <time>2022-03-19T09:25:47.000Z</time>
      </trkpt>
      <trkpt lat="43.9453" lon="7.08815">
        <ele>661.20001220703</ele>
        <time>2022-03-19T09:25:49.000Z</time>
      </trkpt>
      <trkpt lat="43.94536" lon="7.08818">
        <ele>661.59997558594</ele>
        <time>2022-03-19T09:25:53.000Z</time>
      </trkpt>
      <trkpt lat="43.94541" lon="7.0882">
        <ele>662.40002441406</ele>
        <time>2022-03-19T09:25:57.000Z</time>
      </trkpt>
      <trkpt lat="43.94542" lon="7.08819">
        <ele>662.40002441406</ele>
        <time>2022-03-19T09:25:58.000Z</time>
      </trkpt>
      <trkpt lat="43.94544" lon="7.08816">
        <ele>662.59997558594</ele>
        <time>2022-03-19T09:26:00.000Z</time>
      </trkpt>
      <trkpt lat="43.94545" lon="7.08813">
        <ele>662.79998779297</ele>
        <time>2022-03-19T09:26:02.000Z</time>
      </trkpt>
      <trkpt lat="43.94546" lon="7.08812">
        <ele>663</ele>
        <time>2022-03-19T09:26:03.000Z</time>
      </trkpt>
      <trkpt lat="43.94546" lon="7.08811">
        <ele>663.20001220703</ele>
        <time>2022-03-19T09:26:04.000Z</time>
      </trkpt>
      <trkpt lat="43.94547" lon="7.08809">
        <ele>663.59997558594</ele>
        <time>2022-03-19T09:26:05.000Z</time>
      </trkpt>
      <trkpt lat="43.94548" lon="7.08797">
        <ele>664.20001220703</ele>
        <time>2022-03-19T09:26:11.000Z</time>
      </trkpt>
      <trkpt lat="43.9455" lon="7.08791">
        <ele>664.59997558594</ele>
        <time>2022-03-19T09:26:14.000Z</time>
      </trkpt>
      <trkpt lat="43.94555" lon="7.08779">
        <ele>665.40002441406</ele>
        <time>2022-03-19T09:26:18.000Z</time>
      </trkpt>
      <trkpt lat="43.94555" lon="7.08779">
        <ele>665.59997558594</ele>
        <time>2022-03-19T09:26:19.000Z</time>
      </trkpt>
      <trkpt lat="43.94555" lon="7.08775">
        <ele>666</ele>
        <time>2022-03-19T09:26:21.000Z</time>
      </trkpt>
      <trkpt lat="43.94555" lon="7.08775">
        <ele>666.59997558594</ele>
        <time>2022-03-19T09:26:23.000Z</time>
      </trkpt>
      <trkpt lat="43.94555" lon="7.08773">
        <ele>667</ele>
        <time>2022-03-19T09:26:25.000Z</time>
      </trkpt>
      <trkpt lat="43.94556" lon="7.0877">
        <ele>667.59997558594</ele>
        <time>2022-03-19T09:26:29.000Z</time>
      </trkpt>
      <trkpt lat="43.94558" lon="7.08765">
        <ele>668</ele>
        <time>2022-03-19T09:26:31.000Z</time>
      </trkpt>
      <trkpt lat="43.94562" lon="7.0876">
        <ele>669.20001220703</ele>
        <time>2022-03-19T09:26:35.000Z</time>
      </trkpt>
      <trkpt lat="43.94568" lon="7.08756">
        <ele>670.20001220703</ele>
        <time>2022-03-19T09:26:39.000Z</time>
      </trkpt>
      <trkpt lat="43.94569" lon="7.08755">
        <ele>671</ele>
        <time>2022-03-19T09:26:43.000Z</time>
      </trkpt>
      <trkpt lat="43.9457" lon="7.08755">
        <ele>671.40002441406</ele>
        <time>2022-03-19T09:26:46.000Z</time>
      </trkpt>
      <trkpt lat="43.94571" lon="7.08754">
        <ele>671.40002441406</ele>
        <time>2022-03-19T09:26:49.000Z</time>
      </trkpt>
      <trkpt lat="43.94577" lon="7.08748">
        <ele>672.40002441406</ele>
        <time>2022-03-19T09:26:57.000Z</time>
      </trkpt>
      <trkpt lat="43.94581" lon="7.08744">
        <ele>673.59997558594</ele>
        <time>2022-03-19T09:27:02.000Z</time>
      </trkpt>
      <trkpt lat="43.94585" lon="7.08741">
        <ele>674.20001220703</ele>
        <time>2022-03-19T09:27:06.000Z</time>
      </trkpt>
      <trkpt lat="43.94586" lon="7.0874">
        <ele>674.59997558594</ele>
        <time>2022-03-19T09:27:08.000Z</time>
      </trkpt>
      <trkpt lat="43.94593" lon="7.08737">
        <ele>675.59997558594</ele>
        <time>2022-03-19T09:27:15.000Z</time>
      </trkpt>
      <trkpt lat="43.94594" lon="7.08737">
        <ele>675.79998779297</ele>
        <time>2022-03-19T09:27:16.000Z</time>
      </trkpt>
      <trkpt lat="43.94598" lon="7.08736">
        <ele>676.59997558594</ele>
        <time>2022-03-19T09:27:21.000Z</time>
      </trkpt>
      <trkpt lat="43.94599" lon="7.08735">
        <ele>677</ele>
        <time>2022-03-19T09:27:23.000Z</time>
      </trkpt>
      <trkpt lat="43.946" lon="7.08733">
        <ele>677.40002441406</ele>
        <time>2022-03-19T09:27:31.000Z</time>
      </trkpt>
      <trkpt lat="43.94607" lon="7.08732">
        <ele>677.40002441406</ele>
        <time>2022-03-19T09:27:36.000Z</time>
      </trkpt>
      <trkpt lat="43.94608" lon="7.08732">
        <ele>677.40002441406</ele>
        <time>2022-03-19T09:27:37.000Z</time>
      </trkpt>
      <trkpt lat="43.94611" lon="7.08733">
        <ele>677.79998779297</ele>
        <time>2022-03-19T09:27:39.000Z</time>
      </trkpt>
      <trkpt lat="43.94619" lon="7.08733">
        <ele>678.79998779297</ele>
        <time>2022-03-19T09:27:45.000Z</time>
      </trkpt>
      <trkpt lat="43.94628" lon="7.08726">
        <ele>679.20001220703</ele>
        <time>2022-03-19T09:27:52.000Z</time>
      </trkpt>
      <trkpt lat="43.94628" lon="7.08726">
        <ele>679.40002441406</ele>
        <time>2022-03-19T09:27:53.000Z</time>
      </trkpt>
      <trkpt lat="43.94627" lon="7.08724">
        <ele>679.59997558594</ele>
        <time>2022-03-19T09:27:56.000Z</time>
      </trkpt>
      <trkpt lat="43.94626" lon="7.08724">
        <ele>679.59997558594</ele>
        <time>2022-03-19T09:27:57.000Z</time>
      </trkpt>
      <trkpt lat="43.94628" lon="7.08721">
        <ele>679.59997558594</ele>
        <time>2022-03-19T09:27:58.000Z</time>
      </trkpt>
      <trkpt lat="43.9463" lon="7.08717">
        <ele>679.40002441406</ele>
        <time>2022-03-19T09:28:00.000Z</time>
      </trkpt>
      <trkpt lat="43.94633" lon="7.08713">
        <ele>679.40002441406</ele>
        <time>2022-03-19T09:28:02.000Z</time>
      </trkpt>
      <trkpt lat="43.94635" lon="7.08709">
        <ele>679.40002441406</ele>
        <time>2022-03-19T09:28:04.000Z</time>
      </trkpt>
      <trkpt lat="43.94635" lon="7.08706">
        <ele>679.40002441406</ele>
        <time>2022-03-19T09:28:05.000Z</time>
      </trkpt>
      <trkpt lat="43.9464" lon="7.08695">
        <ele>679.79998779297</ele>
        <time>2022-03-19T09:28:08.000Z</time>
      </trkpt>
      <trkpt lat="43.94643" lon="7.08691">
        <ele>680</ele>
        <time>2022-03-19T09:28:10.000Z</time>
      </trkpt>
      <trkpt lat="43.94646" lon="7.08688">
        <ele>680.40002441406</ele>
        <time>2022-03-19T09:28:12.000Z</time>
      </trkpt>
      <trkpt lat="43.9465" lon="7.08685">
        <ele>680.59997558594</ele>
        <time>2022-03-19T09:28:14.000Z</time>
      </trkpt>
      <trkpt lat="43.94654" lon="7.0868">
        <ele>680.79998779297</ele>
        <time>2022-03-19T09:28:17.000Z</time>
      </trkpt>
      <trkpt lat="43.94657" lon="7.0868">
        <ele>681</ele>
        <time>2022-03-19T09:28:18.000Z</time>
      </trkpt>
      <trkpt lat="43.94659" lon="7.08681">
        <ele>681.20001220703</ele>
        <time>2022-03-19T09:28:19.000Z</time>
      </trkpt>
      <trkpt lat="43.94664" lon="7.08682">
        <ele>681.40002441406</ele>
        <time>2022-03-19T09:28:21.000Z</time>
      </trkpt>
      <trkpt lat="43.94678" lon="7.0869">
        <ele>681.79998779297</ele>
        <time>2022-03-19T09:28:27.000Z</time>
      </trkpt>
      <trkpt lat="43.94684" lon="7.08692">
        <ele>682</ele>
        <time>2022-03-19T09:28:29.000Z</time>
      </trkpt>
      <trkpt lat="43.94689" lon="7.08692">
        <ele>681.79998779297</ele>
        <time>2022-03-19T09:28:31.000Z</time>
      </trkpt>
      <trkpt lat="43.94706" lon="7.08687">
        <ele>681.79998779297</ele>
        <time>2022-03-19T09:28:38.000Z</time>
      </trkpt>
      <trkpt lat="43.94709" lon="7.08678">
        <ele>682.40002441406</ele>
        <time>2022-03-19T09:28:41.000Z</time>
      </trkpt>
      <trkpt lat="43.94709" lon="7.08674">
        <ele>682.59997558594</ele>
        <time>2022-03-19T09:28:43.000Z</time>
      </trkpt>
      <trkpt lat="43.94712" lon="7.08664">
        <ele>683.59997558594</ele>
        <time>2022-03-19T09:28:48.000Z</time>
      </trkpt>
      <trkpt lat="43.94713" lon="7.08662">
        <ele>683.59997558594</ele>
        <time>2022-03-19T09:28:49.000Z</time>
      </trkpt>
      <trkpt lat="43.94713" lon="7.0866">
        <ele>684</ele>
        <time>2022-03-19T09:28:51.000Z</time>
      </trkpt>
      <trkpt lat="43.94714" lon="7.08654">
        <ele>684.40002441406</ele>
        <time>2022-03-19T09:28:54.000Z</time>
      </trkpt>
      <trkpt lat="43.94717" lon="7.08648">
        <ele>684.59997558594</ele>
        <time>2022-03-19T09:28:56.000Z</time>
      </trkpt>
      <trkpt lat="43.94721" lon="7.08638">
        <ele>685.59997558594</ele>
        <time>2022-03-19T09:29:00.000Z</time>
      </trkpt>
      <trkpt lat="43.94722" lon="7.08636">
        <ele>686</ele>
        <time>2022-03-19T09:29:01.000Z</time>
      </trkpt>
      <trkpt lat="43.94722" lon="7.08634">
        <ele>686</ele>
        <time>2022-03-19T09:29:02.000Z</time>
      </trkpt>
      <trkpt lat="43.94723" lon="7.08627">
        <ele>686.59997558594</ele>
        <time>2022-03-19T09:29:05.000Z</time>
      </trkpt>
      <trkpt lat="43.94723" lon="7.08623">
        <ele>687</ele>
        <time>2022-03-19T09:29:09.000Z</time>
      </trkpt>
      <trkpt lat="43.94725" lon="7.0862">
        <ele>687</ele>
        <time>2022-03-19T09:29:10.000Z</time>
      </trkpt>
      <trkpt lat="43.94727" lon="7.08612">
        <ele>687</ele>
        <time>2022-03-19T09:29:15.000Z</time>
      </trkpt>
      <trkpt lat="43.94727" lon="7.08611">
        <ele>687</ele>
        <time>2022-03-19T09:29:16.000Z</time>
      </trkpt>
      <trkpt lat="43.94729" lon="7.08608">
        <ele>687</ele>
        <time>2022-03-19T09:29:18.000Z</time>
      </trkpt>
      <trkpt lat="43.94737" lon="7.08597">
        <ele>687.40002441406</ele>
        <time>2022-03-19T09:29:23.000Z</time>
      </trkpt>
      <trkpt lat="43.94743" lon="7.08588">
        <ele>687.79998779297</ele>
        <time>2022-03-19T09:29:27.000Z</time>
      </trkpt>
      <trkpt lat="43.94745" lon="7.08585">
        <ele>688.20001220703</ele>
        <time>2022-03-19T09:29:29.000Z</time>
      </trkpt>
      <trkpt lat="43.94748" lon="7.08581">
        <ele>688.59997558594</ele>
        <time>2022-03-19T09:29:31.000Z</time>
      </trkpt>
      <trkpt lat="43.94753" lon="7.08573">
        <ele>689</ele>
        <time>2022-03-19T09:29:35.000Z</time>
      </trkpt>
      <trkpt lat="43.94756" lon="7.0857">
        <ele>689.20001220703</ele>
        <time>2022-03-19T09:29:36.000Z</time>
      </trkpt>
      <trkpt lat="43.94768" lon="7.08558">
        <ele>690.20001220703</ele>
        <time>2022-03-19T09:29:40.000Z</time>
      </trkpt>
      <trkpt lat="43.94778" lon="7.08549">
        <ele>691.59997558594</ele>
        <time>2022-03-19T09:29:44.000Z</time>
      </trkpt>
      <trkpt lat="43.94782" lon="7.08545">
        <ele>692</ele>
        <time>2022-03-19T09:29:46.000Z</time>
      </trkpt>
      <trkpt lat="43.94794" lon="7.08538">
        <ele>692.59997558594</ele>
        <time>2022-03-19T09:29:50.000Z</time>
      </trkpt>
      <trkpt lat="43.94798" lon="7.08535">
        <ele>692.79998779297</ele>
        <time>2022-03-19T09:29:52.000Z</time>
      </trkpt>
      <trkpt lat="43.94807" lon="7.08528">
        <ele>693.20001220703</ele>
        <time>2022-03-19T09:29:56.000Z</time>
      </trkpt>
      <trkpt lat="43.94812" lon="7.08525">
        <ele>693.59997558594</ele>
        <time>2022-03-19T09:29:59.000Z</time>
      </trkpt>
      <trkpt lat="43.9482" lon="7.08519">
        <ele>694.79998779297</ele>
        <time>2022-03-19T09:30:04.000Z</time>
      </trkpt>
      <trkpt lat="43.9483" lon="7.08514">
        <ele>695.79998779297</ele>
        <time>2022-03-19T09:30:10.000Z</time>
      </trkpt>
      <trkpt lat="43.94836" lon="7.0851">
        <ele>696.59997558594</ele>
        <time>2022-03-19T09:30:14.000Z</time>
      </trkpt>
      <trkpt lat="43.94837" lon="7.08509">
        <ele>697</ele>
        <time>2022-03-19T09:30:15.000Z</time>
      </trkpt>
      <trkpt lat="43.94839" lon="7.08507">
        <ele>698</ele>
        <time>2022-03-19T09:30:18.000Z</time>
      </trkpt>
      <trkpt lat="43.94839" lon="7.08507">
        <ele>698.20001220703</ele>
        <time>2022-03-19T09:30:19.000Z</time>
      </trkpt>
      <trkpt lat="43.94842" lon="7.08505">
        <ele>699</ele>
        <time>2022-03-19T09:30:25.000Z</time>
      </trkpt>
      <trkpt lat="43.94843" lon="7.08504">
        <ele>699.20001220703</ele>
        <time>2022-03-19T09:30:26.000Z</time>
      </trkpt>
      <trkpt lat="43.94845" lon="7.08503">
        <ele>699</ele>
        <time>2022-03-19T09:30:33.000Z</time>
      </trkpt>
      <trkpt lat="43.94846" lon="7.08503">
        <ele>699</ele>
        <time>2022-03-19T09:30:34.000Z</time>
      </trkpt>
      <trkpt lat="43.94848" lon="7.08501">
        <ele>699</ele>
        <time>2022-03-19T09:30:35.000Z</time>
      </trkpt>
      <trkpt lat="43.94851" lon="7.08498">
        <ele>699</ele>
        <time>2022-03-19T09:30:38.000Z</time>
      </trkpt>
      <trkpt lat="43.94853" lon="7.08494">
        <ele>699.40002441406</ele>
        <time>2022-03-19T09:30:41.000Z</time>
      </trkpt>
      <trkpt lat="43.94856" lon="7.08489">
        <ele>700</ele>
        <time>2022-03-19T09:30:45.000Z</time>
      </trkpt>
      <trkpt lat="43.94863" lon="7.08484">
        <ele>700.20001220703</ele>
        <time>2022-03-19T09:30:50.000Z</time>
      </trkpt>
      <trkpt lat="43.94867" lon="7.08483">
        <ele>700.40002441406</ele>
        <time>2022-03-19T09:30:51.000Z</time>
      </trkpt>
      <trkpt lat="43.94879" lon="7.08475">
        <ele>699.79998779297</ele>
        <time>2022-03-19T09:30:56.000Z</time>
      </trkpt>
      <trkpt lat="43.9489" lon="7.08471">
        <ele>700.40002441406</ele>
        <time>2022-03-19T09:31:03.000Z</time>
      </trkpt>
      <trkpt lat="43.94901" lon="7.08466">
        <ele>700.79998779297</ele>
        <time>2022-03-19T09:31:09.000Z</time>
      </trkpt>
      <trkpt lat="43.94915" lon="7.08464">
        <ele>701.40002441406</ele>
        <time>2022-03-19T09:31:15.000Z</time>
      </trkpt>
      <trkpt lat="43.94918" lon="7.08465">
        <ele>701.40002441406</ele>
        <time>2022-03-19T09:31:17.000Z</time>
      </trkpt>
      <trkpt lat="43.94919" lon="7.08466">
        <ele>701.40002441406</ele>
        <time>2022-03-19T09:31:18.000Z</time>
      </trkpt>
      <trkpt lat="43.94922" lon="7.08469">
        <ele>701.59997558594</ele>
        <time>2022-03-19T09:31:20.000Z</time>
      </trkpt>
      <trkpt lat="43.94926" lon="7.08471">
        <ele>701.79998779297</ele>
        <time>2022-03-19T09:31:22.000Z</time>
      </trkpt>
      <trkpt lat="43.94928" lon="7.08473">
        <ele>701.59997558594</ele>
        <time>2022-03-19T09:31:23.000Z</time>
      </trkpt>
      <trkpt lat="43.94934" lon="7.08477">
        <ele>701.59997558594</ele>
        <time>2022-03-19T09:31:25.000Z</time>
      </trkpt>
      <trkpt lat="43.9494" lon="7.0848">
        <ele>701.40002441406</ele>
        <time>2022-03-19T09:31:27.000Z</time>
      </trkpt>
      <trkpt lat="43.94944" lon="7.0848">
        <ele>701.20001220703</ele>
        <time>2022-03-19T09:31:29.000Z</time>
      </trkpt>
      <trkpt lat="43.94953" lon="7.08484">
        <ele>701.79998779297</ele>
        <time>2022-03-19T09:31:34.000Z</time>
      </trkpt>
      <trkpt lat="43.94961" lon="7.08487">
        <ele>702.40002441406</ele>
        <time>2022-03-19T09:31:38.000Z</time>
      </trkpt>
      <trkpt lat="43.94962" lon="7.08489">
        <ele>702.59997558594</ele>
        <time>2022-03-19T09:31:39.000Z</time>
      </trkpt>
      <trkpt lat="43.94972" lon="7.08491">
        <ele>703</ele>
        <time>2022-03-19T09:31:44.000Z</time>
      </trkpt>
      <trkpt lat="43.94981" lon="7.08492">
        <ele>703.59997558594</ele>
        <time>2022-03-19T09:31:49.000Z</time>
      </trkpt>
      <trkpt lat="43.94985" lon="7.08494">
        <ele>703.79998779297</ele>
        <time>2022-03-19T09:31:51.000Z</time>
      </trkpt>
      <trkpt lat="43.94998" lon="7.08494">
        <ele>704</ele>
        <time>2022-03-19T09:31:58.000Z</time>
      </trkpt>
      <trkpt lat="43.95006" lon="7.08486">
        <ele>704.20001220703</ele>
        <time>2022-03-19T09:32:04.000Z</time>
      </trkpt>
      <trkpt lat="43.95008" lon="7.08483">
        <ele>704.59997558594</ele>
        <time>2022-03-19T09:32:09.000Z</time>
      </trkpt>
      <trkpt lat="43.95014" lon="7.08475">
        <ele>705</ele>
        <time>2022-03-19T09:32:16.000Z</time>
      </trkpt>
      <trkpt lat="43.9502" lon="7.08476">
        <ele>704.79998779297</ele>
        <time>2022-03-19T09:32:18.000Z</time>
      </trkpt>
      <trkpt lat="43.95023" lon="7.08477">
        <ele>705</ele>
        <time>2022-03-19T09:32:19.000Z</time>
      </trkpt>
      <trkpt lat="43.95033" lon="7.08489">
        <ele>705.59997558594</ele>
        <time>2022-03-19T09:32:25.000Z</time>
      </trkpt>
      <trkpt lat="43.95035" lon="7.08491">
        <ele>705.59997558594</ele>
        <time>2022-03-19T09:32:26.000Z</time>
      </trkpt>
      <trkpt lat="43.95041" lon="7.08493">
        <ele>705.59997558594</ele>
        <time>2022-03-19T09:32:29.000Z</time>
      </trkpt>
      <trkpt lat="43.95047" lon="7.08492">
        <ele>705.59997558594</ele>
        <time>2022-03-19T09:32:32.000Z</time>
      </trkpt>
      <trkpt lat="43.95049" lon="7.08493">
        <ele>705.79998779297</ele>
        <time>2022-03-19T09:32:33.000Z</time>
      </trkpt>
      <trkpt lat="43.95057" lon="7.08499">
        <ele>706.20001220703</ele>
        <time>2022-03-19T09:32:37.000Z</time>
      </trkpt>
      <trkpt lat="43.95068" lon="7.08509">
        <ele>706.59997558594</ele>
        <time>2022-03-19T09:32:43.000Z</time>
      </trkpt>
      <trkpt lat="43.95074" lon="7.08514">
        <ele>706.79998779297</ele>
        <time>2022-03-19T09:32:46.000Z</time>
      </trkpt>
      <trkpt lat="43.95078" lon="7.08519">
        <ele>707</ele>
        <time>2022-03-19T09:32:49.000Z</time>
      </trkpt>
      <trkpt lat="43.95088" lon="7.08529">
        <ele>707.40002441406</ele>
        <time>2022-03-19T09:32:55.000Z</time>
      </trkpt>
      <trkpt lat="43.95099" lon="7.08542">
        <ele>707.40002441406</ele>
        <time>2022-03-19T09:33:02.000Z</time>
      </trkpt>
      <trkpt lat="43.95102" lon="7.08547">
        <ele>707.59997558594</ele>
        <time>2022-03-19T09:33:05.000Z</time>
      </trkpt>
      <trkpt lat="43.95107" lon="7.08551">
        <ele>707.79998779297</ele>
        <time>2022-03-19T09:33:08.000Z</time>
      </trkpt>
      <trkpt lat="43.95109" lon="7.08552">
        <ele>707.79998779297</ele>
        <time>2022-03-19T09:33:09.000Z</time>
      </trkpt>
      <trkpt lat="43.95118" lon="7.08557">
        <ele>707.79998779297</ele>
        <time>2022-03-19T09:33:15.000Z</time>
      </trkpt>
      <trkpt lat="43.95125" lon="7.08561">
        <ele>708.40002441406</ele>
        <time>2022-03-19T09:33:19.000Z</time>
      </trkpt>
      <trkpt lat="43.95126" lon="7.08561">
        <ele>708.20001220703</ele>
        <time>2022-03-19T09:33:21.000Z</time>
      </trkpt>
      <trkpt lat="43.95129" lon="7.08561">
        <ele>708.20001220703</ele>
        <time>2022-03-19T09:33:24.000Z</time>
      </trkpt>
      <trkpt lat="43.95135" lon="7.08562">
        <ele>708.40002441406</ele>
        <time>2022-03-19T09:33:28.000Z</time>
      </trkpt>
      <trkpt lat="43.95139" lon="7.08562">
        <ele>708.59997558594</ele>
        <time>2022-03-19T09:33:31.000Z</time>
      </trkpt>
      <trkpt lat="43.95142" lon="7.08563">
        <ele>708.79998779297</ele>
        <time>2022-03-19T09:33:33.000Z</time>
      </trkpt>
      <trkpt lat="43.95142" lon="7.08564">
        <ele>709</ele>
        <time>2022-03-19T09:33:34.000Z</time>
      </trkpt>
      <trkpt lat="43.95144" lon="7.08564">
        <ele>708.79998779297</ele>
        <time>2022-03-19T09:33:35.000Z</time>
      </trkpt>
      <trkpt lat="43.95151" lon="7.08565">
        <ele>709</ele>
        <time>2022-03-19T09:33:39.000Z</time>
      </trkpt>
      <trkpt lat="43.95156" lon="7.08567">
        <ele>708.79998779297</ele>
        <time>2022-03-19T09:33:45.000Z</time>
      </trkpt>
      <trkpt lat="43.95161" lon="7.08569">
        <ele>709.20001220703</ele>
        <time>2022-03-19T09:33:51.000Z</time>
      </trkpt>
      <trkpt lat="43.95162" lon="7.08571">
        <ele>709.20001220703</ele>
        <time>2022-03-19T09:33:53.000Z</time>
      </trkpt>
      <trkpt lat="43.95166" lon="7.08572">
        <ele>709.40002441406</ele>
        <time>2022-03-19T09:33:56.000Z</time>
      </trkpt>
      <trkpt lat="43.95169" lon="7.08572">
        <ele>709.59997558594</ele>
        <time>2022-03-19T09:33:58.000Z</time>
      </trkpt>
      <trkpt lat="43.95172" lon="7.08572">
        <ele>709.59997558594</ele>
        <time>2022-03-19T09:34:00.000Z</time>
      </trkpt>
      <trkpt lat="43.95174" lon="7.08573">
        <ele>709.40002441406</ele>
        <time>2022-03-19T09:34:02.000Z</time>
      </trkpt>
      <trkpt lat="43.95176" lon="7.08573">
        <ele>709.59997558594</ele>
        <time>2022-03-19T09:34:03.000Z</time>
      </trkpt>
      <trkpt lat="43.95181" lon="7.08573">
        <ele>710</ele>
        <time>2022-03-19T09:34:06.000Z</time>
      </trkpt>
      <trkpt lat="43.95185" lon="7.08574">
        <ele>710</ele>
        <time>2022-03-19T09:34:08.000Z</time>
      </trkpt>
      <trkpt lat="43.95192" lon="7.08574">
        <ele>710.20001220703</ele>
        <time>2022-03-19T09:34:11.000Z</time>
      </trkpt>
      <trkpt lat="43.95202" lon="7.08576">
        <ele>710.20001220703</ele>
        <time>2022-03-19T09:34:17.000Z</time>
      </trkpt>
      <trkpt lat="43.95212" lon="7.08578">
        <ele>710.59997558594</ele>
        <time>2022-03-19T09:34:22.000Z</time>
      </trkpt>
      <trkpt lat="43.95215" lon="7.08577">
        <ele>710.59997558594</ele>
        <time>2022-03-19T09:34:23.000Z</time>
      </trkpt>
      <trkpt lat="43.95221" lon="7.08576">
        <ele>710.79998779297</ele>
        <time>2022-03-19T09:34:26.000Z</time>
      </trkpt>
      <trkpt lat="43.95222" lon="7.08576">
        <ele>711</ele>
        <time>2022-03-19T09:34:27.000Z</time>
      </trkpt>
      <trkpt lat="43.95223" lon="7.08578">
        <ele>711</ele>
        <time>2022-03-19T09:34:28.000Z</time>
      </trkpt>
      <trkpt lat="43.95229" lon="7.08581">
        <ele>711.20001220703</ele>
        <time>2022-03-19T09:34:32.000Z</time>
      </trkpt>
      <trkpt lat="43.9523" lon="7.08582">
        <ele>711.40002441406</ele>
        <time>2022-03-19T09:34:33.000Z</time>
      </trkpt>
      <trkpt lat="43.95234" lon="7.08585">
        <ele>711.59997558594</ele>
        <time>2022-03-19T09:34:35.000Z</time>
      </trkpt>
      <trkpt lat="43.95235" lon="7.08587">
        <ele>711.59997558594</ele>
        <time>2022-03-19T09:34:36.000Z</time>
      </trkpt>
      <trkpt lat="43.95241" lon="7.086">
        <ele>712</ele>
        <time>2022-03-19T09:34:43.000Z</time>
      </trkpt>
      <trkpt lat="43.95241" lon="7.08603">
        <ele>712</ele>
        <time>2022-03-19T09:34:44.000Z</time>
      </trkpt>
      <trkpt lat="43.95244" lon="7.08609">
        <ele>712.20001220703</ele>
        <time>2022-03-19T09:34:47.000Z</time>
      </trkpt>
      <trkpt lat="43.95246" lon="7.08613">
        <ele>712.20001220703</ele>
        <time>2022-03-19T09:34:49.000Z</time>
      </trkpt>
      <trkpt lat="43.9525" lon="7.08621">
        <ele>712.40002441406</ele>
        <time>2022-03-19T09:34:52.000Z</time>
      </trkpt>
      <trkpt lat="43.95254" lon="7.08625">
        <ele>712.59997558594</ele>
        <time>2022-03-19T09:34:54.000Z</time>
      </trkpt>
      <trkpt lat="43.9526" lon="7.08647">
        <ele>712.79998779297</ele>
        <time>2022-03-19T09:35:00.000Z</time>
      </trkpt>
      <trkpt lat="43.95267" lon="7.08661">
        <ele>713</ele>
        <time>2022-03-19T09:35:05.000Z</time>
      </trkpt>
      <trkpt lat="43.9527" lon="7.08671">
        <ele>714.20001220703</ele>
        <time>2022-03-19T09:35:10.000Z</time>
      </trkpt>
      <trkpt lat="43.95272" lon="7.08677">
        <ele>714.40002441406</ele>
        <time>2022-03-19T09:35:12.000Z</time>
      </trkpt>
      <trkpt lat="43.95273" lon="7.08678">
        <ele>714.59997558594</ele>
        <time>2022-03-19T09:35:13.000Z</time>
      </trkpt>
      <trkpt lat="43.95277" lon="7.08679">
        <ele>715</ele>
        <time>2022-03-19T09:35:16.000Z</time>
      </trkpt>
      <trkpt lat="43.9528" lon="7.08679">
        <ele>715</ele>
        <time>2022-03-19T09:35:17.000Z</time>
      </trkpt>
      <trkpt lat="43.95283" lon="7.08678">
        <ele>715.20001220703</ele>
        <time>2022-03-19T09:35:18.000Z</time>
      </trkpt>
      <trkpt lat="43.95291" lon="7.08671">
        <ele>714.79998779297</ele>
        <time>2022-03-19T09:35:21.000Z</time>
      </trkpt>
      <trkpt lat="43.95293" lon="7.08669">
        <ele>714.59997558594</ele>
        <time>2022-03-19T09:35:22.000Z</time>
      </trkpt>
      <trkpt lat="43.95296" lon="7.08666">
        <ele>714</ele>
        <time>2022-03-19T09:35:24.000Z</time>
      </trkpt>
      <trkpt lat="43.95298" lon="7.08663">
        <ele>714.20001220703</ele>
        <time>2022-03-19T09:35:26.000Z</time>
      </trkpt>
      <trkpt lat="43.95304" lon="7.08655">
        <ele>714.79998779297</ele>
        <time>2022-03-19T09:35:31.000Z</time>
      </trkpt>
      <trkpt lat="43.95307" lon="7.08653">
        <ele>715.20001220703</ele>
        <time>2022-03-19T09:35:33.000Z</time>
      </trkpt>
      <trkpt lat="43.95315" lon="7.08651">
        <ele>715.40002441406</ele>
        <time>2022-03-19T09:35:39.000Z</time>
      </trkpt>
      <trkpt lat="43.95324" lon="7.0865">
        <ele>715.79998779297</ele>
        <time>2022-03-19T09:35:44.000Z</time>
      </trkpt>
      <trkpt lat="43.95335" lon="7.08641">
        <ele>716</ele>
        <time>2022-03-19T09:35:52.000Z</time>
      </trkpt>
      <trkpt lat="43.95339" lon="7.08636">
        <ele>716.20001220703</ele>
        <time>2022-03-19T09:35:54.000Z</time>
      </trkpt>
      <trkpt lat="43.95344" lon="7.08629">
        <ele>716.20001220703</ele>
        <time>2022-03-19T09:35:57.000Z</time>
      </trkpt>
      <trkpt lat="43.95355" lon="7.08615">
        <ele>716.20001220703</ele>
        <time>2022-03-19T09:36:04.000Z</time>
      </trkpt>
      <trkpt lat="43.95367" lon="7.08604">
        <ele>716.59997558594</ele>
        <time>2022-03-19T09:36:10.000Z</time>
      </trkpt>
      <trkpt lat="43.95376" lon="7.08598">
        <ele>717</ele>
        <time>2022-03-19T09:36:15.000Z</time>
      </trkpt>
      <trkpt lat="43.9538" lon="7.08595">
        <ele>717.20001220703</ele>
        <time>2022-03-19T09:36:17.000Z</time>
      </trkpt>
      <trkpt lat="43.95382" lon="7.08594">
        <ele>717.40002441406</ele>
        <time>2022-03-19T09:36:18.000Z</time>
      </trkpt>
      <trkpt lat="43.95386" lon="7.08593">
        <ele>717.59997558594</ele>
        <time>2022-03-19T09:36:20.000Z</time>
      </trkpt>
      <trkpt lat="43.95403" lon="7.08589">
        <ele>717.59997558594</ele>
        <time>2022-03-19T09:36:28.000Z</time>
      </trkpt>
      <trkpt lat="43.95417" lon="7.08582">
        <ele>718.20001220703</ele>
        <time>2022-03-19T09:36:35.000Z</time>
      </trkpt>
      <trkpt lat="43.95423" lon="7.08573">
        <ele>718.20001220703</ele>
        <time>2022-03-19T09:36:40.000Z</time>
      </trkpt>
      <trkpt lat="43.95424" lon="7.08572">
        <ele>718.40002441406</ele>
        <time>2022-03-19T09:36:41.000Z</time>
      </trkpt>
      <trkpt lat="43.95425" lon="7.08569">
        <ele>718.79998779297</ele>
        <time>2022-03-19T09:36:45.000Z</time>
      </trkpt>
      <trkpt lat="43.95426" lon="7.08568">
        <ele>719</ele>
        <time>2022-03-19T09:36:46.000Z</time>
      </trkpt>
      <trkpt lat="43.95428" lon="7.08567">
        <ele>719</ele>
        <time>2022-03-19T09:36:51.000Z</time>
      </trkpt>
      <trkpt lat="43.95429" lon="7.08567">
        <ele>719</ele>
        <time>2022-03-19T09:36:52.000Z</time>
      </trkpt>
      <trkpt lat="43.95436" lon="7.08567">
        <ele>719</ele>
        <time>2022-03-19T09:36:56.000Z</time>
      </trkpt>
      <trkpt lat="43.95452" lon="7.08562">
        <ele>719.40002441406</ele>
        <time>2022-03-19T09:37:04.000Z</time>
      </trkpt>
      <trkpt lat="43.9546" lon="7.08558">
        <ele>719.40002441406</ele>
        <time>2022-03-19T09:37:08.000Z</time>
      </trkpt>
      <trkpt lat="43.95465" lon="7.08557">
        <ele>719.59997558594</ele>
        <time>2022-03-19T09:37:10.000Z</time>
      </trkpt>
      <trkpt lat="43.95472" lon="7.08556">
        <ele>719.59997558594</ele>
        <time>2022-03-19T09:37:13.000Z</time>
      </trkpt>
      <trkpt lat="43.95473" lon="7.08555">
        <ele>719.59997558594</ele>
        <time>2022-03-19T09:37:14.000Z</time>
      </trkpt>
      <trkpt lat="43.95483" lon="7.08546">
        <ele>720.20001220703</ele>
        <time>2022-03-19T09:37:20.000Z</time>
      </trkpt>
      <trkpt lat="43.95489" lon="7.08534">
        <ele>720.20001220703</ele>
        <time>2022-03-19T09:37:26.000Z</time>
      </trkpt>
      <trkpt lat="43.95494" lon="7.08528">
        <ele>720.40002441406</ele>
        <time>2022-03-19T09:37:29.000Z</time>
      </trkpt>
      <trkpt lat="43.95499" lon="7.08523">
        <ele>720.59997558594</ele>
        <time>2022-03-19T09:37:32.000Z</time>
      </trkpt>
      <trkpt lat="43.95506" lon="7.08518">
        <ele>721.40002441406</ele>
        <time>2022-03-19T09:37:37.000Z</time>
      </trkpt>
      <trkpt lat="43.95506" lon="7.08517">
        <ele>721.40002441406</ele>
        <time>2022-03-19T09:37:38.000Z</time>
      </trkpt>
      <trkpt lat="43.9551" lon="7.08513">
        <ele>720.79998779297</ele>
        <time>2022-03-19T09:37:44.000Z</time>
      </trkpt>
      <trkpt lat="43.95514" lon="7.08511">
        <ele>721.40002441406</ele>
        <time>2022-03-19T09:37:50.000Z</time>
      </trkpt>
      <trkpt lat="43.9552" lon="7.0851">
        <ele>721.59997558594</ele>
        <time>2022-03-19T09:37:57.000Z</time>
      </trkpt>
      <trkpt lat="43.95527" lon="7.0851">
        <ele>721.79998779297</ele>
        <time>2022-03-19T09:38:00.000Z</time>
      </trkpt>
      <trkpt lat="43.9553" lon="7.08507">
        <ele>721.79998779297</ele>
        <time>2022-03-19T09:38:02.000Z</time>
      </trkpt>
      <trkpt lat="43.95539" lon="7.08501">
        <ele>722.20001220703</ele>
        <time>2022-03-19T09:38:07.000Z</time>
      </trkpt>
      <trkpt lat="43.95542" lon="7.08499">
        <ele>722.40002441406</ele>
        <time>2022-03-19T09:38:12.000Z</time>
      </trkpt>
      <trkpt lat="43.95544" lon="7.08497">
        <ele>722.40002441406</ele>
        <time>2022-03-19T09:38:13.000Z</time>
      </trkpt>
      <trkpt lat="43.9555" lon="7.08494">
        <ele>722.59997558594</ele>
        <time>2022-03-19T09:38:18.000Z</time>
      </trkpt>
      <trkpt lat="43.95563" lon="7.08494">
        <ele>722.79998779297</ele>
        <time>2022-03-19T09:38:24.000Z</time>
      </trkpt>
      <trkpt lat="43.95568" lon="7.08495">
        <ele>722.79998779297</ele>
        <time>2022-03-19T09:38:28.000Z</time>
      </trkpt>
      <trkpt lat="43.95574" lon="7.0849">
        <ele>723</ele>
        <time>2022-03-19T09:38:32.000Z</time>
      </trkpt>
      <trkpt lat="43.95576" lon="7.0849">
        <ele>723.20001220703</ele>
        <time>2022-03-19T09:38:33.000Z</time>
      </trkpt>
      <trkpt lat="43.9558" lon="7.08494">
        <ele>723.40002441406</ele>
        <time>2022-03-19T09:38:35.000Z</time>
      </trkpt>
      <trkpt lat="43.95585" lon="7.0851">
        <ele>723.59997558594</ele>
        <time>2022-03-19T09:38:41.000Z</time>
      </trkpt>
      <trkpt lat="43.95587" lon="7.08527">
        <ele>724</ele>
        <time>2022-03-19T09:38:47.000Z</time>
      </trkpt>
      <trkpt lat="43.95585" lon="7.08538">
        <ele>724.79998779297</ele>
        <time>2022-03-19T09:38:51.000Z</time>
      </trkpt>
      <trkpt lat="43.95583" lon="7.08543">
        <ele>725</ele>
        <time>2022-03-19T09:38:53.000Z</time>
      </trkpt>
      <trkpt lat="43.95582" lon="7.08547">
        <ele>725</ele>
        <time>2022-03-19T09:38:55.000Z</time>
      </trkpt>
      <trkpt lat="43.95583" lon="7.08548">
        <ele>725</ele>
        <time>2022-03-19T09:38:57.000Z</time>
      </trkpt>
      <trkpt lat="43.95584" lon="7.08548">
        <ele>725</ele>
        <time>2022-03-19T09:38:58.000Z</time>
      </trkpt>
      <trkpt lat="43.95591" lon="7.08549">
        <ele>725.59997558594</ele>
        <time>2022-03-19T09:39:02.000Z</time>
      </trkpt>
      <trkpt lat="43.95594" lon="7.08549">
        <ele>725.79998779297</ele>
        <time>2022-03-19T09:39:03.000Z</time>
      </trkpt>
      <trkpt lat="43.95598" lon="7.08547">
        <ele>726</ele>
        <time>2022-03-19T09:39:05.000Z</time>
      </trkpt>
      <trkpt lat="43.95602" lon="7.08542">
        <ele>725.79998779297</ele>
        <time>2022-03-19T09:39:07.000Z</time>
      </trkpt>
      <trkpt lat="43.95615" lon="7.08526">
        <ele>726.20001220703</ele>
        <time>2022-03-19T09:39:15.000Z</time>
      </trkpt>
      <trkpt lat="43.95626" lon="7.08518">
        <ele>726.59997558594</ele>
        <time>2022-03-19T09:39:21.000Z</time>
      </trkpt>
      <trkpt lat="43.95637" lon="7.08514">
        <ele>726.59997558594</ele>
        <time>2022-03-19T09:39:26.000Z</time>
      </trkpt>
      <trkpt lat="43.95642" lon="7.08514">
        <ele>726.79998779297</ele>
        <time>2022-03-19T09:39:28.000Z</time>
      </trkpt>
      <trkpt lat="43.95644" lon="7.08514">
        <ele>726.79998779297</ele>
        <time>2022-03-19T09:39:29.000Z</time>
      </trkpt>
      <trkpt lat="43.95647" lon="7.08514">
        <ele>727</ele>
        <time>2022-03-19T09:39:31.000Z</time>
      </trkpt>
      <trkpt lat="43.95653" lon="7.08511">
        <ele>727.40002441406</ele>
        <time>2022-03-19T09:39:34.000Z</time>
      </trkpt>
      <trkpt lat="43.95657" lon="7.08507">
        <ele>727.59997558594</ele>
        <time>2022-03-19T09:39:37.000Z</time>
      </trkpt>
      <trkpt lat="43.95661" lon="7.08503">
        <ele>727.59997558594</ele>
        <time>2022-03-19T09:39:39.000Z</time>
      </trkpt>
      <trkpt lat="43.95667" lon="7.08504">
        <ele>727.79998779297</ele>
        <time>2022-03-19T09:39:42.000Z</time>
      </trkpt>
      <trkpt lat="43.95668" lon="7.08505">
        <ele>727.79998779297</ele>
        <time>2022-03-19T09:39:43.000Z</time>
      </trkpt>
      <trkpt lat="43.9567" lon="7.08505">
        <ele>728</ele>
        <time>2022-03-19T09:39:44.000Z</time>
      </trkpt>
      <trkpt lat="43.95674" lon="7.08505">
        <ele>728</ele>
        <time>2022-03-19T09:39:46.000Z</time>
      </trkpt>
      <trkpt lat="43.95679" lon="7.08505">
        <ele>728.20001220703</ele>
        <time>2022-03-19T09:39:49.000Z</time>
      </trkpt>
      <trkpt lat="43.95682" lon="7.08506">
        <ele>728.20001220703</ele>
        <time>2022-03-19T09:39:51.000Z</time>
      </trkpt>
      <trkpt lat="43.95695" lon="7.08507">
        <ele>728.79998779297</ele>
        <time>2022-03-19T09:39:57.000Z</time>
      </trkpt>
      <trkpt lat="43.95697" lon="7.08507">
        <ele>728.79998779297</ele>
        <time>2022-03-19T09:39:58.000Z</time>
      </trkpt>
      <trkpt lat="43.95707" lon="7.08509">
        <ele>729.20001220703</ele>
        <time>2022-03-19T09:40:03.000Z</time>
      </trkpt>
      <trkpt lat="43.95719" lon="7.08499">
        <ele>729.59997558594</ele>
        <time>2022-03-19T09:40:08.000Z</time>
      </trkpt>
      <trkpt lat="43.95725" lon="7.08492">
        <ele>729.79998779297</ele>
        <time>2022-03-19T09:40:12.000Z</time>
      </trkpt>
      <trkpt lat="43.95735" lon="7.08482">
        <ele>729.79998779297</ele>
        <time>2022-03-19T09:40:16.000Z</time>
      </trkpt>
      <trkpt lat="43.95745" lon="7.08469">
        <ele>730.40002441406</ele>
        <time>2022-03-19T09:40:22.000Z</time>
      </trkpt>
      <trkpt lat="43.95755" lon="7.08458">
        <ele>730.40002441406</ele>
        <time>2022-03-19T09:40:26.000Z</time>
      </trkpt>
      <trkpt lat="43.95855" lon="7.08334">
        <ele>734.40002441406</ele>
        <time>2022-03-19T09:41:23.000Z</time>
      </trkpt>
      <trkpt lat="43.95861" lon="7.08324">
        <ele>734.20001220703</ele>
        <time>2022-03-19T09:41:26.000Z</time>
      </trkpt>
      <trkpt lat="43.95874" lon="7.08313">
        <ele>734.59997558594</ele>
        <time>2022-03-19T09:41:30.000Z</time>
      </trkpt>
      <trkpt lat="43.95881" lon="7.08317">
        <ele>735</ele>
        <time>2022-03-19T09:41:34.000Z</time>
      </trkpt>
      <trkpt lat="43.95884" lon="7.08318">
        <ele>735.40002441406</ele>
        <time>2022-03-19T09:41:35.000Z</time>
      </trkpt>
      <trkpt lat="43.95884" lon="7.08325">
        <ele>735.59997558594</ele>
        <time>2022-03-19T09:41:37.000Z</time>
      </trkpt>
      <trkpt lat="43.95885" lon="7.08327">
        <ele>735.59997558594</ele>
        <time>2022-03-19T09:41:38.000Z</time>
      </trkpt>
      <trkpt lat="43.95886" lon="7.08339">
        <ele>736</ele>
        <time>2022-03-19T09:41:42.000Z</time>
      </trkpt>
      <trkpt lat="43.95887" lon="7.0834">
        <ele>736</ele>
        <time>2022-03-19T09:41:43.000Z</time>
      </trkpt>
      <trkpt lat="43.9589" lon="7.0834">
        <ele>736</ele>
        <time>2022-03-19T09:41:46.000Z</time>
      </trkpt>
      <trkpt lat="43.95896" lon="7.08333">
        <ele>736.20001220703</ele>
        <time>2022-03-19T09:41:50.000Z</time>
      </trkpt>
      <trkpt lat="43.95897" lon="7.0833">
        <ele>736.40002441406</ele>
        <time>2022-03-19T09:41:51.000Z</time>
      </trkpt>
      <trkpt lat="43.95899" lon="7.08328">
        <ele>736.40002441406</ele>
        <time>2022-03-19T09:41:52.000Z</time>
      </trkpt>
      <trkpt lat="43.95905" lon="7.08319">
        <ele>736.20001220703</ele>
        <time>2022-03-19T09:41:56.000Z</time>
      </trkpt>
      <trkpt lat="43.95913" lon="7.08307">
        <ele>736.40002441406</ele>
        <time>2022-03-19T09:42:01.000Z</time>
      </trkpt>
      <trkpt lat="43.95924" lon="7.083">
        <ele>736.40002441406</ele>
        <time>2022-03-19T09:42:06.000Z</time>
      </trkpt>
      <trkpt lat="43.95935" lon="7.08302">
        <ele>737.20001220703</ele>
        <time>2022-03-19T09:42:11.000Z</time>
      </trkpt>
      <trkpt lat="43.95938" lon="7.08301">
        <ele>737.40002441406</ele>
        <time>2022-03-19T09:42:12.000Z</time>
      </trkpt>
      <trkpt lat="43.95948" lon="7.08303">
        <ele>738</ele>
        <time>2022-03-19T09:42:16.000Z</time>
      </trkpt>
      <trkpt lat="43.95958" lon="7.08305">
        <ele>738</ele>
        <time>2022-03-19T09:42:20.000Z</time>
      </trkpt>
      <trkpt lat="43.95963" lon="7.08303">
        <ele>738.20001220703</ele>
        <time>2022-03-19T09:42:22.000Z</time>
      </trkpt>
      <trkpt lat="43.95969" lon="7.08299">
        <ele>738.40002441406</ele>
        <time>2022-03-19T09:42:24.000Z</time>
      </trkpt>
      <trkpt lat="43.95983" lon="7.08293">
        <ele>739</ele>
        <time>2022-03-19T09:42:29.000Z</time>
      </trkpt>
      <trkpt lat="43.95991" lon="7.08291">
        <ele>739.20001220703</ele>
        <time>2022-03-19T09:42:33.000Z</time>
      </trkpt>
      <trkpt lat="43.95996" lon="7.08293">
        <ele>739.40002441406</ele>
        <time>2022-03-19T09:42:35.000Z</time>
      </trkpt>
      <trkpt lat="43.95998" lon="7.08294">
        <ele>739.59997558594</ele>
        <time>2022-03-19T09:42:36.000Z</time>
      </trkpt>
      <trkpt lat="43.96007" lon="7.08292">
        <ele>740</ele>
        <time>2022-03-19T09:42:39.000Z</time>
      </trkpt>
      <trkpt lat="43.96015" lon="7.08296">
        <ele>739.40002441406</ele>
        <time>2022-03-19T09:42:42.000Z</time>
      </trkpt>
      <trkpt lat="43.96016" lon="7.08306">
        <ele>739.79998779297</ele>
        <time>2022-03-19T09:42:47.000Z</time>
      </trkpt>
      <trkpt lat="43.96015" lon="7.08316">
        <ele>740.79998779297</ele>
        <time>2022-03-19T09:42:51.000Z</time>
      </trkpt>
      <trkpt lat="43.96016" lon="7.08319">
        <ele>740.79998779297</ele>
        <time>2022-03-19T09:42:52.000Z</time>
      </trkpt>
      <trkpt lat="43.96016" lon="7.08321">
        <ele>741</ele>
        <time>2022-03-19T09:42:53.000Z</time>
      </trkpt>
      <trkpt lat="43.96016" lon="7.08323">
        <ele>741.20001220703</ele>
        <time>2022-03-19T09:42:54.000Z</time>
      </trkpt>
      <trkpt lat="43.96012" lon="7.08333">
        <ele>741.79998779297</ele>
        <time>2022-03-19T09:42:57.000Z</time>
      </trkpt>
      <trkpt lat="43.96009" lon="7.08339">
        <ele>741.40002441406</ele>
        <time>2022-03-19T09:42:59.000Z</time>
      </trkpt>
      <trkpt lat="43.96005" lon="7.08342">
        <ele>740.40002441406</ele>
        <time>2022-03-19T09:43:01.000Z</time>
      </trkpt>
      <trkpt lat="43.96004" lon="7.08345">
        <ele>739</ele>
        <time>2022-03-19T09:43:03.000Z</time>
      </trkpt>
      <trkpt lat="43.96006" lon="7.08346">
        <ele>738.40002441406</ele>
        <time>2022-03-19T09:43:04.000Z</time>
      </trkpt>
      <trkpt lat="43.96011" lon="7.08348">
        <ele>737.59997558594</ele>
        <time>2022-03-19T09:43:06.000Z</time>
      </trkpt>
      <trkpt lat="43.96015" lon="7.08351">
        <ele>737.40002441406</ele>
        <time>2022-03-19T09:43:07.000Z</time>
      </trkpt>
      <trkpt lat="43.9602" lon="7.08353">
        <ele>736.79998779297</ele>
        <time>2022-03-19T09:43:08.000Z</time>
      </trkpt>
      <trkpt lat="43.96024" lon="7.08355">
        <ele>736.20001220703</ele>
        <time>2022-03-19T09:43:09.000Z</time>
      </trkpt>
      <trkpt lat="43.96032" lon="7.08358">
        <ele>735</ele>
        <time>2022-03-19T09:43:11.000Z</time>
      </trkpt>
      <trkpt lat="43.96036" lon="7.0836">
        <ele>733.79998779297</ele>
        <time>2022-03-19T09:43:12.000Z</time>
      </trkpt>
      <trkpt lat="43.96041" lon="7.08365">
        <ele>732.79998779297</ele>
        <time>2022-03-19T09:43:14.000Z</time>
      </trkpt>
      <trkpt lat="43.96044" lon="7.08368">
        <ele>732.40002441406</ele>
        <time>2022-03-19T09:43:15.000Z</time>
      </trkpt>
      <trkpt lat="43.96049" lon="7.08374">
        <ele>731.20001220703</ele>
        <time>2022-03-19T09:43:17.000Z</time>
      </trkpt>
      <trkpt lat="43.96055" lon="7.0838">
        <ele>730</ele>
        <time>2022-03-19T09:43:19.000Z</time>
      </trkpt>
      <trkpt lat="43.96063" lon="7.08387">
        <ele>728.79998779297</ele>
        <time>2022-03-19T09:43:22.000Z</time>
      </trkpt>
      <trkpt lat="43.96076" lon="7.08397">
        <ele>728</ele>
        <time>2022-03-19T09:43:26.000Z</time>
      </trkpt>
      <trkpt lat="43.96079" lon="7.08399">
        <ele>727.79998779297</ele>
        <time>2022-03-19T09:43:27.000Z</time>
      </trkpt>
      <trkpt lat="43.96082" lon="7.08403">
        <ele>727.20001220703</ele>
        <time>2022-03-19T09:43:28.000Z</time>
      </trkpt>
      <trkpt lat="43.9609" lon="7.08411">
        <ele>726.59997558594</ele>
        <time>2022-03-19T09:43:30.000Z</time>
      </trkpt>
      <trkpt lat="43.96094" lon="7.08414">
        <ele>726</ele>
        <time>2022-03-19T09:43:31.000Z</time>
      </trkpt>
      <trkpt lat="43.96098" lon="7.08418">
        <ele>725.40002441406</ele>
        <time>2022-03-19T09:43:32.000Z</time>
      </trkpt>
      <trkpt lat="43.96101" lon="7.0843">
        <ele>724.79998779297</ele>
        <time>2022-03-19T09:43:34.000Z</time>
      </trkpt>
      <trkpt lat="43.96101" lon="7.08437">
        <ele>724.40002441406</ele>
        <time>2022-03-19T09:43:35.000Z</time>
      </trkpt>
      <trkpt lat="43.96102" lon="7.08455">
        <ele>723.40002441406</ele>
        <time>2022-03-19T09:43:38.000Z</time>
      </trkpt>
      <trkpt lat="43.96102" lon="7.08461">
        <ele>722.79998779297</ele>
        <time>2022-03-19T09:43:39.000Z</time>
      </trkpt>
      <trkpt lat="43.96109" lon="7.08475">
        <ele>722</ele>
        <time>2022-03-19T09:43:42.000Z</time>
      </trkpt>
      <trkpt lat="43.96114" lon="7.0848">
        <ele>721.20001220703</ele>
        <time>2022-03-19T09:43:43.000Z</time>
      </trkpt>
      <trkpt lat="43.96122" lon="7.08483">
        <ele>719.40002441406</ele>
        <time>2022-03-19T09:43:45.000Z</time>
      </trkpt>
      <trkpt lat="43.9613" lon="7.08482">
        <ele>717.79998779297</ele>
        <time>2022-03-19T09:43:47.000Z</time>
      </trkpt>
      <trkpt lat="43.9614" lon="7.08481">
        <ele>716.79998779297</ele>
        <time>2022-03-19T09:43:49.000Z</time>
      </trkpt>
      <trkpt lat="43.96145" lon="7.08483">
        <ele>716</ele>
        <time>2022-03-19T09:43:50.000Z</time>
      </trkpt>
      <trkpt lat="43.96155" lon="7.08489">
        <ele>714.40002441406</ele>
        <time>2022-03-19T09:43:52.000Z</time>
      </trkpt>
      <trkpt lat="43.96162" lon="7.08491">
        <ele>713</ele>
        <time>2022-03-19T09:43:53.000Z</time>
      </trkpt>
      <trkpt lat="43.96171" lon="7.08502">
        <ele>711.59997558594</ele>
        <time>2022-03-19T09:43:55.000Z</time>
      </trkpt>
      <trkpt lat="43.96182" lon="7.08511">
        <ele>710</ele>
        <time>2022-03-19T09:43:57.000Z</time>
      </trkpt>
      <trkpt lat="43.96188" lon="7.08514">
        <ele>708.79998779297</ele>
        <time>2022-03-19T09:43:58.000Z</time>
      </trkpt>
      <trkpt lat="43.96193" lon="7.08515">
        <ele>707.59997558594</ele>
        <time>2022-03-19T09:43:59.000Z</time>
      </trkpt>
      <trkpt lat="43.96197" lon="7.08514">
        <ele>705.79998779297</ele>
        <time>2022-03-19T09:44:00.000Z</time>
      </trkpt>
      <trkpt lat="43.962" lon="7.08512">
        <ele>704.59997558594</ele>
        <time>2022-03-19T09:44:01.000Z</time>
      </trkpt>
      <trkpt lat="43.96202" lon="7.08512">
        <ele>703.20001220703</ele>
        <time>2022-03-19T09:44:02.000Z</time>
      </trkpt>
      <trkpt lat="43.96204" lon="7.08511">
        <ele>702</ele>
        <time>2022-03-19T09:44:04.000Z</time>
      </trkpt>
      <trkpt lat="43.96206" lon="7.08512">
        <ele>701.20001220703</ele>
        <time>2022-03-19T09:44:07.000Z</time>
      </trkpt>
      <trkpt lat="43.96208" lon="7.08514">
        <ele>701</ele>
        <time>2022-03-19T09:44:08.000Z</time>
      </trkpt>
      <trkpt lat="43.9621" lon="7.08517">
        <ele>701</ele>
        <time>2022-03-19T09:44:09.000Z</time>
      </trkpt>
      <trkpt lat="43.96212" lon="7.08523">
        <ele>700.59997558594</ele>
        <time>2022-03-19T09:44:11.000Z</time>
      </trkpt>
      <trkpt lat="43.96213" lon="7.08525">
        <ele>700.40002441406</ele>
        <time>2022-03-19T09:44:12.000Z</time>
      </trkpt>
      <trkpt lat="43.96214" lon="7.08528">
        <ele>699.79998779297</ele>
        <time>2022-03-19T09:44:13.000Z</time>
      </trkpt>
      <trkpt lat="43.96214" lon="7.08535">
        <ele>697.59997558594</ele>
        <time>2022-03-19T09:44:15.000Z</time>
      </trkpt>
      <trkpt lat="43.96214" lon="7.08537">
        <ele>696.40002441406</ele>
        <time>2022-03-19T09:44:16.000Z</time>
      </trkpt>
      <trkpt lat="43.96215" lon="7.08537">
        <ele>695.20001220703</ele>
        <time>2022-03-19T09:44:17.000Z</time>
      </trkpt>
      <trkpt lat="43.96216" lon="7.08535">
        <ele>694.40002441406</ele>
        <time>2022-03-19T09:44:18.000Z</time>
      </trkpt>
      <trkpt lat="43.96216" lon="7.08533">
        <ele>693.79998779297</ele>
        <time>2022-03-19T09:44:19.000Z</time>
      </trkpt>
      <trkpt lat="43.96219" lon="7.08532">
        <ele>692.40002441406</ele>
        <time>2022-03-19T09:44:22.000Z</time>
      </trkpt>
      <trkpt lat="43.96219" lon="7.08533">
        <ele>691.40002441406</ele>
        <time>2022-03-19T09:44:26.000Z</time>
      </trkpt>
      <trkpt lat="43.96218" lon="7.08533">
        <ele>691.40002441406</ele>
        <time>2022-03-19T09:44:27.000Z</time>
      </trkpt>
      <trkpt lat="43.96219" lon="7.08535">
        <ele>691.59997558594</ele>
        <time>2022-03-19T09:44:30.000Z</time>
      </trkpt>
      <trkpt lat="43.96218" lon="7.08535">
        <ele>691.59997558594</ele>
        <time>2022-03-19T09:44:31.000Z</time>
      </trkpt>
      <trkpt lat="43.9622" lon="7.0854">
        <ele>692.20001220703</ele>
        <time>2022-03-19T09:44:38.000Z</time>
      </trkpt>
      <trkpt lat="43.9622" lon="7.08543">
        <ele>692.40002441406</ele>
        <time>2022-03-19T09:44:42.000Z</time>
      </trkpt>
      <trkpt lat="43.96219" lon="7.08546">
        <ele>692.59997558594</ele>
        <time>2022-03-19T09:44:44.000Z</time>
      </trkpt>
      <trkpt lat="43.96219" lon="7.08545">
        <ele>692.59997558594</ele>
        <time>2022-03-19T09:44:45.000Z</time>
      </trkpt>
      <trkpt lat="43.96216" lon="7.08552">
        <ele>693.59997558594</ele>
        <time>2022-03-19T09:44:52.000Z</time>
      </trkpt>
      <trkpt lat="43.96214" lon="7.08554">
        <ele>694.59997558594</ele>
        <time>2022-03-19T09:44:56.000Z</time>
      </trkpt>
      <trkpt lat="43.96214" lon="7.08554">
        <ele>694.79998779297</ele>
        <time>2022-03-19T09:44:57.000Z</time>
      </trkpt>
      <trkpt lat="43.96213" lon="7.08555">
        <ele>695</ele>
        <time>2022-03-19T09:44:58.000Z</time>
      </trkpt>
      <trkpt lat="43.96211" lon="7.08556">
        <ele>695.79998779297</ele>
        <time>2022-03-19T09:45:03.000Z</time>
      </trkpt>
      <trkpt lat="43.9621" lon="7.08558">
        <ele>696.79998779297</ele>
        <time>2022-03-19T09:45:09.000Z</time>
      </trkpt>
      <trkpt lat="43.9621" lon="7.08558">
        <ele>697.40002441406</ele>
        <time>2022-03-19T09:45:11.000Z</time>
      </trkpt>
      <trkpt lat="43.96212" lon="7.08559">
        <ele>697.79998779297</ele>
        <time>2022-03-19T09:45:14.000Z</time>
      </trkpt>
      <trkpt lat="43.96213" lon="7.08559">
        <ele>698.40002441406</ele>
        <time>2022-03-19T09:45:17.000Z</time>
      </trkpt>
      <trkpt lat="43.96214" lon="7.08558">
        <ele>698.59997558594</ele>
        <time>2022-03-19T09:45:19.000Z</time>
      </trkpt>
      <trkpt lat="43.96215" lon="7.08556">
        <ele>699</ele>
        <time>2022-03-19T09:45:21.000Z</time>
      </trkpt>
      <trkpt lat="43.96215" lon="7.08555">
        <ele>699.40002441406</ele>
        <time>2022-03-19T09:45:23.000Z</time>
      </trkpt>
      <trkpt lat="43.96216" lon="7.08553">
        <ele>700</ele>
        <time>2022-03-19T09:45:26.000Z</time>
      </trkpt>
      <trkpt lat="43.96221" lon="7.08549">
        <ele>701</ele>
        <time>2022-03-19T09:45:33.000Z</time>
      </trkpt>
      <trkpt lat="43.96221" lon="7.08549">
        <ele>701.20001220703</ele>
        <time>2022-03-19T09:45:34.000Z</time>
      </trkpt>
      <trkpt lat="43.96224" lon="7.08544">
        <ele>702.40002441406</ele>
        <time>2022-03-19T09:45:40.000Z</time>
      </trkpt>
      <trkpt lat="43.96224" lon="7.08544">
        <ele>702.40002441406</ele>
        <time>2022-03-19T09:45:41.000Z</time>
      </trkpt>
      <trkpt lat="43.96227" lon="7.08538">
        <ele>703.40002441406</ele>
        <time>2022-03-19T09:45:46.000Z</time>
      </trkpt>
      <trkpt lat="43.96228" lon="7.08537">
        <ele>703.59997558594</ele>
        <time>2022-03-19T09:45:48.000Z</time>
      </trkpt>
      <trkpt lat="43.96231" lon="7.08534">
        <ele>704.40002441406</ele>
        <time>2022-03-19T09:45:53.000Z</time>
      </trkpt>
      <trkpt lat="43.96232" lon="7.08533">
        <ele>704.79998779297</ele>
        <time>2022-03-19T09:45:56.000Z</time>
      </trkpt>
      <trkpt lat="43.96233" lon="7.08531">
        <ele>705.40002441406</ele>
        <time>2022-03-19T09:45:59.000Z</time>
      </trkpt>
      <trkpt lat="43.96234" lon="7.08531">
        <ele>705.40002441406</ele>
        <time>2022-03-19T09:46:00.000Z</time>
      </trkpt>
      <trkpt lat="43.96236" lon="7.0853">
        <ele>706</ele>
        <time>2022-03-19T09:46:03.000Z</time>
      </trkpt>
      <trkpt lat="43.96237" lon="7.0853">
        <ele>706.59997558594</ele>
        <time>2022-03-19T09:46:06.000Z</time>
      </trkpt>
      <trkpt lat="43.96238" lon="7.08529">
        <ele>707.40002441406</ele>
        <time>2022-03-19T09:46:11.000Z</time>
      </trkpt>
      <trkpt lat="43.96239" lon="7.08529">
        <ele>707.59997558594</ele>
        <time>2022-03-19T09:46:12.000Z</time>
      </trkpt>
      <trkpt lat="43.96242" lon="7.0853">
        <ele>708.79998779297</ele>
        <time>2022-03-19T09:46:18.000Z</time>
      </trkpt>
      <trkpt lat="43.96242" lon="7.0853">
        <ele>709</ele>
        <time>2022-03-19T09:46:19.000Z</time>
      </trkpt>
      <trkpt lat="43.96244" lon="7.0853">
        <ele>709.79998779297</ele>
        <time>2022-03-19T09:46:23.000Z</time>
      </trkpt>
      <trkpt lat="43.96245" lon="7.0853">
        <ele>710.20001220703</ele>
        <time>2022-03-19T09:46:25.000Z</time>
      </trkpt>
      <trkpt lat="43.96246" lon="7.08532">
        <ele>711</ele>
        <time>2022-03-19T09:46:30.000Z</time>
      </trkpt>
      <trkpt lat="43.96247" lon="7.08532">
        <ele>711.20001220703</ele>
        <time>2022-03-19T09:46:31.000Z</time>
      </trkpt>
      <trkpt lat="43.96251" lon="7.0853">
        <ele>711.59997558594</ele>
        <time>2022-03-19T09:46:35.000Z</time>
      </trkpt>
      <trkpt lat="43.96251" lon="7.08529">
        <ele>712</ele>
        <time>2022-03-19T09:46:37.000Z</time>
      </trkpt>
      <trkpt lat="43.96257" lon="7.08526">
        <ele>712.79998779297</ele>
        <time>2022-03-19T09:46:42.000Z</time>
      </trkpt>
      <trkpt lat="43.96259" lon="7.08525">
        <ele>713</ele>
        <time>2022-03-19T09:46:44.000Z</time>
      </trkpt>
      <trkpt lat="43.96262" lon="7.08524">
        <ele>714.20001220703</ele>
        <time>2022-03-19T09:46:50.000Z</time>
      </trkpt>
      <trkpt lat="43.96264" lon="7.08521">
        <ele>714.59997558594</ele>
        <time>2022-03-19T09:46:56.000Z</time>
      </trkpt>
      <trkpt lat="43.96266" lon="7.08519">
        <ele>715.20001220703</ele>
        <time>2022-03-19T09:46:59.000Z</time>
      </trkpt>
      <trkpt lat="43.96269" lon="7.08516">
        <ele>716</ele>
        <time>2022-03-19T09:47:03.000Z</time>
      </trkpt>
      <trkpt lat="43.96272" lon="7.08516">
        <ele>716.40002441406</ele>
        <time>2022-03-19T09:47:06.000Z</time>
      </trkpt>
      <trkpt lat="43.96275" lon="7.08516">
        <ele>716.79998779297</ele>
        <time>2022-03-19T09:47:09.000Z</time>
      </trkpt>
      <trkpt lat="43.96278" lon="7.08516">
        <ele>717.40002441406</ele>
        <time>2022-03-19T09:47:12.000Z</time>
      </trkpt>
      <trkpt lat="43.96281" lon="7.08516">
        <ele>718.40002441406</ele>
        <time>2022-03-19T09:47:16.000Z</time>
      </trkpt>
      <trkpt lat="43.96284" lon="7.08514">
        <ele>719.59997558594</ele>
        <time>2022-03-19T09:47:22.000Z</time>
      </trkpt>
      <trkpt lat="43.96284" lon="7.08512">
        <ele>720</ele>
        <time>2022-03-19T09:47:24.000Z</time>
      </trkpt>
      <trkpt lat="43.96283" lon="7.0851">
        <ele>720.79998779297</ele>
        <time>2022-03-19T09:47:28.000Z</time>
      </trkpt>
      <trkpt lat="43.96283" lon="7.08509">
        <ele>721.20001220703</ele>
        <time>2022-03-19T09:47:31.000Z</time>
      </trkpt>
      <trkpt lat="43.96284" lon="7.08506">
        <ele>721.79998779297</ele>
        <time>2022-03-19T09:47:36.000Z</time>
      </trkpt>
      <trkpt lat="43.96284" lon="7.08506">
        <ele>722.20001220703</ele>
        <time>2022-03-19T09:47:38.000Z</time>
      </trkpt>
      <trkpt lat="43.96285" lon="7.08506">
        <ele>722.59997558594</ele>
        <time>2022-03-19T09:47:43.000Z</time>
      </trkpt>
      <trkpt lat="43.96286" lon="7.08504">
        <ele>722.59997558594</ele>
        <time>2022-03-19T09:47:46.000Z</time>
      </trkpt>
      <trkpt lat="43.96288" lon="7.08504">
        <ele>722.40002441406</ele>
        <time>2022-03-19T09:47:48.000Z</time>
      </trkpt>
      <trkpt lat="43.96289" lon="7.08504">
        <ele>722.59997558594</ele>
        <time>2022-03-19T09:47:49.000Z</time>
      </trkpt>
      <trkpt lat="43.9629" lon="7.08506">
        <ele>723</ele>
        <time>2022-03-19T09:47:52.000Z</time>
      </trkpt>
      <trkpt lat="43.96291" lon="7.08506">
        <ele>723.20001220703</ele>
        <time>2022-03-19T09:47:54.000Z</time>
      </trkpt>
      <trkpt lat="43.96294" lon="7.08507">
        <ele>724</ele>
        <time>2022-03-19T09:47:58.000Z</time>
      </trkpt>
      <trkpt lat="43.96294" lon="7.08507">
        <ele>724.20001220703</ele>
        <time>2022-03-19T09:47:59.000Z</time>
      </trkpt>
      <trkpt lat="43.96295" lon="7.08505">
        <ele>725.20001220703</ele>
        <time>2022-03-19T09:48:04.000Z</time>
      </trkpt>
      <trkpt lat="43.96294" lon="7.08502">
        <ele>725.59997558594</ele>
        <time>2022-03-19T09:48:06.000Z</time>
      </trkpt>
      <trkpt lat="43.96294" lon="7.08499">
        <ele>726.20001220703</ele>
        <time>2022-03-19T09:48:10.000Z</time>
      </trkpt>
      <trkpt lat="43.96294" lon="7.08497">
        <ele>726.40002441406</ele>
        <time>2022-03-19T09:48:12.000Z</time>
      </trkpt>
      <trkpt lat="43.96295" lon="7.08495">
        <ele>727.40002441406</ele>
        <time>2022-03-19T09:48:17.000Z</time>
      </trkpt>
      <trkpt lat="43.96297" lon="7.08492">
        <ele>728.40002441406</ele>
        <time>2022-03-19T09:48:22.000Z</time>
      </trkpt>
      <trkpt lat="43.96298" lon="7.08491">
        <ele>728.59997558594</ele>
        <time>2022-03-19T09:48:24.000Z</time>
      </trkpt>
      <trkpt lat="43.96298" lon="7.08488">
        <ele>729.40002441406</ele>
        <time>2022-03-19T09:48:28.000Z</time>
      </trkpt>
      <trkpt lat="43.96297" lon="7.08486">
        <ele>729.79998779297</ele>
        <time>2022-03-19T09:48:31.000Z</time>
      </trkpt>
      <trkpt lat="43.96296" lon="7.08485">
        <ele>730.40002441406</ele>
        <time>2022-03-19T09:48:34.000Z</time>
      </trkpt>
      <trkpt lat="43.96295" lon="7.08484">
        <ele>731.20001220703</ele>
        <time>2022-03-19T09:48:38.000Z</time>
      </trkpt>
      <trkpt lat="43.96295" lon="7.08484">
        <ele>731.59997558594</ele>
        <time>2022-03-19T09:48:40.000Z</time>
      </trkpt>
      <trkpt lat="43.96294" lon="7.08485">
        <ele>732.20001220703</ele>
        <time>2022-03-19T09:48:43.000Z</time>
      </trkpt>
      <trkpt lat="43.96293" lon="7.08486">
        <ele>732.79998779297</ele>
        <time>2022-03-19T09:48:48.000Z</time>
      </trkpt>
      <trkpt lat="43.96293" lon="7.08486">
        <ele>733</ele>
        <time>2022-03-19T09:48:50.000Z</time>
      </trkpt>
      <trkpt lat="43.96291" lon="7.08484">
        <ele>733.79998779297</ele>
        <time>2022-03-19T09:48:55.000Z</time>
      </trkpt>
      <trkpt lat="43.96292" lon="7.08482">
        <ele>734.20001220703</ele>
        <time>2022-03-19T09:48:58.000Z</time>
      </trkpt>
      <trkpt lat="43.96291" lon="7.08481">
        <ele>734.79998779297</ele>
        <time>2022-03-19T09:49:01.000Z</time>
      </trkpt>
      <trkpt lat="43.96291" lon="7.08479">
        <ele>735.59997558594</ele>
        <time>2022-03-19T09:49:04.000Z</time>
      </trkpt>
      <trkpt lat="43.96291" lon="7.08476">
        <ele>736</ele>
        <time>2022-03-19T09:49:07.000Z</time>
      </trkpt>
      <trkpt lat="43.96291" lon="7.08472">
        <ele>736.59997558594</ele>
        <time>2022-03-19T09:49:11.000Z</time>
      </trkpt>
      <trkpt lat="43.96292" lon="7.08471">
        <ele>737</ele>
        <time>2022-03-19T09:49:13.000Z</time>
      </trkpt>
      <trkpt lat="43.96292" lon="7.08467">
        <ele>737.59997558594</ele>
        <time>2022-03-19T09:49:17.000Z</time>
      </trkpt>
      <trkpt lat="43.96293" lon="7.08464">
        <ele>738.20001220703</ele>
        <time>2022-03-19T09:49:20.000Z</time>
      </trkpt>
      <trkpt lat="43.96294" lon="7.08461">
        <ele>739</ele>
        <time>2022-03-19T09:49:25.000Z</time>
      </trkpt>
      <trkpt lat="43.96294" lon="7.0846">
        <ele>739.20001220703</ele>
        <time>2022-03-19T09:49:26.000Z</time>
      </trkpt>
      <trkpt lat="43.96295" lon="7.08458">
        <ele>740.20001220703</ele>
        <time>2022-03-19T09:49:31.000Z</time>
      </trkpt>
      <trkpt lat="43.96297" lon="7.08451">
        <ele>741</ele>
        <time>2022-03-19T09:49:38.000Z</time>
      </trkpt>
      <trkpt lat="43.96297" lon="7.08451">
        <ele>741.20001220703</ele>
        <time>2022-03-19T09:49:39.000Z</time>
      </trkpt>
      <trkpt lat="43.963" lon="7.08447">
        <ele>742.59997558594</ele>
        <time>2022-03-19T09:49:45.000Z</time>
      </trkpt>
      <trkpt lat="43.96301" lon="7.08447">
        <ele>743</ele>
        <time>2022-03-19T09:49:52.000Z</time>
      </trkpt>
      <trkpt lat="43.96304" lon="7.08443">
        <ele>743</ele>
        <time>2022-03-19T09:49:58.000Z</time>
      </trkpt>
      <trkpt lat="43.96307" lon="7.08437">
        <ele>743.59997558594</ele>
        <time>2022-03-19T09:50:02.000Z</time>
      </trkpt>
      <trkpt lat="43.9631" lon="7.0843">
        <ele>744.59997558594</ele>
        <time>2022-03-19T09:50:06.000Z</time>
      </trkpt>
      <trkpt lat="43.96311" lon="7.08429">
        <ele>744.79998779297</ele>
        <time>2022-03-19T09:50:07.000Z</time>
      </trkpt>
      <trkpt lat="43.96314" lon="7.08423">
        <ele>746</ele>
        <time>2022-03-19T09:50:11.000Z</time>
      </trkpt>
      <trkpt lat="43.96316" lon="7.0842">
        <ele>746.40002441406</ele>
        <time>2022-03-19T09:50:13.000Z</time>
      </trkpt>
      <trkpt lat="43.96318" lon="7.08415">
        <ele>747.20001220703</ele>
        <time>2022-03-19T09:50:16.000Z</time>
      </trkpt>
      <trkpt lat="43.96321" lon="7.08409">
        <ele>748</ele>
        <time>2022-03-19T09:50:20.000Z</time>
      </trkpt>
      <trkpt lat="43.96322" lon="7.08407">
        <ele>748.20001220703</ele>
        <time>2022-03-19T09:50:21.000Z</time>
      </trkpt>
      <trkpt lat="43.96328" lon="7.08402">
        <ele>749.20001220703</ele>
        <time>2022-03-19T09:50:26.000Z</time>
      </trkpt>
      <trkpt lat="43.96329" lon="7.08401">
        <ele>749.59997558594</ele>
        <time>2022-03-19T09:50:27.000Z</time>
      </trkpt>
      <trkpt lat="43.96332" lon="7.08398">
        <ele>750.40002441406</ele>
        <time>2022-03-19T09:50:30.000Z</time>
      </trkpt>
      <trkpt lat="43.96334" lon="7.08395">
        <ele>751.20001220703</ele>
        <time>2022-03-19T09:50:33.000Z</time>
      </trkpt>
      <trkpt lat="43.96334" lon="7.08395">
        <ele>751.59997558594</ele>
        <time>2022-03-19T09:50:34.000Z</time>
      </trkpt>
      <trkpt lat="43.96336" lon="7.08391">
        <ele>751.79998779297</ele>
        <time>2022-03-19T09:50:35.000Z</time>
      </trkpt>
      <trkpt lat="43.96337" lon="7.08389">
        <ele>752</ele>
        <time>2022-03-19T09:50:36.000Z</time>
      </trkpt>
      <trkpt lat="43.96338" lon="7.08386">
        <ele>752.59997558594</ele>
        <time>2022-03-19T09:50:38.000Z</time>
      </trkpt>
      <trkpt lat="43.9634" lon="7.08382">
        <ele>753.40002441406</ele>
        <time>2022-03-19T09:50:41.000Z</time>
      </trkpt>
      <trkpt lat="43.96341" lon="7.08381">
        <ele>753.59997558594</ele>
        <time>2022-03-19T09:50:42.000Z</time>
      </trkpt>
      <trkpt lat="43.96345" lon="7.08378">
        <ele>754.79998779297</ele>
        <time>2022-03-19T09:50:46.000Z</time>
      </trkpt>
      <trkpt lat="43.96346" lon="7.08377">
        <ele>755</ele>
        <time>2022-03-19T09:50:47.000Z</time>
      </trkpt>
      <trkpt lat="43.96349" lon="7.08375">
        <ele>755.79998779297</ele>
        <time>2022-03-19T09:50:50.000Z</time>
      </trkpt>
      <trkpt lat="43.96352" lon="7.08374">
        <ele>756.59997558594</ele>
        <time>2022-03-19T09:50:53.000Z</time>
      </trkpt>
      <trkpt lat="43.96354" lon="7.08373">
        <ele>757</ele>
        <time>2022-03-19T09:50:55.000Z</time>
      </trkpt>
      <trkpt lat="43.96359" lon="7.08372">
        <ele>757.79998779297</ele>
        <time>2022-03-19T09:50:59.000Z</time>
      </trkpt>
      <trkpt lat="43.9636" lon="7.08371">
        <ele>758</ele>
        <time>2022-03-19T09:51:00.000Z</time>
      </trkpt>
      <trkpt lat="43.96364" lon="7.0837">
        <ele>759.20001220703</ele>
        <time>2022-03-19T09:51:04.000Z</time>
      </trkpt>
      <trkpt lat="43.9637" lon="7.08367">
        <ele>760.20001220703</ele>
        <time>2022-03-19T09:51:10.000Z</time>
      </trkpt>
      <trkpt lat="43.96371" lon="7.08366">
        <ele>760.40002441406</ele>
        <time>2022-03-19T09:51:11.000Z</time>
      </trkpt>
      <trkpt lat="43.96372" lon="7.08366">
        <ele>760.59997558594</ele>
        <time>2022-03-19T09:51:12.000Z</time>
      </trkpt>
      <trkpt lat="43.96376" lon="7.08363">
        <ele>761.40002441406</ele>
        <time>2022-03-19T09:51:18.000Z</time>
      </trkpt>
      <trkpt lat="43.96381" lon="7.08362">
        <ele>762.20001220703</ele>
        <time>2022-03-19T09:51:23.000Z</time>
      </trkpt>
      <trkpt lat="43.96383" lon="7.08361">
        <ele>762.40002441406</ele>
        <time>2022-03-19T09:51:25.000Z</time>
      </trkpt>
      <trkpt lat="43.96414" lon="7.0835">
        <ele>765.40002441406</ele>
        <time>2022-03-19T09:51:44.000Z</time>
      </trkpt>
      <trkpt lat="43.96413" lon="7.0835">
        <ele>765.59997558594</ele>
        <time>2022-03-19T09:51:45.000Z</time>
      </trkpt>
      <trkpt lat="43.96415" lon="7.0835">
        <ele>766</ele>
        <time>2022-03-19T09:51:46.000Z</time>
      </trkpt>
      <trkpt lat="43.96416" lon="7.0835">
        <ele>766.20001220703</ele>
        <time>2022-03-19T09:51:47.000Z</time>
      </trkpt>
      <trkpt lat="43.96418" lon="7.08351">
        <ele>766.59997558594</ele>
        <time>2022-03-19T09:51:51.000Z</time>
      </trkpt>
      <trkpt lat="43.9642" lon="7.08352">
        <ele>767</ele>
        <time>2022-03-19T09:51:54.000Z</time>
      </trkpt>
      <trkpt lat="43.96422" lon="7.08353">
        <ele>767.20001220703</ele>
        <time>2022-03-19T09:51:58.000Z</time>
      </trkpt>
      <trkpt lat="43.96426" lon="7.08356">
        <ele>768</ele>
        <time>2022-03-19T09:52:03.000Z</time>
      </trkpt>
      <trkpt lat="43.96428" lon="7.08358">
        <ele>768.40002441406</ele>
        <time>2022-03-19T09:52:06.000Z</time>
      </trkpt>
      <trkpt lat="43.96429" lon="7.08359">
        <ele>769</ele>
        <time>2022-03-19T09:52:09.000Z</time>
      </trkpt>
      <trkpt lat="43.96434" lon="7.08361">
        <ele>770.20001220703</ele>
        <time>2022-03-19T09:52:17.000Z</time>
      </trkpt>
      <trkpt lat="43.96435" lon="7.0836">
        <ele>770.79998779297</ele>
        <time>2022-03-19T09:52:20.000Z</time>
      </trkpt>
      <trkpt lat="43.96436" lon="7.08358">
        <ele>771</ele>
        <time>2022-03-19T09:52:21.000Z</time>
      </trkpt>
      <trkpt lat="43.96437" lon="7.08357">
        <ele>771.20001220703</ele>
        <time>2022-03-19T09:52:23.000Z</time>
      </trkpt>
      <trkpt lat="43.96438" lon="7.08357">
        <ele>771.40002441406</ele>
        <time>2022-03-19T09:52:24.000Z</time>
      </trkpt>
      <trkpt lat="43.9644" lon="7.08356">
        <ele>771.79998779297</ele>
        <time>2022-03-19T09:52:26.000Z</time>
      </trkpt>
      <trkpt lat="43.96444" lon="7.08354">
        <ele>772.20001220703</ele>
        <time>2022-03-19T09:52:29.000Z</time>
      </trkpt>
      <trkpt lat="43.96445" lon="7.08354">
        <ele>772.59997558594</ele>
        <time>2022-03-19T09:52:32.000Z</time>
      </trkpt>
      <trkpt lat="43.96448" lon="7.08357">
        <ele>773.40002441406</ele>
        <time>2022-03-19T09:52:38.000Z</time>
      </trkpt>
      <trkpt lat="43.96449" lon="7.08356">
        <ele>773.20001220703</ele>
        <time>2022-03-19T09:52:42.000Z</time>
      </trkpt>
      <trkpt lat="43.96454" lon="7.08355">
        <ele>773.40002441406</ele>
        <time>2022-03-19T09:52:45.000Z</time>
      </trkpt>
      <trkpt lat="43.96466" lon="7.08352">
        <ele>774</ele>
        <time>2022-03-19T09:52:52.000Z</time>
      </trkpt>
      <trkpt lat="43.96467" lon="7.08352">
        <ele>774</ele>
        <time>2022-03-19T09:52:53.000Z</time>
      </trkpt>
      <trkpt lat="43.96468" lon="7.08352">
        <ele>774.20001220703</ele>
        <time>2022-03-19T09:52:54.000Z</time>
      </trkpt>
      <trkpt lat="43.96472" lon="7.08351">
        <ele>774.59997558594</ele>
        <time>2022-03-19T09:52:56.000Z</time>
      </trkpt>
      <trkpt lat="43.96475" lon="7.0835">
        <ele>774.79998779297</ele>
        <time>2022-03-19T09:52:58.000Z</time>
      </trkpt>
      <trkpt lat="43.96479" lon="7.0835">
        <ele>775.79998779297</ele>
        <time>2022-03-19T09:53:01.000Z</time>
      </trkpt>
      <trkpt lat="43.9648" lon="7.0835">
        <ele>776</ele>
        <time>2022-03-19T09:53:02.000Z</time>
      </trkpt>
      <trkpt lat="43.96482" lon="7.08349">
        <ele>776.59997558594</ele>
        <time>2022-03-19T09:53:05.000Z</time>
      </trkpt>
      <trkpt lat="43.96484" lon="7.08348">
        <ele>776.79998779297</ele>
        <time>2022-03-19T09:53:07.000Z</time>
      </trkpt>
      <trkpt lat="43.96486" lon="7.08347">
        <ele>777</ele>
        <time>2022-03-19T09:53:08.000Z</time>
      </trkpt>
      <trkpt lat="43.96491" lon="7.08346">
        <ele>778</ele>
        <time>2022-03-19T09:53:13.000Z</time>
      </trkpt>
      <trkpt lat="43.96498" lon="7.08346">
        <ele>778.79998779297</ele>
        <time>2022-03-19T09:53:19.000Z</time>
      </trkpt>
      <trkpt lat="43.96499" lon="7.08347">
        <ele>779.20001220703</ele>
        <time>2022-03-19T09:53:21.000Z</time>
      </trkpt>
      <trkpt lat="43.96502" lon="7.08346">
        <ele>780</ele>
        <time>2022-03-19T09:53:25.000Z</time>
      </trkpt>
      <trkpt lat="43.96502" lon="7.08344">
        <ele>780.20001220703</ele>
        <time>2022-03-19T09:53:26.000Z</time>
      </trkpt>
      <trkpt lat="43.96506" lon="7.08346">
        <ele>780.20001220703</ele>
        <time>2022-03-19T09:53:31.000Z</time>
      </trkpt>
      <trkpt lat="43.96507" lon="7.08346">
        <ele>780.40002441406</ele>
        <time>2022-03-19T09:53:32.000Z</time>
      </trkpt>
      <trkpt lat="43.96513" lon="7.08347">
        <ele>780.79998779297</ele>
        <time>2022-03-19T09:53:36.000Z</time>
      </trkpt>
      <trkpt lat="43.96516" lon="7.08348">
        <ele>781.20001220703</ele>
        <time>2022-03-19T09:53:40.000Z</time>
      </trkpt>
      <trkpt lat="43.96519" lon="7.08349">
        <ele>781.79998779297</ele>
        <time>2022-03-19T09:53:43.000Z</time>
      </trkpt>
      <trkpt lat="43.96522" lon="7.08349">
        <ele>782.40002441406</ele>
        <time>2022-03-19T09:53:46.000Z</time>
      </trkpt>
      <trkpt lat="43.96526" lon="7.08351">
        <ele>783.40002441406</ele>
        <time>2022-03-19T09:53:51.000Z</time>
      </trkpt>
      <trkpt lat="43.96529" lon="7.08351">
        <ele>784.59997558594</ele>
        <time>2022-03-19T09:53:56.000Z</time>
      </trkpt>
      <trkpt lat="43.9653" lon="7.08351">
        <ele>785</ele>
        <time>2022-03-19T09:53:58.000Z</time>
      </trkpt>
      <trkpt lat="43.96531" lon="7.08351">
        <ele>785.59997558594</ele>
        <time>2022-03-19T09:54:01.000Z</time>
      </trkpt>
      <trkpt lat="43.96533" lon="7.08351">
        <ele>786.59997558594</ele>
        <time>2022-03-19T09:54:05.000Z</time>
      </trkpt>
      <trkpt lat="43.96534" lon="7.08351">
        <ele>786.59997558594</ele>
        <time>2022-03-19T09:54:06.000Z</time>
      </trkpt>
      <trkpt lat="43.96538" lon="7.08352">
        <ele>787.79998779297</ele>
        <time>2022-03-19T09:54:12.000Z</time>
      </trkpt>
      <trkpt lat="43.96542" lon="7.08353">
        <ele>788.79998779297</ele>
        <time>2022-03-19T09:54:18.000Z</time>
      </trkpt>
      <trkpt lat="43.96543" lon="7.08353">
        <ele>789</ele>
        <time>2022-03-19T09:54:19.000Z</time>
      </trkpt>
      <trkpt lat="43.96547" lon="7.08354">
        <ele>790.20001220703</ele>
        <time>2022-03-19T09:54:24.000Z</time>
      </trkpt>
      <trkpt lat="43.9655" lon="7.08355">
        <ele>790.79998779297</ele>
        <time>2022-03-19T09:54:27.000Z</time>
      </trkpt>
      <trkpt lat="43.96551" lon="7.08355">
        <ele>791.20001220703</ele>
        <time>2022-03-19T09:54:29.000Z</time>
      </trkpt>
      <trkpt lat="43.96558" lon="7.08355">
        <ele>792.20001220703</ele>
        <time>2022-03-19T09:54:36.000Z</time>
      </trkpt>
      <trkpt lat="43.96559" lon="7.08355">
        <ele>792.40002441406</ele>
        <time>2022-03-19T09:54:37.000Z</time>
      </trkpt>
      <trkpt lat="43.96563" lon="7.08356">
        <ele>793.40002441406</ele>
        <time>2022-03-19T09:54:42.000Z</time>
      </trkpt>
      <trkpt lat="43.96567" lon="7.08356">
        <ele>794</ele>
        <time>2022-03-19T09:54:46.000Z</time>
      </trkpt>
      <trkpt lat="43.96569" lon="7.08357">
        <ele>794.40002441406</ele>
        <time>2022-03-19T09:54:49.000Z</time>
      </trkpt>
      <trkpt lat="43.96571" lon="7.08356">
        <ele>795</ele>
        <time>2022-03-19T09:54:53.000Z</time>
      </trkpt>
      <trkpt lat="43.96571" lon="7.08355">
        <ele>795.59997558594</ele>
        <time>2022-03-19T09:54:56.000Z</time>
      </trkpt>
      <trkpt lat="43.9657" lon="7.08353">
        <ele>796.40002441406</ele>
        <time>2022-03-19T09:55:00.000Z</time>
      </trkpt>
      <trkpt lat="43.96571" lon="7.08352">
        <ele>796.79998779297</ele>
        <time>2022-03-19T09:55:03.000Z</time>
      </trkpt>
      <trkpt lat="43.96572" lon="7.08351">
        <ele>797.40002441406</ele>
        <time>2022-03-19T09:55:08.000Z</time>
      </trkpt>
      <trkpt lat="43.96572" lon="7.0835">
        <ele>797.79998779297</ele>
        <time>2022-03-19T09:55:10.000Z</time>
      </trkpt>
      <trkpt lat="43.96573" lon="7.08348">
        <ele>798.79998779297</ele>
        <time>2022-03-19T09:55:16.000Z</time>
      </trkpt>
      <trkpt lat="43.96574" lon="7.08348">
        <ele>799</ele>
        <time>2022-03-19T09:55:17.000Z</time>
      </trkpt>
      <trkpt lat="43.96575" lon="7.08348">
        <ele>799.79998779297</ele>
        <time>2022-03-19T09:55:22.000Z</time>
      </trkpt>
      <trkpt lat="43.96577" lon="7.08349">
        <ele>800.40002441406</ele>
        <time>2022-03-19T09:55:24.000Z</time>
      </trkpt>
      <trkpt lat="43.96579" lon="7.08349">
        <ele>801</ele>
        <time>2022-03-19T09:55:28.000Z</time>
      </trkpt>
      <trkpt lat="43.9658" lon="7.0835">
        <ele>801</ele>
        <time>2022-03-19T09:55:29.000Z</time>
      </trkpt>
      <trkpt lat="43.96582" lon="7.0835">
        <ele>802</ele>
        <time>2022-03-19T09:55:34.000Z</time>
      </trkpt>
      <trkpt lat="43.96583" lon="7.0835">
        <ele>802.59997558594</ele>
        <time>2022-03-19T09:55:37.000Z</time>
      </trkpt>
      <trkpt lat="43.96584" lon="7.0835">
        <ele>803</ele>
        <time>2022-03-19T09:55:40.000Z</time>
      </trkpt>
      <trkpt lat="43.96586" lon="7.08351">
        <ele>803.59997558594</ele>
        <time>2022-03-19T09:55:44.000Z</time>
      </trkpt>
      <trkpt lat="43.9659" lon="7.08352">
        <ele>804</ele>
        <time>2022-03-19T09:55:50.000Z</time>
      </trkpt>
      <trkpt lat="43.9659" lon="7.08353">
        <ele>804.20001220703</ele>
        <time>2022-03-19T09:55:51.000Z</time>
      </trkpt>
      <trkpt lat="43.96595" lon="7.08355">
        <ele>804.59997558594</ele>
        <time>2022-03-19T09:55:56.000Z</time>
      </trkpt>
      <trkpt lat="43.96596" lon="7.08356">
        <ele>804.79998779297</ele>
        <time>2022-03-19T09:55:57.000Z</time>
      </trkpt>
      <trkpt lat="43.96601" lon="7.08357">
        <ele>805</ele>
        <time>2022-03-19T09:56:00.000Z</time>
      </trkpt>
      <trkpt lat="43.96603" lon="7.08357">
        <ele>805.20001220703</ele>
        <time>2022-03-19T09:56:01.000Z</time>
      </trkpt>
      <trkpt lat="43.96606" lon="7.08357">
        <ele>805.40002441406</ele>
        <time>2022-03-19T09:56:03.000Z</time>
      </trkpt>
      <trkpt lat="43.9661" lon="7.08358">
        <ele>805.59997558594</ele>
        <time>2022-03-19T09:56:05.000Z</time>
      </trkpt>
      <trkpt lat="43.96615" lon="7.0836">
        <ele>806.20001220703</ele>
        <time>2022-03-19T09:56:08.000Z</time>
      </trkpt>
      <trkpt lat="43.96619" lon="7.08361">
        <ele>806.59997558594</ele>
        <time>2022-03-19T09:56:11.000Z</time>
      </trkpt>
      <trkpt lat="43.96627" lon="7.08361">
        <ele>807</ele>
        <time>2022-03-19T09:56:15.000Z</time>
      </trkpt>
      <trkpt lat="43.96637" lon="7.08362">
        <ele>807</ele>
        <time>2022-03-19T09:56:19.000Z</time>
      </trkpt>
      <trkpt lat="43.96652" lon="7.08362">
        <ele>807</ele>
        <time>2022-03-19T09:56:25.000Z</time>
      </trkpt>
      <trkpt lat="43.96661" lon="7.08363">
        <ele>807</ele>
        <time>2022-03-19T09:56:29.000Z</time>
      </trkpt>
      <trkpt lat="43.96676" lon="7.08363">
        <ele>807</ele>
        <time>2022-03-19T09:56:34.000Z</time>
      </trkpt>
      <trkpt lat="43.96678" lon="7.08363">
        <ele>807</ele>
        <time>2022-03-19T09:56:35.000Z</time>
      </trkpt>
      <trkpt lat="43.96688" lon="7.08361">
        <ele>807.40002441406</ele>
        <time>2022-03-19T09:56:38.000Z</time>
      </trkpt>
      <trkpt lat="43.9669" lon="7.0836">
        <ele>807.40002441406</ele>
        <time>2022-03-19T09:56:39.000Z</time>
      </trkpt>
      <trkpt lat="43.96708" lon="7.08357">
        <ele>807.79998779297</ele>
        <time>2022-03-19T09:56:45.000Z</time>
      </trkpt>
      <trkpt lat="43.96715" lon="7.08356">
        <ele>808.59997558594</ele>
        <time>2022-03-19T09:56:49.000Z</time>
      </trkpt>
      <trkpt lat="43.96717" lon="7.08356">
        <ele>808.79998779297</ele>
        <time>2022-03-19T09:56:50.000Z</time>
      </trkpt>
      <trkpt lat="43.96726" lon="7.08355">
        <ele>809.59997558594</ele>
        <time>2022-03-19T09:56:55.000Z</time>
      </trkpt>
      <trkpt lat="43.96728" lon="7.08355">
        <ele>809.79998779297</ele>
        <time>2022-03-19T09:56:56.000Z</time>
      </trkpt>
      <trkpt lat="43.96738" lon="7.08355">
        <ele>810.40002441406</ele>
        <time>2022-03-19T09:57:00.000Z</time>
      </trkpt>
      <trkpt lat="43.96744" lon="7.08354">
        <ele>810.59997558594</ele>
        <time>2022-03-19T09:57:03.000Z</time>
      </trkpt>
      <trkpt lat="43.9675" lon="7.08352">
        <ele>811</ele>
        <time>2022-03-19T09:57:06.000Z</time>
      </trkpt>
      <trkpt lat="43.96757" lon="7.0835">
        <ele>811.79998779297</ele>
        <time>2022-03-19T09:57:10.000Z</time>
      </trkpt>
      <trkpt lat="43.96762" lon="7.0835">
        <ele>812.40002441406</ele>
        <time>2022-03-19T09:57:13.000Z</time>
      </trkpt>
      <trkpt lat="43.9677" lon="7.08351">
        <ele>812.79998779297</ele>
        <time>2022-03-19T09:57:17.000Z</time>
      </trkpt>
      <trkpt lat="43.96772" lon="7.08351">
        <ele>813</ele>
        <time>2022-03-19T09:57:18.000Z</time>
      </trkpt>
      <trkpt lat="43.96779" lon="7.08354">
        <ele>813.59997558594</ele>
        <time>2022-03-19T09:57:22.000Z</time>
      </trkpt>
      <trkpt lat="43.9678" lon="7.08355">
        <ele>814</ele>
        <time>2022-03-19T09:57:23.000Z</time>
      </trkpt>
      <trkpt lat="43.96789" lon="7.08364">
        <ele>814.59997558594</ele>
        <time>2022-03-19T09:57:29.000Z</time>
      </trkpt>
      <trkpt lat="43.96793" lon="7.08369">
        <ele>814.79998779297</ele>
        <time>2022-03-19T09:57:32.000Z</time>
      </trkpt>
      <trkpt lat="43.96793" lon="7.08371">
        <ele>815</ele>
        <time>2022-03-19T09:57:33.000Z</time>
      </trkpt>
      <trkpt lat="43.96793" lon="7.08374">
        <ele>815.20001220703</ele>
        <time>2022-03-19T09:57:34.000Z</time>
      </trkpt>
      <trkpt lat="43.96794" lon="7.08375">
        <ele>815.20001220703</ele>
        <time>2022-03-19T09:57:35.000Z</time>
      </trkpt>
      <trkpt lat="43.96797" lon="7.08383">
        <ele>815.79998779297</ele>
        <time>2022-03-19T09:57:38.000Z</time>
      </trkpt>
      <trkpt lat="43.96803" lon="7.08394">
        <ele>815.79998779297</ele>
        <time>2022-03-19T09:57:44.000Z</time>
      </trkpt>
      <trkpt lat="43.96803" lon="7.08397">
        <ele>816</ele>
        <time>2022-03-19T09:57:47.000Z</time>
      </trkpt>
      <trkpt lat="43.96804" lon="7.08397">
        <ele>816.20001220703</ele>
        <time>2022-03-19T09:57:48.000Z</time>
      </trkpt>
      <trkpt lat="43.96805" lon="7.08403">
        <ele>816.40002441406</ele>
        <time>2022-03-19T09:57:52.000Z</time>
      </trkpt>
      <trkpt lat="43.96805" lon="7.08402">
        <ele>816.40002441406</ele>
        <time>2022-03-19T09:57:53.000Z</time>
      </trkpt>
      <trkpt lat="43.96807" lon="7.08403">
        <ele>816.59997558594</ele>
        <time>2022-03-19T09:57:54.000Z</time>
      </trkpt>
      <trkpt lat="43.96811" lon="7.08399">
        <ele>817</ele>
        <time>2022-03-19T09:57:58.000Z</time>
      </trkpt>
      <trkpt lat="43.96814" lon="7.08397">
        <ele>817.20001220703</ele>
        <time>2022-03-19T09:58:02.000Z</time>
      </trkpt>
      <trkpt lat="43.96816" lon="7.08394">
        <ele>817.20001220703</ele>
        <time>2022-03-19T09:58:03.000Z</time>
      </trkpt>
      <trkpt lat="43.96824" lon="7.08384">
        <ele>817.59997558594</ele>
        <time>2022-03-19T09:58:09.000Z</time>
      </trkpt>
      <trkpt lat="43.96831" lon="7.08385">
        <ele>818.40002441406</ele>
        <time>2022-03-19T09:58:12.000Z</time>
      </trkpt>
      <trkpt lat="43.96837" lon="7.08388">
        <ele>818.59997558594</ele>
        <time>2022-03-19T09:58:14.000Z</time>
      </trkpt>
      <trkpt lat="43.96849" lon="7.08396">
        <ele>818</ele>
        <time>2022-03-19T09:58:19.000Z</time>
      </trkpt>
      <trkpt lat="43.96851" lon="7.08399">
        <ele>818.20001220703</ele>
        <time>2022-03-19T09:58:20.000Z</time>
      </trkpt>
      <trkpt lat="43.96856" lon="7.08405">
        <ele>819.20001220703</ele>
        <time>2022-03-19T09:58:24.000Z</time>
      </trkpt>
      <trkpt lat="43.96857" lon="7.08406">
        <ele>819.59997558594</ele>
        <time>2022-03-19T09:58:25.000Z</time>
      </trkpt>
      <trkpt lat="43.96865" lon="7.0841">
        <ele>820.59997558594</ele>
        <time>2022-03-19T09:58:29.000Z</time>
      </trkpt>
      <trkpt lat="43.96869" lon="7.08412">
        <ele>820.79998779297</ele>
        <time>2022-03-19T09:58:31.000Z</time>
      </trkpt>
      <trkpt lat="43.96874" lon="7.08414">
        <ele>821</ele>
        <time>2022-03-19T09:58:33.000Z</time>
      </trkpt>
      <trkpt lat="43.96876" lon="7.08417">
        <ele>820.79998779297</ele>
        <time>2022-03-19T09:58:35.000Z</time>
      </trkpt>
      <trkpt lat="43.96877" lon="7.08418">
        <ele>820.40002441406</ele>
        <time>2022-03-19T09:58:36.000Z</time>
      </trkpt>
      <trkpt lat="43.96882" lon="7.0842">
        <ele>820.20001220703</ele>
        <time>2022-03-19T09:58:38.000Z</time>
      </trkpt>
      <trkpt lat="43.96894" lon="7.08422">
        <ele>819.40002441406</ele>
        <time>2022-03-19T09:58:41.000Z</time>
      </trkpt>
      <trkpt lat="43.96896" lon="7.08422">
        <ele>819.20001220703</ele>
        <time>2022-03-19T09:58:42.000Z</time>
      </trkpt>
      <trkpt lat="43.96898" lon="7.08423">
        <ele>819.20001220703</ele>
        <time>2022-03-19T09:58:43.000Z</time>
      </trkpt>
      <trkpt lat="43.96917" lon="7.08426">
        <ele>819</ele>
        <time>2022-03-19T09:58:49.000Z</time>
      </trkpt>
      <trkpt lat="43.96928" lon="7.08427">
        <ele>818.79998779297</ele>
        <time>2022-03-19T09:58:53.000Z</time>
      </trkpt>
      <trkpt lat="43.96933" lon="7.08426">
        <ele>819</ele>
        <time>2022-03-19T09:58:55.000Z</time>
      </trkpt>
      <trkpt lat="43.96939" lon="7.08423">
        <ele>819</ele>
        <time>2022-03-19T09:58:59.000Z</time>
      </trkpt>
      <trkpt lat="43.96953" lon="7.08419">
        <ele>820</ele>
        <time>2022-03-19T09:59:05.000Z</time>
      </trkpt>
      <trkpt lat="43.96955" lon="7.08416">
        <ele>820.79998779297</ele>
        <time>2022-03-19T09:59:08.000Z</time>
      </trkpt>
      <trkpt lat="43.96957" lon="7.08413">
        <ele>821.40002441406</ele>
        <time>2022-03-19T09:59:10.000Z</time>
      </trkpt>
      <trkpt lat="43.9696" lon="7.08411">
        <ele>822</ele>
        <time>2022-03-19T09:59:12.000Z</time>
      </trkpt>
      <trkpt lat="43.96963" lon="7.08408">
        <ele>823.40002441406</ele>
        <time>2022-03-19T09:59:16.000Z</time>
      </trkpt>
      <trkpt lat="43.96963" lon="7.08407">
        <ele>823.59997558594</ele>
        <time>2022-03-19T09:59:17.000Z</time>
      </trkpt>
      <trkpt lat="43.96965" lon="7.08405">
        <ele>824.59997558594</ele>
        <time>2022-03-19T09:59:19.000Z</time>
      </trkpt>
      <trkpt lat="43.96971" lon="7.084">
        <ele>825.40002441406</ele>
        <time>2022-03-19T09:59:24.000Z</time>
      </trkpt>
      <trkpt lat="43.96975" lon="7.08399">
        <ele>825.59997558594</ele>
        <time>2022-03-19T09:59:26.000Z</time>
      </trkpt>
      <trkpt lat="43.9698" lon="7.08399">
        <ele>826.20001220703</ele>
        <time>2022-03-19T09:59:29.000Z</time>
      </trkpt>
      <trkpt lat="43.96981" lon="7.08399">
        <ele>826.20001220703</ele>
        <time>2022-03-19T09:59:30.000Z</time>
      </trkpt>
      <trkpt lat="43.96984" lon="7.08401">
        <ele>826.79998779297</ele>
        <time>2022-03-19T09:59:33.000Z</time>
      </trkpt>
      <trkpt lat="43.96989" lon="7.08402">
        <ele>827.40002441406</ele>
        <time>2022-03-19T09:59:37.000Z</time>
      </trkpt>
      <trkpt lat="43.96991" lon="7.08403">
        <ele>827.79998779297</ele>
        <time>2022-03-19T09:59:39.000Z</time>
      </trkpt>
      <trkpt lat="43.96992" lon="7.08404">
        <ele>828.20001220703</ele>
        <time>2022-03-19T09:59:40.000Z</time>
      </trkpt>
      <trkpt lat="43.96993" lon="7.08406">
        <ele>828.40002441406</ele>
        <time>2022-03-19T09:59:41.000Z</time>
      </trkpt>
      <trkpt lat="43.96996" lon="7.0841">
        <ele>829.20001220703</ele>
        <time>2022-03-19T09:59:44.000Z</time>
      </trkpt>
      <trkpt lat="43.96998" lon="7.08413">
        <ele>829.59997558594</ele>
        <time>2022-03-19T09:59:46.000Z</time>
      </trkpt>
      <trkpt lat="43.97002" lon="7.08419">
        <ele>830.40002441406</ele>
        <time>2022-03-19T09:59:50.000Z</time>
      </trkpt>
      <trkpt lat="43.97006" lon="7.08424">
        <ele>830.59997558594</ele>
        <time>2022-03-19T09:59:53.000Z</time>
      </trkpt>
      <trkpt lat="43.97015" lon="7.08438">
        <ele>830.59997558594</ele>
        <time>2022-03-19T09:59:59.000Z</time>
      </trkpt>
      <trkpt lat="43.97021" lon="7.0845">
        <ele>831</ele>
        <time>2022-03-19T10:00:04.000Z</time>
      </trkpt>
      <trkpt lat="43.97024" lon="7.08452">
        <ele>831.40002441406</ele>
        <time>2022-03-19T10:00:06.000Z</time>
      </trkpt>
      <trkpt lat="43.97027" lon="7.08454">
        <ele>832</ele>
        <time>2022-03-19T10:00:08.000Z</time>
      </trkpt>
      <trkpt lat="43.97031" lon="7.08456">
        <ele>832.20001220703</ele>
        <time>2022-03-19T10:00:10.000Z</time>
      </trkpt>
      <trkpt lat="43.97033" lon="7.08459">
        <ele>832.40002441406</ele>
        <time>2022-03-19T10:00:12.000Z</time>
      </trkpt>
      <trkpt lat="43.97036" lon="7.08459">
        <ele>832.59997558594</ele>
        <time>2022-03-19T10:00:13.000Z</time>
      </trkpt>
      <trkpt lat="43.97041" lon="7.08461">
        <ele>833</ele>
        <time>2022-03-19T10:00:16.000Z</time>
      </trkpt>
      <trkpt lat="43.97043" lon="7.08462">
        <ele>833</ele>
        <time>2022-03-19T10:00:17.000Z</time>
      </trkpt>
      <trkpt lat="43.97045" lon="7.08464">
        <ele>833.20001220703</ele>
        <time>2022-03-19T10:00:18.000Z</time>
      </trkpt>
      <trkpt lat="43.97046" lon="7.08465">
        <ele>833.40002441406</ele>
        <time>2022-03-19T10:00:20.000Z</time>
      </trkpt>
      <trkpt lat="43.97047" lon="7.08467">
        <ele>833.40002441406</ele>
        <time>2022-03-19T10:00:21.000Z</time>
      </trkpt>
      <trkpt lat="43.97051" lon="7.08469">
        <ele>833.20001220703</ele>
        <time>2022-03-19T10:00:23.000Z</time>
      </trkpt>
      <trkpt lat="43.97056" lon="7.0847">
        <ele>833.59997558594</ele>
        <time>2022-03-19T10:00:26.000Z</time>
      </trkpt>
      <trkpt lat="43.97064" lon="7.08473">
        <ele>834.59997558594</ele>
        <time>2022-03-19T10:00:33.000Z</time>
      </trkpt>
      <trkpt lat="43.97064" lon="7.08473">
        <ele>834.79998779297</ele>
        <time>2022-03-19T10:00:34.000Z</time>
      </trkpt>
      <trkpt lat="43.97068" lon="7.08473">
        <ele>835.59997558594</ele>
        <time>2022-03-19T10:00:39.000Z</time>
      </trkpt>
      <trkpt lat="43.97071" lon="7.08474">
        <ele>835.59997558594</ele>
        <time>2022-03-19T10:00:41.000Z</time>
      </trkpt>
      <trkpt lat="43.97075" lon="7.08475">
        <ele>835.79998779297</ele>
        <time>2022-03-19T10:00:44.000Z</time>
      </trkpt>
      <trkpt lat="43.97085" lon="7.08478">
        <ele>836.79998779297</ele>
        <time>2022-03-19T10:00:50.000Z</time>
      </trkpt>
      <trkpt lat="43.97086" lon="7.08479">
        <ele>837</ele>
        <time>2022-03-19T10:00:51.000Z</time>
      </trkpt>
      <trkpt lat="43.97093" lon="7.0848">
        <ele>837.79998779297</ele>
        <time>2022-03-19T10:00:55.000Z</time>
      </trkpt>
      <trkpt lat="43.97096" lon="7.08481">
        <ele>838.20001220703</ele>
        <time>2022-03-19T10:00:58.000Z</time>
      </trkpt>
      <trkpt lat="43.971" lon="7.08481">
        <ele>838.59997558594</ele>
        <time>2022-03-19T10:01:03.000Z</time>
      </trkpt>
      <trkpt lat="43.97102" lon="7.08479">
        <ele>838.59997558594</ele>
        <time>2022-03-19T10:01:05.000Z</time>
      </trkpt>
      <trkpt lat="43.97109" lon="7.08479">
        <ele>839</ele>
        <time>2022-03-19T10:01:10.000Z</time>
      </trkpt>
      <trkpt lat="43.97112" lon="7.08478">
        <ele>839.40002441406</ele>
        <time>2022-03-19T10:01:13.000Z</time>
      </trkpt>
      <trkpt lat="43.97114" lon="7.08474">
        <ele>839.79998779297</ele>
        <time>2022-03-19T10:01:16.000Z</time>
      </trkpt>
      <trkpt lat="43.97115" lon="7.08472">
        <ele>839.59997558594</ele>
        <time>2022-03-19T10:01:17.000Z</time>
      </trkpt>
      <trkpt lat="43.97117" lon="7.0847">
        <ele>839.59997558594</ele>
        <time>2022-03-19T10:01:21.000Z</time>
      </trkpt>
      <trkpt lat="43.97117" lon="7.08466">
        <ele>840.20001220703</ele>
        <time>2022-03-19T10:01:27.000Z</time>
      </trkpt>
      <trkpt lat="43.97117" lon="7.08465">
        <ele>840.40002441406</ele>
        <time>2022-03-19T10:01:28.000Z</time>
      </trkpt>
      <trkpt lat="43.97117" lon="7.08463">
        <ele>841.20001220703</ele>
        <time>2022-03-19T10:01:32.000Z</time>
      </trkpt>
      <trkpt lat="43.97118" lon="7.08461">
        <ele>841.59997558594</ele>
        <time>2022-03-19T10:01:34.000Z</time>
      </trkpt>
      <trkpt lat="43.97119" lon="7.0846">
        <ele>842</ele>
        <time>2022-03-19T10:01:35.000Z</time>
      </trkpt>
      <trkpt lat="43.97121" lon="7.08459">
        <ele>842.40002441406</ele>
        <time>2022-03-19T10:01:38.000Z</time>
      </trkpt>
      <trkpt lat="43.97123" lon="7.08459">
        <ele>842.79998779297</ele>
        <time>2022-03-19T10:01:43.000Z</time>
      </trkpt>
      <trkpt lat="43.97124" lon="7.08457">
        <ele>843.40002441406</ele>
        <time>2022-03-19T10:01:46.000Z</time>
      </trkpt>
      <trkpt lat="43.97125" lon="7.08457">
        <ele>843.59997558594</ele>
        <time>2022-03-19T10:01:47.000Z</time>
      </trkpt>
      <trkpt lat="43.97126" lon="7.08457">
        <ele>843.59997558594</ele>
        <time>2022-03-19T10:01:48.000Z</time>
      </trkpt>
      <trkpt lat="43.97126" lon="7.08457">
        <ele>843.79998779297</ele>
        <time>2022-03-19T10:01:49.000Z</time>
      </trkpt>
      <trkpt lat="43.97128" lon="7.08452">
        <ele>844.59997558594</ele>
        <time>2022-03-19T10:01:54.000Z</time>
      </trkpt>
      <trkpt lat="43.97128" lon="7.08452">
        <ele>844.79998779297</ele>
        <time>2022-03-19T10:01:55.000Z</time>
      </trkpt>
      <trkpt lat="43.97128" lon="7.08448">
        <ele>845.59997558594</ele>
        <time>2022-03-19T10:02:00.000Z</time>
      </trkpt>
      <trkpt lat="43.97129" lon="7.08447">
        <ele>846</ele>
        <time>2022-03-19T10:02:01.000Z</time>
      </trkpt>
      <trkpt lat="43.9713" lon="7.08443">
        <ele>846.79998779297</ele>
        <time>2022-03-19T10:02:06.000Z</time>
      </trkpt>
      <trkpt lat="43.9713" lon="7.08442">
        <ele>847</ele>
        <time>2022-03-19T10:02:08.000Z</time>
      </trkpt>
      <trkpt lat="43.97131" lon="7.08439">
        <ele>847.40002441406</ele>
        <time>2022-03-19T10:02:11.000Z</time>
      </trkpt>
      <trkpt lat="43.97131" lon="7.08437">
        <ele>847.79998779297</ele>
        <time>2022-03-19T10:02:13.000Z</time>
      </trkpt>
      <trkpt lat="43.97132" lon="7.08435">
        <ele>848.20001220703</ele>
        <time>2022-03-19T10:02:15.000Z</time>
      </trkpt>
      <trkpt lat="43.97134" lon="7.08431">
        <ele>849</ele>
        <time>2022-03-19T10:02:19.000Z</time>
      </trkpt>
      <trkpt lat="43.97136" lon="7.0843">
        <ele>849.40002441406</ele>
        <time>2022-03-19T10:02:22.000Z</time>
      </trkpt>
      <trkpt lat="43.97137" lon="7.08429">
        <ele>850.20001220703</ele>
        <time>2022-03-19T10:02:25.000Z</time>
      </trkpt>
      <trkpt lat="43.97139" lon="7.08429">
        <ele>850.79998779297</ele>
        <time>2022-03-19T10:02:28.000Z</time>
      </trkpt>
      <trkpt lat="43.97143" lon="7.08428">
        <ele>851</ele>
        <time>2022-03-19T10:02:31.000Z</time>
      </trkpt>
      <trkpt lat="43.97145" lon="7.08428">
        <ele>851</ele>
        <time>2022-03-19T10:02:34.000Z</time>
      </trkpt>
      <trkpt lat="43.97147" lon="7.08427">
        <ele>851.20001220703</ele>
        <time>2022-03-19T10:02:37.000Z</time>
      </trkpt>
      <trkpt lat="43.97149" lon="7.08428">
        <ele>851.20001220703</ele>
        <time>2022-03-19T10:02:38.000Z</time>
      </trkpt>
      <trkpt lat="43.97156" lon="7.08428">
        <ele>852.20001220703</ele>
        <time>2022-03-19T10:02:45.000Z</time>
      </trkpt>
      <trkpt lat="43.97158" lon="7.08428">
        <ele>852.40002441406</ele>
        <time>2022-03-19T10:02:46.000Z</time>
      </trkpt>
      <trkpt lat="43.97161" lon="7.08429">
        <ele>852.59997558594</ele>
        <time>2022-03-19T10:02:48.000Z</time>
      </trkpt>
      <trkpt lat="43.97165" lon="7.08431">
        <ele>853.40002441406</ele>
        <time>2022-03-19T10:02:51.000Z</time>
      </trkpt>
      <trkpt lat="43.97172" lon="7.08433">
        <ele>854.59997558594</ele>
        <time>2022-03-19T10:02:55.000Z</time>
      </trkpt>
      <trkpt lat="43.97177" lon="7.08433">
        <ele>856</ele>
        <time>2022-03-19T10:02:58.000Z</time>
      </trkpt>
      <trkpt lat="43.97179" lon="7.08432">
        <ele>856.79998779297</ele>
        <time>2022-03-19T10:03:00.000Z</time>
      </trkpt>
      <trkpt lat="43.97182" lon="7.08432">
        <ele>857.20001220703</ele>
        <time>2022-03-19T10:03:02.000Z</time>
      </trkpt>
      <trkpt lat="43.97183" lon="7.08431">
        <ele>857.40002441406</ele>
        <time>2022-03-19T10:03:03.000Z</time>
      </trkpt>
      <trkpt lat="43.97186" lon="7.08428">
        <ele>858.20001220703</ele>
        <time>2022-03-19T10:03:06.000Z</time>
      </trkpt>
      <trkpt lat="43.97186" lon="7.08427">
        <ele>858.40002441406</ele>
        <time>2022-03-19T10:03:07.000Z</time>
      </trkpt>
      <trkpt lat="43.97192" lon="7.08425">
        <ele>859.40002441406</ele>
        <time>2022-03-19T10:03:11.000Z</time>
      </trkpt>
      <trkpt lat="43.97197" lon="7.08425">
        <ele>860.20001220703</ele>
        <time>2022-03-19T10:03:14.000Z</time>
      </trkpt>
      <trkpt lat="43.97198" lon="7.08426">
        <ele>860.40002441406</ele>
        <time>2022-03-19T10:03:15.000Z</time>
      </trkpt>
      <trkpt lat="43.97204" lon="7.08426">
        <ele>861.59997558594</ele>
        <time>2022-03-19T10:03:19.000Z</time>
      </trkpt>
      <trkpt lat="43.97207" lon="7.08426">
        <ele>861.79998779297</ele>
        <time>2022-03-19T10:03:20.000Z</time>
      </trkpt>
      <trkpt lat="43.97219" lon="7.08428">
        <ele>862.59997558594</ele>
        <time>2022-03-19T10:03:25.000Z</time>
      </trkpt>
      <trkpt lat="43.97222" lon="7.08428">
        <ele>862.59997558594</ele>
        <time>2022-03-19T10:03:26.000Z</time>
      </trkpt>
      <trkpt lat="43.97239" lon="7.08429">
        <ele>863.40002441406</ele>
        <time>2022-03-19T10:03:33.000Z</time>
      </trkpt>
      <trkpt lat="43.9724" lon="7.08429">
        <ele>863.59997558594</ele>
        <time>2022-03-19T10:03:34.000Z</time>
      </trkpt>
      <trkpt lat="43.97243" lon="7.08428">
        <ele>863.79998779297</ele>
        <time>2022-03-19T10:03:36.000Z</time>
      </trkpt>
      <trkpt lat="43.9725" lon="7.08428">
        <ele>864.79998779297</ele>
        <time>2022-03-19T10:03:41.000Z</time>
      </trkpt>
      <trkpt lat="43.97261" lon="7.08428">
        <ele>866</ele>
        <time>2022-03-19T10:03:50.000Z</time>
      </trkpt>
      <trkpt lat="43.97265" lon="7.08428">
        <ele>867.20001220703</ele>
        <time>2022-03-19T10:03:57.000Z</time>
      </trkpt>
      <trkpt lat="43.97268" lon="7.08429">
        <ele>867.40002441406</ele>
        <time>2022-03-19T10:03:58.000Z</time>
      </trkpt>
      <trkpt lat="43.97272" lon="7.08427">
        <ele>868.40002441406</ele>
        <time>2022-03-19T10:04:03.000Z</time>
      </trkpt>
      <trkpt lat="43.97277" lon="7.08421">
        <ele>869.40002441406</ele>
        <time>2022-03-19T10:04:09.000Z</time>
      </trkpt>
      <trkpt lat="43.97283" lon="7.08414">
        <ele>870.20001220703</ele>
        <time>2022-03-19T10:04:16.000Z</time>
      </trkpt>
      <trkpt lat="43.97285" lon="7.08412">
        <ele>870.40002441406</ele>
        <time>2022-03-19T10:04:18.000Z</time>
      </trkpt>
      <trkpt lat="43.97289" lon="7.08405">
        <ele>871.59997558594</ele>
        <time>2022-03-19T10:04:24.000Z</time>
      </trkpt>
      <trkpt lat="43.97291" lon="7.08403">
        <ele>872</ele>
        <time>2022-03-19T10:04:26.000Z</time>
      </trkpt>
      <trkpt lat="43.97295" lon="7.08398">
        <ele>872.59997558594</ele>
        <time>2022-03-19T10:04:31.000Z</time>
      </trkpt>
      <trkpt lat="43.97295" lon="7.08397">
        <ele>872.79998779297</ele>
        <time>2022-03-19T10:04:34.000Z</time>
      </trkpt>
      <trkpt lat="43.97297" lon="7.08398">
        <ele>872.79998779297</ele>
        <time>2022-03-19T10:04:35.000Z</time>
      </trkpt>
      <trkpt lat="43.97302" lon="7.08392">
        <ele>872.79998779297</ele>
        <time>2022-03-19T10:04:39.000Z</time>
      </trkpt>
      <trkpt lat="43.97304" lon="7.08389">
        <ele>873</ele>
        <time>2022-03-19T10:04:41.000Z</time>
      </trkpt>
      <trkpt lat="43.97307" lon="7.08382">
        <ele>873.59997558594</ele>
        <time>2022-03-19T10:04:45.000Z</time>
      </trkpt>
      <trkpt lat="43.97308" lon="7.08378">
        <ele>873.79998779297</ele>
        <time>2022-03-19T10:04:47.000Z</time>
      </trkpt>
      <trkpt lat="43.97309" lon="7.08376">
        <ele>874</ele>
        <time>2022-03-19T10:04:48.000Z</time>
      </trkpt>
      <trkpt lat="43.97312" lon="7.08372">
        <ele>874.20001220703</ele>
        <time>2022-03-19T10:04:50.000Z</time>
      </trkpt>
      <trkpt lat="43.97316" lon="7.08368">
        <ele>874.79998779297</ele>
        <time>2022-03-19T10:04:54.000Z</time>
      </trkpt>
      <trkpt lat="43.97319" lon="7.08365">
        <ele>875</ele>
        <time>2022-03-19T10:04:56.000Z</time>
      </trkpt>
      <trkpt lat="43.97326" lon="7.08355">
        <ele>875.79998779297</ele>
        <time>2022-03-19T10:05:02.000Z</time>
      </trkpt>
      <trkpt lat="43.97327" lon="7.08354">
        <ele>875.79998779297</ele>
        <time>2022-03-19T10:05:03.000Z</time>
      </trkpt>
      <trkpt lat="43.97329" lon="7.08353">
        <ele>876</ele>
        <time>2022-03-19T10:05:04.000Z</time>
      </trkpt>
      <trkpt lat="43.9733" lon="7.08351">
        <ele>876.20001220703</ele>
        <time>2022-03-19T10:05:05.000Z</time>
      </trkpt>
      <trkpt lat="43.97332" lon="7.08346">
        <ele>876.79998779297</ele>
        <time>2022-03-19T10:05:09.000Z</time>
      </trkpt>
      <trkpt lat="43.97332" lon="7.08345">
        <ele>877</ele>
        <time>2022-03-19T10:05:10.000Z</time>
      </trkpt>
      <trkpt lat="43.97334" lon="7.08337">
        <ele>878</ele>
        <time>2022-03-19T10:05:15.000Z</time>
      </trkpt>
      <trkpt lat="43.97335" lon="7.08335">
        <ele>878.20001220703</ele>
        <time>2022-03-19T10:05:16.000Z</time>
      </trkpt>
      <trkpt lat="43.97338" lon="7.0833">
        <ele>879.20001220703</ele>
        <time>2022-03-19T10:05:20.000Z</time>
      </trkpt>
      <trkpt lat="43.9734" lon="7.08328">
        <ele>879.40002441406</ele>
        <time>2022-03-19T10:05:21.000Z</time>
      </trkpt>
      <trkpt lat="43.97343" lon="7.08325">
        <ele>880.20001220703</ele>
        <time>2022-03-19T10:05:24.000Z</time>
      </trkpt>
      <trkpt lat="43.97345" lon="7.08322">
        <ele>880.79998779297</ele>
        <time>2022-03-19T10:05:26.000Z</time>
      </trkpt>
      <trkpt lat="43.97345" lon="7.08322">
        <ele>881</ele>
        <time>2022-03-19T10:05:27.000Z</time>
      </trkpt>
      <trkpt lat="43.97345" lon="7.0832">
        <ele>881.40002441406</ele>
        <time>2022-03-19T10:05:29.000Z</time>
      </trkpt>
      <trkpt lat="43.97345" lon="7.08319">
        <ele>881.79998779297</ele>
        <time>2022-03-19T10:05:32.000Z</time>
      </trkpt>
      <trkpt lat="43.97348" lon="7.08315">
        <ele>882.40002441406</ele>
        <time>2022-03-19T10:05:37.000Z</time>
      </trkpt>
      <trkpt lat="43.9735" lon="7.08314">
        <ele>882.79998779297</ele>
        <time>2022-03-19T10:05:39.000Z</time>
      </trkpt>
      <trkpt lat="43.97352" lon="7.08313">
        <ele>883.40002441406</ele>
        <time>2022-03-19T10:05:42.000Z</time>
      </trkpt>
      <trkpt lat="43.97355" lon="7.0831">
        <ele>884.59997558594</ele>
        <time>2022-03-19T10:05:47.000Z</time>
      </trkpt>
      <trkpt lat="43.97355" lon="7.08308">
        <ele>885.20001220703</ele>
        <time>2022-03-19T10:05:51.000Z</time>
      </trkpt>
      <trkpt lat="43.97356" lon="7.08307">
        <ele>885.20001220703</ele>
        <time>2022-03-19T10:05:52.000Z</time>
      </trkpt>
      <trkpt lat="43.97357" lon="7.08307">
        <ele>885.59997558594</ele>
        <time>2022-03-19T10:05:54.000Z</time>
      </trkpt>
      <trkpt lat="43.97359" lon="7.08306">
        <ele>886.59997558594</ele>
        <time>2022-03-19T10:05:59.000Z</time>
      </trkpt>
      <trkpt lat="43.97359" lon="7.08306">
        <ele>886.79998779297</ele>
        <time>2022-03-19T10:06:00.000Z</time>
      </trkpt>
      <trkpt lat="43.97358" lon="7.08301">
        <ele>887.79998779297</ele>
        <time>2022-03-19T10:06:06.000Z</time>
      </trkpt>
      <trkpt lat="43.97358" lon="7.08298">
        <ele>888.59997558594</ele>
        <time>2022-03-19T10:06:12.000Z</time>
      </trkpt>
      <trkpt lat="43.97358" lon="7.08298">
        <ele>888.79998779297</ele>
        <time>2022-03-19T10:06:13.000Z</time>
      </trkpt>
      <trkpt lat="43.97358" lon="7.08298">
        <ele>888.79998779297</ele>
        <time>2022-03-19T10:06:14.000Z</time>
      </trkpt>
      <trkpt lat="43.97359" lon="7.08294">
        <ele>889.79998779297</ele>
        <time>2022-03-19T10:06:19.000Z</time>
      </trkpt>
      <trkpt lat="43.97359" lon="7.08293">
        <ele>890</ele>
        <time>2022-03-19T10:06:20.000Z</time>
      </trkpt>
      <trkpt lat="43.9736" lon="7.0829">
        <ele>891.20001220703</ele>
        <time>2022-03-19T10:06:26.000Z</time>
      </trkpt>
      <trkpt lat="43.97363" lon="7.08286">
        <ele>892.20001220703</ele>
        <time>2022-03-19T10:06:32.000Z</time>
      </trkpt>
      <trkpt lat="43.97366" lon="7.08284">
        <ele>893.20001220703</ele>
        <time>2022-03-19T10:06:37.000Z</time>
      </trkpt>
      <trkpt lat="43.97368" lon="7.08283">
        <ele>893.40002441406</ele>
        <time>2022-03-19T10:06:38.000Z</time>
      </trkpt>
      <trkpt lat="43.97368" lon="7.08283">
        <ele>893.59997558594</ele>
        <time>2022-03-19T10:06:39.000Z</time>
      </trkpt>
      <trkpt lat="43.9737" lon="7.08281">
        <ele>894.40002441406</ele>
        <time>2022-03-19T10:06:43.000Z</time>
      </trkpt>
      <trkpt lat="43.97372" lon="7.0828">
        <ele>894.79998779297</ele>
        <time>2022-03-19T10:06:46.000Z</time>
      </trkpt>
      <trkpt lat="43.97374" lon="7.08278">
        <ele>895.40002441406</ele>
        <time>2022-03-19T10:06:49.000Z</time>
      </trkpt>
      <trkpt lat="43.97375" lon="7.08276">
        <ele>896.20001220703</ele>
        <time>2022-03-19T10:06:53.000Z</time>
      </trkpt>
      <trkpt lat="43.97376" lon="7.08275">
        <ele>896.59997558594</ele>
        <time>2022-03-19T10:06:55.000Z</time>
      </trkpt>
      <trkpt lat="43.97376" lon="7.08271">
        <ele>897.79998779297</ele>
        <time>2022-03-19T10:07:00.000Z</time>
      </trkpt>
      <trkpt lat="43.97376" lon="7.0827">
        <ele>898</ele>
        <time>2022-03-19T10:07:01.000Z</time>
      </trkpt>
      <trkpt lat="43.97378" lon="7.08268">
        <ele>898.40002441406</ele>
        <time>2022-03-19T10:07:04.000Z</time>
      </trkpt>
      <trkpt lat="43.97379" lon="7.08267">
        <ele>898.79998779297</ele>
        <time>2022-03-19T10:07:07.000Z</time>
      </trkpt>
      <trkpt lat="43.97379" lon="7.08266">
        <ele>899.20001220703</ele>
        <time>2022-03-19T10:07:08.000Z</time>
      </trkpt>
      <trkpt lat="43.97381" lon="7.08263">
        <ele>900</ele>
        <time>2022-03-19T10:07:12.000Z</time>
      </trkpt>
      <trkpt lat="43.9738" lon="7.0826">
        <ele>900.40002441406</ele>
        <time>2022-03-19T10:07:14.000Z</time>
      </trkpt>
      <trkpt lat="43.9738" lon="7.08258">
        <ele>900.79998779297</ele>
        <time>2022-03-19T10:07:16.000Z</time>
      </trkpt>
      <trkpt lat="43.97381" lon="7.08257">
        <ele>901</ele>
        <time>2022-03-19T10:07:17.000Z</time>
      </trkpt>
      <trkpt lat="43.9738" lon="7.08256">
        <ele>901.40002441406</ele>
        <time>2022-03-19T10:07:20.000Z</time>
      </trkpt>
      <trkpt lat="43.97377" lon="7.08255">
        <ele>902</ele>
        <time>2022-03-19T10:07:26.000Z</time>
      </trkpt>
      <trkpt lat="43.97377" lon="7.08255">
        <ele>902.20001220703</ele>
        <time>2022-03-19T10:07:27.000Z</time>
      </trkpt>
      <trkpt lat="43.97378" lon="7.08253">
        <ele>902.79998779297</ele>
        <time>2022-03-19T10:07:32.000Z</time>
      </trkpt>
      <trkpt lat="43.97378" lon="7.0825">
        <ele>902.79998779297</ele>
        <time>2022-03-19T10:07:38.000Z</time>
      </trkpt>
      <trkpt lat="43.97375" lon="7.08246">
        <ele>902.79998779297</ele>
        <time>2022-03-19T10:07:44.000Z</time>
      </trkpt>
      <trkpt lat="43.9737" lon="7.08239">
        <ele>902.79998779297</ele>
        <time>2022-03-19T10:07:52.000Z</time>
      </trkpt>
      <trkpt lat="43.9737" lon="7.08238">
        <ele>902.79998779297</ele>
        <time>2022-03-19T10:08:00.000Z</time>
      </trkpt>
      <trkpt lat="43.97371" lon="7.08239">
        <ele>902.79998779297</ele>
        <time>2022-03-19T10:08:08.000Z</time>
      </trkpt>
      <trkpt lat="43.97372" lon="7.0824">
        <ele>903</ele>
        <time>2022-03-19T10:08:16.000Z</time>
      </trkpt>
      <trkpt lat="43.97372" lon="7.08241">
        <ele>903</ele>
        <time>2022-03-19T10:08:18.000Z</time>
      </trkpt>
      <trkpt lat="43.97374" lon="7.08244">
        <ele>903</ele>
        <time>2022-03-19T10:08:23.000Z</time>
      </trkpt>
      <trkpt lat="43.97374" lon="7.08247">
        <ele>903</ele>
        <time>2022-03-19T10:08:36.000Z</time>
      </trkpt>
      <trkpt lat="43.97374" lon="7.08247">
        <ele>903</ele>
        <time>2022-03-19T10:08:46.000Z</time>
      </trkpt>
      <trkpt lat="43.97375" lon="7.08248">
        <ele>903.20001220703</ele>
        <time>2022-03-19T10:09:05.000Z</time>
      </trkpt>
      <trkpt lat="43.97376" lon="7.08248">
        <ele>903.20001220703</ele>
        <time>2022-03-19T10:09:22.000Z</time>
      </trkpt>
      <trkpt lat="43.97378" lon="7.08248">
        <ele>903</ele>
        <time>2022-03-19T10:09:30.000Z</time>
      </trkpt>
      <trkpt lat="43.97375" lon="7.08251">
        <ele>903.20001220703</ele>
        <time>2022-03-19T10:09:36.000Z</time>
      </trkpt>
      <trkpt lat="43.97374" lon="7.08252">
        <ele>903.20001220703</ele>
        <time>2022-03-19T10:09:37.000Z</time>
      </trkpt>
      <trkpt lat="43.97366" lon="7.0826">
        <ele>904</ele>
        <time>2022-03-19T10:09:45.000Z</time>
      </trkpt>
      <trkpt lat="43.97365" lon="7.08261">
        <ele>904.20001220703</ele>
        <time>2022-03-19T10:09:46.000Z</time>
      </trkpt>
      <trkpt lat="43.97358" lon="7.08265">
        <ele>905</ele>
        <time>2022-03-19T10:09:52.000Z</time>
      </trkpt>
      <trkpt lat="43.97355" lon="7.08266">
        <ele>905.20001220703</ele>
        <time>2022-03-19T10:09:53.000Z</time>
      </trkpt>
      <trkpt lat="43.97348" lon="7.08266">
        <ele>906.40002441406</ele>
        <time>2022-03-19T10:09:58.000Z</time>
      </trkpt>
      <trkpt lat="43.97347" lon="7.08266">
        <ele>906.59997558594</ele>
        <time>2022-03-19T10:09:59.000Z</time>
      </trkpt>
      <trkpt lat="43.97345" lon="7.08266">
        <ele>907.20001220703</ele>
        <time>2022-03-19T10:10:01.000Z</time>
      </trkpt>
      <trkpt lat="43.97342" lon="7.08267">
        <ele>907.59997558594</ele>
        <time>2022-03-19T10:10:03.000Z</time>
      </trkpt>
      <trkpt lat="43.97338" lon="7.08268">
        <ele>908.20001220703</ele>
        <time>2022-03-19T10:10:06.000Z</time>
      </trkpt>
      <trkpt lat="43.97336" lon="7.08269">
        <ele>908.59997558594</ele>
        <time>2022-03-19T10:10:08.000Z</time>
      </trkpt>
      <trkpt lat="43.97329" lon="7.0827">
        <ele>909.79998779297</ele>
        <time>2022-03-19T10:10:13.000Z</time>
      </trkpt>
      <trkpt lat="43.97321" lon="7.08271">
        <ele>911</ele>
        <time>2022-03-19T10:10:19.000Z</time>
      </trkpt>
      <trkpt lat="43.97319" lon="7.08271">
        <ele>911.20001220703</ele>
        <time>2022-03-19T10:10:20.000Z</time>
      </trkpt>
      <trkpt lat="43.97316" lon="7.08272">
        <ele>912.20001220703</ele>
        <time>2022-03-19T10:10:23.000Z</time>
      </trkpt>
      <trkpt lat="43.97311" lon="7.08273">
        <ele>913.20001220703</ele>
        <time>2022-03-19T10:10:27.000Z</time>
      </trkpt>
      <trkpt lat="43.9731" lon="7.08274">
        <ele>913.59997558594</ele>
        <time>2022-03-19T10:10:28.000Z</time>
      </trkpt>
      <trkpt lat="43.97306" lon="7.08275">
        <ele>914.40002441406</ele>
        <time>2022-03-19T10:10:31.000Z</time>
      </trkpt>
      <trkpt lat="43.973" lon="7.0828">
        <ele>915.40002441406</ele>
        <time>2022-03-19T10:10:36.000Z</time>
      </trkpt>
      <trkpt lat="43.97295" lon="7.08283">
        <ele>916.59997558594</ele>
        <time>2022-03-19T10:10:41.000Z</time>
      </trkpt>
      <trkpt lat="43.97292" lon="7.08285">
        <ele>917</ele>
        <time>2022-03-19T10:10:44.000Z</time>
      </trkpt>
      <trkpt lat="43.97289" lon="7.08288">
        <ele>917.59997558594</ele>
        <time>2022-03-19T10:10:48.000Z</time>
      </trkpt>
      <trkpt lat="43.97287" lon="7.0829">
        <ele>918</ele>
        <time>2022-03-19T10:10:50.000Z</time>
      </trkpt>
      <trkpt lat="43.97287" lon="7.08291">
        <ele>918</ele>
        <time>2022-03-19T10:10:51.000Z</time>
      </trkpt>
      <trkpt lat="43.97284" lon="7.08296">
        <ele>918.79998779297</ele>
        <time>2022-03-19T10:10:55.000Z</time>
      </trkpt>
      <trkpt lat="43.97282" lon="7.083">
        <ele>919.20001220703</ele>
        <time>2022-03-19T10:10:58.000Z</time>
      </trkpt>
      <trkpt lat="43.97278" lon="7.08306">
        <ele>920</ele>
        <time>2022-03-19T10:11:03.000Z</time>
      </trkpt>
      <trkpt lat="43.97276" lon="7.08307">
        <ele>920.20001220703</ele>
        <time>2022-03-19T10:11:04.000Z</time>
      </trkpt>
      <trkpt lat="43.97273" lon="7.08309">
        <ele>920.40002441406</ele>
        <time>2022-03-19T10:11:06.000Z</time>
      </trkpt>
      <trkpt lat="43.97271" lon="7.08307">
        <ele>920.59997558594</ele>
        <time>2022-03-19T10:11:08.000Z</time>
      </trkpt>
      <trkpt lat="43.9727" lon="7.08306">
        <ele>920.79998779297</ele>
        <time>2022-03-19T10:11:09.000Z</time>
      </trkpt>
      <trkpt lat="43.97269" lon="7.08304">
        <ele>921</ele>
        <time>2022-03-19T10:11:11.000Z</time>
      </trkpt>
      <trkpt lat="43.97269" lon="7.08303">
        <ele>921</ele>
        <time>2022-03-19T10:11:12.000Z</time>
      </trkpt>
      <trkpt lat="43.9727" lon="7.08301">
        <ele>921.40002441406</ele>
        <time>2022-03-19T10:11:14.000Z</time>
      </trkpt>
      <trkpt lat="43.9727" lon="7.08299">
        <ele>921.79998779297</ele>
        <time>2022-03-19T10:11:16.000Z</time>
      </trkpt>
      <trkpt lat="43.97271" lon="7.08296">
        <ele>922.20001220703</ele>
        <time>2022-03-19T10:11:18.000Z</time>
      </trkpt>
      <trkpt lat="43.97272" lon="7.08289">
        <ele>922.79998779297</ele>
        <time>2022-03-19T10:11:22.000Z</time>
      </trkpt>
      <trkpt lat="43.97271" lon="7.08285">
        <ele>923.40002441406</ele>
        <time>2022-03-19T10:11:25.000Z</time>
      </trkpt>
      <trkpt lat="43.97272" lon="7.08276">
        <ele>924.59997558594</ele>
        <time>2022-03-19T10:11:30.000Z</time>
      </trkpt>
      <trkpt lat="43.97273" lon="7.08267">
        <ele>925.59997558594</ele>
        <time>2022-03-19T10:11:36.000Z</time>
      </trkpt>
      <trkpt lat="43.97273" lon="7.08266">
        <ele>925.59997558594</ele>
        <time>2022-03-19T10:11:37.000Z</time>
      </trkpt>
      <trkpt lat="43.97274" lon="7.08265">
        <ele>925.79998779297</ele>
        <time>2022-03-19T10:11:38.000Z</time>
      </trkpt>
      <trkpt lat="43.97274" lon="7.08263">
        <ele>926.40002441406</ele>
        <time>2022-03-19T10:11:40.000Z</time>
      </trkpt>
      <trkpt lat="43.97275" lon="7.08261">
        <ele>926.59997558594</ele>
        <time>2022-03-19T10:11:42.000Z</time>
      </trkpt>
      <trkpt lat="43.97277" lon="7.08254">
        <ele>927.79998779297</ele>
        <time>2022-03-19T10:11:48.000Z</time>
      </trkpt>
      <trkpt lat="43.97277" lon="7.08251">
        <ele>928</ele>
        <time>2022-03-19T10:11:50.000Z</time>
      </trkpt>
      <trkpt lat="43.97278" lon="7.08246">
        <ele>928.79998779297</ele>
        <time>2022-03-19T10:11:54.000Z</time>
      </trkpt>
      <trkpt lat="43.97279" lon="7.0824">
        <ele>929.79998779297</ele>
        <time>2022-03-19T10:11:58.000Z</time>
      </trkpt>
      <trkpt lat="43.9728" lon="7.08231">
        <ele>931</ele>
        <time>2022-03-19T10:12:04.000Z</time>
      </trkpt>
      <trkpt lat="43.9728" lon="7.0823">
        <ele>931.40002441406</ele>
        <time>2022-03-19T10:12:05.000Z</time>
      </trkpt>
      <trkpt lat="43.9728" lon="7.08225">
        <ele>932.20001220703</ele>
        <time>2022-03-19T10:12:08.000Z</time>
      </trkpt>
      <trkpt lat="43.9728" lon="7.08217">
        <ele>933.20001220703</ele>
        <time>2022-03-19T10:12:13.000Z</time>
      </trkpt>
      <trkpt lat="43.9728" lon="7.08215">
        <ele>933.40002441406</ele>
        <time>2022-03-19T10:12:14.000Z</time>
      </trkpt>
      <trkpt lat="43.97279" lon="7.08206">
        <ele>934.20001220703</ele>
        <time>2022-03-19T10:12:19.000Z</time>
      </trkpt>
      <trkpt lat="43.97278" lon="7.08203">
        <ele>934.59997558594</ele>
        <time>2022-03-19T10:12:21.000Z</time>
      </trkpt>
      <trkpt lat="43.97277" lon="7.08196">
        <ele>935.40002441406</ele>
        <time>2022-03-19T10:12:25.000Z</time>
      </trkpt>
      <trkpt lat="43.97276" lon="7.08186">
        <ele>936</ele>
        <time>2022-03-19T10:12:30.000Z</time>
      </trkpt>
      <trkpt lat="43.97276" lon="7.08178">
        <ele>936.40002441406</ele>
        <time>2022-03-19T10:12:34.000Z</time>
      </trkpt>
      <trkpt lat="43.97276" lon="7.08176">
        <ele>936.40002441406</ele>
        <time>2022-03-19T10:12:35.000Z</time>
      </trkpt>
      <trkpt lat="43.97276" lon="7.08175">
        <ele>936.59997558594</ele>
        <time>2022-03-19T10:12:36.000Z</time>
      </trkpt>
      <trkpt lat="43.97274" lon="7.08162">
        <ele>937.59997558594</ele>
        <time>2022-03-19T10:12:43.000Z</time>
      </trkpt>
      <trkpt lat="43.97274" lon="7.0816">
        <ele>937.59997558594</ele>
        <time>2022-03-19T10:12:44.000Z</time>
      </trkpt>
      <trkpt lat="43.97269" lon="7.08157">
        <ele>937.79998779297</ele>
        <time>2022-03-19T10:12:48.000Z</time>
      </trkpt>
      <trkpt lat="43.97268" lon="7.08157">
        <ele>938</ele>
        <time>2022-03-19T10:12:49.000Z</time>
      </trkpt>
      <trkpt lat="43.97262" lon="7.08159">
        <ele>938.59997558594</ele>
        <time>2022-03-19T10:12:54.000Z</time>
      </trkpt>
      <trkpt lat="43.97258" lon="7.08159">
        <ele>939.40002441406</ele>
        <time>2022-03-19T10:12:57.000Z</time>
      </trkpt>
      <trkpt lat="43.97257" lon="7.08157">
        <ele>939.59997558594</ele>
        <time>2022-03-19T10:12:58.000Z</time>
      </trkpt>
      <trkpt lat="43.97257" lon="7.08155">
        <ele>939.79998779297</ele>
        <time>2022-03-19T10:12:59.000Z</time>
      </trkpt>
      <trkpt lat="43.97257" lon="7.08152">
        <ele>940</ele>
        <time>2022-03-19T10:13:01.000Z</time>
      </trkpt>
      <trkpt lat="43.97258" lon="7.0815">
        <ele>940</ele>
        <time>2022-03-19T10:13:02.000Z</time>
      </trkpt>
      <trkpt lat="43.97261" lon="7.08141">
        <ele>940.79998779297</ele>
        <time>2022-03-19T10:13:08.000Z</time>
      </trkpt>
      <trkpt lat="43.97261" lon="7.0814">
        <ele>940.79998779297</ele>
        <time>2022-03-19T10:13:09.000Z</time>
      </trkpt>
      <trkpt lat="43.97262" lon="7.08138">
        <ele>941</ele>
        <time>2022-03-19T10:13:10.000Z</time>
      </trkpt>
      <trkpt lat="43.97265" lon="7.08133">
        <ele>941.59997558594</ele>
        <time>2022-03-19T10:13:13.000Z</time>
      </trkpt>
      <trkpt lat="43.97266" lon="7.0813">
        <ele>941.79998779297</ele>
        <time>2022-03-19T10:13:15.000Z</time>
      </trkpt>
      <trkpt lat="43.97272" lon="7.08123">
        <ele>942.40002441406</ele>
        <time>2022-03-19T10:13:20.000Z</time>
      </trkpt>
      <trkpt lat="43.97276" lon="7.08124">
        <ele>942.59997558594</ele>
        <time>2022-03-19T10:13:23.000Z</time>
      </trkpt>
      <trkpt lat="43.97278" lon="7.08126">
        <ele>943</ele>
        <time>2022-03-19T10:13:25.000Z</time>
      </trkpt>
      <trkpt lat="43.97281" lon="7.0813">
        <ele>944</ele>
        <time>2022-03-19T10:13:29.000Z</time>
      </trkpt>
      <trkpt lat="43.97284" lon="7.08135">
        <ele>945.20001220703</ele>
        <time>2022-03-19T10:13:34.000Z</time>
      </trkpt>
      <trkpt lat="43.9729" lon="7.08142">
        <ele>946.40002441406</ele>
        <time>2022-03-19T10:13:41.000Z</time>
      </trkpt>
      <trkpt lat="43.97291" lon="7.08143">
        <ele>946.40002441406</ele>
        <time>2022-03-19T10:13:42.000Z</time>
      </trkpt>
      <trkpt lat="43.97294" lon="7.08145">
        <ele>946.79998779297</ele>
        <time>2022-03-19T10:13:45.000Z</time>
      </trkpt>
      <trkpt lat="43.97298" lon="7.08146">
        <ele>947.59997558594</ele>
        <time>2022-03-19T10:13:49.000Z</time>
      </trkpt>
      <trkpt lat="43.97307" lon="7.08151">
        <ele>948.40002441406</ele>
        <time>2022-03-19T10:13:56.000Z</time>
      </trkpt>
      <trkpt lat="43.97308" lon="7.08152">
        <ele>948.59997558594</ele>
        <time>2022-03-19T10:13:57.000Z</time>
      </trkpt>
      <trkpt lat="43.97312" lon="7.08155">
        <ele>949.59997558594</ele>
        <time>2022-03-19T10:14:01.000Z</time>
      </trkpt>
      <trkpt lat="43.97313" lon="7.08156">
        <ele>949.79998779297</ele>
        <time>2022-03-19T10:14:02.000Z</time>
      </trkpt>
      <trkpt lat="43.97314" lon="7.08158">
        <ele>950</ele>
        <time>2022-03-19T10:14:03.000Z</time>
      </trkpt>
      <trkpt lat="43.97317" lon="7.08163">
        <ele>950.59997558594</ele>
        <time>2022-03-19T10:14:07.000Z</time>
      </trkpt>
      <trkpt lat="43.97318" lon="7.08165">
        <ele>950.79998779297</ele>
        <time>2022-03-19T10:14:08.000Z</time>
      </trkpt>
      <trkpt lat="43.97318" lon="7.08166">
        <ele>951</ele>
        <time>2022-03-19T10:14:09.000Z</time>
      </trkpt>
      <trkpt lat="43.97323" lon="7.08169">
        <ele>951.79998779297</ele>
        <time>2022-03-19T10:14:14.000Z</time>
      </trkpt>
      <trkpt lat="43.97324" lon="7.08169">
        <ele>952</ele>
        <time>2022-03-19T10:14:15.000Z</time>
      </trkpt>
      <trkpt lat="43.97327" lon="7.08166">
        <ele>952.40002441406</ele>
        <time>2022-03-19T10:14:18.000Z</time>
      </trkpt>
      <trkpt lat="43.97327" lon="7.08164">
        <ele>952.59997558594</ele>
        <time>2022-03-19T10:14:19.000Z</time>
      </trkpt>
      <trkpt lat="43.97327" lon="7.0816">
        <ele>953</ele>
        <time>2022-03-19T10:14:22.000Z</time>
      </trkpt>
      <trkpt lat="43.97327" lon="7.08158">
        <ele>953.20001220703</ele>
        <time>2022-03-19T10:14:23.000Z</time>
      </trkpt>
      <trkpt lat="43.97326" lon="7.08153">
        <ele>953.79998779297</ele>
        <time>2022-03-19T10:14:26.000Z</time>
      </trkpt>
      <trkpt lat="43.97327" lon="7.08148">
        <ele>954.20001220703</ele>
        <time>2022-03-19T10:14:29.000Z</time>
      </trkpt>
      <trkpt lat="43.97327" lon="7.08141">
        <ele>954.79998779297</ele>
        <time>2022-03-19T10:14:33.000Z</time>
      </trkpt>
      <trkpt lat="43.97327" lon="7.08139">
        <ele>954.79998779297</ele>
        <time>2022-03-19T10:14:34.000Z</time>
      </trkpt>
      <trkpt lat="43.97327" lon="7.08133">
        <ele>955.20001220703</ele>
        <time>2022-03-19T10:14:37.000Z</time>
      </trkpt>
      <trkpt lat="43.97328" lon="7.08132">
        <ele>955.40002441406</ele>
        <time>2022-03-19T10:14:38.000Z</time>
      </trkpt>
      <trkpt lat="43.9733" lon="7.0813">
        <ele>956</ele>
        <time>2022-03-19T10:14:40.000Z</time>
      </trkpt>
      <trkpt lat="43.9733" lon="7.08128">
        <ele>956.20001220703</ele>
        <time>2022-03-19T10:14:41.000Z</time>
      </trkpt>
      <trkpt lat="43.97331" lon="7.0812">
        <ele>957.20001220703</ele>
        <time>2022-03-19T10:14:46.000Z</time>
      </trkpt>
      <trkpt lat="43.97332" lon="7.08115">
        <ele>958</ele>
        <time>2022-03-19T10:14:49.000Z</time>
      </trkpt>
      <trkpt lat="43.97331" lon="7.08111">
        <ele>958.40002441406</ele>
        <time>2022-03-19T10:14:51.000Z</time>
      </trkpt>
      <trkpt lat="43.9733" lon="7.08103">
        <ele>959.59997558594</ele>
        <time>2022-03-19T10:14:56.000Z</time>
      </trkpt>
      <trkpt lat="43.97329" lon="7.08098">
        <ele>960.40002441406</ele>
        <time>2022-03-19T10:14:59.000Z</time>
      </trkpt>
      <trkpt lat="43.97329" lon="7.08097">
        <ele>960.59997558594</ele>
        <time>2022-03-19T10:15:00.000Z</time>
      </trkpt>
      <trkpt lat="43.97329" lon="7.08095">
        <ele>961</ele>
        <time>2022-03-19T10:15:02.000Z</time>
      </trkpt>
      <trkpt lat="43.97329" lon="7.08093">
        <ele>961</ele>
        <time>2022-03-19T10:15:03.000Z</time>
      </trkpt>
      <trkpt lat="43.97328" lon="7.08085">
        <ele>961.79998779297</ele>
        <time>2022-03-19T10:15:08.000Z</time>
      </trkpt>
      <trkpt lat="43.97327" lon="7.08076">
        <ele>963</ele>
        <time>2022-03-19T10:15:13.000Z</time>
      </trkpt>
      <trkpt lat="43.97326" lon="7.08071">
        <ele>964</ele>
        <time>2022-03-19T10:15:16.000Z</time>
      </trkpt>
      <trkpt lat="43.97326" lon="7.0807">
        <ele>964.40002441406</ele>
        <time>2022-03-19T10:15:17.000Z</time>
      </trkpt>
      <trkpt lat="43.97324" lon="7.08061">
        <ele>965.40002441406</ele>
        <time>2022-03-19T10:15:22.000Z</time>
      </trkpt>
      <trkpt lat="43.97324" lon="7.08057">
        <ele>965.79998779297</ele>
        <time>2022-03-19T10:15:24.000Z</time>
      </trkpt>
      <trkpt lat="43.97326" lon="7.08046">
        <ele>966.40002441406</ele>
        <time>2022-03-19T10:15:29.000Z</time>
      </trkpt>
      <trkpt lat="43.9733" lon="7.08042">
        <ele>967.20001220703</ele>
        <time>2022-03-19T10:15:32.000Z</time>
      </trkpt>
      <trkpt lat="43.97331" lon="7.08043">
        <ele>967.40002441406</ele>
        <time>2022-03-19T10:15:33.000Z</time>
      </trkpt>
      <trkpt lat="43.97333" lon="7.08044">
        <ele>967.59997558594</ele>
        <time>2022-03-19T10:15:34.000Z</time>
      </trkpt>
      <trkpt lat="43.97334" lon="7.08046">
        <ele>968.20001220703</ele>
        <time>2022-03-19T10:15:36.000Z</time>
      </trkpt>
      <trkpt lat="43.97336" lon="7.08049">
        <ele>968.59997558594</ele>
        <time>2022-03-19T10:15:38.000Z</time>
      </trkpt>
      <trkpt lat="43.97336" lon="7.0805">
        <ele>968.79998779297</ele>
        <time>2022-03-19T10:15:39.000Z</time>
      </trkpt>
      <trkpt lat="43.97339" lon="7.08056">
        <ele>969.59997558594</ele>
        <time>2022-03-19T10:15:43.000Z</time>
      </trkpt>
      <trkpt lat="43.9734" lon="7.08058">
        <ele>969.79998779297</ele>
        <time>2022-03-19T10:15:44.000Z</time>
      </trkpt>
      <trkpt lat="43.97345" lon="7.08065">
        <ele>970.59997558594</ele>
        <time>2022-03-19T10:15:50.000Z</time>
      </trkpt>
      <trkpt lat="43.97346" lon="7.08066">
        <ele>970.79998779297</ele>
        <time>2022-03-19T10:15:51.000Z</time>
      </trkpt>
      <trkpt lat="43.9735" lon="7.08069">
        <ele>971.79998779297</ele>
        <time>2022-03-19T10:15:56.000Z</time>
      </trkpt>
      <trkpt lat="43.97353" lon="7.08071">
        <ele>972.40002441406</ele>
        <time>2022-03-19T10:15:59.000Z</time>
      </trkpt>
      <trkpt lat="43.97355" lon="7.08073">
        <ele>973</ele>
        <time>2022-03-19T10:16:01.000Z</time>
      </trkpt>
      <trkpt lat="43.97359" lon="7.08076">
        <ele>974</ele>
        <time>2022-03-19T10:16:06.000Z</time>
      </trkpt>
      <trkpt lat="43.9736" lon="7.08077">
        <ele>974</ele>
        <time>2022-03-19T10:16:07.000Z</time>
      </trkpt>
      <trkpt lat="43.97362" lon="7.08077">
        <ele>974.40002441406</ele>
        <time>2022-03-19T10:16:08.000Z</time>
      </trkpt>
      <trkpt lat="43.97367" lon="7.08079">
        <ele>975.40002441406</ele>
        <time>2022-03-19T10:16:13.000Z</time>
      </trkpt>
      <trkpt lat="43.97368" lon="7.08079">
        <ele>975.59997558594</ele>
        <time>2022-03-19T10:16:14.000Z</time>
      </trkpt>
      <trkpt lat="43.97369" lon="7.0808">
        <ele>976</ele>
        <time>2022-03-19T10:16:15.000Z</time>
      </trkpt>
      <trkpt lat="43.9737" lon="7.0808">
        <ele>976.40002441406</ele>
        <time>2022-03-19T10:16:17.000Z</time>
      </trkpt>
      <trkpt lat="43.97375" lon="7.08079">
        <ele>977.40002441406</ele>
        <time>2022-03-19T10:16:22.000Z</time>
      </trkpt>
      <trkpt lat="43.97376" lon="7.08078">
        <ele>977.59997558594</ele>
        <time>2022-03-19T10:16:23.000Z</time>
      </trkpt>
      <trkpt lat="43.97375" lon="7.08073">
        <ele>978</ele>
        <time>2022-03-19T10:16:27.000Z</time>
      </trkpt>
      <trkpt lat="43.97374" lon="7.08073">
        <ele>978.20001220703</ele>
        <time>2022-03-19T10:16:28.000Z</time>
      </trkpt>
      <trkpt lat="43.97368" lon="7.0807">
        <ele>978.79998779297</ele>
        <time>2022-03-19T10:16:33.000Z</time>
      </trkpt>
      <trkpt lat="43.97367" lon="7.08067">
        <ele>979</ele>
        <time>2022-03-19T10:16:35.000Z</time>
      </trkpt>
      <trkpt lat="43.97365" lon="7.08063">
        <ele>979.59997558594</ele>
        <time>2022-03-19T10:16:39.000Z</time>
      </trkpt>
      <trkpt lat="43.97365" lon="7.08061">
        <ele>980</ele>
        <time>2022-03-19T10:16:41.000Z</time>
      </trkpt>
      <trkpt lat="43.97364" lon="7.08059">
        <ele>980.40002441406</ele>
        <time>2022-03-19T10:16:43.000Z</time>
      </trkpt>
      <trkpt lat="43.97364" lon="7.08055">
        <ele>981</ele>
        <time>2022-03-19T10:16:46.000Z</time>
      </trkpt>
      <trkpt lat="43.97364" lon="7.08054">
        <ele>981.40002441406</ele>
        <time>2022-03-19T10:16:47.000Z</time>
      </trkpt>
      <trkpt lat="43.97364" lon="7.08047">
        <ele>982.20001220703</ele>
        <time>2022-03-19T10:16:52.000Z</time>
      </trkpt>
      <trkpt lat="43.97364" lon="7.08044">
        <ele>983</ele>
        <time>2022-03-19T10:16:55.000Z</time>
      </trkpt>
      <trkpt lat="43.97364" lon="7.08041">
        <ele>983.20001220703</ele>
        <time>2022-03-19T10:16:57.000Z</time>
      </trkpt>
      <trkpt lat="43.97363" lon="7.08034">
        <ele>984.20001220703</ele>
        <time>2022-03-19T10:17:02.000Z</time>
      </trkpt>
      <trkpt lat="43.97363" lon="7.08029">
        <ele>984.79998779297</ele>
        <time>2022-03-19T10:17:05.000Z</time>
      </trkpt>
      <trkpt lat="43.97363" lon="7.08025">
        <ele>985.40002441406</ele>
        <time>2022-03-19T10:17:08.000Z</time>
      </trkpt>
      <trkpt lat="43.97363" lon="7.0802">
        <ele>986.20001220703</ele>
        <time>2022-03-19T10:17:12.000Z</time>
      </trkpt>
      <trkpt lat="43.97364" lon="7.08017">
        <ele>986.59997558594</ele>
        <time>2022-03-19T10:17:14.000Z</time>
      </trkpt>
      <trkpt lat="43.97364" lon="7.08012">
        <ele>987.40002441406</ele>
        <time>2022-03-19T10:17:18.000Z</time>
      </trkpt>
      <trkpt lat="43.97364" lon="7.08011">
        <ele>987.40002441406</ele>
        <time>2022-03-19T10:17:19.000Z</time>
      </trkpt>
      <trkpt lat="43.97364" lon="7.0801">
        <ele>987.59997558594</ele>
        <time>2022-03-19T10:17:20.000Z</time>
      </trkpt>
      <trkpt lat="43.97364" lon="7.08003">
        <ele>988.79998779297</ele>
        <time>2022-03-19T10:17:25.000Z</time>
      </trkpt>
      <trkpt lat="43.97364" lon="7.08002">
        <ele>989</ele>
        <time>2022-03-19T10:17:26.000Z</time>
      </trkpt>
      <trkpt lat="43.97364" lon="7.07989">
        <ele>989.79998779297</ele>
        <time>2022-03-19T10:17:34.000Z</time>
      </trkpt>
      <trkpt lat="43.97363" lon="7.07988">
        <ele>990</ele>
        <time>2022-03-19T10:17:35.000Z</time>
      </trkpt>
      <trkpt lat="43.97364" lon="7.0798">
        <ele>991</ele>
        <time>2022-03-19T10:17:40.000Z</time>
      </trkpt>
      <trkpt lat="43.97365" lon="7.07975">
        <ele>991.79998779297</ele>
        <time>2022-03-19T10:17:44.000Z</time>
      </trkpt>
      <trkpt lat="43.97366" lon="7.07972">
        <ele>992</ele>
        <time>2022-03-19T10:17:46.000Z</time>
      </trkpt>
      <trkpt lat="43.97365" lon="7.07963">
        <ele>992.79998779297</ele>
        <time>2022-03-19T10:17:52.000Z</time>
      </trkpt>
      <trkpt lat="43.97364" lon="7.07959">
        <ele>993.20001220703</ele>
        <time>2022-03-19T10:17:55.000Z</time>
      </trkpt>
      <trkpt lat="43.97363" lon="7.07954">
        <ele>994</ele>
        <time>2022-03-19T10:17:59.000Z</time>
      </trkpt>
      <trkpt lat="43.97362" lon="7.07952">
        <ele>994.20001220703</ele>
        <time>2022-03-19T10:18:01.000Z</time>
      </trkpt>
      <trkpt lat="43.97362" lon="7.07943">
        <ele>995.40002441406</ele>
        <time>2022-03-19T10:18:08.000Z</time>
      </trkpt>
      <trkpt lat="43.9736" lon="7.0794">
        <ele>995.79998779297</ele>
        <time>2022-03-19T10:18:11.000Z</time>
      </trkpt>
      <trkpt lat="43.97358" lon="7.07935">
        <ele>996.59997558594</ele>
        <time>2022-03-19T10:18:15.000Z</time>
      </trkpt>
      <trkpt lat="43.97357" lon="7.07935">
        <ele>996.79998779297</ele>
        <time>2022-03-19T10:18:16.000Z</time>
      </trkpt>
      <trkpt lat="43.97355" lon="7.07933">
        <ele>997.20001220703</ele>
        <time>2022-03-19T10:18:20.000Z</time>
      </trkpt>
      <trkpt lat="43.97355" lon="7.07933">
        <ele>997</ele>
        <time>2022-03-19T10:18:21.000Z</time>
      </trkpt>
      <trkpt lat="43.97355" lon="7.07936">
        <ele>997</ele>
        <time>2022-03-19T10:18:30.000Z</time>
      </trkpt>
      <trkpt lat="43.97354" lon="7.07938">
        <ele>996.79998779297</ele>
        <time>2022-03-19T10:18:38.000Z</time>
      </trkpt>
      <trkpt lat="43.97354" lon="7.07939">
        <ele>997.40002441406</ele>
        <time>2022-03-19T10:18:45.000Z</time>
      </trkpt>
      <trkpt lat="43.97354" lon="7.0794">
        <ele>997.40002441406</ele>
        <time>2022-03-19T10:18:53.000Z</time>
      </trkpt>
      <trkpt lat="43.97354" lon="7.07943">
        <ele>997.20001220703</ele>
        <time>2022-03-19T10:19:01.000Z</time>
      </trkpt>
      <trkpt lat="43.97354" lon="7.07947">
        <ele>996.59997558594</ele>
        <time>2022-03-19T10:19:11.000Z</time>
      </trkpt>
      <trkpt lat="43.97354" lon="7.07949">
        <ele>996.79998779297</ele>
        <time>2022-03-19T10:19:21.000Z</time>
      </trkpt>
      <trkpt lat="43.97356" lon="7.07952">
        <ele>996.59997558594</ele>
        <time>2022-03-19T10:19:36.000Z</time>
      </trkpt>
      <trkpt lat="43.97357" lon="7.07956">
        <ele>996.40002441406</ele>
        <time>2022-03-19T10:19:50.000Z</time>
      </trkpt>
      <trkpt lat="43.97357" lon="7.07955">
        <ele>996.40002441406</ele>
        <time>2022-03-19T10:19:59.000Z</time>
      </trkpt>
      <trkpt lat="43.97357" lon="7.07955">
        <ele>996.40002441406</ele>
        <time>2022-03-19T10:20:08.000Z</time>
      </trkpt>
      <trkpt lat="43.97358" lon="7.07956">
        <ele>996.79998779297</ele>
        <time>2022-03-19T10:20:19.000Z</time>
      </trkpt>
      <trkpt lat="43.97357" lon="7.07955">
        <ele>996.59997558594</ele>
        <time>2022-03-19T10:20:26.000Z</time>
      </trkpt>
      <trkpt lat="43.97356" lon="7.07956">
        <ele>996.59997558594</ele>
        <time>2022-03-19T10:20:27.000Z</time>
      </trkpt>
      <trkpt lat="43.97356" lon="7.07952">
        <ele>997</ele>
        <time>2022-03-19T10:20:31.000Z</time>
      </trkpt>
      <trkpt lat="43.97357" lon="7.07946">
        <ele>997</ele>
        <time>2022-03-19T10:20:39.000Z</time>
      </trkpt>
      <trkpt lat="43.97356" lon="7.07943">
        <ele>997.20001220703</ele>
        <time>2022-03-19T10:20:43.000Z</time>
      </trkpt>
      <trkpt lat="43.97352" lon="7.07943">
        <ele>997.20001220703</ele>
        <time>2022-03-19T10:20:49.000Z</time>
      </trkpt>
      <trkpt lat="43.97347" lon="7.07942">
        <ele>997.59997558594</ele>
        <time>2022-03-19T10:20:53.000Z</time>
      </trkpt>
      <trkpt lat="43.97344" lon="7.07941">
        <ele>998.59997558594</ele>
        <time>2022-03-19T10:20:56.000Z</time>
      </trkpt>
      <trkpt lat="43.97343" lon="7.07941">
        <ele>998.79998779297</ele>
        <time>2022-03-19T10:20:57.000Z</time>
      </trkpt>
      <trkpt lat="43.97335" lon="7.07942">
        <ele>999.79998779297</ele>
        <time>2022-03-19T10:21:03.000Z</time>
      </trkpt>
      <trkpt lat="43.97332" lon="7.07942">
        <ele>1000.200012207</ele>
        <time>2022-03-19T10:21:05.000Z</time>
      </trkpt>
      <trkpt lat="43.97327" lon="7.07944">
        <ele>1001</ele>
        <time>2022-03-19T10:21:10.000Z</time>
      </trkpt>
      <trkpt lat="43.97323" lon="7.07946">
        <ele>1002</ele>
        <time>2022-03-19T10:21:14.000Z</time>
      </trkpt>
      <trkpt lat="43.97318" lon="7.0795">
        <ele>1002.799987793</ele>
        <time>2022-03-19T10:21:18.000Z</time>
      </trkpt>
      <trkpt lat="43.97316" lon="7.07952">
        <ele>1003</ele>
        <time>2022-03-19T10:21:20.000Z</time>
      </trkpt>
      <trkpt lat="43.9731" lon="7.07956">
        <ele>1003.5999755859</ele>
        <time>2022-03-19T10:21:25.000Z</time>
      </trkpt>
      <trkpt lat="43.97307" lon="7.07954">
        <ele>1003.5999755859</ele>
        <time>2022-03-19T10:21:27.000Z</time>
      </trkpt>
      <trkpt lat="43.97308" lon="7.07949">
        <ele>1004</ele>
        <time>2022-03-19T10:21:30.000Z</time>
      </trkpt>
      <trkpt lat="43.97312" lon="7.07943">
        <ele>1005.200012207</ele>
        <time>2022-03-19T10:21:35.000Z</time>
      </trkpt>
      <trkpt lat="43.97313" lon="7.07941">
        <ele>1005.799987793</ele>
        <time>2022-03-19T10:21:38.000Z</time>
      </trkpt>
      <trkpt lat="43.97314" lon="7.0794">
        <ele>1006.200012207</ele>
        <time>2022-03-19T10:21:39.000Z</time>
      </trkpt>
      <trkpt lat="43.97318" lon="7.07932">
        <ele>1007.200012207</ele>
        <time>2022-03-19T10:21:46.000Z</time>
      </trkpt>
      <trkpt lat="43.97319" lon="7.0793">
        <ele>1007.4000244141</ele>
        <time>2022-03-19T10:21:48.000Z</time>
      </trkpt>
      <trkpt lat="43.97321" lon="7.07926">
        <ele>1007.799987793</ele>
        <time>2022-03-19T10:21:51.000Z</time>
      </trkpt>
      <trkpt lat="43.97322" lon="7.07924">
        <ele>1008.4000244141</ele>
        <time>2022-03-19T10:21:53.000Z</time>
      </trkpt>
      <trkpt lat="43.97324" lon="7.07921">
        <ele>1009.4000244141</ele>
        <time>2022-03-19T10:21:57.000Z</time>
      </trkpt>
      <trkpt lat="43.97324" lon="7.0792">
        <ele>1009.5999755859</ele>
        <time>2022-03-19T10:21:58.000Z</time>
      </trkpt>
      <trkpt lat="43.97328" lon="7.07915">
        <ele>1010.5999755859</ele>
        <time>2022-03-19T10:22:04.000Z</time>
      </trkpt>
      <trkpt lat="43.97331" lon="7.07909">
        <ele>1011.799987793</ele>
        <time>2022-03-19T10:22:09.000Z</time>
      </trkpt>
      <trkpt lat="43.97331" lon="7.07908">
        <ele>1012</ele>
        <time>2022-03-19T10:22:10.000Z</time>
      </trkpt>
      <trkpt lat="43.97333" lon="7.07907">
        <ele>1012.200012207</ele>
        <time>2022-03-19T10:22:11.000Z</time>
      </trkpt>
      <trkpt lat="43.97335" lon="7.07903">
        <ele>1012.799987793</ele>
        <time>2022-03-19T10:22:14.000Z</time>
      </trkpt>
      <trkpt lat="43.97336" lon="7.07901">
        <ele>1013</ele>
        <time>2022-03-19T10:22:16.000Z</time>
      </trkpt>
      <trkpt lat="43.9734" lon="7.07895">
        <ele>1013.799987793</ele>
        <time>2022-03-19T10:22:22.000Z</time>
      </trkpt>
      <trkpt lat="43.9734" lon="7.07893">
        <ele>1014.200012207</ele>
        <time>2022-03-19T10:22:24.000Z</time>
      </trkpt>
      <trkpt lat="43.97342" lon="7.0789">
        <ele>1015</ele>
        <time>2022-03-19T10:22:28.000Z</time>
      </trkpt>
      <trkpt lat="43.97344" lon="7.07885">
        <ele>1015.799987793</ele>
        <time>2022-03-19T10:22:32.000Z</time>
      </trkpt>
      <trkpt lat="43.97345" lon="7.07884">
        <ele>1016.200012207</ele>
        <time>2022-03-19T10:22:33.000Z</time>
      </trkpt>
      <trkpt lat="43.97348" lon="7.07878">
        <ele>1017.200012207</ele>
        <time>2022-03-19T10:22:38.000Z</time>
      </trkpt>
      <trkpt lat="43.97349" lon="7.07877">
        <ele>1017.4000244141</ele>
        <time>2022-03-19T10:22:39.000Z</time>
      </trkpt>
      <trkpt lat="43.9735" lon="7.07877">
        <ele>1017.4000244141</ele>
        <time>2022-03-19T10:22:40.000Z</time>
      </trkpt>
      <trkpt lat="43.97355" lon="7.07874">
        <ele>1018</ele>
        <time>2022-03-19T10:22:44.000Z</time>
      </trkpt>
      <trkpt lat="43.97358" lon="7.07874">
        <ele>1018.200012207</ele>
        <time>2022-03-19T10:22:46.000Z</time>
      </trkpt>
      <trkpt lat="43.97359" lon="7.07876">
        <ele>1018.200012207</ele>
        <time>2022-03-19T10:22:47.000Z</time>
      </trkpt>
      <trkpt lat="43.97359" lon="7.07877">
        <ele>1018.5999755859</ele>
        <time>2022-03-19T10:22:48.000Z</time>
      </trkpt>
      <trkpt lat="43.97361" lon="7.0788">
        <ele>1019.4000244141</ele>
        <time>2022-03-19T10:22:51.000Z</time>
      </trkpt>
      <trkpt lat="43.97363" lon="7.07882">
        <ele>1019.799987793</ele>
        <time>2022-03-19T10:22:53.000Z</time>
      </trkpt>
      <trkpt lat="43.97369" lon="7.07886">
        <ele>1021</ele>
        <time>2022-03-19T10:22:59.000Z</time>
      </trkpt>
      <trkpt lat="43.97372" lon="7.07889">
        <ele>1021.5999755859</ele>
        <time>2022-03-19T10:23:02.000Z</time>
      </trkpt>
      <trkpt lat="43.97373" lon="7.07889">
        <ele>1022</ele>
        <time>2022-03-19T10:23:03.000Z</time>
      </trkpt>
      <trkpt lat="43.97376" lon="7.07892">
        <ele>1022.5999755859</ele>
        <time>2022-03-19T10:23:06.000Z</time>
      </trkpt>
      <trkpt lat="43.97379" lon="7.07893">
        <ele>1023</ele>
        <time>2022-03-19T10:23:08.000Z</time>
      </trkpt>
      <trkpt lat="43.9738" lon="7.07894">
        <ele>1023.200012207</ele>
        <time>2022-03-19T10:23:09.000Z</time>
      </trkpt>
      <trkpt lat="43.97385" lon="7.07897">
        <ele>1024.1999511719</ele>
        <time>2022-03-19T10:23:13.000Z</time>
      </trkpt>
      <trkpt lat="43.97386" lon="7.07897">
        <ele>1024.5999755859</ele>
        <time>2022-03-19T10:23:14.000Z</time>
      </trkpt>
      <trkpt lat="43.97389" lon="7.079">
        <ele>1025.1999511719</ele>
        <time>2022-03-19T10:23:17.000Z</time>
      </trkpt>
      <trkpt lat="43.97394" lon="7.07906">
        <ele>1026.4000244141</ele>
        <time>2022-03-19T10:23:23.000Z</time>
      </trkpt>
      <trkpt lat="43.97398" lon="7.07911">
        <ele>1027</ele>
        <time>2022-03-19T10:23:27.000Z</time>
      </trkpt>
      <trkpt lat="43.974" lon="7.07913">
        <ele>1027.4000244141</ele>
        <time>2022-03-19T10:23:29.000Z</time>
      </trkpt>
      <trkpt lat="43.97404" lon="7.07918">
        <ele>1028.5999755859</ele>
        <time>2022-03-19T10:23:34.000Z</time>
      </trkpt>
      <trkpt lat="43.97405" lon="7.07918">
        <ele>1028.8000488281</ele>
        <time>2022-03-19T10:23:35.000Z</time>
      </trkpt>
      <trkpt lat="43.97409" lon="7.07922">
        <ele>1029.8000488281</ele>
        <time>2022-03-19T10:23:39.000Z</time>
      </trkpt>
      <trkpt lat="43.97415" lon="7.07926">
        <ele>1030.8000488281</ele>
        <time>2022-03-19T10:23:45.000Z</time>
      </trkpt>
      <trkpt lat="43.97415" lon="7.07927">
        <ele>1031</ele>
        <time>2022-03-19T10:23:46.000Z</time>
      </trkpt>
      <trkpt lat="43.97419" lon="7.07932">
        <ele>1032</ele>
        <time>2022-03-19T10:23:51.000Z</time>
      </trkpt>
      <trkpt lat="43.97422" lon="7.07935">
        <ele>1032.4000244141</ele>
        <time>2022-03-19T10:23:54.000Z</time>
      </trkpt>
      <trkpt lat="43.97425" lon="7.0794">
        <ele>1033.1999511719</ele>
        <time>2022-03-19T10:23:58.000Z</time>
      </trkpt>
      <trkpt lat="43.97428" lon="7.07942">
        <ele>1033.8000488281</ele>
        <time>2022-03-19T10:24:01.000Z</time>
      </trkpt>
      <trkpt lat="43.97431" lon="7.07945">
        <ele>1034.4000244141</ele>
        <time>2022-03-19T10:24:04.000Z</time>
      </trkpt>
      <trkpt lat="43.97435" lon="7.07949">
        <ele>1035.4000244141</ele>
        <time>2022-03-19T10:24:09.000Z</time>
      </trkpt>
      <trkpt lat="43.97441" lon="7.07952">
        <ele>1036.4000244141</ele>
        <time>2022-03-19T10:24:15.000Z</time>
      </trkpt>
      <trkpt lat="43.97442" lon="7.07951">
        <ele>1036.5999755859</ele>
        <time>2022-03-19T10:24:16.000Z</time>
      </trkpt>
      <trkpt lat="43.97448" lon="7.07947">
        <ele>1037.4000244141</ele>
        <time>2022-03-19T10:24:21.000Z</time>
      </trkpt>
      <trkpt lat="43.97453" lon="7.07944">
        <ele>1038.5999755859</ele>
        <time>2022-03-19T10:24:26.000Z</time>
      </trkpt>
      <trkpt lat="43.97457" lon="7.07942">
        <ele>1039.4000244141</ele>
        <time>2022-03-19T10:24:30.000Z</time>
      </trkpt>
      <trkpt lat="43.97458" lon="7.07941">
        <ele>1039.5999755859</ele>
        <time>2022-03-19T10:24:31.000Z</time>
      </trkpt>
      <trkpt lat="43.97463" lon="7.07937">
        <ele>1040.5999755859</ele>
        <time>2022-03-19T10:24:36.000Z</time>
      </trkpt>
      <trkpt lat="43.97464" lon="7.07936">
        <ele>1040.8000488281</ele>
        <time>2022-03-19T10:24:37.000Z</time>
      </trkpt>
      <trkpt lat="43.97467" lon="7.07933">
        <ele>1041.8000488281</ele>
        <time>2022-03-19T10:24:41.000Z</time>
      </trkpt>
      <trkpt lat="43.97471" lon="7.07931">
        <ele>1042.5999755859</ele>
        <time>2022-03-19T10:24:44.000Z</time>
      </trkpt>
      <trkpt lat="43.97473" lon="7.07929">
        <ele>1043</ele>
        <time>2022-03-19T10:24:46.000Z</time>
      </trkpt>
      <trkpt lat="43.97477" lon="7.07925">
        <ele>1044</ele>
        <time>2022-03-19T10:24:51.000Z</time>
      </trkpt>
      <trkpt lat="43.97478" lon="7.07925">
        <ele>1044.1999511719</ele>
        <time>2022-03-19T10:24:52.000Z</time>
      </trkpt>
      <trkpt lat="43.97482" lon="7.07923">
        <ele>1045</ele>
        <time>2022-03-19T10:24:56.000Z</time>
      </trkpt>
      <trkpt lat="43.97483" lon="7.07923">
        <ele>1045.1999511719</ele>
        <time>2022-03-19T10:24:57.000Z</time>
      </trkpt>
      <trkpt lat="43.97488" lon="7.07918">
        <ele>1046.1999511719</ele>
        <time>2022-03-19T10:25:03.000Z</time>
      </trkpt>
      <trkpt lat="43.9749" lon="7.07917">
        <ele>1046.4000244141</ele>
        <time>2022-03-19T10:25:04.000Z</time>
      </trkpt>
      <trkpt lat="43.97494" lon="7.07914">
        <ele>1047.1999511719</ele>
        <time>2022-03-19T10:25:09.000Z</time>
      </trkpt>
      <trkpt lat="43.97494" lon="7.07913">
        <ele>1047.4000244141</ele>
        <time>2022-03-19T10:25:10.000Z</time>
      </trkpt>
      <trkpt lat="43.97499" lon="7.07907">
        <ele>1048.4000244141</ele>
        <time>2022-03-19T10:25:16.000Z</time>
      </trkpt>
      <trkpt lat="43.975" lon="7.07906">
        <ele>1048.5999755859</ele>
        <time>2022-03-19T10:25:17.000Z</time>
      </trkpt>
      <trkpt lat="43.97504" lon="7.079">
        <ele>1049.4000244141</ele>
        <time>2022-03-19T10:25:22.000Z</time>
      </trkpt>
      <trkpt lat="43.97505" lon="7.07899">
        <ele>1049.5999755859</ele>
        <time>2022-03-19T10:25:23.000Z</time>
      </trkpt>
      <trkpt lat="43.97513" lon="7.07893">
        <ele>1050</ele>
        <time>2022-03-19T10:25:29.000Z</time>
      </trkpt>
      <trkpt lat="43.97519" lon="7.0789">
        <ele>1050.5999755859</ele>
        <time>2022-03-19T10:25:33.000Z</time>
      </trkpt>
      <trkpt lat="43.97526" lon="7.07883">
        <ele>1050.8000488281</ele>
        <time>2022-03-19T10:25:37.000Z</time>
      </trkpt>
      <trkpt lat="43.97541" lon="7.07877">
        <ele>1051.4000244141</ele>
        <time>2022-03-19T10:25:44.000Z</time>
      </trkpt>
      <trkpt lat="43.97545" lon="7.07875">
        <ele>1051.5999755859</ele>
        <time>2022-03-19T10:25:46.000Z</time>
      </trkpt>
      <trkpt lat="43.97549" lon="7.07873">
        <ele>1052.4000244141</ele>
        <time>2022-03-19T10:25:50.000Z</time>
      </trkpt>
      <trkpt lat="43.9755" lon="7.07872">
        <ele>1052.8000488281</ele>
        <time>2022-03-19T10:25:51.000Z</time>
      </trkpt>
      <trkpt lat="43.97557" lon="7.07873">
        <ele>1054</ele>
        <time>2022-03-19T10:25:57.000Z</time>
      </trkpt>
      <trkpt lat="43.97557" lon="7.07873">
        <ele>1054.1999511719</ele>
        <time>2022-03-19T10:25:58.000Z</time>
      </trkpt>
      <trkpt lat="43.97563" lon="7.07876">
        <ele>1055</ele>
        <time>2022-03-19T10:26:03.000Z</time>
      </trkpt>
      <trkpt lat="43.97566" lon="7.07879">
        <ele>1056.1999511719</ele>
        <time>2022-03-19T10:26:08.000Z</time>
      </trkpt>
      <trkpt lat="43.97569" lon="7.07879">
        <ele>1056.8000488281</ele>
        <time>2022-03-19T10:26:11.000Z</time>
      </trkpt>
      <trkpt lat="43.97575" lon="7.07879">
        <ele>1057.1999511719</ele>
        <time>2022-03-19T10:26:15.000Z</time>
      </trkpt>
      <trkpt lat="43.97579" lon="7.07877">
        <ele>1058</ele>
        <time>2022-03-19T10:26:18.000Z</time>
      </trkpt>
      <trkpt lat="43.9758" lon="7.07875">
        <ele>1058.4000244141</ele>
        <time>2022-03-19T10:26:20.000Z</time>
      </trkpt>
      <trkpt lat="43.97582" lon="7.07874">
        <ele>1059</ele>
        <time>2022-03-19T10:26:22.000Z</time>
      </trkpt>
      <trkpt lat="43.97585" lon="7.07871">
        <ele>1059.4000244141</ele>
        <time>2022-03-19T10:26:25.000Z</time>
      </trkpt>
      <trkpt lat="43.97587" lon="7.07871">
        <ele>1059.5999755859</ele>
        <time>2022-03-19T10:26:26.000Z</time>
      </trkpt>
      <trkpt lat="43.9759" lon="7.07869">
        <ele>1060.5999755859</ele>
        <time>2022-03-19T10:26:30.000Z</time>
      </trkpt>
      <trkpt lat="43.97595" lon="7.07865">
        <ele>1061.5999755859</ele>
        <time>2022-03-19T10:26:36.000Z</time>
      </trkpt>
      <trkpt lat="43.97596" lon="7.07864">
        <ele>1061.8000488281</ele>
        <time>2022-03-19T10:26:37.000Z</time>
      </trkpt>
      <trkpt lat="43.976" lon="7.07864">
        <ele>1063</ele>
        <time>2022-03-19T10:26:41.000Z</time>
      </trkpt>
      <trkpt lat="43.97601" lon="7.07863">
        <ele>1063.5999755859</ele>
        <time>2022-03-19T10:26:43.000Z</time>
      </trkpt>
      <trkpt lat="43.97604" lon="7.0786">
        <ele>1064</ele>
        <time>2022-03-19T10:26:46.000Z</time>
      </trkpt>
      <trkpt lat="43.97605" lon="7.07859">
        <ele>1064.1999511719</ele>
        <time>2022-03-19T10:26:48.000Z</time>
      </trkpt>
      <trkpt lat="43.97606" lon="7.07858">
        <ele>1064.1999511719</ele>
        <time>2022-03-19T10:26:49.000Z</time>
      </trkpt>
      <trkpt lat="43.97607" lon="7.07856">
        <ele>1064.4000244141</ele>
        <time>2022-03-19T10:26:51.000Z</time>
      </trkpt>
      <trkpt lat="43.97609" lon="7.07853">
        <ele>1064.5999755859</ele>
        <time>2022-03-19T10:26:54.000Z</time>
      </trkpt>
      <trkpt lat="43.97611" lon="7.07852">
        <ele>1065.1999511719</ele>
        <time>2022-03-19T10:26:56.000Z</time>
      </trkpt>
      <trkpt lat="43.97613" lon="7.07849">
        <ele>1066.1999511719</ele>
        <time>2022-03-19T10:27:00.000Z</time>
      </trkpt>
      <trkpt lat="43.97619" lon="7.07844">
        <ele>1067.1999511719</ele>
        <time>2022-03-19T10:27:06.000Z</time>
      </trkpt>
      <trkpt lat="43.97619" lon="7.07844">
        <ele>1067.5999755859</ele>
        <time>2022-03-19T10:27:07.000Z</time>
      </trkpt>
      <trkpt lat="43.97622" lon="7.07842">
        <ele>1068.4000244141</ele>
        <time>2022-03-19T10:27:10.000Z</time>
      </trkpt>
      <trkpt lat="43.97622" lon="7.0784">
        <ele>1068.4000244141</ele>
        <time>2022-03-19T10:27:11.000Z</time>
      </trkpt>
      <trkpt lat="43.97624" lon="7.07839">
        <ele>1068.5999755859</ele>
        <time>2022-03-19T10:27:12.000Z</time>
      </trkpt>
      <trkpt lat="43.97628" lon="7.07835">
        <ele>1069</ele>
        <time>2022-03-19T10:27:16.000Z</time>
      </trkpt>
      <trkpt lat="43.97629" lon="7.07833">
        <ele>1069.4000244141</ele>
        <time>2022-03-19T10:27:18.000Z</time>
      </trkpt>
      <trkpt lat="43.9763" lon="7.07832">
        <ele>1069.8000488281</ele>
        <time>2022-03-19T10:27:19.000Z</time>
      </trkpt>
      <trkpt lat="43.97633" lon="7.0783">
        <ele>1070.5999755859</ele>
        <time>2022-03-19T10:27:22.000Z</time>
      </trkpt>
      <trkpt lat="43.97639" lon="7.07825">
        <ele>1071.4000244141</ele>
        <time>2022-03-19T10:27:28.000Z</time>
      </trkpt>
      <trkpt lat="43.9764" lon="7.07824">
        <ele>1071.8000488281</ele>
        <time>2022-03-19T10:27:29.000Z</time>
      </trkpt>
      <trkpt lat="43.97646" lon="7.07819">
        <ele>1072.8000488281</ele>
        <time>2022-03-19T10:27:36.000Z</time>
      </trkpt>
      <trkpt lat="43.97652" lon="7.07814">
        <ele>1073.8000488281</ele>
        <time>2022-03-19T10:27:42.000Z</time>
      </trkpt>
      <trkpt lat="43.97652" lon="7.07813">
        <ele>1074</ele>
        <time>2022-03-19T10:27:43.000Z</time>
      </trkpt>
      <trkpt lat="43.97656" lon="7.07809">
        <ele>1074.8000488281</ele>
        <time>2022-03-19T10:27:47.000Z</time>
      </trkpt>
      <trkpt lat="43.97656" lon="7.07808">
        <ele>1075</ele>
        <time>2022-03-19T10:27:48.000Z</time>
      </trkpt>
      <trkpt lat="43.97657" lon="7.07807">
        <ele>1075.1999511719</ele>
        <time>2022-03-19T10:27:49.000Z</time>
      </trkpt>
      <trkpt lat="43.9766" lon="7.07803">
        <ele>1076</ele>
        <time>2022-03-19T10:27:53.000Z</time>
      </trkpt>
      <trkpt lat="43.97661" lon="7.07802">
        <ele>1076.4000244141</ele>
        <time>2022-03-19T10:27:55.000Z</time>
      </trkpt>
      <trkpt lat="43.97667" lon="7.07796">
        <ele>1077.1999511719</ele>
        <time>2022-03-19T10:28:02.000Z</time>
      </trkpt>
      <trkpt lat="43.97672" lon="7.0779">
        <ele>1078.1999511719</ele>
        <time>2022-03-19T10:28:08.000Z</time>
      </trkpt>
      <trkpt lat="43.97674" lon="7.07788">
        <ele>1078.1999511719</ele>
        <time>2022-03-19T10:28:09.000Z</time>
      </trkpt>
      <trkpt lat="43.97675" lon="7.07787">
        <ele>1078.4000244141</ele>
        <time>2022-03-19T10:28:10.000Z</time>
      </trkpt>
      <trkpt lat="43.97681" lon="7.07783">
        <ele>1079.1999511719</ele>
        <time>2022-03-19T10:28:15.000Z</time>
      </trkpt>
      <trkpt lat="43.97682" lon="7.07781">
        <ele>1079.8000488281</ele>
        <time>2022-03-19T10:28:17.000Z</time>
      </trkpt>
      <trkpt lat="43.97684" lon="7.0778">
        <ele>1080.4000244141</ele>
        <time>2022-03-19T10:28:19.000Z</time>
      </trkpt>
      <trkpt lat="43.97688" lon="7.07777">
        <ele>1081.4000244141</ele>
        <time>2022-03-19T10:28:23.000Z</time>
      </trkpt>
      <trkpt lat="43.97689" lon="7.07776">
        <ele>1081.5999755859</ele>
        <time>2022-03-19T10:28:24.000Z</time>
      </trkpt>
      <trkpt lat="43.97692" lon="7.07771">
        <ele>1082.4000244141</ele>
        <time>2022-03-19T10:28:29.000Z</time>
      </trkpt>
      <trkpt lat="43.97694" lon="7.07769">
        <ele>1082.8000488281</ele>
        <time>2022-03-19T10:28:31.000Z</time>
      </trkpt>
      <trkpt lat="43.97697" lon="7.07765">
        <ele>1083.1999511719</ele>
        <time>2022-03-19T10:28:34.000Z</time>
      </trkpt>
      <trkpt lat="43.97697" lon="7.07764">
        <ele>1083.1999511719</ele>
        <time>2022-03-19T10:28:35.000Z</time>
      </trkpt>
      <trkpt lat="43.977" lon="7.0776">
        <ele>1083.8000488281</ele>
        <time>2022-03-19T10:28:39.000Z</time>
      </trkpt>
      <trkpt lat="43.97702" lon="7.07757">
        <ele>1084.4000244141</ele>
        <time>2022-03-19T10:28:42.000Z</time>
      </trkpt>
      <trkpt lat="43.97704" lon="7.07754">
        <ele>1085</ele>
        <time>2022-03-19T10:28:45.000Z</time>
      </trkpt>
      <trkpt lat="43.97707" lon="7.07751">
        <ele>1085.8000488281</ele>
        <time>2022-03-19T10:28:49.000Z</time>
      </trkpt>
      <trkpt lat="43.97709" lon="7.07749">
        <ele>1086.1999511719</ele>
        <time>2022-03-19T10:28:51.000Z</time>
      </trkpt>
      <trkpt lat="43.97711" lon="7.07747">
        <ele>1086.5999755859</ele>
        <time>2022-03-19T10:28:54.000Z</time>
      </trkpt>
      <trkpt lat="43.97713" lon="7.07744">
        <ele>1086.8000488281</ele>
        <time>2022-03-19T10:28:57.000Z</time>
      </trkpt>
      <trkpt lat="43.97715" lon="7.07743">
        <ele>1087</ele>
        <time>2022-03-19T10:28:59.000Z</time>
      </trkpt>
      <trkpt lat="43.97718" lon="7.0774">
        <ele>1087.1999511719</ele>
        <time>2022-03-19T10:29:02.000Z</time>
      </trkpt>
      <trkpt lat="43.97718" lon="7.07739">
        <ele>1087.4000244141</ele>
        <time>2022-03-19T10:29:03.000Z</time>
      </trkpt>
      <trkpt lat="43.97723" lon="7.07735">
        <ele>1087.5999755859</ele>
        <time>2022-03-19T10:29:06.000Z</time>
      </trkpt>
      <trkpt lat="43.97724" lon="7.07734">
        <ele>1087.5999755859</ele>
        <time>2022-03-19T10:29:07.000Z</time>
      </trkpt>
      <trkpt lat="43.97734" lon="7.07724">
        <ele>1088</ele>
        <time>2022-03-19T10:29:13.000Z</time>
      </trkpt>
      <trkpt lat="43.97735" lon="7.07721">
        <ele>1088</ele>
        <time>2022-03-19T10:29:15.000Z</time>
      </trkpt>
      <trkpt lat="43.97741" lon="7.07716">
        <ele>1088.1999511719</ele>
        <time>2022-03-19T10:29:18.000Z</time>
      </trkpt>
      <trkpt lat="43.97755" lon="7.07704">
        <ele>1089.4000244141</ele>
        <time>2022-03-19T10:29:27.000Z</time>
      </trkpt>
      <trkpt lat="43.97765" lon="7.07698">
        <ele>1090.4000244141</ele>
        <time>2022-03-19T10:29:33.000Z</time>
      </trkpt>
      <trkpt lat="43.97773" lon="7.07696">
        <ele>1091.1999511719</ele>
        <time>2022-03-19T10:29:37.000Z</time>
      </trkpt>
      <trkpt lat="43.97778" lon="7.07694">
        <ele>1091.5999755859</ele>
        <time>2022-03-19T10:29:40.000Z</time>
      </trkpt>
      <trkpt lat="43.97781" lon="7.07694">
        <ele>1092</ele>
        <time>2022-03-19T10:29:42.000Z</time>
      </trkpt>
      <trkpt lat="43.97781" lon="7.07692">
        <ele>1092.1999511719</ele>
        <time>2022-03-19T10:29:43.000Z</time>
      </trkpt>
      <trkpt lat="43.97785" lon="7.07691">
        <ele>1092.5999755859</ele>
        <time>2022-03-19T10:29:45.000Z</time>
      </trkpt>
      <trkpt lat="43.97787" lon="7.07691">
        <ele>1092.8000488281</ele>
        <time>2022-03-19T10:29:46.000Z</time>
      </trkpt>
      <trkpt lat="43.97794" lon="7.07688">
        <ele>1093.8000488281</ele>
        <time>2022-03-19T10:29:51.000Z</time>
      </trkpt>
      <trkpt lat="43.97802" lon="7.07683">
        <ele>1094.4000244141</ele>
        <time>2022-03-19T10:29:57.000Z</time>
      </trkpt>
      <trkpt lat="43.97806" lon="7.0768">
        <ele>1094.8000488281</ele>
        <time>2022-03-19T10:30:00.000Z</time>
      </trkpt>
      <trkpt lat="43.97808" lon="7.07678">
        <ele>1095.5999755859</ele>
        <time>2022-03-19T10:30:03.000Z</time>
      </trkpt>
      <trkpt lat="43.97809" lon="7.07677">
        <ele>1096</ele>
        <time>2022-03-19T10:30:04.000Z</time>
      </trkpt>
      <trkpt lat="43.9781" lon="7.07676">
        <ele>1096.1999511719</ele>
        <time>2022-03-19T10:30:05.000Z</time>
      </trkpt>
      <trkpt lat="43.97814" lon="7.07673">
        <ele>1097</ele>
        <time>2022-03-19T10:30:08.000Z</time>
      </trkpt>
      <trkpt lat="43.97814" lon="7.07672">
        <ele>1097.1999511719</ele>
        <time>2022-03-19T10:30:09.000Z</time>
      </trkpt>
      <trkpt lat="43.97818" lon="7.07668">
        <ele>1098.1999511719</ele>
        <time>2022-03-19T10:30:13.000Z</time>
      </trkpt>
      <trkpt lat="43.9782" lon="7.07668">
        <ele>1098.4000244141</ele>
        <time>2022-03-19T10:30:14.000Z</time>
      </trkpt>
      <trkpt lat="43.97825" lon="7.07664">
        <ele>1099.1999511719</ele>
        <time>2022-03-19T10:30:20.000Z</time>
      </trkpt>
      <trkpt lat="43.9783" lon="7.0766">
        <ele>1100.1999511719</ele>
        <time>2022-03-19T10:30:26.000Z</time>
      </trkpt>
      <trkpt lat="43.97832" lon="7.0766">
        <ele>1100.4000244141</ele>
        <time>2022-03-19T10:30:28.000Z</time>
      </trkpt>
      <trkpt lat="43.97834" lon="7.07659">
        <ele>1100.5999755859</ele>
        <time>2022-03-19T10:30:30.000Z</time>
      </trkpt>
      <trkpt lat="43.97844" lon="7.07656">
        <ele>1101.1999511719</ele>
        <time>2022-03-19T10:30:35.000Z</time>
      </trkpt>
      <trkpt lat="43.97856" lon="7.07652">
        <ele>1101</ele>
        <time>2022-03-19T10:30:40.000Z</time>
      </trkpt>
      <trkpt lat="43.97869" lon="7.07649">
        <ele>1100.8000488281</ele>
        <time>2022-03-19T10:30:44.000Z</time>
      </trkpt>
      <trkpt lat="43.97884" lon="7.07647">
        <ele>1100.8000488281</ele>
        <time>2022-03-19T10:30:49.000Z</time>
      </trkpt>
      <trkpt lat="43.97899" lon="7.07646">
        <ele>1100.5999755859</ele>
        <time>2022-03-19T10:30:54.000Z</time>
      </trkpt>
      <trkpt lat="43.97912" lon="7.07647">
        <ele>1101.4000244141</ele>
        <time>2022-03-19T10:30:59.000Z</time>
      </trkpt>
      <trkpt lat="43.97922" lon="7.07649">
        <ele>1102</ele>
        <time>2022-03-19T10:31:02.000Z</time>
      </trkpt>
      <trkpt lat="43.97929" lon="7.0765">
        <ele>1102.4000244141</ele>
        <time>2022-03-19T10:31:05.000Z</time>
      </trkpt>
      <trkpt lat="43.97936" lon="7.07652">
        <ele>1103</ele>
        <time>2022-03-19T10:31:08.000Z</time>
      </trkpt>
      <trkpt lat="43.97942" lon="7.07653">
        <ele>1103.5999755859</ele>
        <time>2022-03-19T10:31:11.000Z</time>
      </trkpt>
      <trkpt lat="43.97952" lon="7.07655">
        <ele>1105</ele>
        <time>2022-03-19T10:31:16.000Z</time>
      </trkpt>
      <trkpt lat="43.97959" lon="7.07656">
        <ele>1106.1999511719</ele>
        <time>2022-03-19T10:31:20.000Z</time>
      </trkpt>
      <trkpt lat="43.97961" lon="7.07657">
        <ele>1106.8000488281</ele>
        <time>2022-03-19T10:31:22.000Z</time>
      </trkpt>
      <trkpt lat="43.97966" lon="7.07659">
        <ele>1107.4000244141</ele>
        <time>2022-03-19T10:31:25.000Z</time>
      </trkpt>
      <trkpt lat="43.9797" lon="7.07657">
        <ele>1108.4000244141</ele>
        <time>2022-03-19T10:31:29.000Z</time>
      </trkpt>
      <trkpt lat="43.97971" lon="7.07655">
        <ele>1108.5999755859</ele>
        <time>2022-03-19T10:31:30.000Z</time>
      </trkpt>
      <trkpt lat="43.97971" lon="7.07651">
        <ele>1109</ele>
        <time>2022-03-19T10:31:32.000Z</time>
      </trkpt>
      <trkpt lat="43.97968" lon="7.07647">
        <ele>1109.4000244141</ele>
        <time>2022-03-19T10:31:35.000Z</time>
      </trkpt>
      <trkpt lat="43.97967" lon="7.07645">
        <ele>1109.5999755859</ele>
        <time>2022-03-19T10:31:36.000Z</time>
      </trkpt>
      <trkpt lat="43.97962" lon="7.07633">
        <ele>1110.5999755859</ele>
        <time>2022-03-19T10:31:42.000Z</time>
      </trkpt>
      <trkpt lat="43.9796" lon="7.07624">
        <ele>1111.8000488281</ele>
        <time>2022-03-19T10:31:47.000Z</time>
      </trkpt>
      <trkpt lat="43.97956" lon="7.07619">
        <ele>1112.8000488281</ele>
        <time>2022-03-19T10:31:51.000Z</time>
      </trkpt>
      <trkpt lat="43.97954" lon="7.07614">
        <ele>1113.4000244141</ele>
        <time>2022-03-19T10:31:55.000Z</time>
      </trkpt>
      <trkpt lat="43.97951" lon="7.07611">
        <ele>1114</ele>
        <time>2022-03-19T10:31:58.000Z</time>
      </trkpt>
      <trkpt lat="43.97947" lon="7.07608">
        <ele>1114.4000244141</ele>
        <time>2022-03-19T10:32:02.000Z</time>
      </trkpt>
      <trkpt lat="43.97943" lon="7.07604">
        <ele>1115</ele>
        <time>2022-03-19T10:32:06.000Z</time>
      </trkpt>
      <trkpt lat="43.9794" lon="7.07602">
        <ele>1115.4000244141</ele>
        <time>2022-03-19T10:32:09.000Z</time>
      </trkpt>
      <trkpt lat="43.97937" lon="7.076">
        <ele>1116</ele>
        <time>2022-03-19T10:32:12.000Z</time>
      </trkpt>
      <trkpt lat="43.97935" lon="7.07599">
        <ele>1116.1999511719</ele>
        <time>2022-03-19T10:32:14.000Z</time>
      </trkpt>
      <trkpt lat="43.97935" lon="7.07599">
        <ele>1116.4000244141</ele>
        <time>2022-03-19T10:32:18.000Z</time>
      </trkpt>
      <trkpt lat="43.97931" lon="7.07594">
        <ele>1116.5999755859</ele>
        <time>2022-03-19T10:32:24.000Z</time>
      </trkpt>
      <trkpt lat="43.97931" lon="7.0759">
        <ele>1117.1999511719</ele>
        <time>2022-03-19T10:32:27.000Z</time>
      </trkpt>
      <trkpt lat="43.97931" lon="7.07587">
        <ele>1117.4000244141</ele>
        <time>2022-03-19T10:32:30.000Z</time>
      </trkpt>
      <trkpt lat="43.97931" lon="7.07587">
        <ele>1117.4000244141</ele>
        <time>2022-03-19T10:32:35.000Z</time>
      </trkpt>
      <trkpt lat="43.97931" lon="7.07587">
        <ele>1117.4000244141</ele>
        <time>2022-03-19T10:32:39.000Z</time>
      </trkpt>
      <trkpt lat="43.97931" lon="7.07587">
        <ele>1117.5999755859</ele>
        <time>2022-03-19T10:32:49.000Z</time>
      </trkpt>
      <trkpt lat="43.97932" lon="7.07587">
        <ele>1117.1999511719</ele>
        <time>2022-03-19T10:32:55.000Z</time>
      </trkpt>
      <trkpt lat="43.97931" lon="7.07584">
        <ele>1117.1999511719</ele>
        <time>2022-03-19T10:33:01.000Z</time>
      </trkpt>
      <trkpt lat="43.97933" lon="7.07582">
        <ele>1118.4000244141</ele>
        <time>2022-03-19T10:33:06.000Z</time>
      </trkpt>
      <trkpt lat="43.97933" lon="7.07583">
        <ele>1118.5999755859</ele>
        <time>2022-03-19T10:33:07.000Z</time>
      </trkpt>
      <trkpt lat="43.97935" lon="7.07582">
        <ele>1118.8000488281</ele>
        <time>2022-03-19T10:33:12.000Z</time>
      </trkpt>
      <trkpt lat="43.97935" lon="7.07582">
        <ele>1118.8000488281</ele>
        <time>2022-03-19T10:33:17.000Z</time>
      </trkpt>
      <trkpt lat="43.97935" lon="7.07582">
        <ele>1118.8000488281</ele>
        <time>2022-03-19T10:33:23.000Z</time>
      </trkpt>
      <trkpt lat="43.97936" lon="7.07582">
        <ele>1119</ele>
        <time>2022-03-19T10:33:31.000Z</time>
      </trkpt>
      <trkpt lat="43.97936" lon="7.07583">
        <ele>1118.8000488281</ele>
        <time>2022-03-19T10:33:37.000Z</time>
      </trkpt>
      <trkpt lat="43.97936" lon="7.07584">
        <ele>1118.5999755859</ele>
        <time>2022-03-19T10:33:46.000Z</time>
      </trkpt>
      <trkpt lat="43.97936" lon="7.07584">
        <ele>1118.8000488281</ele>
        <time>2022-03-19T10:33:58.000Z</time>
      </trkpt>
      <trkpt lat="43.97937" lon="7.07584">
        <ele>1119.4000244141</ele>
        <time>2022-03-19T10:34:08.000Z</time>
      </trkpt>
      <trkpt lat="43.97937" lon="7.07584">
        <ele>1119.4000244141</ele>
        <time>2022-03-19T10:34:09.000Z</time>
      </trkpt>
      <trkpt lat="43.97937" lon="7.07584">
        <ele>1119.4000244141</ele>
        <time>2022-03-19T10:34:13.000Z</time>
      </trkpt>
      <trkpt lat="43.97938" lon="7.07584">
        <ele>1119.8000488281</ele>
        <time>2022-03-19T10:34:21.000Z</time>
      </trkpt>
      <trkpt lat="43.97937" lon="7.07584">
        <ele>1119.4000244141</ele>
        <time>2022-03-19T10:34:30.000Z</time>
      </trkpt>
      <trkpt lat="43.97937" lon="7.07584">
        <ele>1119.4000244141</ele>
        <time>2022-03-19T10:34:49.000Z</time>
      </trkpt>
      <trkpt lat="43.97937" lon="7.07583">
        <ele>1119.5999755859</ele>
        <time>2022-03-19T10:34:56.000Z</time>
      </trkpt>
      <trkpt lat="43.97937" lon="7.07583">
        <ele>1119.5999755859</ele>
        <time>2022-03-19T10:35:02.000Z</time>
      </trkpt>
      <trkpt lat="43.97936" lon="7.07583">
        <ele>1119.5999755859</ele>
        <time>2022-03-19T10:35:08.000Z</time>
      </trkpt>
      <trkpt lat="43.97937" lon="7.07583">
        <ele>1119.5999755859</ele>
        <time>2022-03-19T10:35:22.000Z</time>
      </trkpt>
      <trkpt lat="43.97937" lon="7.07583">
        <ele>1119.5999755859</ele>
        <time>2022-03-19T10:35:40.000Z</time>
      </trkpt>
      <trkpt lat="43.97937" lon="7.07582">
        <ele>1119.5999755859</ele>
        <time>2022-03-19T10:35:54.000Z</time>
      </trkpt>
      <trkpt lat="43.97938" lon="7.07582">
        <ele>1119.4000244141</ele>
        <time>2022-03-19T10:36:11.000Z</time>
      </trkpt>
      <trkpt lat="43.97937" lon="7.07582">
        <ele>1119.4000244141</ele>
        <time>2022-03-19T10:36:27.000Z</time>
      </trkpt>
      <trkpt lat="43.97936" lon="7.07582">
        <ele>1119.1999511719</ele>
        <time>2022-03-19T10:36:38.000Z</time>
      </trkpt>
      <trkpt lat="43.97936" lon="7.07583">
        <ele>1119.4000244141</ele>
        <time>2022-03-19T10:36:45.000Z</time>
      </trkpt>
      <trkpt lat="43.97936" lon="7.07583">
        <ele>1119.4000244141</ele>
        <time>2022-03-19T10:36:58.000Z</time>
      </trkpt>
      <trkpt lat="43.97937" lon="7.07583">
        <ele>1119.4000244141</ele>
        <time>2022-03-19T10:37:11.000Z</time>
      </trkpt>
      <trkpt lat="43.97938" lon="7.07584">
        <ele>1119</ele>
        <time>2022-03-19T10:37:26.000Z</time>
      </trkpt>
      <trkpt lat="43.97939" lon="7.07586">
        <ele>1119.5999755859</ele>
        <time>2022-03-19T10:37:50.000Z</time>
      </trkpt>
      <trkpt lat="43.97939" lon="7.07586">
        <ele>1119.5999755859</ele>
        <time>2022-03-19T10:38:01.000Z</time>
      </trkpt>
      <trkpt lat="43.97938" lon="7.07585">
        <ele>1119.4000244141</ele>
        <time>2022-03-19T10:38:15.000Z</time>
      </trkpt>
      <trkpt lat="43.97935" lon="7.07586">
        <ele>1119.4000244141</ele>
        <time>2022-03-19T10:38:33.000Z</time>
      </trkpt>
      <trkpt lat="43.97934" lon="7.07586">
        <ele>1119.1999511719</ele>
        <time>2022-03-19T10:38:45.000Z</time>
      </trkpt>
      <trkpt lat="43.97933" lon="7.07585">
        <ele>1119.1999511719</ele>
        <time>2022-03-19T10:38:55.000Z</time>
      </trkpt>
      <trkpt lat="43.97933" lon="7.07586">
        <ele>1119</ele>
        <time>2022-03-19T10:39:12.000Z</time>
      </trkpt>
      <trkpt lat="43.97933" lon="7.07585">
        <ele>1119.1999511719</ele>
        <time>2022-03-19T10:39:27.000Z</time>
      </trkpt>
      <trkpt lat="43.97934" lon="7.07585">
        <ele>1119.1999511719</ele>
        <time>2022-03-19T10:39:48.000Z</time>
      </trkpt>
      <trkpt lat="43.97933" lon="7.07586">
        <ele>1119</ele>
        <time>2022-03-19T10:39:54.000Z</time>
      </trkpt>
      <trkpt lat="43.97933" lon="7.07586">
        <ele>1119</ele>
        <time>2022-03-19T10:40:00.000Z</time>
      </trkpt>
      <trkpt lat="43.97934" lon="7.07586">
        <ele>1119</ele>
        <time>2022-03-19T10:40:08.000Z</time>
      </trkpt>
      <trkpt lat="43.97934" lon="7.07586">
        <ele>1118.5999755859</ele>
        <time>2022-03-19T10:40:21.000Z</time>
      </trkpt>
      <trkpt lat="43.97933" lon="7.07581">
        <ele>1118.5999755859</ele>
        <time>2022-03-19T10:40:25.000Z</time>
      </trkpt>
      <trkpt lat="43.97933" lon="7.0758">
        <ele>1118.5999755859</ele>
        <time>2022-03-19T10:40:26.000Z</time>
      </trkpt>
      <trkpt lat="43.97934" lon="7.0758">
        <ele>1118.4000244141</ele>
        <time>2022-03-19T10:40:30.000Z</time>
      </trkpt>
      <trkpt lat="43.97934" lon="7.07581">
        <ele>1118.1999511719</ele>
        <time>2022-03-19T10:40:31.000Z</time>
      </trkpt>
      <trkpt lat="43.97933" lon="7.07584">
        <ele>1118.4000244141</ele>
        <time>2022-03-19T10:40:38.000Z</time>
      </trkpt>
      <trkpt lat="43.97937" lon="7.07586">
        <ele>1118.8000488281</ele>
        <time>2022-03-19T10:40:44.000Z</time>
      </trkpt>
      <trkpt lat="43.97941" lon="7.07587">
        <ele>1119.4000244141</ele>
        <time>2022-03-19T10:40:50.000Z</time>
      </trkpt>
      <trkpt lat="43.97942" lon="7.07587">
        <ele>1119.5999755859</ele>
        <time>2022-03-19T10:40:51.000Z</time>
      </trkpt>
      <trkpt lat="43.97944" lon="7.07588">
        <ele>1120.5999755859</ele>
        <time>2022-03-19T10:40:56.000Z</time>
      </trkpt>
      <trkpt lat="43.97944" lon="7.07589">
        <ele>1120.8000488281</ele>
        <time>2022-03-19T10:40:58.000Z</time>
      </trkpt>
      <trkpt lat="43.97945" lon="7.07588">
        <ele>1121</ele>
        <time>2022-03-19T10:41:15.000Z</time>
      </trkpt>
      <trkpt lat="43.97943" lon="7.07587">
        <ele>1121.1999511719</ele>
        <time>2022-03-19T10:41:29.000Z</time>
      </trkpt>
      <trkpt lat="43.97938" lon="7.07586">
        <ele>1120.1999511719</ele>
        <time>2022-03-19T10:41:37.000Z</time>
      </trkpt>
      <trkpt lat="43.97937" lon="7.07585">
        <ele>1119.5999755859</ele>
        <time>2022-03-19T10:41:41.000Z</time>
      </trkpt>
      <trkpt lat="43.97937" lon="7.07585">
        <ele>1119</ele>
        <time>2022-03-19T10:41:44.000Z</time>
      </trkpt>
      <trkpt lat="43.97937" lon="7.07584">
        <ele>1119</ele>
        <time>2022-03-19T10:41:51.000Z</time>
      </trkpt>
      <trkpt lat="43.97936" lon="7.07585">
        <ele>1119.8000488281</ele>
        <time>2022-03-19T10:42:10.000Z</time>
      </trkpt>
      <trkpt lat="43.97936" lon="7.07585">
        <ele>1119.1999511719</ele>
        <time>2022-03-19T10:42:18.000Z</time>
      </trkpt>
      <trkpt lat="43.97936" lon="7.07585">
        <ele>1119.8000488281</ele>
        <time>2022-03-19T10:42:27.000Z</time>
      </trkpt>
      <trkpt lat="43.97937" lon="7.07585">
        <ele>1120.4000244141</ele>
        <time>2022-03-19T10:42:38.000Z</time>
      </trkpt>
      <trkpt lat="43.97936" lon="7.07584">
        <ele>1119.8000488281</ele>
        <time>2022-03-19T10:42:48.000Z</time>
      </trkpt>
      <trkpt lat="43.97935" lon="7.07583">
        <ele>1119.5999755859</ele>
        <time>2022-03-19T10:42:57.000Z</time>
      </trkpt>
      <trkpt lat="43.97935" lon="7.07584">
        <ele>1119.4000244141</ele>
        <time>2022-03-19T10:43:04.000Z</time>
      </trkpt>
      <trkpt lat="43.97935" lon="7.07584">
        <ele>1119.8000488281</ele>
        <time>2022-03-19T10:43:09.000Z</time>
      </trkpt>
      <trkpt lat="43.97935" lon="7.07584">
        <ele>1120.1999511719</ele>
        <time>2022-03-19T10:43:20.000Z</time>
      </trkpt>
      <trkpt lat="43.97935" lon="7.07584">
        <ele>1120.1999511719</ele>
        <time>2022-03-19T10:43:25.000Z</time>
      </trkpt>
      <trkpt lat="43.97935" lon="7.07584">
        <ele>1120.1999511719</ele>
        <time>2022-03-19T10:43:31.000Z</time>
      </trkpt>
      <trkpt lat="43.97935" lon="7.07584">
        <ele>1120</ele>
        <time>2022-03-19T10:43:40.000Z</time>
      </trkpt>
      <trkpt lat="43.97934" lon="7.07584">
        <ele>1119.4000244141</ele>
        <time>2022-03-19T10:43:47.000Z</time>
      </trkpt>
      <trkpt lat="43.97935" lon="7.07583">
        <ele>1119.4000244141</ele>
        <time>2022-03-19T10:43:59.000Z</time>
      </trkpt>
      <trkpt lat="43.97934" lon="7.07583">
        <ele>1119.8000488281</ele>
        <time>2022-03-19T10:44:07.000Z</time>
      </trkpt>
      <trkpt lat="43.97935" lon="7.07583">
        <ele>1119.8000488281</ele>
        <time>2022-03-19T10:44:16.000Z</time>
      </trkpt>
      <trkpt lat="43.97934" lon="7.07583">
        <ele>1119.5999755859</ele>
        <time>2022-03-19T10:44:26.000Z</time>
      </trkpt>
      <trkpt lat="43.97935" lon="7.07582">
        <ele>1119.4000244141</ele>
        <time>2022-03-19T10:44:35.000Z</time>
      </trkpt>
      <trkpt lat="43.97935" lon="7.07582">
        <ele>1119.4000244141</ele>
        <time>2022-03-19T10:44:41.000Z</time>
      </trkpt>
      <trkpt lat="43.97936" lon="7.07581">
        <ele>1119.5999755859</ele>
        <time>2022-03-19T10:44:51.000Z</time>
      </trkpt>
      <trkpt lat="43.97935" lon="7.0758">
        <ele>1119.5999755859</ele>
        <time>2022-03-19T10:44:58.000Z</time>
      </trkpt>
      <trkpt lat="43.97936" lon="7.0758">
        <ele>1119.5999755859</ele>
        <time>2022-03-19T10:45:04.000Z</time>
      </trkpt>
      <trkpt lat="43.97936" lon="7.0758">
        <ele>1119.5999755859</ele>
        <time>2022-03-19T10:45:12.000Z</time>
      </trkpt>
      <trkpt lat="43.97936" lon="7.0758">
        <ele>1119.5999755859</ele>
        <time>2022-03-19T10:45:18.000Z</time>
      </trkpt>
      <trkpt lat="43.97936" lon="7.0758">
        <ele>1119.8000488281</ele>
        <time>2022-03-19T10:45:31.000Z</time>
      </trkpt>
      <trkpt lat="43.97936" lon="7.0758">
        <ele>1119.4000244141</ele>
        <time>2022-03-19T10:45:44.000Z</time>
      </trkpt>
      <trkpt lat="43.97935" lon="7.07581">
        <ele>1119.1999511719</ele>
        <time>2022-03-19T10:45:55.000Z</time>
      </trkpt>
      <trkpt lat="43.97936" lon="7.07582">
        <ele>1119.8000488281</ele>
        <time>2022-03-19T10:46:06.000Z</time>
      </trkpt>
      <trkpt lat="43.97934" lon="7.07584">
        <ele>1119.8000488281</ele>
        <time>2022-03-19T10:46:09.000Z</time>
      </trkpt>
      <trkpt lat="43.97934" lon="7.07583">
        <ele>1119.5999755859</ele>
        <time>2022-03-19T10:46:10.000Z</time>
      </trkpt>
      <trkpt lat="43.97933" lon="7.07585">
        <ele>1118.5999755859</ele>
        <time>2022-03-19T10:46:17.000Z</time>
      </trkpt>
      <trkpt lat="43.97934" lon="7.07589">
        <ele>1118.4000244141</ele>
        <time>2022-03-19T10:46:19.000Z</time>
      </trkpt>
      <trkpt lat="43.97932" lon="7.07587">
        <ele>1118.1999511719</ele>
        <time>2022-03-19T10:46:21.000Z</time>
      </trkpt>
      <trkpt lat="43.97932" lon="7.07587">
        <ele>1117.4000244141</ele>
        <time>2022-03-19T10:46:23.000Z</time>
      </trkpt>
      <trkpt lat="43.97932" lon="7.07586">
        <ele>1117.1999511719</ele>
        <time>2022-03-19T10:46:25.000Z</time>
      </trkpt>
      <trkpt lat="43.97932" lon="7.07586">
        <ele>1117.5999755859</ele>
        <time>2022-03-19T10:46:32.000Z</time>
      </trkpt>
      <trkpt lat="43.97934" lon="7.07589">
        <ele>1117.5999755859</ele>
        <time>2022-03-19T10:46:39.000Z</time>
      </trkpt>
      <trkpt lat="43.97934" lon="7.07588">
        <ele>1117.8000488281</ele>
        <time>2022-03-19T10:46:47.000Z</time>
      </trkpt>
      <trkpt lat="43.97935" lon="7.07588">
        <ele>1117.5999755859</ele>
        <time>2022-03-19T10:47:01.000Z</time>
      </trkpt>
      <trkpt lat="43.9794" lon="7.07591">
        <ele>1117.5999755859</ele>
        <time>2022-03-19T10:47:06.000Z</time>
      </trkpt>
      <trkpt lat="43.97945" lon="7.07591">
        <ele>1118</ele>
        <time>2022-03-19T10:47:11.000Z</time>
      </trkpt>
      <trkpt lat="43.9795" lon="7.07594">
        <ele>1118.4000244141</ele>
        <time>2022-03-19T10:47:15.000Z</time>
      </trkpt>
      <trkpt lat="43.97955" lon="7.07595">
        <ele>1119.1999511719</ele>
        <time>2022-03-19T10:47:19.000Z</time>
      </trkpt>
      <trkpt lat="43.97959" lon="7.07597">
        <ele>1119.5999755859</ele>
        <time>2022-03-19T10:47:22.000Z</time>
      </trkpt>
      <trkpt lat="43.97965" lon="7.076">
        <ele>1120</ele>
        <time>2022-03-19T10:47:26.000Z</time>
      </trkpt>
      <trkpt lat="43.97972" lon="7.07606">
        <ele>1120.5999755859</ele>
        <time>2022-03-19T10:47:32.000Z</time>
      </trkpt>
      <trkpt lat="43.97973" lon="7.07607">
        <ele>1120.8000488281</ele>
        <time>2022-03-19T10:47:33.000Z</time>
      </trkpt>
      <trkpt lat="43.97983" lon="7.07616">
        <ele>1121.8000488281</ele>
        <time>2022-03-19T10:47:41.000Z</time>
      </trkpt>
      <trkpt lat="43.97984" lon="7.07617">
        <ele>1121.8000488281</ele>
        <time>2022-03-19T10:47:42.000Z</time>
      </trkpt>
      <trkpt lat="43.97993" lon="7.07622">
        <ele>1122.5999755859</ele>
        <time>2022-03-19T10:47:48.000Z</time>
      </trkpt>
      <trkpt lat="43.97996" lon="7.07623">
        <ele>1122.8000488281</ele>
        <time>2022-03-19T10:47:50.000Z</time>
      </trkpt>
      <trkpt lat="43.98005" lon="7.07628">
        <ele>1124</ele>
        <time>2022-03-19T10:47:56.000Z</time>
      </trkpt>
      <trkpt lat="43.98015" lon="7.07635">
        <ele>1125.1999511719</ele>
        <time>2022-03-19T10:48:03.000Z</time>
      </trkpt>
      <trkpt lat="43.98016" lon="7.07637">
        <ele>1125.4000244141</ele>
        <time>2022-03-19T10:48:04.000Z</time>
      </trkpt>
      <trkpt lat="43.98021" lon="7.07646">
        <ele>1126.1999511719</ele>
        <time>2022-03-19T10:48:09.000Z</time>
      </trkpt>
      <trkpt lat="43.98023" lon="7.07651">
        <ele>1126.8000488281</ele>
        <time>2022-03-19T10:48:12.000Z</time>
      </trkpt>
      <trkpt lat="43.98026" lon="7.07661">
        <ele>1127.1999511719</ele>
        <time>2022-03-19T10:48:17.000Z</time>
      </trkpt>
      <trkpt lat="43.98028" lon="7.07666">
        <ele>1127.4000244141</ele>
        <time>2022-03-19T10:48:20.000Z</time>
      </trkpt>
      <trkpt lat="43.98034" lon="7.07682">
        <ele>1127.8000488281</ele>
        <time>2022-03-19T10:48:28.000Z</time>
      </trkpt>
      <trkpt lat="43.98037" lon="7.07692">
        <ele>1128.1999511719</ele>
        <time>2022-03-19T10:48:33.000Z</time>
      </trkpt>
      <trkpt lat="43.9804" lon="7.07706">
        <ele>1128.8000488281</ele>
        <time>2022-03-19T10:48:39.000Z</time>
      </trkpt>
      <trkpt lat="43.98046" lon="7.07723">
        <ele>1129.4000244141</ele>
        <time>2022-03-19T10:48:47.000Z</time>
      </trkpt>
      <trkpt lat="43.98047" lon="7.07728">
        <ele>1129.4000244141</ele>
        <time>2022-03-19T10:48:49.000Z</time>
      </trkpt>
      <trkpt lat="43.98054" lon="7.07751">
        <ele>1130.4000244141</ele>
        <time>2022-03-19T10:48:58.000Z</time>
      </trkpt>
      <trkpt lat="43.98058" lon="7.07772">
        <ele>1131.5999755859</ele>
        <time>2022-03-19T10:49:06.000Z</time>
      </trkpt>
      <trkpt lat="43.98059" lon="7.07779">
        <ele>1131.8000488281</ele>
        <time>2022-03-19T10:49:09.000Z</time>
      </trkpt>
      <trkpt lat="43.98064" lon="7.07803">
        <ele>1132.5999755859</ele>
        <time>2022-03-19T10:49:18.000Z</time>
      </trkpt>
      <trkpt lat="43.98065" lon="7.07806">
        <ele>1132.5999755859</ele>
        <time>2022-03-19T10:49:19.000Z</time>
      </trkpt>
      <trkpt lat="43.98071" lon="7.07833">
        <ele>1133.8000488281</ele>
        <time>2022-03-19T10:49:29.000Z</time>
      </trkpt>
      <trkpt lat="43.98072" lon="7.07839">
        <ele>1134</ele>
        <time>2022-03-19T10:49:31.000Z</time>
      </trkpt>
      <trkpt lat="43.98074" lon="7.07859">
        <ele>1134.4000244141</ele>
        <time>2022-03-19T10:49:38.000Z</time>
      </trkpt>
      <trkpt lat="43.98079" lon="7.07887">
        <ele>1134.8000488281</ele>
        <time>2022-03-19T10:49:47.000Z</time>
      </trkpt>
      <trkpt lat="43.9808" lon="7.07891">
        <ele>1134.8000488281</ele>
        <time>2022-03-19T10:49:48.000Z</time>
      </trkpt>
      <trkpt lat="43.98081" lon="7.07918">
        <ele>1135.8000488281</ele>
        <time>2022-03-19T10:49:56.000Z</time>
      </trkpt>
      <trkpt lat="43.9808" lon="7.07921">
        <ele>1135.8000488281</ele>
        <time>2022-03-19T10:49:57.000Z</time>
      </trkpt>
      <trkpt lat="43.98077" lon="7.07955">
        <ele>1136.4000244141</ele>
        <time>2022-03-19T10:50:07.000Z</time>
      </trkpt>
      <trkpt lat="43.98077" lon="7.07989">
        <ele>1136.8000488281</ele>
        <time>2022-03-19T10:50:16.000Z</time>
      </trkpt>
      <trkpt lat="43.98074" lon="7.08015">
        <ele>1137.1999511719</ele>
        <time>2022-03-19T10:50:23.000Z</time>
      </trkpt>
      <trkpt lat="43.98068" lon="7.08047">
        <ele>1137.5999755859</ele>
        <time>2022-03-19T10:50:32.000Z</time>
      </trkpt>
      <trkpt lat="43.98066" lon="7.08054">
        <ele>1138</ele>
        <time>2022-03-19T10:50:34.000Z</time>
      </trkpt>
      <trkpt lat="43.98068" lon="7.0807">
        <ele>1138.4000244141</ele>
        <time>2022-03-19T10:50:39.000Z</time>
      </trkpt>
      <trkpt lat="43.98073" lon="7.08079">
        <ele>1139.1999511719</ele>
        <time>2022-03-19T10:50:43.000Z</time>
      </trkpt>
      <trkpt lat="43.98075" lon="7.08087">
        <ele>1139.8000488281</ele>
        <time>2022-03-19T10:50:47.000Z</time>
      </trkpt>
      <trkpt lat="43.98076" lon="7.08089">
        <ele>1140.1999511719</ele>
        <time>2022-03-19T10:50:48.000Z</time>
      </trkpt>
      <trkpt lat="43.98077" lon="7.08095">
        <ele>1141.1999511719</ele>
        <time>2022-03-19T10:50:51.000Z</time>
      </trkpt>
      <trkpt lat="43.98081" lon="7.08107">
        <ele>1141.5999755859</ele>
        <time>2022-03-19T10:50:57.000Z</time>
      </trkpt>
      <trkpt lat="43.98088" lon="7.08121">
        <ele>1142.1999511719</ele>
        <time>2022-03-19T10:51:03.000Z</time>
      </trkpt>
      <trkpt lat="43.98092" lon="7.08132">
        <ele>1143</ele>
        <time>2022-03-19T10:51:08.000Z</time>
      </trkpt>
      <trkpt lat="43.98094" lon="7.08139">
        <ele>1143.4000244141</ele>
        <time>2022-03-19T10:51:11.000Z</time>
      </trkpt>
      <trkpt lat="43.98099" lon="7.08153">
        <ele>1144.4000244141</ele>
        <time>2022-03-19T10:51:17.000Z</time>
      </trkpt>
      <trkpt lat="43.981" lon="7.08158">
        <ele>1144.8000488281</ele>
        <time>2022-03-19T10:51:19.000Z</time>
      </trkpt>
      <trkpt lat="43.98102" lon="7.08171">
        <ele>1145.4000244141</ele>
        <time>2022-03-19T10:51:23.000Z</time>
      </trkpt>
      <trkpt lat="43.98105" lon="7.08183">
        <ele>1145.5999755859</ele>
        <time>2022-03-19T10:51:27.000Z</time>
      </trkpt>
      <trkpt lat="43.98105" lon="7.08205">
        <ele>1146.4000244141</ele>
        <time>2022-03-19T10:51:34.000Z</time>
      </trkpt>
      <trkpt lat="43.98105" lon="7.08208">
        <ele>1146.5999755859</ele>
        <time>2022-03-19T10:51:35.000Z</time>
      </trkpt>
      <trkpt lat="43.98105" lon="7.08229">
        <ele>1147.5999755859</ele>
        <time>2022-03-19T10:51:42.000Z</time>
      </trkpt>
      <trkpt lat="43.98105" lon="7.08235">
        <ele>1148</ele>
        <time>2022-03-19T10:51:44.000Z</time>
      </trkpt>
      <trkpt lat="43.98104" lon="7.08246">
        <ele>1148.8000488281</ele>
        <time>2022-03-19T10:51:48.000Z</time>
      </trkpt>
      <trkpt lat="43.98103" lon="7.08255">
        <ele>1149.1999511719</ele>
        <time>2022-03-19T10:51:51.000Z</time>
      </trkpt>
      <trkpt lat="43.98101" lon="7.08267">
        <ele>1150</ele>
        <time>2022-03-19T10:51:56.000Z</time>
      </trkpt>
      <trkpt lat="43.98102" lon="7.08275">
        <ele>1150.4000244141</ele>
        <time>2022-03-19T10:51:59.000Z</time>
      </trkpt>
      <trkpt lat="43.98111" lon="7.08295">
        <ele>1151</ele>
        <time>2022-03-19T10:52:07.000Z</time>
      </trkpt>
      <trkpt lat="43.98112" lon="7.08297">
        <ele>1151.1999511719</ele>
        <time>2022-03-19T10:52:08.000Z</time>
      </trkpt>
      <trkpt lat="43.98127" lon="7.08313">
        <ele>1152</ele>
        <time>2022-03-19T10:52:17.000Z</time>
      </trkpt>
      <trkpt lat="43.98138" lon="7.08326">
        <ele>1153.1999511719</ele>
        <time>2022-03-19T10:52:24.000Z</time>
      </trkpt>
      <trkpt lat="43.98148" lon="7.08334">
        <ele>1154.4000244141</ele>
        <time>2022-03-19T10:52:30.000Z</time>
      </trkpt>
      <trkpt lat="43.9815" lon="7.08335">
        <ele>1154.5999755859</ele>
        <time>2022-03-19T10:52:31.000Z</time>
      </trkpt>
      <trkpt lat="43.98154" lon="7.08339">
        <ele>1155.5999755859</ele>
        <time>2022-03-19T10:52:35.000Z</time>
      </trkpt>
      <trkpt lat="43.98159" lon="7.08345">
        <ele>1156.8000488281</ele>
        <time>2022-03-19T10:52:40.000Z</time>
      </trkpt>
      <trkpt lat="43.9817" lon="7.08352">
        <ele>1157.8000488281</ele>
        <time>2022-03-19T10:52:47.000Z</time>
      </trkpt>
      <trkpt lat="43.98173" lon="7.08354">
        <ele>1158.1999511719</ele>
        <time>2022-03-19T10:52:49.000Z</time>
      </trkpt>
      <trkpt lat="43.98182" lon="7.08361">
        <ele>1159</ele>
        <time>2022-03-19T10:52:55.000Z</time>
      </trkpt>
      <trkpt lat="43.98186" lon="7.08365">
        <ele>1159.1999511719</ele>
        <time>2022-03-19T10:52:58.000Z</time>
      </trkpt>
      <trkpt lat="43.98189" lon="7.08367">
        <ele>1159.4000244141</ele>
        <time>2022-03-19T10:53:00.000Z</time>
      </trkpt>
      <trkpt lat="43.98192" lon="7.0837">
        <ele>1159.8000488281</ele>
        <time>2022-03-19T10:53:03.000Z</time>
      </trkpt>
      <trkpt lat="43.98198" lon="7.08375">
        <ele>1160</ele>
        <time>2022-03-19T10:53:06.000Z</time>
      </trkpt>
      <trkpt lat="43.98206" lon="7.0838">
        <ele>1160.1999511719</ele>
        <time>2022-03-19T10:53:10.000Z</time>
      </trkpt>
      <trkpt lat="43.98212" lon="7.08391">
        <ele>1160.4000244141</ele>
        <time>2022-03-19T10:53:15.000Z</time>
      </trkpt>
      <trkpt lat="43.98217" lon="7.08395">
        <ele>1161</ele>
        <time>2022-03-19T10:53:18.000Z</time>
      </trkpt>
      <trkpt lat="43.98218" lon="7.08397">
        <ele>1161.1999511719</ele>
        <time>2022-03-19T10:53:19.000Z</time>
      </trkpt>
      <trkpt lat="43.98218" lon="7.08402">
        <ele>1161.4000244141</ele>
        <time>2022-03-19T10:53:21.000Z</time>
      </trkpt>
      <trkpt lat="43.98216" lon="7.08407">
        <ele>1161.8000488281</ele>
        <time>2022-03-19T10:53:24.000Z</time>
      </trkpt>
      <trkpt lat="43.98214" lon="7.0841">
        <ele>1162</ele>
        <time>2022-03-19T10:53:26.000Z</time>
      </trkpt>
      <trkpt lat="43.98213" lon="7.08411">
        <ele>1162.1999511719</ele>
        <time>2022-03-19T10:53:27.000Z</time>
      </trkpt>
      <trkpt lat="43.98209" lon="7.08414">
        <ele>1163.1999511719</ele>
        <time>2022-03-19T10:53:31.000Z</time>
      </trkpt>
      <trkpt lat="43.98205" lon="7.08418">
        <ele>1163.5999755859</ele>
        <time>2022-03-19T10:53:34.000Z</time>
      </trkpt>
      <trkpt lat="43.98195" lon="7.08423">
        <ele>1164.1999511719</ele>
        <time>2022-03-19T10:53:41.000Z</time>
      </trkpt>
      <trkpt lat="43.98182" lon="7.0843">
        <ele>1163.8000488281</ele>
        <time>2022-03-19T10:53:48.000Z</time>
      </trkpt>
      <trkpt lat="43.98172" lon="7.08436">
        <ele>1164</ele>
        <time>2022-03-19T10:53:54.000Z</time>
      </trkpt>
      <trkpt lat="43.98163" lon="7.08441">
        <ele>1164.1999511719</ele>
        <time>2022-03-19T10:54:00.000Z</time>
      </trkpt>
      <trkpt lat="43.9816" lon="7.08445">
        <ele>1164.4000244141</ele>
        <time>2022-03-19T10:54:03.000Z</time>
      </trkpt>
      <trkpt lat="43.98159" lon="7.08451">
        <ele>1164.8000488281</ele>
        <time>2022-03-19T10:54:06.000Z</time>
      </trkpt>
      <trkpt lat="43.98162" lon="7.0847">
        <ele>1164.4000244141</ele>
        <time>2022-03-19T10:54:10.000Z</time>
      </trkpt>
      <trkpt lat="43.98169" lon="7.08485">
        <ele>1162.8000488281</ele>
        <time>2022-03-19T10:54:13.000Z</time>
      </trkpt>
      <trkpt lat="43.98173" lon="7.08493">
        <ele>1162</ele>
        <time>2022-03-19T10:54:15.000Z</time>
      </trkpt>
      <trkpt lat="43.98182" lon="7.08506">
        <ele>1162.4000244141</ele>
        <time>2022-03-19T10:54:21.000Z</time>
      </trkpt>
      <trkpt lat="43.98183" lon="7.08518">
        <ele>1163.4000244141</ele>
        <time>2022-03-19T10:54:26.000Z</time>
      </trkpt>
      <trkpt lat="43.98183" lon="7.08523">
        <ele>1164</ele>
        <time>2022-03-19T10:54:28.000Z</time>
      </trkpt>
      <trkpt lat="43.98181" lon="7.08529">
        <ele>1165</ele>
        <time>2022-03-19T10:54:32.000Z</time>
      </trkpt>
      <trkpt lat="43.98179" lon="7.08531">
        <ele>1165.4000244141</ele>
        <time>2022-03-19T10:54:33.000Z</time>
      </trkpt>
      <trkpt lat="43.98176" lon="7.08536">
        <ele>1166</ele>
        <time>2022-03-19T10:54:37.000Z</time>
      </trkpt>
      <trkpt lat="43.98173" lon="7.08538">
        <ele>1166</ele>
        <time>2022-03-19T10:54:39.000Z</time>
      </trkpt>
      <trkpt lat="43.9817" lon="7.0854">
        <ele>1166.8000488281</ele>
        <time>2022-03-19T10:54:42.000Z</time>
      </trkpt>
      <trkpt lat="43.98169" lon="7.08542">
        <ele>1167.1999511719</ele>
        <time>2022-03-19T10:54:43.000Z</time>
      </trkpt>
      <trkpt lat="43.98169" lon="7.08542">
        <ele>1167.8000488281</ele>
        <time>2022-03-19T10:54:46.000Z</time>
      </trkpt>
      <trkpt lat="43.98168" lon="7.08544">
        <ele>1168.1999511719</ele>
        <time>2022-03-19T10:54:53.000Z</time>
      </trkpt>
      <trkpt lat="43.98165" lon="7.0855">
        <ele>1169.4000244141</ele>
        <time>2022-03-19T10:55:00.000Z</time>
      </trkpt>
      <trkpt lat="43.98163" lon="7.08554">
        <ele>1170.5999755859</ele>
        <time>2022-03-19T10:55:06.000Z</time>
      </trkpt>
      <trkpt lat="43.98164" lon="7.08553">
        <ele>1170.8000488281</ele>
        <time>2022-03-19T10:55:07.000Z</time>
      </trkpt>
      <trkpt lat="43.98159" lon="7.08555">
        <ele>1171.8000488281</ele>
        <time>2022-03-19T10:55:12.000Z</time>
      </trkpt>
      <trkpt lat="43.98158" lon="7.08556">
        <ele>1172</ele>
        <time>2022-03-19T10:55:14.000Z</time>
      </trkpt>
      <trkpt lat="43.98156" lon="7.08561">
        <ele>1172.8000488281</ele>
        <time>2022-03-19T10:55:19.000Z</time>
      </trkpt>
      <trkpt lat="43.98157" lon="7.08562">
        <ele>1172.8000488281</ele>
        <time>2022-03-19T10:55:20.000Z</time>
      </trkpt>
      <trkpt lat="43.98156" lon="7.08562">
        <ele>1173</ele>
        <time>2022-03-19T10:55:21.000Z</time>
      </trkpt>
      <trkpt lat="43.98156" lon="7.08567">
        <ele>1174</ele>
        <time>2022-03-19T10:55:26.000Z</time>
      </trkpt>
      <trkpt lat="43.98156" lon="7.08569">
        <ele>1174.5999755859</ele>
        <time>2022-03-19T10:55:30.000Z</time>
      </trkpt>
      <trkpt lat="43.98156" lon="7.08569">
        <ele>1175.1999511719</ele>
        <time>2022-03-19T10:55:33.000Z</time>
      </trkpt>
      <trkpt lat="43.98156" lon="7.0857">
        <ele>1175.5999755859</ele>
        <time>2022-03-19T10:55:36.000Z</time>
      </trkpt>
      <trkpt lat="43.98158" lon="7.08575">
        <ele>1176</ele>
        <time>2022-03-19T10:55:42.000Z</time>
      </trkpt>
      <trkpt lat="43.98158" lon="7.08575">
        <ele>1176.4000244141</ele>
        <time>2022-03-19T10:55:44.000Z</time>
      </trkpt>
      <trkpt lat="43.98159" lon="7.08578">
        <ele>1177.1999511719</ele>
        <time>2022-03-19T10:55:49.000Z</time>
      </trkpt>
      <trkpt lat="43.98159" lon="7.08578">
        <ele>1177.4000244141</ele>
        <time>2022-03-19T10:55:50.000Z</time>
      </trkpt>
      <trkpt lat="43.9816" lon="7.08582">
        <ele>1177.8000488281</ele>
        <time>2022-03-19T10:55:54.000Z</time>
      </trkpt>
      <trkpt lat="43.9816" lon="7.08584">
        <ele>1178.5999755859</ele>
        <time>2022-03-19T10:55:58.000Z</time>
      </trkpt>
      <trkpt lat="43.9816" lon="7.08586">
        <ele>1179</ele>
        <time>2022-03-19T10:56:01.000Z</time>
      </trkpt>
      <trkpt lat="43.98162" lon="7.08589">
        <ele>1179.8000488281</ele>
        <time>2022-03-19T10:56:06.000Z</time>
      </trkpt>
      <trkpt lat="43.98162" lon="7.0859">
        <ele>1179.8000488281</ele>
        <time>2022-03-19T10:56:07.000Z</time>
      </trkpt>
      <trkpt lat="43.98163" lon="7.08594">
        <ele>1180.8000488281</ele>
        <time>2022-03-19T10:56:14.000Z</time>
      </trkpt>
      <trkpt lat="43.98164" lon="7.08596">
        <ele>1180.8000488281</ele>
        <time>2022-03-19T10:56:18.000Z</time>
      </trkpt>
      <trkpt lat="43.98165" lon="7.08598">
        <ele>1182</ele>
        <time>2022-03-19T10:56:22.000Z</time>
      </trkpt>
      <trkpt lat="43.98167" lon="7.08602">
        <ele>1183</ele>
        <time>2022-03-19T10:56:30.000Z</time>
      </trkpt>
      <trkpt lat="43.98169" lon="7.08607">
        <ele>1184</ele>
        <time>2022-03-19T10:56:37.000Z</time>
      </trkpt>
      <trkpt lat="43.98169" lon="7.0861">
        <ele>1185</ele>
        <time>2022-03-19T10:56:43.000Z</time>
      </trkpt>
      <trkpt lat="43.98169" lon="7.08611">
        <ele>1185.1999511719</ele>
        <time>2022-03-19T10:56:44.000Z</time>
      </trkpt>
      <trkpt lat="43.98169" lon="7.08614">
        <ele>1186.1999511719</ele>
        <time>2022-03-19T10:56:51.000Z</time>
      </trkpt>
      <trkpt lat="43.98168" lon="7.08616">
        <ele>1186.4000244141</ele>
        <time>2022-03-19T10:56:52.000Z</time>
      </trkpt>
      <trkpt lat="43.98169" lon="7.08618">
        <ele>1187.1999511719</ele>
        <time>2022-03-19T10:56:56.000Z</time>
      </trkpt>
      <trkpt lat="43.9817" lon="7.0862">
        <ele>1188</ele>
        <time>2022-03-19T10:56:59.000Z</time>
      </trkpt>
      <trkpt lat="43.9817" lon="7.0862">
        <ele>1188.1999511719</ele>
        <time>2022-03-19T10:57:02.000Z</time>
      </trkpt>
      <trkpt lat="43.98169" lon="7.08623">
        <ele>1189</ele>
        <time>2022-03-19T10:57:06.000Z</time>
      </trkpt>
      <trkpt lat="43.9817" lon="7.08625">
        <ele>1189.1999511719</ele>
        <time>2022-03-19T10:57:08.000Z</time>
      </trkpt>
      <trkpt lat="43.98169" lon="7.08628">
        <ele>1190.1999511719</ele>
        <time>2022-03-19T10:57:14.000Z</time>
      </trkpt>
      <trkpt lat="43.98169" lon="7.0863">
        <ele>1190.4000244141</ele>
        <time>2022-03-19T10:57:15.000Z</time>
      </trkpt>
      <trkpt lat="43.98168" lon="7.08635">
        <ele>1191.4000244141</ele>
        <time>2022-03-19T10:57:20.000Z</time>
      </trkpt>
      <trkpt lat="43.98168" lon="7.08635">
        <ele>1191.5999755859</ele>
        <time>2022-03-19T10:57:21.000Z</time>
      </trkpt>
      <trkpt lat="43.98168" lon="7.08639">
        <ele>1192.5999755859</ele>
        <time>2022-03-19T10:57:25.000Z</time>
      </trkpt>
      <trkpt lat="43.98167" lon="7.08642">
        <ele>1193</ele>
        <time>2022-03-19T10:57:28.000Z</time>
      </trkpt>
      <trkpt lat="43.98164" lon="7.08647">
        <ele>1193.5999755859</ele>
        <time>2022-03-19T10:57:33.000Z</time>
      </trkpt>
      <trkpt lat="43.98163" lon="7.08648">
        <ele>1193.8000488281</ele>
        <time>2022-03-19T10:57:34.000Z</time>
      </trkpt>
      <trkpt lat="43.98163" lon="7.08648">
        <ele>1193.8000488281</ele>
        <time>2022-03-19T10:57:35.000Z</time>
      </trkpt>
      <trkpt lat="43.9816" lon="7.08651">
        <ele>1193.8000488281</ele>
        <time>2022-03-19T10:57:42.000Z</time>
      </trkpt>
      <trkpt lat="43.98153" lon="7.0866">
        <ele>1194.1999511719</ele>
        <time>2022-03-19T10:57:49.000Z</time>
      </trkpt>
      <trkpt lat="43.98151" lon="7.08662">
        <ele>1194.5999755859</ele>
        <time>2022-03-19T10:57:51.000Z</time>
      </trkpt>
      <trkpt lat="43.98145" lon="7.08669">
        <ele>1195.1999511719</ele>
        <time>2022-03-19T10:57:55.000Z</time>
      </trkpt>
      <trkpt lat="43.98141" lon="7.08672">
        <ele>1195.8000488281</ele>
        <time>2022-03-19T10:57:58.000Z</time>
      </trkpt>
      <trkpt lat="43.98135" lon="7.08675">
        <ele>1196.8000488281</ele>
        <time>2022-03-19T10:58:02.000Z</time>
      </trkpt>
      <trkpt lat="43.98134" lon="7.08677">
        <ele>1197</ele>
        <time>2022-03-19T10:58:03.000Z</time>
      </trkpt>
      <trkpt lat="43.98129" lon="7.08685">
        <ele>1197.8000488281</ele>
        <time>2022-03-19T10:58:08.000Z</time>
      </trkpt>
      <trkpt lat="43.98127" lon="7.08688">
        <ele>1198.1999511719</ele>
        <time>2022-03-19T10:58:10.000Z</time>
      </trkpt>
      <trkpt lat="43.98119" lon="7.08693">
        <ele>1199</ele>
        <time>2022-03-19T10:58:15.000Z</time>
      </trkpt>
      <trkpt lat="43.98116" lon="7.08698">
        <ele>1199.5999755859</ele>
        <time>2022-03-19T10:58:18.000Z</time>
      </trkpt>
      <trkpt lat="43.98113" lon="7.087">
        <ele>1200</ele>
        <time>2022-03-19T10:58:20.000Z</time>
      </trkpt>
      <trkpt lat="43.98107" lon="7.08705">
        <ele>1200.5999755859</ele>
        <time>2022-03-19T10:58:24.000Z</time>
      </trkpt>
      <trkpt lat="43.98097" lon="7.08724">
        <ele>1200.8000488281</ele>
        <time>2022-03-19T10:58:31.000Z</time>
      </trkpt>
      <trkpt lat="43.98084" lon="7.08747">
        <ele>1200.4000244141</ele>
        <time>2022-03-19T10:58:38.000Z</time>
      </trkpt>
      <trkpt lat="43.98072" lon="7.08768">
        <ele>1200.1999511719</ele>
        <time>2022-03-19T10:58:44.000Z</time>
      </trkpt>
      <trkpt lat="43.98067" lon="7.08776">
        <ele>1200.8000488281</ele>
        <time>2022-03-19T10:58:48.000Z</time>
      </trkpt>
      <trkpt lat="43.98065" lon="7.08777">
        <ele>1201.1999511719</ele>
        <time>2022-03-19T10:58:49.000Z</time>
      </trkpt>
      <trkpt lat="43.98061" lon="7.08788">
        <ele>1201.8000488281</ele>
        <time>2022-03-19T10:58:53.000Z</time>
      </trkpt>
      <trkpt lat="43.9806" lon="7.08792">
        <ele>1201.8000488281</ele>
        <time>2022-03-19T10:58:54.000Z</time>
      </trkpt>
      <trkpt lat="43.98061" lon="7.08801">
        <ele>1201.4000244141</ele>
        <time>2022-03-19T10:58:56.000Z</time>
      </trkpt>
      <trkpt lat="43.98062" lon="7.08808">
        <ele>1201</ele>
        <time>2022-03-19T10:58:58.000Z</time>
      </trkpt>
      <trkpt lat="43.98064" lon="7.08821">
        <ele>1200.4000244141</ele>
        <time>2022-03-19T10:59:00.000Z</time>
      </trkpt>
      <trkpt lat="43.98067" lon="7.08832">
        <ele>1200</ele>
        <time>2022-03-19T10:59:02.000Z</time>
      </trkpt>
      <trkpt lat="43.98068" lon="7.08844">
        <ele>1199.1999511719</ele>
        <time>2022-03-19T10:59:06.000Z</time>
      </trkpt>
      <trkpt lat="43.98068" lon="7.08848">
        <ele>1200.5999755859</ele>
        <time>2022-03-19T10:59:11.000Z</time>
      </trkpt>
      <trkpt lat="43.98068" lon="7.08848">
        <ele>1201</ele>
        <time>2022-03-19T10:59:12.000Z</time>
      </trkpt>
      <trkpt lat="43.98068" lon="7.08853">
        <ele>1201.4000244141</ele>
        <time>2022-03-19T10:59:17.000Z</time>
      </trkpt>
      <trkpt lat="43.98068" lon="7.08857">
        <ele>1202</ele>
        <time>2022-03-19T10:59:21.000Z</time>
      </trkpt>
      <trkpt lat="43.98068" lon="7.08862">
        <ele>1202.8000488281</ele>
        <time>2022-03-19T10:59:25.000Z</time>
      </trkpt>
      <trkpt lat="43.98068" lon="7.08864">
        <ele>1203.1999511719</ele>
        <time>2022-03-19T10:59:27.000Z</time>
      </trkpt>
      <trkpt lat="43.98069" lon="7.08868">
        <ele>1204.1999511719</ele>
        <time>2022-03-19T10:59:32.000Z</time>
      </trkpt>
      <trkpt lat="43.98069" lon="7.08869">
        <ele>1204.4000244141</ele>
        <time>2022-03-19T10:59:33.000Z</time>
      </trkpt>
      <trkpt lat="43.9807" lon="7.08872">
        <ele>1205.1999511719</ele>
        <time>2022-03-19T10:59:37.000Z</time>
      </trkpt>
      <trkpt lat="43.98071" lon="7.08875">
        <ele>1206</ele>
        <time>2022-03-19T10:59:41.000Z</time>
      </trkpt>
      <trkpt lat="43.98071" lon="7.08876">
        <ele>1206.1999511719</ele>
        <time>2022-03-19T10:59:43.000Z</time>
      </trkpt>
      <trkpt lat="43.98072" lon="7.08878">
        <ele>1207</ele>
        <time>2022-03-19T10:59:47.000Z</time>
      </trkpt>
      <trkpt lat="43.98073" lon="7.08879">
        <ele>1207.4000244141</ele>
        <time>2022-03-19T10:59:48.000Z</time>
      </trkpt>
      <trkpt lat="43.98075" lon="7.08885">
        <ele>1208.1999511719</ele>
        <time>2022-03-19T10:59:55.000Z</time>
      </trkpt>
      <trkpt lat="43.98075" lon="7.08886">
        <ele>1208.5999755859</ele>
        <time>2022-03-19T10:59:56.000Z</time>
      </trkpt>
      <trkpt lat="43.98076" lon="7.08892">
        <ele>1209.5999755859</ele>
        <time>2022-03-19T11:00:02.000Z</time>
      </trkpt>
      <trkpt lat="43.98077" lon="7.08893">
        <ele>1210</ele>
        <time>2022-03-19T11:00:04.000Z</time>
      </trkpt>
      <trkpt lat="43.98078" lon="7.08898">
        <ele>1210.8000488281</ele>
        <time>2022-03-19T11:00:09.000Z</time>
      </trkpt>
      <trkpt lat="43.98079" lon="7.089">
        <ele>1211.1999511719</ele>
        <time>2022-03-19T11:00:13.000Z</time>
      </trkpt>
      <trkpt lat="43.9808" lon="7.08905">
        <ele>1211.8000488281</ele>
        <time>2022-03-19T11:00:17.000Z</time>
      </trkpt>
      <trkpt lat="43.9808" lon="7.08907">
        <ele>1212.1999511719</ele>
        <time>2022-03-19T11:00:19.000Z</time>
      </trkpt>
      <trkpt lat="43.98081" lon="7.08913">
        <ele>1212.8000488281</ele>
        <time>2022-03-19T11:00:24.000Z</time>
      </trkpt>
      <trkpt lat="43.98081" lon="7.08919">
        <ele>1213.1999511719</ele>
        <time>2022-03-19T11:00:28.000Z</time>
      </trkpt>
      <trkpt lat="43.9808" lon="7.08925">
        <ele>1214</ele>
        <time>2022-03-19T11:00:33.000Z</time>
      </trkpt>
      <trkpt lat="43.98081" lon="7.08929">
        <ele>1214.4000244141</ele>
        <time>2022-03-19T11:00:37.000Z</time>
      </trkpt>
      <trkpt lat="43.9808" lon="7.08929">
        <ele>1214.5999755859</ele>
        <time>2022-03-19T11:00:42.000Z</time>
      </trkpt>
      <trkpt lat="43.98081" lon="7.08938">
        <ele>1214.8000488281</ele>
        <time>2022-03-19T11:00:47.000Z</time>
      </trkpt>
      <trkpt lat="43.98081" lon="7.08941">
        <ele>1215</ele>
        <time>2022-03-19T11:00:49.000Z</time>
      </trkpt>
      <trkpt lat="43.98079" lon="7.08952">
        <ele>1215.8000488281</ele>
        <time>2022-03-19T11:00:55.000Z</time>
      </trkpt>
      <trkpt lat="43.98078" lon="7.08957">
        <ele>1216</ele>
        <time>2022-03-19T11:00:57.000Z</time>
      </trkpt>
      <trkpt lat="43.98075" lon="7.08968">
        <ele>1215.8000488281</ele>
        <time>2022-03-19T11:01:01.000Z</time>
      </trkpt>
      <trkpt lat="43.98072" lon="7.08978">
        <ele>1215</ele>
        <time>2022-03-19T11:01:04.000Z</time>
      </trkpt>
      <trkpt lat="43.98071" lon="7.08981">
        <ele>1214.5999755859</ele>
        <time>2022-03-19T11:01:05.000Z</time>
      </trkpt>
      <trkpt lat="43.98069" lon="7.08986">
        <ele>1213.8000488281</ele>
        <time>2022-03-19T11:01:08.000Z</time>
      </trkpt>
      <trkpt lat="43.98067" lon="7.08988">
        <ele>1214</ele>
        <time>2022-03-19T11:01:10.000Z</time>
      </trkpt>
      <trkpt lat="43.98065" lon="7.08993">
        <ele>1214.8000488281</ele>
        <time>2022-03-19T11:01:13.000Z</time>
      </trkpt>
      <trkpt lat="43.98063" lon="7.08996">
        <ele>1215.4000244141</ele>
        <time>2022-03-19T11:01:16.000Z</time>
      </trkpt>
      <trkpt lat="43.98063" lon="7.08996">
        <ele>1215.8000488281</ele>
        <time>2022-03-19T11:01:18.000Z</time>
      </trkpt>
      <trkpt lat="43.98062" lon="7.08998">
        <ele>1216.1999511719</ele>
        <time>2022-03-19T11:01:20.000Z</time>
      </trkpt>
      <trkpt lat="43.98061" lon="7.08999">
        <ele>1216.1999511719</ele>
        <time>2022-03-19T11:01:21.000Z</time>
      </trkpt>
      <trkpt lat="43.98062" lon="7.09">
        <ele>1216.1999511719</ele>
        <time>2022-03-19T11:01:22.000Z</time>
      </trkpt>
      <trkpt lat="43.9806" lon="7.09003">
        <ele>1216.8000488281</ele>
        <time>2022-03-19T11:01:26.000Z</time>
      </trkpt>
      <trkpt lat="43.98059" lon="7.09004">
        <ele>1216.8000488281</ele>
        <time>2022-03-19T11:01:27.000Z</time>
      </trkpt>
      <trkpt lat="43.98055" lon="7.09011">
        <ele>1218</ele>
        <time>2022-03-19T11:01:34.000Z</time>
      </trkpt>
      <trkpt lat="43.98051" lon="7.09013">
        <ele>1218.5999755859</ele>
        <time>2022-03-19T11:01:40.000Z</time>
      </trkpt>
      <trkpt lat="43.98049" lon="7.09015">
        <ele>1219</ele>
        <time>2022-03-19T11:01:44.000Z</time>
      </trkpt>
      <trkpt lat="43.98048" lon="7.09018">
        <ele>1219.5999755859</ele>
        <time>2022-03-19T11:01:47.000Z</time>
      </trkpt>
      <trkpt lat="43.98046" lon="7.09019">
        <ele>1220</ele>
        <time>2022-03-19T11:01:49.000Z</time>
      </trkpt>
      <trkpt lat="43.98044" lon="7.09023">
        <ele>1221.1999511719</ele>
        <time>2022-03-19T11:01:54.000Z</time>
      </trkpt>
      <trkpt lat="43.98041" lon="7.09027">
        <ele>1222.1999511719</ele>
        <time>2022-03-19T11:01:59.000Z</time>
      </trkpt>
      <trkpt lat="43.98039" lon="7.09029">
        <ele>1222.5999755859</ele>
        <time>2022-03-19T11:02:02.000Z</time>
      </trkpt>
      <trkpt lat="43.98037" lon="7.09033">
        <ele>1223.1999511719</ele>
        <time>2022-03-19T11:02:06.000Z</time>
      </trkpt>
      <trkpt lat="43.98036" lon="7.09034">
        <ele>1223.5999755859</ele>
        <time>2022-03-19T11:02:08.000Z</time>
      </trkpt>
      <trkpt lat="43.98035" lon="7.09038">
        <ele>1224.4000244141</ele>
        <time>2022-03-19T11:02:13.000Z</time>
      </trkpt>
      <trkpt lat="43.98033" lon="7.0904">
        <ele>1225.1999511719</ele>
        <time>2022-03-19T11:02:17.000Z</time>
      </trkpt>
      <trkpt lat="43.98033" lon="7.09041">
        <ele>1225.4000244141</ele>
        <time>2022-03-19T11:02:18.000Z</time>
      </trkpt>
      <trkpt lat="43.9803" lon="7.09044">
        <ele>1226.5999755859</ele>
        <time>2022-03-19T11:02:24.000Z</time>
      </trkpt>
      <trkpt lat="43.98028" lon="7.09046">
        <ele>1227</ele>
        <time>2022-03-19T11:02:27.000Z</time>
      </trkpt>
      <trkpt lat="43.98026" lon="7.0905">
        <ele>1227.4000244141</ele>
        <time>2022-03-19T11:02:33.000Z</time>
      </trkpt>
      <trkpt lat="43.98025" lon="7.09056">
        <ele>1227.5999755859</ele>
        <time>2022-03-19T11:02:36.000Z</time>
      </trkpt>
      <trkpt lat="43.98023" lon="7.0906">
        <ele>1228</ele>
        <time>2022-03-19T11:02:39.000Z</time>
      </trkpt>
      <trkpt lat="43.98022" lon="7.0906">
        <ele>1228.5999755859</ele>
        <time>2022-03-19T11:02:42.000Z</time>
      </trkpt>
      <trkpt lat="43.98021" lon="7.09061">
        <ele>1228.8000488281</ele>
        <time>2022-03-19T11:02:44.000Z</time>
      </trkpt>
      <trkpt lat="43.98016" lon="7.09064">
        <ele>1229</ele>
        <time>2022-03-19T11:02:51.000Z</time>
      </trkpt>
      <trkpt lat="43.98015" lon="7.09066">
        <ele>1229</ele>
        <time>2022-03-19T11:02:52.000Z</time>
      </trkpt>
      <trkpt lat="43.98011" lon="7.09072">
        <ele>1229.8000488281</ele>
        <time>2022-03-19T11:03:00.000Z</time>
      </trkpt>
      <trkpt lat="43.98005" lon="7.09076">
        <ele>1231</ele>
        <time>2022-03-19T11:03:07.000Z</time>
      </trkpt>
      <trkpt lat="43.98003" lon="7.09081">
        <ele>1231.8000488281</ele>
        <time>2022-03-19T11:03:15.000Z</time>
      </trkpt>
      <trkpt lat="43.98002" lon="7.09083">
        <ele>1232</ele>
        <time>2022-03-19T11:03:17.000Z</time>
      </trkpt>
      <trkpt lat="43.98" lon="7.09087">
        <ele>1233.1999511719</ele>
        <time>2022-03-19T11:03:23.000Z</time>
      </trkpt>
      <trkpt lat="43.98" lon="7.09091">
        <ele>1234.1999511719</ele>
        <time>2022-03-19T11:03:29.000Z</time>
      </trkpt>
      <trkpt lat="43.98001" lon="7.09091">
        <ele>1235.1999511719</ele>
        <time>2022-03-19T11:03:34.000Z</time>
      </trkpt>
      <trkpt lat="43.98002" lon="7.09092">
        <ele>1235.1999511719</ele>
        <time>2022-03-19T11:03:35.000Z</time>
      </trkpt>
      <trkpt lat="43.98006" lon="7.09093">
        <ele>1236.1999511719</ele>
        <time>2022-03-19T11:03:42.000Z</time>
      </trkpt>
      <trkpt lat="43.98006" lon="7.09094">
        <ele>1236.4000244141</ele>
        <time>2022-03-19T11:03:43.000Z</time>
      </trkpt>
      <trkpt lat="43.98009" lon="7.09094">
        <ele>1237.4000244141</ele>
        <time>2022-03-19T11:03:48.000Z</time>
      </trkpt>
      <trkpt lat="43.9801" lon="7.09094">
        <ele>1237.5999755859</ele>
        <time>2022-03-19T11:03:49.000Z</time>
      </trkpt>
      <trkpt lat="43.98013" lon="7.09094">
        <ele>1238.4000244141</ele>
        <time>2022-03-19T11:03:54.000Z</time>
      </trkpt>
      <trkpt lat="43.98014" lon="7.09094">
        <ele>1238.8000488281</ele>
        <time>2022-03-19T11:03:56.000Z</time>
      </trkpt>
      <trkpt lat="43.98016" lon="7.09094">
        <ele>1239.5999755859</ele>
        <time>2022-03-19T11:04:00.000Z</time>
      </trkpt>
      <trkpt lat="43.98018" lon="7.09094">
        <ele>1240</ele>
        <time>2022-03-19T11:04:03.000Z</time>
      </trkpt>
      <trkpt lat="43.98019" lon="7.09094">
        <ele>1240.5999755859</ele>
        <time>2022-03-19T11:04:06.000Z</time>
      </trkpt>
      <trkpt lat="43.98021" lon="7.09094">
        <ele>1241.5999755859</ele>
        <time>2022-03-19T11:04:12.000Z</time>
      </trkpt>
      <trkpt lat="43.98024" lon="7.09095">
        <ele>1242.8000488281</ele>
        <time>2022-03-19T11:04:18.000Z</time>
      </trkpt>
      <trkpt lat="43.98023" lon="7.09097">
        <ele>1243.1999511719</ele>
        <time>2022-03-19T11:04:20.000Z</time>
      </trkpt>
      <trkpt lat="43.98022" lon="7.09098">
        <ele>1244</ele>
        <time>2022-03-19T11:04:24.000Z</time>
      </trkpt>
      <trkpt lat="43.98021" lon="7.09098">
        <ele>1244.8000488281</ele>
        <time>2022-03-19T11:04:28.000Z</time>
      </trkpt>
      <trkpt lat="43.98021" lon="7.091">
        <ele>1244.8000488281</ele>
        <time>2022-03-19T11:04:38.000Z</time>
      </trkpt>
      <trkpt lat="43.9802" lon="7.09102">
        <ele>1244.5999755859</ele>
        <time>2022-03-19T11:04:43.000Z</time>
      </trkpt>
      <trkpt lat="43.9802" lon="7.09105">
        <ele>1245</ele>
        <time>2022-03-19T11:04:45.000Z</time>
      </trkpt>
      <trkpt lat="43.9802" lon="7.09106">
        <ele>1245.5999755859</ele>
        <time>2022-03-19T11:04:47.000Z</time>
      </trkpt>
      <trkpt lat="43.9802" lon="7.09105">
        <ele>1245.5999755859</ele>
        <time>2022-03-19T11:04:48.000Z</time>
      </trkpt>
      <trkpt lat="43.98019" lon="7.09109">
        <ele>1246.1999511719</ele>
        <time>2022-03-19T11:04:51.000Z</time>
      </trkpt>
      <trkpt lat="43.98018" lon="7.0911">
        <ele>1246.5999755859</ele>
        <time>2022-03-19T11:04:55.000Z</time>
      </trkpt>
      <trkpt lat="43.98017" lon="7.09113">
        <ele>1247.1999511719</ele>
        <time>2022-03-19T11:04:59.000Z</time>
      </trkpt>
      <trkpt lat="43.98017" lon="7.09114">
        <ele>1247.8000488281</ele>
        <time>2022-03-19T11:05:02.000Z</time>
      </trkpt>
      <trkpt lat="43.98016" lon="7.09116">
        <ele>1248.1999511719</ele>
        <time>2022-03-19T11:05:05.000Z</time>
      </trkpt>
      <trkpt lat="43.98016" lon="7.09116">
        <ele>1248.8000488281</ele>
        <time>2022-03-19T11:05:08.000Z</time>
      </trkpt>
      <trkpt lat="43.98015" lon="7.09117">
        <ele>1249.4000244141</ele>
        <time>2022-03-19T11:05:11.000Z</time>
      </trkpt>
      <trkpt lat="43.98014" lon="7.09119">
        <ele>1249.8000488281</ele>
        <time>2022-03-19T11:05:14.000Z</time>
      </trkpt>
      <trkpt lat="43.98013" lon="7.09121">
        <ele>1250.4000244141</ele>
        <time>2022-03-19T11:05:18.000Z</time>
      </trkpt>
      <trkpt lat="43.98013" lon="7.09122">
        <ele>1251</ele>
        <time>2022-03-19T11:05:21.000Z</time>
      </trkpt>
      <trkpt lat="43.98013" lon="7.09125">
        <ele>1251.4000244141</ele>
        <time>2022-03-19T11:05:24.000Z</time>
      </trkpt>
      <trkpt lat="43.98012" lon="7.09125">
        <ele>1251.8000488281</ele>
        <time>2022-03-19T11:05:26.000Z</time>
      </trkpt>
      <trkpt lat="43.98011" lon="7.09127">
        <ele>1252.5999755859</ele>
        <time>2022-03-19T11:05:30.000Z</time>
      </trkpt>
      <trkpt lat="43.98009" lon="7.0913">
        <ele>1253</ele>
        <time>2022-03-19T11:05:33.000Z</time>
      </trkpt>
      <trkpt lat="43.98007" lon="7.09134">
        <ele>1253.5999755859</ele>
        <time>2022-03-19T11:05:38.000Z</time>
      </trkpt>
      <trkpt lat="43.98007" lon="7.09135">
        <ele>1253.8000488281</ele>
        <time>2022-03-19T11:05:39.000Z</time>
      </trkpt>
      <trkpt lat="43.98007" lon="7.09135">
        <ele>1254</ele>
        <time>2022-03-19T11:05:40.000Z</time>
      </trkpt>
      <trkpt lat="43.98005" lon="7.09139">
        <ele>1254.5999755859</ele>
        <time>2022-03-19T11:05:45.000Z</time>
      </trkpt>
      <trkpt lat="43.98004" lon="7.09142">
        <ele>1255.5999755859</ele>
        <time>2022-03-19T11:05:52.000Z</time>
      </trkpt>
      <trkpt lat="43.98003" lon="7.09146">
        <ele>1256.5999755859</ele>
        <time>2022-03-19T11:05:58.000Z</time>
      </trkpt>
      <trkpt lat="43.98003" lon="7.09145">
        <ele>1256.8000488281</ele>
        <time>2022-03-19T11:05:59.000Z</time>
      </trkpt>
      <trkpt lat="43.98003" lon="7.09149">
        <ele>1257.8000488281</ele>
        <time>2022-03-19T11:06:04.000Z</time>
      </trkpt>
      <trkpt lat="43.98003" lon="7.09151">
        <ele>1258.1999511719</ele>
        <time>2022-03-19T11:06:06.000Z</time>
      </trkpt>
      <trkpt lat="43.98002" lon="7.09154">
        <ele>1259</ele>
        <time>2022-03-19T11:06:10.000Z</time>
      </trkpt>
      <trkpt lat="43.98003" lon="7.09154">
        <ele>1259.1999511719</ele>
        <time>2022-03-19T11:06:12.000Z</time>
      </trkpt>
      <trkpt lat="43.98003" lon="7.09158">
        <ele>1260</ele>
        <time>2022-03-19T11:06:17.000Z</time>
      </trkpt>
      <trkpt lat="43.98003" lon="7.0916">
        <ele>1260.4000244141</ele>
        <time>2022-03-19T11:06:18.000Z</time>
      </trkpt>
      <trkpt lat="43.98003" lon="7.09163">
        <ele>1260.5999755859</ele>
        <time>2022-03-19T11:06:20.000Z</time>
      </trkpt>
      <trkpt lat="43.98003" lon="7.09165">
        <ele>1261.1999511719</ele>
        <time>2022-03-19T11:06:23.000Z</time>
      </trkpt>
      <trkpt lat="43.98003" lon="7.09166">
        <ele>1261.4000244141</ele>
        <time>2022-03-19T11:06:24.000Z</time>
      </trkpt>
      <trkpt lat="43.98001" lon="7.09172">
        <ele>1262.1999511719</ele>
        <time>2022-03-19T11:06:30.000Z</time>
      </trkpt>
      <trkpt lat="43.98001" lon="7.09173">
        <ele>1262.4000244141</ele>
        <time>2022-03-19T11:06:31.000Z</time>
      </trkpt>
      <trkpt lat="43.98001" lon="7.09175">
        <ele>1262.5999755859</ele>
        <time>2022-03-19T11:06:33.000Z</time>
      </trkpt>
      <trkpt lat="43.98" lon="7.09176">
        <ele>1263</ele>
        <time>2022-03-19T11:06:36.000Z</time>
      </trkpt>
      <trkpt lat="43.98" lon="7.09177">
        <ele>1263.4000244141</ele>
        <time>2022-03-19T11:06:38.000Z</time>
      </trkpt>
      <trkpt lat="43.97999" lon="7.09181">
        <ele>1263.8000488281</ele>
        <time>2022-03-19T11:06:42.000Z</time>
      </trkpt>
      <trkpt lat="43.98" lon="7.09183">
        <ele>1264.4000244141</ele>
        <time>2022-03-19T11:06:46.000Z</time>
      </trkpt>
      <trkpt lat="43.98" lon="7.09184">
        <ele>1264.5999755859</ele>
        <time>2022-03-19T11:06:47.000Z</time>
      </trkpt>
      <trkpt lat="43.98001" lon="7.09189">
        <ele>1265.5999755859</ele>
        <time>2022-03-19T11:06:52.000Z</time>
      </trkpt>
      <trkpt lat="43.98001" lon="7.09188">
        <ele>1265.8000488281</ele>
        <time>2022-03-19T11:06:53.000Z</time>
      </trkpt>
      <trkpt lat="43.98002" lon="7.09192">
        <ele>1266.5999755859</ele>
        <time>2022-03-19T11:06:58.000Z</time>
      </trkpt>
      <trkpt lat="43.98003" lon="7.09193">
        <ele>1266.8000488281</ele>
        <time>2022-03-19T11:06:59.000Z</time>
      </trkpt>
      <trkpt lat="43.98002" lon="7.09197">
        <ele>1267.5999755859</ele>
        <time>2022-03-19T11:07:03.000Z</time>
      </trkpt>
      <trkpt lat="43.98002" lon="7.09197">
        <ele>1267.8000488281</ele>
        <time>2022-03-19T11:07:05.000Z</time>
      </trkpt>
      <trkpt lat="43.98001" lon="7.09204">
        <ele>1268.8000488281</ele>
        <time>2022-03-19T11:07:12.000Z</time>
      </trkpt>
      <trkpt lat="43.98002" lon="7.09209">
        <ele>1269.5999755859</ele>
        <time>2022-03-19T11:07:18.000Z</time>
      </trkpt>
      <trkpt lat="43.98001" lon="7.0921">
        <ele>1269.8000488281</ele>
        <time>2022-03-19T11:07:19.000Z</time>
      </trkpt>
      <trkpt lat="43.98001" lon="7.09213">
        <ele>1270.8000488281</ele>
        <time>2022-03-19T11:07:24.000Z</time>
      </trkpt>
      <trkpt lat="43.98001" lon="7.09214">
        <ele>1271</ele>
        <time>2022-03-19T11:07:25.000Z</time>
      </trkpt>
      <trkpt lat="43.98002" lon="7.09215">
        <ele>1271</ele>
        <time>2022-03-19T11:07:26.000Z</time>
      </trkpt>
      <trkpt lat="43.98002" lon="7.09217">
        <ele>1271.4000244141</ele>
        <time>2022-03-19T11:07:28.000Z</time>
      </trkpt>
      <trkpt lat="43.98002" lon="7.09218">
        <ele>1271.5999755859</ele>
        <time>2022-03-19T11:07:29.000Z</time>
      </trkpt>
      <trkpt lat="43.98002" lon="7.09219">
        <ele>1272</ele>
        <time>2022-03-19T11:07:31.000Z</time>
      </trkpt>
      <trkpt lat="43.98003" lon="7.09223">
        <ele>1272.8000488281</ele>
        <time>2022-03-19T11:07:35.000Z</time>
      </trkpt>
      <trkpt lat="43.98003" lon="7.09224">
        <ele>1273</ele>
        <time>2022-03-19T11:07:37.000Z</time>
      </trkpt>
      <trkpt lat="43.98004" lon="7.09228">
        <ele>1273.8000488281</ele>
        <time>2022-03-19T11:07:41.000Z</time>
      </trkpt>
      <trkpt lat="43.98004" lon="7.09229">
        <ele>1274.1999511719</ele>
        <time>2022-03-19T11:07:44.000Z</time>
      </trkpt>
      <trkpt lat="43.98004" lon="7.09232">
        <ele>1274.8000488281</ele>
        <time>2022-03-19T11:07:48.000Z</time>
      </trkpt>
      <trkpt lat="43.98003" lon="7.09232">
        <ele>1275.4000244141</ele>
        <time>2022-03-19T11:07:51.000Z</time>
      </trkpt>
      <trkpt lat="43.98003" lon="7.09235">
        <ele>1275.8000488281</ele>
        <time>2022-03-19T11:07:54.000Z</time>
      </trkpt>
      <trkpt lat="43.98003" lon="7.09238">
        <ele>1276.4000244141</ele>
        <time>2022-03-19T11:07:59.000Z</time>
      </trkpt>
      <trkpt lat="43.98004" lon="7.09239">
        <ele>1276.8000488281</ele>
        <time>2022-03-19T11:08:01.000Z</time>
      </trkpt>
      <trkpt lat="43.98003" lon="7.09242">
        <ele>1277.4000244141</ele>
        <time>2022-03-19T11:08:06.000Z</time>
      </trkpt>
      <trkpt lat="43.98003" lon="7.09245">
        <ele>1277.8000488281</ele>
        <time>2022-03-19T11:08:09.000Z</time>
      </trkpt>
      <trkpt lat="43.98002" lon="7.09247">
        <ele>1278.1999511719</ele>
        <time>2022-03-19T11:08:12.000Z</time>
      </trkpt>
      <trkpt lat="43.98002" lon="7.09247">
        <ele>1278.5999755859</ele>
        <time>2022-03-19T11:08:14.000Z</time>
      </trkpt>
      <trkpt lat="43.98002" lon="7.09251">
        <ele>1279.1999511719</ele>
        <time>2022-03-19T11:08:18.000Z</time>
      </trkpt>
      <trkpt lat="43.98003" lon="7.09254">
        <ele>1279.5999755859</ele>
        <time>2022-03-19T11:08:21.000Z</time>
      </trkpt>
      <trkpt lat="43.98003" lon="7.09257">
        <ele>1280.1999511719</ele>
        <time>2022-03-19T11:08:24.000Z</time>
      </trkpt>
      <trkpt lat="43.98003" lon="7.09262">
        <ele>1280.8000488281</ele>
        <time>2022-03-19T11:08:28.000Z</time>
      </trkpt>
      <trkpt lat="43.98004" lon="7.09266">
        <ele>1281.4000244141</ele>
        <time>2022-03-19T11:08:31.000Z</time>
      </trkpt>
      <trkpt lat="43.98006" lon="7.09269">
        <ele>1281.8000488281</ele>
        <time>2022-03-19T11:08:34.000Z</time>
      </trkpt>
      <trkpt lat="43.98006" lon="7.09271">
        <ele>1282.4000244141</ele>
        <time>2022-03-19T11:08:36.000Z</time>
      </trkpt>
      <trkpt lat="43.98007" lon="7.09283">
        <ele>1282.4000244141</ele>
        <time>2022-03-19T11:08:42.000Z</time>
      </trkpt>
      <trkpt lat="43.98009" lon="7.0929">
        <ele>1283</ele>
        <time>2022-03-19T11:08:48.000Z</time>
      </trkpt>
      <trkpt lat="43.98009" lon="7.09291">
        <ele>1283.1999511719</ele>
        <time>2022-03-19T11:08:49.000Z</time>
      </trkpt>
      <trkpt lat="43.98008" lon="7.09299">
        <ele>1284.1999511719</ele>
        <time>2022-03-19T11:08:55.000Z</time>
      </trkpt>
      <trkpt lat="43.98008" lon="7.093">
        <ele>1284.4000244141</ele>
        <time>2022-03-19T11:08:56.000Z</time>
      </trkpt>
      <trkpt lat="43.98008" lon="7.09302">
        <ele>1284.5999755859</ele>
        <time>2022-03-19T11:08:58.000Z</time>
      </trkpt>
      <trkpt lat="43.98007" lon="7.09308">
        <ele>1284.8000488281</ele>
        <time>2022-03-19T11:09:02.000Z</time>
      </trkpt>
      <trkpt lat="43.98007" lon="7.09309">
        <ele>1284.8000488281</ele>
        <time>2022-03-19T11:09:03.000Z</time>
      </trkpt>
      <trkpt lat="43.98006" lon="7.09313">
        <ele>1285.1999511719</ele>
        <time>2022-03-19T11:09:09.000Z</time>
      </trkpt>
      <trkpt lat="43.98006" lon="7.09313">
        <ele>1285.1999511719</ele>
        <time>2022-03-19T11:09:10.000Z</time>
      </trkpt>
      <trkpt lat="43.98007" lon="7.09318">
        <ele>1286.4000244141</ele>
        <time>2022-03-19T11:09:17.000Z</time>
      </trkpt>
      <trkpt lat="43.98006" lon="7.09321">
        <ele>1286.8000488281</ele>
        <time>2022-03-19T11:09:19.000Z</time>
      </trkpt>
      <trkpt lat="43.98004" lon="7.09323">
        <ele>1287.4000244141</ele>
        <time>2022-03-19T11:09:23.000Z</time>
      </trkpt>
      <trkpt lat="43.98003" lon="7.09325">
        <ele>1288</ele>
        <time>2022-03-19T11:09:27.000Z</time>
      </trkpt>
      <trkpt lat="43.98002" lon="7.09326">
        <ele>1288.5999755859</ele>
        <time>2022-03-19T11:09:31.000Z</time>
      </trkpt>
      <trkpt lat="43.97998" lon="7.09328">
        <ele>1289.8000488281</ele>
        <time>2022-03-19T11:09:36.000Z</time>
      </trkpt>
      <trkpt lat="43.97995" lon="7.09329">
        <ele>1290.8000488281</ele>
        <time>2022-03-19T11:09:42.000Z</time>
      </trkpt>
      <trkpt lat="43.97994" lon="7.0933">
        <ele>1291</ele>
        <time>2022-03-19T11:09:44.000Z</time>
      </trkpt>
      <trkpt lat="43.97991" lon="7.09332">
        <ele>1292</ele>
        <time>2022-03-19T11:09:50.000Z</time>
      </trkpt>
      <trkpt lat="43.97989" lon="7.09334">
        <ele>1292.4000244141</ele>
        <time>2022-03-19T11:09:54.000Z</time>
      </trkpt>
      <trkpt lat="43.97988" lon="7.09335">
        <ele>1293</ele>
        <time>2022-03-19T11:09:57.000Z</time>
      </trkpt>
      <trkpt lat="43.97989" lon="7.09338">
        <ele>1294</ele>
        <time>2022-03-19T11:10:04.000Z</time>
      </trkpt>
      <trkpt lat="43.9799" lon="7.09338">
        <ele>1294</ele>
        <time>2022-03-19T11:10:05.000Z</time>
      </trkpt>
      <trkpt lat="43.9799" lon="7.09338">
        <ele>1295.1999511719</ele>
        <time>2022-03-19T11:10:10.000Z</time>
      </trkpt>
      <trkpt lat="43.97991" lon="7.09339">
        <ele>1295.5999755859</ele>
        <time>2022-03-19T11:10:13.000Z</time>
      </trkpt>
      <trkpt lat="43.97994" lon="7.0934">
        <ele>1296.4000244141</ele>
        <time>2022-03-19T11:10:19.000Z</time>
      </trkpt>
      <trkpt lat="43.97995" lon="7.0934">
        <ele>1297</ele>
        <time>2022-03-19T11:10:23.000Z</time>
      </trkpt>
      <trkpt lat="43.97996" lon="7.0934">
        <ele>1297.4000244141</ele>
        <time>2022-03-19T11:10:32.000Z</time>
      </trkpt>
      <trkpt lat="43.97998" lon="7.09342">
        <ele>1297.4000244141</ele>
        <time>2022-03-19T11:10:38.000Z</time>
      </trkpt>
      <trkpt lat="43.98" lon="7.09343">
        <ele>1298.1999511719</ele>
        <time>2022-03-19T11:10:44.000Z</time>
      </trkpt>
      <trkpt lat="43.98" lon="7.09343">
        <ele>1298.5999755859</ele>
        <time>2022-03-19T11:10:46.000Z</time>
      </trkpt>
      <trkpt lat="43.98002" lon="7.09344">
        <ele>1299.4000244141</ele>
        <time>2022-03-19T11:10:52.000Z</time>
      </trkpt>
      <trkpt lat="43.98003" lon="7.09344">
        <ele>1299.8000488281</ele>
        <time>2022-03-19T11:10:53.000Z</time>
      </trkpt>
      <trkpt lat="43.98004" lon="7.09346">
        <ele>1300.4000244141</ele>
        <time>2022-03-19T11:10:58.000Z</time>
      </trkpt>
      <trkpt lat="43.98003" lon="7.09346">
        <ele>1300.8000488281</ele>
        <time>2022-03-19T11:10:59.000Z</time>
      </trkpt>
      <trkpt lat="43.98002" lon="7.09349">
        <ele>1301.8000488281</ele>
        <time>2022-03-19T11:11:04.000Z</time>
      </trkpt>
      <trkpt lat="43.98002" lon="7.09349">
        <ele>1302</ele>
        <time>2022-03-19T11:11:05.000Z</time>
      </trkpt>
      <trkpt lat="43.98" lon="7.0935">
        <ele>1302.4000244141</ele>
        <time>2022-03-19T11:11:08.000Z</time>
      </trkpt>
      <trkpt lat="43.98" lon="7.0935">
        <ele>1302.5999755859</ele>
        <time>2022-03-19T11:11:10.000Z</time>
      </trkpt>
      <trkpt lat="43.98" lon="7.0935">
        <ele>1302.8000488281</ele>
        <time>2022-03-19T11:11:11.000Z</time>
      </trkpt>
      <trkpt lat="43.97998" lon="7.09352">
        <ele>1304</ele>
        <time>2022-03-19T11:11:17.000Z</time>
      </trkpt>
      <trkpt lat="43.97997" lon="7.09353">
        <ele>1304.1999511719</ele>
        <time>2022-03-19T11:11:18.000Z</time>
      </trkpt>
      <trkpt lat="43.97997" lon="7.09353">
        <ele>1305.1999511719</ele>
        <time>2022-03-19T11:11:22.000Z</time>
      </trkpt>
      <trkpt lat="43.97995" lon="7.09356">
        <ele>1305.5999755859</ele>
        <time>2022-03-19T11:11:27.000Z</time>
      </trkpt>
      <trkpt lat="43.97995" lon="7.09359">
        <ele>1306.1999511719</ele>
        <time>2022-03-19T11:11:31.000Z</time>
      </trkpt>
      <trkpt lat="43.97993" lon="7.09361">
        <ele>1307</ele>
        <time>2022-03-19T11:11:36.000Z</time>
      </trkpt>
      <trkpt lat="43.97992" lon="7.09362">
        <ele>1307.4000244141</ele>
        <time>2022-03-19T11:11:38.000Z</time>
      </trkpt>
      <trkpt lat="43.97991" lon="7.09363">
        <ele>1307.8000488281</ele>
        <time>2022-03-19T11:11:41.000Z</time>
      </trkpt>
      <trkpt lat="43.9799" lon="7.09364">
        <ele>1308.4000244141</ele>
        <time>2022-03-19T11:11:45.000Z</time>
      </trkpt>
      <trkpt lat="43.97989" lon="7.09365">
        <ele>1308.5999755859</ele>
        <time>2022-03-19T11:11:47.000Z</time>
      </trkpt>
      <trkpt lat="43.97986" lon="7.09367">
        <ele>1309.4000244141</ele>
        <time>2022-03-19T11:11:52.000Z</time>
      </trkpt>
      <trkpt lat="43.97986" lon="7.09366">
        <ele>1309.4000244141</ele>
        <time>2022-03-19T11:11:53.000Z</time>
      </trkpt>
      <trkpt lat="43.97984" lon="7.0937">
        <ele>1310.4000244141</ele>
        <time>2022-03-19T11:11:58.000Z</time>
      </trkpt>
      <trkpt lat="43.97983" lon="7.09372">
        <ele>1310.8000488281</ele>
        <time>2022-03-19T11:12:00.000Z</time>
      </trkpt>
      <trkpt lat="43.97982" lon="7.09373">
        <ele>1311.4000244141</ele>
        <time>2022-03-19T11:12:02.000Z</time>
      </trkpt>
      <trkpt lat="43.9798" lon="7.09375">
        <ele>1312</ele>
        <time>2022-03-19T11:12:05.000Z</time>
      </trkpt>
      <trkpt lat="43.97977" lon="7.09377">
        <ele>1312.8000488281</ele>
        <time>2022-03-19T11:12:10.000Z</time>
      </trkpt>
      <trkpt lat="43.97976" lon="7.09378">
        <ele>1313</ele>
        <time>2022-03-19T11:12:13.000Z</time>
      </trkpt>
      <trkpt lat="43.97974" lon="7.09381">
        <ele>1313.8000488281</ele>
        <time>2022-03-19T11:12:18.000Z</time>
      </trkpt>
      <trkpt lat="43.97972" lon="7.09382">
        <ele>1314.1999511719</ele>
        <time>2022-03-19T11:12:21.000Z</time>
      </trkpt>
      <trkpt lat="43.97969" lon="7.09386">
        <ele>1315</ele>
        <time>2022-03-19T11:12:25.000Z</time>
      </trkpt>
      <trkpt lat="43.97969" lon="7.09387">
        <ele>1315.4000244141</ele>
        <time>2022-03-19T11:12:26.000Z</time>
      </trkpt>
      <trkpt lat="43.97968" lon="7.09388">
        <ele>1316.1999511719</ele>
        <time>2022-03-19T11:12:28.000Z</time>
      </trkpt>
      <trkpt lat="43.97965" lon="7.09392">
        <ele>1316.5999755859</ele>
        <time>2022-03-19T11:12:31.000Z</time>
      </trkpt>
      <trkpt lat="43.97959" lon="7.09397">
        <ele>1316.8000488281</ele>
        <time>2022-03-19T11:12:39.000Z</time>
      </trkpt>
      <trkpt lat="43.97956" lon="7.09401">
        <ele>1317.4000244141</ele>
        <time>2022-03-19T11:12:43.000Z</time>
      </trkpt>
      <trkpt lat="43.97954" lon="7.09403">
        <ele>1317.8000488281</ele>
        <time>2022-03-19T11:12:46.000Z</time>
      </trkpt>
      <trkpt lat="43.97953" lon="7.09404">
        <ele>1318.4000244141</ele>
        <time>2022-03-19T11:12:50.000Z</time>
      </trkpt>
      <trkpt lat="43.97952" lon="7.09405">
        <ele>1318.5999755859</ele>
        <time>2022-03-19T11:12:54.000Z</time>
      </trkpt>
      <trkpt lat="43.97948" lon="7.09406">
        <ele>1318.4000244141</ele>
        <time>2022-03-19T11:12:58.000Z</time>
      </trkpt>
      <trkpt lat="43.97946" lon="7.09408">
        <ele>1318.5999755859</ele>
        <time>2022-03-19T11:13:00.000Z</time>
      </trkpt>
      <trkpt lat="43.97935" lon="7.09417">
        <ele>1319.1999511719</ele>
        <time>2022-03-19T11:13:08.000Z</time>
      </trkpt>
      <trkpt lat="43.97933" lon="7.0942">
        <ele>1319.5999755859</ele>
        <time>2022-03-19T11:13:10.000Z</time>
      </trkpt>
      <trkpt lat="43.97932" lon="7.09421">
        <ele>1319.8000488281</ele>
        <time>2022-03-19T11:13:11.000Z</time>
      </trkpt>
      <trkpt lat="43.97928" lon="7.09423">
        <ele>1320.1999511719</ele>
        <time>2022-03-19T11:13:13.000Z</time>
      </trkpt>
      <trkpt lat="43.9792" lon="7.09428">
        <ele>1320.1999511719</ele>
        <time>2022-03-19T11:13:18.000Z</time>
      </trkpt>
      <trkpt lat="43.97908" lon="7.09437">
        <ele>1320.4000244141</ele>
        <time>2022-03-19T11:13:23.000Z</time>
      </trkpt>
      <trkpt lat="43.97901" lon="7.09444">
        <ele>1320.5999755859</ele>
        <time>2022-03-19T11:13:27.000Z</time>
      </trkpt>
      <trkpt lat="43.97899" lon="7.09445">
        <ele>1320.8000488281</ele>
        <time>2022-03-19T11:13:28.000Z</time>
      </trkpt>
      <trkpt lat="43.97886" lon="7.09452">
        <ele>1321.5999755859</ele>
        <time>2022-03-19T11:13:34.000Z</time>
      </trkpt>
      <trkpt lat="43.9788" lon="7.09453">
        <ele>1321.8000488281</ele>
        <time>2022-03-19T11:13:36.000Z</time>
      </trkpt>
      <trkpt lat="43.97875" lon="7.09453">
        <ele>1321.8000488281</ele>
        <time>2022-03-19T11:13:38.000Z</time>
      </trkpt>
      <trkpt lat="43.9786" lon="7.09454">
        <ele>1322</ele>
        <time>2022-03-19T11:13:43.000Z</time>
      </trkpt>
      <trkpt lat="43.97841" lon="7.09455">
        <ele>1321.4000244141</ele>
        <time>2022-03-19T11:13:49.000Z</time>
      </trkpt>
      <trkpt lat="43.97826" lon="7.09458">
        <ele>1321</ele>
        <time>2022-03-19T11:13:54.000Z</time>
      </trkpt>
      <trkpt lat="43.97817" lon="7.09458">
        <ele>1320.5999755859</ele>
        <time>2022-03-19T11:13:57.000Z</time>
      </trkpt>
      <trkpt lat="43.97812" lon="7.09458">
        <ele>1319.8000488281</ele>
        <time>2022-03-19T11:13:59.000Z</time>
      </trkpt>
      <trkpt lat="43.97808" lon="7.09458">
        <ele>1319.5999755859</ele>
        <time>2022-03-19T11:14:00.000Z</time>
      </trkpt>
      <trkpt lat="43.97789" lon="7.09458">
        <ele>1319.5999755859</ele>
        <time>2022-03-19T11:14:05.000Z</time>
      </trkpt>
      <trkpt lat="43.97778" lon="7.09457">
        <ele>1318.8000488281</ele>
        <time>2022-03-19T11:14:07.000Z</time>
      </trkpt>
      <trkpt lat="43.97774" lon="7.09458">
        <ele>1318.1999511719</ele>
        <time>2022-03-19T11:14:08.000Z</time>
      </trkpt>
      <trkpt lat="43.97764" lon="7.09458">
        <ele>1316.8000488281</ele>
        <time>2022-03-19T11:14:10.000Z</time>
      </trkpt>
      <trkpt lat="43.97759" lon="7.09459">
        <ele>1316.4000244141</ele>
        <time>2022-03-19T11:14:11.000Z</time>
      </trkpt>
      <trkpt lat="43.9775" lon="7.09461">
        <ele>1315.8000488281</ele>
        <time>2022-03-19T11:14:13.000Z</time>
      </trkpt>
      <trkpt lat="43.97742" lon="7.09462">
        <ele>1315.5999755859</ele>
        <time>2022-03-19T11:14:15.000Z</time>
      </trkpt>
      <trkpt lat="43.97727" lon="7.09463">
        <ele>1315.5999755859</ele>
        <time>2022-03-19T11:14:20.000Z</time>
      </trkpt>
      <trkpt lat="43.97716" lon="7.09464">
        <ele>1317.1999511719</ele>
        <time>2022-03-19T11:14:25.000Z</time>
      </trkpt>
      <trkpt lat="43.97712" lon="7.09464">
        <ele>1317.8000488281</ele>
        <time>2022-03-19T11:14:27.000Z</time>
      </trkpt>
      <trkpt lat="43.97705" lon="7.09466">
        <ele>1318.1999511719</ele>
        <time>2022-03-19T11:14:30.000Z</time>
      </trkpt>
      <trkpt lat="43.97703" lon="7.09465">
        <ele>1318.4000244141</ele>
        <time>2022-03-19T11:14:31.000Z</time>
      </trkpt>
      <trkpt lat="43.977" lon="7.09468">
        <ele>1318.5999755859</ele>
        <time>2022-03-19T11:14:32.000Z</time>
      </trkpt>
      <trkpt lat="43.97694" lon="7.09467">
        <ele>1319.5999755859</ele>
        <time>2022-03-19T11:14:35.000Z</time>
      </trkpt>
      <trkpt lat="43.97677" lon="7.09468">
        <ele>1320.5999755859</ele>
        <time>2022-03-19T11:14:42.000Z</time>
      </trkpt>
      <trkpt lat="43.97664" lon="7.09462">
        <ele>1321</ele>
        <time>2022-03-19T11:14:47.000Z</time>
      </trkpt>
      <trkpt lat="43.97652" lon="7.09456">
        <ele>1320</ele>
        <time>2022-03-19T11:14:50.000Z</time>
      </trkpt>
      <trkpt lat="43.97647" lon="7.09455">
        <ele>1319</ele>
        <time>2022-03-19T11:14:51.000Z</time>
      </trkpt>
      <trkpt lat="43.97642" lon="7.09455">
        <ele>1317.5999755859</ele>
        <time>2022-03-19T11:14:52.000Z</time>
      </trkpt>
      <trkpt lat="43.97639" lon="7.09455">
        <ele>1316.5999755859</ele>
        <time>2022-03-19T11:14:53.000Z</time>
      </trkpt>
      <trkpt lat="43.97634" lon="7.09454">
        <ele>1315.5999755859</ele>
        <time>2022-03-19T11:14:54.000Z</time>
      </trkpt>
      <trkpt lat="43.97627" lon="7.09452">
        <ele>1314.5999755859</ele>
        <time>2022-03-19T11:14:55.000Z</time>
      </trkpt>
      <trkpt lat="43.97622" lon="7.09452">
        <ele>1313.8000488281</ele>
        <time>2022-03-19T11:14:56.000Z</time>
      </trkpt>
      <trkpt lat="43.97612" lon="7.09451">
        <ele>1312.4000244141</ele>
        <time>2022-03-19T11:14:58.000Z</time>
      </trkpt>
      <trkpt lat="43.97605" lon="7.09452">
        <ele>1310.8000488281</ele>
        <time>2022-03-19T11:15:00.000Z</time>
      </trkpt>
      <trkpt lat="43.97587" lon="7.0945">
        <ele>1311.8000488281</ele>
        <time>2022-03-19T11:15:05.000Z</time>
      </trkpt>
      <trkpt lat="43.9757" lon="7.09446">
        <ele>1311.1999511719</ele>
        <time>2022-03-19T11:15:09.000Z</time>
      </trkpt>
      <trkpt lat="43.97568" lon="7.09446">
        <ele>1311</ele>
        <time>2022-03-19T11:15:10.000Z</time>
      </trkpt>
      <trkpt lat="43.97565" lon="7.09446">
        <ele>1310.8000488281</ele>
        <time>2022-03-19T11:15:11.000Z</time>
      </trkpt>
      <trkpt lat="43.97556" lon="7.09448">
        <ele>1311.8000488281</ele>
        <time>2022-03-19T11:15:15.000Z</time>
      </trkpt>
      <trkpt lat="43.97554" lon="7.09453">
        <ele>1312</ele>
        <time>2022-03-19T11:15:16.000Z</time>
      </trkpt>
      <trkpt lat="43.97547" lon="7.09469">
        <ele>1311.1999511719</ele>
        <time>2022-03-19T11:15:19.000Z</time>
      </trkpt>
      <trkpt lat="43.97546" lon="7.09475">
        <ele>1310.8000488281</ele>
        <time>2022-03-19T11:15:20.000Z</time>
      </trkpt>
      <trkpt lat="43.97544" lon="7.09496">
        <ele>1309.5999755859</ele>
        <time>2022-03-19T11:15:23.000Z</time>
      </trkpt>
      <trkpt lat="43.97536" lon="7.09504">
        <ele>1308.1999511719</ele>
        <time>2022-03-19T11:15:25.000Z</time>
      </trkpt>
      <trkpt lat="43.97528" lon="7.09515">
        <ele>1307.1999511719</ele>
        <time>2022-03-19T11:15:27.000Z</time>
      </trkpt>
      <trkpt lat="43.97524" lon="7.0952">
        <ele>1306.5999755859</ele>
        <time>2022-03-19T11:15:28.000Z</time>
      </trkpt>
      <trkpt lat="43.9752" lon="7.09525">
        <ele>1306.1999511719</ele>
        <time>2022-03-19T11:15:29.000Z</time>
      </trkpt>
      <trkpt lat="43.97515" lon="7.0953">
        <ele>1305.5999755859</ele>
        <time>2022-03-19T11:15:30.000Z</time>
      </trkpt>
      <trkpt lat="43.97508" lon="7.09534">
        <ele>1303.8000488281</ele>
        <time>2022-03-19T11:15:32.000Z</time>
      </trkpt>
      <trkpt lat="43.97506" lon="7.09534">
        <ele>1302.8000488281</ele>
        <time>2022-03-19T11:15:33.000Z</time>
      </trkpt>
      <trkpt lat="43.97504" lon="7.09535">
        <ele>1301</ele>
        <time>2022-03-19T11:15:35.000Z</time>
      </trkpt>
      <trkpt lat="43.97505" lon="7.09535">
        <ele>1299.5999755859</ele>
        <time>2022-03-19T11:15:37.000Z</time>
      </trkpt>
      <trkpt lat="43.97505" lon="7.09533">
        <ele>1298.5999755859</ele>
        <time>2022-03-19T11:15:39.000Z</time>
      </trkpt>
      <trkpt lat="43.97505" lon="7.09533">
        <ele>1298.4000244141</ele>
        <time>2022-03-19T11:15:41.000Z</time>
      </trkpt>
      <trkpt lat="43.97505" lon="7.09532">
        <ele>1299.4000244141</ele>
        <time>2022-03-19T11:15:47.000Z</time>
      </trkpt>
      <trkpt lat="43.97503" lon="7.09533">
        <ele>1299.5999755859</ele>
        <time>2022-03-19T11:15:49.000Z</time>
      </trkpt>
      <trkpt lat="43.97503" lon="7.09532">
        <ele>1299</ele>
        <time>2022-03-19T11:15:51.000Z</time>
      </trkpt>
      <trkpt lat="43.97499" lon="7.09532">
        <ele>1298.5999755859</ele>
        <time>2022-03-19T11:15:56.000Z</time>
      </trkpt>
      <trkpt lat="43.97496" lon="7.09533">
        <ele>1298.4000244141</ele>
        <time>2022-03-19T11:15:57.000Z</time>
      </trkpt>
      <trkpt lat="43.97484" lon="7.09536">
        <ele>1297.1999511719</ele>
        <time>2022-03-19T11:16:01.000Z</time>
      </trkpt>
      <trkpt lat="43.9748" lon="7.09536">
        <ele>1296.8000488281</ele>
        <time>2022-03-19T11:16:02.000Z</time>
      </trkpt>
      <trkpt lat="43.97477" lon="7.09538">
        <ele>1296.1999511719</ele>
        <time>2022-03-19T11:16:03.000Z</time>
      </trkpt>
      <trkpt lat="43.97468" lon="7.09547">
        <ele>1294.5999755859</ele>
        <time>2022-03-19T11:16:06.000Z</time>
      </trkpt>
      <trkpt lat="43.97455" lon="7.09564">
        <ele>1293.4000244141</ele>
        <time>2022-03-19T11:16:10.000Z</time>
      </trkpt>
      <trkpt lat="43.97451" lon="7.0958">
        <ele>1292.5999755859</ele>
        <time>2022-03-19T11:16:12.000Z</time>
      </trkpt>
      <trkpt lat="43.9745" lon="7.09587">
        <ele>1292.1999511719</ele>
        <time>2022-03-19T11:16:13.000Z</time>
      </trkpt>
      <trkpt lat="43.97449" lon="7.09597">
        <ele>1291.4000244141</ele>
        <time>2022-03-19T11:16:14.000Z</time>
      </trkpt>
      <trkpt lat="43.97447" lon="7.09605">
        <ele>1291</ele>
        <time>2022-03-19T11:16:15.000Z</time>
      </trkpt>
      <trkpt lat="43.97439" lon="7.0962">
        <ele>1289.8000488281</ele>
        <time>2022-03-19T11:16:17.000Z</time>
      </trkpt>
      <trkpt lat="43.97434" lon="7.09626">
        <ele>1289.1999511719</ele>
        <time>2022-03-19T11:16:18.000Z</time>
      </trkpt>
      <trkpt lat="43.9743" lon="7.09633">
        <ele>1288.5999755859</ele>
        <time>2022-03-19T11:16:19.000Z</time>
      </trkpt>
      <trkpt lat="43.97426" lon="7.09639">
        <ele>1288</ele>
        <time>2022-03-19T11:16:20.000Z</time>
      </trkpt>
      <trkpt lat="43.97423" lon="7.0964">
        <ele>1287</ele>
        <time>2022-03-19T11:16:21.000Z</time>
      </trkpt>
      <trkpt lat="43.97417" lon="7.09641">
        <ele>1286.5999755859</ele>
        <time>2022-03-19T11:16:22.000Z</time>
      </trkpt>
      <trkpt lat="43.97408" lon="7.09653">
        <ele>1286.1999511719</ele>
        <time>2022-03-19T11:16:25.000Z</time>
      </trkpt>
      <trkpt lat="43.97405" lon="7.09656">
        <ele>1286</ele>
        <time>2022-03-19T11:16:26.000Z</time>
      </trkpt>
      <trkpt lat="43.97402" lon="7.09659">
        <ele>1285.5999755859</ele>
        <time>2022-03-19T11:16:28.000Z</time>
      </trkpt>
      <trkpt lat="43.974" lon="7.0966">
        <ele>1285.8000488281</ele>
        <time>2022-03-19T11:16:29.000Z</time>
      </trkpt>
      <trkpt lat="43.97395" lon="7.09669">
        <ele>1287.1999511719</ele>
        <time>2022-03-19T11:16:33.000Z</time>
      </trkpt>
      <trkpt lat="43.97395" lon="7.09673">
        <ele>1287.4000244141</ele>
        <time>2022-03-19T11:16:34.000Z</time>
      </trkpt>
      <trkpt lat="43.97388" lon="7.09681">
        <ele>1288.1999511719</ele>
        <time>2022-03-19T11:16:38.000Z</time>
      </trkpt>
      <trkpt lat="43.97386" lon="7.09681">
        <ele>1288.4000244141</ele>
        <time>2022-03-19T11:16:39.000Z</time>
      </trkpt>
      <trkpt lat="43.97384" lon="7.0968">
        <ele>1288.4000244141</ele>
        <time>2022-03-19T11:16:41.000Z</time>
      </trkpt>
      <trkpt lat="43.97383" lon="7.0968">
        <ele>1288.5999755859</ele>
        <time>2022-03-19T11:16:42.000Z</time>
      </trkpt>
      <trkpt lat="43.97379" lon="7.09678">
        <ele>1289.4000244141</ele>
        <time>2022-03-19T11:16:45.000Z</time>
      </trkpt>
      <trkpt lat="43.97374" lon="7.09674">
        <ele>1290.5999755859</ele>
        <time>2022-03-19T11:16:49.000Z</time>
      </trkpt>
      <trkpt lat="43.97366" lon="7.0967">
        <ele>1291.5999755859</ele>
        <time>2022-03-19T11:16:54.000Z</time>
      </trkpt>
      <trkpt lat="43.97361" lon="7.09667">
        <ele>1291.8000488281</ele>
        <time>2022-03-19T11:16:57.000Z</time>
      </trkpt>
      <trkpt lat="43.97347" lon="7.09663">
        <ele>1292.1999511719</ele>
        <time>2022-03-19T11:17:04.000Z</time>
      </trkpt>
      <trkpt lat="43.97343" lon="7.09662">
        <ele>1292.5999755859</ele>
        <time>2022-03-19T11:17:07.000Z</time>
      </trkpt>
      <trkpt lat="43.9734" lon="7.09663">
        <ele>1293</ele>
        <time>2022-03-19T11:17:09.000Z</time>
      </trkpt>
      <trkpt lat="43.97337" lon="7.09665">
        <ele>1293.8000488281</ele>
        <time>2022-03-19T11:17:12.000Z</time>
      </trkpt>
      <trkpt lat="43.97333" lon="7.09665">
        <ele>1294.8000488281</ele>
        <time>2022-03-19T11:17:15.000Z</time>
      </trkpt>
      <trkpt lat="43.97331" lon="7.09666">
        <ele>1295.4000244141</ele>
        <time>2022-03-19T11:17:17.000Z</time>
      </trkpt>
      <trkpt lat="43.97327" lon="7.09668">
        <ele>1295.8000488281</ele>
        <time>2022-03-19T11:17:20.000Z</time>
      </trkpt>
      <trkpt lat="43.97322" lon="7.09671">
        <ele>1296.5999755859</ele>
        <time>2022-03-19T11:17:24.000Z</time>
      </trkpt>
      <trkpt lat="43.9732" lon="7.09672">
        <ele>1297</ele>
        <time>2022-03-19T11:17:26.000Z</time>
      </trkpt>
      <trkpt lat="43.97316" lon="7.09673">
        <ele>1298</ele>
        <time>2022-03-19T11:17:30.000Z</time>
      </trkpt>
      <trkpt lat="43.97315" lon="7.09673">
        <ele>1298.4000244141</ele>
        <time>2022-03-19T11:17:31.000Z</time>
      </trkpt>
      <trkpt lat="43.97309" lon="7.09673">
        <ele>1299.1999511719</ele>
        <time>2022-03-19T11:17:36.000Z</time>
      </trkpt>
      <trkpt lat="43.97307" lon="7.09673">
        <ele>1299.5999755859</ele>
        <time>2022-03-19T11:17:38.000Z</time>
      </trkpt>
      <trkpt lat="43.97299" lon="7.09675">
        <ele>1300.4000244141</ele>
        <time>2022-03-19T11:17:43.000Z</time>
      </trkpt>
      <trkpt lat="43.97295" lon="7.09677">
        <ele>1300.8000488281</ele>
        <time>2022-03-19T11:17:46.000Z</time>
      </trkpt>
      <trkpt lat="43.97291" lon="7.09679">
        <ele>1301.5999755859</ele>
        <time>2022-03-19T11:17:49.000Z</time>
      </trkpt>
      <trkpt lat="43.97284" lon="7.09681">
        <ele>1302.1999511719</ele>
        <time>2022-03-19T11:17:54.000Z</time>
      </trkpt>
      <trkpt lat="43.97278" lon="7.09681">
        <ele>1302.5999755859</ele>
        <time>2022-03-19T11:17:58.000Z</time>
      </trkpt>
      <trkpt lat="43.97275" lon="7.09682">
        <ele>1303</ele>
        <time>2022-03-19T11:18:00.000Z</time>
      </trkpt>
      <trkpt lat="43.97269" lon="7.09682">
        <ele>1303.8000488281</ele>
        <time>2022-03-19T11:18:04.000Z</time>
      </trkpt>
      <trkpt lat="43.97264" lon="7.09685">
        <ele>1304.1999511719</ele>
        <time>2022-03-19T11:18:08.000Z</time>
      </trkpt>
      <trkpt lat="43.97253" lon="7.09687">
        <ele>1304.4000244141</ele>
        <time>2022-03-19T11:18:15.000Z</time>
      </trkpt>
      <trkpt lat="43.97247" lon="7.09688">
        <ele>1304.8000488281</ele>
        <time>2022-03-19T11:18:20.000Z</time>
      </trkpt>
      <trkpt lat="43.97242" lon="7.09689">
        <ele>1305.1999511719</ele>
        <time>2022-03-19T11:18:23.000Z</time>
      </trkpt>
      <trkpt lat="43.97233" lon="7.0969">
        <ele>1306</ele>
        <time>2022-03-19T11:18:29.000Z</time>
      </trkpt>
      <trkpt lat="43.97228" lon="7.09691">
        <ele>1306.5999755859</ele>
        <time>2022-03-19T11:18:32.000Z</time>
      </trkpt>
      <trkpt lat="43.97226" lon="7.09692">
        <ele>1307.1999511719</ele>
        <time>2022-03-19T11:18:34.000Z</time>
      </trkpt>
      <trkpt lat="43.97223" lon="7.09694">
        <ele>1308.1999511719</ele>
        <time>2022-03-19T11:18:37.000Z</time>
      </trkpt>
      <trkpt lat="43.97214" lon="7.09698">
        <ele>1309.1999511719</ele>
        <time>2022-03-19T11:18:44.000Z</time>
      </trkpt>
      <trkpt lat="43.97213" lon="7.09699">
        <ele>1309.1999511719</ele>
        <time>2022-03-19T11:18:45.000Z</time>
      </trkpt>
      <trkpt lat="43.97199" lon="7.09705">
        <ele>1310</ele>
        <time>2022-03-19T11:18:54.000Z</time>
      </trkpt>
      <trkpt lat="43.97196" lon="7.09708">
        <ele>1310.4000244141</ele>
        <time>2022-03-19T11:18:56.000Z</time>
      </trkpt>
      <trkpt lat="43.97193" lon="7.09715">
        <ele>1311.1999511719</ele>
        <time>2022-03-19T11:19:00.000Z</time>
      </trkpt>
      <trkpt lat="43.97194" lon="7.09717">
        <ele>1311.1999511719</ele>
        <time>2022-03-19T11:19:01.000Z</time>
      </trkpt>
      <trkpt lat="43.97195" lon="7.09719">
        <ele>1311.4000244141</ele>
        <time>2022-03-19T11:19:02.000Z</time>
      </trkpt>
      <trkpt lat="43.97198" lon="7.09722">
        <ele>1311.5999755859</ele>
        <time>2022-03-19T11:19:05.000Z</time>
      </trkpt>
      <trkpt lat="43.97201" lon="7.09733">
        <ele>1312.1999511719</ele>
        <time>2022-03-19T11:19:10.000Z</time>
      </trkpt>
      <trkpt lat="43.97201" lon="7.09735">
        <ele>1312.4000244141</ele>
        <time>2022-03-19T11:19:11.000Z</time>
      </trkpt>
      <trkpt lat="43.97203" lon="7.09749">
        <ele>1313</ele>
        <time>2022-03-19T11:19:17.000Z</time>
      </trkpt>
      <trkpt lat="43.97203" lon="7.09751">
        <ele>1313.1999511719</ele>
        <time>2022-03-19T11:19:18.000Z</time>
      </trkpt>
      <trkpt lat="43.97203" lon="7.09756">
        <ele>1313.5999755859</ele>
        <time>2022-03-19T11:19:20.000Z</time>
      </trkpt>
      <trkpt lat="43.97203" lon="7.09757">
        <ele>1314</ele>
        <time>2022-03-19T11:19:21.000Z</time>
      </trkpt>
      <trkpt lat="43.97202" lon="7.09759">
        <ele>1314.5999755859</ele>
        <time>2022-03-19T11:19:23.000Z</time>
      </trkpt>
      <trkpt lat="43.97201" lon="7.09765">
        <ele>1315.8000488281</ele>
        <time>2022-03-19T11:19:27.000Z</time>
      </trkpt>
      <trkpt lat="43.97202" lon="7.09766">
        <ele>1315.8000488281</ele>
        <time>2022-03-19T11:19:28.000Z</time>
      </trkpt>
      <trkpt lat="43.97205" lon="7.09775">
        <ele>1316.8000488281</ele>
        <time>2022-03-19T11:19:34.000Z</time>
      </trkpt>
      <trkpt lat="43.97207" lon="7.09777">
        <ele>1317</ele>
        <time>2022-03-19T11:19:36.000Z</time>
      </trkpt>
      <trkpt lat="43.97213" lon="7.09786">
        <ele>1317.8000488281</ele>
        <time>2022-03-19T11:19:43.000Z</time>
      </trkpt>
      <trkpt lat="43.97214" lon="7.09788">
        <ele>1318.1999511719</ele>
        <time>2022-03-19T11:19:45.000Z</time>
      </trkpt>
      <trkpt lat="43.9722" lon="7.09795">
        <ele>1319</ele>
        <time>2022-03-19T11:19:51.000Z</time>
      </trkpt>
      <trkpt lat="43.97223" lon="7.09799">
        <ele>1319</ele>
        <time>2022-03-19T11:19:53.000Z</time>
      </trkpt>
      <trkpt lat="43.97237" lon="7.09815">
        <ele>1318.5999755859</ele>
        <time>2022-03-19T11:19:59.000Z</time>
      </trkpt>
      <trkpt lat="43.97245" lon="7.09819">
        <ele>1318.4000244141</ele>
        <time>2022-03-19T11:20:01.000Z</time>
      </trkpt>
      <trkpt lat="43.97253" lon="7.09825">
        <ele>1317.8000488281</ele>
        <time>2022-03-19T11:20:03.000Z</time>
      </trkpt>
      <trkpt lat="43.97262" lon="7.0983">
        <ele>1317.1999511719</ele>
        <time>2022-03-19T11:20:05.000Z</time>
      </trkpt>
      <trkpt lat="43.97273" lon="7.09835">
        <ele>1316.5999755859</ele>
        <time>2022-03-19T11:20:07.000Z</time>
      </trkpt>
      <trkpt lat="43.97277" lon="7.09838">
        <ele>1316.4000244141</ele>
        <time>2022-03-19T11:20:08.000Z</time>
      </trkpt>
      <trkpt lat="43.97288" lon="7.09844">
        <ele>1315.8000488281</ele>
        <time>2022-03-19T11:20:10.000Z</time>
      </trkpt>
      <trkpt lat="43.97292" lon="7.09848">
        <ele>1315.4000244141</ele>
        <time>2022-03-19T11:20:11.000Z</time>
      </trkpt>
      <trkpt lat="43.97296" lon="7.09851">
        <ele>1314.5999755859</ele>
        <time>2022-03-19T11:20:12.000Z</time>
      </trkpt>
      <trkpt lat="43.973" lon="7.09853">
        <ele>1314.4000244141</ele>
        <time>2022-03-19T11:20:13.000Z</time>
      </trkpt>
      <trkpt lat="43.97305" lon="7.09857">
        <ele>1314</ele>
        <time>2022-03-19T11:20:14.000Z</time>
      </trkpt>
      <trkpt lat="43.97313" lon="7.09863">
        <ele>1313.1999511719</ele>
        <time>2022-03-19T11:20:16.000Z</time>
      </trkpt>
      <trkpt lat="43.97316" lon="7.09865">
        <ele>1313</ele>
        <time>2022-03-19T11:20:17.000Z</time>
      </trkpt>
      <trkpt lat="43.97328" lon="7.0987">
        <ele>1311.8000488281</ele>
        <time>2022-03-19T11:20:20.000Z</time>
      </trkpt>
      <trkpt lat="43.97338" lon="7.09875">
        <ele>1312</ele>
        <time>2022-03-19T11:20:23.000Z</time>
      </trkpt>
      <trkpt lat="43.97351" lon="7.09883">
        <ele>1312.8000488281</ele>
        <time>2022-03-19T11:20:28.000Z</time>
      </trkpt>
      <trkpt lat="43.97357" lon="7.09887">
        <ele>1313</ele>
        <time>2022-03-19T11:20:30.000Z</time>
      </trkpt>
      <trkpt lat="43.97368" lon="7.09891">
        <ele>1313.4000244141</ele>
        <time>2022-03-19T11:20:34.000Z</time>
      </trkpt>
      <trkpt lat="43.97378" lon="7.09897">
        <ele>1314.1999511719</ele>
        <time>2022-03-19T11:20:39.000Z</time>
      </trkpt>
      <trkpt lat="43.97384" lon="7.09903">
        <ele>1315.1999511719</ele>
        <time>2022-03-19T11:20:42.000Z</time>
      </trkpt>
      <trkpt lat="43.97389" lon="7.09908">
        <ele>1315.4000244141</ele>
        <time>2022-03-19T11:20:44.000Z</time>
      </trkpt>
      <trkpt lat="43.97404" lon="7.09917">
        <ele>1314.5999755859</ele>
        <time>2022-03-19T11:20:49.000Z</time>
      </trkpt>
      <trkpt lat="43.97408" lon="7.09919">
        <ele>1314.1999511719</ele>
        <time>2022-03-19T11:20:50.000Z</time>
      </trkpt>
      <trkpt lat="43.97417" lon="7.09919">
        <ele>1313.5999755859</ele>
        <time>2022-03-19T11:20:52.000Z</time>
      </trkpt>
      <trkpt lat="43.97422" lon="7.09919">
        <ele>1313</ele>
        <time>2022-03-19T11:20:54.000Z</time>
      </trkpt>
      <trkpt lat="43.97425" lon="7.09918">
        <ele>1313</ele>
        <time>2022-03-19T11:20:56.000Z</time>
      </trkpt>
      <trkpt lat="43.97436" lon="7.09917">
        <ele>1314</ele>
        <time>2022-03-19T11:21:01.000Z</time>
      </trkpt>
      <trkpt lat="43.97438" lon="7.09917">
        <ele>1314.1999511719</ele>
        <time>2022-03-19T11:21:02.000Z</time>
      </trkpt>
      <trkpt lat="43.97446" lon="7.09925">
        <ele>1314.8000488281</ele>
        <time>2022-03-19T11:21:06.000Z</time>
      </trkpt>
      <trkpt lat="43.97455" lon="7.09936">
        <ele>1315.4000244141</ele>
        <time>2022-03-19T11:21:12.000Z</time>
      </trkpt>
      <trkpt lat="43.97458" lon="7.09939">
        <ele>1316.1999511719</ele>
        <time>2022-03-19T11:21:14.000Z</time>
      </trkpt>
      <trkpt lat="43.97461" lon="7.09941">
        <ele>1316.4000244141</ele>
        <time>2022-03-19T11:21:15.000Z</time>
      </trkpt>
      <trkpt lat="43.97462" lon="7.09942">
        <ele>1316.5999755859</ele>
        <time>2022-03-19T11:21:16.000Z</time>
      </trkpt>
      <trkpt lat="43.97471" lon="7.09944">
        <ele>1316.8000488281</ele>
        <time>2022-03-19T11:21:19.000Z</time>
      </trkpt>
      <trkpt lat="43.97475" lon="7.09945">
        <ele>1316.8000488281</ele>
        <time>2022-03-19T11:21:21.000Z</time>
      </trkpt>
      <trkpt lat="43.97483" lon="7.09949">
        <ele>1317.1999511719</ele>
        <time>2022-03-19T11:21:25.000Z</time>
      </trkpt>
      <trkpt lat="43.97484" lon="7.0995">
        <ele>1317.4000244141</ele>
        <time>2022-03-19T11:21:26.000Z</time>
      </trkpt>
      <trkpt lat="43.9749" lon="7.09953">
        <ele>1317.8000488281</ele>
        <time>2022-03-19T11:21:30.000Z</time>
      </trkpt>
      <trkpt lat="43.97492" lon="7.09954">
        <ele>1318.4000244141</ele>
        <time>2022-03-19T11:21:32.000Z</time>
      </trkpt>
      <trkpt lat="43.97493" lon="7.09955">
        <ele>1318.8000488281</ele>
        <time>2022-03-19T11:21:33.000Z</time>
      </trkpt>
      <trkpt lat="43.97496" lon="7.09956">
        <ele>1319.1999511719</ele>
        <time>2022-03-19T11:21:35.000Z</time>
      </trkpt>
      <trkpt lat="43.97501" lon="7.09959">
        <ele>1319.8000488281</ele>
        <time>2022-03-19T11:21:38.000Z</time>
      </trkpt>
      <trkpt lat="43.97505" lon="7.09962">
        <ele>1320.1999511719</ele>
        <time>2022-03-19T11:21:40.000Z</time>
      </trkpt>
      <trkpt lat="43.97516" lon="7.09968">
        <ele>1320</ele>
        <time>2022-03-19T11:21:44.000Z</time>
      </trkpt>
      <trkpt lat="43.97528" lon="7.09983">
        <ele>1319.5999755859</ele>
        <time>2022-03-19T11:21:49.000Z</time>
      </trkpt>
      <trkpt lat="43.97542" lon="7.09999">
        <ele>1319</ele>
        <time>2022-03-19T11:21:54.000Z</time>
      </trkpt>
      <trkpt lat="43.97545" lon="7.10002">
        <ele>1318.8000488281</ele>
        <time>2022-03-19T11:21:55.000Z</time>
      </trkpt>
      <trkpt lat="43.97552" lon="7.10008">
        <ele>1317.1999511719</ele>
        <time>2022-03-19T11:21:57.000Z</time>
      </trkpt>
      <trkpt lat="43.97554" lon="7.1001">
        <ele>1316.4000244141</ele>
        <time>2022-03-19T11:21:58.000Z</time>
      </trkpt>
      <trkpt lat="43.97556" lon="7.10012">
        <ele>1316</ele>
        <time>2022-03-19T11:21:59.000Z</time>
      </trkpt>
      <trkpt lat="43.97558" lon="7.10013">
        <ele>1315.1999511719</ele>
        <time>2022-03-19T11:22:00.000Z</time>
      </trkpt>
      <trkpt lat="43.97558" lon="7.10013">
        <ele>1314.8000488281</ele>
        <time>2022-03-19T11:22:01.000Z</time>
      </trkpt>
      <trkpt lat="43.97558" lon="7.10013">
        <ele>1314</ele>
        <time>2022-03-19T11:22:02.000Z</time>
      </trkpt>
      <trkpt lat="43.97558" lon="7.10013">
        <ele>1313.4000244141</ele>
        <time>2022-03-19T11:22:03.000Z</time>
      </trkpt>
      <trkpt lat="43.97564" lon="7.10014">
        <ele>1313.1999511719</ele>
        <time>2022-03-19T11:22:10.000Z</time>
      </trkpt>
      <trkpt lat="43.9757" lon="7.10017">
        <ele>1314</ele>
        <time>2022-03-19T11:22:17.000Z</time>
      </trkpt>
      <trkpt lat="43.97574" lon="7.10019">
        <ele>1313.5999755859</ele>
        <time>2022-03-19T11:22:24.000Z</time>
      </trkpt>
      <trkpt lat="43.97579" lon="7.10026">
        <ele>1312.8000488281</ele>
        <time>2022-03-19T11:22:31.000Z</time>
      </trkpt>
      <trkpt lat="43.97579" lon="7.10026">
        <ele>1312.4000244141</ele>
        <time>2022-03-19T11:22:33.000Z</time>
      </trkpt>
      <trkpt lat="43.97581" lon="7.10029">
        <ele>1311.4000244141</ele>
        <time>2022-03-19T11:22:40.000Z</time>
      </trkpt>
      <trkpt lat="43.97583" lon="7.1003">
        <ele>1311.4000244141</ele>
        <time>2022-03-19T11:22:48.000Z</time>
      </trkpt>
      <trkpt lat="43.97586" lon="7.10033">
        <ele>1311.5999755859</ele>
        <time>2022-03-19T11:22:57.000Z</time>
      </trkpt>
      <trkpt lat="43.97588" lon="7.10033">
        <ele>1311.1999511719</ele>
        <time>2022-03-19T11:23:05.000Z</time>
      </trkpt>
      <trkpt lat="43.9759" lon="7.10033">
        <ele>1311.4000244141</ele>
        <time>2022-03-19T11:23:11.000Z</time>
      </trkpt>
      <trkpt lat="43.97592" lon="7.10036">
        <ele>1311</ele>
        <time>2022-03-19T11:23:18.000Z</time>
      </trkpt>
      <trkpt lat="43.97594" lon="7.10043">
        <ele>1310.5999755859</ele>
        <time>2022-03-19T11:23:24.000Z</time>
      </trkpt>
      <trkpt lat="43.97595" lon="7.10047">
        <ele>1310.4000244141</ele>
        <time>2022-03-19T11:23:27.000Z</time>
      </trkpt>
      <trkpt lat="43.97595" lon="7.10048">
        <ele>1310.4000244141</ele>
        <time>2022-03-19T11:23:28.000Z</time>
      </trkpt>
      <trkpt lat="43.97595" lon="7.1005">
        <ele>1309.5999755859</ele>
        <time>2022-03-19T11:23:31.000Z</time>
      </trkpt>
      <trkpt lat="43.97597" lon="7.10052">
        <ele>1309</ele>
        <time>2022-03-19T11:23:33.000Z</time>
      </trkpt>
      <trkpt lat="43.97599" lon="7.10054">
        <ele>1309</ele>
        <time>2022-03-19T11:23:38.000Z</time>
      </trkpt>
      <trkpt lat="43.97605" lon="7.10059">
        <ele>1308.4000244141</ele>
        <time>2022-03-19T11:23:45.000Z</time>
      </trkpt>
      <trkpt lat="43.97611" lon="7.10065">
        <ele>1308.1999511719</ele>
        <time>2022-03-19T11:23:48.000Z</time>
      </trkpt>
      <trkpt lat="43.97614" lon="7.10067">
        <ele>1308</ele>
        <time>2022-03-19T11:23:49.000Z</time>
      </trkpt>
      <trkpt lat="43.97625" lon="7.10081">
        <ele>1307</ele>
        <time>2022-03-19T11:23:53.000Z</time>
      </trkpt>
      <trkpt lat="43.9763" lon="7.10085">
        <ele>1306.4000244141</ele>
        <time>2022-03-19T11:23:54.000Z</time>
      </trkpt>
      <trkpt lat="43.97635" lon="7.10095">
        <ele>1305.4000244141</ele>
        <time>2022-03-19T11:23:56.000Z</time>
      </trkpt>
      <trkpt lat="43.97636" lon="7.10099">
        <ele>1304.8000488281</ele>
        <time>2022-03-19T11:23:57.000Z</time>
      </trkpt>
      <trkpt lat="43.97639" lon="7.10104">
        <ele>1304.1999511719</ele>
        <time>2022-03-19T11:23:58.000Z</time>
      </trkpt>
      <trkpt lat="43.97647" lon="7.10115">
        <ele>1303.4000244141</ele>
        <time>2022-03-19T11:24:01.000Z</time>
      </trkpt>
      <trkpt lat="43.97648" lon="7.10118">
        <ele>1302.5999755859</ele>
        <time>2022-03-19T11:24:02.000Z</time>
      </trkpt>
      <trkpt lat="43.97653" lon="7.10123">
        <ele>1301.5999755859</ele>
        <time>2022-03-19T11:24:04.000Z</time>
      </trkpt>
      <trkpt lat="43.97657" lon="7.10128">
        <ele>1300.4000244141</ele>
        <time>2022-03-19T11:24:06.000Z</time>
      </trkpt>
      <trkpt lat="43.97664" lon="7.10143">
        <ele>1299.1999511719</ele>
        <time>2022-03-19T11:24:09.000Z</time>
      </trkpt>
      <trkpt lat="43.97666" lon="7.10149">
        <ele>1298.5999755859</ele>
        <time>2022-03-19T11:24:10.000Z</time>
      </trkpt>
      <trkpt lat="43.97672" lon="7.10157">
        <ele>1297.8000488281</ele>
        <time>2022-03-19T11:24:12.000Z</time>
      </trkpt>
      <trkpt lat="43.97681" lon="7.1016">
        <ele>1297.1999511719</ele>
        <time>2022-03-19T11:24:14.000Z</time>
      </trkpt>
      <trkpt lat="43.97686" lon="7.10162">
        <ele>1296.8000488281</ele>
        <time>2022-03-19T11:24:15.000Z</time>
      </trkpt>
      <trkpt lat="43.9769" lon="7.10165">
        <ele>1296.5999755859</ele>
        <time>2022-03-19T11:24:16.000Z</time>
      </trkpt>
      <trkpt lat="43.97704" lon="7.10174">
        <ele>1295.5999755859</ele>
        <time>2022-03-19T11:24:19.000Z</time>
      </trkpt>
      <trkpt lat="43.97712" lon="7.10179">
        <ele>1294.4000244141</ele>
        <time>2022-03-19T11:24:21.000Z</time>
      </trkpt>
      <trkpt lat="43.97716" lon="7.10183">
        <ele>1293.8000488281</ele>
        <time>2022-03-19T11:24:22.000Z</time>
      </trkpt>
      <trkpt lat="43.9772" lon="7.10187">
        <ele>1293.1999511719</ele>
        <time>2022-03-19T11:24:23.000Z</time>
      </trkpt>
      <trkpt lat="43.97725" lon="7.10192">
        <ele>1292.8000488281</ele>
        <time>2022-03-19T11:24:24.000Z</time>
      </trkpt>
      <trkpt lat="43.97735" lon="7.10202">
        <ele>1291.5999755859</ele>
        <time>2022-03-19T11:24:26.000Z</time>
      </trkpt>
      <trkpt lat="43.97743" lon="7.10209">
        <ele>1290</ele>
        <time>2022-03-19T11:24:28.000Z</time>
      </trkpt>
      <trkpt lat="43.97748" lon="7.10217">
        <ele>1288.5999755859</ele>
        <time>2022-03-19T11:24:30.000Z</time>
      </trkpt>
      <trkpt lat="43.97754" lon="7.10224">
        <ele>1287.8000488281</ele>
        <time>2022-03-19T11:24:32.000Z</time>
      </trkpt>
      <trkpt lat="43.97757" lon="7.10223">
        <ele>1287</ele>
        <time>2022-03-19T11:24:33.000Z</time>
      </trkpt>
      <trkpt lat="43.97764" lon="7.10223">
        <ele>1286.1999511719</ele>
        <time>2022-03-19T11:24:35.000Z</time>
      </trkpt>
      <trkpt lat="43.97766" lon="7.10224">
        <ele>1285.8000488281</ele>
        <time>2022-03-19T11:24:36.000Z</time>
      </trkpt>
      <trkpt lat="43.9777" lon="7.10225">
        <ele>1285.5999755859</ele>
        <time>2022-03-19T11:24:37.000Z</time>
      </trkpt>
      <trkpt lat="43.97779" lon="7.10229">
        <ele>1285.4000244141</ele>
        <time>2022-03-19T11:24:39.000Z</time>
      </trkpt>
      <trkpt lat="43.97783" lon="7.10231">
        <ele>1284.8000488281</ele>
        <time>2022-03-19T11:24:40.000Z</time>
      </trkpt>
      <trkpt lat="43.97792" lon="7.1024">
        <ele>1283.1999511719</ele>
        <time>2022-03-19T11:24:43.000Z</time>
      </trkpt>
      <trkpt lat="43.97797" lon="7.10245">
        <ele>1281.5999755859</ele>
        <time>2022-03-19T11:24:45.000Z</time>
      </trkpt>
      <trkpt lat="43.97797" lon="7.10245">
        <ele>1280.4000244141</ele>
        <time>2022-03-19T11:24:46.000Z</time>
      </trkpt>
      <trkpt lat="43.97797" lon="7.10244">
        <ele>1279</ele>
        <time>2022-03-19T11:24:48.000Z</time>
      </trkpt>
      <trkpt lat="43.97797" lon="7.10244">
        <ele>1278.1999511719</ele>
        <time>2022-03-19T11:24:49.000Z</time>
      </trkpt>
      <trkpt lat="43.97796" lon="7.10244">
        <ele>1278.1999511719</ele>
        <time>2022-03-19T11:24:50.000Z</time>
      </trkpt>
      <trkpt lat="43.97796" lon="7.10243">
        <ele>1278.4000244141</ele>
        <time>2022-03-19T11:24:53.000Z</time>
      </trkpt>
      <trkpt lat="43.97798" lon="7.10244">
        <ele>1278.8000488281</ele>
        <time>2022-03-19T11:24:58.000Z</time>
      </trkpt>
      <trkpt lat="43.978" lon="7.10246">
        <ele>1279</ele>
        <time>2022-03-19T11:25:03.000Z</time>
      </trkpt>
      <trkpt lat="43.97809" lon="7.10248">
        <ele>1278.5999755859</ele>
        <time>2022-03-19T11:25:07.000Z</time>
      </trkpt>
      <trkpt lat="43.9781" lon="7.1025">
        <ele>1278.1999511719</ele>
        <time>2022-03-19T11:25:09.000Z</time>
      </trkpt>
      <trkpt lat="43.9781" lon="7.1025">
        <ele>1277.5999755859</ele>
        <time>2022-03-19T11:25:10.000Z</time>
      </trkpt>
      <trkpt lat="43.97809" lon="7.10255">
        <ele>1276.4000244141</ele>
        <time>2022-03-19T11:25:13.000Z</time>
      </trkpt>
      <trkpt lat="43.97808" lon="7.10258">
        <ele>1276</ele>
        <time>2022-03-19T11:25:14.000Z</time>
      </trkpt>
      <trkpt lat="43.97809" lon="7.10262">
        <ele>1275</ele>
        <time>2022-03-19T11:25:16.000Z</time>
      </trkpt>
      <trkpt lat="43.97814" lon="7.10267">
        <ele>1273.4000244141</ele>
        <time>2022-03-19T11:25:18.000Z</time>
      </trkpt>
      <trkpt lat="43.97822" lon="7.10268">
        <ele>1272</ele>
        <time>2022-03-19T11:25:20.000Z</time>
      </trkpt>
      <trkpt lat="43.97824" lon="7.10267">
        <ele>1271.1999511719</ele>
        <time>2022-03-19T11:25:21.000Z</time>
      </trkpt>
      <trkpt lat="43.97826" lon="7.10268">
        <ele>1270.5999755859</ele>
        <time>2022-03-19T11:25:22.000Z</time>
      </trkpt>
      <trkpt lat="43.9783" lon="7.10276">
        <ele>1269.4000244141</ele>
        <time>2022-03-19T11:25:24.000Z</time>
      </trkpt>
      <trkpt lat="43.97832" lon="7.10278">
        <ele>1268.8000488281</ele>
        <time>2022-03-19T11:25:25.000Z</time>
      </trkpt>
      <trkpt lat="43.97835" lon="7.10281">
        <ele>1268.1999511719</ele>
        <time>2022-03-19T11:25:26.000Z</time>
      </trkpt>
      <trkpt lat="43.97838" lon="7.10284">
        <ele>1266.8000488281</ele>
        <time>2022-03-19T11:25:27.000Z</time>
      </trkpt>
      <trkpt lat="43.97843" lon="7.10285">
        <ele>1265.5999755859</ele>
        <time>2022-03-19T11:25:28.000Z</time>
      </trkpt>
      <trkpt lat="43.97847" lon="7.10286">
        <ele>1264.5999755859</ele>
        <time>2022-03-19T11:25:29.000Z</time>
      </trkpt>
      <trkpt lat="43.97849" lon="7.10288">
        <ele>1264</ele>
        <time>2022-03-19T11:25:30.000Z</time>
      </trkpt>
      <trkpt lat="43.97861" lon="7.10289">
        <ele>1262.8000488281</ele>
        <time>2022-03-19T11:25:33.000Z</time>
      </trkpt>
      <trkpt lat="43.97866" lon="7.1029">
        <ele>1261.5999755859</ele>
        <time>2022-03-19T11:25:34.000Z</time>
      </trkpt>
      <trkpt lat="43.97873" lon="7.10293">
        <ele>1260</ele>
        <time>2022-03-19T11:25:36.000Z</time>
      </trkpt>
      <trkpt lat="43.97881" lon="7.10299">
        <ele>1258.8000488281</ele>
        <time>2022-03-19T11:25:38.000Z</time>
      </trkpt>
      <trkpt lat="43.97889" lon="7.10306">
        <ele>1257.8000488281</ele>
        <time>2022-03-19T11:25:40.000Z</time>
      </trkpt>
      <trkpt lat="43.97893" lon="7.10308">
        <ele>1257.1999511719</ele>
        <time>2022-03-19T11:25:41.000Z</time>
      </trkpt>
      <trkpt lat="43.97899" lon="7.10308">
        <ele>1256</ele>
        <time>2022-03-19T11:25:42.000Z</time>
      </trkpt>
      <trkpt lat="43.97905" lon="7.10309">
        <ele>1255.1999511719</ele>
        <time>2022-03-19T11:25:43.000Z</time>
      </trkpt>
      <trkpt lat="43.9791" lon="7.1031">
        <ele>1254.4000244141</ele>
        <time>2022-03-19T11:25:44.000Z</time>
      </trkpt>
      <trkpt lat="43.9792" lon="7.10313">
        <ele>1253.1999511719</ele>
        <time>2022-03-19T11:25:46.000Z</time>
      </trkpt>
      <trkpt lat="43.97928" lon="7.10315">
        <ele>1252.5999755859</ele>
        <time>2022-03-19T11:25:48.000Z</time>
      </trkpt>
      <trkpt lat="43.97932" lon="7.10316">
        <ele>1252.1999511719</ele>
        <time>2022-03-19T11:25:49.000Z</time>
      </trkpt>
      <trkpt lat="43.97937" lon="7.10318">
        <ele>1250.5999755859</ele>
        <time>2022-03-19T11:25:51.000Z</time>
      </trkpt>
      <trkpt lat="43.97938" lon="7.10318">
        <ele>1249.5999755859</ele>
        <time>2022-03-19T11:25:52.000Z</time>
      </trkpt>
      <trkpt lat="43.97937" lon="7.10318">
        <ele>1248.8000488281</ele>
        <time>2022-03-19T11:25:53.000Z</time>
      </trkpt>
      <trkpt lat="43.97938" lon="7.1032">
        <ele>1248</ele>
        <time>2022-03-19T11:25:56.000Z</time>
      </trkpt>
      <trkpt lat="43.9794" lon="7.10323">
        <ele>1248.4000244141</ele>
        <time>2022-03-19T11:26:02.000Z</time>
      </trkpt>
      <trkpt lat="43.97942" lon="7.10328">
        <ele>1249.1999511719</ele>
        <time>2022-03-19T11:26:09.000Z</time>
      </trkpt>
      <trkpt lat="43.97942" lon="7.1033">
        <ele>1249.8000488281</ele>
        <time>2022-03-19T11:26:12.000Z</time>
      </trkpt>
      <trkpt lat="43.97943" lon="7.10331">
        <ele>1250.5999755859</ele>
        <time>2022-03-19T11:26:17.000Z</time>
      </trkpt>
      <trkpt lat="43.97941" lon="7.10334">
        <ele>1250.5999755859</ele>
        <time>2022-03-19T11:26:23.000Z</time>
      </trkpt>
      <trkpt lat="43.97936" lon="7.10343">
        <ele>1250.5999755859</ele>
        <time>2022-03-19T11:26:30.000Z</time>
      </trkpt>
      <trkpt lat="43.97929" lon="7.1035">
        <ele>1250.4000244141</ele>
        <time>2022-03-19T11:26:34.000Z</time>
      </trkpt>
      <trkpt lat="43.97928" lon="7.10353">
        <ele>1250.5999755859</ele>
        <time>2022-03-19T11:26:35.000Z</time>
      </trkpt>
      <trkpt lat="43.97921" lon="7.10362">
        <ele>1250.1999511719</ele>
        <time>2022-03-19T11:26:39.000Z</time>
      </trkpt>
      <trkpt lat="43.97916" lon="7.10369">
        <ele>1250</ele>
        <time>2022-03-19T11:26:42.000Z</time>
      </trkpt>
      <trkpt lat="43.97914" lon="7.1037">
        <ele>1250</ele>
        <time>2022-03-19T11:26:43.000Z</time>
      </trkpt>
      <trkpt lat="43.97902" lon="7.10382">
        <ele>1249.8000488281</ele>
        <time>2022-03-19T11:26:48.000Z</time>
      </trkpt>
      <trkpt lat="43.97895" lon="7.10395">
        <ele>1249.5999755859</ele>
        <time>2022-03-19T11:26:51.000Z</time>
      </trkpt>
      <trkpt lat="43.97889" lon="7.10405">
        <ele>1248.8000488281</ele>
        <time>2022-03-19T11:26:53.000Z</time>
      </trkpt>
      <trkpt lat="43.97885" lon="7.10412">
        <ele>1248.4000244141</ele>
        <time>2022-03-19T11:26:54.000Z</time>
      </trkpt>
      <trkpt lat="43.97878" lon="7.10425">
        <ele>1247.5999755859</ele>
        <time>2022-03-19T11:26:56.000Z</time>
      </trkpt>
      <trkpt lat="43.97875" lon="7.10432">
        <ele>1247</ele>
        <time>2022-03-19T11:26:57.000Z</time>
      </trkpt>
      <trkpt lat="43.97875" lon="7.10439">
        <ele>1246.4000244141</ele>
        <time>2022-03-19T11:26:58.000Z</time>
      </trkpt>
      <trkpt lat="43.97873" lon="7.10449">
        <ele>1244.8000488281</ele>
        <time>2022-03-19T11:27:00.000Z</time>
      </trkpt>
      <trkpt lat="43.97864" lon="7.10477">
        <ele>1245.4000244141</ele>
        <time>2022-03-19T11:27:05.000Z</time>
      </trkpt>
      <trkpt lat="43.97851" lon="7.10519">
        <ele>1243.8000488281</ele>
        <time>2022-03-19T11:27:11.000Z</time>
      </trkpt>
      <trkpt lat="43.97848" lon="7.10526">
        <ele>1243.4000244141</ele>
        <time>2022-03-19T11:27:12.000Z</time>
      </trkpt>
      <trkpt lat="43.97837" lon="7.1054">
        <ele>1242.5999755859</ele>
        <time>2022-03-19T11:27:15.000Z</time>
      </trkpt>
      <trkpt lat="43.97816" lon="7.1057">
        <ele>1242.1999511719</ele>
        <time>2022-03-19T11:27:21.000Z</time>
      </trkpt>
      <trkpt lat="43.97811" lon="7.10573">
        <ele>1242</ele>
        <time>2022-03-19T11:27:22.000Z</time>
      </trkpt>
      <trkpt lat="43.97801" lon="7.10573">
        <ele>1241.1999511719</ele>
        <time>2022-03-19T11:27:24.000Z</time>
      </trkpt>
      <trkpt lat="43.97793" lon="7.10575">
        <ele>1240.5999755859</ele>
        <time>2022-03-19T11:27:26.000Z</time>
      </trkpt>
      <trkpt lat="43.97785" lon="7.1058">
        <ele>1239.8000488281</ele>
        <time>2022-03-19T11:27:28.000Z</time>
      </trkpt>
      <trkpt lat="43.9778" lon="7.10584">
        <ele>1239.1999511719</ele>
        <time>2022-03-19T11:27:29.000Z</time>
      </trkpt>
      <trkpt lat="43.97775" lon="7.10585">
        <ele>1238.5999755859</ele>
        <time>2022-03-19T11:27:30.000Z</time>
      </trkpt>
      <trkpt lat="43.9777" lon="7.10586">
        <ele>1237.5999755859</ele>
        <time>2022-03-19T11:27:31.000Z</time>
      </trkpt>
      <trkpt lat="43.97765" lon="7.10587">
        <ele>1237.1999511719</ele>
        <time>2022-03-19T11:27:32.000Z</time>
      </trkpt>
      <trkpt lat="43.97761" lon="7.10589">
        <ele>1236.8000488281</ele>
        <time>2022-03-19T11:27:33.000Z</time>
      </trkpt>
      <trkpt lat="43.97758" lon="7.10591">
        <ele>1236.4000244141</ele>
        <time>2022-03-19T11:27:34.000Z</time>
      </trkpt>
      <trkpt lat="43.97753" lon="7.10602">
        <ele>1235.8000488281</ele>
        <time>2022-03-19T11:27:36.000Z</time>
      </trkpt>
      <trkpt lat="43.97746" lon="7.10614">
        <ele>1235</ele>
        <time>2022-03-19T11:27:38.000Z</time>
      </trkpt>
      <trkpt lat="43.9774" lon="7.10614">
        <ele>1234</ele>
        <time>2022-03-19T11:27:39.000Z</time>
      </trkpt>
      <trkpt lat="43.97731" lon="7.10609">
        <ele>1232.1999511719</ele>
        <time>2022-03-19T11:27:41.000Z</time>
      </trkpt>
      <trkpt lat="43.97727" lon="7.10607">
        <ele>1231.4000244141</ele>
        <time>2022-03-19T11:27:42.000Z</time>
      </trkpt>
      <trkpt lat="43.97717" lon="7.10614">
        <ele>1231.4000244141</ele>
        <time>2022-03-19T11:27:45.000Z</time>
      </trkpt>
      <trkpt lat="43.97714" lon="7.10625">
        <ele>1232.1999511719</ele>
        <time>2022-03-19T11:27:48.000Z</time>
      </trkpt>
      <trkpt lat="43.97705" lon="7.10635">
        <ele>1233.1999511719</ele>
        <time>2022-03-19T11:27:51.000Z</time>
      </trkpt>
      <trkpt lat="43.97701" lon="7.10635">
        <ele>1233.4000244141</ele>
        <time>2022-03-19T11:27:52.000Z</time>
      </trkpt>
      <trkpt lat="43.97698" lon="7.10636">
        <ele>1233.4000244141</ele>
        <time>2022-03-19T11:27:53.000Z</time>
      </trkpt>
      <trkpt lat="43.97683" lon="7.10638">
        <ele>1233.5999755859</ele>
        <time>2022-03-19T11:27:58.000Z</time>
      </trkpt>
      <trkpt lat="43.97676" lon="7.1064">
        <ele>1234.1999511719</ele>
        <time>2022-03-19T11:28:01.000Z</time>
      </trkpt>
      <trkpt lat="43.97669" lon="7.10642">
        <ele>1235.4000244141</ele>
        <time>2022-03-19T11:28:05.000Z</time>
      </trkpt>
      <trkpt lat="43.97667" lon="7.10643">
        <ele>1235.5999755859</ele>
        <time>2022-03-19T11:28:06.000Z</time>
      </trkpt>
      <trkpt lat="43.97662" lon="7.10645">
        <ele>1236.4000244141</ele>
        <time>2022-03-19T11:28:09.000Z</time>
      </trkpt>
      <trkpt lat="43.97655" lon="7.10649">
        <ele>1237.4000244141</ele>
        <time>2022-03-19T11:28:13.000Z</time>
      </trkpt>
      <trkpt lat="43.97653" lon="7.1065">
        <ele>1237.4000244141</ele>
        <time>2022-03-19T11:28:14.000Z</time>
      </trkpt>
      <trkpt lat="43.97635" lon="7.10659">
        <ele>1238.1999511719</ele>
        <time>2022-03-19T11:28:22.000Z</time>
      </trkpt>
      <trkpt lat="43.97613" lon="7.10676">
        <ele>1237.4000244141</ele>
        <time>2022-03-19T11:28:29.000Z</time>
      </trkpt>
      <trkpt lat="43.97597" lon="7.10699">
        <ele>1237.4000244141</ele>
        <time>2022-03-19T11:28:36.000Z</time>
      </trkpt>
      <trkpt lat="43.97586" lon="7.10718">
        <ele>1238.4000244141</ele>
        <time>2022-03-19T11:28:41.000Z</time>
      </trkpt>
      <trkpt lat="43.97582" lon="7.10724">
        <ele>1238.5999755859</ele>
        <time>2022-03-19T11:28:43.000Z</time>
      </trkpt>
      <trkpt lat="43.97576" lon="7.10732">
        <ele>1238.8000488281</ele>
        <time>2022-03-19T11:28:46.000Z</time>
      </trkpt>
      <trkpt lat="43.97564" lon="7.10738">
        <ele>1239.5999755859</ele>
        <time>2022-03-19T11:28:51.000Z</time>
      </trkpt>
      <trkpt lat="43.97561" lon="7.10738">
        <ele>1239.5999755859</ele>
        <time>2022-03-19T11:28:52.000Z</time>
      </trkpt>
      <trkpt lat="43.97547" lon="7.10738">
        <ele>1240.5999755859</ele>
        <time>2022-03-19T11:28:58.000Z</time>
      </trkpt>
      <trkpt lat="43.97533" lon="7.10739">
        <ele>1241.8000488281</ele>
        <time>2022-03-19T11:29:04.000Z</time>
      </trkpt>
      <trkpt lat="43.97531" lon="7.10739">
        <ele>1242</ele>
        <time>2022-03-19T11:29:05.000Z</time>
      </trkpt>
      <trkpt lat="43.97516" lon="7.1074">
        <ele>1242.8000488281</ele>
        <time>2022-03-19T11:29:12.000Z</time>
      </trkpt>
      <trkpt lat="43.97502" lon="7.10745">
        <ele>1243.8000488281</ele>
        <time>2022-03-19T11:29:19.000Z</time>
      </trkpt>
      <trkpt lat="43.97492" lon="7.10749">
        <ele>1244.8000488281</ele>
        <time>2022-03-19T11:29:24.000Z</time>
      </trkpt>
      <trkpt lat="43.97489" lon="7.10752">
        <ele>1245.1999511719</ele>
        <time>2022-03-19T11:29:26.000Z</time>
      </trkpt>
      <trkpt lat="43.97482" lon="7.10755">
        <ele>1246</ele>
        <time>2022-03-19T11:29:29.000Z</time>
      </trkpt>
      <trkpt lat="43.97477" lon="7.10757">
        <ele>1246.8000488281</ele>
        <time>2022-03-19T11:29:32.000Z</time>
      </trkpt>
      <trkpt lat="43.97475" lon="7.10758">
        <ele>1247.1999511719</ele>
        <time>2022-03-19T11:29:33.000Z</time>
      </trkpt>
      <trkpt lat="43.97466" lon="7.10765">
        <ele>1248</ele>
        <time>2022-03-19T11:29:38.000Z</time>
      </trkpt>
      <trkpt lat="43.97464" lon="7.10766">
        <ele>1248.1999511719</ele>
        <time>2022-03-19T11:29:39.000Z</time>
      </trkpt>
      <trkpt lat="43.9745" lon="7.10774">
        <ele>1249</ele>
        <time>2022-03-19T11:29:45.000Z</time>
      </trkpt>
      <trkpt lat="43.97429" lon="7.10783">
        <ele>1248.5999755859</ele>
        <time>2022-03-19T11:29:51.000Z</time>
      </trkpt>
      <trkpt lat="43.9741" lon="7.10798">
        <ele>1247</ele>
        <time>2022-03-19T11:29:57.000Z</time>
      </trkpt>
      <trkpt lat="43.97407" lon="7.10801">
        <ele>1247</ele>
        <time>2022-03-19T11:29:58.000Z</time>
      </trkpt>
      <trkpt lat="43.9739" lon="7.10822">
        <ele>1246.4000244141</ele>
        <time>2022-03-19T11:30:03.000Z</time>
      </trkpt>
      <trkpt lat="43.97392" lon="7.10836">
        <ele>1246</ele>
        <time>2022-03-19T11:30:05.000Z</time>
      </trkpt>
      <trkpt lat="43.97399" lon="7.10871">
        <ele>1245.1999511719</ele>
        <time>2022-03-19T11:30:09.000Z</time>
      </trkpt>
      <trkpt lat="43.97398" lon="7.10882">
        <ele>1244.5999755859</ele>
        <time>2022-03-19T11:30:10.000Z</time>
      </trkpt>
      <trkpt lat="43.97398" lon="7.109">
        <ele>1243.1999511719</ele>
        <time>2022-03-19T11:30:12.000Z</time>
      </trkpt>
      <trkpt lat="43.97401" lon="7.10915">
        <ele>1242.1999511719</ele>
        <time>2022-03-19T11:30:14.000Z</time>
      </trkpt>
      <trkpt lat="43.97402" lon="7.1093">
        <ele>1241.8000488281</ele>
        <time>2022-03-19T11:30:16.000Z</time>
      </trkpt>
      <trkpt lat="43.97395" lon="7.10938">
        <ele>1241.4000244141</ele>
        <time>2022-03-19T11:30:18.000Z</time>
      </trkpt>
      <trkpt lat="43.9738" lon="7.10955">
        <ele>1240.8000488281</ele>
        <time>2022-03-19T11:30:22.000Z</time>
      </trkpt>
      <trkpt lat="43.97377" lon="7.1096">
        <ele>1240.1999511719</ele>
        <time>2022-03-19T11:30:23.000Z</time>
      </trkpt>
      <trkpt lat="43.97374" lon="7.10969">
        <ele>1239.1999511719</ele>
        <time>2022-03-19T11:30:25.000Z</time>
      </trkpt>
      <trkpt lat="43.97375" lon="7.10975">
        <ele>1239</ele>
        <time>2022-03-19T11:30:26.000Z</time>
      </trkpt>
      <trkpt lat="43.97378" lon="7.10987">
        <ele>1238</ele>
        <time>2022-03-19T11:30:28.000Z</time>
      </trkpt>
      <trkpt lat="43.9738" lon="7.10994">
        <ele>1237.8000488281</ele>
        <time>2022-03-19T11:30:29.000Z</time>
      </trkpt>
      <trkpt lat="43.97382" lon="7.11001">
        <ele>1237.4000244141</ele>
        <time>2022-03-19T11:30:30.000Z</time>
      </trkpt>
      <trkpt lat="43.97383" lon="7.11008">
        <ele>1237</ele>
        <time>2022-03-19T11:30:31.000Z</time>
      </trkpt>
      <trkpt lat="43.97383" lon="7.11015">
        <ele>1236.8000488281</ele>
        <time>2022-03-19T11:30:32.000Z</time>
      </trkpt>
      <trkpt lat="43.97384" lon="7.11029">
        <ele>1236.4000244141</ele>
        <time>2022-03-19T11:30:34.000Z</time>
      </trkpt>
      <trkpt lat="43.97383" lon="7.11034">
        <ele>1236.1999511719</ele>
        <time>2022-03-19T11:30:35.000Z</time>
      </trkpt>
      <trkpt lat="43.97379" lon="7.1104">
        <ele>1235.5999755859</ele>
        <time>2022-03-19T11:30:37.000Z</time>
      </trkpt>
      <trkpt lat="43.97376" lon="7.11044">
        <ele>1235.1999511719</ele>
        <time>2022-03-19T11:30:39.000Z</time>
      </trkpt>
      <trkpt lat="43.97372" lon="7.11048">
        <ele>1234.5999755859</ele>
        <time>2022-03-19T11:30:42.000Z</time>
      </trkpt>
      <trkpt lat="43.9737" lon="7.11048">
        <ele>1233.4000244141</ele>
        <time>2022-03-19T11:30:45.000Z</time>
      </trkpt>
      <trkpt lat="43.9737" lon="7.11047">
        <ele>1233.1999511719</ele>
        <time>2022-03-19T11:30:46.000Z</time>
      </trkpt>
      <trkpt lat="43.9737" lon="7.11047">
        <ele>1232.4000244141</ele>
        <time>2022-03-19T11:30:55.000Z</time>
      </trkpt>
      <trkpt lat="43.97371" lon="7.11047">
        <ele>1232</ele>
        <time>2022-03-19T11:30:59.000Z</time>
      </trkpt>
      <trkpt lat="43.9737" lon="7.11048">
        <ele>1231.1999511719</ele>
        <time>2022-03-19T11:31:04.000Z</time>
      </trkpt>
      <trkpt lat="43.9737" lon="7.11047">
        <ele>1230.4000244141</ele>
        <time>2022-03-19T11:31:07.000Z</time>
      </trkpt>
      <trkpt lat="43.97373" lon="7.11046">
        <ele>1230.4000244141</ele>
        <time>2022-03-19T11:31:14.000Z</time>
      </trkpt>
      <trkpt lat="43.97377" lon="7.11041">
        <ele>1231</ele>
        <time>2022-03-19T11:31:20.000Z</time>
      </trkpt>
      <trkpt lat="43.97377" lon="7.11041">
        <ele>1232</ele>
        <time>2022-03-19T11:31:24.000Z</time>
      </trkpt>
      <trkpt lat="43.97377" lon="7.11041">
        <ele>1232.1999511719</ele>
        <time>2022-03-19T11:31:25.000Z</time>
      </trkpt>
      <trkpt lat="43.97377" lon="7.11041">
        <ele>1232.8000488281</ele>
        <time>2022-03-19T11:31:31.000Z</time>
      </trkpt>
      <trkpt lat="43.97377" lon="7.11041">
        <ele>1232.4000244141</ele>
        <time>2022-03-19T11:31:37.000Z</time>
      </trkpt>
      <trkpt lat="43.97376" lon="7.11042">
        <ele>1232.8000488281</ele>
        <time>2022-03-19T11:31:43.000Z</time>
      </trkpt>
      <trkpt lat="43.97371" lon="7.11047">
        <ele>1232.5999755859</ele>
        <time>2022-03-19T11:31:48.000Z</time>
      </trkpt>
      <trkpt lat="43.9737" lon="7.11047">
        <ele>1232.4000244141</ele>
        <time>2022-03-19T11:31:49.000Z</time>
      </trkpt>
      <trkpt lat="43.97367" lon="7.11048">
        <ele>1231.5999755859</ele>
        <time>2022-03-19T11:31:52.000Z</time>
      </trkpt>
      <trkpt lat="43.97362" lon="7.11054">
        <ele>1231</ele>
        <time>2022-03-19T11:31:54.000Z</time>
      </trkpt>
      <trkpt lat="43.97361" lon="7.11057">
        <ele>1229.5999755859</ele>
        <time>2022-03-19T11:31:56.000Z</time>
      </trkpt>
      <trkpt lat="43.9736" lon="7.11061">
        <ele>1228</ele>
        <time>2022-03-19T11:31:58.000Z</time>
      </trkpt>
      <trkpt lat="43.97358" lon="7.11065">
        <ele>1226.8000488281</ele>
        <time>2022-03-19T11:32:00.000Z</time>
      </trkpt>
      <trkpt lat="43.97354" lon="7.11072">
        <ele>1225.4000244141</ele>
        <time>2022-03-19T11:32:02.000Z</time>
      </trkpt>
      <trkpt lat="43.97352" lon="7.11073">
        <ele>1224.5999755859</ele>
        <time>2022-03-19T11:32:03.000Z</time>
      </trkpt>
      <trkpt lat="43.9735" lon="7.11073">
        <ele>1224</ele>
        <time>2022-03-19T11:32:04.000Z</time>
      </trkpt>
      <trkpt lat="43.97346" lon="7.11074">
        <ele>1222.5999755859</ele>
        <time>2022-03-19T11:32:06.000Z</time>
      </trkpt>
      <trkpt lat="43.97345" lon="7.11075">
        <ele>1222.1999511719</ele>
        <time>2022-03-19T11:32:07.000Z</time>
      </trkpt>
      <trkpt lat="43.97344" lon="7.11079">
        <ele>1221.5999755859</ele>
        <time>2022-03-19T11:32:09.000Z</time>
      </trkpt>
      <trkpt lat="43.97342" lon="7.11082">
        <ele>1221.1999511719</ele>
        <time>2022-03-19T11:32:10.000Z</time>
      </trkpt>
      <trkpt lat="43.9734" lon="7.1109">
        <ele>1220.1999511719</ele>
        <time>2022-03-19T11:32:12.000Z</time>
      </trkpt>
      <trkpt lat="43.97336" lon="7.11097">
        <ele>1218.8000488281</ele>
        <time>2022-03-19T11:32:14.000Z</time>
      </trkpt>
      <trkpt lat="43.97329" lon="7.11106">
        <ele>1217.4000244141</ele>
        <time>2022-03-19T11:32:16.000Z</time>
      </trkpt>
      <trkpt lat="43.97326" lon="7.11111">
        <ele>1217</ele>
        <time>2022-03-19T11:32:17.000Z</time>
      </trkpt>
      <trkpt lat="43.97324" lon="7.11116">
        <ele>1216.4000244141</ele>
        <time>2022-03-19T11:32:18.000Z</time>
      </trkpt>
      <trkpt lat="43.97321" lon="7.11126">
        <ele>1215.4000244141</ele>
        <time>2022-03-19T11:32:20.000Z</time>
      </trkpt>
      <trkpt lat="43.9732" lon="7.11134">
        <ele>1214</ele>
        <time>2022-03-19T11:32:22.000Z</time>
      </trkpt>
      <trkpt lat="43.97318" lon="7.11137">
        <ele>1213.8000488281</ele>
        <time>2022-03-19T11:32:23.000Z</time>
      </trkpt>
      <trkpt lat="43.97316" lon="7.11143">
        <ele>1214</ele>
        <time>2022-03-19T11:32:24.000Z</time>
      </trkpt>
      <trkpt lat="43.97308" lon="7.11157">
        <ele>1214.5999755859</ele>
        <time>2022-03-19T11:32:28.000Z</time>
      </trkpt>
      <trkpt lat="43.97297" lon="7.11163">
        <ele>1215.1999511719</ele>
        <time>2022-03-19T11:32:31.000Z</time>
      </trkpt>
      <trkpt lat="43.9729" lon="7.11168">
        <ele>1215.5999755859</ele>
        <time>2022-03-19T11:32:33.000Z</time>
      </trkpt>
      <trkpt lat="43.97273" lon="7.11175">
        <ele>1215</ele>
        <time>2022-03-19T11:32:37.000Z</time>
      </trkpt>
      <trkpt lat="43.97261" lon="7.11177">
        <ele>1214.4000244141</ele>
        <time>2022-03-19T11:32:40.000Z</time>
      </trkpt>
      <trkpt lat="43.97258" lon="7.11178">
        <ele>1214</ele>
        <time>2022-03-19T11:32:41.000Z</time>
      </trkpt>
      <trkpt lat="43.97249" lon="7.11183">
        <ele>1213.5999755859</ele>
        <time>2022-03-19T11:32:45.000Z</time>
      </trkpt>
      <trkpt lat="43.97236" lon="7.11187">
        <ele>1213.4000244141</ele>
        <time>2022-03-19T11:32:50.000Z</time>
      </trkpt>
      <trkpt lat="43.97231" lon="7.11186">
        <ele>1212.8000488281</ele>
        <time>2022-03-19T11:32:52.000Z</time>
      </trkpt>
      <trkpt lat="43.97221" lon="7.11186">
        <ele>1212.5999755859</ele>
        <time>2022-03-19T11:32:55.000Z</time>
      </trkpt>
      <trkpt lat="43.97199" lon="7.11183">
        <ele>1213</ele>
        <time>2022-03-19T11:33:01.000Z</time>
      </trkpt>
      <trkpt lat="43.97178" lon="7.11172">
        <ele>1213.4000244141</ele>
        <time>2022-03-19T11:33:08.000Z</time>
      </trkpt>
      <trkpt lat="43.97171" lon="7.11171">
        <ele>1213</ele>
        <time>2022-03-19T11:33:12.000Z</time>
      </trkpt>
      <trkpt lat="43.97171" lon="7.11169">
        <ele>1213</ele>
        <time>2022-03-19T11:33:18.000Z</time>
      </trkpt>
      <trkpt lat="43.97169" lon="7.11166">
        <ele>1213.1999511719</ele>
        <time>2022-03-19T11:33:25.000Z</time>
      </trkpt>
      <trkpt lat="43.9717" lon="7.11167">
        <ele>1213.5999755859</ele>
        <time>2022-03-19T11:33:32.000Z</time>
      </trkpt>
      <trkpt lat="43.97169" lon="7.11167">
        <ele>1213</ele>
        <time>2022-03-19T11:33:38.000Z</time>
      </trkpt>
      <trkpt lat="43.97171" lon="7.1117">
        <ele>1213.5999755859</ele>
        <time>2022-03-19T11:33:45.000Z</time>
      </trkpt>
      <trkpt lat="43.97171" lon="7.11171">
        <ele>1213.5999755859</ele>
        <time>2022-03-19T11:33:49.000Z</time>
      </trkpt>
      <trkpt lat="43.97171" lon="7.1117">
        <ele>1213.4000244141</ele>
        <time>2022-03-19T11:33:50.000Z</time>
      </trkpt>
      <trkpt lat="43.9717" lon="7.11168">
        <ele>1213.1999511719</ele>
        <time>2022-03-19T11:33:56.000Z</time>
      </trkpt>
      <trkpt lat="43.97169" lon="7.1117">
        <ele>1213.5999755859</ele>
        <time>2022-03-19T11:34:04.000Z</time>
      </trkpt>
      <trkpt lat="43.97169" lon="7.1117">
        <ele>1213.5999755859</ele>
        <time>2022-03-19T11:34:13.000Z</time>
      </trkpt>
      <trkpt lat="43.97169" lon="7.11172">
        <ele>1213.8000488281</ele>
        <time>2022-03-19T11:34:20.000Z</time>
      </trkpt>
      <trkpt lat="43.97167" lon="7.11171">
        <ele>1213.5999755859</ele>
        <time>2022-03-19T11:34:29.000Z</time>
      </trkpt>
      <trkpt lat="43.97167" lon="7.1117">
        <ele>1213.4000244141</ele>
        <time>2022-03-19T11:34:35.000Z</time>
      </trkpt>
      <trkpt lat="43.97167" lon="7.11169">
        <ele>1213.5999755859</ele>
        <time>2022-03-19T11:34:42.000Z</time>
      </trkpt>
      <trkpt lat="43.97167" lon="7.11169">
        <ele>1213.8000488281</ele>
        <time>2022-03-19T11:34:47.000Z</time>
      </trkpt>
      <trkpt lat="43.97167" lon="7.11169">
        <ele>1213.4000244141</ele>
        <time>2022-03-19T11:34:53.000Z</time>
      </trkpt>
      <trkpt lat="43.97168" lon="7.11169">
        <ele>1213.5999755859</ele>
        <time>2022-03-19T11:35:01.000Z</time>
      </trkpt>
      <trkpt lat="43.97167" lon="7.11169">
        <ele>1214</ele>
        <time>2022-03-19T11:35:03.000Z</time>
      </trkpt>
      <trkpt lat="43.97167" lon="7.11169">
        <ele>1213.8000488281</ele>
        <time>2022-03-19T11:35:08.000Z</time>
      </trkpt>
      <trkpt lat="43.97167" lon="7.11168">
        <ele>1214</ele>
        <time>2022-03-19T11:35:19.000Z</time>
      </trkpt>
      <trkpt lat="43.97167" lon="7.11169">
        <ele>1214</ele>
        <time>2022-03-19T11:35:29.000Z</time>
      </trkpt>
      <trkpt lat="43.97166" lon="7.11169">
        <ele>1214</ele>
        <time>2022-03-19T11:35:31.000Z</time>
      </trkpt>
      <trkpt lat="43.97166" lon="7.11169">
        <ele>1214</ele>
        <time>2022-03-19T11:35:33.000Z</time>
      </trkpt>
      <trkpt lat="43.97166" lon="7.11168">
        <ele>1214</ele>
        <time>2022-03-19T11:35:41.000Z</time>
      </trkpt>
      <trkpt lat="43.97166" lon="7.11167">
        <ele>1214</ele>
        <time>2022-03-19T11:35:50.000Z</time>
      </trkpt>
      <trkpt lat="43.97166" lon="7.11166">
        <ele>1213.8000488281</ele>
        <time>2022-03-19T11:35:57.000Z</time>
      </trkpt>
      <trkpt lat="43.97166" lon="7.11167">
        <ele>1214</ele>
        <time>2022-03-19T11:36:04.000Z</time>
      </trkpt>
      <trkpt lat="43.97167" lon="7.11167">
        <ele>1213.5999755859</ele>
        <time>2022-03-19T11:36:14.000Z</time>
      </trkpt>
      <trkpt lat="43.97167" lon="7.11167">
        <ele>1213.5999755859</ele>
        <time>2022-03-19T11:36:22.000Z</time>
      </trkpt>
      <trkpt lat="43.97168" lon="7.11166">
        <ele>1214.1999511719</ele>
        <time>2022-03-19T11:36:34.000Z</time>
      </trkpt>
      <trkpt lat="43.97167" lon="7.11166">
        <ele>1213.8000488281</ele>
        <time>2022-03-19T11:36:44.000Z</time>
      </trkpt>
      <trkpt lat="43.97168" lon="7.11167">
        <ele>1213.4000244141</ele>
        <time>2022-03-19T11:36:54.000Z</time>
      </trkpt>
      <trkpt lat="43.97168" lon="7.11167">
        <ele>1214</ele>
        <time>2022-03-19T11:37:07.000Z</time>
      </trkpt>
      <trkpt lat="43.97168" lon="7.11166">
        <ele>1214.4000244141</ele>
        <time>2022-03-19T11:37:17.000Z</time>
      </trkpt>
      <trkpt lat="43.97167" lon="7.11167">
        <ele>1214.1999511719</ele>
        <time>2022-03-19T11:37:25.000Z</time>
      </trkpt>
      <trkpt lat="43.97167" lon="7.11168">
        <ele>1214.4000244141</ele>
        <time>2022-03-19T11:37:34.000Z</time>
      </trkpt>
      <trkpt lat="43.97167" lon="7.11168">
        <ele>1214.5999755859</ele>
        <time>2022-03-19T11:37:46.000Z</time>
      </trkpt>
      <trkpt lat="43.97167" lon="7.11169">
        <ele>1214</ele>
        <time>2022-03-19T11:37:56.000Z</time>
      </trkpt>
      <trkpt lat="43.97166" lon="7.11171">
        <ele>1214.4000244141</ele>
        <time>2022-03-19T11:38:05.000Z</time>
      </trkpt>
      <trkpt lat="43.97165" lon="7.11173">
        <ele>1214</ele>
        <time>2022-03-19T11:38:14.000Z</time>
      </trkpt>
      <trkpt lat="43.97165" lon="7.11173">
        <ele>1214.1999511719</ele>
        <time>2022-03-19T11:38:25.000Z</time>
      </trkpt>
      <trkpt lat="43.97163" lon="7.11177">
        <ele>1214</ele>
        <time>2022-03-19T11:38:37.000Z</time>
      </trkpt>
      <trkpt lat="43.97164" lon="7.11174">
        <ele>1214.1999511719</ele>
        <time>2022-03-19T11:38:48.000Z</time>
      </trkpt>
      <trkpt lat="43.97164" lon="7.11173">
        <ele>1214</ele>
        <time>2022-03-19T11:38:55.000Z</time>
      </trkpt>
      <trkpt lat="43.97163" lon="7.11174">
        <ele>1213.8000488281</ele>
        <time>2022-03-19T11:39:04.000Z</time>
      </trkpt>
      <trkpt lat="43.97165" lon="7.11173">
        <ele>1214.1999511719</ele>
        <time>2022-03-19T11:39:14.000Z</time>
      </trkpt>
      <trkpt lat="43.97165" lon="7.11171">
        <ele>1214.1999511719</ele>
        <time>2022-03-19T11:39:22.000Z</time>
      </trkpt>
      <trkpt lat="43.97165" lon="7.1117">
        <ele>1214.4000244141</ele>
        <time>2022-03-19T11:39:33.000Z</time>
      </trkpt>
      <trkpt lat="43.97165" lon="7.11171">
        <ele>1214.4000244141</ele>
        <time>2022-03-19T11:39:40.000Z</time>
      </trkpt>
      <trkpt lat="43.97166" lon="7.11171">
        <ele>1214.5999755859</ele>
        <time>2022-03-19T11:39:51.000Z</time>
      </trkpt>
      <trkpt lat="43.97167" lon="7.11168">
        <ele>1214.4000244141</ele>
        <time>2022-03-19T11:40:00.000Z</time>
      </trkpt>
      <trkpt lat="43.97167" lon="7.11168">
        <ele>1214.4000244141</ele>
        <time>2022-03-19T11:40:10.000Z</time>
      </trkpt>
      <trkpt lat="43.97167" lon="7.11167">
        <ele>1214.5999755859</ele>
        <time>2022-03-19T11:40:18.000Z</time>
      </trkpt>
      <trkpt lat="43.97167" lon="7.11167">
        <ele>1214.4000244141</ele>
        <time>2022-03-19T11:40:24.000Z</time>
      </trkpt>
      <trkpt lat="43.97167" lon="7.11167">
        <ele>1214.4000244141</ele>
        <time>2022-03-19T11:40:34.000Z</time>
      </trkpt>
      <trkpt lat="43.97166" lon="7.11167">
        <ele>1214.4000244141</ele>
        <time>2022-03-19T11:40:48.000Z</time>
      </trkpt>
      <trkpt lat="43.97167" lon="7.11168">
        <ele>1214.4000244141</ele>
        <time>2022-03-19T11:41:04.000Z</time>
      </trkpt>
      <trkpt lat="43.97166" lon="7.11169">
        <ele>1214.4000244141</ele>
        <time>2022-03-19T11:41:13.000Z</time>
      </trkpt>
      <trkpt lat="43.97166" lon="7.1117">
        <ele>1214.4000244141</ele>
        <time>2022-03-19T11:41:25.000Z</time>
      </trkpt>
      <trkpt lat="43.97167" lon="7.11169">
        <ele>1214.1999511719</ele>
        <time>2022-03-19T11:41:31.000Z</time>
      </trkpt>
      <trkpt lat="43.97168" lon="7.11171">
        <ele>1214.5999755859</ele>
        <time>2022-03-19T11:41:40.000Z</time>
      </trkpt>
      <trkpt lat="43.97168" lon="7.11169">
        <ele>1214.5999755859</ele>
        <time>2022-03-19T11:41:46.000Z</time>
      </trkpt>
      <trkpt lat="43.97168" lon="7.11169">
        <ele>1214.5999755859</ele>
        <time>2022-03-19T11:41:56.000Z</time>
      </trkpt>
      <trkpt lat="43.97168" lon="7.11166">
        <ele>1214.5999755859</ele>
        <time>2022-03-19T11:42:05.000Z</time>
      </trkpt>
      <trkpt lat="43.97168" lon="7.11166">
        <ele>1214.5999755859</ele>
        <time>2022-03-19T11:42:16.000Z</time>
      </trkpt>
      <trkpt lat="43.97167" lon="7.11166">
        <ele>1214.5999755859</ele>
        <time>2022-03-19T11:42:26.000Z</time>
      </trkpt>
      <trkpt lat="43.97167" lon="7.11166">
        <ele>1214.5999755859</ele>
        <time>2022-03-19T11:42:33.000Z</time>
      </trkpt>
      <trkpt lat="43.97167" lon="7.11166">
        <ele>1214.4000244141</ele>
        <time>2022-03-19T11:42:42.000Z</time>
      </trkpt>
      <trkpt lat="43.97166" lon="7.11167">
        <ele>1214.4000244141</ele>
        <time>2022-03-19T11:42:58.000Z</time>
      </trkpt>
      <trkpt lat="43.97166" lon="7.11168">
        <ele>1214.4000244141</ele>
        <time>2022-03-19T11:43:08.000Z</time>
      </trkpt>
      <trkpt lat="43.97166" lon="7.11169">
        <ele>1214.5999755859</ele>
        <time>2022-03-19T11:43:18.000Z</time>
      </trkpt>
      <trkpt lat="43.97166" lon="7.1117">
        <ele>1214.5999755859</ele>
        <time>2022-03-19T11:43:31.000Z</time>
      </trkpt>
      <trkpt lat="43.97167" lon="7.11169">
        <ele>1214.5999755859</ele>
        <time>2022-03-19T11:43:47.000Z</time>
      </trkpt>
      <trkpt lat="43.97166" lon="7.11168">
        <ele>1214.5999755859</ele>
        <time>2022-03-19T11:44:04.000Z</time>
      </trkpt>
      <trkpt lat="43.97166" lon="7.11169">
        <ele>1214.5999755859</ele>
        <time>2022-03-19T11:44:15.000Z</time>
      </trkpt>
      <trkpt lat="43.97166" lon="7.11169">
        <ele>1214.5999755859</ele>
        <time>2022-03-19T11:44:23.000Z</time>
      </trkpt>
      <trkpt lat="43.97166" lon="7.11169">
        <ele>1214.5999755859</ele>
        <time>2022-03-19T11:44:30.000Z</time>
      </trkpt>
      <trkpt lat="43.97167" lon="7.11168">
        <ele>1214.5999755859</ele>
        <time>2022-03-19T11:44:42.000Z</time>
      </trkpt>
      <trkpt lat="43.97168" lon="7.11168">
        <ele>1214.5999755859</ele>
        <time>2022-03-19T11:44:55.000Z</time>
      </trkpt>
      <trkpt lat="43.97168" lon="7.11168">
        <ele>1214.5999755859</ele>
        <time>2022-03-19T11:45:12.000Z</time>
      </trkpt>
      <trkpt lat="43.97168" lon="7.11169">
        <ele>1214.5999755859</ele>
        <time>2022-03-19T11:45:23.000Z</time>
      </trkpt>
      <trkpt lat="43.97169" lon="7.11167">
        <ele>1214.5999755859</ele>
        <time>2022-03-19T11:45:38.000Z</time>
      </trkpt>
      <trkpt lat="43.97168" lon="7.11167">
        <ele>1214.5999755859</ele>
        <time>2022-03-19T11:45:56.000Z</time>
      </trkpt>
      <trkpt lat="43.97169" lon="7.11167">
        <ele>1214.5999755859</ele>
        <time>2022-03-19T11:46:04.000Z</time>
      </trkpt>
      <trkpt lat="43.97168" lon="7.11168">
        <ele>1214.5999755859</ele>
        <time>2022-03-19T11:46:17.000Z</time>
      </trkpt>
      <trkpt lat="43.97167" lon="7.11169">
        <ele>1214.5999755859</ele>
        <time>2022-03-19T11:46:33.000Z</time>
      </trkpt>
      <trkpt lat="43.97167" lon="7.11168">
        <ele>1214.5999755859</ele>
        <time>2022-03-19T11:46:44.000Z</time>
      </trkpt>
      <trkpt lat="43.97166" lon="7.11169">
        <ele>1214.8000488281</ele>
        <time>2022-03-19T11:46:52.000Z</time>
      </trkpt>
      <trkpt lat="43.97166" lon="7.11169">
        <ele>1214.5999755859</ele>
        <time>2022-03-19T11:47:05.000Z</time>
      </trkpt>
      <trkpt lat="43.97167" lon="7.11168">
        <ele>1214.8000488281</ele>
        <time>2022-03-19T11:47:21.000Z</time>
      </trkpt>
      <trkpt lat="43.97166" lon="7.11167">
        <ele>1214.5999755859</ele>
        <time>2022-03-19T11:47:29.000Z</time>
      </trkpt>
      <trkpt lat="43.97164" lon="7.11168">
        <ele>1214.5999755859</ele>
        <time>2022-03-19T11:47:35.000Z</time>
      </trkpt>
      <trkpt lat="43.97164" lon="7.11167">
        <ele>1214.5999755859</ele>
        <time>2022-03-19T11:47:46.000Z</time>
      </trkpt>
      <trkpt lat="43.97165" lon="7.11166">
        <ele>1214.5999755859</ele>
        <time>2022-03-19T11:48:02.000Z</time>
      </trkpt>
      <trkpt lat="43.97165" lon="7.11167">
        <ele>1214.5999755859</ele>
        <time>2022-03-19T11:48:13.000Z</time>
      </trkpt>
      <trkpt lat="43.97166" lon="7.11167">
        <ele>1214.5999755859</ele>
        <time>2022-03-19T11:48:28.000Z</time>
      </trkpt>
      <trkpt lat="43.97166" lon="7.11167">
        <ele>1214.5999755859</ele>
        <time>2022-03-19T11:48:40.000Z</time>
      </trkpt>
      <trkpt lat="43.97167" lon="7.11167">
        <ele>1214.5999755859</ele>
        <time>2022-03-19T11:48:51.000Z</time>
      </trkpt>
      <trkpt lat="43.97167" lon="7.11168">
        <ele>1214.5999755859</ele>
        <time>2022-03-19T11:49:03.000Z</time>
      </trkpt>
      <trkpt lat="43.97168" lon="7.11167">
        <ele>1214.5999755859</ele>
        <time>2022-03-19T11:49:11.000Z</time>
      </trkpt>
      <trkpt lat="43.97167" lon="7.11167">
        <ele>1214.5999755859</ele>
        <time>2022-03-19T11:49:26.000Z</time>
      </trkpt>
      <trkpt lat="43.97166" lon="7.11167">
        <ele>1214.5999755859</ele>
        <time>2022-03-19T11:49:34.000Z</time>
      </trkpt>
      <trkpt lat="43.97167" lon="7.11166">
        <ele>1214.5999755859</ele>
        <time>2022-03-19T11:49:49.000Z</time>
      </trkpt>
      <trkpt lat="43.97168" lon="7.11167">
        <ele>1214.5999755859</ele>
        <time>2022-03-19T11:50:05.000Z</time>
      </trkpt>
      <trkpt lat="43.97165" lon="7.11168">
        <ele>1214.8000488281</ele>
        <time>2022-03-19T11:50:09.000Z</time>
      </trkpt>
      <trkpt lat="43.97164" lon="7.11169">
        <ele>1214.8000488281</ele>
        <time>2022-03-19T11:50:20.000Z</time>
      </trkpt>
      <trkpt lat="43.97164" lon="7.1117">
        <ele>1214.8000488281</ele>
        <time>2022-03-19T11:50:33.000Z</time>
      </trkpt>
      <trkpt lat="43.97162" lon="7.1117">
        <ele>1214.8000488281</ele>
        <time>2022-03-19T11:50:41.000Z</time>
      </trkpt>
      <trkpt lat="43.97163" lon="7.1117">
        <ele>1214.8000488281</ele>
        <time>2022-03-19T11:50:46.000Z</time>
      </trkpt>
      <trkpt lat="43.97164" lon="7.11169">
        <ele>1215</ele>
        <time>2022-03-19T11:50:49.000Z</time>
      </trkpt>
      <trkpt lat="43.97164" lon="7.11168">
        <ele>1214.4000244141</ele>
        <time>2022-03-19T11:50:57.000Z</time>
      </trkpt>
      <trkpt lat="43.97165" lon="7.11166">
        <ele>1214.1999511719</ele>
        <time>2022-03-19T11:51:07.000Z</time>
      </trkpt>
      <trkpt lat="43.97166" lon="7.11166">
        <ele>1214.4000244141</ele>
        <time>2022-03-19T11:51:18.000Z</time>
      </trkpt>
      <trkpt lat="43.97166" lon="7.11166">
        <ele>1215</ele>
        <time>2022-03-19T11:51:33.000Z</time>
      </trkpt>
      <trkpt lat="43.97167" lon="7.11166">
        <ele>1214.8000488281</ele>
        <time>2022-03-19T11:51:48.000Z</time>
      </trkpt>
      <trkpt lat="43.97167" lon="7.11166">
        <ele>1215</ele>
        <time>2022-03-19T11:51:58.000Z</time>
      </trkpt>
      <trkpt lat="43.97167" lon="7.11166">
        <ele>1214.8000488281</ele>
        <time>2022-03-19T11:52:11.000Z</time>
      </trkpt>
      <trkpt lat="43.97167" lon="7.11166">
        <ele>1214.5999755859</ele>
        <time>2022-03-19T11:52:22.000Z</time>
      </trkpt>
      <trkpt lat="43.97168" lon="7.11165">
        <ele>1214.5999755859</ele>
        <time>2022-03-19T11:52:35.000Z</time>
      </trkpt>
      <trkpt lat="43.97168" lon="7.11165">
        <ele>1215</ele>
        <time>2022-03-19T11:52:46.000Z</time>
      </trkpt>
      <trkpt lat="43.97167" lon="7.11166">
        <ele>1214.8000488281</ele>
        <time>2022-03-19T11:52:54.000Z</time>
      </trkpt>
      <trkpt lat="43.97167" lon="7.11169">
        <ele>1215</ele>
        <time>2022-03-19T11:53:03.000Z</time>
      </trkpt>
      <trkpt lat="43.97167" lon="7.11168">
        <ele>1215</ele>
        <time>2022-03-19T11:53:15.000Z</time>
      </trkpt>
      <trkpt lat="43.97167" lon="7.11169">
        <ele>1214.8000488281</ele>
        <time>2022-03-19T11:53:26.000Z</time>
      </trkpt>
      <trkpt lat="43.97167" lon="7.11168">
        <ele>1214.8000488281</ele>
        <time>2022-03-19T11:53:33.000Z</time>
      </trkpt>
      <trkpt lat="43.97167" lon="7.11169">
        <ele>1214.8000488281</ele>
        <time>2022-03-19T11:53:40.000Z</time>
      </trkpt>
      <trkpt lat="43.97167" lon="7.11168">
        <ele>1214.5999755859</ele>
        <time>2022-03-19T11:53:52.000Z</time>
      </trkpt>
      <trkpt lat="43.97167" lon="7.11169">
        <ele>1214.4000244141</ele>
        <time>2022-03-19T11:54:03.000Z</time>
      </trkpt>
      <trkpt lat="43.97167" lon="7.11168">
        <ele>1214.8000488281</ele>
        <time>2022-03-19T11:54:15.000Z</time>
      </trkpt>
      <trkpt lat="43.97167" lon="7.11167">
        <ele>1214.8000488281</ele>
        <time>2022-03-19T11:54:38.000Z</time>
      </trkpt>
      <trkpt lat="43.97167" lon="7.11165">
        <ele>1214.8000488281</ele>
        <time>2022-03-19T11:54:58.000Z</time>
      </trkpt>
      <trkpt lat="43.97167" lon="7.11166">
        <ele>1214.8000488281</ele>
        <time>2022-03-19T11:55:11.000Z</time>
      </trkpt>
      <trkpt lat="43.97166" lon="7.11166">
        <ele>1215</ele>
        <time>2022-03-19T11:55:29.000Z</time>
      </trkpt>
      <trkpt lat="43.97164" lon="7.11166">
        <ele>1215</ele>
        <time>2022-03-19T11:55:48.000Z</time>
      </trkpt>
      <trkpt lat="43.97164" lon="7.11167">
        <ele>1215</ele>
        <time>2022-03-19T11:56:06.000Z</time>
      </trkpt>
      <trkpt lat="43.97164" lon="7.11168">
        <ele>1215</ele>
        <time>2022-03-19T11:56:22.000Z</time>
      </trkpt>
      <trkpt lat="43.97165" lon="7.11168">
        <ele>1215</ele>
        <time>2022-03-19T11:56:36.000Z</time>
      </trkpt>
      <trkpt lat="43.97165" lon="7.11168">
        <ele>1215</ele>
        <time>2022-03-19T11:56:50.000Z</time>
      </trkpt>
      <trkpt lat="43.97165" lon="7.11169">
        <ele>1215</ele>
        <time>2022-03-19T11:57:05.000Z</time>
      </trkpt>
      <trkpt lat="43.97166" lon="7.11168">
        <ele>1214.8000488281</ele>
        <time>2022-03-19T11:57:18.000Z</time>
      </trkpt>
      <trkpt lat="43.97166" lon="7.11168">
        <ele>1214.5999755859</ele>
        <time>2022-03-19T11:57:26.000Z</time>
      </trkpt>
      <trkpt lat="43.97167" lon="7.11169">
        <ele>1214.5999755859</ele>
        <time>2022-03-19T11:57:34.000Z</time>
      </trkpt>
      <trkpt lat="43.97166" lon="7.11169">
        <ele>1215.1999511719</ele>
        <time>2022-03-19T11:57:39.000Z</time>
      </trkpt>
      <trkpt lat="43.97167" lon="7.11169">
        <ele>1214.8000488281</ele>
        <time>2022-03-19T11:57:48.000Z</time>
      </trkpt>
      <trkpt lat="43.97168" lon="7.11169">
        <ele>1214.5999755859</ele>
        <time>2022-03-19T11:57:57.000Z</time>
      </trkpt>
      <trkpt lat="43.97169" lon="7.11169">
        <ele>1214.5999755859</ele>
        <time>2022-03-19T11:58:06.000Z</time>
      </trkpt>
      <trkpt lat="43.97169" lon="7.11168">
        <ele>1214.8000488281</ele>
        <time>2022-03-19T11:58:12.000Z</time>
      </trkpt>
      <trkpt lat="43.97169" lon="7.11169">
        <ele>1214.8000488281</ele>
        <time>2022-03-19T11:58:21.000Z</time>
      </trkpt>
      <trkpt lat="43.97171" lon="7.11169">
        <ele>1214.8000488281</ele>
        <time>2022-03-19T11:58:27.000Z</time>
      </trkpt>
      <trkpt lat="43.9717" lon="7.11168">
        <ele>1214.5999755859</ele>
        <time>2022-03-19T11:58:34.000Z</time>
      </trkpt>
      <trkpt lat="43.9717" lon="7.11168">
        <ele>1214.5999755859</ele>
        <time>2022-03-19T11:58:44.000Z</time>
      </trkpt>
      <trkpt lat="43.9717" lon="7.11169">
        <ele>1214.8000488281</ele>
        <time>2022-03-19T11:58:52.000Z</time>
      </trkpt>
      <trkpt lat="43.97169" lon="7.11169">
        <ele>1215</ele>
        <time>2022-03-19T11:58:59.000Z</time>
      </trkpt>
      <trkpt lat="43.97169" lon="7.1117">
        <ele>1214.4000244141</ele>
        <time>2022-03-19T11:59:05.000Z</time>
      </trkpt>
      <trkpt lat="43.97169" lon="7.11169">
        <ele>1214.5999755859</ele>
        <time>2022-03-19T11:59:12.000Z</time>
      </trkpt>
      <trkpt lat="43.9717" lon="7.11171">
        <ele>1215.1999511719</ele>
        <time>2022-03-19T11:59:20.000Z</time>
      </trkpt>
      <trkpt lat="43.9717" lon="7.11171">
        <ele>1215.1999511719</ele>
        <time>2022-03-19T11:59:30.000Z</time>
      </trkpt>
      <trkpt lat="43.97169" lon="7.11172">
        <ele>1215.4000244141</ele>
        <time>2022-03-19T11:59:37.000Z</time>
      </trkpt>
      <trkpt lat="43.97169" lon="7.11172">
        <ele>1214.8000488281</ele>
        <time>2022-03-19T11:59:51.000Z</time>
      </trkpt>
      <trkpt lat="43.97169" lon="7.11171">
        <ele>1214.8000488281</ele>
        <time>2022-03-19T12:00:01.000Z</time>
      </trkpt>
      <trkpt lat="43.97169" lon="7.1117">
        <ele>1215</ele>
        <time>2022-03-19T12:00:11.000Z</time>
      </trkpt>
      <trkpt lat="43.97171" lon="7.11169">
        <ele>1215.4000244141</ele>
        <time>2022-03-19T12:00:13.000Z</time>
      </trkpt>
      <trkpt lat="43.97171" lon="7.11169">
        <ele>1215.5999755859</ele>
        <time>2022-03-19T12:00:15.000Z</time>
      </trkpt>
      <trkpt lat="43.97169" lon="7.1117">
        <ele>1215.1999511719</ele>
        <time>2022-03-19T12:00:24.000Z</time>
      </trkpt>
      <trkpt lat="43.9717" lon="7.1117">
        <ele>1215.4000244141</ele>
        <time>2022-03-19T12:00:30.000Z</time>
      </trkpt>
      <trkpt lat="43.9717" lon="7.11171">
        <ele>1215.4000244141</ele>
        <time>2022-03-19T12:00:38.000Z</time>
      </trkpt>
      <trkpt lat="43.97169" lon="7.11171">
        <ele>1215</ele>
        <time>2022-03-19T12:00:45.000Z</time>
      </trkpt>
      <trkpt lat="43.97169" lon="7.11169">
        <ele>1215.4000244141</ele>
        <time>2022-03-19T12:00:56.000Z</time>
      </trkpt>
      <trkpt lat="43.97169" lon="7.11169">
        <ele>1215</ele>
        <time>2022-03-19T12:01:03.000Z</time>
      </trkpt>
      <trkpt lat="43.97169" lon="7.11169">
        <ele>1215.1999511719</ele>
        <time>2022-03-19T12:01:12.000Z</time>
      </trkpt>
      <trkpt lat="43.97169" lon="7.11169">
        <ele>1215.1999511719</ele>
        <time>2022-03-19T12:01:24.000Z</time>
      </trkpt>
      <trkpt lat="43.97169" lon="7.11169">
        <ele>1215</ele>
        <time>2022-03-19T12:01:29.000Z</time>
      </trkpt>
      <trkpt lat="43.97169" lon="7.11169">
        <ele>1215.4000244141</ele>
        <time>2022-03-19T12:01:34.000Z</time>
      </trkpt>
      <trkpt lat="43.97168" lon="7.1117">
        <ele>1215</ele>
        <time>2022-03-19T12:01:44.000Z</time>
      </trkpt>
      <trkpt lat="43.97167" lon="7.11172">
        <ele>1215</ele>
        <time>2022-03-19T12:01:47.000Z</time>
      </trkpt>
      <trkpt lat="43.97167" lon="7.11173">
        <ele>1215.5999755859</ele>
        <time>2022-03-19T12:01:54.000Z</time>
      </trkpt>
      <trkpt lat="43.97168" lon="7.11172">
        <ele>1215.5999755859</ele>
        <time>2022-03-19T12:02:03.000Z</time>
      </trkpt>
      <trkpt lat="43.97168" lon="7.11171">
        <ele>1215.4000244141</ele>
        <time>2022-03-19T12:02:08.000Z</time>
      </trkpt>
      <trkpt lat="43.97168" lon="7.1117">
        <ele>1215.4000244141</ele>
        <time>2022-03-19T12:02:09.000Z</time>
      </trkpt>
      <trkpt lat="43.97168" lon="7.11169">
        <ele>1215.5999755859</ele>
        <time>2022-03-19T12:02:12.000Z</time>
      </trkpt>
      <trkpt lat="43.97169" lon="7.1117">
        <ele>1215.8000488281</ele>
        <time>2022-03-19T12:02:19.000Z</time>
      </trkpt>
      <trkpt lat="43.97168" lon="7.1117">
        <ele>1215.4000244141</ele>
        <time>2022-03-19T12:02:26.000Z</time>
      </trkpt>
      <trkpt lat="43.97168" lon="7.11169">
        <ele>1215.4000244141</ele>
        <time>2022-03-19T12:02:32.000Z</time>
      </trkpt>
      <trkpt lat="43.97168" lon="7.11169">
        <ele>1215.4000244141</ele>
        <time>2022-03-19T12:02:34.000Z</time>
      </trkpt>
      <trkpt lat="43.9717" lon="7.1117">
        <ele>1215.1999511719</ele>
        <time>2022-03-19T12:02:46.000Z</time>
      </trkpt>
      <trkpt lat="43.9717" lon="7.1117">
        <ele>1215.5999755859</ele>
        <time>2022-03-19T12:02:51.000Z</time>
      </trkpt>
      <trkpt lat="43.9717" lon="7.1117">
        <ele>1215.8000488281</ele>
        <time>2022-03-19T12:02:58.000Z</time>
      </trkpt>
      <trkpt lat="43.9717" lon="7.11169">
        <ele>1215.5999755859</ele>
        <time>2022-03-19T12:03:04.000Z</time>
      </trkpt>
      <trkpt lat="43.9717" lon="7.11169">
        <ele>1215.4000244141</ele>
        <time>2022-03-19T12:03:11.000Z</time>
      </trkpt>
      <trkpt lat="43.9717" lon="7.11169">
        <ele>1214.8000488281</ele>
        <time>2022-03-19T12:03:19.000Z</time>
      </trkpt>
      <trkpt lat="43.9717" lon="7.11168">
        <ele>1215.1999511719</ele>
        <time>2022-03-19T12:03:26.000Z</time>
      </trkpt>
      <trkpt lat="43.97169" lon="7.11167">
        <ele>1215.1999511719</ele>
        <time>2022-03-19T12:03:32.000Z</time>
      </trkpt>
      <trkpt lat="43.97168" lon="7.11167">
        <ele>1215.4000244141</ele>
        <time>2022-03-19T12:03:39.000Z</time>
      </trkpt>
      <trkpt lat="43.97167" lon="7.11168">
        <ele>1215.5999755859</ele>
        <time>2022-03-19T12:03:47.000Z</time>
      </trkpt>
      <trkpt lat="43.97167" lon="7.11169">
        <ele>1215.1999511719</ele>
        <time>2022-03-19T12:03:53.000Z</time>
      </trkpt>
      <trkpt lat="43.9717" lon="7.11169">
        <ele>1215.1999511719</ele>
        <time>2022-03-19T12:03:55.000Z</time>
      </trkpt>
      <trkpt lat="43.97169" lon="7.11169">
        <ele>1215.1999511719</ele>
        <time>2022-03-19T12:03:56.000Z</time>
      </trkpt>
      <trkpt lat="43.97171" lon="7.11171">
        <ele>1215.1999511719</ele>
        <time>2022-03-19T12:04:04.000Z</time>
      </trkpt>
      <trkpt lat="43.97171" lon="7.11172">
        <ele>1215.4000244141</ele>
        <time>2022-03-19T12:04:10.000Z</time>
      </trkpt>
      <trkpt lat="43.97173" lon="7.11173">
        <ele>1215.5999755859</ele>
        <time>2022-03-19T12:04:16.000Z</time>
      </trkpt>
      <trkpt lat="43.97173" lon="7.11173">
        <ele>1215.5999755859</ele>
        <time>2022-03-19T12:04:24.000Z</time>
      </trkpt>
      <trkpt lat="43.97173" lon="7.11173">
        <ele>1215.5999755859</ele>
        <time>2022-03-19T12:04:32.000Z</time>
      </trkpt>
      <trkpt lat="43.97173" lon="7.11173">
        <ele>1216</ele>
        <time>2022-03-19T12:04:35.000Z</time>
      </trkpt>
      <trkpt lat="43.97173" lon="7.11173">
        <ele>1216.4000244141</ele>
        <time>2022-03-19T12:04:41.000Z</time>
      </trkpt>
      <trkpt lat="43.97173" lon="7.11172">
        <ele>1216.1999511719</ele>
        <time>2022-03-19T12:04:49.000Z</time>
      </trkpt>
      <trkpt lat="43.97172" lon="7.11172">
        <ele>1216</ele>
        <time>2022-03-19T12:04:54.000Z</time>
      </trkpt>
      <trkpt lat="43.97171" lon="7.11172">
        <ele>1216.1999511719</ele>
        <time>2022-03-19T12:05:02.000Z</time>
      </trkpt>
      <trkpt lat="43.97171" lon="7.11172">
        <ele>1216.4000244141</ele>
        <time>2022-03-19T12:05:16.000Z</time>
      </trkpt>
      <trkpt lat="43.9717" lon="7.11171">
        <ele>1216.1999511719</ele>
        <time>2022-03-19T12:05:26.000Z</time>
      </trkpt>
      <trkpt lat="43.97171" lon="7.11171">
        <ele>1216.1999511719</ele>
        <time>2022-03-19T12:05:36.000Z</time>
      </trkpt>
      <trkpt lat="43.97171" lon="7.11171">
        <ele>1216.1999511719</ele>
        <time>2022-03-19T12:05:41.000Z</time>
      </trkpt>
      <trkpt lat="43.97169" lon="7.11176">
        <ele>1216.8000488281</ele>
        <time>2022-03-19T12:05:48.000Z</time>
      </trkpt>
      <trkpt lat="43.97168" lon="7.11176">
        <ele>1217</ele>
        <time>2022-03-19T12:05:49.000Z</time>
      </trkpt>
      <trkpt lat="43.97167" lon="7.11177">
        <ele>1217.1999511719</ele>
        <time>2022-03-19T12:05:51.000Z</time>
      </trkpt>
      <trkpt lat="43.97164" lon="7.11176">
        <ele>1217.4000244141</ele>
        <time>2022-03-19T12:05:53.000Z</time>
      </trkpt>
      <trkpt lat="43.97163" lon="7.11177">
        <ele>1217.4000244141</ele>
        <time>2022-03-19T12:05:54.000Z</time>
      </trkpt>
      <trkpt lat="43.97158" lon="7.1118">
        <ele>1217.4000244141</ele>
        <time>2022-03-19T12:05:57.000Z</time>
      </trkpt>
      <trkpt lat="43.9715" lon="7.11188">
        <ele>1217.5999755859</ele>
        <time>2022-03-19T12:06:02.000Z</time>
      </trkpt>
      <trkpt lat="43.97134" lon="7.11193">
        <ele>1217</ele>
        <time>2022-03-19T12:06:08.000Z</time>
      </trkpt>
      <trkpt lat="43.97112" lon="7.112">
        <ele>1216.1999511719</ele>
        <time>2022-03-19T12:06:14.000Z</time>
      </trkpt>
      <trkpt lat="43.97104" lon="7.11201">
        <ele>1215.8000488281</ele>
        <time>2022-03-19T12:06:16.000Z</time>
      </trkpt>
      <trkpt lat="43.97083" lon="7.11206">
        <ele>1215</ele>
        <time>2022-03-19T12:06:22.000Z</time>
      </trkpt>
      <trkpt lat="43.97064" lon="7.11214">
        <ele>1215.1999511719</ele>
        <time>2022-03-19T12:06:28.000Z</time>
      </trkpt>
      <trkpt lat="43.97046" lon="7.11224">
        <ele>1215.8000488281</ele>
        <time>2022-03-19T12:06:35.000Z</time>
      </trkpt>
      <trkpt lat="43.97036" lon="7.11236">
        <ele>1216.8000488281</ele>
        <time>2022-03-19T12:06:40.000Z</time>
      </trkpt>
      <trkpt lat="43.9703" lon="7.11242">
        <ele>1217</ele>
        <time>2022-03-19T12:06:42.000Z</time>
      </trkpt>
      <trkpt lat="43.97012" lon="7.11261">
        <ele>1216.4000244141</ele>
        <time>2022-03-19T12:06:47.000Z</time>
      </trkpt>
      <trkpt lat="43.96994" lon="7.11273">
        <ele>1215.8000488281</ele>
        <time>2022-03-19T12:06:50.000Z</time>
      </trkpt>
      <trkpt lat="43.96987" lon="7.11278">
        <ele>1215.4000244141</ele>
        <time>2022-03-19T12:06:51.000Z</time>
      </trkpt>
      <trkpt lat="43.96972" lon="7.11285">
        <ele>1214.4000244141</ele>
        <time>2022-03-19T12:06:53.000Z</time>
      </trkpt>
      <trkpt lat="43.96954" lon="7.11296">
        <ele>1212.4000244141</ele>
        <time>2022-03-19T12:06:55.000Z</time>
      </trkpt>
      <trkpt lat="43.96945" lon="7.11302">
        <ele>1210.8000488281</ele>
        <time>2022-03-19T12:06:56.000Z</time>
      </trkpt>
      <trkpt lat="43.96927" lon="7.11311">
        <ele>1208.5999755859</ele>
        <time>2022-03-19T12:06:58.000Z</time>
      </trkpt>
      <trkpt lat="43.96909" lon="7.11317">
        <ele>1207</ele>
        <time>2022-03-19T12:07:00.000Z</time>
      </trkpt>
      <trkpt lat="43.96891" lon="7.11324">
        <ele>1205.1999511719</ele>
        <time>2022-03-19T12:07:02.000Z</time>
      </trkpt>
      <trkpt lat="43.96873" lon="7.11328">
        <ele>1203.8000488281</ele>
        <time>2022-03-19T12:07:04.000Z</time>
      </trkpt>
      <trkpt lat="43.96865" lon="7.11331">
        <ele>1203.8000488281</ele>
        <time>2022-03-19T12:07:05.000Z</time>
      </trkpt>
      <trkpt lat="43.96847" lon="7.11337">
        <ele>1202.5999755859</ele>
        <time>2022-03-19T12:07:07.000Z</time>
      </trkpt>
      <trkpt lat="43.96839" lon="7.11341">
        <ele>1202.1999511719</ele>
        <time>2022-03-19T12:07:08.000Z</time>
      </trkpt>
      <trkpt lat="43.96832" lon="7.11346">
        <ele>1201.8000488281</ele>
        <time>2022-03-19T12:07:09.000Z</time>
      </trkpt>
      <trkpt lat="43.96816" lon="7.11359">
        <ele>1201.4000244141</ele>
        <time>2022-03-19T12:07:11.000Z</time>
      </trkpt>
      <trkpt lat="43.96789" lon="7.1138">
        <ele>1199.8000488281</ele>
        <time>2022-03-19T12:07:14.000Z</time>
      </trkpt>
      <trkpt lat="43.96772" lon="7.11392">
        <ele>1198.1999511719</ele>
        <time>2022-03-19T12:07:16.000Z</time>
      </trkpt>
      <trkpt lat="43.96757" lon="7.11404">
        <ele>1196.8000488281</ele>
        <time>2022-03-19T12:07:18.000Z</time>
      </trkpt>
      <trkpt lat="43.96749" lon="7.11412">
        <ele>1196.1999511719</ele>
        <time>2022-03-19T12:07:19.000Z</time>
      </trkpt>
      <trkpt lat="43.96742" lon="7.1142">
        <ele>1196</ele>
        <time>2022-03-19T12:07:20.000Z</time>
      </trkpt>
      <trkpt lat="43.96735" lon="7.11427">
        <ele>1195.8000488281</ele>
        <time>2022-03-19T12:07:21.000Z</time>
      </trkpt>
      <trkpt lat="43.96717" lon="7.11446">
        <ele>1194.5999755859</ele>
        <time>2022-03-19T12:07:24.000Z</time>
      </trkpt>
      <trkpt lat="43.96713" lon="7.11453">
        <ele>1194.4000244141</ele>
        <time>2022-03-19T12:07:25.000Z</time>
      </trkpt>
      <trkpt lat="43.96699" lon="7.11463">
        <ele>1193.4000244141</ele>
        <time>2022-03-19T12:07:28.000Z</time>
      </trkpt>
      <trkpt lat="43.96694" lon="7.11465">
        <ele>1193.4000244141</ele>
        <time>2022-03-19T12:07:29.000Z</time>
      </trkpt>
      <trkpt lat="43.9669" lon="7.11469">
        <ele>1193.1999511719</ele>
        <time>2022-03-19T12:07:30.000Z</time>
      </trkpt>
      <trkpt lat="43.96684" lon="7.11479">
        <ele>1193.4000244141</ele>
        <time>2022-03-19T12:07:32.000Z</time>
      </trkpt>
      <trkpt lat="43.96688" lon="7.11495">
        <ele>1192.5999755859</ele>
        <time>2022-03-19T12:07:35.000Z</time>
      </trkpt>
      <trkpt lat="43.96693" lon="7.11504">
        <ele>1192</ele>
        <time>2022-03-19T12:07:36.000Z</time>
      </trkpt>
      <trkpt lat="43.96695" lon="7.11511">
        <ele>1191.8000488281</ele>
        <time>2022-03-19T12:07:37.000Z</time>
      </trkpt>
      <trkpt lat="43.96697" lon="7.1152">
        <ele>1191.1999511719</ele>
        <time>2022-03-19T12:07:38.000Z</time>
      </trkpt>
      <trkpt lat="43.96697" lon="7.11529">
        <ele>1190.5999755859</ele>
        <time>2022-03-19T12:07:39.000Z</time>
      </trkpt>
      <trkpt lat="43.96696" lon="7.11539">
        <ele>1189</ele>
        <time>2022-03-19T12:07:40.000Z</time>
      </trkpt>
      <trkpt lat="43.96694" lon="7.11547">
        <ele>1188.5999755859</ele>
        <time>2022-03-19T12:07:41.000Z</time>
      </trkpt>
      <trkpt lat="43.9669" lon="7.11556">
        <ele>1187.8000488281</ele>
        <time>2022-03-19T12:07:42.000Z</time>
      </trkpt>
      <trkpt lat="43.9668" lon="7.11571">
        <ele>1186</ele>
        <time>2022-03-19T12:07:44.000Z</time>
      </trkpt>
      <trkpt lat="43.96675" lon="7.11579">
        <ele>1185</ele>
        <time>2022-03-19T12:07:45.000Z</time>
      </trkpt>
      <trkpt lat="43.96672" lon="7.11585">
        <ele>1185</ele>
        <time>2022-03-19T12:07:46.000Z</time>
      </trkpt>
      <trkpt lat="43.96668" lon="7.11599">
        <ele>1183.4000244141</ele>
        <time>2022-03-19T12:07:48.000Z</time>
      </trkpt>
      <trkpt lat="43.9667" lon="7.11615">
        <ele>1182</ele>
        <time>2022-03-19T12:07:50.000Z</time>
      </trkpt>
      <trkpt lat="43.96672" lon="7.11623">
        <ele>1181.8000488281</ele>
        <time>2022-03-19T12:07:51.000Z</time>
      </trkpt>
      <trkpt lat="43.96675" lon="7.1165">
        <ele>1180.8000488281</ele>
        <time>2022-03-19T12:07:54.000Z</time>
      </trkpt>
      <trkpt lat="43.96673" lon="7.11658">
        <ele>1180.5999755859</ele>
        <time>2022-03-19T12:07:55.000Z</time>
      </trkpt>
      <trkpt lat="43.96671" lon="7.11666">
        <ele>1180</ele>
        <time>2022-03-19T12:07:56.000Z</time>
      </trkpt>
      <trkpt lat="43.96669" lon="7.11675">
        <ele>1179.8000488281</ele>
        <time>2022-03-19T12:07:57.000Z</time>
      </trkpt>
      <trkpt lat="43.96668" lon="7.11681">
        <ele>1179.5999755859</ele>
        <time>2022-03-19T12:07:58.000Z</time>
      </trkpt>
      <trkpt lat="43.96667" lon="7.1169">
        <ele>1179.1999511719</ele>
        <time>2022-03-19T12:07:59.000Z</time>
      </trkpt>
      <trkpt lat="43.96664" lon="7.11699">
        <ele>1178.4000244141</ele>
        <time>2022-03-19T12:08:00.000Z</time>
      </trkpt>
      <trkpt lat="43.96657" lon="7.11715">
        <ele>1178</ele>
        <time>2022-03-19T12:08:02.000Z</time>
      </trkpt>
      <trkpt lat="43.96653" lon="7.11721">
        <ele>1177.4000244141</ele>
        <time>2022-03-19T12:08:03.000Z</time>
      </trkpt>
      <trkpt lat="43.96646" lon="7.11737">
        <ele>1176.4000244141</ele>
        <time>2022-03-19T12:08:05.000Z</time>
      </trkpt>
      <trkpt lat="43.96643" lon="7.11747">
        <ele>1175.8000488281</ele>
        <time>2022-03-19T12:08:06.000Z</time>
      </trkpt>
      <trkpt lat="43.96639" lon="7.11757">
        <ele>1174.8000488281</ele>
        <time>2022-03-19T12:08:07.000Z</time>
      </trkpt>
      <trkpt lat="43.96632" lon="7.11778">
        <ele>1172.4000244141</ele>
        <time>2022-03-19T12:08:09.000Z</time>
      </trkpt>
      <trkpt lat="43.96628" lon="7.11787">
        <ele>1171</ele>
        <time>2022-03-19T12:08:10.000Z</time>
      </trkpt>
      <trkpt lat="43.96624" lon="7.11796">
        <ele>1169.8000488281</ele>
        <time>2022-03-19T12:08:11.000Z</time>
      </trkpt>
      <trkpt lat="43.96618" lon="7.11813">
        <ele>1168.5999755859</ele>
        <time>2022-03-19T12:08:13.000Z</time>
      </trkpt>
      <trkpt lat="43.96615" lon="7.11822">
        <ele>1168.4000244141</ele>
        <time>2022-03-19T12:08:14.000Z</time>
      </trkpt>
      <trkpt lat="43.96603" lon="7.11856">
        <ele>1167.4000244141</ele>
        <time>2022-03-19T12:08:18.000Z</time>
      </trkpt>
      <trkpt lat="43.966" lon="7.11863">
        <ele>1166.4000244141</ele>
        <time>2022-03-19T12:08:19.000Z</time>
      </trkpt>
      <trkpt lat="43.96596" lon="7.1187">
        <ele>1166</ele>
        <time>2022-03-19T12:08:20.000Z</time>
      </trkpt>
      <trkpt lat="43.96593" lon="7.11878">
        <ele>1165.5999755859</ele>
        <time>2022-03-19T12:08:21.000Z</time>
      </trkpt>
      <trkpt lat="43.96591" lon="7.11886">
        <ele>1164.5999755859</ele>
        <time>2022-03-19T12:08:22.000Z</time>
      </trkpt>
      <trkpt lat="43.96589" lon="7.11894">
        <ele>1163.5999755859</ele>
        <time>2022-03-19T12:08:23.000Z</time>
      </trkpt>
      <trkpt lat="43.96586" lon="7.11905">
        <ele>1162</ele>
        <time>2022-03-19T12:08:24.000Z</time>
      </trkpt>
      <trkpt lat="43.96582" lon="7.11922">
        <ele>1160</ele>
        <time>2022-03-19T12:08:26.000Z</time>
      </trkpt>
      <trkpt lat="43.9658" lon="7.11932">
        <ele>1158.5999755859</ele>
        <time>2022-03-19T12:08:27.000Z</time>
      </trkpt>
      <trkpt lat="43.96579" lon="7.11941">
        <ele>1158</ele>
        <time>2022-03-19T12:08:28.000Z</time>
      </trkpt>
      <trkpt lat="43.96578" lon="7.11951">
        <ele>1156.8000488281</ele>
        <time>2022-03-19T12:08:29.000Z</time>
      </trkpt>
      <trkpt lat="43.96579" lon="7.11961">
        <ele>1155.4000244141</ele>
        <time>2022-03-19T12:08:30.000Z</time>
      </trkpt>
      <trkpt lat="43.9658" lon="7.11969">
        <ele>1154.4000244141</ele>
        <time>2022-03-19T12:08:31.000Z</time>
      </trkpt>
      <trkpt lat="43.9658" lon="7.11977">
        <ele>1153.5999755859</ele>
        <time>2022-03-19T12:08:32.000Z</time>
      </trkpt>
      <trkpt lat="43.9658" lon="7.11984">
        <ele>1152.8000488281</ele>
        <time>2022-03-19T12:08:33.000Z</time>
      </trkpt>
      <trkpt lat="43.96579" lon="7.11991">
        <ele>1151.8000488281</ele>
        <time>2022-03-19T12:08:34.000Z</time>
      </trkpt>
      <trkpt lat="43.96577" lon="7.11998">
        <ele>1151.4000244141</ele>
        <time>2022-03-19T12:08:35.000Z</time>
      </trkpt>
      <trkpt lat="43.96574" lon="7.12005">
        <ele>1150.5999755859</ele>
        <time>2022-03-19T12:08:36.000Z</time>
      </trkpt>
      <trkpt lat="43.9657" lon="7.12012">
        <ele>1149.8000488281</ele>
        <time>2022-03-19T12:08:37.000Z</time>
      </trkpt>
      <trkpt lat="43.96563" lon="7.12026">
        <ele>1148</ele>
        <time>2022-03-19T12:08:39.000Z</time>
      </trkpt>
      <trkpt lat="43.96555" lon="7.1204">
        <ele>1146</ele>
        <time>2022-03-19T12:08:41.000Z</time>
      </trkpt>
      <trkpt lat="43.96551" lon="7.12046">
        <ele>1144.8000488281</ele>
        <time>2022-03-19T12:08:42.000Z</time>
      </trkpt>
      <trkpt lat="43.96546" lon="7.12052">
        <ele>1142.5999755859</ele>
        <time>2022-03-19T12:08:43.000Z</time>
      </trkpt>
      <trkpt lat="43.96542" lon="7.12061">
        <ele>1141</ele>
        <time>2022-03-19T12:08:44.000Z</time>
      </trkpt>
      <trkpt lat="43.96539" lon="7.1207">
        <ele>1138.8000488281</ele>
        <time>2022-03-19T12:08:45.000Z</time>
      </trkpt>
      <trkpt lat="43.96536" lon="7.1208">
        <ele>1137.1999511719</ele>
        <time>2022-03-19T12:08:46.000Z</time>
      </trkpt>
      <trkpt lat="43.96533" lon="7.12091">
        <ele>1135.4000244141</ele>
        <time>2022-03-19T12:08:47.000Z</time>
      </trkpt>
      <trkpt lat="43.9653" lon="7.12101">
        <ele>1133.8000488281</ele>
        <time>2022-03-19T12:08:48.000Z</time>
      </trkpt>
      <trkpt lat="43.96527" lon="7.12113">
        <ele>1132.4000244141</ele>
        <time>2022-03-19T12:08:49.000Z</time>
      </trkpt>
      <trkpt lat="43.96526" lon="7.12123">
        <ele>1130.5999755859</ele>
        <time>2022-03-19T12:08:50.000Z</time>
      </trkpt>
      <trkpt lat="43.96525" lon="7.12134">
        <ele>1129</ele>
        <time>2022-03-19T12:08:51.000Z</time>
      </trkpt>
      <trkpt lat="43.96524" lon="7.12144">
        <ele>1127.5999755859</ele>
        <time>2022-03-19T12:08:52.000Z</time>
      </trkpt>
      <trkpt lat="43.96522" lon="7.12164">
        <ele>1125.4000244141</ele>
        <time>2022-03-19T12:08:54.000Z</time>
      </trkpt>
      <trkpt lat="43.96519" lon="7.12183">
        <ele>1123.1999511719</ele>
        <time>2022-03-19T12:08:56.000Z</time>
      </trkpt>
      <trkpt lat="43.96518" lon="7.122">
        <ele>1120.8000488281</ele>
        <time>2022-03-19T12:08:58.000Z</time>
      </trkpt>
      <trkpt lat="43.96519" lon="7.12208">
        <ele>1119.4000244141</ele>
        <time>2022-03-19T12:08:59.000Z</time>
      </trkpt>
      <trkpt lat="43.96519" lon="7.12217">
        <ele>1118.4000244141</ele>
        <time>2022-03-19T12:09:00.000Z</time>
      </trkpt>
      <trkpt lat="43.9652" lon="7.12225">
        <ele>1116.8000488281</ele>
        <time>2022-03-19T12:09:01.000Z</time>
      </trkpt>
      <trkpt lat="43.96527" lon="7.12241">
        <ele>1114.4000244141</ele>
        <time>2022-03-19T12:09:03.000Z</time>
      </trkpt>
      <trkpt lat="43.96529" lon="7.12249">
        <ele>1113.1999511719</ele>
        <time>2022-03-19T12:09:04.000Z</time>
      </trkpt>
      <trkpt lat="43.9653" lon="7.12256">
        <ele>1111.8000488281</ele>
        <time>2022-03-19T12:09:05.000Z</time>
      </trkpt>
      <trkpt lat="43.96531" lon="7.12264">
        <ele>1110.8000488281</ele>
        <time>2022-03-19T12:09:06.000Z</time>
      </trkpt>
      <trkpt lat="43.96531" lon="7.12273">
        <ele>1109.5999755859</ele>
        <time>2022-03-19T12:09:07.000Z</time>
      </trkpt>
      <trkpt lat="43.9653" lon="7.12281">
        <ele>1108</ele>
        <time>2022-03-19T12:09:08.000Z</time>
      </trkpt>
      <trkpt lat="43.96531" lon="7.1229">
        <ele>1106.5999755859</ele>
        <time>2022-03-19T12:09:09.000Z</time>
      </trkpt>
      <trkpt lat="43.96531" lon="7.12298">
        <ele>1105.1999511719</ele>
        <time>2022-03-19T12:09:10.000Z</time>
      </trkpt>
      <trkpt lat="43.96531" lon="7.12305">
        <ele>1103.8000488281</ele>
        <time>2022-03-19T12:09:11.000Z</time>
      </trkpt>
      <trkpt lat="43.9653" lon="7.12314">
        <ele>1102.1999511719</ele>
        <time>2022-03-19T12:09:12.000Z</time>
      </trkpt>
      <trkpt lat="43.96529" lon="7.12321">
        <ele>1101</ele>
        <time>2022-03-19T12:09:13.000Z</time>
      </trkpt>
      <trkpt lat="43.96526" lon="7.12337">
        <ele>1098.8000488281</ele>
        <time>2022-03-19T12:09:15.000Z</time>
      </trkpt>
      <trkpt lat="43.96523" lon="7.12345">
        <ele>1097.5999755859</ele>
        <time>2022-03-19T12:09:16.000Z</time>
      </trkpt>
      <trkpt lat="43.96521" lon="7.12354">
        <ele>1096.1999511719</ele>
        <time>2022-03-19T12:09:17.000Z</time>
      </trkpt>
      <trkpt lat="43.96515" lon="7.12372">
        <ele>1094.8000488281</ele>
        <time>2022-03-19T12:09:19.000Z</time>
      </trkpt>
      <trkpt lat="43.96513" lon="7.1238">
        <ele>1093.4000244141</ele>
        <time>2022-03-19T12:09:20.000Z</time>
      </trkpt>
      <trkpt lat="43.96509" lon="7.12389">
        <ele>1092</ele>
        <time>2022-03-19T12:09:21.000Z</time>
      </trkpt>
      <trkpt lat="43.96507" lon="7.12397">
        <ele>1090.8000488281</ele>
        <time>2022-03-19T12:09:22.000Z</time>
      </trkpt>
      <trkpt lat="43.96506" lon="7.12403">
        <ele>1089</ele>
        <time>2022-03-19T12:09:23.000Z</time>
      </trkpt>
      <trkpt lat="43.96504" lon="7.1241">
        <ele>1087.4000244141</ele>
        <time>2022-03-19T12:09:24.000Z</time>
      </trkpt>
      <trkpt lat="43.96503" lon="7.12416">
        <ele>1086</ele>
        <time>2022-03-19T12:09:25.000Z</time>
      </trkpt>
      <trkpt lat="43.96502" lon="7.12421">
        <ele>1084.8000488281</ele>
        <time>2022-03-19T12:09:26.000Z</time>
      </trkpt>
      <trkpt lat="43.96502" lon="7.12426">
        <ele>1083.4000244141</ele>
        <time>2022-03-19T12:09:28.000Z</time>
      </trkpt>
      <trkpt lat="43.96504" lon="7.12428">
        <ele>1082.8000488281</ele>
        <time>2022-03-19T12:09:32.000Z</time>
      </trkpt>
      <trkpt lat="43.96506" lon="7.12431">
        <ele>1083</ele>
        <time>2022-03-19T12:09:50.000Z</time>
      </trkpt>
      <trkpt lat="43.96508" lon="7.12431">
        <ele>1083.1999511719</ele>
        <time>2022-03-19T12:10:07.000Z</time>
      </trkpt>
      <trkpt lat="43.96508" lon="7.12432">
        <ele>1083.4000244141</ele>
        <time>2022-03-19T12:10:26.000Z</time>
      </trkpt>
      <trkpt lat="43.96507" lon="7.12437">
        <ele>1083.4000244141</ele>
        <time>2022-03-19T12:10:48.000Z</time>
      </trkpt>
      <trkpt lat="43.96505" lon="7.12451">
        <ele>1083.1999511719</ele>
        <time>2022-03-19T12:10:51.000Z</time>
      </trkpt>
      <trkpt lat="43.96504" lon="7.12463">
        <ele>1082.8000488281</ele>
        <time>2022-03-19T12:10:53.000Z</time>
      </trkpt>
      <trkpt lat="43.96505" lon="7.12472">
        <ele>1082.5999755859</ele>
        <time>2022-03-19T12:10:54.000Z</time>
      </trkpt>
      <trkpt lat="43.96512" lon="7.12483">
        <ele>1081.8000488281</ele>
        <time>2022-03-19T12:10:56.000Z</time>
      </trkpt>
      <trkpt lat="43.96515" lon="7.1249">
        <ele>1081.1999511719</ele>
        <time>2022-03-19T12:10:57.000Z</time>
      </trkpt>
      <trkpt lat="43.96516" lon="7.12497">
        <ele>1080.1999511719</ele>
        <time>2022-03-19T12:10:58.000Z</time>
      </trkpt>
      <trkpt lat="43.96517" lon="7.12504">
        <ele>1078.8000488281</ele>
        <time>2022-03-19T12:10:59.000Z</time>
      </trkpt>
      <trkpt lat="43.96521" lon="7.12521">
        <ele>1077.1999511719</ele>
        <time>2022-03-19T12:11:01.000Z</time>
      </trkpt>
      <trkpt lat="43.96526" lon="7.12537">
        <ele>1075.8000488281</ele>
        <time>2022-03-19T12:11:03.000Z</time>
      </trkpt>
      <trkpt lat="43.96529" lon="7.12548">
        <ele>1075</ele>
        <time>2022-03-19T12:11:04.000Z</time>
      </trkpt>
      <trkpt lat="43.96532" lon="7.12558">
        <ele>1073.8000488281</ele>
        <time>2022-03-19T12:11:05.000Z</time>
      </trkpt>
      <trkpt lat="43.96535" lon="7.12569">
        <ele>1072.8000488281</ele>
        <time>2022-03-19T12:11:06.000Z</time>
      </trkpt>
      <trkpt lat="43.96538" lon="7.1258">
        <ele>1071.1999511719</ele>
        <time>2022-03-19T12:11:07.000Z</time>
      </trkpt>
      <trkpt lat="43.9654" lon="7.1259">
        <ele>1070</ele>
        <time>2022-03-19T12:11:08.000Z</time>
      </trkpt>
      <trkpt lat="43.96543" lon="7.12601">
        <ele>1069</ele>
        <time>2022-03-19T12:11:09.000Z</time>
      </trkpt>
      <trkpt lat="43.96546" lon="7.1261">
        <ele>1068</ele>
        <time>2022-03-19T12:11:10.000Z</time>
      </trkpt>
      <trkpt lat="43.96553" lon="7.1263">
        <ele>1067</ele>
        <time>2022-03-19T12:11:12.000Z</time>
      </trkpt>
      <trkpt lat="43.9656" lon="7.12647">
        <ele>1066.5999755859</ele>
        <time>2022-03-19T12:11:14.000Z</time>
      </trkpt>
      <trkpt lat="43.96566" lon="7.12666">
        <ele>1064.8000488281</ele>
        <time>2022-03-19T12:11:16.000Z</time>
      </trkpt>
      <trkpt lat="43.96569" lon="7.12676">
        <ele>1062.8000488281</ele>
        <time>2022-03-19T12:11:17.000Z</time>
      </trkpt>
      <trkpt lat="43.96572" lon="7.12686">
        <ele>1061.1999511719</ele>
        <time>2022-03-19T12:11:18.000Z</time>
      </trkpt>
      <trkpt lat="43.96576" lon="7.12698">
        <ele>1059.1999511719</ele>
        <time>2022-03-19T12:11:19.000Z</time>
      </trkpt>
      <trkpt lat="43.9658" lon="7.12709">
        <ele>1057.4000244141</ele>
        <time>2022-03-19T12:11:20.000Z</time>
      </trkpt>
      <trkpt lat="43.96584" lon="7.12721">
        <ele>1055.4000244141</ele>
        <time>2022-03-19T12:11:21.000Z</time>
      </trkpt>
      <trkpt lat="43.96588" lon="7.12733">
        <ele>1053.8000488281</ele>
        <time>2022-03-19T12:11:22.000Z</time>
      </trkpt>
      <trkpt lat="43.96591" lon="7.12742">
        <ele>1052.4000244141</ele>
        <time>2022-03-19T12:11:23.000Z</time>
      </trkpt>
      <trkpt lat="43.96593" lon="7.12751">
        <ele>1051</ele>
        <time>2022-03-19T12:11:24.000Z</time>
      </trkpt>
      <trkpt lat="43.96594" lon="7.12758">
        <ele>1050</ele>
        <time>2022-03-19T12:11:25.000Z</time>
      </trkpt>
      <trkpt lat="43.96593" lon="7.12764">
        <ele>1048.8000488281</ele>
        <time>2022-03-19T12:11:26.000Z</time>
      </trkpt>
      <trkpt lat="43.9659" lon="7.12771">
        <ele>1047.8000488281</ele>
        <time>2022-03-19T12:11:27.000Z</time>
      </trkpt>
      <trkpt lat="43.96587" lon="7.12777">
        <ele>1046.5999755859</ele>
        <time>2022-03-19T12:11:28.000Z</time>
      </trkpt>
      <trkpt lat="43.96578" lon="7.12788">
        <ele>1045.4000244141</ele>
        <time>2022-03-19T12:11:30.000Z</time>
      </trkpt>
      <trkpt lat="43.96573" lon="7.12794">
        <ele>1044.1999511719</ele>
        <time>2022-03-19T12:11:31.000Z</time>
      </trkpt>
      <trkpt lat="43.96569" lon="7.12801">
        <ele>1043</ele>
        <time>2022-03-19T12:11:32.000Z</time>
      </trkpt>
      <trkpt lat="43.96565" lon="7.12807">
        <ele>1042</ele>
        <time>2022-03-19T12:11:33.000Z</time>
      </trkpt>
      <trkpt lat="43.96563" lon="7.12815">
        <ele>1041</ele>
        <time>2022-03-19T12:11:34.000Z</time>
      </trkpt>
      <trkpt lat="43.96562" lon="7.12823">
        <ele>1039.8000488281</ele>
        <time>2022-03-19T12:11:35.000Z</time>
      </trkpt>
      <trkpt lat="43.96561" lon="7.1283">
        <ele>1038.1999511719</ele>
        <time>2022-03-19T12:11:36.000Z</time>
      </trkpt>
      <trkpt lat="43.9656" lon="7.12837">
        <ele>1036.5999755859</ele>
        <time>2022-03-19T12:11:37.000Z</time>
      </trkpt>
      <trkpt lat="43.96557" lon="7.12843">
        <ele>1034.5999755859</ele>
        <time>2022-03-19T12:11:38.000Z</time>
      </trkpt>
      <trkpt lat="43.96554" lon="7.12848">
        <ele>1033.5999755859</ele>
        <time>2022-03-19T12:11:39.000Z</time>
      </trkpt>
      <trkpt lat="43.9655" lon="7.12851">
        <ele>1032.5999755859</ele>
        <time>2022-03-19T12:11:40.000Z</time>
      </trkpt>
      <trkpt lat="43.96545" lon="7.12853">
        <ele>1031.4000244141</ele>
        <time>2022-03-19T12:11:41.000Z</time>
      </trkpt>
      <trkpt lat="43.9654" lon="7.12857">
        <ele>1030</ele>
        <time>2022-03-19T12:11:42.000Z</time>
      </trkpt>
      <trkpt lat="43.96537" lon="7.12861">
        <ele>1028.5999755859</ele>
        <time>2022-03-19T12:11:43.000Z</time>
      </trkpt>
      <trkpt lat="43.96536" lon="7.12866">
        <ele>1027</ele>
        <time>2022-03-19T12:11:44.000Z</time>
      </trkpt>
      <trkpt lat="43.96534" lon="7.12873">
        <ele>1025.8000488281</ele>
        <time>2022-03-19T12:11:45.000Z</time>
      </trkpt>
      <trkpt lat="43.96531" lon="7.12888">
        <ele>1023.4000244141</ele>
        <time>2022-03-19T12:11:47.000Z</time>
      </trkpt>
      <trkpt lat="43.9653" lon="7.12896">
        <ele>1021.799987793</ele>
        <time>2022-03-19T12:11:48.000Z</time>
      </trkpt>
      <trkpt lat="43.96529" lon="7.12904">
        <ele>1021.200012207</ele>
        <time>2022-03-19T12:11:49.000Z</time>
      </trkpt>
      <trkpt lat="43.96528" lon="7.12912">
        <ele>1019.799987793</ele>
        <time>2022-03-19T12:11:50.000Z</time>
      </trkpt>
      <trkpt lat="43.96526" lon="7.12925">
        <ele>1017</ele>
        <time>2022-03-19T12:11:52.000Z</time>
      </trkpt>
      <trkpt lat="43.96524" lon="7.1293">
        <ele>1015.799987793</ele>
        <time>2022-03-19T12:11:53.000Z</time>
      </trkpt>
      <trkpt lat="43.96522" lon="7.12937">
        <ele>1014.5999755859</ele>
        <time>2022-03-19T12:11:54.000Z</time>
      </trkpt>
      <trkpt lat="43.9652" lon="7.12943">
        <ele>1013.4000244141</ele>
        <time>2022-03-19T12:11:55.000Z</time>
      </trkpt>
      <trkpt lat="43.96516" lon="7.12957">
        <ele>1011.200012207</ele>
        <time>2022-03-19T12:11:57.000Z</time>
      </trkpt>
      <trkpt lat="43.96515" lon="7.12964">
        <ele>1010.4000244141</ele>
        <time>2022-03-19T12:11:58.000Z</time>
      </trkpt>
      <trkpt lat="43.96514" lon="7.12971">
        <ele>1010</ele>
        <time>2022-03-19T12:11:59.000Z</time>
      </trkpt>
      <trkpt lat="43.96514" lon="7.12979">
        <ele>1008.799987793</ele>
        <time>2022-03-19T12:12:00.000Z</time>
      </trkpt>
      <trkpt lat="43.96512" lon="7.12989">
        <ele>1007.200012207</ele>
        <time>2022-03-19T12:12:02.000Z</time>
      </trkpt>
      <trkpt lat="43.96508" lon="7.12994">
        <ele>1006</ele>
        <time>2022-03-19T12:12:03.000Z</time>
      </trkpt>
      <trkpt lat="43.965" lon="7.13002">
        <ele>1004.5999755859</ele>
        <time>2022-03-19T12:12:05.000Z</time>
      </trkpt>
      <trkpt lat="43.96497" lon="7.13008">
        <ele>1003.4000244141</ele>
        <time>2022-03-19T12:12:06.000Z</time>
      </trkpt>
      <trkpt lat="43.96494" lon="7.13016">
        <ele>1002.200012207</ele>
        <time>2022-03-19T12:12:07.000Z</time>
      </trkpt>
      <trkpt lat="43.96491" lon="7.13023">
        <ele>1001.200012207</ele>
        <time>2022-03-19T12:12:08.000Z</time>
      </trkpt>
      <trkpt lat="43.96488" lon="7.13031">
        <ele>1000</ele>
        <time>2022-03-19T12:12:09.000Z</time>
      </trkpt>
      <trkpt lat="43.96485" lon="7.13037">
        <ele>998.79998779297</ele>
        <time>2022-03-19T12:12:10.000Z</time>
      </trkpt>
      <trkpt lat="43.96483" lon="7.13043">
        <ele>997.59997558594</ele>
        <time>2022-03-19T12:12:11.000Z</time>
      </trkpt>
      <trkpt lat="43.96482" lon="7.13049">
        <ele>996.20001220703</ele>
        <time>2022-03-19T12:12:12.000Z</time>
      </trkpt>
      <trkpt lat="43.96482" lon="7.13059">
        <ele>994.40002441406</ele>
        <time>2022-03-19T12:12:14.000Z</time>
      </trkpt>
      <trkpt lat="43.9648" lon="7.13071">
        <ele>993.20001220703</ele>
        <time>2022-03-19T12:12:16.000Z</time>
      </trkpt>
      <trkpt lat="43.9648" lon="7.13075">
        <ele>992.59997558594</ele>
        <time>2022-03-19T12:12:17.000Z</time>
      </trkpt>
      <trkpt lat="43.9648" lon="7.1308">
        <ele>992.20001220703</ele>
        <time>2022-03-19T12:12:18.000Z</time>
      </trkpt>
      <trkpt lat="43.9648" lon="7.13095">
        <ele>991</ele>
        <time>2022-03-19T12:12:20.000Z</time>
      </trkpt>
      <trkpt lat="43.96482" lon="7.1311">
        <ele>989.40002441406</ele>
        <time>2022-03-19T12:12:22.000Z</time>
      </trkpt>
      <trkpt lat="43.96482" lon="7.13116">
        <ele>988.40002441406</ele>
        <time>2022-03-19T12:12:23.000Z</time>
      </trkpt>
      <trkpt lat="43.96483" lon="7.13124">
        <ele>987.20001220703</ele>
        <time>2022-03-19T12:12:24.000Z</time>
      </trkpt>
      <trkpt lat="43.96484" lon="7.13131">
        <ele>986.40002441406</ele>
        <time>2022-03-19T12:12:25.000Z</time>
      </trkpt>
      <trkpt lat="43.96485" lon="7.13139">
        <ele>985.40002441406</ele>
        <time>2022-03-19T12:12:26.000Z</time>
      </trkpt>
      <trkpt lat="43.96486" lon="7.13147">
        <ele>984.20001220703</ele>
        <time>2022-03-19T12:12:27.000Z</time>
      </trkpt>
      <trkpt lat="43.96488" lon="7.13165">
        <ele>982.59997558594</ele>
        <time>2022-03-19T12:12:29.000Z</time>
      </trkpt>
      <trkpt lat="43.9649" lon="7.13181">
        <ele>981</ele>
        <time>2022-03-19T12:12:31.000Z</time>
      </trkpt>
      <trkpt lat="43.9649" lon="7.13188">
        <ele>980</ele>
        <time>2022-03-19T12:12:32.000Z</time>
      </trkpt>
      <trkpt lat="43.96489" lon="7.13193">
        <ele>978.59997558594</ele>
        <time>2022-03-19T12:12:33.000Z</time>
      </trkpt>
      <trkpt lat="43.96486" lon="7.13197">
        <ele>976.79998779297</ele>
        <time>2022-03-19T12:12:34.000Z</time>
      </trkpt>
      <trkpt lat="43.96484" lon="7.13201">
        <ele>975.40002441406</ele>
        <time>2022-03-19T12:12:35.000Z</time>
      </trkpt>
      <trkpt lat="43.96485" lon="7.13203">
        <ele>973.40002441406</ele>
        <time>2022-03-19T12:12:36.000Z</time>
      </trkpt>
      <trkpt lat="43.96491" lon="7.13201">
        <ele>971.79998779297</ele>
        <time>2022-03-19T12:12:38.000Z</time>
      </trkpt>
      <trkpt lat="43.96503" lon="7.13181">
        <ele>970.79998779297</ele>
        <time>2022-03-19T12:12:42.000Z</time>
      </trkpt>
      <trkpt lat="43.96505" lon="7.13174">
        <ele>970.40002441406</ele>
        <time>2022-03-19T12:12:43.000Z</time>
      </trkpt>
      <trkpt lat="43.96508" lon="7.13165">
        <ele>969.59997558594</ele>
        <time>2022-03-19T12:12:44.000Z</time>
      </trkpt>
      <trkpt lat="43.96512" lon="7.13147">
        <ele>967.79998779297</ele>
        <time>2022-03-19T12:12:46.000Z</time>
      </trkpt>
      <trkpt lat="43.96514" lon="7.1314">
        <ele>967.20001220703</ele>
        <time>2022-03-19T12:12:47.000Z</time>
      </trkpt>
      <trkpt lat="43.96516" lon="7.1313">
        <ele>966.20001220703</ele>
        <time>2022-03-19T12:12:48.000Z</time>
      </trkpt>
      <trkpt lat="43.96517" lon="7.13122">
        <ele>965</ele>
        <time>2022-03-19T12:12:49.000Z</time>
      </trkpt>
      <trkpt lat="43.96519" lon="7.13116">
        <ele>963.79998779297</ele>
        <time>2022-03-19T12:12:50.000Z</time>
      </trkpt>
      <trkpt lat="43.96523" lon="7.13117">
        <ele>964.20001220703</ele>
        <time>2022-03-19T12:12:52.000Z</time>
      </trkpt>
      <trkpt lat="43.96523" lon="7.13133">
        <ele>961.59997558594</ele>
        <time>2022-03-19T12:12:55.000Z</time>
      </trkpt>
      <trkpt lat="43.96524" lon="7.13147">
        <ele>960.59997558594</ele>
        <time>2022-03-19T12:12:57.000Z</time>
      </trkpt>
      <trkpt lat="43.96526" lon="7.13165">
        <ele>959.40002441406</ele>
        <time>2022-03-19T12:12:59.000Z</time>
      </trkpt>
      <trkpt lat="43.96527" lon="7.13175">
        <ele>957.79998779297</ele>
        <time>2022-03-19T12:13:00.000Z</time>
      </trkpt>
      <trkpt lat="43.96528" lon="7.13183">
        <ele>956.59997558594</ele>
        <time>2022-03-19T12:13:01.000Z</time>
      </trkpt>
      <trkpt lat="43.96528" lon="7.13189">
        <ele>955.20001220703</ele>
        <time>2022-03-19T12:13:02.000Z</time>
      </trkpt>
      <trkpt lat="43.96528" lon="7.13195">
        <ele>954</ele>
        <time>2022-03-19T12:13:03.000Z</time>
      </trkpt>
      <trkpt lat="43.96529" lon="7.13203">
        <ele>952.79998779297</ele>
        <time>2022-03-19T12:13:04.000Z</time>
      </trkpt>
      <trkpt lat="43.96529" lon="7.13209">
        <ele>951.59997558594</ele>
        <time>2022-03-19T12:13:05.000Z</time>
      </trkpt>
      <trkpt lat="43.96529" lon="7.13223">
        <ele>950.40002441406</ele>
        <time>2022-03-19T12:13:07.000Z</time>
      </trkpt>
      <trkpt lat="43.96527" lon="7.13229">
        <ele>949.59997558594</ele>
        <time>2022-03-19T12:13:08.000Z</time>
      </trkpt>
      <trkpt lat="43.96524" lon="7.13235">
        <ele>948.59997558594</ele>
        <time>2022-03-19T12:13:09.000Z</time>
      </trkpt>
      <trkpt lat="43.9652" lon="7.13239">
        <ele>947.59997558594</ele>
        <time>2022-03-19T12:13:10.000Z</time>
      </trkpt>
      <trkpt lat="43.96518" lon="7.13242">
        <ele>946</ele>
        <time>2022-03-19T12:13:11.000Z</time>
      </trkpt>
      <trkpt lat="43.96514" lon="7.13245">
        <ele>944.59997558594</ele>
        <time>2022-03-19T12:13:12.000Z</time>
      </trkpt>
      <trkpt lat="43.96508" lon="7.13252">
        <ele>942.40002441406</ele>
        <time>2022-03-19T12:13:14.000Z</time>
      </trkpt>
      <trkpt lat="43.96505" lon="7.13253">
        <ele>941.20001220703</ele>
        <time>2022-03-19T12:13:15.000Z</time>
      </trkpt>
      <trkpt lat="43.96503" lon="7.13256">
        <ele>940.59997558594</ele>
        <time>2022-03-19T12:13:16.000Z</time>
      </trkpt>
      <trkpt lat="43.965" lon="7.13259">
        <ele>939.79998779297</ele>
        <time>2022-03-19T12:13:17.000Z</time>
      </trkpt>
      <trkpt lat="43.96496" lon="7.13264">
        <ele>938.40002441406</ele>
        <time>2022-03-19T12:13:19.000Z</time>
      </trkpt>
      <trkpt lat="43.96495" lon="7.13266">
        <ele>937</ele>
        <time>2022-03-19T12:13:21.000Z</time>
      </trkpt>
      <trkpt lat="43.96495" lon="7.13266">
        <ele>936.20001220703</ele>
        <time>2022-03-19T12:13:23.000Z</time>
      </trkpt>
      <trkpt lat="43.96495" lon="7.13266">
        <ele>935.79998779297</ele>
        <time>2022-03-19T12:13:24.000Z</time>
      </trkpt>
      <trkpt lat="43.96495" lon="7.13268">
        <ele>935.40002441406</ele>
        <time>2022-03-19T12:13:29.000Z</time>
      </trkpt>
      <trkpt lat="43.96495" lon="7.13268">
        <ele>935</ele>
        <time>2022-03-19T12:13:34.000Z</time>
      </trkpt>
      <trkpt lat="43.96495" lon="7.1327">
        <ele>934.59997558594</ele>
        <time>2022-03-19T12:13:35.000Z</time>
      </trkpt>
      <trkpt lat="43.96494" lon="7.13269">
        <ele>934</ele>
        <time>2022-03-19T12:13:40.000Z</time>
      </trkpt>
      <trkpt lat="43.96494" lon="7.1327">
        <ele>934.20001220703</ele>
        <time>2022-03-19T12:13:45.000Z</time>
      </trkpt>
      <trkpt lat="43.96493" lon="7.13274">
        <ele>934.20001220703</ele>
        <time>2022-03-19T12:13:50.000Z</time>
      </trkpt>
      <trkpt lat="43.96493" lon="7.13277">
        <ele>934.20001220703</ele>
        <time>2022-03-19T12:13:51.000Z</time>
      </trkpt>
      <trkpt lat="43.96494" lon="7.13287">
        <ele>933.59997558594</ele>
        <time>2022-03-19T12:13:53.000Z</time>
      </trkpt>
      <trkpt lat="43.96494" lon="7.13293">
        <ele>933.20001220703</ele>
        <time>2022-03-19T12:13:54.000Z</time>
      </trkpt>
      <trkpt lat="43.96495" lon="7.13301">
        <ele>932.59997558594</ele>
        <time>2022-03-19T12:13:55.000Z</time>
      </trkpt>
      <trkpt lat="43.96495" lon="7.13312">
        <ele>930.79998779297</ele>
        <time>2022-03-19T12:13:57.000Z</time>
      </trkpt>
      <trkpt lat="43.96493" lon="7.13325">
        <ele>929.20001220703</ele>
        <time>2022-03-19T12:13:59.000Z</time>
      </trkpt>
      <trkpt lat="43.96491" lon="7.13337">
        <ele>927.59997558594</ele>
        <time>2022-03-19T12:14:01.000Z</time>
      </trkpt>
      <trkpt lat="43.96491" lon="7.13347">
        <ele>926</ele>
        <time>2022-03-19T12:14:03.000Z</time>
      </trkpt>
      <trkpt lat="43.96491" lon="7.13352">
        <ele>925</ele>
        <time>2022-03-19T12:14:04.000Z</time>
      </trkpt>
      <trkpt lat="43.9649" lon="7.13358">
        <ele>924.40002441406</ele>
        <time>2022-03-19T12:14:05.000Z</time>
      </trkpt>
      <trkpt lat="43.96489" lon="7.13365">
        <ele>923.79998779297</ele>
        <time>2022-03-19T12:14:06.000Z</time>
      </trkpt>
      <trkpt lat="43.96486" lon="7.13372">
        <ele>923.59997558594</ele>
        <time>2022-03-19T12:14:07.000Z</time>
      </trkpt>
      <trkpt lat="43.96484" lon="7.13378">
        <ele>922.59997558594</ele>
        <time>2022-03-19T12:14:08.000Z</time>
      </trkpt>
      <trkpt lat="43.96483" lon="7.13384">
        <ele>921.40002441406</ele>
        <time>2022-03-19T12:14:09.000Z</time>
      </trkpt>
      <trkpt lat="43.96481" lon="7.1339">
        <ele>920</ele>
        <time>2022-03-19T12:14:10.000Z</time>
      </trkpt>
      <trkpt lat="43.96479" lon="7.13394">
        <ele>918.40002441406</ele>
        <time>2022-03-19T12:14:11.000Z</time>
      </trkpt>
      <trkpt lat="43.96479" lon="7.13396">
        <ele>917.20001220703</ele>
        <time>2022-03-19T12:14:12.000Z</time>
      </trkpt>
      <trkpt lat="43.96478" lon="7.13396">
        <ele>915.79998779297</ele>
        <time>2022-03-19T12:14:13.000Z</time>
      </trkpt>
      <trkpt lat="43.96478" lon="7.13396">
        <ele>915</ele>
        <time>2022-03-19T12:14:14.000Z</time>
      </trkpt>
      <trkpt lat="43.96478" lon="7.13396">
        <ele>914.40002441406</ele>
        <time>2022-03-19T12:14:15.000Z</time>
      </trkpt>
      <trkpt lat="43.96478" lon="7.13396">
        <ele>913.20001220703</ele>
        <time>2022-03-19T12:14:17.000Z</time>
      </trkpt>
      <trkpt lat="43.96478" lon="7.13397">
        <ele>913</ele>
        <time>2022-03-19T12:14:21.000Z</time>
      </trkpt>
      <trkpt lat="43.96478" lon="7.13398">
        <ele>913</ele>
        <time>2022-03-19T12:14:22.000Z</time>
      </trkpt>
      <trkpt lat="43.96478" lon="7.13399">
        <ele>912.79998779297</ele>
        <time>2022-03-19T12:14:26.000Z</time>
      </trkpt>
      <trkpt lat="43.96476" lon="7.13403">
        <ele>912.20001220703</ele>
        <time>2022-03-19T12:14:31.000Z</time>
      </trkpt>
      <trkpt lat="43.96476" lon="7.13404">
        <ele>912</ele>
        <time>2022-03-19T12:14:34.000Z</time>
      </trkpt>
      <trkpt lat="43.96476" lon="7.13407">
        <ele>911.59997558594</ele>
        <time>2022-03-19T12:14:36.000Z</time>
      </trkpt>
      <trkpt lat="43.96475" lon="7.1341">
        <ele>911.59997558594</ele>
        <time>2022-03-19T12:14:37.000Z</time>
      </trkpt>
      <trkpt lat="43.96469" lon="7.13428">
        <ele>910.79998779297</ele>
        <time>2022-03-19T12:14:41.000Z</time>
      </trkpt>
      <trkpt lat="43.96463" lon="7.13437">
        <ele>909.59997558594</ele>
        <time>2022-03-19T12:14:43.000Z</time>
      </trkpt>
      <trkpt lat="43.96456" lon="7.13443">
        <ele>908.40002441406</ele>
        <time>2022-03-19T12:14:45.000Z</time>
      </trkpt>
      <trkpt lat="43.96453" lon="7.13446">
        <ele>907.59997558594</ele>
        <time>2022-03-19T12:14:46.000Z</time>
      </trkpt>
      <trkpt lat="43.96451" lon="7.13448">
        <ele>906.20001220703</ele>
        <time>2022-03-19T12:14:47.000Z</time>
      </trkpt>
      <trkpt lat="43.96448" lon="7.1345">
        <ele>904.79998779297</ele>
        <time>2022-03-19T12:14:48.000Z</time>
      </trkpt>
      <trkpt lat="43.96446" lon="7.13451">
        <ele>903.59997558594</ele>
        <time>2022-03-19T12:14:49.000Z</time>
      </trkpt>
      <trkpt lat="43.96445" lon="7.13451">
        <ele>902.20001220703</ele>
        <time>2022-03-19T12:14:50.000Z</time>
      </trkpt>
      <trkpt lat="43.96444" lon="7.13451">
        <ele>901.59997558594</ele>
        <time>2022-03-19T12:14:51.000Z</time>
      </trkpt>
      <trkpt lat="43.96443" lon="7.13452">
        <ele>901.20001220703</ele>
        <time>2022-03-19T12:14:52.000Z</time>
      </trkpt>
      <trkpt lat="43.96441" lon="7.13453">
        <ele>900.20001220703</ele>
        <time>2022-03-19T12:14:57.000Z</time>
      </trkpt>
      <trkpt lat="43.96441" lon="7.13453">
        <ele>900.20001220703</ele>
        <time>2022-03-19T12:14:58.000Z</time>
      </trkpt>
      <trkpt lat="43.96441" lon="7.13454">
        <ele>900</ele>
        <time>2022-03-19T12:15:11.000Z</time>
      </trkpt>
      <trkpt lat="43.9644" lon="7.13454">
        <ele>900</ele>
        <time>2022-03-19T12:15:21.000Z</time>
      </trkpt>
      <trkpt lat="43.96439" lon="7.13455">
        <ele>900</ele>
        <time>2022-03-19T12:15:28.000Z</time>
      </trkpt>
      <trkpt lat="43.96439" lon="7.13455">
        <ele>899.79998779297</ele>
        <time>2022-03-19T12:15:38.000Z</time>
      </trkpt>
      <trkpt lat="43.96439" lon="7.13457">
        <ele>899.40002441406</ele>
        <time>2022-03-19T12:15:45.000Z</time>
      </trkpt>
      <trkpt lat="43.96437" lon="7.13458">
        <ele>899.59997558594</ele>
        <time>2022-03-19T12:15:52.000Z</time>
      </trkpt>
      <trkpt lat="43.96436" lon="7.13458">
        <ele>900.20001220703</ele>
        <time>2022-03-19T12:15:59.000Z</time>
      </trkpt>
      <trkpt lat="43.96435" lon="7.13458">
        <ele>900.59997558594</ele>
        <time>2022-03-19T12:16:10.000Z</time>
      </trkpt>
      <trkpt lat="43.96435" lon="7.13458">
        <ele>900.59997558594</ele>
        <time>2022-03-19T12:16:23.000Z</time>
      </trkpt>
      <trkpt lat="43.96434" lon="7.13458">
        <ele>901</ele>
        <time>2022-03-19T12:16:33.000Z</time>
      </trkpt>
      <trkpt lat="43.96434" lon="7.13458">
        <ele>900.40002441406</ele>
        <time>2022-03-19T12:16:39.000Z</time>
      </trkpt>
      <trkpt lat="43.96434" lon="7.13457">
        <ele>900.20001220703</ele>
        <time>2022-03-19T12:16:45.000Z</time>
      </trkpt>
      <trkpt lat="43.96432" lon="7.13458">
        <ele>899.79998779297</ele>
        <time>2022-03-19T12:16:56.000Z</time>
      </trkpt>
      <trkpt lat="43.96431" lon="7.1346">
        <ele>899.59997558594</ele>
        <time>2022-03-19T12:17:05.000Z</time>
      </trkpt>
      <trkpt lat="43.96432" lon="7.13461">
        <ele>899.79998779297</ele>
        <time>2022-03-19T12:17:19.000Z</time>
      </trkpt>
      <trkpt lat="43.96433" lon="7.13463">
        <ele>900</ele>
        <time>2022-03-19T12:17:25.000Z</time>
      </trkpt>
      <trkpt lat="43.96433" lon="7.13464">
        <ele>899.20001220703</ele>
        <time>2022-03-19T12:17:33.000Z</time>
      </trkpt>
      <trkpt lat="43.96434" lon="7.13467">
        <ele>899.20001220703</ele>
        <time>2022-03-19T12:17:38.000Z</time>
      </trkpt>
      <trkpt lat="43.96433" lon="7.13467">
        <ele>899</ele>
        <time>2022-03-19T12:17:40.000Z</time>
      </trkpt>
      <trkpt lat="43.96433" lon="7.13469">
        <ele>898.59997558594</ele>
        <time>2022-03-19T12:17:48.000Z</time>
      </trkpt>
      <trkpt lat="43.96434" lon="7.13483">
        <ele>898.20001220703</ele>
        <time>2022-03-19T12:17:52.000Z</time>
      </trkpt>
      <trkpt lat="43.96433" lon="7.13487">
        <ele>897.79998779297</ele>
        <time>2022-03-19T12:17:53.000Z</time>
      </trkpt>
      <trkpt lat="43.96435" lon="7.13496">
        <ele>896.79998779297</ele>
        <time>2022-03-19T12:17:55.000Z</time>
      </trkpt>
      <trkpt lat="43.96436" lon="7.13502">
        <ele>896.20001220703</ele>
        <time>2022-03-19T12:17:56.000Z</time>
      </trkpt>
      <trkpt lat="43.96437" lon="7.13507">
        <ele>895.40002441406</ele>
        <time>2022-03-19T12:17:57.000Z</time>
      </trkpt>
      <trkpt lat="43.96435" lon="7.13517">
        <ele>894.20001220703</ele>
        <time>2022-03-19T12:17:59.000Z</time>
      </trkpt>
      <trkpt lat="43.96434" lon="7.13528">
        <ele>892.59997558594</ele>
        <time>2022-03-19T12:18:01.000Z</time>
      </trkpt>
      <trkpt lat="43.96433" lon="7.13533">
        <ele>891</ele>
        <time>2022-03-19T12:18:02.000Z</time>
      </trkpt>
      <trkpt lat="43.96432" lon="7.13538">
        <ele>889.79998779297</ele>
        <time>2022-03-19T12:18:03.000Z</time>
      </trkpt>
      <trkpt lat="43.96431" lon="7.13545">
        <ele>888.79998779297</ele>
        <time>2022-03-19T12:18:04.000Z</time>
      </trkpt>
      <trkpt lat="43.96429" lon="7.1355">
        <ele>887.40002441406</ele>
        <time>2022-03-19T12:18:05.000Z</time>
      </trkpt>
      <trkpt lat="43.96428" lon="7.13553">
        <ele>886.40002441406</ele>
        <time>2022-03-19T12:18:06.000Z</time>
      </trkpt>
      <trkpt lat="43.96426" lon="7.13558">
        <ele>885.40002441406</ele>
        <time>2022-03-19T12:18:08.000Z</time>
      </trkpt>
      <trkpt lat="43.96425" lon="7.13562">
        <ele>884.40002441406</ele>
        <time>2022-03-19T12:18:10.000Z</time>
      </trkpt>
      <trkpt lat="43.96426" lon="7.13562">
        <ele>884</ele>
        <time>2022-03-19T12:18:11.000Z</time>
      </trkpt>
      <trkpt lat="43.96427" lon="7.13561">
        <ele>883.59997558594</ele>
        <time>2022-03-19T12:18:12.000Z</time>
      </trkpt>
      <trkpt lat="43.96431" lon="7.13556">
        <ele>883.20001220703</ele>
        <time>2022-03-19T12:18:14.000Z</time>
      </trkpt>
      <trkpt lat="43.96434" lon="7.13552">
        <ele>882.79998779297</ele>
        <time>2022-03-19T12:18:15.000Z</time>
      </trkpt>
      <trkpt lat="43.96439" lon="7.13544">
        <ele>881.59997558594</ele>
        <time>2022-03-19T12:18:17.000Z</time>
      </trkpt>
      <trkpt lat="43.96446" lon="7.13536">
        <ele>880.59997558594</ele>
        <time>2022-03-19T12:18:19.000Z</time>
      </trkpt>
      <trkpt lat="43.96452" lon="7.13527">
        <ele>878.40002441406</ele>
        <time>2022-03-19T12:18:21.000Z</time>
      </trkpt>
      <trkpt lat="43.96453" lon="7.13525">
        <ele>877.20001220703</ele>
        <time>2022-03-19T12:18:22.000Z</time>
      </trkpt>
      <trkpt lat="43.96454" lon="7.13525">
        <ele>876</ele>
        <time>2022-03-19T12:18:23.000Z</time>
      </trkpt>
      <trkpt lat="43.96455" lon="7.13527">
        <ele>875</ele>
        <time>2022-03-19T12:18:24.000Z</time>
      </trkpt>
      <trkpt lat="43.96454" lon="7.13531">
        <ele>873.79998779297</ele>
        <time>2022-03-19T12:18:26.000Z</time>
      </trkpt>
      <trkpt lat="43.96453" lon="7.13535">
        <ele>873.79998779297</ele>
        <time>2022-03-19T12:18:27.000Z</time>
      </trkpt>
      <trkpt lat="43.9645" lon="7.13558">
        <ele>872.40002441406</ele>
        <time>2022-03-19T12:18:31.000Z</time>
      </trkpt>
      <trkpt lat="43.96449" lon="7.13563">
        <ele>871.40002441406</ele>
        <time>2022-03-19T12:18:32.000Z</time>
      </trkpt>
      <trkpt lat="43.96448" lon="7.1357">
        <ele>869.40002441406</ele>
        <time>2022-03-19T12:18:34.000Z</time>
      </trkpt>
      <trkpt lat="43.96447" lon="7.13572">
        <ele>868.40002441406</ele>
        <time>2022-03-19T12:18:35.000Z</time>
      </trkpt>
      <trkpt lat="43.96446" lon="7.13572">
        <ele>867.20001220703</ele>
        <time>2022-03-19T12:18:36.000Z</time>
      </trkpt>
      <trkpt lat="43.96447" lon="7.13573">
        <ele>866</ele>
        <time>2022-03-19T12:18:38.000Z</time>
      </trkpt>
      <trkpt lat="43.96448" lon="7.13573">
        <ele>865.20001220703</ele>
        <time>2022-03-19T12:18:40.000Z</time>
      </trkpt>
      <trkpt lat="43.96449" lon="7.13571">
        <ele>865</ele>
        <time>2022-03-19T12:18:41.000Z</time>
      </trkpt>
      <trkpt lat="43.96459" lon="7.13559">
        <ele>863.79998779297</ele>
        <time>2022-03-19T12:18:45.000Z</time>
      </trkpt>
      <trkpt lat="43.96463" lon="7.13553">
        <ele>862.79998779297</ele>
        <time>2022-03-19T12:18:47.000Z</time>
      </trkpt>
      <trkpt lat="43.96467" lon="7.13545">
        <ele>861.20001220703</ele>
        <time>2022-03-19T12:18:49.000Z</time>
      </trkpt>
      <trkpt lat="43.96469" lon="7.13543">
        <ele>860.40002441406</ele>
        <time>2022-03-19T12:18:50.000Z</time>
      </trkpt>
      <trkpt lat="43.96469" lon="7.13543">
        <ele>859.40002441406</ele>
        <time>2022-03-19T12:18:51.000Z</time>
      </trkpt>
      <trkpt lat="43.96469" lon="7.13543">
        <ele>857.59997558594</ele>
        <time>2022-03-19T12:18:53.000Z</time>
      </trkpt>
      <trkpt lat="43.96468" lon="7.13543">
        <ele>856.59997558594</ele>
        <time>2022-03-19T12:19:01.000Z</time>
      </trkpt>
      <trkpt lat="43.96468" lon="7.13543">
        <ele>856.59997558594</ele>
        <time>2022-03-19T12:19:03.000Z</time>
      </trkpt>
      <trkpt lat="43.96468" lon="7.13543">
        <ele>857</ele>
        <time>2022-03-19T12:19:19.000Z</time>
      </trkpt>
      <trkpt lat="43.96468" lon="7.13543">
        <ele>856.79998779297</ele>
        <time>2022-03-19T12:19:31.000Z</time>
      </trkpt>
      <trkpt lat="43.96468" lon="7.13548">
        <ele>856.20001220703</ele>
        <time>2022-03-19T12:19:36.000Z</time>
      </trkpt>
      <trkpt lat="43.96467" lon="7.13552">
        <ele>856</ele>
        <time>2022-03-19T12:19:43.000Z</time>
      </trkpt>
      <trkpt lat="43.96465" lon="7.1356">
        <ele>856</ele>
        <time>2022-03-19T12:19:51.000Z</time>
      </trkpt>
      <trkpt lat="43.9646" lon="7.13574">
        <ele>855.59997558594</ele>
        <time>2022-03-19T12:19:55.000Z</time>
      </trkpt>
      <trkpt lat="43.96458" lon="7.13579">
        <ele>855.59997558594</ele>
        <time>2022-03-19T12:19:56.000Z</time>
      </trkpt>
      <trkpt lat="43.96449" lon="7.13593">
        <ele>854.79998779297</ele>
        <time>2022-03-19T12:19:59.000Z</time>
      </trkpt>
      <trkpt lat="43.96448" lon="7.13598">
        <ele>854.40002441406</ele>
        <time>2022-03-19T12:20:00.000Z</time>
      </trkpt>
      <trkpt lat="43.96446" lon="7.13615">
        <ele>852.79998779297</ele>
        <time>2022-03-19T12:20:03.000Z</time>
      </trkpt>
      <trkpt lat="43.96438" lon="7.13634">
        <ele>851.59997558594</ele>
        <time>2022-03-19T12:20:07.000Z</time>
      </trkpt>
      <trkpt lat="43.96437" lon="7.13638">
        <ele>851.40002441406</ele>
        <time>2022-03-19T12:20:08.000Z</time>
      </trkpt>
      <trkpt lat="43.96433" lon="7.13653">
        <ele>850.59997558594</ele>
        <time>2022-03-19T12:20:11.000Z</time>
      </trkpt>
      <trkpt lat="43.9643" lon="7.13658">
        <ele>850</ele>
        <time>2022-03-19T12:20:12.000Z</time>
      </trkpt>
      <trkpt lat="43.96426" lon="7.13663">
        <ele>849.20001220703</ele>
        <time>2022-03-19T12:20:13.000Z</time>
      </trkpt>
      <trkpt lat="43.96419" lon="7.13674">
        <ele>847.20001220703</ele>
        <time>2022-03-19T12:20:15.000Z</time>
      </trkpt>
      <trkpt lat="43.96415" lon="7.1368">
        <ele>845.20001220703</ele>
        <time>2022-03-19T12:20:16.000Z</time>
      </trkpt>
      <trkpt lat="43.96411" lon="7.13686">
        <ele>844</ele>
        <time>2022-03-19T12:20:17.000Z</time>
      </trkpt>
      <trkpt lat="43.96408" lon="7.1369">
        <ele>842.40002441406</ele>
        <time>2022-03-19T12:20:18.000Z</time>
      </trkpt>
      <trkpt lat="43.96403" lon="7.13692">
        <ele>841.40002441406</ele>
        <time>2022-03-19T12:20:19.000Z</time>
      </trkpt>
      <trkpt lat="43.964" lon="7.13695">
        <ele>840.40002441406</ele>
        <time>2022-03-19T12:20:20.000Z</time>
      </trkpt>
      <trkpt lat="43.96398" lon="7.13697">
        <ele>840.40002441406</ele>
        <time>2022-03-19T12:20:21.000Z</time>
      </trkpt>
      <trkpt lat="43.96389" lon="7.13705">
        <ele>839.40002441406</ele>
        <time>2022-03-19T12:20:24.000Z</time>
      </trkpt>
      <trkpt lat="43.96384" lon="7.13705">
        <ele>839</ele>
        <time>2022-03-19T12:20:25.000Z</time>
      </trkpt>
      <trkpt lat="43.96377" lon="7.13705">
        <ele>837</ele>
        <time>2022-03-19T12:20:27.000Z</time>
      </trkpt>
      <trkpt lat="43.96373" lon="7.13706">
        <ele>835.20001220703</ele>
        <time>2022-03-19T12:20:29.000Z</time>
      </trkpt>
      <trkpt lat="43.96371" lon="7.13706">
        <ele>834.40002441406</ele>
        <time>2022-03-19T12:20:30.000Z</time>
      </trkpt>
      <trkpt lat="43.96368" lon="7.13707">
        <ele>834</ele>
        <time>2022-03-19T12:20:31.000Z</time>
      </trkpt>
      <trkpt lat="43.96358" lon="7.13703">
        <ele>834</ele>
        <time>2022-03-19T12:20:36.000Z</time>
      </trkpt>
      <trkpt lat="43.96357" lon="7.13703">
        <ele>834.79998779297</ele>
        <time>2022-03-19T12:20:40.000Z</time>
      </trkpt>
      <trkpt lat="43.96357" lon="7.13703">
        <ele>835.40002441406</ele>
        <time>2022-03-19T12:20:41.000Z</time>
      </trkpt>
      <trkpt lat="43.96356" lon="7.13704">
        <ele>835.40002441406</ele>
        <time>2022-03-19T12:20:49.000Z</time>
      </trkpt>
      <trkpt lat="43.96355" lon="7.13706">
        <ele>835.59997558594</ele>
        <time>2022-03-19T12:20:55.000Z</time>
      </trkpt>
      <trkpt lat="43.96352" lon="7.13709">
        <ele>835</ele>
        <time>2022-03-19T12:21:02.000Z</time>
      </trkpt>
      <trkpt lat="43.96351" lon="7.13709">
        <ele>835.59997558594</ele>
        <time>2022-03-19T12:21:07.000Z</time>
      </trkpt>
      <trkpt lat="43.9635" lon="7.13709">
        <ele>835.40002441406</ele>
        <time>2022-03-19T12:21:14.000Z</time>
      </trkpt>
      <trkpt lat="43.96348" lon="7.13708">
        <ele>835.59997558594</ele>
        <time>2022-03-19T12:21:20.000Z</time>
      </trkpt>
      <trkpt lat="43.96348" lon="7.13709">
        <ele>835.79998779297</ele>
        <time>2022-03-19T12:21:27.000Z</time>
      </trkpt>
      <trkpt lat="43.96349" lon="7.13709">
        <ele>835.79998779297</ele>
        <time>2022-03-19T12:21:37.000Z</time>
      </trkpt>
      <trkpt lat="43.96351" lon="7.1371">
        <ele>835.59997558594</ele>
        <time>2022-03-19T12:21:44.000Z</time>
      </trkpt>
      <trkpt lat="43.96352" lon="7.1371">
        <ele>835.20001220703</ele>
        <time>2022-03-19T12:21:54.000Z</time>
      </trkpt>
      <trkpt lat="43.96353" lon="7.13709">
        <ele>836</ele>
        <time>2022-03-19T12:22:06.000Z</time>
      </trkpt>
      <trkpt lat="43.96353" lon="7.13709">
        <ele>835.79998779297</ele>
        <time>2022-03-19T12:22:18.000Z</time>
      </trkpt>
      <trkpt lat="43.96354" lon="7.13709">
        <ele>835.79998779297</ele>
        <time>2022-03-19T12:22:32.000Z</time>
      </trkpt>
      <trkpt lat="43.96354" lon="7.13709">
        <ele>835.79998779297</ele>
        <time>2022-03-19T12:22:39.000Z</time>
      </trkpt>
      <trkpt lat="43.96354" lon="7.13709">
        <ele>835.59997558594</ele>
        <time>2022-03-19T12:22:51.000Z</time>
      </trkpt>
      <trkpt lat="43.96355" lon="7.13708">
        <ele>835.59997558594</ele>
        <time>2022-03-19T12:23:00.000Z</time>
      </trkpt>
      <trkpt lat="43.96355" lon="7.13708">
        <ele>835.79998779297</ele>
        <time>2022-03-19T12:23:08.000Z</time>
      </trkpt>
      <trkpt lat="43.96356" lon="7.13708">
        <ele>835.59997558594</ele>
        <time>2022-03-19T12:23:17.000Z</time>
      </trkpt>
      <trkpt lat="43.96357" lon="7.13708">
        <ele>835.79998779297</ele>
        <time>2022-03-19T12:23:30.000Z</time>
      </trkpt>
      <trkpt lat="43.96358" lon="7.13707">
        <ele>835.59997558594</ele>
        <time>2022-03-19T12:23:40.000Z</time>
      </trkpt>
      <trkpt lat="43.96355" lon="7.13711">
        <ele>835.59997558594</ele>
        <time>2022-03-19T12:23:50.000Z</time>
      </trkpt>
      <trkpt lat="43.96352" lon="7.13714">
        <ele>836.40002441406</ele>
        <time>2022-03-19T12:23:58.000Z</time>
      </trkpt>
      <trkpt lat="43.9635" lon="7.13717">
        <ele>836.40002441406</ele>
        <time>2022-03-19T12:24:08.000Z</time>
      </trkpt>
      <trkpt lat="43.96349" lon="7.13718">
        <ele>836.40002441406</ele>
        <time>2022-03-19T12:24:19.000Z</time>
      </trkpt>
      <trkpt lat="43.96348" lon="7.1372">
        <ele>836.79998779297</ele>
        <time>2022-03-19T12:24:31.000Z</time>
      </trkpt>
      <trkpt lat="43.96344" lon="7.13723">
        <ele>836.79998779297</ele>
        <time>2022-03-19T12:24:39.000Z</time>
      </trkpt>
      <trkpt lat="43.96344" lon="7.13722">
        <ele>837.20001220703</ele>
        <time>2022-03-19T12:24:46.000Z</time>
      </trkpt>
      <trkpt lat="43.96344" lon="7.13722">
        <ele>837.40002441406</ele>
        <time>2022-03-19T12:24:48.000Z</time>
      </trkpt>
      <trkpt lat="43.96343" lon="7.13725">
        <ele>837</ele>
        <time>2022-03-19T12:24:56.000Z</time>
      </trkpt>
      <trkpt lat="43.96343" lon="7.13726">
        <ele>836.79998779297</ele>
        <time>2022-03-19T12:24:59.000Z</time>
      </trkpt>
      <trkpt lat="43.96342" lon="7.13727">
        <ele>836.40002441406</ele>
        <time>2022-03-19T12:25:03.000Z</time>
      </trkpt>
      <trkpt lat="43.96342" lon="7.13728">
        <ele>835.59997558594</ele>
        <time>2022-03-19T12:25:08.000Z</time>
      </trkpt>
      <trkpt lat="43.96342" lon="7.1373">
        <ele>835.59997558594</ele>
        <time>2022-03-19T12:25:09.000Z</time>
      </trkpt>
      <trkpt lat="43.96341" lon="7.13737">
        <ele>835.40002441406</ele>
        <time>2022-03-19T12:25:12.000Z</time>
      </trkpt>
      <trkpt lat="43.96341" lon="7.13741">
        <ele>835</ele>
        <time>2022-03-19T12:25:14.000Z</time>
      </trkpt>
      <trkpt lat="43.96342" lon="7.13743">
        <ele>835</ele>
        <time>2022-03-19T12:25:15.000Z</time>
      </trkpt>
      <trkpt lat="43.96344" lon="7.13752">
        <ele>834.40002441406</ele>
        <time>2022-03-19T12:25:18.000Z</time>
      </trkpt>
      <trkpt lat="43.96344" lon="7.13755">
        <ele>833.79998779297</ele>
        <time>2022-03-19T12:25:19.000Z</time>
      </trkpt>
      <trkpt lat="43.96344" lon="7.13757">
        <ele>833.20001220703</ele>
        <time>2022-03-19T12:25:20.000Z</time>
      </trkpt>
      <trkpt lat="43.96343" lon="7.13759">
        <ele>833</ele>
        <time>2022-03-19T12:25:21.000Z</time>
      </trkpt>
      <trkpt lat="43.96341" lon="7.13763">
        <ele>831.79998779297</ele>
        <time>2022-03-19T12:25:23.000Z</time>
      </trkpt>
      <trkpt lat="43.9634" lon="7.13764">
        <ele>830.59997558594</ele>
        <time>2022-03-19T12:25:25.000Z</time>
      </trkpt>
      <trkpt lat="43.9634" lon="7.13764">
        <ele>830.20001220703</ele>
        <time>2022-03-19T12:25:26.000Z</time>
      </trkpt>
      <trkpt lat="43.9634" lon="7.13763">
        <ele>829.59997558594</ele>
        <time>2022-03-19T12:25:28.000Z</time>
      </trkpt>
      <trkpt lat="43.96341" lon="7.13763">
        <ele>829.40002441406</ele>
        <time>2022-03-19T12:25:31.000Z</time>
      </trkpt>
      <trkpt lat="43.96343" lon="7.13763">
        <ele>829.20001220703</ele>
        <time>2022-03-19T12:25:34.000Z</time>
      </trkpt>
      <trkpt lat="43.96348" lon="7.13761">
        <ele>828.79998779297</ele>
        <time>2022-03-19T12:25:37.000Z</time>
      </trkpt>
      <trkpt lat="43.96351" lon="7.1376">
        <ele>828.40002441406</ele>
        <time>2022-03-19T12:25:38.000Z</time>
      </trkpt>
      <trkpt lat="43.96354" lon="7.13758">
        <ele>827.20001220703</ele>
        <time>2022-03-19T12:25:40.000Z</time>
      </trkpt>
      <trkpt lat="43.96357" lon="7.13758">
        <ele>826.20001220703</ele>
        <time>2022-03-19T12:25:42.000Z</time>
      </trkpt>
      <trkpt lat="43.96357" lon="7.13761">
        <ele>825.40002441406</ele>
        <time>2022-03-19T12:25:43.000Z</time>
      </trkpt>
      <trkpt lat="43.96356" lon="7.13764">
        <ele>824.79998779297</ele>
        <time>2022-03-19T12:25:44.000Z</time>
      </trkpt>
      <trkpt lat="43.96352" lon="7.13772">
        <ele>823.59997558594</ele>
        <time>2022-03-19T12:25:46.000Z</time>
      </trkpt>
      <trkpt lat="43.96348" lon="7.1378">
        <ele>822.20001220703</ele>
        <time>2022-03-19T12:25:48.000Z</time>
      </trkpt>
      <trkpt lat="43.96346" lon="7.13783">
        <ele>821.20001220703</ele>
        <time>2022-03-19T12:25:49.000Z</time>
      </trkpt>
      <trkpt lat="43.96343" lon="7.13786">
        <ele>820.20001220703</ele>
        <time>2022-03-19T12:25:50.000Z</time>
      </trkpt>
      <trkpt lat="43.9634" lon="7.13789">
        <ele>819</ele>
        <time>2022-03-19T12:25:51.000Z</time>
      </trkpt>
      <trkpt lat="43.96338" lon="7.13792">
        <ele>817.79998779297</ele>
        <time>2022-03-19T12:25:52.000Z</time>
      </trkpt>
      <trkpt lat="43.96334" lon="7.13793">
        <ele>816.59997558594</ele>
        <time>2022-03-19T12:25:53.000Z</time>
      </trkpt>
      <trkpt lat="43.96331" lon="7.13794">
        <ele>815.20001220703</ele>
        <time>2022-03-19T12:25:54.000Z</time>
      </trkpt>
      <trkpt lat="43.96326" lon="7.13796">
        <ele>813.79998779297</ele>
        <time>2022-03-19T12:25:56.000Z</time>
      </trkpt>
      <trkpt lat="43.96323" lon="7.13801">
        <ele>813.20001220703</ele>
        <time>2022-03-19T12:25:58.000Z</time>
      </trkpt>
      <trkpt lat="43.96321" lon="7.13805">
        <ele>813</ele>
        <time>2022-03-19T12:25:59.000Z</time>
      </trkpt>
      <trkpt lat="43.96318" lon="7.1381">
        <ele>812.40002441406</ele>
        <time>2022-03-19T12:26:00.000Z</time>
      </trkpt>
      <trkpt lat="43.96307" lon="7.13826">
        <ele>810.40002441406</ele>
        <time>2022-03-19T12:26:03.000Z</time>
      </trkpt>
      <trkpt lat="43.96304" lon="7.13832">
        <ele>809</ele>
        <time>2022-03-19T12:26:04.000Z</time>
      </trkpt>
      <trkpt lat="43.96301" lon="7.13837">
        <ele>808</ele>
        <time>2022-03-19T12:26:05.000Z</time>
      </trkpt>
      <trkpt lat="43.96298" lon="7.1384">
        <ele>805.59997558594</ele>
        <time>2022-03-19T12:26:06.000Z</time>
      </trkpt>
      <trkpt lat="43.96293" lon="7.13846">
        <ele>803.40002441406</ele>
        <time>2022-03-19T12:26:08.000Z</time>
      </trkpt>
      <trkpt lat="43.96289" lon="7.13849">
        <ele>802.20001220703</ele>
        <time>2022-03-19T12:26:09.000Z</time>
      </trkpt>
      <trkpt lat="43.96286" lon="7.13852">
        <ele>800.79998779297</ele>
        <time>2022-03-19T12:26:10.000Z</time>
      </trkpt>
      <trkpt lat="43.96281" lon="7.13858">
        <ele>799.20001220703</ele>
        <time>2022-03-19T12:26:12.000Z</time>
      </trkpt>
      <trkpt lat="43.96275" lon="7.13866">
        <ele>797.59997558594</ele>
        <time>2022-03-19T12:26:14.000Z</time>
      </trkpt>
      <trkpt lat="43.96269" lon="7.13872">
        <ele>796.40002441406</ele>
        <time>2022-03-19T12:26:16.000Z</time>
      </trkpt>
      <trkpt lat="43.96263" lon="7.13878">
        <ele>796.59997558594</ele>
        <time>2022-03-19T12:26:18.000Z</time>
      </trkpt>
      <trkpt lat="43.96257" lon="7.13886">
        <ele>796.79998779297</ele>
        <time>2022-03-19T12:26:20.000Z</time>
      </trkpt>
      <trkpt lat="43.9625" lon="7.139">
        <ele>795.20001220703</ele>
        <time>2022-03-19T12:26:23.000Z</time>
      </trkpt>
      <trkpt lat="43.96248" lon="7.13905">
        <ele>794.40002441406</ele>
        <time>2022-03-19T12:26:24.000Z</time>
      </trkpt>
      <trkpt lat="43.96247" lon="7.13909">
        <ele>793.79998779297</ele>
        <time>2022-03-19T12:26:25.000Z</time>
      </trkpt>
      <trkpt lat="43.96244" lon="7.13915">
        <ele>792.40002441406</ele>
        <time>2022-03-19T12:26:27.000Z</time>
      </trkpt>
      <trkpt lat="43.96243" lon="7.13918">
        <ele>791.79998779297</ele>
        <time>2022-03-19T12:26:28.000Z</time>
      </trkpt>
      <trkpt lat="43.96242" lon="7.13921">
        <ele>791.20001220703</ele>
        <time>2022-03-19T12:26:29.000Z</time>
      </trkpt>
      <trkpt lat="43.96244" lon="7.13934">
        <ele>790</ele>
        <time>2022-03-19T12:26:32.000Z</time>
      </trkpt>
      <trkpt lat="43.96245" lon="7.13938">
        <ele>789.20001220703</ele>
        <time>2022-03-19T12:26:33.000Z</time>
      </trkpt>
      <trkpt lat="43.96245" lon="7.13943">
        <ele>788</ele>
        <time>2022-03-19T12:26:34.000Z</time>
      </trkpt>
      <trkpt lat="43.96244" lon="7.13947">
        <ele>786.79998779297</ele>
        <time>2022-03-19T12:26:35.000Z</time>
      </trkpt>
      <trkpt lat="43.96242" lon="7.1395">
        <ele>785.59997558594</ele>
        <time>2022-03-19T12:26:36.000Z</time>
      </trkpt>
      <trkpt lat="43.96238" lon="7.13956">
        <ele>783.40002441406</ele>
        <time>2022-03-19T12:26:38.000Z</time>
      </trkpt>
      <trkpt lat="43.96233" lon="7.13963">
        <ele>781.79998779297</ele>
        <time>2022-03-19T12:26:40.000Z</time>
      </trkpt>
      <trkpt lat="43.96229" lon="7.1397">
        <ele>781.20001220703</ele>
        <time>2022-03-19T12:26:42.000Z</time>
      </trkpt>
      <trkpt lat="43.96224" lon="7.13975">
        <ele>781</ele>
        <time>2022-03-19T12:26:43.000Z</time>
      </trkpt>
      <trkpt lat="43.9622" lon="7.13978">
        <ele>780.40002441406</ele>
        <time>2022-03-19T12:26:44.000Z</time>
      </trkpt>
      <trkpt lat="43.96217" lon="7.13982">
        <ele>780</ele>
        <time>2022-03-19T12:26:45.000Z</time>
      </trkpt>
      <trkpt lat="43.96215" lon="7.13983">
        <ele>778.59997558594</ele>
        <time>2022-03-19T12:26:46.000Z</time>
      </trkpt>
      <trkpt lat="43.96215" lon="7.13985">
        <ele>777.59997558594</ele>
        <time>2022-03-19T12:26:48.000Z</time>
      </trkpt>
      <trkpt lat="43.96224" lon="7.13983">
        <ele>776.40002441406</ele>
        <time>2022-03-19T12:26:52.000Z</time>
      </trkpt>
      <trkpt lat="43.96231" lon="7.13981">
        <ele>775.40002441406</ele>
        <time>2022-03-19T12:26:54.000Z</time>
      </trkpt>
      <trkpt lat="43.96235" lon="7.13981">
        <ele>773.40002441406</ele>
        <time>2022-03-19T12:26:56.000Z</time>
      </trkpt>
      <trkpt lat="43.96235" lon="7.13984">
        <ele>772.20001220703</ele>
        <time>2022-03-19T12:26:58.000Z</time>
      </trkpt>
      <trkpt lat="43.96231" lon="7.13993">
        <ele>771</ele>
        <time>2022-03-19T12:27:00.000Z</time>
      </trkpt>
      <trkpt lat="43.9622" lon="7.1401">
        <ele>769.20001220703</ele>
        <time>2022-03-19T12:27:03.000Z</time>
      </trkpt>
      <trkpt lat="43.96214" lon="7.14017">
        <ele>767.40002441406</ele>
        <time>2022-03-19T12:27:04.000Z</time>
      </trkpt>
      <trkpt lat="43.96209" lon="7.14023">
        <ele>766.20001220703</ele>
        <time>2022-03-19T12:27:05.000Z</time>
      </trkpt>
      <trkpt lat="43.96206" lon="7.14029">
        <ele>764.59997558594</ele>
        <time>2022-03-19T12:27:06.000Z</time>
      </trkpt>
      <trkpt lat="43.96204" lon="7.14035">
        <ele>764</ele>
        <time>2022-03-19T12:27:07.000Z</time>
      </trkpt>
      <trkpt lat="43.96201" lon="7.14042">
        <ele>762.79998779297</ele>
        <time>2022-03-19T12:27:08.000Z</time>
      </trkpt>
      <trkpt lat="43.96194" lon="7.14053">
        <ele>760.79998779297</ele>
        <time>2022-03-19T12:27:10.000Z</time>
      </trkpt>
      <trkpt lat="43.96191" lon="7.14058">
        <ele>759.79998779297</ele>
        <time>2022-03-19T12:27:11.000Z</time>
      </trkpt>
      <trkpt lat="43.96186" lon="7.1407">
        <ele>756.79998779297</ele>
        <time>2022-03-19T12:27:13.000Z</time>
      </trkpt>
      <trkpt lat="43.96184" lon="7.14077">
        <ele>755.59997558594</ele>
        <time>2022-03-19T12:27:14.000Z</time>
      </trkpt>
      <trkpt lat="43.96181" lon="7.14083">
        <ele>754.79998779297</ele>
        <time>2022-03-19T12:27:15.000Z</time>
      </trkpt>
      <trkpt lat="43.96178" lon="7.14088">
        <ele>753.59997558594</ele>
        <time>2022-03-19T12:27:16.000Z</time>
      </trkpt>
      <trkpt lat="43.96175" lon="7.14093">
        <ele>752.40002441406</ele>
        <time>2022-03-19T12:27:17.000Z</time>
      </trkpt>
      <trkpt lat="43.96172" lon="7.14099">
        <ele>751</ele>
        <time>2022-03-19T12:27:18.000Z</time>
      </trkpt>
      <trkpt lat="43.9617" lon="7.14104">
        <ele>750.40002441406</ele>
        <time>2022-03-19T12:27:19.000Z</time>
      </trkpt>
      <trkpt lat="43.96166" lon="7.14105">
        <ele>749.20001220703</ele>
        <time>2022-03-19T12:27:20.000Z</time>
      </trkpt>
      <trkpt lat="43.96163" lon="7.14107">
        <ele>747.40002441406</ele>
        <time>2022-03-19T12:27:21.000Z</time>
      </trkpt>
      <trkpt lat="43.96159" lon="7.14104">
        <ele>747</ele>
        <time>2022-03-19T12:27:22.000Z</time>
      </trkpt>
      <trkpt lat="43.96156" lon="7.141">
        <ele>745.79998779297</ele>
        <time>2022-03-19T12:27:23.000Z</time>
      </trkpt>
      <trkpt lat="43.96152" lon="7.14098">
        <ele>744.79998779297</ele>
        <time>2022-03-19T12:27:24.000Z</time>
      </trkpt>
      <trkpt lat="43.96147" lon="7.14091">
        <ele>743</ele>
        <time>2022-03-19T12:27:26.000Z</time>
      </trkpt>
      <trkpt lat="43.96144" lon="7.14085">
        <ele>741.59997558594</ele>
        <time>2022-03-19T12:27:27.000Z</time>
      </trkpt>
      <trkpt lat="43.96137" lon="7.14079">
        <ele>739.79998779297</ele>
        <time>2022-03-19T12:27:29.000Z</time>
      </trkpt>
      <trkpt lat="43.96133" lon="7.14076">
        <ele>738.79998779297</ele>
        <time>2022-03-19T12:27:30.000Z</time>
      </trkpt>
      <trkpt lat="43.9613" lon="7.1407">
        <ele>737.20001220703</ele>
        <time>2022-03-19T12:27:31.000Z</time>
      </trkpt>
      <trkpt lat="43.96126" lon="7.14061">
        <ele>735.40002441406</ele>
        <time>2022-03-19T12:27:33.000Z</time>
      </trkpt>
      <trkpt lat="43.96124" lon="7.14057">
        <ele>733.79998779297</ele>
        <time>2022-03-19T12:27:34.000Z</time>
      </trkpt>
      <trkpt lat="43.96119" lon="7.14049">
        <ele>732</ele>
        <time>2022-03-19T12:27:36.000Z</time>
      </trkpt>
      <trkpt lat="43.96114" lon="7.14041">
        <ele>730.40002441406</ele>
        <time>2022-03-19T12:27:38.000Z</time>
      </trkpt>
      <trkpt lat="43.96111" lon="7.14038">
        <ele>729.40002441406</ele>
        <time>2022-03-19T12:27:39.000Z</time>
      </trkpt>
      <trkpt lat="43.96109" lon="7.14031">
        <ele>727.40002441406</ele>
        <time>2022-03-19T12:27:40.000Z</time>
      </trkpt>
      <trkpt lat="43.96107" lon="7.14025">
        <ele>726.40002441406</ele>
        <time>2022-03-19T12:27:41.000Z</time>
      </trkpt>
      <trkpt lat="43.96105" lon="7.1402">
        <ele>725.59997558594</ele>
        <time>2022-03-19T12:27:42.000Z</time>
      </trkpt>
      <trkpt lat="43.96102" lon="7.1402">
        <ele>723.59997558594</ele>
        <time>2022-03-19T12:27:43.000Z</time>
      </trkpt>
      <trkpt lat="43.96099" lon="7.14019">
        <ele>722.79998779297</ele>
        <time>2022-03-19T12:27:44.000Z</time>
      </trkpt>
      <trkpt lat="43.96096" lon="7.14018">
        <ele>722.40002441406</ele>
        <time>2022-03-19T12:27:45.000Z</time>
      </trkpt>
      <trkpt lat="43.9609" lon="7.14018">
        <ele>722.40002441406</ele>
        <time>2022-03-19T12:27:48.000Z</time>
      </trkpt>
      <trkpt lat="43.96087" lon="7.14019">
        <ele>722.59997558594</ele>
        <time>2022-03-19T12:27:50.000Z</time>
      </trkpt>
      <trkpt lat="43.96088" lon="7.14019">
        <ele>723</ele>
        <time>2022-03-19T12:27:55.000Z</time>
      </trkpt>
      <trkpt lat="43.96087" lon="7.14019">
        <ele>723</ele>
        <time>2022-03-19T12:28:14.000Z</time>
      </trkpt>
      <trkpt lat="43.96088" lon="7.14017">
        <ele>723</ele>
        <time>2022-03-19T12:28:29.000Z</time>
      </trkpt>
      <trkpt lat="43.96089" lon="7.14014">
        <ele>722.79998779297</ele>
        <time>2022-03-19T12:28:51.000Z</time>
      </trkpt>
      <trkpt lat="43.96088" lon="7.14015">
        <ele>722.79998779297</ele>
        <time>2022-03-19T12:29:03.000Z</time>
      </trkpt>
      <trkpt lat="43.96083" lon="7.14016">
        <ele>722.79998779297</ele>
        <time>2022-03-19T12:29:25.000Z</time>
      </trkpt>
      <trkpt lat="43.96072" lon="7.14013">
        <ele>722.40002441406</ele>
        <time>2022-03-19T12:29:28.000Z</time>
      </trkpt>
      <trkpt lat="43.96068" lon="7.14009">
        <ele>722</ele>
        <time>2022-03-19T12:29:29.000Z</time>
      </trkpt>
      <trkpt lat="43.96066" lon="7.14006">
        <ele>721.40002441406</ele>
        <time>2022-03-19T12:29:30.000Z</time>
      </trkpt>
      <trkpt lat="43.96059" lon="7.14005">
        <ele>719.79998779297</ele>
        <time>2022-03-19T12:29:32.000Z</time>
      </trkpt>
      <trkpt lat="43.96056" lon="7.14005">
        <ele>719</ele>
        <time>2022-03-19T12:29:33.000Z</time>
      </trkpt>
      <trkpt lat="43.96053" lon="7.14004">
        <ele>718.40002441406</ele>
        <time>2022-03-19T12:29:34.000Z</time>
      </trkpt>
      <trkpt lat="43.96046" lon="7.13995">
        <ele>718.40002441406</ele>
        <time>2022-03-19T12:29:37.000Z</time>
      </trkpt>
      <trkpt lat="43.96044" lon="7.13982">
        <ele>719.59997558594</ele>
        <time>2022-03-19T12:29:41.000Z</time>
      </trkpt>
      <trkpt lat="43.96043" lon="7.1398">
        <ele>719.79998779297</ele>
        <time>2022-03-19T12:29:42.000Z</time>
      </trkpt>
      <trkpt lat="43.96035" lon="7.13978">
        <ele>718.40002441406</ele>
        <time>2022-03-19T12:29:45.000Z</time>
      </trkpt>
      <trkpt lat="43.96032" lon="7.13978">
        <ele>718</ele>
        <time>2022-03-19T12:29:46.000Z</time>
      </trkpt>
      <trkpt lat="43.96029" lon="7.13978">
        <ele>717</ele>
        <time>2022-03-19T12:29:47.000Z</time>
      </trkpt>
      <trkpt lat="43.96026" lon="7.13978">
        <ele>716.20001220703</ele>
        <time>2022-03-19T12:29:48.000Z</time>
      </trkpt>
      <trkpt lat="43.96023" lon="7.13978">
        <ele>715.20001220703</ele>
        <time>2022-03-19T12:29:49.000Z</time>
      </trkpt>
      <trkpt lat="43.96021" lon="7.13978">
        <ele>714.59997558594</ele>
        <time>2022-03-19T12:29:50.000Z</time>
      </trkpt>
      <trkpt lat="43.96018" lon="7.13977">
        <ele>713.59997558594</ele>
        <time>2022-03-19T12:29:51.000Z</time>
      </trkpt>
      <trkpt lat="43.96015" lon="7.13975">
        <ele>712.59997558594</ele>
        <time>2022-03-19T12:29:52.000Z</time>
      </trkpt>
      <trkpt lat="43.96013" lon="7.13975">
        <ele>711.79998779297</ele>
        <time>2022-03-19T12:29:53.000Z</time>
      </trkpt>
      <trkpt lat="43.96011" lon="7.13976">
        <ele>711</ele>
        <time>2022-03-19T12:29:54.000Z</time>
      </trkpt>
      <trkpt lat="43.95999" lon="7.13986">
        <ele>710</ele>
        <time>2022-03-19T12:29:58.000Z</time>
      </trkpt>
      <trkpt lat="43.95992" lon="7.13988">
        <ele>710.20001220703</ele>
        <time>2022-03-19T12:30:01.000Z</time>
      </trkpt>
      <trkpt lat="43.95984" lon="7.13997">
        <ele>710.20001220703</ele>
        <time>2022-03-19T12:30:05.000Z</time>
      </trkpt>
      <trkpt lat="43.9598" lon="7.13998">
        <ele>710.40002441406</ele>
        <time>2022-03-19T12:30:07.000Z</time>
      </trkpt>
      <trkpt lat="43.95977" lon="7.14">
        <ele>711.20001220703</ele>
        <time>2022-03-19T12:30:09.000Z</time>
      </trkpt>
      <trkpt lat="43.95973" lon="7.14005">
        <ele>712.40002441406</ele>
        <time>2022-03-19T12:30:12.000Z</time>
      </trkpt>
      <trkpt lat="43.9597" lon="7.14007">
        <ele>713.20001220703</ele>
        <time>2022-03-19T12:30:14.000Z</time>
      </trkpt>
      <trkpt lat="43.95968" lon="7.14008">
        <ele>713.40002441406</ele>
        <time>2022-03-19T12:30:15.000Z</time>
      </trkpt>
      <trkpt lat="43.95958" lon="7.14017">
        <ele>714.59997558594</ele>
        <time>2022-03-19T12:30:20.000Z</time>
      </trkpt>
      <trkpt lat="43.95945" lon="7.14029">
        <ele>715</ele>
        <time>2022-03-19T12:30:26.000Z</time>
      </trkpt>
      <trkpt lat="43.95938" lon="7.14036">
        <ele>713.20001220703</ele>
        <time>2022-03-19T12:30:30.000Z</time>
      </trkpt>
      <trkpt lat="43.95938" lon="7.14039">
        <ele>712.79998779297</ele>
        <time>2022-03-19T12:30:31.000Z</time>
      </trkpt>
      <trkpt lat="43.95938" lon="7.14045">
        <ele>712.20001220703</ele>
        <time>2022-03-19T12:30:33.000Z</time>
      </trkpt>
      <trkpt lat="43.95936" lon="7.14049">
        <ele>711.79998779297</ele>
        <time>2022-03-19T12:30:34.000Z</time>
      </trkpt>
      <trkpt lat="43.95928" lon="7.14059">
        <ele>710.40002441406</ele>
        <time>2022-03-19T12:30:36.000Z</time>
      </trkpt>
      <trkpt lat="43.95924" lon="7.14063">
        <ele>709.79998779297</ele>
        <time>2022-03-19T12:30:37.000Z</time>
      </trkpt>
      <trkpt lat="43.9592" lon="7.14065">
        <ele>708.79998779297</ele>
        <time>2022-03-19T12:30:38.000Z</time>
      </trkpt>
      <trkpt lat="43.95915" lon="7.14068">
        <ele>707.79998779297</ele>
        <time>2022-03-19T12:30:39.000Z</time>
      </trkpt>
      <trkpt lat="43.9591" lon="7.1407">
        <ele>706.59997558594</ele>
        <time>2022-03-19T12:30:40.000Z</time>
      </trkpt>
      <trkpt lat="43.95905" lon="7.14073">
        <ele>705.40002441406</ele>
        <time>2022-03-19T12:30:41.000Z</time>
      </trkpt>
      <trkpt lat="43.95902" lon="7.14077">
        <ele>704.20001220703</ele>
        <time>2022-03-19T12:30:42.000Z</time>
      </trkpt>
      <trkpt lat="43.95895" lon="7.14081">
        <ele>703</ele>
        <time>2022-03-19T12:30:44.000Z</time>
      </trkpt>
      <trkpt lat="43.95892" lon="7.14083">
        <ele>702.79998779297</ele>
        <time>2022-03-19T12:30:45.000Z</time>
      </trkpt>
      <trkpt lat="43.95885" lon="7.14091">
        <ele>703</ele>
        <time>2022-03-19T12:30:49.000Z</time>
      </trkpt>
      <trkpt lat="43.95883" lon="7.14093">
        <ele>703.20001220703</ele>
        <time>2022-03-19T12:30:50.000Z</time>
      </trkpt>
      <trkpt lat="43.95878" lon="7.14101">
        <ele>704.20001220703</ele>
        <time>2022-03-19T12:30:53.000Z</time>
      </trkpt>
      <trkpt lat="43.95877" lon="7.14106">
        <ele>704.40002441406</ele>
        <time>2022-03-19T12:30:54.000Z</time>
      </trkpt>
      <trkpt lat="43.95874" lon="7.14127">
        <ele>702.59997558594</ele>
        <time>2022-03-19T12:30:58.000Z</time>
      </trkpt>
      <trkpt lat="43.95873" lon="7.14134">
        <ele>701.79998779297</ele>
        <time>2022-03-19T12:30:59.000Z</time>
      </trkpt>
      <trkpt lat="43.95873" lon="7.1414">
        <ele>700.79998779297</ele>
        <time>2022-03-19T12:31:00.000Z</time>
      </trkpt>
      <trkpt lat="43.95871" lon="7.14147">
        <ele>699.59997558594</ele>
        <time>2022-03-19T12:31:01.000Z</time>
      </trkpt>
      <trkpt lat="43.95867" lon="7.14161">
        <ele>697</ele>
        <time>2022-03-19T12:31:03.000Z</time>
      </trkpt>
      <trkpt lat="43.95865" lon="7.14169">
        <ele>695.59997558594</ele>
        <time>2022-03-19T12:31:04.000Z</time>
      </trkpt>
      <trkpt lat="43.95861" lon="7.14177">
        <ele>694</ele>
        <time>2022-03-19T12:31:05.000Z</time>
      </trkpt>
      <trkpt lat="43.95853" lon="7.14193">
        <ele>691.40002441406</ele>
        <time>2022-03-19T12:31:07.000Z</time>
      </trkpt>
      <trkpt lat="43.95847" lon="7.14199">
        <ele>690.40002441406</ele>
        <time>2022-03-19T12:31:08.000Z</time>
      </trkpt>
      <trkpt lat="43.95836" lon="7.14211">
        <ele>689</ele>
        <time>2022-03-19T12:31:10.000Z</time>
      </trkpt>
      <trkpt lat="43.95823" lon="7.1422">
        <ele>687.59997558594</ele>
        <time>2022-03-19T12:31:12.000Z</time>
      </trkpt>
      <trkpt lat="43.9581" lon="7.14225">
        <ele>686.40002441406</ele>
        <time>2022-03-19T12:31:14.000Z</time>
      </trkpt>
      <trkpt lat="43.95801" lon="7.14222">
        <ele>685.79998779297</ele>
        <time>2022-03-19T12:31:16.000Z</time>
      </trkpt>
      <trkpt lat="43.95791" lon="7.14224">
        <ele>686.59997558594</ele>
        <time>2022-03-19T12:31:19.000Z</time>
      </trkpt>
      <trkpt lat="43.95789" lon="7.14234">
        <ele>686.79998779297</ele>
        <time>2022-03-19T12:31:21.000Z</time>
      </trkpt>
      <trkpt lat="43.95787" lon="7.14237">
        <ele>686.59997558594</ele>
        <time>2022-03-19T12:31:22.000Z</time>
      </trkpt>
      <trkpt lat="43.95776" lon="7.1425">
        <ele>685.40002441406</ele>
        <time>2022-03-19T12:31:25.000Z</time>
      </trkpt>
      <trkpt lat="43.95767" lon="7.14261">
        <ele>683.59997558594</ele>
        <time>2022-03-19T12:31:27.000Z</time>
      </trkpt>
      <trkpt lat="43.95762" lon="7.14265">
        <ele>682.20001220703</ele>
        <time>2022-03-19T12:31:28.000Z</time>
      </trkpt>
      <trkpt lat="43.95756" lon="7.14269">
        <ele>680.79998779297</ele>
        <time>2022-03-19T12:31:29.000Z</time>
      </trkpt>
      <trkpt lat="43.9575" lon="7.14273">
        <ele>679.40002441406</ele>
        <time>2022-03-19T12:31:30.000Z</time>
      </trkpt>
      <trkpt lat="43.95744" lon="7.14278">
        <ele>678.20001220703</ele>
        <time>2022-03-19T12:31:31.000Z</time>
      </trkpt>
      <trkpt lat="43.95738" lon="7.14283">
        <ele>676.59997558594</ele>
        <time>2022-03-19T12:31:32.000Z</time>
      </trkpt>
      <trkpt lat="43.95733" lon="7.14288">
        <ele>675.40002441406</ele>
        <time>2022-03-19T12:31:33.000Z</time>
      </trkpt>
      <trkpt lat="43.95723" lon="7.14297">
        <ele>674</ele>
        <time>2022-03-19T12:31:35.000Z</time>
      </trkpt>
      <trkpt lat="43.95719" lon="7.143">
        <ele>672.79998779297</ele>
        <time>2022-03-19T12:31:36.000Z</time>
      </trkpt>
      <trkpt lat="43.9571" lon="7.14298">
        <ele>671</ele>
        <time>2022-03-19T12:31:38.000Z</time>
      </trkpt>
      <trkpt lat="43.95707" lon="7.143">
        <ele>669.59997558594</ele>
        <time>2022-03-19T12:31:39.000Z</time>
      </trkpt>
      <trkpt lat="43.95704" lon="7.14302">
        <ele>668.40002441406</ele>
        <time>2022-03-19T12:31:40.000Z</time>
      </trkpt>
      <trkpt lat="43.95702" lon="7.14305">
        <ele>667.20001220703</ele>
        <time>2022-03-19T12:31:41.000Z</time>
      </trkpt>
      <trkpt lat="43.95699" lon="7.14309">
        <ele>666.20001220703</ele>
        <time>2022-03-19T12:31:42.000Z</time>
      </trkpt>
      <trkpt lat="43.95696" lon="7.14313">
        <ele>665</ele>
        <time>2022-03-19T12:31:43.000Z</time>
      </trkpt>
      <trkpt lat="43.95684" lon="7.1432">
        <ele>663.20001220703</ele>
        <time>2022-03-19T12:31:45.000Z</time>
      </trkpt>
      <trkpt lat="43.95677" lon="7.14321">
        <ele>662.59997558594</ele>
        <time>2022-03-19T12:31:46.000Z</time>
      </trkpt>
      <trkpt lat="43.9567" lon="7.1432">
        <ele>661.59997558594</ele>
        <time>2022-03-19T12:31:47.000Z</time>
      </trkpt>
      <trkpt lat="43.95664" lon="7.14319">
        <ele>660.40002441406</ele>
        <time>2022-03-19T12:31:48.000Z</time>
      </trkpt>
      <trkpt lat="43.95658" lon="7.14319">
        <ele>659</ele>
        <time>2022-03-19T12:31:49.000Z</time>
      </trkpt>
      <trkpt lat="43.95654" lon="7.1432">
        <ele>658</ele>
        <time>2022-03-19T12:31:50.000Z</time>
      </trkpt>
      <trkpt lat="43.95649" lon="7.14322">
        <ele>656.59997558594</ele>
        <time>2022-03-19T12:31:51.000Z</time>
      </trkpt>
      <trkpt lat="43.95646" lon="7.14323">
        <ele>655.20001220703</ele>
        <time>2022-03-19T12:31:52.000Z</time>
      </trkpt>
      <trkpt lat="43.95639" lon="7.14329">
        <ele>653.59997558594</ele>
        <time>2022-03-19T12:31:54.000Z</time>
      </trkpt>
      <trkpt lat="43.95635" lon="7.14331">
        <ele>652.40002441406</ele>
        <time>2022-03-19T12:31:55.000Z</time>
      </trkpt>
      <trkpt lat="43.95631" lon="7.14333">
        <ele>651.40002441406</ele>
        <time>2022-03-19T12:31:56.000Z</time>
      </trkpt>
      <trkpt lat="43.95626" lon="7.14333">
        <ele>649.79998779297</ele>
        <time>2022-03-19T12:31:57.000Z</time>
      </trkpt>
      <trkpt lat="43.95623" lon="7.14333">
        <ele>648.40002441406</ele>
        <time>2022-03-19T12:31:58.000Z</time>
      </trkpt>
      <trkpt lat="43.95618" lon="7.14333">
        <ele>646.79998779297</ele>
        <time>2022-03-19T12:31:59.000Z</time>
      </trkpt>
      <trkpt lat="43.95614" lon="7.14334">
        <ele>645.59997558594</ele>
        <time>2022-03-19T12:32:00.000Z</time>
      </trkpt>
      <trkpt lat="43.95609" lon="7.14334">
        <ele>644.40002441406</ele>
        <time>2022-03-19T12:32:01.000Z</time>
      </trkpt>
      <trkpt lat="43.95605" lon="7.14333">
        <ele>643.20001220703</ele>
        <time>2022-03-19T12:32:02.000Z</time>
      </trkpt>
      <trkpt lat="43.95601" lon="7.14333">
        <ele>642.40002441406</ele>
        <time>2022-03-19T12:32:03.000Z</time>
      </trkpt>
      <trkpt lat="43.95596" lon="7.14333">
        <ele>641.40002441406</ele>
        <time>2022-03-19T12:32:04.000Z</time>
      </trkpt>
      <trkpt lat="43.95587" lon="7.14333">
        <ele>639.40002441406</ele>
        <time>2022-03-19T12:32:06.000Z</time>
      </trkpt>
      <trkpt lat="43.95582" lon="7.14335">
        <ele>638.79998779297</ele>
        <time>2022-03-19T12:32:07.000Z</time>
      </trkpt>
      <trkpt lat="43.95577" lon="7.14337">
        <ele>637.79998779297</ele>
        <time>2022-03-19T12:32:08.000Z</time>
      </trkpt>
      <trkpt lat="43.95567" lon="7.14338">
        <ele>636</ele>
        <time>2022-03-19T12:32:10.000Z</time>
      </trkpt>
      <trkpt lat="43.95561" lon="7.14339">
        <ele>635.20001220703</ele>
        <time>2022-03-19T12:32:11.000Z</time>
      </trkpt>
      <trkpt lat="43.95556" lon="7.1434">
        <ele>634</ele>
        <time>2022-03-19T12:32:12.000Z</time>
      </trkpt>
      <trkpt lat="43.95545" lon="7.14348">
        <ele>632.40002441406</ele>
        <time>2022-03-19T12:32:14.000Z</time>
      </trkpt>
      <trkpt lat="43.9554" lon="7.14352">
        <ele>632.20001220703</ele>
        <time>2022-03-19T12:32:15.000Z</time>
      </trkpt>
      <trkpt lat="43.9553" lon="7.14358">
        <ele>631.40002441406</ele>
        <time>2022-03-19T12:32:17.000Z</time>
      </trkpt>
      <trkpt lat="43.95524" lon="7.14361">
        <ele>631</ele>
        <time>2022-03-19T12:32:18.000Z</time>
      </trkpt>
      <trkpt lat="43.95518" lon="7.14362">
        <ele>630.59997558594</ele>
        <time>2022-03-19T12:32:19.000Z</time>
      </trkpt>
      <trkpt lat="43.95506" lon="7.14363">
        <ele>629.79998779297</ele>
        <time>2022-03-19T12:32:21.000Z</time>
      </trkpt>
      <trkpt lat="43.955" lon="7.14365">
        <ele>629.59997558594</ele>
        <time>2022-03-19T12:32:22.000Z</time>
      </trkpt>
      <trkpt lat="43.95495" lon="7.14369">
        <ele>629.59997558594</ele>
        <time>2022-03-19T12:32:23.000Z</time>
      </trkpt>
      <trkpt lat="43.95487" lon="7.1438">
        <ele>628.40002441406</ele>
        <time>2022-03-19T12:32:25.000Z</time>
      </trkpt>
      <trkpt lat="43.95478" lon="7.14389">
        <ele>628</ele>
        <time>2022-03-19T12:32:27.000Z</time>
      </trkpt>
      <trkpt lat="43.95467" lon="7.14393">
        <ele>626</ele>
        <time>2022-03-19T12:32:29.000Z</time>
      </trkpt>
      <trkpt lat="43.95464" lon="7.14392">
        <ele>624.79998779297</ele>
        <time>2022-03-19T12:32:30.000Z</time>
      </trkpt>
      <trkpt lat="43.9546" lon="7.14392">
        <ele>623.20001220703</ele>
        <time>2022-03-19T12:32:32.000Z</time>
      </trkpt>
      <trkpt lat="43.95459" lon="7.14392">
        <ele>622.59997558594</ele>
        <time>2022-03-19T12:32:33.000Z</time>
      </trkpt>
      <trkpt lat="43.95459" lon="7.14392">
        <ele>621.59997558594</ele>
        <time>2022-03-19T12:32:34.000Z</time>
      </trkpt>
      <trkpt lat="43.95459" lon="7.14391">
        <ele>620.59997558594</ele>
        <time>2022-03-19T12:32:38.000Z</time>
      </trkpt>
      <trkpt lat="43.95459" lon="7.14391">
        <ele>620.40002441406</ele>
        <time>2022-03-19T12:32:39.000Z</time>
      </trkpt>
      <trkpt lat="43.95459" lon="7.1439">
        <ele>619.40002441406</ele>
        <time>2022-03-19T12:32:49.000Z</time>
      </trkpt>
      <trkpt lat="43.95459" lon="7.1439">
        <ele>619.40002441406</ele>
        <time>2022-03-19T12:33:03.000Z</time>
      </trkpt>
      <trkpt lat="43.95462" lon="7.14387">
        <ele>619.40002441406</ele>
        <time>2022-03-19T12:33:34.000Z</time>
      </trkpt>
      <trkpt lat="43.95463" lon="7.14388">
        <ele>619</ele>
        <time>2022-03-19T12:33:41.000Z</time>
      </trkpt>
      <trkpt lat="43.95463" lon="7.14389">
        <ele>619.59997558594</ele>
        <time>2022-03-19T12:33:49.000Z</time>
      </trkpt>
      <trkpt lat="43.95463" lon="7.14391">
        <ele>619.20001220703</ele>
        <time>2022-03-19T12:33:55.000Z</time>
      </trkpt>
      <trkpt lat="43.95462" lon="7.14391">
        <ele>619.40002441406</ele>
        <time>2022-03-19T12:34:00.000Z</time>
      </trkpt>
      <trkpt lat="43.95461" lon="7.1439">
        <ele>619.79998779297</ele>
        <time>2022-03-19T12:34:07.000Z</time>
      </trkpt>
      <trkpt lat="43.95462" lon="7.1439">
        <ele>619.59997558594</ele>
        <time>2022-03-19T12:34:12.000Z</time>
      </trkpt>
      <trkpt lat="43.95462" lon="7.1439">
        <ele>619</ele>
        <time>2022-03-19T12:34:20.000Z</time>
      </trkpt>
      <trkpt lat="43.95462" lon="7.1439">
        <ele>618.59997558594</ele>
        <time>2022-03-19T12:34:29.000Z</time>
      </trkpt>
      <trkpt lat="43.95462" lon="7.1439">
        <ele>619.40002441406</ele>
        <time>2022-03-19T12:34:36.000Z</time>
      </trkpt>
      <trkpt lat="43.95462" lon="7.1439">
        <ele>619.20001220703</ele>
        <time>2022-03-19T12:34:46.000Z</time>
      </trkpt>
      <trkpt lat="43.95462" lon="7.1439">
        <ele>619.40002441406</ele>
        <time>2022-03-19T12:35:00.000Z</time>
      </trkpt>
      <trkpt lat="43.95462" lon="7.1439">
        <ele>619.20001220703</ele>
        <time>2022-03-19T12:35:10.000Z</time>
      </trkpt>
      <trkpt lat="43.95462" lon="7.1439">
        <ele>619.40002441406</ele>
        <time>2022-03-19T12:35:24.000Z</time>
      </trkpt>
      <trkpt lat="43.95462" lon="7.14389">
        <ele>619</ele>
        <time>2022-03-19T12:35:38.000Z</time>
      </trkpt>
      <trkpt lat="43.95462" lon="7.14389">
        <ele>619.20001220703</ele>
        <time>2022-03-19T12:35:47.000Z</time>
      </trkpt>
      <trkpt lat="43.95462" lon="7.14389">
        <ele>619.20001220703</ele>
        <time>2022-03-19T12:35:57.000Z</time>
      </trkpt>
      <trkpt lat="43.95463" lon="7.14391">
        <ele>619</ele>
        <time>2022-03-19T12:36:02.000Z</time>
      </trkpt>
      <trkpt lat="43.95462" lon="7.14392">
        <ele>619.40002441406</ele>
        <time>2022-03-19T12:36:10.000Z</time>
      </trkpt>
      <trkpt lat="43.95462" lon="7.14392">
        <ele>619.20001220703</ele>
        <time>2022-03-19T12:36:23.000Z</time>
      </trkpt>
      <trkpt lat="43.95461" lon="7.14391">
        <ele>619</ele>
        <time>2022-03-19T12:36:29.000Z</time>
      </trkpt>
      <trkpt lat="43.95462" lon="7.14389">
        <ele>619.40002441406</ele>
        <time>2022-03-19T12:36:36.000Z</time>
      </trkpt>
      <trkpt lat="43.95462" lon="7.14389">
        <ele>619.40002441406</ele>
        <time>2022-03-19T12:36:42.000Z</time>
      </trkpt>
      <trkpt lat="43.95462" lon="7.14388">
        <ele>619.40002441406</ele>
        <time>2022-03-19T12:36:49.000Z</time>
      </trkpt>
      <trkpt lat="43.95462" lon="7.14388">
        <ele>620</ele>
        <time>2022-03-19T12:36:52.000Z</time>
      </trkpt>
      <trkpt lat="43.95463" lon="7.14388">
        <ele>620</ele>
        <time>2022-03-19T12:37:02.000Z</time>
      </trkpt>
      <trkpt lat="43.95463" lon="7.14388">
        <ele>619.40002441406</ele>
        <time>2022-03-19T12:37:10.000Z</time>
      </trkpt>
      <trkpt lat="43.95463" lon="7.14387">
        <ele>619.20001220703</ele>
        <time>2022-03-19T12:37:26.000Z</time>
      </trkpt>
      <trkpt lat="43.95463" lon="7.14387">
        <ele>619.79998779297</ele>
        <time>2022-03-19T12:37:45.000Z</time>
      </trkpt>
      <trkpt lat="43.95464" lon="7.14387">
        <ele>619.59997558594</ele>
        <time>2022-03-19T12:38:11.000Z</time>
      </trkpt>
      <trkpt lat="43.95464" lon="7.14386">
        <ele>619.79998779297</ele>
        <time>2022-03-19T12:38:19.000Z</time>
      </trkpt>
      <trkpt lat="43.95464" lon="7.14387">
        <ele>619.59997558594</ele>
        <time>2022-03-19T12:38:28.000Z</time>
      </trkpt>
      <trkpt lat="43.95465" lon="7.14387">
        <ele>620</ele>
        <time>2022-03-19T12:38:45.000Z</time>
      </trkpt>
      <trkpt lat="43.95465" lon="7.14387">
        <ele>620.20001220703</ele>
        <time>2022-03-19T12:39:03.000Z</time>
      </trkpt>
      <trkpt lat="43.95465" lon="7.14386">
        <ele>620</ele>
        <time>2022-03-19T12:39:16.000Z</time>
      </trkpt>
      <trkpt lat="43.95465" lon="7.14385">
        <ele>620</ele>
        <time>2022-03-19T12:39:34.000Z</time>
      </trkpt>
      <trkpt lat="43.95465" lon="7.14385">
        <ele>620</ele>
        <time>2022-03-19T12:39:51.000Z</time>
      </trkpt>
      <trkpt lat="43.95466" lon="7.14385">
        <ele>620</ele>
        <time>2022-03-19T12:40:11.000Z</time>
      </trkpt>
      <trkpt lat="43.95465" lon="7.14385">
        <ele>620.20001220703</ele>
        <time>2022-03-19T12:40:31.000Z</time>
      </trkpt>
      <trkpt lat="43.95466" lon="7.14385">
        <ele>620.20001220703</ele>
        <time>2022-03-19T12:40:51.000Z</time>
      </trkpt>
      <trkpt lat="43.95465" lon="7.14386">
        <ele>620</ele>
        <time>2022-03-19T12:41:09.000Z</time>
      </trkpt>
      <trkpt lat="43.95464" lon="7.14386">
        <ele>620</ele>
        <time>2022-03-19T12:41:23.000Z</time>
      </trkpt>
      <trkpt lat="43.95464" lon="7.14386">
        <ele>620.40002441406</ele>
        <time>2022-03-19T12:41:38.000Z</time>
      </trkpt>
      <trkpt lat="43.95464" lon="7.14386">
        <ele>620.20001220703</ele>
        <time>2022-03-19T12:41:51.000Z</time>
      </trkpt>
      <trkpt lat="43.95464" lon="7.14387">
        <ele>620</ele>
        <time>2022-03-19T12:42:15.000Z</time>
      </trkpt>
      <trkpt lat="43.95464" lon="7.14388">
        <ele>620</ele>
        <time>2022-03-19T12:42:32.000Z</time>
      </trkpt>
      <trkpt lat="43.95464" lon="7.14387">
        <ele>620.59997558594</ele>
        <time>2022-03-19T12:42:39.000Z</time>
      </trkpt>
      <trkpt lat="43.95464" lon="7.14388">
        <ele>620.40002441406</ele>
        <time>2022-03-19T12:42:58.000Z</time>
      </trkpt>
      <trkpt lat="43.95464" lon="7.14387">
        <ele>619.79998779297</ele>
        <time>2022-03-19T12:43:12.000Z</time>
      </trkpt>
      <trkpt lat="43.95464" lon="7.14387">
        <ele>619.79998779297</ele>
        <time>2022-03-19T12:43:21.000Z</time>
      </trkpt>
      <trkpt lat="43.95464" lon="7.14387">
        <ele>620.40002441406</ele>
        <time>2022-03-19T12:43:29.000Z</time>
      </trkpt>
      <trkpt lat="43.95464" lon="7.14388">
        <ele>619.79998779297</ele>
        <time>2022-03-19T12:43:35.000Z</time>
      </trkpt>
      <trkpt lat="43.95464" lon="7.14389">
        <ele>619.79998779297</ele>
        <time>2022-03-19T12:43:43.000Z</time>
      </trkpt>
      <trkpt lat="43.95465" lon="7.14389">
        <ele>619.79998779297</ele>
        <time>2022-03-19T12:43:52.000Z</time>
      </trkpt>
      <trkpt lat="43.95465" lon="7.1439">
        <ele>620.40002441406</ele>
        <time>2022-03-19T12:44:03.000Z</time>
      </trkpt>
      <trkpt lat="43.95465" lon="7.1439">
        <ele>620.59997558594</ele>
        <time>2022-03-19T12:44:11.000Z</time>
      </trkpt>
      <trkpt lat="43.95466" lon="7.1439">
        <ele>620</ele>
        <time>2022-03-19T12:44:17.000Z</time>
      </trkpt>
      <trkpt lat="43.95465" lon="7.1439">
        <ele>620</ele>
        <time>2022-03-19T12:44:26.000Z</time>
      </trkpt>
      <trkpt lat="43.95465" lon="7.14389">
        <ele>620.20001220703</ele>
        <time>2022-03-19T12:44:42.000Z</time>
      </trkpt>
      <trkpt lat="43.95465" lon="7.14389">
        <ele>620</ele>
        <time>2022-03-19T12:44:55.000Z</time>
      </trkpt>
      <trkpt lat="43.95465" lon="7.14389">
        <ele>620.20001220703</ele>
        <time>2022-03-19T12:45:18.000Z</time>
      </trkpt>
      <trkpt lat="43.95465" lon="7.14389">
        <ele>620.20001220703</ele>
        <time>2022-03-19T12:45:36.000Z</time>
      </trkpt>
      <trkpt lat="43.95465" lon="7.1439">
        <ele>620.20001220703</ele>
        <time>2022-03-19T12:45:53.000Z</time>
      </trkpt>
      <trkpt lat="43.95466" lon="7.14392">
        <ele>620.40002441406</ele>
        <time>2022-03-19T12:46:10.000Z</time>
      </trkpt>
      <trkpt lat="43.95466" lon="7.14394">
        <ele>620.20001220703</ele>
        <time>2022-03-19T12:46:27.000Z</time>
      </trkpt>
      <trkpt lat="43.95465" lon="7.14396">
        <ele>620.20001220703</ele>
        <time>2022-03-19T12:46:43.000Z</time>
      </trkpt>
      <trkpt lat="43.95465" lon="7.14396">
        <ele>620</ele>
        <time>2022-03-19T12:46:56.000Z</time>
      </trkpt>
      <trkpt lat="43.95464" lon="7.14397">
        <ele>620</ele>
        <time>2022-03-19T12:47:16.000Z</time>
      </trkpt>
      <trkpt lat="43.95464" lon="7.14396">
        <ele>620</ele>
        <time>2022-03-19T12:47:45.000Z</time>
      </trkpt>
      <trkpt lat="43.95464" lon="7.14397">
        <ele>620</ele>
        <time>2022-03-19T12:48:08.000Z</time>
      </trkpt>
      <trkpt lat="43.95463" lon="7.14397">
        <ele>620</ele>
        <time>2022-03-19T12:48:27.000Z</time>
      </trkpt>
      <trkpt lat="43.95463" lon="7.14395">
        <ele>620.20001220703</ele>
        <time>2022-03-19T12:48:37.000Z</time>
      </trkpt>
      <trkpt lat="43.95463" lon="7.14392">
        <ele>620</ele>
        <time>2022-03-19T12:48:53.000Z</time>
      </trkpt>
      <trkpt lat="43.95464" lon="7.14388">
        <ele>620.20001220703</ele>
        <time>2022-03-19T12:49:10.000Z</time>
      </trkpt>
      <trkpt lat="43.95464" lon="7.14389">
        <ele>620.59997558594</ele>
        <time>2022-03-19T12:49:26.000Z</time>
      </trkpt>
      <trkpt lat="43.95466" lon="7.1439">
        <ele>620.59997558594</ele>
        <time>2022-03-19T12:49:28.000Z</time>
      </trkpt>
      <trkpt lat="43.95466" lon="7.1439">
        <ele>620.40002441406</ele>
        <time>2022-03-19T12:49:30.000Z</time>
      </trkpt>
      <trkpt lat="43.95465" lon="7.1439">
        <ele>620.59997558594</ele>
        <time>2022-03-19T12:49:38.000Z</time>
      </trkpt>
      <trkpt lat="43.95462" lon="7.1439">
        <ele>620.40002441406</ele>
        <time>2022-03-19T12:49:45.000Z</time>
      </trkpt>
      <trkpt lat="43.95459" lon="7.14393">
        <ele>620.59997558594</ele>
        <time>2022-03-19T12:49:46.000Z</time>
      </trkpt>
      <trkpt lat="43.95451" lon="7.14399">
        <ele>620.20001220703</ele>
        <time>2022-03-19T12:49:48.000Z</time>
      </trkpt>
      <trkpt lat="43.95441" lon="7.14402">
        <ele>618.79998779297</ele>
        <time>2022-03-19T12:49:50.000Z</time>
      </trkpt>
      <trkpt lat="43.95436" lon="7.14404">
        <ele>617.40002441406</ele>
        <time>2022-03-19T12:49:51.000Z</time>
      </trkpt>
      <trkpt lat="43.95433" lon="7.14409">
        <ele>616.40002441406</ele>
        <time>2022-03-19T12:49:52.000Z</time>
      </trkpt>
      <trkpt lat="43.95429" lon="7.14414">
        <ele>614.59997558594</ele>
        <time>2022-03-19T12:49:53.000Z</time>
      </trkpt>
      <trkpt lat="43.95424" lon="7.14418">
        <ele>612.79998779297</ele>
        <time>2022-03-19T12:49:54.000Z</time>
      </trkpt>
      <trkpt lat="43.95419" lon="7.14417">
        <ele>611</ele>
        <time>2022-03-19T12:49:55.000Z</time>
      </trkpt>
      <trkpt lat="43.95414" lon="7.14419">
        <ele>609.40002441406</ele>
        <time>2022-03-19T12:49:56.000Z</time>
      </trkpt>
      <trkpt lat="43.9541" lon="7.14424">
        <ele>607.79998779297</ele>
        <time>2022-03-19T12:49:57.000Z</time>
      </trkpt>
      <trkpt lat="43.95407" lon="7.14429">
        <ele>606.20001220703</ele>
        <time>2022-03-19T12:49:58.000Z</time>
      </trkpt>
      <trkpt lat="43.95403" lon="7.14435">
        <ele>604.79998779297</ele>
        <time>2022-03-19T12:49:59.000Z</time>
      </trkpt>
      <trkpt lat="43.95401" lon="7.14439">
        <ele>603.20001220703</ele>
        <time>2022-03-19T12:50:00.000Z</time>
      </trkpt>
      <trkpt lat="43.95399" lon="7.14443">
        <ele>601.59997558594</ele>
        <time>2022-03-19T12:50:01.000Z</time>
      </trkpt>
      <trkpt lat="43.95398" lon="7.14447">
        <ele>600.20001220703</ele>
        <time>2022-03-19T12:50:02.000Z</time>
      </trkpt>
      <trkpt lat="43.95396" lon="7.14451">
        <ele>599</ele>
        <time>2022-03-19T12:50:03.000Z</time>
      </trkpt>
      <trkpt lat="43.95395" lon="7.14456">
        <ele>597.79998779297</ele>
        <time>2022-03-19T12:50:04.000Z</time>
      </trkpt>
      <trkpt lat="43.95394" lon="7.14462">
        <ele>596.79998779297</ele>
        <time>2022-03-19T12:50:05.000Z</time>
      </trkpt>
      <trkpt lat="43.95392" lon="7.14466">
        <ele>595.59997558594</ele>
        <time>2022-03-19T12:50:06.000Z</time>
      </trkpt>
      <trkpt lat="43.95389" lon="7.14469">
        <ele>594.79998779297</ele>
        <time>2022-03-19T12:50:07.000Z</time>
      </trkpt>
      <trkpt lat="43.95384" lon="7.14472">
        <ele>594.40002441406</ele>
        <time>2022-03-19T12:50:08.000Z</time>
      </trkpt>
      <trkpt lat="43.95362" lon="7.1448">
        <ele>593</ele>
        <time>2022-03-19T12:50:12.000Z</time>
      </trkpt>
      <trkpt lat="43.95357" lon="7.1448">
        <ele>592.40002441406</ele>
        <time>2022-03-19T12:50:13.000Z</time>
      </trkpt>
      <trkpt lat="43.95352" lon="7.1448">
        <ele>591.79998779297</ele>
        <time>2022-03-19T12:50:14.000Z</time>
      </trkpt>
      <trkpt lat="43.95343" lon="7.14474">
        <ele>590.59997558594</ele>
        <time>2022-03-19T12:50:16.000Z</time>
      </trkpt>
      <trkpt lat="43.95338" lon="7.14471">
        <ele>590.40002441406</ele>
        <time>2022-03-19T12:50:17.000Z</time>
      </trkpt>
      <trkpt lat="43.95324" lon="7.14464">
        <ele>589.59997558594</ele>
        <time>2022-03-19T12:50:20.000Z</time>
      </trkpt>
      <trkpt lat="43.95316" lon="7.14461">
        <ele>589.40002441406</ele>
        <time>2022-03-19T12:50:22.000Z</time>
      </trkpt>
      <trkpt lat="43.95309" lon="7.14463">
        <ele>589.20001220703</ele>
        <time>2022-03-19T12:50:25.000Z</time>
      </trkpt>
      <trkpt lat="43.95308" lon="7.14463">
        <ele>588.79998779297</ele>
        <time>2022-03-19T12:50:30.000Z</time>
      </trkpt>
      <trkpt lat="43.95308" lon="7.14463">
        <ele>588.59997558594</ele>
        <time>2022-03-19T12:50:32.000Z</time>
      </trkpt>
      <trkpt lat="43.95308" lon="7.14463">
        <ele>588.59997558594</ele>
        <time>2022-03-19T12:50:50.000Z</time>
      </trkpt>
      <trkpt lat="43.95308" lon="7.14462">
        <ele>588.79998779297</ele>
        <time>2022-03-19T12:50:56.000Z</time>
      </trkpt>
      <trkpt lat="43.95309" lon="7.14453">
        <ele>588.79998779297</ele>
        <time>2022-03-19T12:51:04.000Z</time>
      </trkpt>
      <trkpt lat="43.95314" lon="7.14438">
        <ele>587.40002441406</ele>
        <time>2022-03-19T12:51:08.000Z</time>
      </trkpt>
      <trkpt lat="43.95316" lon="7.14435">
        <ele>586.79998779297</ele>
        <time>2022-03-19T12:51:09.000Z</time>
      </trkpt>
      <trkpt lat="43.95321" lon="7.14434">
        <ele>586</ele>
        <time>2022-03-19T12:51:10.000Z</time>
      </trkpt>
      <trkpt lat="43.95328" lon="7.14433">
        <ele>584.59997558594</ele>
        <time>2022-03-19T12:51:12.000Z</time>
      </trkpt>
      <trkpt lat="43.95329" lon="7.14431">
        <ele>583.40002441406</ele>
        <time>2022-03-19T12:51:13.000Z</time>
      </trkpt>
      <trkpt lat="43.95337" lon="7.14431">
        <ele>582.20001220703</ele>
        <time>2022-03-19T12:51:15.000Z</time>
      </trkpt>
      <trkpt lat="43.95346" lon="7.14426">
        <ele>581</ele>
        <time>2022-03-19T12:51:17.000Z</time>
      </trkpt>
      <trkpt lat="43.95349" lon="7.14423">
        <ele>580.59997558594</ele>
        <time>2022-03-19T12:51:18.000Z</time>
      </trkpt>
      <trkpt lat="43.95349" lon="7.14417">
        <ele>579.79998779297</ele>
        <time>2022-03-19T12:51:19.000Z</time>
      </trkpt>
      <trkpt lat="43.95349" lon="7.14409">
        <ele>578.40002441406</ele>
        <time>2022-03-19T12:51:21.000Z</time>
      </trkpt>
      <trkpt lat="43.95353" lon="7.14386">
        <ele>577.79998779297</ele>
        <time>2022-03-19T12:51:25.000Z</time>
      </trkpt>
      <trkpt lat="43.95353" lon="7.14373">
        <ele>577.40002441406</ele>
        <time>2022-03-19T12:51:28.000Z</time>
      </trkpt>
      <trkpt lat="43.95366" lon="7.1436">
        <ele>577.20001220703</ele>
        <time>2022-03-19T12:51:31.000Z</time>
      </trkpt>
      <trkpt lat="43.95369" lon="7.14348">
        <ele>575.59997558594</ele>
        <time>2022-03-19T12:51:34.000Z</time>
      </trkpt>
      <trkpt lat="43.95374" lon="7.14334">
        <ele>575</ele>
        <time>2022-03-19T12:51:36.000Z</time>
      </trkpt>
      <trkpt lat="43.95376" lon="7.14327">
        <ele>574.59997558594</ele>
        <time>2022-03-19T12:51:37.000Z</time>
      </trkpt>
      <trkpt lat="43.95376" lon="7.14321">
        <ele>574.59997558594</ele>
        <time>2022-03-19T12:51:38.000Z</time>
      </trkpt>
      <trkpt lat="43.95381" lon="7.14315">
        <ele>573</ele>
        <time>2022-03-19T12:51:40.000Z</time>
      </trkpt>
      <trkpt lat="43.95389" lon="7.14305">
        <ele>571.79998779297</ele>
        <time>2022-03-19T12:51:43.000Z</time>
      </trkpt>
      <trkpt lat="43.9539" lon="7.14298">
        <ele>572.40002441406</ele>
        <time>2022-03-19T12:51:45.000Z</time>
      </trkpt>
      <trkpt lat="43.95385" lon="7.14294">
        <ele>572.40002441406</ele>
        <time>2022-03-19T12:51:48.000Z</time>
      </trkpt>
      <trkpt lat="43.95381" lon="7.14292">
        <ele>573</ele>
        <time>2022-03-19T12:51:51.000Z</time>
      </trkpt>
      <trkpt lat="43.95379" lon="7.14289">
        <ele>574</ele>
        <time>2022-03-19T12:51:54.000Z</time>
      </trkpt>
      <trkpt lat="43.95374" lon="7.14286">
        <ele>575.20001220703</ele>
        <time>2022-03-19T12:51:58.000Z</time>
      </trkpt>
      <trkpt lat="43.95371" lon="7.14284">
        <ele>575.79998779297</ele>
        <time>2022-03-19T12:52:00.000Z</time>
      </trkpt>
      <trkpt lat="43.95367" lon="7.14282">
        <ele>576.40002441406</ele>
        <time>2022-03-19T12:52:02.000Z</time>
      </trkpt>
      <trkpt lat="43.95358" lon="7.1428">
        <ele>577.20001220703</ele>
        <time>2022-03-19T12:52:07.000Z</time>
      </trkpt>
      <trkpt lat="43.95344" lon="7.14268">
        <ele>577.20001220703</ele>
        <time>2022-03-19T12:52:13.000Z</time>
      </trkpt>
      <trkpt lat="43.9534" lon="7.14252">
        <ele>576.79998779297</ele>
        <time>2022-03-19T12:52:17.000Z</time>
      </trkpt>
      <trkpt lat="43.95346" lon="7.14244">
        <ele>575.40002441406</ele>
        <time>2022-03-19T12:52:20.000Z</time>
      </trkpt>
      <trkpt lat="43.95349" lon="7.14242">
        <ele>574.79998779297</ele>
        <time>2022-03-19T12:52:21.000Z</time>
      </trkpt>
      <trkpt lat="43.95353" lon="7.14239">
        <ele>573.59997558594</ele>
        <time>2022-03-19T12:52:23.000Z</time>
      </trkpt>
      <trkpt lat="43.95353" lon="7.14236">
        <ele>573</ele>
        <time>2022-03-19T12:52:24.000Z</time>
      </trkpt>
      <trkpt lat="43.95351" lon="7.14231">
        <ele>572.40002441406</ele>
        <time>2022-03-19T12:52:26.000Z</time>
      </trkpt>
      <trkpt lat="43.95348" lon="7.1423">
        <ele>572.40002441406</ele>
        <time>2022-03-19T12:52:28.000Z</time>
      </trkpt>
      <trkpt lat="43.95335" lon="7.14231">
        <ele>573.40002441406</ele>
        <time>2022-03-19T12:52:32.000Z</time>
      </trkpt>
      <trkpt lat="43.9533" lon="7.14225">
        <ele>573.20001220703</ele>
        <time>2022-03-19T12:52:34.000Z</time>
      </trkpt>
      <trkpt lat="43.9533" lon="7.14221">
        <ele>573.20001220703</ele>
        <time>2022-03-19T12:52:35.000Z</time>
      </trkpt>
      <trkpt lat="43.9533" lon="7.14208">
        <ele>573</ele>
        <time>2022-03-19T12:52:39.000Z</time>
      </trkpt>
      <trkpt lat="43.95329" lon="7.14208">
        <ele>572.79998779297</ele>
        <time>2022-03-19T12:52:44.000Z</time>
      </trkpt>
      <trkpt lat="43.95328" lon="7.14206">
        <ele>572.79998779297</ele>
        <time>2022-03-19T12:53:01.000Z</time>
      </trkpt>
      <trkpt lat="43.95327" lon="7.14206">
        <ele>573</ele>
        <time>2022-03-19T12:53:11.000Z</time>
      </trkpt>
      <trkpt lat="43.95327" lon="7.14205">
        <ele>573</ele>
        <time>2022-03-19T12:53:20.000Z</time>
      </trkpt>
      <trkpt lat="43.95328" lon="7.14204">
        <ele>572.79998779297</ele>
        <time>2022-03-19T12:53:29.000Z</time>
      </trkpt>
      <trkpt lat="43.95329" lon="7.14204">
        <ele>572.79998779297</ele>
        <time>2022-03-19T12:53:38.000Z</time>
      </trkpt>
      <trkpt lat="43.95328" lon="7.14202">
        <ele>572.79998779297</ele>
        <time>2022-03-19T12:53:51.000Z</time>
      </trkpt>
      <trkpt lat="43.95324" lon="7.14202">
        <ele>572.79998779297</ele>
        <time>2022-03-19T12:54:06.000Z</time>
      </trkpt>
      <trkpt lat="43.95325" lon="7.14204">
        <ele>572.79998779297</ele>
        <time>2022-03-19T12:54:12.000Z</time>
      </trkpt>
      <trkpt lat="43.95325" lon="7.14207">
        <ele>572.79998779297</ele>
        <time>2022-03-19T12:54:14.000Z</time>
      </trkpt>
      <trkpt lat="43.95325" lon="7.14208">
        <ele>572.79998779297</ele>
        <time>2022-03-19T12:54:17.000Z</time>
      </trkpt>
      <trkpt lat="43.95327" lon="7.14216">
        <ele>573</ele>
        <time>2022-03-19T12:54:22.000Z</time>
      </trkpt>
      <trkpt lat="43.95331" lon="7.14222">
        <ele>573.20001220703</ele>
        <time>2022-03-19T12:54:25.000Z</time>
      </trkpt>
      <trkpt lat="43.95333" lon="7.14223">
        <ele>573.20001220703</ele>
        <time>2022-03-19T12:54:26.000Z</time>
      </trkpt>
      <trkpt lat="43.95341" lon="7.14223">
        <ele>573</ele>
        <time>2022-03-19T12:54:29.000Z</time>
      </trkpt>
      <trkpt lat="43.95344" lon="7.14223">
        <ele>573</ele>
        <time>2022-03-19T12:54:31.000Z</time>
      </trkpt>
      <trkpt lat="43.95347" lon="7.14225">
        <ele>573.20001220703</ele>
        <time>2022-03-19T12:54:32.000Z</time>
      </trkpt>
      <trkpt lat="43.9535" lon="7.14228">
        <ele>573.59997558594</ele>
        <time>2022-03-19T12:54:33.000Z</time>
      </trkpt>
      <trkpt lat="43.9535" lon="7.14234">
        <ele>573.40002441406</ele>
        <time>2022-03-19T12:54:35.000Z</time>
      </trkpt>
      <trkpt lat="43.95345" lon="7.14238">
        <ele>573.20001220703</ele>
        <time>2022-03-19T12:54:39.000Z</time>
      </trkpt>
      <trkpt lat="43.95341" lon="7.14244">
        <ele>573.40002441406</ele>
        <time>2022-03-19T12:54:43.000Z</time>
      </trkpt>
      <trkpt lat="43.95341" lon="7.14246">
        <ele>573.59997558594</ele>
        <time>2022-03-19T12:54:44.000Z</time>
      </trkpt>
      <trkpt lat="43.95342" lon="7.14253">
        <ele>574.79998779297</ele>
        <time>2022-03-19T12:54:48.000Z</time>
      </trkpt>
      <trkpt lat="43.95343" lon="7.14256">
        <ele>575.59997558594</ele>
        <time>2022-03-19T12:54:50.000Z</time>
      </trkpt>
      <trkpt lat="43.95344" lon="7.14257">
        <ele>576</ele>
        <time>2022-03-19T12:54:51.000Z</time>
      </trkpt>
      <trkpt lat="43.95345" lon="7.14261">
        <ele>576.59997558594</ele>
        <time>2022-03-19T12:54:53.000Z</time>
      </trkpt>
      <trkpt lat="43.95347" lon="7.14264">
        <ele>577</ele>
        <time>2022-03-19T12:54:55.000Z</time>
      </trkpt>
      <trkpt lat="43.9535" lon="7.14267">
        <ele>577.40002441406</ele>
        <time>2022-03-19T12:54:57.000Z</time>
      </trkpt>
      <trkpt lat="43.95363" lon="7.14275">
        <ele>577.79998779297</ele>
        <time>2022-03-19T12:55:04.000Z</time>
      </trkpt>
      <trkpt lat="43.95376" lon="7.14282">
        <ele>577.79998779297</ele>
        <time>2022-03-19T12:55:09.000Z</time>
      </trkpt>
      <trkpt lat="43.95383" lon="7.14289">
        <ele>577.20001220703</ele>
        <time>2022-03-19T12:55:11.000Z</time>
      </trkpt>
      <trkpt lat="43.95391" lon="7.14297">
        <ele>575.40002441406</ele>
        <time>2022-03-19T12:55:14.000Z</time>
      </trkpt>
      <trkpt lat="43.9539" lon="7.14303">
        <ele>574</ele>
        <time>2022-03-19T12:55:16.000Z</time>
      </trkpt>
      <trkpt lat="43.95388" lon="7.14305">
        <ele>573.59997558594</ele>
        <time>2022-03-19T12:55:17.000Z</time>
      </trkpt>
      <trkpt lat="43.95378" lon="7.14315">
        <ele>573.40002441406</ele>
        <time>2022-03-19T12:55:21.000Z</time>
      </trkpt>
      <trkpt lat="43.95377" lon="7.14318">
        <ele>573.20001220703</ele>
        <time>2022-03-19T12:55:22.000Z</time>
      </trkpt>
      <trkpt lat="43.95376" lon="7.14327">
        <ele>573</ele>
        <time>2022-03-19T12:55:24.000Z</time>
      </trkpt>
      <trkpt lat="43.95371" lon="7.14339">
        <ele>573.20001220703</ele>
        <time>2022-03-19T12:55:28.000Z</time>
      </trkpt>
      <trkpt lat="43.95367" lon="7.1435">
        <ele>574.59997558594</ele>
        <time>2022-03-19T12:55:33.000Z</time>
      </trkpt>
      <trkpt lat="43.95366" lon="7.14352">
        <ele>575</ele>
        <time>2022-03-19T12:55:34.000Z</time>
      </trkpt>
      <trkpt lat="43.95364" lon="7.14358">
        <ele>575.79998779297</ele>
        <time>2022-03-19T12:55:36.000Z</time>
      </trkpt>
      <trkpt lat="43.95362" lon="7.1436">
        <ele>576</ele>
        <time>2022-03-19T12:55:37.000Z</time>
      </trkpt>
      <trkpt lat="43.95357" lon="7.14365">
        <ele>576</ele>
        <time>2022-03-19T12:55:40.000Z</time>
      </trkpt>
      <trkpt lat="43.95353" lon="7.1437">
        <ele>576.40002441406</ele>
        <time>2022-03-19T12:55:43.000Z</time>
      </trkpt>
      <trkpt lat="43.95352" lon="7.14374">
        <ele>577.20001220703</ele>
        <time>2022-03-19T12:55:45.000Z</time>
      </trkpt>
      <trkpt lat="43.95351" lon="7.14378">
        <ele>577.59997558594</ele>
        <time>2022-03-19T12:55:47.000Z</time>
      </trkpt>
      <trkpt lat="43.95353" lon="7.14383">
        <ele>578</ele>
        <time>2022-03-19T12:55:49.000Z</time>
      </trkpt>
      <trkpt lat="43.95353" lon="7.14387">
        <ele>578.20001220703</ele>
        <time>2022-03-19T12:55:50.000Z</time>
      </trkpt>
      <trkpt lat="43.95351" lon="7.14397">
        <ele>578.20001220703</ele>
        <time>2022-03-19T12:55:53.000Z</time>
      </trkpt>
      <trkpt lat="43.9535" lon="7.144">
        <ele>578.20001220703</ele>
        <time>2022-03-19T12:55:54.000Z</time>
      </trkpt>
      <trkpt lat="43.9535" lon="7.14412">
        <ele>578.20001220703</ele>
        <time>2022-03-19T12:55:58.000Z</time>
      </trkpt>
      <trkpt lat="43.95348" lon="7.14424">
        <ele>578.59997558594</ele>
        <time>2022-03-19T12:56:02.000Z</time>
      </trkpt>
      <trkpt lat="43.9534" lon="7.14428">
        <ele>579.40002441406</ele>
        <time>2022-03-19T12:56:07.000Z</time>
      </trkpt>
      <trkpt lat="43.95338" lon="7.14429">
        <ele>579.59997558594</ele>
        <time>2022-03-19T12:56:08.000Z</time>
      </trkpt>
      <trkpt lat="43.95336" lon="7.14431">
        <ele>580</ele>
        <time>2022-03-19T12:56:10.000Z</time>
      </trkpt>
      <trkpt lat="43.95332" lon="7.14431">
        <ele>580.40002441406</ele>
        <time>2022-03-19T12:56:13.000Z</time>
      </trkpt>
      <trkpt lat="43.9533" lon="7.14432">
        <ele>580.79998779297</ele>
        <time>2022-03-19T12:56:15.000Z</time>
      </trkpt>
      <trkpt lat="43.95326" lon="7.14435">
        <ele>581.40002441406</ele>
        <time>2022-03-19T12:56:18.000Z</time>
      </trkpt>
      <trkpt lat="43.95325" lon="7.14435">
        <ele>581.79998779297</ele>
        <time>2022-03-19T12:56:19.000Z</time>
      </trkpt>
      <trkpt lat="43.95323" lon="7.14436">
        <ele>582.59997558594</ele>
        <time>2022-03-19T12:56:21.000Z</time>
      </trkpt>
      <trkpt lat="43.95317" lon="7.14438">
        <ele>583.59997558594</ele>
        <time>2022-03-19T12:56:27.000Z</time>
      </trkpt>
      <trkpt lat="43.95316" lon="7.14438">
        <ele>583.79998779297</ele>
        <time>2022-03-19T12:56:28.000Z</time>
      </trkpt>
      <trkpt lat="43.95314" lon="7.14442">
        <ele>584.59997558594</ele>
        <time>2022-03-19T12:56:33.000Z</time>
      </trkpt>
      <trkpt lat="43.95314" lon="7.14443">
        <ele>584.79998779297</ele>
        <time>2022-03-19T12:56:34.000Z</time>
      </trkpt>
      <trkpt lat="43.95312" lon="7.14446">
        <ele>586</ele>
        <time>2022-03-19T12:56:38.000Z</time>
      </trkpt>
      <trkpt lat="43.95312" lon="7.14449">
        <ele>586.79998779297</ele>
        <time>2022-03-19T12:56:41.000Z</time>
      </trkpt>
      <trkpt lat="43.95311" lon="7.1445">
        <ele>587</ele>
        <time>2022-03-19T12:56:42.000Z</time>
      </trkpt>
      <trkpt lat="43.95309" lon="7.14457">
        <ele>588</ele>
        <time>2022-03-19T12:56:48.000Z</time>
      </trkpt>
      <trkpt lat="43.95309" lon="7.14459">
        <ele>588.40002441406</ele>
        <time>2022-03-19T12:56:50.000Z</time>
      </trkpt>
      <trkpt lat="43.95308" lon="7.14463">
        <ele>589.20001220703</ele>
        <time>2022-03-19T12:56:55.000Z</time>
      </trkpt>
      <trkpt lat="43.95307" lon="7.14463">
        <ele>589.40002441406</ele>
        <time>2022-03-19T12:56:58.000Z</time>
      </trkpt>
      <trkpt lat="43.95307" lon="7.14463">
        <ele>589.20001220703</ele>
        <time>2022-03-19T12:57:10.000Z</time>
      </trkpt>
      <trkpt lat="43.95307" lon="7.14463">
        <ele>589.40002441406</ele>
        <time>2022-03-19T12:57:31.000Z</time>
      </trkpt>
      <trkpt lat="43.95306" lon="7.14463">
        <ele>589</ele>
        <time>2022-03-19T12:57:38.000Z</time>
      </trkpt>
      <trkpt lat="43.95306" lon="7.14463">
        <ele>589.40002441406</ele>
        <time>2022-03-19T12:57:45.000Z</time>
      </trkpt>
      <trkpt lat="43.95306" lon="7.14462">
        <ele>589</ele>
        <time>2022-03-19T12:57:53.000Z</time>
      </trkpt>
      <trkpt lat="43.95306" lon="7.14462">
        <ele>589</ele>
        <time>2022-03-19T12:58:00.000Z</time>
      </trkpt>
      <trkpt lat="43.95307" lon="7.14463">
        <ele>588.79998779297</ele>
        <time>2022-03-19T12:58:15.000Z</time>
      </trkpt>
      <trkpt lat="43.95308" lon="7.14462">
        <ele>588.79998779297</ele>
        <time>2022-03-19T12:58:25.000Z</time>
      </trkpt>
      <trkpt lat="43.95307" lon="7.14462">
        <ele>588.79998779297</ele>
        <time>2022-03-19T12:58:42.000Z</time>
      </trkpt>
      <trkpt lat="43.95307" lon="7.14461">
        <ele>588.79998779297</ele>
        <time>2022-03-19T12:58:55.000Z</time>
      </trkpt>
      <trkpt lat="43.95304" lon="7.14459">
        <ele>589</ele>
        <time>2022-03-19T12:59:12.000Z</time>
      </trkpt>
      <trkpt lat="43.95303" lon="7.14458">
        <ele>588.79998779297</ele>
        <time>2022-03-19T12:59:23.000Z</time>
      </trkpt>
      <trkpt lat="43.95305" lon="7.14458">
        <ele>589</ele>
        <time>2022-03-19T12:59:39.000Z</time>
      </trkpt>
      <trkpt lat="43.95305" lon="7.14459">
        <ele>589</ele>
        <time>2022-03-19T12:59:58.000Z</time>
      </trkpt>
      <trkpt lat="43.95306" lon="7.14458">
        <ele>589</ele>
        <time>2022-03-19T13:00:06.000Z</time>
      </trkpt>
      <trkpt lat="43.95307" lon="7.14457">
        <ele>589.20001220703</ele>
        <time>2022-03-19T13:00:22.000Z</time>
      </trkpt>
      <trkpt lat="43.95307" lon="7.14458">
        <ele>589</ele>
        <time>2022-03-19T13:00:35.000Z</time>
      </trkpt>
      <trkpt lat="43.95307" lon="7.14459">
        <ele>589</ele>
        <time>2022-03-19T13:00:51.000Z</time>
      </trkpt>
      <trkpt lat="43.95307" lon="7.14459">
        <ele>589.20001220703</ele>
        <time>2022-03-19T13:01:02.000Z</time>
      </trkpt>
      <trkpt lat="43.95307" lon="7.1446">
        <ele>589.20001220703</ele>
        <time>2022-03-19T13:01:13.000Z</time>
      </trkpt>
      <trkpt lat="43.95307" lon="7.14461">
        <ele>589.40002441406</ele>
        <time>2022-03-19T13:01:22.000Z</time>
      </trkpt>
      <trkpt lat="43.95307" lon="7.14461">
        <ele>589.40002441406</ele>
        <time>2022-03-19T13:01:33.000Z</time>
      </trkpt>
      <trkpt lat="43.95306" lon="7.14461">
        <ele>589.40002441406</ele>
        <time>2022-03-19T13:01:40.000Z</time>
      </trkpt>
      <trkpt lat="43.95306" lon="7.14462">
        <ele>589.79998779297</ele>
        <time>2022-03-19T13:01:49.000Z</time>
      </trkpt>
      <trkpt lat="43.95306" lon="7.14462">
        <ele>589.40002441406</ele>
        <time>2022-03-19T13:01:59.000Z</time>
      </trkpt>
      <trkpt lat="43.95306" lon="7.14462">
        <ele>589.79998779297</ele>
        <time>2022-03-19T13:02:11.000Z</time>
      </trkpt>
      <trkpt lat="43.95305" lon="7.14463">
        <ele>589.79998779297</ele>
        <time>2022-03-19T13:02:20.000Z</time>
      </trkpt>
      <trkpt lat="43.95306" lon="7.14464">
        <ele>589</ele>
        <time>2022-03-19T13:02:26.000Z</time>
      </trkpt>
      <trkpt lat="43.95306" lon="7.14464">
        <ele>588.79998779297</ele>
        <time>2022-03-19T13:02:36.000Z</time>
      </trkpt>
      <trkpt lat="43.95305" lon="7.14463">
        <ele>589.20001220703</ele>
        <time>2022-03-19T13:02:45.000Z</time>
      </trkpt>
      <trkpt lat="43.95305" lon="7.14463">
        <ele>589.59997558594</ele>
        <time>2022-03-19T13:02:52.000Z</time>
      </trkpt>
      <trkpt lat="43.95302" lon="7.1446">
        <ele>589</ele>
        <time>2022-03-19T13:02:59.000Z</time>
      </trkpt>
      <trkpt lat="43.95297" lon="7.14453">
        <ele>588</ele>
        <time>2022-03-19T13:03:06.000Z</time>
      </trkpt>
      <trkpt lat="43.95296" lon="7.14452">
        <ele>587.79998779297</ele>
        <time>2022-03-19T13:03:07.000Z</time>
      </trkpt>
      <trkpt lat="43.95294" lon="7.14449">
        <ele>587</ele>
        <time>2022-03-19T13:03:11.000Z</time>
      </trkpt>
      <trkpt lat="43.95292" lon="7.14448">
        <ele>586.59997558594</ele>
        <time>2022-03-19T13:03:14.000Z</time>
      </trkpt>
      <trkpt lat="43.95292" lon="7.14447">
        <ele>586.20001220703</ele>
        <time>2022-03-19T13:03:22.000Z</time>
      </trkpt>
      <trkpt lat="43.95289" lon="7.14448">
        <ele>586</ele>
        <time>2022-03-19T13:03:36.000Z</time>
      </trkpt>
      <trkpt lat="43.95287" lon="7.14447">
        <ele>586</ele>
        <time>2022-03-19T13:03:39.000Z</time>
      </trkpt>
      <trkpt lat="43.95286" lon="7.14447">
        <ele>585.79998779297</ele>
        <time>2022-03-19T13:03:41.000Z</time>
      </trkpt>
      <trkpt lat="43.95282" lon="7.14446">
        <ele>585</ele>
        <time>2022-03-19T13:03:47.000Z</time>
      </trkpt>
      <trkpt lat="43.95282" lon="7.14446">
        <ele>584.79998779297</ele>
        <time>2022-03-19T13:03:48.000Z</time>
      </trkpt>
      <trkpt lat="43.95281" lon="7.14446">
        <ele>584.20001220703</ele>
        <time>2022-03-19T13:03:53.000Z</time>
      </trkpt>
      <trkpt lat="43.95281" lon="7.14445">
        <ele>584.40002441406</ele>
        <time>2022-03-19T13:04:00.000Z</time>
      </trkpt>
      <trkpt lat="43.95283" lon="7.14445">
        <ele>584.79998779297</ele>
        <time>2022-03-19T13:04:04.000Z</time>
      </trkpt>
      <trkpt lat="43.95284" lon="7.14446">
        <ele>584.40002441406</ele>
        <time>2022-03-19T13:04:06.000Z</time>
      </trkpt>
      <trkpt lat="43.95288" lon="7.14446">
        <ele>585</ele>
        <time>2022-03-19T13:04:12.000Z</time>
      </trkpt>
      <trkpt lat="43.95292" lon="7.14448">
        <ele>585.79998779297</ele>
        <time>2022-03-19T13:04:17.000Z</time>
      </trkpt>
      <trkpt lat="43.95294" lon="7.14449">
        <ele>586</ele>
        <time>2022-03-19T13:04:18.000Z</time>
      </trkpt>
      <trkpt lat="43.95298" lon="7.14454">
        <ele>586.79998779297</ele>
        <time>2022-03-19T13:04:24.000Z</time>
      </trkpt>
      <trkpt lat="43.95298" lon="7.14455">
        <ele>586.79998779297</ele>
        <time>2022-03-19T13:04:25.000Z</time>
      </trkpt>
      <trkpt lat="43.95301" lon="7.14458">
        <ele>587.59997558594</ele>
        <time>2022-03-19T13:04:30.000Z</time>
      </trkpt>
      <trkpt lat="43.95302" lon="7.14459">
        <ele>588</ele>
        <time>2022-03-19T13:04:32.000Z</time>
      </trkpt>
      <trkpt lat="43.95304" lon="7.14461">
        <ele>588.59997558594</ele>
        <time>2022-03-19T13:04:36.000Z</time>
      </trkpt>
      <trkpt lat="43.95305" lon="7.14461">
        <ele>589</ele>
        <time>2022-03-19T13:04:38.000Z</time>
      </trkpt>
      <trkpt lat="43.95304" lon="7.14463">
        <ele>589.40002441406</ele>
        <time>2022-03-19T13:04:42.000Z</time>
      </trkpt>
      <trkpt lat="43.95303" lon="7.14463">
        <ele>590</ele>
        <time>2022-03-19T13:04:48.000Z</time>
      </trkpt>
      <trkpt lat="43.953" lon="7.14465">
        <ele>590</ele>
        <time>2022-03-19T13:04:58.000Z</time>
      </trkpt>
      <trkpt lat="43.95291" lon="7.14468">
        <ele>590</ele>
        <time>2022-03-19T13:05:05.000Z</time>
      </trkpt>
      <trkpt lat="43.95277" lon="7.14474">
        <ele>589.79998779297</ele>
        <time>2022-03-19T13:05:10.000Z</time>
      </trkpt>
      <trkpt lat="43.95262" lon="7.14493">
        <ele>589.79998779297</ele>
        <time>2022-03-19T13:05:17.000Z</time>
      </trkpt>
      <trkpt lat="43.95257" lon="7.14522">
        <ele>589.59997558594</ele>
        <time>2022-03-19T13:05:24.000Z</time>
      </trkpt>
      <trkpt lat="43.95252" lon="7.1455">
        <ele>589</ele>
        <time>2022-03-19T13:05:30.000Z</time>
      </trkpt>
      <trkpt lat="43.95243" lon="7.14568">
        <ele>588.59997558594</ele>
        <time>2022-03-19T13:05:34.000Z</time>
      </trkpt>
      <trkpt lat="43.95237" lon="7.14575">
        <ele>588.40002441406</ele>
        <time>2022-03-19T13:05:36.000Z</time>
      </trkpt>
      <trkpt lat="43.95232" lon="7.14589">
        <ele>587.79998779297</ele>
        <time>2022-03-19T13:05:39.000Z</time>
      </trkpt>
      <trkpt lat="43.95228" lon="7.14599">
        <ele>587.59997558594</ele>
        <time>2022-03-19T13:05:41.000Z</time>
      </trkpt>
      <trkpt lat="43.95221" lon="7.14606">
        <ele>587.20001220703</ele>
        <time>2022-03-19T13:05:43.000Z</time>
      </trkpt>
      <trkpt lat="43.95205" lon="7.14619">
        <ele>586.79998779297</ele>
        <time>2022-03-19T13:05:47.000Z</time>
      </trkpt>
      <trkpt lat="43.952" lon="7.14623">
        <ele>586</ele>
        <time>2022-03-19T13:05:48.000Z</time>
      </trkpt>
      <trkpt lat="43.95197" lon="7.14626">
        <ele>585.59997558594</ele>
        <time>2022-03-19T13:05:49.000Z</time>
      </trkpt>
      <trkpt lat="43.95193" lon="7.14628">
        <ele>584.40002441406</ele>
        <time>2022-03-19T13:05:50.000Z</time>
      </trkpt>
      <trkpt lat="43.95186" lon="7.14633">
        <ele>583.20001220703</ele>
        <time>2022-03-19T13:05:52.000Z</time>
      </trkpt>
      <trkpt lat="43.95183" lon="7.14636">
        <ele>583</ele>
        <time>2022-03-19T13:05:53.000Z</time>
      </trkpt>
      <trkpt lat="43.95182" lon="7.14639">
        <ele>581.79998779297</ele>
        <time>2022-03-19T13:05:56.000Z</time>
      </trkpt>
      <trkpt lat="43.9518" lon="7.14642">
        <ele>581.79998779297</ele>
        <time>2022-03-19T13:06:00.000Z</time>
      </trkpt>
      <trkpt lat="43.95171" lon="7.14648">
        <ele>581.79998779297</ele>
        <time>2022-03-19T13:06:04.000Z</time>
      </trkpt>
      <trkpt lat="43.9516" lon="7.14652">
        <ele>581.20001220703</ele>
        <time>2022-03-19T13:06:07.000Z</time>
      </trkpt>
      <trkpt lat="43.95151" lon="7.14652">
        <ele>580.59997558594</ele>
        <time>2022-03-19T13:06:09.000Z</time>
      </trkpt>
      <trkpt lat="43.95134" lon="7.14656">
        <ele>579.79998779297</ele>
        <time>2022-03-19T13:06:14.000Z</time>
      </trkpt>
      <trkpt lat="43.9513" lon="7.14658">
        <ele>580</ele>
        <time>2022-03-19T13:06:17.000Z</time>
      </trkpt>
      <trkpt lat="43.95129" lon="7.1466">
        <ele>580.40002441406</ele>
        <time>2022-03-19T13:06:22.000Z</time>
      </trkpt>
      <trkpt lat="43.95127" lon="7.14662">
        <ele>580.40002441406</ele>
        <time>2022-03-19T13:06:31.000Z</time>
      </trkpt>
      <trkpt lat="43.95125" lon="7.14665">
        <ele>579.40002441406</ele>
        <time>2022-03-19T13:06:37.000Z</time>
      </trkpt>
      <trkpt lat="43.95125" lon="7.14667">
        <ele>579.20001220703</ele>
        <time>2022-03-19T13:06:47.000Z</time>
      </trkpt>
      <trkpt lat="43.95124" lon="7.14668">
        <ele>580</ele>
        <time>2022-03-19T13:06:56.000Z</time>
      </trkpt>
      <trkpt lat="43.95122" lon="7.1467">
        <ele>580.40002441406</ele>
        <time>2022-03-19T13:07:00.000Z</time>
      </trkpt>
      <trkpt lat="43.95119" lon="7.14672">
        <ele>580.40002441406</ele>
        <time>2022-03-19T13:07:03.000Z</time>
      </trkpt>
      <trkpt lat="43.95118" lon="7.14673">
        <ele>580.40002441406</ele>
        <time>2022-03-19T13:07:04.000Z</time>
      </trkpt>
      <trkpt lat="43.95106" lon="7.14675">
        <ele>580.59997558594</ele>
        <time>2022-03-19T13:07:10.000Z</time>
      </trkpt>
      <trkpt lat="43.95086" lon="7.14684">
        <ele>580.40002441406</ele>
        <time>2022-03-19T13:07:17.000Z</time>
      </trkpt>
      <trkpt lat="43.95072" lon="7.14699">
        <ele>580</ele>
        <time>2022-03-19T13:07:22.000Z</time>
      </trkpt>
      <trkpt lat="43.95065" lon="7.14707">
        <ele>580</ele>
        <time>2022-03-19T13:07:25.000Z</time>
      </trkpt>
      <trkpt lat="43.95063" lon="7.14711">
        <ele>579.79998779297</ele>
        <time>2022-03-19T13:07:26.000Z</time>
      </trkpt>
      <trkpt lat="43.95056" lon="7.14722">
        <ele>579.40002441406</ele>
        <time>2022-03-19T13:07:29.000Z</time>
      </trkpt>
      <trkpt lat="43.95047" lon="7.14734">
        <ele>579</ele>
        <time>2022-03-19T13:07:32.000Z</time>
      </trkpt>
      <trkpt lat="43.95034" lon="7.14746">
        <ele>578.40002441406</ele>
        <time>2022-03-19T13:07:37.000Z</time>
      </trkpt>
      <trkpt lat="43.95031" lon="7.1475">
        <ele>578.40002441406</ele>
        <time>2022-03-19T13:07:39.000Z</time>
      </trkpt>
      <trkpt lat="43.95027" lon="7.14758">
        <ele>577.79998779297</ele>
        <time>2022-03-19T13:07:41.000Z</time>
      </trkpt>
      <trkpt lat="43.95024" lon="7.14762">
        <ele>577.40002441406</ele>
        <time>2022-03-19T13:07:42.000Z</time>
      </trkpt>
      <trkpt lat="43.95021" lon="7.14768">
        <ele>576.79998779297</ele>
        <time>2022-03-19T13:07:43.000Z</time>
      </trkpt>
      <trkpt lat="43.95017" lon="7.14773">
        <ele>576.20001220703</ele>
        <time>2022-03-19T13:07:44.000Z</time>
      </trkpt>
      <trkpt lat="43.95012" lon="7.14778">
        <ele>575.59997558594</ele>
        <time>2022-03-19T13:07:45.000Z</time>
      </trkpt>
      <trkpt lat="43.95006" lon="7.14782">
        <ele>575</ele>
        <time>2022-03-19T13:07:46.000Z</time>
      </trkpt>
      <trkpt lat="43.95001" lon="7.14785">
        <ele>574.20001220703</ele>
        <time>2022-03-19T13:07:47.000Z</time>
      </trkpt>
      <trkpt lat="43.94994" lon="7.14789">
        <ele>573.59997558594</ele>
        <time>2022-03-19T13:07:48.000Z</time>
      </trkpt>
      <trkpt lat="43.94988" lon="7.14791">
        <ele>572.79998779297</ele>
        <time>2022-03-19T13:07:49.000Z</time>
      </trkpt>
      <trkpt lat="43.94978" lon="7.14797">
        <ele>571.40002441406</ele>
        <time>2022-03-19T13:07:51.000Z</time>
      </trkpt>
      <trkpt lat="43.94967" lon="7.14804">
        <ele>570.40002441406</ele>
        <time>2022-03-19T13:07:53.000Z</time>
      </trkpt>
      <trkpt lat="43.94963" lon="7.14808">
        <ele>569.79998779297</ele>
        <time>2022-03-19T13:07:54.000Z</time>
      </trkpt>
      <trkpt lat="43.94953" lon="7.14817">
        <ele>569.20001220703</ele>
        <time>2022-03-19T13:07:56.000Z</time>
      </trkpt>
      <trkpt lat="43.94936" lon="7.14833">
        <ele>567.79998779297</ele>
        <time>2022-03-19T13:07:59.000Z</time>
      </trkpt>
      <trkpt lat="43.94924" lon="7.14843">
        <ele>566</ele>
        <time>2022-03-19T13:08:01.000Z</time>
      </trkpt>
      <trkpt lat="43.94915" lon="7.14852">
        <ele>564.79998779297</ele>
        <time>2022-03-19T13:08:03.000Z</time>
      </trkpt>
      <trkpt lat="43.94904" lon="7.14869">
        <ele>563.59997558594</ele>
        <time>2022-03-19T13:08:07.000Z</time>
      </trkpt>
      <trkpt lat="43.949" lon="7.14882">
        <ele>563.59997558594</ele>
        <time>2022-03-19T13:08:11.000Z</time>
      </trkpt>
      <trkpt lat="43.94893" lon="7.14905">
        <ele>563.20001220703</ele>
        <time>2022-03-19T13:08:17.000Z</time>
      </trkpt>
      <trkpt lat="43.9489" lon="7.14915">
        <ele>563.40002441406</ele>
        <time>2022-03-19T13:08:22.000Z</time>
      </trkpt>
      <trkpt lat="43.94889" lon="7.14922">
        <ele>563.59997558594</ele>
        <time>2022-03-19T13:08:27.000Z</time>
      </trkpt>
      <trkpt lat="43.94883" lon="7.14942">
        <ele>563.40002441406</ele>
        <time>2022-03-19T13:08:32.000Z</time>
      </trkpt>
      <trkpt lat="43.94875" lon="7.14961">
        <ele>562.59997558594</ele>
        <time>2022-03-19T13:08:36.000Z</time>
      </trkpt>
      <trkpt lat="43.94873" lon="7.14966">
        <ele>562.59997558594</ele>
        <time>2022-03-19T13:08:37.000Z</time>
      </trkpt>
      <trkpt lat="43.94864" lon="7.14995">
        <ele>561.59997558594</ele>
        <time>2022-03-19T13:08:41.000Z</time>
      </trkpt>
      <trkpt lat="43.9486" lon="7.15">
        <ele>561</ele>
        <time>2022-03-19T13:08:42.000Z</time>
      </trkpt>
      <trkpt lat="43.9485" lon="7.15013">
        <ele>560</ele>
        <time>2022-03-19T13:08:44.000Z</time>
      </trkpt>
      <trkpt lat="43.94845" lon="7.15019">
        <ele>559.40002441406</ele>
        <time>2022-03-19T13:08:45.000Z</time>
      </trkpt>
      <trkpt lat="43.9484" lon="7.15025">
        <ele>558.79998779297</ele>
        <time>2022-03-19T13:08:46.000Z</time>
      </trkpt>
      <trkpt lat="43.9483" lon="7.15031">
        <ele>557.20001220703</ele>
        <time>2022-03-19T13:08:48.000Z</time>
      </trkpt>
      <trkpt lat="43.9482" lon="7.1503">
        <ele>555.79998779297</ele>
        <time>2022-03-19T13:08:50.000Z</time>
      </trkpt>
      <trkpt lat="43.94815" lon="7.15029">
        <ele>555.20001220703</ele>
        <time>2022-03-19T13:08:51.000Z</time>
      </trkpt>
      <trkpt lat="43.94809" lon="7.15028">
        <ele>554.79998779297</ele>
        <time>2022-03-19T13:08:52.000Z</time>
      </trkpt>
      <trkpt lat="43.94796" lon="7.15031">
        <ele>552.79998779297</ele>
        <time>2022-03-19T13:08:54.000Z</time>
      </trkpt>
      <trkpt lat="43.9479" lon="7.15035">
        <ele>551.40002441406</ele>
        <time>2022-03-19T13:08:55.000Z</time>
      </trkpt>
      <trkpt lat="43.94785" lon="7.15041">
        <ele>550</ele>
        <time>2022-03-19T13:08:56.000Z</time>
      </trkpt>
      <trkpt lat="43.94781" lon="7.15047">
        <ele>548.59997558594</ele>
        <time>2022-03-19T13:08:57.000Z</time>
      </trkpt>
      <trkpt lat="43.94777" lon="7.15056">
        <ele>547.59997558594</ele>
        <time>2022-03-19T13:08:58.000Z</time>
      </trkpt>
      <trkpt lat="43.94774" lon="7.15063">
        <ele>546.59997558594</ele>
        <time>2022-03-19T13:08:59.000Z</time>
      </trkpt>
      <trkpt lat="43.9477" lon="7.15069">
        <ele>546</ele>
        <time>2022-03-19T13:09:00.000Z</time>
      </trkpt>
      <trkpt lat="43.94765" lon="7.15075">
        <ele>545.40002441406</ele>
        <time>2022-03-19T13:09:01.000Z</time>
      </trkpt>
      <trkpt lat="43.9475" lon="7.15092">
        <ele>544.40002441406</ele>
        <time>2022-03-19T13:09:04.000Z</time>
      </trkpt>
      <trkpt lat="43.94745" lon="7.15095">
        <ele>544</ele>
        <time>2022-03-19T13:09:05.000Z</time>
      </trkpt>
      <trkpt lat="43.94733" lon="7.15098">
        <ele>543.40002441406</ele>
        <time>2022-03-19T13:09:07.000Z</time>
      </trkpt>
      <trkpt lat="43.94711" lon="7.15106">
        <ele>542.59997558594</ele>
        <time>2022-03-19T13:09:11.000Z</time>
      </trkpt>
      <trkpt lat="43.94706" lon="7.15109">
        <ele>542</ele>
        <time>2022-03-19T13:09:12.000Z</time>
      </trkpt>
      <trkpt lat="43.94701" lon="7.15112">
        <ele>541.40002441406</ele>
        <time>2022-03-19T13:09:14.000Z</time>
      </trkpt>
      <trkpt lat="43.94699" lon="7.1511">
        <ele>541</ele>
        <time>2022-03-19T13:09:15.000Z</time>
      </trkpt>
      <trkpt lat="43.94698" lon="7.15105">
        <ele>540.79998779297</ele>
        <time>2022-03-19T13:09:17.000Z</time>
      </trkpt>
      <trkpt lat="43.94697" lon="7.15103">
        <ele>540.59997558594</ele>
        <time>2022-03-19T13:09:18.000Z</time>
      </trkpt>
      <trkpt lat="43.94693" lon="7.15103">
        <ele>540</ele>
        <time>2022-03-19T13:09:21.000Z</time>
      </trkpt>
      <trkpt lat="43.94692" lon="7.15104">
        <ele>540</ele>
        <time>2022-03-19T13:09:22.000Z</time>
      </trkpt>
      <trkpt lat="43.94688" lon="7.15107">
        <ele>540.20001220703</ele>
        <time>2022-03-19T13:09:25.000Z</time>
      </trkpt>
      <trkpt lat="43.94689" lon="7.1511">
        <ele>540.20001220703</ele>
        <time>2022-03-19T13:09:27.000Z</time>
      </trkpt>
      <trkpt lat="43.94696" lon="7.15109">
        <ele>540.20001220703</ele>
        <time>2022-03-19T13:09:31.000Z</time>
      </trkpt>
      <trkpt lat="43.947" lon="7.15107">
        <ele>540.20001220703</ele>
        <time>2022-03-19T13:09:35.000Z</time>
      </trkpt>
      <trkpt lat="43.94701" lon="7.15105">
        <ele>540.59997558594</ele>
        <time>2022-03-19T13:09:43.000Z</time>
      </trkpt>
      <trkpt lat="43.94703" lon="7.15103">
        <ele>540.40002441406</ele>
        <time>2022-03-19T13:09:44.000Z</time>
      </trkpt>
      <trkpt lat="43.94714" lon="7.15091">
        <ele>539.79998779297</ele>
        <time>2022-03-19T13:09:48.000Z</time>
      </trkpt>
      <trkpt lat="43.94724" lon="7.15075">
        <ele>538.79998779297</ele>
        <time>2022-03-19T13:09:51.000Z</time>
      </trkpt>
      <trkpt lat="43.9473" lon="7.1506">
        <ele>537.79998779297</ele>
        <time>2022-03-19T13:09:53.000Z</time>
      </trkpt>
      <trkpt lat="43.94732" lon="7.15052">
        <ele>537.20001220703</ele>
        <time>2022-03-19T13:09:54.000Z</time>
      </trkpt>
      <trkpt lat="43.94734" lon="7.15034">
        <ele>536</ele>
        <time>2022-03-19T13:09:56.000Z</time>
      </trkpt>
      <trkpt lat="43.94734" lon="7.15025">
        <ele>535.40002441406</ele>
        <time>2022-03-19T13:09:57.000Z</time>
      </trkpt>
      <trkpt lat="43.94733" lon="7.15014">
        <ele>535</ele>
        <time>2022-03-19T13:09:58.000Z</time>
      </trkpt>
      <trkpt lat="43.94728" lon="7.14981">
        <ele>533.79998779297</ele>
        <time>2022-03-19T13:10:01.000Z</time>
      </trkpt>
      <trkpt lat="43.94729" lon="7.14958">
        <ele>532.79998779297</ele>
        <time>2022-03-19T13:10:03.000Z</time>
      </trkpt>
      <trkpt lat="43.94732" lon="7.14932">
        <ele>531</ele>
        <time>2022-03-19T13:10:05.000Z</time>
      </trkpt>
      <trkpt lat="43.94737" lon="7.14907">
        <ele>529.40002441406</ele>
        <time>2022-03-19T13:10:07.000Z</time>
      </trkpt>
      <trkpt lat="43.94744" lon="7.14881">
        <ele>528</ele>
        <time>2022-03-19T13:10:09.000Z</time>
      </trkpt>
      <trkpt lat="43.9475" lon="7.14869">
        <ele>527.59997558594</ele>
        <time>2022-03-19T13:10:10.000Z</time>
      </trkpt>
      <trkpt lat="43.94756" lon="7.14858">
        <ele>527</ele>
        <time>2022-03-19T13:10:11.000Z</time>
      </trkpt>
      <trkpt lat="43.94768" lon="7.14839">
        <ele>525.40002441406</ele>
        <time>2022-03-19T13:10:13.000Z</time>
      </trkpt>
      <trkpt lat="43.94776" lon="7.14832">
        <ele>524.59997558594</ele>
        <time>2022-03-19T13:10:14.000Z</time>
      </trkpt>
      <trkpt lat="43.94784" lon="7.14825">
        <ele>523.79998779297</ele>
        <time>2022-03-19T13:10:15.000Z</time>
      </trkpt>
      <trkpt lat="43.94793" lon="7.14804">
        <ele>522.40002441406</ele>
        <time>2022-03-19T13:10:17.000Z</time>
      </trkpt>
      <trkpt lat="43.94794" lon="7.1479">
        <ele>521.20001220703</ele>
        <time>2022-03-19T13:10:18.000Z</time>
      </trkpt>
      <trkpt lat="43.94793" lon="7.14776">
        <ele>520.40002441406</ele>
        <time>2022-03-19T13:10:19.000Z</time>
      </trkpt>
      <trkpt lat="43.9479" lon="7.14763">
        <ele>519.20001220703</ele>
        <time>2022-03-19T13:10:20.000Z</time>
      </trkpt>
      <trkpt lat="43.94787" lon="7.1475">
        <ele>518.20001220703</ele>
        <time>2022-03-19T13:10:21.000Z</time>
      </trkpt>
      <trkpt lat="43.94782" lon="7.14721">
        <ele>516.40002441406</ele>
        <time>2022-03-19T13:10:23.000Z</time>
      </trkpt>
      <trkpt lat="43.94777" lon="7.14691">
        <ele>514.79998779297</ele>
        <time>2022-03-19T13:10:25.000Z</time>
      </trkpt>
      <trkpt lat="43.94773" lon="7.14662">
        <ele>513.20001220703</ele>
        <time>2022-03-19T13:10:27.000Z</time>
      </trkpt>
      <trkpt lat="43.94769" lon="7.1463">
        <ele>512</ele>
        <time>2022-03-19T13:10:29.000Z</time>
      </trkpt>
      <trkpt lat="43.94764" lon="7.14601">
        <ele>510.20001220703</ele>
        <time>2022-03-19T13:10:31.000Z</time>
      </trkpt>
      <trkpt lat="43.94761" lon="7.14589">
        <ele>509.79998779297</ele>
        <time>2022-03-19T13:10:32.000Z</time>
      </trkpt>
      <trkpt lat="43.94759" lon="7.14576">
        <ele>509</ele>
        <time>2022-03-19T13:10:33.000Z</time>
      </trkpt>
      <trkpt lat="43.94762" lon="7.14553">
        <ele>508.60000610352</ele>
        <time>2022-03-19T13:10:35.000Z</time>
      </trkpt>
      <trkpt lat="43.94768" lon="7.14516">
        <ele>508.79998779297</ele>
        <time>2022-03-19T13:10:39.000Z</time>
      </trkpt>
      <trkpt lat="43.94771" lon="7.14497">
        <ele>507.79998779297</ele>
        <time>2022-03-19T13:10:42.000Z</time>
      </trkpt>
      <trkpt lat="43.94772" lon="7.14491">
        <ele>507.60000610352</ele>
        <time>2022-03-19T13:10:43.000Z</time>
      </trkpt>
      <trkpt lat="43.94782" lon="7.14472">
        <ele>506.79998779297</ele>
        <time>2022-03-19T13:10:47.000Z</time>
      </trkpt>
      <trkpt lat="43.94786" lon="7.14468">
        <ele>506.60000610352</ele>
        <time>2022-03-19T13:10:48.000Z</time>
      </trkpt>
      <trkpt lat="43.94793" lon="7.14461">
        <ele>505.79998779297</ele>
        <time>2022-03-19T13:10:50.000Z</time>
      </trkpt>
      <trkpt lat="43.948" lon="7.14456">
        <ele>505.20001220703</ele>
        <time>2022-03-19T13:10:52.000Z</time>
      </trkpt>
      <trkpt lat="43.94808" lon="7.14453">
        <ele>504.60000610352</ele>
        <time>2022-03-19T13:10:54.000Z</time>
      </trkpt>
      <trkpt lat="43.94817" lon="7.14452">
        <ele>504</ele>
        <time>2022-03-19T13:10:56.000Z</time>
      </trkpt>
      <trkpt lat="43.94821" lon="7.14451">
        <ele>503.60000610352</ele>
        <time>2022-03-19T13:10:57.000Z</time>
      </trkpt>
      <trkpt lat="43.94831" lon="7.14448">
        <ele>502.60000610352</ele>
        <time>2022-03-19T13:10:59.000Z</time>
      </trkpt>
      <trkpt lat="43.94836" lon="7.14446">
        <ele>502</ele>
        <time>2022-03-19T13:11:00.000Z</time>
      </trkpt>
      <trkpt lat="43.94845" lon="7.14439">
        <ele>501</ele>
        <time>2022-03-19T13:11:02.000Z</time>
      </trkpt>
      <trkpt lat="43.94854" lon="7.14434">
        <ele>500</ele>
        <time>2022-03-19T13:11:04.000Z</time>
      </trkpt>
      <trkpt lat="43.94863" lon="7.1443">
        <ele>499</ele>
        <time>2022-03-19T13:11:06.000Z</time>
      </trkpt>
      <trkpt lat="43.94867" lon="7.14428">
        <ele>498.79998779297</ele>
        <time>2022-03-19T13:11:07.000Z</time>
      </trkpt>
      <trkpt lat="43.94882" lon="7.14422">
        <ele>497.79998779297</ele>
        <time>2022-03-19T13:11:10.000Z</time>
      </trkpt>
      <trkpt lat="43.94887" lon="7.14419">
        <ele>497.39999389648</ele>
        <time>2022-03-19T13:11:11.000Z</time>
      </trkpt>
      <trkpt lat="43.9489" lon="7.14415">
        <ele>497</ele>
        <time>2022-03-19T13:11:12.000Z</time>
      </trkpt>
      <trkpt lat="43.94893" lon="7.14409">
        <ele>496.60000610352</ele>
        <time>2022-03-19T13:11:13.000Z</time>
      </trkpt>
      <trkpt lat="43.94895" lon="7.14396">
        <ele>495.79998779297</ele>
        <time>2022-03-19T13:11:15.000Z</time>
      </trkpt>
      <trkpt lat="43.94896" lon="7.14389">
        <ele>495.60000610352</ele>
        <time>2022-03-19T13:11:16.000Z</time>
      </trkpt>
      <trkpt lat="43.94897" lon="7.14369">
        <ele>494.39999389648</ele>
        <time>2022-03-19T13:11:19.000Z</time>
      </trkpt>
      <trkpt lat="43.94897" lon="7.14353">
        <ele>493.60000610352</ele>
        <time>2022-03-19T13:11:22.000Z</time>
      </trkpt>
      <trkpt lat="43.94897" lon="7.14348">
        <ele>493.20001220703</ele>
        <time>2022-03-19T13:11:23.000Z</time>
      </trkpt>
      <trkpt lat="43.94897" lon="7.14343">
        <ele>492.60000610352</ele>
        <time>2022-03-19T13:11:26.000Z</time>
      </trkpt>
      <trkpt lat="43.94897" lon="7.14343">
        <ele>492.20001220703</ele>
        <time>2022-03-19T13:11:28.000Z</time>
      </trkpt>
      <trkpt lat="43.94897" lon="7.14343">
        <ele>492.20001220703</ele>
        <time>2022-03-19T13:11:34.000Z</time>
      </trkpt>
      <trkpt lat="43.94896" lon="7.14343">
        <ele>491.60000610352</ele>
        <time>2022-03-19T13:11:47.000Z</time>
      </trkpt>
      <trkpt lat="43.94893" lon="7.14331">
        <ele>491.79998779297</ele>
        <time>2022-03-19T13:11:51.000Z</time>
      </trkpt>
      <trkpt lat="43.94888" lon="7.1431">
        <ele>491</ele>
        <time>2022-03-19T13:11:55.000Z</time>
      </trkpt>
      <trkpt lat="43.94888" lon="7.14304">
        <ele>490.79998779297</ele>
        <time>2022-03-19T13:11:56.000Z</time>
      </trkpt>
      <trkpt lat="43.9489" lon="7.14285">
        <ele>489.60000610352</ele>
        <time>2022-03-19T13:11:59.000Z</time>
      </trkpt>
      <trkpt lat="43.94892" lon="7.14278">
        <ele>489.39999389648</ele>
        <time>2022-03-19T13:12:00.000Z</time>
      </trkpt>
      <trkpt lat="43.94895" lon="7.14267">
        <ele>488.60000610352</ele>
        <time>2022-03-19T13:12:02.000Z</time>
      </trkpt>
      <trkpt lat="43.94899" lon="7.14248">
        <ele>487.39999389648</ele>
        <time>2022-03-19T13:12:05.000Z</time>
      </trkpt>
      <trkpt lat="43.94902" lon="7.14233">
        <ele>486.39999389648</ele>
        <time>2022-03-19T13:12:08.000Z</time>
      </trkpt>
      <trkpt lat="43.94905" lon="7.14223">
        <ele>485.20001220703</ele>
        <time>2022-03-19T13:12:12.000Z</time>
      </trkpt>
      <trkpt lat="43.94907" lon="7.14224">
        <ele>484.79998779297</ele>
        <time>2022-03-19T13:12:16.000Z</time>
      </trkpt>
      <trkpt lat="43.94908" lon="7.14223">
        <ele>484.79998779297</ele>
        <time>2022-03-19T13:12:20.000Z</time>
      </trkpt>
      <trkpt lat="43.94909" lon="7.14219">
        <ele>484.60000610352</ele>
        <time>2022-03-19T13:12:22.000Z</time>
      </trkpt>
      <trkpt lat="43.94911" lon="7.14211">
        <ele>484.60000610352</ele>
        <time>2022-03-19T13:12:24.000Z</time>
      </trkpt>
      <trkpt lat="43.94913" lon="7.142">
        <ele>484.20001220703</ele>
        <time>2022-03-19T13:12:26.000Z</time>
      </trkpt>
      <trkpt lat="43.94914" lon="7.14194">
        <ele>484</ele>
        <time>2022-03-19T13:12:27.000Z</time>
      </trkpt>
      <trkpt lat="43.94923" lon="7.14176">
        <ele>483</ele>
        <time>2022-03-19T13:12:30.000Z</time>
      </trkpt>
      <trkpt lat="43.94927" lon="7.14171">
        <ele>482.60000610352</ele>
        <time>2022-03-19T13:12:31.000Z</time>
      </trkpt>
      <trkpt lat="43.94935" lon="7.14161">
        <ele>481.60000610352</ele>
        <time>2022-03-19T13:12:33.000Z</time>
      </trkpt>
      <trkpt lat="43.9494" lon="7.14156">
        <ele>481.20001220703</ele>
        <time>2022-03-19T13:12:34.000Z</time>
      </trkpt>
      <trkpt lat="43.94946" lon="7.14153">
        <ele>480.60000610352</ele>
        <time>2022-03-19T13:12:35.000Z</time>
      </trkpt>
      <trkpt lat="43.94957" lon="7.14149">
        <ele>479.39999389648</ele>
        <time>2022-03-19T13:12:37.000Z</time>
      </trkpt>
      <trkpt lat="43.9497" lon="7.14145">
        <ele>478.39999389648</ele>
        <time>2022-03-19T13:12:39.000Z</time>
      </trkpt>
      <trkpt lat="43.94981" lon="7.14137">
        <ele>477.20001220703</ele>
        <time>2022-03-19T13:12:41.000Z</time>
      </trkpt>
      <trkpt lat="43.95" lon="7.14124">
        <ele>475.79998779297</ele>
        <time>2022-03-19T13:12:44.000Z</time>
      </trkpt>
      <trkpt lat="43.95006" lon="7.14119">
        <ele>475.39999389648</ele>
        <time>2022-03-19T13:12:45.000Z</time>
      </trkpt>
      <trkpt lat="43.95012" lon="7.14114">
        <ele>474.60000610352</ele>
        <time>2022-03-19T13:12:46.000Z</time>
      </trkpt>
      <trkpt lat="43.95016" lon="7.14109">
        <ele>474</ele>
        <time>2022-03-19T13:12:47.000Z</time>
      </trkpt>
      <trkpt lat="43.95019" lon="7.14101">
        <ele>473.39999389648</ele>
        <time>2022-03-19T13:12:48.000Z</time>
      </trkpt>
      <trkpt lat="43.95015" lon="7.14089">
        <ele>472.20001220703</ele>
        <time>2022-03-19T13:12:50.000Z</time>
      </trkpt>
      <trkpt lat="43.94999" lon="7.14082">
        <ele>471.20001220703</ele>
        <time>2022-03-19T13:12:53.000Z</time>
      </trkpt>
      <trkpt lat="43.94986" lon="7.14084">
        <ele>471.60000610352</ele>
        <time>2022-03-19T13:12:55.000Z</time>
      </trkpt>
      <trkpt lat="43.94979" lon="7.14083">
        <ele>471.79998779297</ele>
        <time>2022-03-19T13:12:56.000Z</time>
      </trkpt>
      <trkpt lat="43.94972" lon="7.14081">
        <ele>471.79998779297</ele>
        <time>2022-03-19T13:12:57.000Z</time>
      </trkpt>
      <trkpt lat="43.9496" lon="7.14067">
        <ele>470.79998779297</ele>
        <time>2022-03-19T13:12:59.000Z</time>
      </trkpt>
      <trkpt lat="43.94954" lon="7.1406">
        <ele>470.20001220703</ele>
        <time>2022-03-19T13:13:00.000Z</time>
      </trkpt>
      <trkpt lat="43.94947" lon="7.14054">
        <ele>469.39999389648</ele>
        <time>2022-03-19T13:13:01.000Z</time>
      </trkpt>
      <trkpt lat="43.9494" lon="7.14051">
        <ele>468.20001220703</ele>
        <time>2022-03-19T13:13:02.000Z</time>
      </trkpt>
      <trkpt lat="43.94931" lon="7.1405">
        <ele>467</ele>
        <time>2022-03-19T13:13:03.000Z</time>
      </trkpt>
      <trkpt lat="43.94912" lon="7.14053">
        <ele>465.20001220703</ele>
        <time>2022-03-19T13:13:05.000Z</time>
      </trkpt>
      <trkpt lat="43.94894" lon="7.14062">
        <ele>463.60000610352</ele>
        <time>2022-03-19T13:13:07.000Z</time>
      </trkpt>
      <trkpt lat="43.94883" lon="7.14069">
        <ele>462.60000610352</ele>
        <time>2022-03-19T13:13:08.000Z</time>
      </trkpt>
      <trkpt lat="43.94875" lon="7.14075">
        <ele>461.60000610352</ele>
        <time>2022-03-19T13:13:09.000Z</time>
      </trkpt>
      <trkpt lat="43.94865" lon="7.14081">
        <ele>460.39999389648</ele>
        <time>2022-03-19T13:13:10.000Z</time>
      </trkpt>
      <trkpt lat="43.94856" lon="7.14085">
        <ele>459.39999389648</ele>
        <time>2022-03-19T13:13:11.000Z</time>
      </trkpt>
      <trkpt lat="43.94847" lon="7.14087">
        <ele>458.60000610352</ele>
        <time>2022-03-19T13:13:12.000Z</time>
      </trkpt>
      <trkpt lat="43.94838" lon="7.14085">
        <ele>458.20001220703</ele>
        <time>2022-03-19T13:13:13.000Z</time>
      </trkpt>
      <trkpt lat="43.94831" lon="7.14082">
        <ele>458</ele>
        <time>2022-03-19T13:13:14.000Z</time>
      </trkpt>
      <trkpt lat="43.94818" lon="7.14087">
        <ele>458.39999389648</ele>
        <time>2022-03-19T13:13:16.000Z</time>
      </trkpt>
      <trkpt lat="43.94809" lon="7.14104">
        <ele>459.39999389648</ele>
        <time>2022-03-19T13:13:19.000Z</time>
      </trkpt>
      <trkpt lat="43.94805" lon="7.14111">
        <ele>460.60000610352</ele>
        <time>2022-03-19T13:13:21.000Z</time>
      </trkpt>
      <trkpt lat="43.94802" lon="7.14113">
        <ele>461</ele>
        <time>2022-03-19T13:13:22.000Z</time>
      </trkpt>
      <trkpt lat="43.94801" lon="7.14114">
        <ele>461.60000610352</ele>
        <time>2022-03-19T13:13:23.000Z</time>
      </trkpt>
      <trkpt lat="43.94794" lon="7.14113">
        <ele>462.79998779297</ele>
        <time>2022-03-19T13:13:26.000Z</time>
      </trkpt>
      <trkpt lat="43.94792" lon="7.14112">
        <ele>463</ele>
        <time>2022-03-19T13:13:27.000Z</time>
      </trkpt>
      <trkpt lat="43.94786" lon="7.14111">
        <ele>463.60000610352</ele>
        <time>2022-03-19T13:13:30.000Z</time>
      </trkpt>
      <trkpt lat="43.94783" lon="7.14111">
        <ele>463.79998779297</ele>
        <time>2022-03-19T13:13:31.000Z</time>
      </trkpt>
      <trkpt lat="43.94775" lon="7.14119">
        <ele>464.39999389648</ele>
        <time>2022-03-19T13:13:35.000Z</time>
      </trkpt>
      <trkpt lat="43.94775" lon="7.14122">
        <ele>464.39999389648</ele>
        <time>2022-03-19T13:13:36.000Z</time>
      </trkpt>
      <trkpt lat="43.94774" lon="7.14133">
        <ele>464.60000610352</ele>
        <time>2022-03-19T13:13:39.000Z</time>
      </trkpt>
      <trkpt lat="43.94771" lon="7.14144">
        <ele>465</ele>
        <time>2022-03-19T13:13:42.000Z</time>
      </trkpt>
      <trkpt lat="43.94768" lon="7.14149">
        <ele>465.39999389648</ele>
        <time>2022-03-19T13:13:44.000Z</time>
      </trkpt>
      <trkpt lat="43.94759" lon="7.14158">
        <ele>466</ele>
        <time>2022-03-19T13:13:49.000Z</time>
      </trkpt>
      <trkpt lat="43.94745" lon="7.14168">
        <ele>467</ele>
        <time>2022-03-19T13:13:54.000Z</time>
      </trkpt>
      <trkpt lat="43.94743" lon="7.14169">
        <ele>467.20001220703</ele>
        <time>2022-03-19T13:13:55.000Z</time>
      </trkpt>
      <trkpt lat="43.94729" lon="7.14169">
        <ele>468</ele>
        <time>2022-03-19T13:14:00.000Z</time>
      </trkpt>
      <trkpt lat="43.94724" lon="7.14166">
        <ele>468.20001220703</ele>
        <time>2022-03-19T13:14:02.000Z</time>
      </trkpt>
      <trkpt lat="43.94709" lon="7.14154">
        <ele>469</ele>
        <time>2022-03-19T13:14:08.000Z</time>
      </trkpt>
      <trkpt lat="43.94702" lon="7.14147">
        <ele>469.39999389648</ele>
        <time>2022-03-19T13:14:11.000Z</time>
      </trkpt>
      <trkpt lat="43.94694" lon="7.14141">
        <ele>469.79998779297</ele>
        <time>2022-03-19T13:14:15.000Z</time>
      </trkpt>
      <trkpt lat="43.94685" lon="7.14135">
        <ele>470.20001220703</ele>
        <time>2022-03-19T13:14:20.000Z</time>
      </trkpt>
      <trkpt lat="43.94681" lon="7.1413">
        <ele>470.39999389648</ele>
        <time>2022-03-19T13:14:22.000Z</time>
      </trkpt>
      <trkpt lat="43.94671" lon="7.1412">
        <ele>471</ele>
        <time>2022-03-19T13:14:27.000Z</time>
      </trkpt>
      <trkpt lat="43.94665" lon="7.14118">
        <ele>471.60000610352</ele>
        <time>2022-03-19T13:14:29.000Z</time>
      </trkpt>
      <trkpt lat="43.94657" lon="7.1412">
        <ele>471.79998779297</ele>
        <time>2022-03-19T13:14:32.000Z</time>
      </trkpt>
      <trkpt lat="43.94639" lon="7.14134">
        <ele>472.39999389648</ele>
        <time>2022-03-19T13:14:39.000Z</time>
      </trkpt>
      <trkpt lat="43.94634" lon="7.14137">
        <ele>472.60000610352</ele>
        <time>2022-03-19T13:14:41.000Z</time>
      </trkpt>
      <trkpt lat="43.94618" lon="7.14138">
        <ele>473</ele>
        <time>2022-03-19T13:14:46.000Z</time>
      </trkpt>
      <trkpt lat="43.94605" lon="7.14134">
        <ele>473.79998779297</ele>
        <time>2022-03-19T13:14:50.000Z</time>
      </trkpt>
      <trkpt lat="43.94594" lon="7.14126">
        <ele>474</ele>
        <time>2022-03-19T13:14:54.000Z</time>
      </trkpt>
      <trkpt lat="43.94576" lon="7.14108">
        <ele>474.60000610352</ele>
        <time>2022-03-19T13:15:01.000Z</time>
      </trkpt>
      <trkpt lat="43.94573" lon="7.14106">
        <ele>474.79998779297</ele>
        <time>2022-03-19T13:15:02.000Z</time>
      </trkpt>
      <trkpt lat="43.94559" lon="7.14093">
        <ele>475.20001220703</ele>
        <time>2022-03-19T13:15:07.000Z</time>
      </trkpt>
      <trkpt lat="43.94551" lon="7.14078">
        <ele>475.79998779297</ele>
        <time>2022-03-19T13:15:11.000Z</time>
      </trkpt>
      <trkpt lat="43.94547" lon="7.14066">
        <ele>476.20001220703</ele>
        <time>2022-03-19T13:15:14.000Z</time>
      </trkpt>
      <trkpt lat="43.94536" lon="7.14047">
        <ele>476.79998779297</ele>
        <time>2022-03-19T13:15:19.000Z</time>
      </trkpt>
      <trkpt lat="43.94534" lon="7.14043">
        <ele>477</ele>
        <time>2022-03-19T13:15:20.000Z</time>
      </trkpt>
      <trkpt lat="43.94522" lon="7.1402">
        <ele>478</ele>
        <time>2022-03-19T13:15:26.000Z</time>
      </trkpt>
      <trkpt lat="43.94517" lon="7.14014">
        <ele>478.20001220703</ele>
        <time>2022-03-19T13:15:28.000Z</time>
      </trkpt>
      <trkpt lat="43.94502" lon="7.14005">
        <ele>478.60000610352</ele>
        <time>2022-03-19T13:15:33.000Z</time>
      </trkpt>
      <trkpt lat="43.94491" lon="7.14007">
        <ele>479</ele>
        <time>2022-03-19T13:15:36.000Z</time>
      </trkpt>
      <trkpt lat="43.94485" lon="7.14011">
        <ele>479.39999389648</ele>
        <time>2022-03-19T13:15:38.000Z</time>
      </trkpt>
      <trkpt lat="43.94476" lon="7.14025">
        <ele>480</ele>
        <time>2022-03-19T13:15:42.000Z</time>
      </trkpt>
      <trkpt lat="43.94475" lon="7.1403">
        <ele>480.20001220703</ele>
        <time>2022-03-19T13:15:43.000Z</time>
      </trkpt>
      <trkpt lat="43.94462" lon="7.14055">
        <ele>481</ele>
        <time>2022-03-19T13:15:49.000Z</time>
      </trkpt>
      <trkpt lat="43.94459" lon="7.14058">
        <ele>481.20001220703</ele>
        <time>2022-03-19T13:15:50.000Z</time>
      </trkpt>
      <trkpt lat="43.94441" lon="7.1408">
        <ele>481.79998779297</ele>
        <time>2022-03-19T13:15:57.000Z</time>
      </trkpt>
      <trkpt lat="43.94432" lon="7.14088">
        <ele>482.20001220703</ele>
        <time>2022-03-19T13:16:00.000Z</time>
      </trkpt>
      <trkpt lat="43.94425" lon="7.1409">
        <ele>482.39999389648</ele>
        <time>2022-03-19T13:16:02.000Z</time>
      </trkpt>
      <trkpt lat="43.94411" lon="7.14088">
        <ele>483.39999389648</ele>
        <time>2022-03-19T13:16:06.000Z</time>
      </trkpt>
      <trkpt lat="43.94401" lon="7.14086">
        <ele>484</ele>
        <time>2022-03-19T13:16:09.000Z</time>
      </trkpt>
      <trkpt lat="43.94388" lon="7.14083">
        <ele>484.39999389648</ele>
        <time>2022-03-19T13:16:13.000Z</time>
      </trkpt>
      <trkpt lat="43.94372" lon="7.14081">
        <ele>485.60000610352</ele>
        <time>2022-03-19T13:16:18.000Z</time>
      </trkpt>
      <trkpt lat="43.94365" lon="7.1408">
        <ele>486</ele>
        <time>2022-03-19T13:16:20.000Z</time>
      </trkpt>
      <trkpt lat="43.94355" lon="7.14083">
        <ele>486.60000610352</ele>
        <time>2022-03-19T13:16:23.000Z</time>
      </trkpt>
      <trkpt lat="43.94347" lon="7.14089">
        <ele>486.79998779297</ele>
        <time>2022-03-19T13:16:26.000Z</time>
      </trkpt>
      <trkpt lat="43.94331" lon="7.141">
        <ele>487.60000610352</ele>
        <time>2022-03-19T13:16:31.000Z</time>
      </trkpt>
      <trkpt lat="43.94322" lon="7.14102">
        <ele>488.20001220703</ele>
        <time>2022-03-19T13:16:34.000Z</time>
      </trkpt>
      <trkpt lat="43.94315" lon="7.14102">
        <ele>488.60000610352</ele>
        <time>2022-03-19T13:16:36.000Z</time>
      </trkpt>
      <trkpt lat="43.94293" lon="7.14099">
        <ele>489.20001220703</ele>
        <time>2022-03-19T13:16:42.000Z</time>
      </trkpt>
      <trkpt lat="43.9427" lon="7.14086">
        <ele>489.60000610352</ele>
        <time>2022-03-19T13:16:48.000Z</time>
      </trkpt>
      <trkpt lat="43.94267" lon="7.14083">
        <ele>489.79998779297</ele>
        <time>2022-03-19T13:16:49.000Z</time>
      </trkpt>
      <trkpt lat="43.94256" lon="7.14062">
        <ele>490</ele>
        <time>2022-03-19T13:16:53.000Z</time>
      </trkpt>
      <trkpt lat="43.94258" lon="7.14038">
        <ele>489.20001220703</ele>
        <time>2022-03-19T13:16:56.000Z</time>
      </trkpt>
      <trkpt lat="43.94266" lon="7.14022">
        <ele>488.39999389648</ele>
        <time>2022-03-19T13:16:58.000Z</time>
      </trkpt>
      <trkpt lat="43.9427" lon="7.14014">
        <ele>488</ele>
        <time>2022-03-19T13:16:59.000Z</time>
      </trkpt>
      <trkpt lat="43.94279" lon="7.13999">
        <ele>487.20001220703</ele>
        <time>2022-03-19T13:17:01.000Z</time>
      </trkpt>
      <trkpt lat="43.94289" lon="7.13981">
        <ele>485.79998779297</ele>
        <time>2022-03-19T13:17:03.000Z</time>
      </trkpt>
      <trkpt lat="43.94294" lon="7.13958">
        <ele>483.79998779297</ele>
        <time>2022-03-19T13:17:05.000Z</time>
      </trkpt>
      <trkpt lat="43.94294" lon="7.13945">
        <ele>482.79998779297</ele>
        <time>2022-03-19T13:17:06.000Z</time>
      </trkpt>
      <trkpt lat="43.94292" lon="7.13934">
        <ele>482</ele>
        <time>2022-03-19T13:17:07.000Z</time>
      </trkpt>
      <trkpt lat="43.94283" lon="7.13912">
        <ele>480.20001220703</ele>
        <time>2022-03-19T13:17:09.000Z</time>
      </trkpt>
      <trkpt lat="43.94271" lon="7.13894">
        <ele>478.60000610352</ele>
        <time>2022-03-19T13:17:11.000Z</time>
      </trkpt>
      <trkpt lat="43.94266" lon="7.13884">
        <ele>478</ele>
        <time>2022-03-19T13:17:12.000Z</time>
      </trkpt>
      <trkpt lat="43.94262" lon="7.13872">
        <ele>477.20001220703</ele>
        <time>2022-03-19T13:17:13.000Z</time>
      </trkpt>
      <trkpt lat="43.94258" lon="7.13847">
        <ele>476.39999389648</ele>
        <time>2022-03-19T13:17:15.000Z</time>
      </trkpt>
      <trkpt lat="43.94256" lon="7.13833">
        <ele>475.60000610352</ele>
        <time>2022-03-19T13:17:16.000Z</time>
      </trkpt>
      <trkpt lat="43.94256" lon="7.1382">
        <ele>474.60000610352</ele>
        <time>2022-03-19T13:17:17.000Z</time>
      </trkpt>
      <trkpt lat="43.94258" lon="7.13808">
        <ele>473.39999389648</ele>
        <time>2022-03-19T13:17:18.000Z</time>
      </trkpt>
      <trkpt lat="43.94263" lon="7.13799">
        <ele>472.39999389648</ele>
        <time>2022-03-19T13:17:19.000Z</time>
      </trkpt>
      <trkpt lat="43.9427" lon="7.13794">
        <ele>471.60000610352</ele>
        <time>2022-03-19T13:17:20.000Z</time>
      </trkpt>
      <trkpt lat="43.94278" lon="7.13789">
        <ele>470.79998779297</ele>
        <time>2022-03-19T13:17:21.000Z</time>
      </trkpt>
      <trkpt lat="43.94285" lon="7.13782">
        <ele>470.39999389648</ele>
        <time>2022-03-19T13:17:22.000Z</time>
      </trkpt>
      <trkpt lat="43.9429" lon="7.13773">
        <ele>470</ele>
        <time>2022-03-19T13:17:23.000Z</time>
      </trkpt>
      <trkpt lat="43.94292" lon="7.13762">
        <ele>469.39999389648</ele>
        <time>2022-03-19T13:17:24.000Z</time>
      </trkpt>
      <trkpt lat="43.94291" lon="7.13752">
        <ele>468.60000610352</ele>
        <time>2022-03-19T13:17:25.000Z</time>
      </trkpt>
      <trkpt lat="43.94286" lon="7.13743">
        <ele>467.60000610352</ele>
        <time>2022-03-19T13:17:26.000Z</time>
      </trkpt>
      <trkpt lat="43.94281" lon="7.13735">
        <ele>466.79998779297</ele>
        <time>2022-03-19T13:17:27.000Z</time>
      </trkpt>
      <trkpt lat="43.94277" lon="7.13723">
        <ele>466</ele>
        <time>2022-03-19T13:17:28.000Z</time>
      </trkpt>
      <trkpt lat="43.94273" lon="7.13698">
        <ele>464.79998779297</ele>
        <time>2022-03-19T13:17:30.000Z</time>
      </trkpt>
      <trkpt lat="43.94268" lon="7.13673">
        <ele>463.39999389648</ele>
        <time>2022-03-19T13:17:32.000Z</time>
      </trkpt>
      <trkpt lat="43.94259" lon="7.13647">
        <ele>461.79998779297</ele>
        <time>2022-03-19T13:17:34.000Z</time>
      </trkpt>
      <trkpt lat="43.94248" lon="7.13623">
        <ele>460</ele>
        <time>2022-03-19T13:17:36.000Z</time>
      </trkpt>
      <trkpt lat="43.94235" lon="7.13599">
        <ele>458.79998779297</ele>
        <time>2022-03-19T13:17:38.000Z</time>
      </trkpt>
      <trkpt lat="43.94222" lon="7.13577">
        <ele>457.20001220703</ele>
        <time>2022-03-19T13:17:40.000Z</time>
      </trkpt>
      <trkpt lat="43.9421" lon="7.1355">
        <ele>455.20001220703</ele>
        <time>2022-03-19T13:17:42.000Z</time>
      </trkpt>
      <trkpt lat="43.94199" lon="7.13521">
        <ele>453.20001220703</ele>
        <time>2022-03-19T13:17:44.000Z</time>
      </trkpt>
      <trkpt lat="43.94187" lon="7.13497">
        <ele>451.60000610352</ele>
        <time>2022-03-19T13:17:46.000Z</time>
      </trkpt>
      <trkpt lat="43.94182" lon="7.13488">
        <ele>450.79998779297</ele>
        <time>2022-03-19T13:17:47.000Z</time>
      </trkpt>
      <trkpt lat="43.94175" lon="7.13477">
        <ele>449.79998779297</ele>
        <time>2022-03-19T13:17:48.000Z</time>
      </trkpt>
      <trkpt lat="43.94168" lon="7.13451">
        <ele>448.60000610352</ele>
        <time>2022-03-19T13:17:50.000Z</time>
      </trkpt>
      <trkpt lat="43.94168" lon="7.13439">
        <ele>447.79998779297</ele>
        <time>2022-03-19T13:17:51.000Z</time>
      </trkpt>
      <trkpt lat="43.94172" lon="7.13429">
        <ele>447</ele>
        <time>2022-03-19T13:17:52.000Z</time>
      </trkpt>
      <trkpt lat="43.9418" lon="7.13421">
        <ele>446.20001220703</ele>
        <time>2022-03-19T13:17:53.000Z</time>
      </trkpt>
      <trkpt lat="43.94188" lon="7.13416">
        <ele>445.60000610352</ele>
        <time>2022-03-19T13:17:54.000Z</time>
      </trkpt>
      <trkpt lat="43.94195" lon="7.1341">
        <ele>445.20001220703</ele>
        <time>2022-03-19T13:17:55.000Z</time>
      </trkpt>
      <trkpt lat="43.94209" lon="7.13394">
        <ele>444.39999389648</ele>
        <time>2022-03-19T13:17:57.000Z</time>
      </trkpt>
      <trkpt lat="43.94222" lon="7.13373">
        <ele>443.20001220703</ele>
        <time>2022-03-19T13:17:59.000Z</time>
      </trkpt>
      <trkpt lat="43.94231" lon="7.13351">
        <ele>442</ele>
        <time>2022-03-19T13:18:02.000Z</time>
      </trkpt>
      <trkpt lat="43.94244" lon="7.13323">
        <ele>440.20001220703</ele>
        <time>2022-03-19T13:18:04.000Z</time>
      </trkpt>
      <trkpt lat="43.94252" lon="7.13298">
        <ele>438</ele>
        <time>2022-03-19T13:18:06.000Z</time>
      </trkpt>
      <trkpt lat="43.94256" lon="7.13285">
        <ele>437</ele>
        <time>2022-03-19T13:18:07.000Z</time>
      </trkpt>
      <trkpt lat="43.94259" lon="7.13273">
        <ele>436.20001220703</ele>
        <time>2022-03-19T13:18:08.000Z</time>
      </trkpt>
      <trkpt lat="43.94265" lon="7.13245">
        <ele>434.79998779297</ele>
        <time>2022-03-19T13:18:10.000Z</time>
      </trkpt>
      <trkpt lat="43.94266" lon="7.13219">
        <ele>434</ele>
        <time>2022-03-19T13:18:12.000Z</time>
      </trkpt>
      <trkpt lat="43.94267" lon="7.13207">
        <ele>433.20001220703</ele>
        <time>2022-03-19T13:18:13.000Z</time>
      </trkpt>
      <trkpt lat="43.94274" lon="7.13167">
        <ele>432.20001220703</ele>
        <time>2022-03-19T13:18:16.000Z</time>
      </trkpt>
      <trkpt lat="43.94279" lon="7.13156">
        <ele>431.79998779297</ele>
        <time>2022-03-19T13:18:17.000Z</time>
      </trkpt>
      <trkpt lat="43.94294" lon="7.1314">
        <ele>430.79998779297</ele>
        <time>2022-03-19T13:18:19.000Z</time>
      </trkpt>
      <trkpt lat="43.94302" lon="7.13136">
        <ele>430</ele>
        <time>2022-03-19T13:18:20.000Z</time>
      </trkpt>
      <trkpt lat="43.9431" lon="7.13132">
        <ele>429.20001220703</ele>
        <time>2022-03-19T13:18:21.000Z</time>
      </trkpt>
      <trkpt lat="43.94321" lon="7.13119">
        <ele>427.39999389648</ele>
        <time>2022-03-19T13:18:23.000Z</time>
      </trkpt>
      <trkpt lat="43.94325" lon="7.13097">
        <ele>425.79998779297</ele>
        <time>2022-03-19T13:18:25.000Z</time>
      </trkpt>
      <trkpt lat="43.94326" lon="7.13086">
        <ele>425.20001220703</ele>
        <time>2022-03-19T13:18:26.000Z</time>
      </trkpt>
      <trkpt lat="43.94326" lon="7.13075">
        <ele>424.60000610352</ele>
        <time>2022-03-19T13:18:27.000Z</time>
      </trkpt>
      <trkpt lat="43.94333" lon="7.13044">
        <ele>423.39999389648</ele>
        <time>2022-03-19T13:18:30.000Z</time>
      </trkpt>
      <trkpt lat="43.94338" lon="7.13037">
        <ele>423.20001220703</ele>
        <time>2022-03-19T13:18:31.000Z</time>
      </trkpt>
      <trkpt lat="43.94353" lon="7.13034">
        <ele>422.60000610352</ele>
        <time>2022-03-19T13:18:33.000Z</time>
      </trkpt>
      <trkpt lat="43.94362" lon="7.13038">
        <ele>422.20001220703</ele>
        <time>2022-03-19T13:18:34.000Z</time>
      </trkpt>
      <trkpt lat="43.94379" lon="7.13046">
        <ele>421.39999389648</ele>
        <time>2022-03-19T13:18:36.000Z</time>
      </trkpt>
      <trkpt lat="43.94387" lon="7.13049">
        <ele>420.79998779297</ele>
        <time>2022-03-19T13:18:37.000Z</time>
      </trkpt>
      <trkpt lat="43.94404" lon="7.13058">
        <ele>419.79998779297</ele>
        <time>2022-03-19T13:18:39.000Z</time>
      </trkpt>
      <trkpt lat="43.9441" lon="7.13063">
        <ele>419.20001220703</ele>
        <time>2022-03-19T13:18:40.000Z</time>
      </trkpt>
      <trkpt lat="43.94416" lon="7.13071">
        <ele>418.79998779297</ele>
        <time>2022-03-19T13:18:41.000Z</time>
      </trkpt>
      <trkpt lat="43.94434" lon="7.13086">
        <ele>417.60000610352</ele>
        <time>2022-03-19T13:18:44.000Z</time>
      </trkpt>
      <trkpt lat="43.94445" lon="7.13075">
        <ele>416.39999389648</ele>
        <time>2022-03-19T13:18:46.000Z</time>
      </trkpt>
      <trkpt lat="43.94451" lon="7.13067">
        <ele>415.60000610352</ele>
        <time>2022-03-19T13:18:47.000Z</time>
      </trkpt>
      <trkpt lat="43.94457" lon="7.13063">
        <ele>414.60000610352</ele>
        <time>2022-03-19T13:18:48.000Z</time>
      </trkpt>
      <trkpt lat="43.94466" lon="7.13058">
        <ele>414</ele>
        <time>2022-03-19T13:18:49.000Z</time>
      </trkpt>
      <trkpt lat="43.94471" lon="7.13049">
        <ele>413.39999389648</ele>
        <time>2022-03-19T13:18:50.000Z</time>
      </trkpt>
      <trkpt lat="43.94473" lon="7.13039">
        <ele>413</ele>
        <time>2022-03-19T13:18:51.000Z</time>
      </trkpt>
      <trkpt lat="43.94472" lon="7.13017">
        <ele>412.39999389648</ele>
        <time>2022-03-19T13:18:53.000Z</time>
      </trkpt>
      <trkpt lat="43.9447" lon="7.13004">
        <ele>412</ele>
        <time>2022-03-19T13:18:54.000Z</time>
      </trkpt>
      <trkpt lat="43.94469" lon="7.12992">
        <ele>411.20001220703</ele>
        <time>2022-03-19T13:18:55.000Z</time>
      </trkpt>
      <trkpt lat="43.9447" lon="7.12981">
        <ele>410.60000610352</ele>
        <time>2022-03-19T13:18:56.000Z</time>
      </trkpt>
      <trkpt lat="43.94475" lon="7.12974">
        <ele>409.79998779297</ele>
        <time>2022-03-19T13:18:57.000Z</time>
      </trkpt>
      <trkpt lat="43.94489" lon="7.12973">
        <ele>408.39999389648</ele>
        <time>2022-03-19T13:18:59.000Z</time>
      </trkpt>
      <trkpt lat="43.94509" lon="7.12976">
        <ele>408.20001220703</ele>
        <time>2022-03-19T13:19:02.000Z</time>
      </trkpt>
      <trkpt lat="43.94516" lon="7.12973">
        <ele>408.20001220703</ele>
        <time>2022-03-19T13:19:03.000Z</time>
      </trkpt>
      <trkpt lat="43.94525" lon="7.12973">
        <ele>407.79998779297</ele>
        <time>2022-03-19T13:19:04.000Z</time>
      </trkpt>
      <trkpt lat="43.94541" lon="7.12977">
        <ele>406.79998779297</ele>
        <time>2022-03-19T13:19:06.000Z</time>
      </trkpt>
      <trkpt lat="43.94557" lon="7.12986">
        <ele>405.79998779297</ele>
        <time>2022-03-19T13:19:08.000Z</time>
      </trkpt>
      <trkpt lat="43.94565" lon="7.12991">
        <ele>405.20001220703</ele>
        <time>2022-03-19T13:19:09.000Z</time>
      </trkpt>
      <trkpt lat="43.94572" lon="7.12996">
        <ele>404.39999389648</ele>
        <time>2022-03-19T13:19:10.000Z</time>
      </trkpt>
      <trkpt lat="43.9458" lon="7.12999">
        <ele>403.60000610352</ele>
        <time>2022-03-19T13:19:11.000Z</time>
      </trkpt>
      <trkpt lat="43.94588" lon="7.12998">
        <ele>402.79998779297</ele>
        <time>2022-03-19T13:19:12.000Z</time>
      </trkpt>
      <trkpt lat="43.94595" lon="7.12994">
        <ele>402</ele>
        <time>2022-03-19T13:19:13.000Z</time>
      </trkpt>
      <trkpt lat="43.94602" lon="7.12986">
        <ele>401.20001220703</ele>
        <time>2022-03-19T13:19:14.000Z</time>
      </trkpt>
      <trkpt lat="43.94609" lon="7.12967">
        <ele>400.39999389648</ele>
        <time>2022-03-19T13:19:16.000Z</time>
      </trkpt>
      <trkpt lat="43.94609" lon="7.12958">
        <ele>399.79998779297</ele>
        <time>2022-03-19T13:19:17.000Z</time>
      </trkpt>
      <trkpt lat="43.94604" lon="7.12951">
        <ele>399.60000610352</ele>
        <time>2022-03-19T13:19:18.000Z</time>
      </trkpt>
      <trkpt lat="43.94591" lon="7.12939">
        <ele>399</ele>
        <time>2022-03-19T13:19:20.000Z</time>
      </trkpt>
      <trkpt lat="43.94586" lon="7.12934">
        <ele>398.60000610352</ele>
        <time>2022-03-19T13:19:21.000Z</time>
      </trkpt>
      <trkpt lat="43.94576" lon="7.12924">
        <ele>398.39999389648</ele>
        <time>2022-03-19T13:19:23.000Z</time>
      </trkpt>
      <trkpt lat="43.94568" lon="7.12914">
        <ele>398.39999389648</ele>
        <time>2022-03-19T13:19:25.000Z</time>
      </trkpt>
      <trkpt lat="43.94556" lon="7.12901">
        <ele>400</ele>
        <time>2022-03-19T13:19:29.000Z</time>
      </trkpt>
      <trkpt lat="43.94553" lon="7.12899">
        <ele>400.60000610352</ele>
        <time>2022-03-19T13:19:30.000Z</time>
      </trkpt>
      <trkpt lat="43.94548" lon="7.12896">
        <ele>401.39999389648</ele>
        <time>2022-03-19T13:19:32.000Z</time>
      </trkpt>
      <trkpt lat="43.9454" lon="7.1289">
        <ele>402.39999389648</ele>
        <time>2022-03-19T13:19:35.000Z</time>
      </trkpt>
      <trkpt lat="43.94533" lon="7.12883">
        <ele>403.20001220703</ele>
        <time>2022-03-19T13:19:38.000Z</time>
      </trkpt>
      <trkpt lat="43.94527" lon="7.12879">
        <ele>403.60000610352</ele>
        <time>2022-03-19T13:19:40.000Z</time>
      </trkpt>
      <trkpt lat="43.94515" lon="7.12872">
        <ele>404.39999389648</ele>
        <time>2022-03-19T13:19:44.000Z</time>
      </trkpt>
      <trkpt lat="43.94512" lon="7.12869">
        <ele>404.60000610352</ele>
        <time>2022-03-19T13:19:45.000Z</time>
      </trkpt>
      <trkpt lat="43.94502" lon="7.12859">
        <ele>405.79998779297</ele>
        <time>2022-03-19T13:19:49.000Z</time>
      </trkpt>
      <trkpt lat="43.94497" lon="7.12853">
        <ele>406.39999389648</ele>
        <time>2022-03-19T13:19:51.000Z</time>
      </trkpt>
      <trkpt lat="43.9449" lon="7.12843">
        <ele>407</ele>
        <time>2022-03-19T13:19:54.000Z</time>
      </trkpt>
      <trkpt lat="43.94485" lon="7.12827">
        <ele>407.79998779297</ele>
        <time>2022-03-19T13:19:58.000Z</time>
      </trkpt>
      <trkpt lat="43.94485" lon="7.12821">
        <ele>408</ele>
        <time>2022-03-19T13:19:59.000Z</time>
      </trkpt>
      <trkpt lat="43.94489" lon="7.12813">
        <ele>408.39999389648</ele>
        <time>2022-03-19T13:20:01.000Z</time>
      </trkpt>
      <trkpt lat="43.94501" lon="7.12804">
        <ele>409</ele>
        <time>2022-03-19T13:20:05.000Z</time>
      </trkpt>
      <trkpt lat="43.94504" lon="7.12802">
        <ele>409.20001220703</ele>
        <time>2022-03-19T13:20:06.000Z</time>
      </trkpt>
      <trkpt lat="43.94514" lon="7.12796">
        <ele>410</ele>
        <time>2022-03-19T13:20:10.000Z</time>
      </trkpt>
      <trkpt lat="43.94525" lon="7.12792">
        <ele>410.79998779297</ele>
        <time>2022-03-19T13:20:14.000Z</time>
      </trkpt>
      <trkpt lat="43.94529" lon="7.12788">
        <ele>411</ele>
        <time>2022-03-19T13:20:16.000Z</time>
      </trkpt>
      <trkpt lat="43.9454" lon="7.12776">
        <ele>412</ele>
        <time>2022-03-19T13:20:21.000Z</time>
      </trkpt>
      <trkpt lat="43.94542" lon="7.12774">
        <ele>412.20001220703</ele>
        <time>2022-03-19T13:20:22.000Z</time>
      </trkpt>
      <trkpt lat="43.94552" lon="7.12753">
        <ele>413.20001220703</ele>
        <time>2022-03-19T13:20:28.000Z</time>
      </trkpt>
      <trkpt lat="43.94558" lon="7.12732">
        <ele>414.20001220703</ele>
        <time>2022-03-19T13:20:34.000Z</time>
      </trkpt>
      <trkpt lat="43.94559" lon="7.12728">
        <ele>414.39999389648</ele>
        <time>2022-03-19T13:20:35.000Z</time>
      </trkpt>
      <trkpt lat="43.94563" lon="7.12718">
        <ele>415.60000610352</ele>
        <time>2022-03-19T13:20:39.000Z</time>
      </trkpt>
      <trkpt lat="43.94564" lon="7.12715">
        <ele>415.79998779297</ele>
        <time>2022-03-19T13:20:40.000Z</time>
      </trkpt>
      <trkpt lat="43.94572" lon="7.12702">
        <ele>416.20001220703</ele>
        <time>2022-03-19T13:20:45.000Z</time>
      </trkpt>
      <trkpt lat="43.94576" lon="7.12697">
        <ele>416.79998779297</ele>
        <time>2022-03-19T13:20:47.000Z</time>
      </trkpt>
      <trkpt lat="43.94587" lon="7.12683">
        <ele>417.79998779297</ele>
        <time>2022-03-19T13:20:53.000Z</time>
      </trkpt>
      <trkpt lat="43.94593" lon="7.12667">
        <ele>418.79998779297</ele>
        <time>2022-03-19T13:20:58.000Z</time>
      </trkpt>
      <trkpt lat="43.94594" lon="7.12663">
        <ele>418.79998779297</ele>
        <time>2022-03-19T13:20:59.000Z</time>
      </trkpt>
      <trkpt lat="43.94595" lon="7.12646">
        <ele>420</ele>
        <time>2022-03-19T13:21:04.000Z</time>
      </trkpt>
      <trkpt lat="43.94596" lon="7.12634">
        <ele>420.60000610352</ele>
        <time>2022-03-19T13:21:07.000Z</time>
      </trkpt>
      <trkpt lat="43.94597" lon="7.12623">
        <ele>421.20001220703</ele>
        <time>2022-03-19T13:21:10.000Z</time>
      </trkpt>
      <trkpt lat="43.94601" lon="7.12603">
        <ele>422.20001220703</ele>
        <time>2022-03-19T13:21:15.000Z</time>
      </trkpt>
      <trkpt lat="43.94602" lon="7.12595">
        <ele>422.60000610352</ele>
        <time>2022-03-19T13:21:17.000Z</time>
      </trkpt>
      <trkpt lat="43.94604" lon="7.12579">
        <ele>423.39999389648</ele>
        <time>2022-03-19T13:21:21.000Z</time>
      </trkpt>
      <trkpt lat="43.94602" lon="7.12568">
        <ele>423.79998779297</ele>
        <time>2022-03-19T13:21:24.000Z</time>
      </trkpt>
      <trkpt lat="43.94593" lon="7.12538">
        <ele>424.20001220703</ele>
        <time>2022-03-19T13:21:31.000Z</time>
      </trkpt>
      <trkpt lat="43.94593" lon="7.12523">
        <ele>424</ele>
        <time>2022-03-19T13:21:35.000Z</time>
      </trkpt>
      <trkpt lat="43.94593" lon="7.12523">
        <ele>424.20001220703</ele>
        <time>2022-03-19T13:21:39.000Z</time>
      </trkpt>
      <trkpt lat="43.94593" lon="7.12523">
        <ele>423.79998779297</ele>
        <time>2022-03-19T13:21:44.000Z</time>
      </trkpt>
      <trkpt lat="43.94593" lon="7.12523">
        <ele>424.39999389648</ele>
        <time>2022-03-19T13:21:47.000Z</time>
      </trkpt>
      <trkpt lat="43.94593" lon="7.12523">
        <ele>424</ele>
        <time>2022-03-19T13:21:52.000Z</time>
      </trkpt>
      <trkpt lat="43.94592" lon="7.12525">
        <ele>423.79998779297</ele>
        <time>2022-03-19T13:22:08.000Z</time>
      </trkpt>
      <trkpt lat="43.94591" lon="7.12526">
        <ele>424.20001220703</ele>
        <time>2022-03-19T13:22:20.000Z</time>
      </trkpt>
      <trkpt lat="43.94591" lon="7.12526">
        <ele>424</ele>
        <time>2022-03-19T13:22:50.000Z</time>
      </trkpt>
      <trkpt lat="43.94592" lon="7.12526">
        <ele>424</ele>
        <time>2022-03-19T13:23:11.000Z</time>
      </trkpt>
      <trkpt lat="43.94592" lon="7.12525">
        <ele>424</ele>
        <time>2022-03-19T13:23:21.000Z</time>
      </trkpt>
      <trkpt lat="43.94592" lon="7.12524">
        <ele>423.79998779297</ele>
        <time>2022-03-19T13:23:25.000Z</time>
      </trkpt>
      <trkpt lat="43.94592" lon="7.12524">
        <ele>424.20001220703</ele>
        <time>2022-03-19T13:23:32.000Z</time>
      </trkpt>
      <trkpt lat="43.94591" lon="7.12524">
        <ele>424</ele>
        <time>2022-03-19T13:23:44.000Z</time>
      </trkpt>
      <trkpt lat="43.94586" lon="7.12509">
        <ele>423.79998779297</ele>
        <time>2022-03-19T13:23:49.000Z</time>
      </trkpt>
      <trkpt lat="43.94578" lon="7.12494">
        <ele>423.20001220703</ele>
        <time>2022-03-19T13:23:52.000Z</time>
      </trkpt>
      <trkpt lat="43.94576" lon="7.12489">
        <ele>423</ele>
        <time>2022-03-19T13:23:53.000Z</time>
      </trkpt>
      <trkpt lat="43.94574" lon="7.12482">
        <ele>422.79998779297</ele>
        <time>2022-03-19T13:23:54.000Z</time>
      </trkpt>
      <trkpt lat="43.94571" lon="7.12461">
        <ele>422.39999389648</ele>
        <time>2022-03-19T13:23:57.000Z</time>
      </trkpt>
      <trkpt lat="43.94569" lon="7.12447">
        <ele>422.20001220703</ele>
        <time>2022-03-19T13:23:59.000Z</time>
      </trkpt>
      <trkpt lat="43.94569" lon="7.12432">
        <ele>421.79998779297</ele>
        <time>2022-03-19T13:24:01.000Z</time>
      </trkpt>
      <trkpt lat="43.94576" lon="7.12421">
        <ele>421.60000610352</ele>
        <time>2022-03-19T13:24:03.000Z</time>
      </trkpt>
      <trkpt lat="43.94583" lon="7.1241">
        <ele>421.39999389648</ele>
        <time>2022-03-19T13:24:05.000Z</time>
      </trkpt>
      <trkpt lat="43.94585" lon="7.12398">
        <ele>421.39999389648</ele>
        <time>2022-03-19T13:24:07.000Z</time>
      </trkpt>
      <trkpt lat="43.94586" lon="7.12376">
        <ele>422.39999389648</ele>
        <time>2022-03-19T13:24:11.000Z</time>
      </trkpt>
      <trkpt lat="43.94586" lon="7.12372">
        <ele>422.79998779297</ele>
        <time>2022-03-19T13:24:12.000Z</time>
      </trkpt>
      <trkpt lat="43.94583" lon="7.12364">
        <ele>423.39999389648</ele>
        <time>2022-03-19T13:24:14.000Z</time>
      </trkpt>
      <trkpt lat="43.94577" lon="7.12364">
        <ele>424</ele>
        <time>2022-03-19T13:24:16.000Z</time>
      </trkpt>
      <trkpt lat="43.94568" lon="7.12372">
        <ele>424.39999389648</ele>
        <time>2022-03-19T13:24:19.000Z</time>
      </trkpt>
      <trkpt lat="43.94565" lon="7.12375">
        <ele>424.60000610352</ele>
        <time>2022-03-19T13:24:20.000Z</time>
      </trkpt>
      <trkpt lat="43.94562" lon="7.12378">
        <ele>424.79998779297</ele>
        <time>2022-03-19T13:24:21.000Z</time>
      </trkpt>
      <trkpt lat="43.94548" lon="7.12387">
        <ele>425.39999389648</ele>
        <time>2022-03-19T13:24:25.000Z</time>
      </trkpt>
      <trkpt lat="43.94544" lon="7.1239">
        <ele>425.60000610352</ele>
        <time>2022-03-19T13:24:26.000Z</time>
      </trkpt>
      <trkpt lat="43.94532" lon="7.12403">
        <ele>427</ele>
        <time>2022-03-19T13:24:30.000Z</time>
      </trkpt>
      <trkpt lat="43.94528" lon="7.12412">
        <ele>427.39999389648</ele>
        <time>2022-03-19T13:24:32.000Z</time>
      </trkpt>
      <trkpt lat="43.94527" lon="7.12422">
        <ele>428</ele>
        <time>2022-03-19T13:24:34.000Z</time>
      </trkpt>
      <trkpt lat="43.94527" lon="7.12429">
        <ele>428.39999389648</ele>
        <time>2022-03-19T13:24:35.000Z</time>
      </trkpt>
      <trkpt lat="43.94527" lon="7.12434">
        <ele>428.60000610352</ele>
        <time>2022-03-19T13:24:36.000Z</time>
      </trkpt>
      <trkpt lat="43.94528" lon="7.12445">
        <ele>429.20001220703</ele>
        <time>2022-03-19T13:24:38.000Z</time>
      </trkpt>
      <trkpt lat="43.94524" lon="7.12471">
        <ele>430.39999389648</ele>
        <time>2022-03-19T13:24:43.000Z</time>
      </trkpt>
      <trkpt lat="43.94519" lon="7.12485">
        <ele>431.60000610352</ele>
        <time>2022-03-19T13:24:46.000Z</time>
      </trkpt>
      <trkpt lat="43.94516" lon="7.12499">
        <ele>432.60000610352</ele>
        <time>2022-03-19T13:24:49.000Z</time>
      </trkpt>
      <trkpt lat="43.94516" lon="7.12518">
        <ele>433.79998779297</ele>
        <time>2022-03-19T13:24:53.000Z</time>
      </trkpt>
      <trkpt lat="43.94515" lon="7.12539">
        <ele>434.60000610352</ele>
        <time>2022-03-19T13:24:57.000Z</time>
      </trkpt>
      <trkpt lat="43.94514" lon="7.12548">
        <ele>434.79998779297</ele>
        <time>2022-03-19T13:24:59.000Z</time>
      </trkpt>
      <trkpt lat="43.9451" lon="7.12564">
        <ele>435.79998779297</ele>
        <time>2022-03-19T13:25:03.000Z</time>
      </trkpt>
      <trkpt lat="43.94507" lon="7.12567">
        <ele>436.20001220703</ele>
        <time>2022-03-19T13:25:04.000Z</time>
      </trkpt>
      <trkpt lat="43.94496" lon="7.1257">
        <ele>437.20001220703</ele>
        <time>2022-03-19T13:25:08.000Z</time>
      </trkpt>
      <trkpt lat="43.94485" lon="7.12569">
        <ele>438.39999389648</ele>
        <time>2022-03-19T13:25:12.000Z</time>
      </trkpt>
      <trkpt lat="43.94473" lon="7.12569">
        <ele>439.39999389648</ele>
        <time>2022-03-19T13:25:16.000Z</time>
      </trkpt>
      <trkpt lat="43.9447" lon="7.12569">
        <ele>439.60000610352</ele>
        <time>2022-03-19T13:25:17.000Z</time>
      </trkpt>
      <trkpt lat="43.94453" lon="7.12574">
        <ele>440.60000610352</ele>
        <time>2022-03-19T13:25:23.000Z</time>
      </trkpt>
      <trkpt lat="43.94444" lon="7.12577">
        <ele>441.60000610352</ele>
        <time>2022-03-19T13:25:26.000Z</time>
      </trkpt>
      <trkpt lat="43.94441" lon="7.12578">
        <ele>441.79998779297</ele>
        <time>2022-03-19T13:25:27.000Z</time>
      </trkpt>
      <trkpt lat="43.94425" lon="7.12585">
        <ele>442.79998779297</ele>
        <time>2022-03-19T13:25:33.000Z</time>
      </trkpt>
      <trkpt lat="43.9442" lon="7.12587">
        <ele>443.20001220703</ele>
        <time>2022-03-19T13:25:35.000Z</time>
      </trkpt>
      <trkpt lat="43.94409" lon="7.12588">
        <ele>443.79998779297</ele>
        <time>2022-03-19T13:25:39.000Z</time>
      </trkpt>
      <trkpt lat="43.94404" lon="7.12585">
        <ele>444.39999389648</ele>
        <time>2022-03-19T13:25:41.000Z</time>
      </trkpt>
      <trkpt lat="43.94398" lon="7.12578">
        <ele>445</ele>
        <time>2022-03-19T13:25:44.000Z</time>
      </trkpt>
      <trkpt lat="43.94394" lon="7.12574">
        <ele>445.60000610352</ele>
        <time>2022-03-19T13:25:46.000Z</time>
      </trkpt>
      <trkpt lat="43.94388" lon="7.12568">
        <ele>446.20001220703</ele>
        <time>2022-03-19T13:25:49.000Z</time>
      </trkpt>
      <trkpt lat="43.94376" lon="7.12557">
        <ele>447.20001220703</ele>
        <time>2022-03-19T13:25:55.000Z</time>
      </trkpt>
      <trkpt lat="43.94373" lon="7.12556">
        <ele>447.39999389648</ele>
        <time>2022-03-19T13:25:56.000Z</time>
      </trkpt>
      <trkpt lat="43.94362" lon="7.12556">
        <ele>448.60000610352</ele>
        <time>2022-03-19T13:26:00.000Z</time>
      </trkpt>
      <trkpt lat="43.94357" lon="7.12558">
        <ele>448.79998779297</ele>
        <time>2022-03-19T13:26:02.000Z</time>
      </trkpt>
      <trkpt lat="43.94344" lon="7.12566">
        <ele>449.79998779297</ele>
        <time>2022-03-19T13:26:07.000Z</time>
      </trkpt>
      <trkpt lat="43.94335" lon="7.12574">
        <ele>450.39999389648</ele>
        <time>2022-03-19T13:26:11.000Z</time>
      </trkpt>
      <trkpt lat="43.94331" lon="7.12578">
        <ele>450.79998779297</ele>
        <time>2022-03-19T13:26:13.000Z</time>
      </trkpt>
      <trkpt lat="43.94315" lon="7.12583">
        <ele>452</ele>
        <time>2022-03-19T13:26:19.000Z</time>
      </trkpt>
      <trkpt lat="43.94302" lon="7.12579">
        <ele>453.20001220703</ele>
        <time>2022-03-19T13:26:24.000Z</time>
      </trkpt>
      <trkpt lat="43.94295" lon="7.12576">
        <ele>453.79998779297</ele>
        <time>2022-03-19T13:26:27.000Z</time>
      </trkpt>
      <trkpt lat="43.9429" lon="7.12575">
        <ele>454.20001220703</ele>
        <time>2022-03-19T13:26:29.000Z</time>
      </trkpt>
      <trkpt lat="43.94275" lon="7.12571">
        <ele>455.39999389648</ele>
        <time>2022-03-19T13:26:35.000Z</time>
      </trkpt>
      <trkpt lat="43.9427" lon="7.12571">
        <ele>455.79998779297</ele>
        <time>2022-03-19T13:26:37.000Z</time>
      </trkpt>
      <trkpt lat="43.94264" lon="7.1257">
        <ele>456.39999389648</ele>
        <time>2022-03-19T13:26:40.000Z</time>
      </trkpt>
      <trkpt lat="43.94256" lon="7.12567">
        <ele>457.20001220703</ele>
        <time>2022-03-19T13:26:44.000Z</time>
      </trkpt>
      <trkpt lat="43.94255" lon="7.12564">
        <ele>457.39999389648</ele>
        <time>2022-03-19T13:26:45.000Z</time>
      </trkpt>
      <trkpt lat="43.94258" lon="7.1256">
        <ele>458</ele>
        <time>2022-03-19T13:26:47.000Z</time>
      </trkpt>
      <trkpt lat="43.94262" lon="7.12557">
        <ele>458.39999389648</ele>
        <time>2022-03-19T13:26:49.000Z</time>
      </trkpt>
      <trkpt lat="43.94264" lon="7.12557">
        <ele>458.39999389648</ele>
        <time>2022-03-19T13:26:50.000Z</time>
      </trkpt>
      <trkpt lat="43.9427" lon="7.12554">
        <ele>458.60000610352</ele>
        <time>2022-03-19T13:26:54.000Z</time>
      </trkpt>
      <trkpt lat="43.94271" lon="7.12553">
        <ele>459</ele>
        <time>2022-03-19T13:26:59.000Z</time>
      </trkpt>
      <trkpt lat="43.9427" lon="7.12554">
        <ele>459.39999389648</ele>
        <time>2022-03-19T13:27:07.000Z</time>
      </trkpt>
      <trkpt lat="43.9427" lon="7.1255">
        <ele>459</ele>
        <time>2022-03-19T13:27:13.000Z</time>
      </trkpt>
      <trkpt lat="43.94268" lon="7.12547">
        <ele>459</ele>
        <time>2022-03-19T13:27:20.000Z</time>
      </trkpt>
      <trkpt lat="43.94268" lon="7.12546">
        <ele>458.60000610352</ele>
        <time>2022-03-19T13:27:27.000Z</time>
      </trkpt>
      <trkpt lat="43.94268" lon="7.12546">
        <ele>458.60000610352</ele>
        <time>2022-03-19T13:27:35.000Z</time>
      </trkpt>
      <trkpt lat="43.94268" lon="7.12546">
        <ele>459.20001220703</ele>
        <time>2022-03-19T13:27:43.000Z</time>
      </trkpt>
      <trkpt lat="43.94268" lon="7.12547">
        <ele>458.79998779297</ele>
        <time>2022-03-19T13:27:50.000Z</time>
      </trkpt>
      <trkpt lat="43.94269" lon="7.12547">
        <ele>458.39999389648</ele>
        <time>2022-03-19T13:27:58.000Z</time>
      </trkpt>
      <trkpt lat="43.94269" lon="7.12546">
        <ele>458.20001220703</ele>
        <time>2022-03-19T13:28:07.000Z</time>
      </trkpt>
      <trkpt lat="43.9427" lon="7.12546">
        <ele>458.39999389648</ele>
        <time>2022-03-19T13:28:14.000Z</time>
      </trkpt>
      <trkpt lat="43.9427" lon="7.12548">
        <ele>458.39999389648</ele>
        <time>2022-03-19T13:28:20.000Z</time>
      </trkpt>
      <trkpt lat="43.94271" lon="7.12548">
        <ele>458.39999389648</ele>
        <time>2022-03-19T13:28:28.000Z</time>
      </trkpt>
      <trkpt lat="43.94271" lon="7.12548">
        <ele>458.39999389648</ele>
        <time>2022-03-19T13:28:42.000Z</time>
      </trkpt>
      <trkpt lat="43.94271" lon="7.12548">
        <ele>458.39999389648</ele>
        <time>2022-03-19T13:29:01.000Z</time>
      </trkpt>
      <trkpt lat="43.94269" lon="7.12547">
        <ele>458.39999389648</ele>
        <time>2022-03-19T13:29:15.000Z</time>
      </trkpt>
      <trkpt lat="43.94267" lon="7.12547">
        <ele>458.20001220703</ele>
        <time>2022-03-19T13:29:33.000Z</time>
      </trkpt>
      <trkpt lat="43.94265" lon="7.12546">
        <ele>458.20001220703</ele>
        <time>2022-03-19T13:29:57.000Z</time>
      </trkpt>
      <trkpt lat="43.94264" lon="7.12546">
        <ele>458</ele>
        <time>2022-03-19T13:30:18.000Z</time>
      </trkpt>
      <trkpt lat="43.94265" lon="7.12546">
        <ele>458</ele>
        <time>2022-03-19T13:30:37.000Z</time>
      </trkpt>
      <trkpt lat="43.94265" lon="7.12547">
        <ele>458</ele>
        <time>2022-03-19T13:30:59.000Z</time>
      </trkpt>
      <trkpt lat="43.94265" lon="7.12545">
        <ele>458</ele>
        <time>2022-03-19T13:31:16.000Z</time>
      </trkpt>
      <trkpt lat="43.94266" lon="7.12544">
        <ele>457.79998779297</ele>
        <time>2022-03-19T13:31:22.000Z</time>
      </trkpt>
      <trkpt lat="43.94266" lon="7.12547">
        <ele>457.79998779297</ele>
        <time>2022-03-19T13:31:37.000Z</time>
      </trkpt>
      <trkpt lat="43.94266" lon="7.12549">
        <ele>457.79998779297</ele>
        <time>2022-03-19T13:31:43.000Z</time>
      </trkpt>
      <trkpt lat="43.94266" lon="7.1255">
        <ele>457.60000610352</ele>
        <time>2022-03-19T13:32:00.000Z</time>
      </trkpt>
      <trkpt lat="43.94266" lon="7.12552">
        <ele>457.60000610352</ele>
        <time>2022-03-19T13:32:16.000Z</time>
      </trkpt>
      <trkpt lat="43.94265" lon="7.12554">
        <ele>457.79998779297</ele>
        <time>2022-03-19T13:32:29.000Z</time>
      </trkpt>
      <trkpt lat="43.94265" lon="7.12555">
        <ele>457.79998779297</ele>
        <time>2022-03-19T13:32:49.000Z</time>
      </trkpt>
      <trkpt lat="43.94265" lon="7.12554">
        <ele>457.79998779297</ele>
        <time>2022-03-19T13:33:13.000Z</time>
      </trkpt>
      <trkpt lat="43.94265" lon="7.12554">
        <ele>457.79998779297</ele>
        <time>2022-03-19T13:33:25.000Z</time>
      </trkpt>
      <trkpt lat="43.94264" lon="7.12552">
        <ele>457.60000610352</ele>
        <time>2022-03-19T13:33:37.000Z</time>
      </trkpt>
      <trkpt lat="43.94264" lon="7.12552">
        <ele>457.60000610352</ele>
        <time>2022-03-19T13:33:52.000Z</time>
      </trkpt>
      <trkpt lat="43.94264" lon="7.12551">
        <ele>457.60000610352</ele>
        <time>2022-03-19T13:34:12.000Z</time>
      </trkpt>
      <trkpt lat="43.94263" lon="7.12551">
        <ele>457.60000610352</ele>
        <time>2022-03-19T13:34:22.000Z</time>
      </trkpt>
      <trkpt lat="43.94264" lon="7.12551">
        <ele>457.79998779297</ele>
        <time>2022-03-19T13:34:29.000Z</time>
      </trkpt>
      <trkpt lat="43.94265" lon="7.12551">
        <ele>457.60000610352</ele>
        <time>2022-03-19T13:34:48.000Z</time>
      </trkpt>
      <trkpt lat="43.94265" lon="7.12551">
        <ele>457.39999389648</ele>
        <time>2022-03-19T13:34:55.000Z</time>
      </trkpt>
      <trkpt lat="43.94266" lon="7.12552">
        <ele>457.39999389648</ele>
        <time>2022-03-19T13:35:06.000Z</time>
      </trkpt>
      <trkpt lat="43.94266" lon="7.12551">
        <ele>457.39999389648</ele>
        <time>2022-03-19T13:35:20.000Z</time>
      </trkpt>
      <trkpt lat="43.94266" lon="7.12551">
        <ele>457.60000610352</ele>
        <time>2022-03-19T13:35:28.000Z</time>
      </trkpt>
      <trkpt lat="43.94266" lon="7.12551">
        <ele>457.79998779297</ele>
        <time>2022-03-19T13:35:35.000Z</time>
      </trkpt>
      <trkpt lat="43.94266" lon="7.1255">
        <ele>457.39999389648</ele>
        <time>2022-03-19T13:35:43.000Z</time>
      </trkpt>
      <trkpt lat="43.94265" lon="7.12551">
        <ele>457.39999389648</ele>
        <time>2022-03-19T13:35:49.000Z</time>
      </trkpt>
      <trkpt lat="43.94264" lon="7.12551">
        <ele>457.60000610352</ele>
        <time>2022-03-19T13:35:56.000Z</time>
      </trkpt>
      <trkpt lat="43.94263" lon="7.12551">
        <ele>457.39999389648</ele>
        <time>2022-03-19T13:36:10.000Z</time>
      </trkpt>
      <trkpt lat="43.94262" lon="7.12551">
        <ele>457.20001220703</ele>
        <time>2022-03-19T13:36:24.000Z</time>
      </trkpt>
      <trkpt lat="43.94263" lon="7.12551">
        <ele>457.20001220703</ele>
        <time>2022-03-19T13:36:33.000Z</time>
      </trkpt>
      <trkpt lat="43.94263" lon="7.1255">
        <ele>457</ele>
        <time>2022-03-19T13:36:48.000Z</time>
      </trkpt>
      <trkpt lat="43.94264" lon="7.12549">
        <ele>457.20001220703</ele>
        <time>2022-03-19T13:36:56.000Z</time>
      </trkpt>
      <trkpt lat="43.94264" lon="7.12549">
        <ele>458</ele>
        <time>2022-03-19T13:37:11.000Z</time>
      </trkpt>
      <trkpt lat="43.94264" lon="7.12549">
        <ele>458</ele>
        <time>2022-03-19T13:37:22.000Z</time>
      </trkpt>
      <trkpt lat="43.94264" lon="7.12548">
        <ele>457.79998779297</ele>
        <time>2022-03-19T13:37:30.000Z</time>
      </trkpt>
      <trkpt lat="43.94264" lon="7.12547">
        <ele>458</ele>
        <time>2022-03-19T13:37:36.000Z</time>
      </trkpt>
      <trkpt lat="43.94263" lon="7.12548">
        <ele>457.20001220703</ele>
        <time>2022-03-19T13:37:51.000Z</time>
      </trkpt>
      <trkpt lat="43.94263" lon="7.12548">
        <ele>457.20001220703</ele>
        <time>2022-03-19T13:38:08.000Z</time>
      </trkpt>
      <trkpt lat="43.94264" lon="7.12549">
        <ele>457.20001220703</ele>
        <time>2022-03-19T13:38:30.000Z</time>
      </trkpt>
      <trkpt lat="43.94265" lon="7.1255">
        <ele>457.20001220703</ele>
        <time>2022-03-19T13:38:55.000Z</time>
      </trkpt>
      <trkpt lat="43.94265" lon="7.1255">
        <ele>457.60000610352</ele>
        <time>2022-03-19T13:39:05.000Z</time>
      </trkpt>
      <trkpt lat="43.94265" lon="7.1255">
        <ele>457</ele>
        <time>2022-03-19T13:39:11.000Z</time>
      </trkpt>
      <trkpt lat="43.94265" lon="7.1255">
        <ele>457</ele>
        <time>2022-03-19T13:39:21.000Z</time>
      </trkpt>
      <trkpt lat="43.94266" lon="7.1255">
        <ele>457</ele>
        <time>2022-03-19T13:39:31.000Z</time>
      </trkpt>
      <trkpt lat="43.94266" lon="7.1255">
        <ele>457</ele>
        <time>2022-03-19T13:39:41.000Z</time>
      </trkpt>
      <trkpt lat="43.94263" lon="7.1255">
        <ele>457.20001220703</ele>
        <time>2022-03-19T13:40:00.000Z</time>
      </trkpt>
      <trkpt lat="43.94263" lon="7.1255">
        <ele>457.20001220703</ele>
        <time>2022-03-19T13:40:12.000Z</time>
      </trkpt>
      <trkpt lat="43.94263" lon="7.1255">
        <ele>457.20001220703</ele>
        <time>2022-03-19T13:40:27.000Z</time>
      </trkpt>
      <trkpt lat="43.94263" lon="7.12551">
        <ele>457.39999389648</ele>
        <time>2022-03-19T13:40:43.000Z</time>
      </trkpt>
      <trkpt lat="43.94262" lon="7.12553">
        <ele>457.39999389648</ele>
        <time>2022-03-19T13:41:03.000Z</time>
      </trkpt>
      <trkpt lat="43.94261" lon="7.12554">
        <ele>457.20001220703</ele>
        <time>2022-03-19T13:41:21.000Z</time>
      </trkpt>
      <trkpt lat="43.94262" lon="7.12553">
        <ele>457.39999389648</ele>
        <time>2022-03-19T13:41:30.000Z</time>
      </trkpt>
      <trkpt lat="43.94262" lon="7.12552">
        <ele>457.60000610352</ele>
        <time>2022-03-19T13:41:38.000Z</time>
      </trkpt>
      <trkpt lat="43.94263" lon="7.1255">
        <ele>457.39999389648</ele>
        <time>2022-03-19T13:41:59.000Z</time>
      </trkpt>
      <trkpt lat="43.94263" lon="7.1255">
        <ele>457.20001220703</ele>
        <time>2022-03-19T13:42:11.000Z</time>
      </trkpt>
      <trkpt lat="43.94264" lon="7.12551">
        <ele>457.20001220703</ele>
        <time>2022-03-19T13:42:23.000Z</time>
      </trkpt>
      <trkpt lat="43.94264" lon="7.1255">
        <ele>457.60000610352</ele>
        <time>2022-03-19T13:42:35.000Z</time>
      </trkpt>
      <trkpt lat="43.94264" lon="7.1255">
        <ele>457.39999389648</ele>
        <time>2022-03-19T13:42:43.000Z</time>
      </trkpt>
      <trkpt lat="43.94264" lon="7.1255">
        <ele>457.20001220703</ele>
        <time>2022-03-19T13:42:52.000Z</time>
      </trkpt>
      <trkpt lat="43.94263" lon="7.1255">
        <ele>457.20001220703</ele>
        <time>2022-03-19T13:43:02.000Z</time>
      </trkpt>
      <trkpt lat="43.94263" lon="7.12549">
        <ele>457.39999389648</ele>
        <time>2022-03-19T13:43:11.000Z</time>
      </trkpt>
      <trkpt lat="43.94262" lon="7.12549">
        <ele>457.60000610352</ele>
        <time>2022-03-19T13:43:23.000Z</time>
      </trkpt>
      <trkpt lat="43.94262" lon="7.12548">
        <ele>457.60000610352</ele>
        <time>2022-03-19T13:43:41.000Z</time>
      </trkpt>
      <trkpt lat="43.94262" lon="7.12548">
        <ele>457.79998779297</ele>
        <time>2022-03-19T13:43:51.000Z</time>
      </trkpt>
      <trkpt lat="43.94261" lon="7.12547">
        <ele>457.79998779297</ele>
        <time>2022-03-19T13:43:57.000Z</time>
      </trkpt>
      <trkpt lat="43.94261" lon="7.12547">
        <ele>458</ele>
        <time>2022-03-19T13:44:00.000Z</time>
      </trkpt>
      <trkpt lat="43.94262" lon="7.12547">
        <ele>458.39999389648</ele>
        <time>2022-03-19T13:44:14.000Z</time>
      </trkpt>
      <trkpt lat="43.94263" lon="7.12547">
        <ele>458.20001220703</ele>
        <time>2022-03-19T13:44:26.000Z</time>
      </trkpt>
      <trkpt lat="43.94265" lon="7.12547">
        <ele>458.39999389648</ele>
        <time>2022-03-19T13:44:39.000Z</time>
      </trkpt>
      <trkpt lat="43.94265" lon="7.12547">
        <ele>458.20001220703</ele>
        <time>2022-03-19T13:44:47.000Z</time>
      </trkpt>
      <trkpt lat="43.94266" lon="7.12548">
        <ele>458.39999389648</ele>
        <time>2022-03-19T13:44:55.000Z</time>
      </trkpt>
      <trkpt lat="43.94267" lon="7.12548">
        <ele>457.79998779297</ele>
        <time>2022-03-19T13:45:05.000Z</time>
      </trkpt>
      <trkpt lat="43.94268" lon="7.12549">
        <ele>457.79998779297</ele>
        <time>2022-03-19T13:45:09.000Z</time>
      </trkpt>
      <trkpt lat="43.94268" lon="7.12549">
        <ele>457.79998779297</ele>
        <time>2022-03-19T13:45:11.000Z</time>
      </trkpt>
      <trkpt lat="43.94268" lon="7.12552">
        <ele>458.20001220703</ele>
        <time>2022-03-19T13:45:14.000Z</time>
      </trkpt>
      <trkpt lat="43.94268" lon="7.12551">
        <ele>458.20001220703</ele>
        <time>2022-03-19T13:45:16.000Z</time>
      </trkpt>
      <trkpt lat="43.94267" lon="7.12549">
        <ele>458.20001220703</ele>
        <time>2022-03-19T13:45:22.000Z</time>
      </trkpt>
      <trkpt lat="43.94268" lon="7.12548">
        <ele>458.60000610352</ele>
        <time>2022-03-19T13:45:30.000Z</time>
      </trkpt>
      <trkpt lat="43.94269" lon="7.12552">
        <ele>458.20001220703</ele>
        <time>2022-03-19T13:45:35.000Z</time>
      </trkpt>
      <trkpt lat="43.94269" lon="7.12552">
        <ele>458.60000610352</ele>
        <time>2022-03-19T13:45:40.000Z</time>
      </trkpt>
      <trkpt lat="43.9427" lon="7.12551">
        <ele>458.79998779297</ele>
        <time>2022-03-19T13:45:46.000Z</time>
      </trkpt>
      <trkpt lat="43.94268" lon="7.1255">
        <ele>458.79998779297</ele>
        <time>2022-03-19T13:45:58.000Z</time>
      </trkpt>
      <trkpt lat="43.9427" lon="7.12547">
        <ele>458.79998779297</ele>
        <time>2022-03-19T13:46:09.000Z</time>
      </trkpt>
      <trkpt lat="43.94276" lon="7.12543">
        <ele>459</ele>
        <time>2022-03-19T13:46:14.000Z</time>
      </trkpt>
      <trkpt lat="43.94284" lon="7.12545">
        <ele>459.39999389648</ele>
        <time>2022-03-19T13:46:19.000Z</time>
      </trkpt>
      <trkpt lat="43.94285" lon="7.12544">
        <ele>459.60000610352</ele>
        <time>2022-03-19T13:46:20.000Z</time>
      </trkpt>
      <trkpt lat="43.94293" lon="7.12545">
        <ele>460.39999389648</ele>
        <time>2022-03-19T13:46:25.000Z</time>
      </trkpt>
      <trkpt lat="43.94295" lon="7.12545">
        <ele>460.60000610352</ele>
        <time>2022-03-19T13:46:26.000Z</time>
      </trkpt>
      <trkpt lat="43.94304" lon="7.12547">
        <ele>461.79998779297</ele>
        <time>2022-03-19T13:46:31.000Z</time>
      </trkpt>
      <trkpt lat="43.94305" lon="7.12547">
        <ele>462</ele>
        <time>2022-03-19T13:46:32.000Z</time>
      </trkpt>
      <trkpt lat="43.94312" lon="7.12549">
        <ele>463</ele>
        <time>2022-03-19T13:46:36.000Z</time>
      </trkpt>
      <trkpt lat="43.94317" lon="7.12547">
        <ele>463.39999389648</ele>
        <time>2022-03-19T13:46:39.000Z</time>
      </trkpt>
      <trkpt lat="43.94321" lon="7.12546">
        <ele>464</ele>
        <time>2022-03-19T13:46:42.000Z</time>
      </trkpt>
      <trkpt lat="43.94324" lon="7.12542">
        <ele>464.79998779297</ele>
        <time>2022-03-19T13:46:45.000Z</time>
      </trkpt>
      <trkpt lat="43.94325" lon="7.1254">
        <ele>465</ele>
        <time>2022-03-19T13:46:46.000Z</time>
      </trkpt>
      <trkpt lat="43.94328" lon="7.12533">
        <ele>466.20001220703</ele>
        <time>2022-03-19T13:46:51.000Z</time>
      </trkpt>
      <trkpt lat="43.94328" lon="7.1253">
        <ele>466.60000610352</ele>
        <time>2022-03-19T13:46:53.000Z</time>
      </trkpt>
      <trkpt lat="43.94329" lon="7.12524">
        <ele>467.39999389648</ele>
        <time>2022-03-19T13:46:56.000Z</time>
      </trkpt>
      <trkpt lat="43.94332" lon="7.12518">
        <ele>468.39999389648</ele>
        <time>2022-03-19T13:47:00.000Z</time>
      </trkpt>
      <trkpt lat="43.94333" lon="7.12513">
        <ele>469.79998779297</ele>
        <time>2022-03-19T13:47:03.000Z</time>
      </trkpt>
      <trkpt lat="43.94335" lon="7.12508">
        <ele>471</ele>
        <time>2022-03-19T13:47:07.000Z</time>
      </trkpt>
      <trkpt lat="43.94338" lon="7.125">
        <ele>472</ele>
        <time>2022-03-19T13:47:12.000Z</time>
      </trkpt>
      <trkpt lat="43.94339" lon="7.12497">
        <ele>472.20001220703</ele>
        <time>2022-03-19T13:47:14.000Z</time>
      </trkpt>
      <trkpt lat="43.94343" lon="7.12491">
        <ele>473.20001220703</ele>
        <time>2022-03-19T13:47:19.000Z</time>
      </trkpt>
      <trkpt lat="43.94346" lon="7.12486">
        <ele>473.79998779297</ele>
        <time>2022-03-19T13:47:22.000Z</time>
      </trkpt>
      <trkpt lat="43.94348" lon="7.12483">
        <ele>474.20001220703</ele>
        <time>2022-03-19T13:47:24.000Z</time>
      </trkpt>
      <trkpt lat="43.94356" lon="7.12474">
        <ele>474.79998779297</ele>
        <time>2022-03-19T13:47:31.000Z</time>
      </trkpt>
      <trkpt lat="43.94361" lon="7.12466">
        <ele>475.39999389648</ele>
        <time>2022-03-19T13:47:36.000Z</time>
      </trkpt>
      <trkpt lat="43.94362" lon="7.12465">
        <ele>475.60000610352</ele>
        <time>2022-03-19T13:47:37.000Z</time>
      </trkpt>
      <trkpt lat="43.94365" lon="7.12462">
        <ele>476.60000610352</ele>
        <time>2022-03-19T13:47:40.000Z</time>
      </trkpt>
      <trkpt lat="43.94369" lon="7.12458">
        <ele>477.79998779297</ele>
        <time>2022-03-19T13:47:44.000Z</time>
      </trkpt>
      <trkpt lat="43.94373" lon="7.12454">
        <ele>478.79998779297</ele>
        <time>2022-03-19T13:47:49.000Z</time>
      </trkpt>
      <trkpt lat="43.94377" lon="7.12451">
        <ele>479.60000610352</ele>
        <time>2022-03-19T13:47:53.000Z</time>
      </trkpt>
      <trkpt lat="43.94378" lon="7.1245">
        <ele>480</ele>
        <time>2022-03-19T13:47:54.000Z</time>
      </trkpt>
      <trkpt lat="43.94382" lon="7.12449">
        <ele>481</ele>
        <time>2022-03-19T13:47:58.000Z</time>
      </trkpt>
      <trkpt lat="43.94389" lon="7.12447">
        <ele>481.79998779297</ele>
        <time>2022-03-19T13:48:03.000Z</time>
      </trkpt>
      <trkpt lat="43.9439" lon="7.12447">
        <ele>482</ele>
        <time>2022-03-19T13:48:04.000Z</time>
      </trkpt>
      <trkpt lat="43.944" lon="7.12444">
        <ele>483.39999389648</ele>
        <time>2022-03-19T13:48:12.000Z</time>
      </trkpt>
      <trkpt lat="43.94405" lon="7.12443">
        <ele>484.60000610352</ele>
        <time>2022-03-19T13:48:16.000Z</time>
      </trkpt>
      <trkpt lat="43.94408" lon="7.12443">
        <ele>485.39999389648</ele>
        <time>2022-03-19T13:48:19.000Z</time>
      </trkpt>
      <trkpt lat="43.9441" lon="7.12442">
        <ele>485.79998779297</ele>
        <time>2022-03-19T13:48:21.000Z</time>
      </trkpt>
      <trkpt lat="43.94415" lon="7.12436">
        <ele>486.60000610352</ele>
        <time>2022-03-19T13:48:26.000Z</time>
      </trkpt>
      <trkpt lat="43.94417" lon="7.12433">
        <ele>487</ele>
        <time>2022-03-19T13:48:28.000Z</time>
      </trkpt>
      <trkpt lat="43.9442" lon="7.12427">
        <ele>488.20001220703</ele>
        <time>2022-03-19T13:48:33.000Z</time>
      </trkpt>
      <trkpt lat="43.94422" lon="7.12421">
        <ele>489.60000610352</ele>
        <time>2022-03-19T13:48:37.000Z</time>
      </trkpt>
      <trkpt lat="43.94423" lon="7.12415">
        <ele>490.39999389648</ele>
        <time>2022-03-19T13:48:41.000Z</time>
      </trkpt>
      <trkpt lat="43.94423" lon="7.12414">
        <ele>490.60000610352</ele>
        <time>2022-03-19T13:48:42.000Z</time>
      </trkpt>
      <trkpt lat="43.94422" lon="7.12413">
        <ele>490.79998779297</ele>
        <time>2022-03-19T13:48:43.000Z</time>
      </trkpt>
      <trkpt lat="43.94421" lon="7.12406">
        <ele>491.79998779297</ele>
        <time>2022-03-19T13:48:48.000Z</time>
      </trkpt>
      <trkpt lat="43.94419" lon="7.12399">
        <ele>493</ele>
        <time>2022-03-19T13:48:53.000Z</time>
      </trkpt>
      <trkpt lat="43.94415" lon="7.12396">
        <ele>493.60000610352</ele>
        <time>2022-03-19T13:48:57.000Z</time>
      </trkpt>
      <trkpt lat="43.94413" lon="7.12394">
        <ele>494</ele>
        <time>2022-03-19T13:48:59.000Z</time>
      </trkpt>
      <trkpt lat="43.94412" lon="7.12389">
        <ele>495</ele>
        <time>2022-03-19T13:49:02.000Z</time>
      </trkpt>
      <trkpt lat="43.94411" lon="7.12388">
        <ele>495.20001220703</ele>
        <time>2022-03-19T13:49:03.000Z</time>
      </trkpt>
      <trkpt lat="43.94409" lon="7.12384">
        <ele>496.20001220703</ele>
        <time>2022-03-19T13:49:06.000Z</time>
      </trkpt>
      <trkpt lat="43.94408" lon="7.12382">
        <ele>497</ele>
        <time>2022-03-19T13:49:08.000Z</time>
      </trkpt>
      <trkpt lat="43.94407" lon="7.1238">
        <ele>497.60000610352</ele>
        <time>2022-03-19T13:49:10.000Z</time>
      </trkpt>
      <trkpt lat="43.94407" lon="7.1238">
        <ele>498.20001220703</ele>
        <time>2022-03-19T13:49:14.000Z</time>
      </trkpt>
      <trkpt lat="43.94406" lon="7.12375">
        <ele>498.39999389648</ele>
        <time>2022-03-19T13:49:21.000Z</time>
      </trkpt>
      <trkpt lat="43.94405" lon="7.12374">
        <ele>498.60000610352</ele>
        <time>2022-03-19T13:49:22.000Z</time>
      </trkpt>
      <trkpt lat="43.94403" lon="7.12369">
        <ele>499.60000610352</ele>
        <time>2022-03-19T13:49:27.000Z</time>
      </trkpt>
      <trkpt lat="43.94402" lon="7.12366">
        <ele>500.39999389648</ele>
        <time>2022-03-19T13:49:30.000Z</time>
      </trkpt>
      <trkpt lat="43.94401" lon="7.12364">
        <ele>500.79998779297</ele>
        <time>2022-03-19T13:49:32.000Z</time>
      </trkpt>
      <trkpt lat="43.94401" lon="7.12359">
        <ele>501.39999389648</ele>
        <time>2022-03-19T13:49:36.000Z</time>
      </trkpt>
      <trkpt lat="43.94401" lon="7.12358">
        <ele>501.60000610352</ele>
        <time>2022-03-19T13:49:37.000Z</time>
      </trkpt>
      <trkpt lat="43.944" lon="7.12355">
        <ele>502</ele>
        <time>2022-03-19T13:49:40.000Z</time>
      </trkpt>
      <trkpt lat="43.94398" lon="7.12351">
        <ele>503</ele>
        <time>2022-03-19T13:49:44.000Z</time>
      </trkpt>
      <trkpt lat="43.94398" lon="7.12343">
        <ele>504</ele>
        <time>2022-03-19T13:49:51.000Z</time>
      </trkpt>
      <trkpt lat="43.94398" lon="7.12342">
        <ele>504.20001220703</ele>
        <time>2022-03-19T13:49:52.000Z</time>
      </trkpt>
      <trkpt lat="43.94399" lon="7.12335">
        <ele>505.39999389648</ele>
        <time>2022-03-19T13:49:59.000Z</time>
      </trkpt>
      <trkpt lat="43.94401" lon="7.12335">
        <ele>506</ele>
        <time>2022-03-19T13:50:02.000Z</time>
      </trkpt>
      <trkpt lat="43.94402" lon="7.12337">
        <ele>506.60000610352</ele>
        <time>2022-03-19T13:50:05.000Z</time>
      </trkpt>
      <trkpt lat="43.94403" lon="7.1234">
        <ele>507.20001220703</ele>
        <time>2022-03-19T13:50:08.000Z</time>
      </trkpt>
      <trkpt lat="43.94404" lon="7.12342">
        <ele>507.60000610352</ele>
        <time>2022-03-19T13:50:11.000Z</time>
      </trkpt>
      <trkpt lat="43.94405" lon="7.12341">
        <ele>508.20001220703</ele>
        <time>2022-03-19T13:50:16.000Z</time>
      </trkpt>
      <trkpt lat="43.94405" lon="7.12338">
        <ele>508.60000610352</ele>
        <time>2022-03-19T13:50:20.000Z</time>
      </trkpt>
      <trkpt lat="43.94405" lon="7.12335">
        <ele>509.20001220703</ele>
        <time>2022-03-19T13:50:23.000Z</time>
      </trkpt>
      <trkpt lat="43.94405" lon="7.12334">
        <ele>509.60000610352</ele>
        <time>2022-03-19T13:50:26.000Z</time>
      </trkpt>
      <trkpt lat="43.94406" lon="7.12327">
        <ele>510.79998779297</ele>
        <time>2022-03-19T13:50:33.000Z</time>
      </trkpt>
      <trkpt lat="43.94407" lon="7.12325">
        <ele>511.60000610352</ele>
        <time>2022-03-19T13:50:36.000Z</time>
      </trkpt>
      <trkpt lat="43.94408" lon="7.12325">
        <ele>512</ele>
        <time>2022-03-19T13:50:38.000Z</time>
      </trkpt>
      <trkpt lat="43.94408" lon="7.12324">
        <ele>512</ele>
        <time>2022-03-19T13:50:39.000Z</time>
      </trkpt>
      <trkpt lat="43.94409" lon="7.12319">
        <ele>513</ele>
        <time>2022-03-19T13:50:44.000Z</time>
      </trkpt>
      <trkpt lat="43.9441" lon="7.12317">
        <ele>513.59997558594</ele>
        <time>2022-03-19T13:50:46.000Z</time>
      </trkpt>
      <trkpt lat="43.94411" lon="7.12314">
        <ele>514.20001220703</ele>
        <time>2022-03-19T13:50:50.000Z</time>
      </trkpt>
      <trkpt lat="43.94413" lon="7.1231">
        <ele>515</ele>
        <time>2022-03-19T13:50:54.000Z</time>
      </trkpt>
      <trkpt lat="43.94414" lon="7.12309">
        <ele>515.20001220703</ele>
        <time>2022-03-19T13:50:55.000Z</time>
      </trkpt>
      <trkpt lat="43.94414" lon="7.12306">
        <ele>515.59997558594</ele>
        <time>2022-03-19T13:50:58.000Z</time>
      </trkpt>
      <trkpt lat="43.94415" lon="7.12303">
        <ele>516.20001220703</ele>
        <time>2022-03-19T13:51:02.000Z</time>
      </trkpt>
      <trkpt lat="43.94415" lon="7.12302">
        <ele>516.40002441406</ele>
        <time>2022-03-19T13:51:03.000Z</time>
      </trkpt>
      <trkpt lat="43.94417" lon="7.12297">
        <ele>517.40002441406</ele>
        <time>2022-03-19T13:51:08.000Z</time>
      </trkpt>
      <trkpt lat="43.94418" lon="7.12295">
        <ele>517.79998779297</ele>
        <time>2022-03-19T13:51:10.000Z</time>
      </trkpt>
      <trkpt lat="43.9442" lon="7.12292">
        <ele>518.59997558594</ele>
        <time>2022-03-19T13:51:14.000Z</time>
      </trkpt>
      <trkpt lat="43.9442" lon="7.1229">
        <ele>519.59997558594</ele>
        <time>2022-03-19T13:51:18.000Z</time>
      </trkpt>
      <trkpt lat="43.94421" lon="7.12289">
        <ele>520</ele>
        <time>2022-03-19T13:51:19.000Z</time>
      </trkpt>
      <trkpt lat="43.94422" lon="7.12287">
        <ele>520.40002441406</ele>
        <time>2022-03-19T13:51:22.000Z</time>
      </trkpt>
      <trkpt lat="43.94423" lon="7.12289">
        <ele>520.79998779297</ele>
        <time>2022-03-19T13:51:24.000Z</time>
      </trkpt>
      <trkpt lat="43.94424" lon="7.1229">
        <ele>520.79998779297</ele>
        <time>2022-03-19T13:51:25.000Z</time>
      </trkpt>
      <trkpt lat="43.94425" lon="7.12292">
        <ele>521</ele>
        <time>2022-03-19T13:51:27.000Z</time>
      </trkpt>
      <trkpt lat="43.94426" lon="7.12296">
        <ele>522</ele>
        <time>2022-03-19T13:51:30.000Z</time>
      </trkpt>
      <trkpt lat="43.9443" lon="7.12302">
        <ele>523</ele>
        <time>2022-03-19T13:51:35.000Z</time>
      </trkpt>
      <trkpt lat="43.9443" lon="7.12303">
        <ele>523</ele>
        <time>2022-03-19T13:51:36.000Z</time>
      </trkpt>
      <trkpt lat="43.94432" lon="7.12309">
        <ele>523.79998779297</ele>
        <time>2022-03-19T13:51:43.000Z</time>
      </trkpt>
      <trkpt lat="43.94432" lon="7.1231">
        <ele>524</ele>
        <time>2022-03-19T13:51:45.000Z</time>
      </trkpt>
      <trkpt lat="43.94433" lon="7.12309">
        <ele>524.20001220703</ele>
        <time>2022-03-19T13:51:51.000Z</time>
      </trkpt>
      <trkpt lat="43.94433" lon="7.12307">
        <ele>524</ele>
        <time>2022-03-19T13:51:53.000Z</time>
      </trkpt>
      <trkpt lat="43.94434" lon="7.12301">
        <ele>524.59997558594</ele>
        <time>2022-03-19T13:51:57.000Z</time>
      </trkpt>
      <trkpt lat="43.94434" lon="7.12299">
        <ele>525</ele>
        <time>2022-03-19T13:51:59.000Z</time>
      </trkpt>
      <trkpt lat="43.94434" lon="7.12294">
        <ele>526.20001220703</ele>
        <time>2022-03-19T13:52:04.000Z</time>
      </trkpt>
      <trkpt lat="43.94435" lon="7.12293">
        <ele>526.40002441406</ele>
        <time>2022-03-19T13:52:05.000Z</time>
      </trkpt>
      <trkpt lat="43.94435" lon="7.12289">
        <ele>527.40002441406</ele>
        <time>2022-03-19T13:52:09.000Z</time>
      </trkpt>
      <trkpt lat="43.94435" lon="7.12284">
        <ele>527.79998779297</ele>
        <time>2022-03-19T13:52:13.000Z</time>
      </trkpt>
      <trkpt lat="43.94434" lon="7.12279">
        <ele>528.40002441406</ele>
        <time>2022-03-19T13:52:16.000Z</time>
      </trkpt>
      <trkpt lat="43.94433" lon="7.12272">
        <ele>529.40002441406</ele>
        <time>2022-03-19T13:52:22.000Z</time>
      </trkpt>
      <trkpt lat="43.94432" lon="7.12271">
        <ele>529.40002441406</ele>
        <time>2022-03-19T13:52:23.000Z</time>
      </trkpt>
      <trkpt lat="43.94432" lon="7.12265">
        <ele>530.79998779297</ele>
        <time>2022-03-19T13:52:28.000Z</time>
      </trkpt>
      <trkpt lat="43.9443" lon="7.1226">
        <ele>531.79998779297</ele>
        <time>2022-03-19T13:52:33.000Z</time>
      </trkpt>
      <trkpt lat="43.9443" lon="7.12256">
        <ele>532.59997558594</ele>
        <time>2022-03-19T13:52:37.000Z</time>
      </trkpt>
      <trkpt lat="43.94431" lon="7.12255">
        <ele>532.79998779297</ele>
        <time>2022-03-19T13:52:38.000Z</time>
      </trkpt>
      <trkpt lat="43.94432" lon="7.12255">
        <ele>533.40002441406</ele>
        <time>2022-03-19T13:52:40.000Z</time>
      </trkpt>
      <trkpt lat="43.94434" lon="7.12257">
        <ele>534</ele>
        <time>2022-03-19T13:52:44.000Z</time>
      </trkpt>
      <trkpt lat="43.94436" lon="7.12259">
        <ele>534.40002441406</ele>
        <time>2022-03-19T13:52:47.000Z</time>
      </trkpt>
      <trkpt lat="43.94437" lon="7.12262">
        <ele>535</ele>
        <time>2022-03-19T13:52:50.000Z</time>
      </trkpt>
      <trkpt lat="43.94441" lon="7.12268">
        <ele>536</ele>
        <time>2022-03-19T13:52:56.000Z</time>
      </trkpt>
      <trkpt lat="43.94441" lon="7.12268">
        <ele>536.20001220703</ele>
        <time>2022-03-19T13:52:57.000Z</time>
      </trkpt>
      <trkpt lat="43.94442" lon="7.12269">
        <ele>536.40002441406</ele>
        <time>2022-03-19T13:52:58.000Z</time>
      </trkpt>
      <trkpt lat="43.94446" lon="7.1227">
        <ele>537.20001220703</ele>
        <time>2022-03-19T13:53:02.000Z</time>
      </trkpt>
      <trkpt lat="43.94446" lon="7.1227">
        <ele>537.59997558594</ele>
        <time>2022-03-19T13:53:03.000Z</time>
      </trkpt>
      <trkpt lat="43.94451" lon="7.12269">
        <ele>538.40002441406</ele>
        <time>2022-03-19T13:53:09.000Z</time>
      </trkpt>
      <trkpt lat="43.94451" lon="7.12268">
        <ele>538.59997558594</ele>
        <time>2022-03-19T13:53:10.000Z</time>
      </trkpt>
      <trkpt lat="43.94449" lon="7.12265">
        <ele>539.40002441406</ele>
        <time>2022-03-19T13:53:14.000Z</time>
      </trkpt>
      <trkpt lat="43.94448" lon="7.12262">
        <ele>540.20001220703</ele>
        <time>2022-03-19T13:53:17.000Z</time>
      </trkpt>
      <trkpt lat="43.94447" lon="7.1226">
        <ele>540.59997558594</ele>
        <time>2022-03-19T13:53:19.000Z</time>
      </trkpt>
      <trkpt lat="43.94446" lon="7.12254">
        <ele>541.59997558594</ele>
        <time>2022-03-19T13:53:24.000Z</time>
      </trkpt>
      <trkpt lat="43.94446" lon="7.12253">
        <ele>541.79998779297</ele>
        <time>2022-03-19T13:53:25.000Z</time>
      </trkpt>
      <trkpt lat="43.94443" lon="7.12246">
        <ele>542.59997558594</ele>
        <time>2022-03-19T13:53:32.000Z</time>
      </trkpt>
      <trkpt lat="43.94443" lon="7.12244">
        <ele>543</ele>
        <time>2022-03-19T13:53:34.000Z</time>
      </trkpt>
      <trkpt lat="43.94443" lon="7.12241">
        <ele>543.79998779297</ele>
        <time>2022-03-19T13:53:37.000Z</time>
      </trkpt>
      <trkpt lat="43.94443" lon="7.12237">
        <ele>544.59997558594</ele>
        <time>2022-03-19T13:53:41.000Z</time>
      </trkpt>
      <trkpt lat="43.94443" lon="7.12236">
        <ele>544.79998779297</ele>
        <time>2022-03-19T13:53:42.000Z</time>
      </trkpt>
      <trkpt lat="43.94442" lon="7.12231">
        <ele>545.79998779297</ele>
        <time>2022-03-19T13:53:47.000Z</time>
      </trkpt>
      <trkpt lat="43.94441" lon="7.12227">
        <ele>546.40002441406</ele>
        <time>2022-03-19T13:53:51.000Z</time>
      </trkpt>
      <trkpt lat="43.94441" lon="7.12224">
        <ele>547</ele>
        <time>2022-03-19T13:53:54.000Z</time>
      </trkpt>
      <trkpt lat="43.94441" lon="7.12221">
        <ele>547.59997558594</ele>
        <time>2022-03-19T13:53:58.000Z</time>
      </trkpt>
      <trkpt lat="43.9444" lon="7.12218">
        <ele>548.20001220703</ele>
        <time>2022-03-19T13:54:01.000Z</time>
      </trkpt>
      <trkpt lat="43.94437" lon="7.12214">
        <ele>549.20001220703</ele>
        <time>2022-03-19T13:54:07.000Z</time>
      </trkpt>
      <trkpt lat="43.94436" lon="7.12209">
        <ele>550.40002441406</ele>
        <time>2022-03-19T13:54:11.000Z</time>
      </trkpt>
      <trkpt lat="43.94434" lon="7.12204">
        <ele>551</ele>
        <time>2022-03-19T13:54:16.000Z</time>
      </trkpt>
      <trkpt lat="43.94433" lon="7.12202">
        <ele>551.40002441406</ele>
        <time>2022-03-19T13:54:19.000Z</time>
      </trkpt>
      <trkpt lat="43.94432" lon="7.12195">
        <ele>552.59997558594</ele>
        <time>2022-03-19T13:54:26.000Z</time>
      </trkpt>
      <trkpt lat="43.9443" lon="7.12191">
        <ele>553.79998779297</ele>
        <time>2022-03-19T13:54:31.000Z</time>
      </trkpt>
      <trkpt lat="43.94429" lon="7.12191">
        <ele>554</ele>
        <time>2022-03-19T13:54:32.000Z</time>
      </trkpt>
      <trkpt lat="43.94428" lon="7.12188">
        <ele>554.79998779297</ele>
        <time>2022-03-19T13:54:36.000Z</time>
      </trkpt>
      <trkpt lat="43.94427" lon="7.12186">
        <ele>555.79998779297</ele>
        <time>2022-03-19T13:54:41.000Z</time>
      </trkpt>
      <trkpt lat="43.94427" lon="7.12186">
        <ele>556</ele>
        <time>2022-03-19T13:54:42.000Z</time>
      </trkpt>
      <trkpt lat="43.94426" lon="7.12184">
        <ele>556.40002441406</ele>
        <time>2022-03-19T13:54:47.000Z</time>
      </trkpt>
      <trkpt lat="43.94426" lon="7.1218">
        <ele>556.40002441406</ele>
        <time>2022-03-19T13:54:52.000Z</time>
      </trkpt>
      <trkpt lat="43.94426" lon="7.12177">
        <ele>557</ele>
        <time>2022-03-19T13:54:56.000Z</time>
      </trkpt>
      <trkpt lat="43.94426" lon="7.12176">
        <ele>557.20001220703</ele>
        <time>2022-03-19T13:54:57.000Z</time>
      </trkpt>
      <trkpt lat="43.94424" lon="7.12172">
        <ele>558.20001220703</ele>
        <time>2022-03-19T13:55:02.000Z</time>
      </trkpt>
      <trkpt lat="43.94423" lon="7.12172">
        <ele>558.59997558594</ele>
        <time>2022-03-19T13:55:03.000Z</time>
      </trkpt>
      <trkpt lat="43.94421" lon="7.12169">
        <ele>559.40002441406</ele>
        <time>2022-03-19T13:55:07.000Z</time>
      </trkpt>
      <trkpt lat="43.9442" lon="7.12168">
        <ele>559.79998779297</ele>
        <time>2022-03-19T13:55:10.000Z</time>
      </trkpt>
      <trkpt lat="43.94419" lon="7.12165">
        <ele>560.40002441406</ele>
        <time>2022-03-19T13:55:14.000Z</time>
      </trkpt>
      <trkpt lat="43.94418" lon="7.12164">
        <ele>560.59997558594</ele>
        <time>2022-03-19T13:55:15.000Z</time>
      </trkpt>
      <trkpt lat="43.94416" lon="7.12159">
        <ele>561.59997558594</ele>
        <time>2022-03-19T13:55:20.000Z</time>
      </trkpt>
      <trkpt lat="43.94416" lon="7.12158">
        <ele>561.79998779297</ele>
        <time>2022-03-19T13:55:21.000Z</time>
      </trkpt>
      <trkpt lat="43.94414" lon="7.12153">
        <ele>562.59997558594</ele>
        <time>2022-03-19T13:55:26.000Z</time>
      </trkpt>
      <trkpt lat="43.94414" lon="7.12153">
        <ele>562.79998779297</ele>
        <time>2022-03-19T13:55:27.000Z</time>
      </trkpt>
      <trkpt lat="43.94412" lon="7.12147">
        <ele>563.79998779297</ele>
        <time>2022-03-19T13:55:32.000Z</time>
      </trkpt>
      <trkpt lat="43.94412" lon="7.12146">
        <ele>564</ele>
        <time>2022-03-19T13:55:34.000Z</time>
      </trkpt>
      <trkpt lat="43.94411" lon="7.12144">
        <ele>564.40002441406</ele>
        <time>2022-03-19T13:55:36.000Z</time>
      </trkpt>
      <trkpt lat="43.94411" lon="7.12142">
        <ele>564.79998779297</ele>
        <time>2022-03-19T13:55:39.000Z</time>
      </trkpt>
      <trkpt lat="43.94411" lon="7.12141">
        <ele>565</ele>
        <time>2022-03-19T13:55:40.000Z</time>
      </trkpt>
      <trkpt lat="43.9441" lon="7.12138">
        <ele>566</ele>
        <time>2022-03-19T13:55:45.000Z</time>
      </trkpt>
      <trkpt lat="43.9441" lon="7.12137">
        <ele>566.20001220703</ele>
        <time>2022-03-19T13:55:46.000Z</time>
      </trkpt>
      <trkpt lat="43.94409" lon="7.12132">
        <ele>567.20001220703</ele>
        <time>2022-03-19T13:55:51.000Z</time>
      </trkpt>
      <trkpt lat="43.94408" lon="7.1213">
        <ele>567.40002441406</ele>
        <time>2022-03-19T13:55:53.000Z</time>
      </trkpt>
      <trkpt lat="43.94407" lon="7.12126">
        <ele>568.20001220703</ele>
        <time>2022-03-19T13:55:57.000Z</time>
      </trkpt>
      <trkpt lat="43.94407" lon="7.12124">
        <ele>568.79998779297</ele>
        <time>2022-03-19T13:56:00.000Z</time>
      </trkpt>
      <trkpt lat="43.94406" lon="7.12123">
        <ele>569</ele>
        <time>2022-03-19T13:56:01.000Z</time>
      </trkpt>
      <trkpt lat="43.94406" lon="7.12121">
        <ele>569.40002441406</ele>
        <time>2022-03-19T13:56:03.000Z</time>
      </trkpt>
      <trkpt lat="43.94405" lon="7.12119">
        <ele>569.59997558594</ele>
        <time>2022-03-19T13:56:05.000Z</time>
      </trkpt>
      <trkpt lat="43.94405" lon="7.12116">
        <ele>570.40002441406</ele>
        <time>2022-03-19T13:56:09.000Z</time>
      </trkpt>
      <trkpt lat="43.94404" lon="7.12115">
        <ele>570.59997558594</ele>
        <time>2022-03-19T13:56:10.000Z</time>
      </trkpt>
      <trkpt lat="43.94403" lon="7.1211">
        <ele>571.59997558594</ele>
        <time>2022-03-19T13:56:15.000Z</time>
      </trkpt>
      <trkpt lat="43.94403" lon="7.12109">
        <ele>571.79998779297</ele>
        <time>2022-03-19T13:56:16.000Z</time>
      </trkpt>
      <trkpt lat="43.94403" lon="7.12106">
        <ele>572.79998779297</ele>
        <time>2022-03-19T13:56:20.000Z</time>
      </trkpt>
      <trkpt lat="43.94403" lon="7.12104">
        <ele>573</ele>
        <time>2022-03-19T13:56:21.000Z</time>
      </trkpt>
      <trkpt lat="43.94403" lon="7.12103">
        <ele>573.20001220703</ele>
        <time>2022-03-19T13:56:22.000Z</time>
      </trkpt>
      <trkpt lat="43.94403" lon="7.121">
        <ele>573.79998779297</ele>
        <time>2022-03-19T13:56:25.000Z</time>
      </trkpt>
      <trkpt lat="43.94403" lon="7.12098">
        <ele>574.40002441406</ele>
        <time>2022-03-19T13:56:28.000Z</time>
      </trkpt>
      <trkpt lat="43.94403" lon="7.12096">
        <ele>574.59997558594</ele>
        <time>2022-03-19T13:56:29.000Z</time>
      </trkpt>
      <trkpt lat="43.94403" lon="7.12095">
        <ele>575</ele>
        <time>2022-03-19T13:56:31.000Z</time>
      </trkpt>
      <trkpt lat="43.94403" lon="7.12092">
        <ele>575.59997558594</ele>
        <time>2022-03-19T13:56:34.000Z</time>
      </trkpt>
      <trkpt lat="43.94403" lon="7.12089">
        <ele>576.20001220703</ele>
        <time>2022-03-19T13:56:37.000Z</time>
      </trkpt>
      <trkpt lat="43.94404" lon="7.12086">
        <ele>576.59997558594</ele>
        <time>2022-03-19T13:56:40.000Z</time>
      </trkpt>
      <trkpt lat="43.94404" lon="7.12082">
        <ele>577.20001220703</ele>
        <time>2022-03-19T13:56:44.000Z</time>
      </trkpt>
      <trkpt lat="43.94405" lon="7.12081">
        <ele>577.59997558594</ele>
        <time>2022-03-19T13:56:45.000Z</time>
      </trkpt>
      <trkpt lat="43.94405" lon="7.12076">
        <ele>578.40002441406</ele>
        <time>2022-03-19T13:56:49.000Z</time>
      </trkpt>
      <trkpt lat="43.94404" lon="7.12073">
        <ele>579</ele>
        <time>2022-03-19T13:56:52.000Z</time>
      </trkpt>
      <trkpt lat="43.94403" lon="7.1207">
        <ele>579.59997558594</ele>
        <time>2022-03-19T13:56:55.000Z</time>
      </trkpt>
      <trkpt lat="43.94402" lon="7.12067">
        <ele>580</ele>
        <time>2022-03-19T13:56:58.000Z</time>
      </trkpt>
      <trkpt lat="43.944" lon="7.12064">
        <ele>580.59997558594</ele>
        <time>2022-03-19T13:57:02.000Z</time>
      </trkpt>
      <trkpt lat="43.94398" lon="7.12062">
        <ele>581.20001220703</ele>
        <time>2022-03-19T13:57:05.000Z</time>
      </trkpt>
      <trkpt lat="43.94398" lon="7.12062">
        <ele>581.79998779297</ele>
        <time>2022-03-19T13:57:07.000Z</time>
      </trkpt>
      <trkpt lat="43.94395" lon="7.12059">
        <ele>582.79998779297</ele>
        <time>2022-03-19T13:57:11.000Z</time>
      </trkpt>
      <trkpt lat="43.94394" lon="7.12058">
        <ele>582.79998779297</ele>
        <time>2022-03-19T13:57:12.000Z</time>
      </trkpt>
      <trkpt lat="43.94393" lon="7.12054">
        <ele>583.59997558594</ele>
        <time>2022-03-19T13:57:17.000Z</time>
      </trkpt>
      <trkpt lat="43.94394" lon="7.12052">
        <ele>584</ele>
        <time>2022-03-19T13:57:19.000Z</time>
      </trkpt>
      <trkpt lat="43.94396" lon="7.12049">
        <ele>584.59997558594</ele>
        <time>2022-03-19T13:57:23.000Z</time>
      </trkpt>
      <trkpt lat="43.94397" lon="7.12048">
        <ele>585.20001220703</ele>
        <time>2022-03-19T13:57:25.000Z</time>
      </trkpt>
      <trkpt lat="43.94399" lon="7.12045">
        <ele>586</ele>
        <time>2022-03-19T13:57:29.000Z</time>
      </trkpt>
      <trkpt lat="43.94399" lon="7.12044">
        <ele>586.20001220703</ele>
        <time>2022-03-19T13:57:30.000Z</time>
      </trkpt>
      <trkpt lat="43.94402" lon="7.12039">
        <ele>587.20001220703</ele>
        <time>2022-03-19T13:57:35.000Z</time>
      </trkpt>
      <trkpt lat="43.94401" lon="7.12038">
        <ele>587.40002441406</ele>
        <time>2022-03-19T13:57:36.000Z</time>
      </trkpt>
      <trkpt lat="43.94399" lon="7.12036">
        <ele>587.59997558594</ele>
        <time>2022-03-19T13:57:39.000Z</time>
      </trkpt>
      <trkpt lat="43.94396" lon="7.12036">
        <ele>588.59997558594</ele>
        <time>2022-03-19T13:57:42.000Z</time>
      </trkpt>
      <trkpt lat="43.94395" lon="7.12035">
        <ele>588.79998779297</ele>
        <time>2022-03-19T13:57:43.000Z</time>
      </trkpt>
      <trkpt lat="43.94392" lon="7.12034">
        <ele>589.20001220703</ele>
        <time>2022-03-19T13:57:45.000Z</time>
      </trkpt>
      <trkpt lat="43.94389" lon="7.12031">
        <ele>589.59997558594</ele>
        <time>2022-03-19T13:57:49.000Z</time>
      </trkpt>
      <trkpt lat="43.94388" lon="7.1203">
        <ele>589.59997558594</ele>
        <time>2022-03-19T13:57:51.000Z</time>
      </trkpt>
      <trkpt lat="43.94388" lon="7.12028">
        <ele>589.79998779297</ele>
        <time>2022-03-19T13:57:52.000Z</time>
      </trkpt>
      <trkpt lat="43.94388" lon="7.12018">
        <ele>590.79998779297</ele>
        <time>2022-03-19T13:58:00.000Z</time>
      </trkpt>
      <trkpt lat="43.94389" lon="7.12017">
        <ele>591</ele>
        <time>2022-03-19T13:58:01.000Z</time>
      </trkpt>
      <trkpt lat="43.94389" lon="7.12013">
        <ele>591.79998779297</ele>
        <time>2022-03-19T13:58:06.000Z</time>
      </trkpt>
      <trkpt lat="43.94388" lon="7.1201">
        <ele>592.40002441406</ele>
        <time>2022-03-19T13:58:09.000Z</time>
      </trkpt>
      <trkpt lat="43.94386" lon="7.12007">
        <ele>593</ele>
        <time>2022-03-19T13:58:12.000Z</time>
      </trkpt>
      <trkpt lat="43.94386" lon="7.12003">
        <ele>593.59997558594</ele>
        <time>2022-03-19T13:58:16.000Z</time>
      </trkpt>
      <trkpt lat="43.94386" lon="7.12001">
        <ele>594</ele>
        <time>2022-03-19T13:58:17.000Z</time>
      </trkpt>
      <trkpt lat="43.94388" lon="7.11996">
        <ele>595.20001220703</ele>
        <time>2022-03-19T13:58:22.000Z</time>
      </trkpt>
      <trkpt lat="43.94389" lon="7.11994">
        <ele>595.59997558594</ele>
        <time>2022-03-19T13:58:24.000Z</time>
      </trkpt>
      <trkpt lat="43.9439" lon="7.11991">
        <ele>596.20001220703</ele>
        <time>2022-03-19T13:58:27.000Z</time>
      </trkpt>
      <trkpt lat="43.94389" lon="7.11985">
        <ele>597.20001220703</ele>
        <time>2022-03-19T13:58:32.000Z</time>
      </trkpt>
      <trkpt lat="43.94389" lon="7.11984">
        <ele>597.40002441406</ele>
        <time>2022-03-19T13:58:33.000Z</time>
      </trkpt>
      <trkpt lat="43.94388" lon="7.11979">
        <ele>598.40002441406</ele>
        <time>2022-03-19T13:58:38.000Z</time>
      </trkpt>
      <trkpt lat="43.94388" lon="7.11978">
        <ele>598.79998779297</ele>
        <time>2022-03-19T13:58:39.000Z</time>
      </trkpt>
      <trkpt lat="43.94388" lon="7.11974">
        <ele>599.59997558594</ele>
        <time>2022-03-19T13:58:42.000Z</time>
      </trkpt>
      <trkpt lat="43.94387" lon="7.11969">
        <ele>600.79998779297</ele>
        <time>2022-03-19T13:58:47.000Z</time>
      </trkpt>
      <trkpt lat="43.94386" lon="7.11963">
        <ele>601.79998779297</ele>
        <time>2022-03-19T13:58:53.000Z</time>
      </trkpt>
      <trkpt lat="43.94386" lon="7.11959">
        <ele>602.40002441406</ele>
        <time>2022-03-19T13:58:56.000Z</time>
      </trkpt>
      <trkpt lat="43.94386" lon="7.11957">
        <ele>602.59997558594</ele>
        <time>2022-03-19T13:58:58.000Z</time>
      </trkpt>
      <trkpt lat="43.94387" lon="7.11957">
        <ele>602.79998779297</ele>
        <time>2022-03-19T13:58:59.000Z</time>
      </trkpt>
      <trkpt lat="43.94388" lon="7.11958">
        <ele>603.20001220703</ele>
        <time>2022-03-19T13:59:01.000Z</time>
      </trkpt>
      <trkpt lat="43.9439" lon="7.11962">
        <ele>603.79998779297</ele>
        <time>2022-03-19T13:59:06.000Z</time>
      </trkpt>
      <trkpt lat="43.94392" lon="7.11965">
        <ele>604.20001220703</ele>
        <time>2022-03-19T13:59:09.000Z</time>
      </trkpt>
      <trkpt lat="43.94394" lon="7.11968">
        <ele>605</ele>
        <time>2022-03-19T13:59:13.000Z</time>
      </trkpt>
      <trkpt lat="43.94396" lon="7.11971">
        <ele>606</ele>
        <time>2022-03-19T13:59:17.000Z</time>
      </trkpt>
      <trkpt lat="43.94396" lon="7.11972">
        <ele>606</ele>
        <time>2022-03-19T13:59:18.000Z</time>
      </trkpt>
      <trkpt lat="43.94399" lon="7.11976">
        <ele>607</ele>
        <time>2022-03-19T13:59:24.000Z</time>
      </trkpt>
      <trkpt lat="43.944" lon="7.11976">
        <ele>607.40002441406</ele>
        <time>2022-03-19T13:59:25.000Z</time>
      </trkpt>
      <trkpt lat="43.94402" lon="7.11978">
        <ele>608.20001220703</ele>
        <time>2022-03-19T13:59:30.000Z</time>
      </trkpt>
      <trkpt lat="43.94404" lon="7.11981">
        <ele>608.79998779297</ele>
        <time>2022-03-19T13:59:33.000Z</time>
      </trkpt>
      <trkpt lat="43.94405" lon="7.11983">
        <ele>609</ele>
        <time>2022-03-19T13:59:36.000Z</time>
      </trkpt>
      <trkpt lat="43.94406" lon="7.11985">
        <ele>609.40002441406</ele>
        <time>2022-03-19T13:59:38.000Z</time>
      </trkpt>
      <trkpt lat="43.94408" lon="7.11988">
        <ele>609.79998779297</ele>
        <time>2022-03-19T13:59:41.000Z</time>
      </trkpt>
      <trkpt lat="43.94411" lon="7.11992">
        <ele>610.40002441406</ele>
        <time>2022-03-19T13:59:46.000Z</time>
      </trkpt>
      <trkpt lat="43.94413" lon="7.11994">
        <ele>611</ele>
        <time>2022-03-19T13:59:50.000Z</time>
      </trkpt>
      <trkpt lat="43.94416" lon="7.11996">
        <ele>611.59997558594</ele>
        <time>2022-03-19T13:59:54.000Z</time>
      </trkpt>
      <trkpt lat="43.94418" lon="7.11996">
        <ele>612.20001220703</ele>
        <time>2022-03-19T13:59:57.000Z</time>
      </trkpt>
      <trkpt lat="43.9442" lon="7.11997">
        <ele>612.59997558594</ele>
        <time>2022-03-19T14:00:00.000Z</time>
      </trkpt>
      <trkpt lat="43.94422" lon="7.11998">
        <ele>613</ele>
        <time>2022-03-19T14:00:03.000Z</time>
      </trkpt>
      <trkpt lat="43.94423" lon="7.11998">
        <ele>613.20001220703</ele>
        <time>2022-03-19T14:00:04.000Z</time>
      </trkpt>
      <trkpt lat="43.94425" lon="7.12001">
        <ele>613.79998779297</ele>
        <time>2022-03-19T14:00:07.000Z</time>
      </trkpt>
      <trkpt lat="43.94428" lon="7.12004">
        <ele>614.59997558594</ele>
        <time>2022-03-19T14:00:13.000Z</time>
      </trkpt>
      <trkpt lat="43.94429" lon="7.12005">
        <ele>614.79998779297</ele>
        <time>2022-03-19T14:00:14.000Z</time>
      </trkpt>
      <trkpt lat="43.94432" lon="7.12007">
        <ele>616</ele>
        <time>2022-03-19T14:00:19.000Z</time>
      </trkpt>
      <trkpt lat="43.94433" lon="7.12008">
        <ele>616.20001220703</ele>
        <time>2022-03-19T14:00:21.000Z</time>
      </trkpt>
      <trkpt lat="43.94435" lon="7.1201">
        <ele>617</ele>
        <time>2022-03-19T14:00:25.000Z</time>
      </trkpt>
      <trkpt lat="43.94436" lon="7.12012">
        <ele>617.59997558594</ele>
        <time>2022-03-19T14:00:28.000Z</time>
      </trkpt>
      <trkpt lat="43.94437" lon="7.12012">
        <ele>618.20001220703</ele>
        <time>2022-03-19T14:00:30.000Z</time>
      </trkpt>
      <trkpt lat="43.9444" lon="7.12016">
        <ele>619</ele>
        <time>2022-03-19T14:00:35.000Z</time>
      </trkpt>
      <trkpt lat="43.94441" lon="7.12017">
        <ele>619.20001220703</ele>
        <time>2022-03-19T14:00:36.000Z</time>
      </trkpt>
      <trkpt lat="43.94444" lon="7.1202">
        <ele>620.40002441406</ele>
        <time>2022-03-19T14:00:42.000Z</time>
      </trkpt>
      <trkpt lat="43.94445" lon="7.12021">
        <ele>620.79998779297</ele>
        <time>2022-03-19T14:00:44.000Z</time>
      </trkpt>
      <trkpt lat="43.94447" lon="7.12023">
        <ele>621.40002441406</ele>
        <time>2022-03-19T14:00:47.000Z</time>
      </trkpt>
      <trkpt lat="43.9445" lon="7.12026">
        <ele>622.59997558594</ele>
        <time>2022-03-19T14:00:53.000Z</time>
      </trkpt>
      <trkpt lat="43.94451" lon="7.12026">
        <ele>622.79998779297</ele>
        <time>2022-03-19T14:00:54.000Z</time>
      </trkpt>
      <trkpt lat="43.94454" lon="7.1203">
        <ele>623.59997558594</ele>
        <time>2022-03-19T14:00:59.000Z</time>
      </trkpt>
      <trkpt lat="43.94457" lon="7.12033">
        <ele>624.40002441406</ele>
        <time>2022-03-19T14:01:03.000Z</time>
      </trkpt>
      <trkpt lat="43.94458" lon="7.12035">
        <ele>624.79998779297</ele>
        <time>2022-03-19T14:01:06.000Z</time>
      </trkpt>
      <trkpt lat="43.94461" lon="7.12039">
        <ele>625.20001220703</ele>
        <time>2022-03-19T14:01:10.000Z</time>
      </trkpt>
      <trkpt lat="43.94464" lon="7.12041">
        <ele>625.79998779297</ele>
        <time>2022-03-19T14:01:13.000Z</time>
      </trkpt>
      <trkpt lat="43.94468" lon="7.12047">
        <ele>626.79998779297</ele>
        <time>2022-03-19T14:01:19.000Z</time>
      </trkpt>
      <trkpt lat="43.94469" lon="7.12047">
        <ele>627</ele>
        <time>2022-03-19T14:01:20.000Z</time>
      </trkpt>
      <trkpt lat="43.94473" lon="7.12053">
        <ele>627.79998779297</ele>
        <time>2022-03-19T14:01:27.000Z</time>
      </trkpt>
      <trkpt lat="43.94473" lon="7.12054">
        <ele>628</ele>
        <time>2022-03-19T14:01:28.000Z</time>
      </trkpt>
      <trkpt lat="43.94478" lon="7.1206">
        <ele>628.79998779297</ele>
        <time>2022-03-19T14:01:34.000Z</time>
      </trkpt>
      <trkpt lat="43.9448" lon="7.12062">
        <ele>629</ele>
        <time>2022-03-19T14:01:36.000Z</time>
      </trkpt>
      <trkpt lat="43.94485" lon="7.12065">
        <ele>629.79998779297</ele>
        <time>2022-03-19T14:01:42.000Z</time>
      </trkpt>
      <trkpt lat="43.94486" lon="7.12066">
        <ele>630</ele>
        <time>2022-03-19T14:01:44.000Z</time>
      </trkpt>
      <trkpt lat="43.9449" lon="7.12068">
        <ele>631</ele>
        <time>2022-03-19T14:01:49.000Z</time>
      </trkpt>
      <trkpt lat="43.94494" lon="7.12068">
        <ele>632.20001220703</ele>
        <time>2022-03-19T14:01:54.000Z</time>
      </trkpt>
      <trkpt lat="43.94496" lon="7.12067">
        <ele>632.59997558594</ele>
        <time>2022-03-19T14:01:56.000Z</time>
      </trkpt>
      <trkpt lat="43.94496" lon="7.12066">
        <ele>632.79998779297</ele>
        <time>2022-03-19T14:01:57.000Z</time>
      </trkpt>
      <trkpt lat="43.94497" lon="7.12063">
        <ele>633.20001220703</ele>
        <time>2022-03-19T14:02:00.000Z</time>
      </trkpt>
      <trkpt lat="43.94498" lon="7.12058">
        <ele>633.79998779297</ele>
        <time>2022-03-19T14:02:04.000Z</time>
      </trkpt>
      <trkpt lat="43.94498" lon="7.12055">
        <ele>634.20001220703</ele>
        <time>2022-03-19T14:02:07.000Z</time>
      </trkpt>
      <trkpt lat="43.945" lon="7.12049">
        <ele>635.40002441406</ele>
        <time>2022-03-19T14:02:13.000Z</time>
      </trkpt>
      <trkpt lat="43.94501" lon="7.12041">
        <ele>636.59997558594</ele>
        <time>2022-03-19T14:02:20.000Z</time>
      </trkpt>
      <trkpt lat="43.94502" lon="7.12038">
        <ele>637</ele>
        <time>2022-03-19T14:02:23.000Z</time>
      </trkpt>
      <trkpt lat="43.94503" lon="7.12035">
        <ele>637.59997558594</ele>
        <time>2022-03-19T14:02:27.000Z</time>
      </trkpt>
      <trkpt lat="43.94504" lon="7.12032">
        <ele>638</ele>
        <time>2022-03-19T14:02:30.000Z</time>
      </trkpt>
      <trkpt lat="43.94505" lon="7.12028">
        <ele>638.59997558594</ele>
        <time>2022-03-19T14:02:34.000Z</time>
      </trkpt>
      <trkpt lat="43.94505" lon="7.12028">
        <ele>638.79998779297</ele>
        <time>2022-03-19T14:02:35.000Z</time>
      </trkpt>
      <trkpt lat="43.94508" lon="7.12022">
        <ele>639.79998779297</ele>
        <time>2022-03-19T14:02:41.000Z</time>
      </trkpt>
      <trkpt lat="43.94508" lon="7.12021">
        <ele>639.79998779297</ele>
        <time>2022-03-19T14:02:42.000Z</time>
      </trkpt>
      <trkpt lat="43.94511" lon="7.12015">
        <ele>640.79998779297</ele>
        <time>2022-03-19T14:02:49.000Z</time>
      </trkpt>
      <trkpt lat="43.94511" lon="7.12014">
        <ele>641</ele>
        <time>2022-03-19T14:02:50.000Z</time>
      </trkpt>
      <trkpt lat="43.94513" lon="7.12008">
        <ele>641.79998779297</ele>
        <time>2022-03-19T14:02:56.000Z</time>
      </trkpt>
      <trkpt lat="43.94513" lon="7.12007">
        <ele>642</ele>
        <time>2022-03-19T14:02:57.000Z</time>
      </trkpt>
      <trkpt lat="43.94515" lon="7.12003">
        <ele>643</ele>
        <time>2022-03-19T14:03:02.000Z</time>
      </trkpt>
      <trkpt lat="43.94515" lon="7.12002">
        <ele>643.40002441406</ele>
        <time>2022-03-19T14:03:04.000Z</time>
      </trkpt>
      <trkpt lat="43.94517" lon="7.11999">
        <ele>644</ele>
        <time>2022-03-19T14:03:07.000Z</time>
      </trkpt>
      <trkpt lat="43.94519" lon="7.11995">
        <ele>645.20001220703</ele>
        <time>2022-03-19T14:03:13.000Z</time>
      </trkpt>
      <trkpt lat="43.94521" lon="7.11992">
        <ele>646.20001220703</ele>
        <time>2022-03-19T14:03:17.000Z</time>
      </trkpt>
      <trkpt lat="43.94522" lon="7.11989">
        <ele>647</ele>
        <time>2022-03-19T14:03:22.000Z</time>
      </trkpt>
      <trkpt lat="43.94523" lon="7.11988">
        <ele>647.40002441406</ele>
        <time>2022-03-19T14:03:24.000Z</time>
      </trkpt>
      <trkpt lat="43.94526" lon="7.11982">
        <ele>648.59997558594</ele>
        <time>2022-03-19T14:03:30.000Z</time>
      </trkpt>
      <trkpt lat="43.94528" lon="7.11977">
        <ele>649.59997558594</ele>
        <time>2022-03-19T14:03:36.000Z</time>
      </trkpt>
      <trkpt lat="43.94529" lon="7.11976">
        <ele>649.79998779297</ele>
        <time>2022-03-19T14:03:38.000Z</time>
      </trkpt>
      <trkpt lat="43.9453" lon="7.11973">
        <ele>650.79998779297</ele>
        <time>2022-03-19T14:03:43.000Z</time>
      </trkpt>
      <trkpt lat="43.94531" lon="7.11972">
        <ele>650.79998779297</ele>
        <time>2022-03-19T14:03:44.000Z</time>
      </trkpt>
      <trkpt lat="43.94532" lon="7.11968">
        <ele>651.79998779297</ele>
        <time>2022-03-19T14:03:49.000Z</time>
      </trkpt>
      <trkpt lat="43.94533" lon="7.11966">
        <ele>652.59997558594</ele>
        <time>2022-03-19T14:03:53.000Z</time>
      </trkpt>
      <trkpt lat="43.94534" lon="7.11964">
        <ele>653</ele>
        <time>2022-03-19T14:03:55.000Z</time>
      </trkpt>
      <trkpt lat="43.94537" lon="7.11961">
        <ele>654</ele>
        <time>2022-03-19T14:04:00.000Z</time>
      </trkpt>
      <trkpt lat="43.94538" lon="7.11959">
        <ele>654.40002441406</ele>
        <time>2022-03-19T14:04:03.000Z</time>
      </trkpt>
      <trkpt lat="43.94539" lon="7.11958">
        <ele>655</ele>
        <time>2022-03-19T14:04:07.000Z</time>
      </trkpt>
      <trkpt lat="43.94539" lon="7.11958">
        <ele>655.40002441406</ele>
        <time>2022-03-19T14:04:10.000Z</time>
      </trkpt>
      <trkpt lat="43.9454" lon="7.11956">
        <ele>655.40002441406</ele>
        <time>2022-03-19T14:04:18.000Z</time>
      </trkpt>
      <trkpt lat="43.94543" lon="7.11954">
        <ele>655.59997558594</ele>
        <time>2022-03-19T14:04:23.000Z</time>
      </trkpt>
      <trkpt lat="43.94545" lon="7.11952">
        <ele>656</ele>
        <time>2022-03-19T14:04:27.000Z</time>
      </trkpt>
      <trkpt lat="43.94546" lon="7.11951">
        <ele>656.20001220703</ele>
        <time>2022-03-19T14:04:28.000Z</time>
      </trkpt>
      <trkpt lat="43.94548" lon="7.11948">
        <ele>657.20001220703</ele>
        <time>2022-03-19T14:04:34.000Z</time>
      </trkpt>
      <trkpt lat="43.94552" lon="7.11946">
        <ele>658.20001220703</ele>
        <time>2022-03-19T14:04:40.000Z</time>
      </trkpt>
      <trkpt lat="43.94551" lon="7.11946">
        <ele>658.40002441406</ele>
        <time>2022-03-19T14:04:41.000Z</time>
      </trkpt>
      <trkpt lat="43.94554" lon="7.11945">
        <ele>659.40002441406</ele>
        <time>2022-03-19T14:04:46.000Z</time>
      </trkpt>
      <trkpt lat="43.94555" lon="7.11944">
        <ele>660</ele>
        <time>2022-03-19T14:04:49.000Z</time>
      </trkpt>
      <trkpt lat="43.94556" lon="7.11941">
        <ele>660.40002441406</ele>
        <time>2022-03-19T14:04:52.000Z</time>
      </trkpt>
      <trkpt lat="43.94557" lon="7.1194">
        <ele>661.20001220703</ele>
        <time>2022-03-19T14:04:56.000Z</time>
      </trkpt>
      <trkpt lat="43.94558" lon="7.11939">
        <ele>661.59997558594</ele>
        <time>2022-03-19T14:04:59.000Z</time>
      </trkpt>
      <trkpt lat="43.94559" lon="7.11939">
        <ele>661.79998779297</ele>
        <time>2022-03-19T14:05:01.000Z</time>
      </trkpt>
      <trkpt lat="43.9456" lon="7.11938">
        <ele>662.59997558594</ele>
        <time>2022-03-19T14:05:04.000Z</time>
      </trkpt>
      <trkpt lat="43.9456" lon="7.11938">
        <ele>663</ele>
        <time>2022-03-19T14:05:06.000Z</time>
      </trkpt>
      <trkpt lat="43.94562" lon="7.11936">
        <ele>663.59997558594</ele>
        <time>2022-03-19T14:05:09.000Z</time>
      </trkpt>
      <trkpt lat="43.94564" lon="7.11935">
        <ele>664</ele>
        <time>2022-03-19T14:05:11.000Z</time>
      </trkpt>
      <trkpt lat="43.94566" lon="7.11934">
        <ele>664.59997558594</ele>
        <time>2022-03-19T14:05:15.000Z</time>
      </trkpt>
      <trkpt lat="43.94567" lon="7.11933">
        <ele>665</ele>
        <time>2022-03-19T14:05:17.000Z</time>
      </trkpt>
      <trkpt lat="43.94568" lon="7.11931">
        <ele>665.79998779297</ele>
        <time>2022-03-19T14:05:21.000Z</time>
      </trkpt>
      <trkpt lat="43.94568" lon="7.11931">
        <ele>666</ele>
        <time>2022-03-19T14:05:22.000Z</time>
      </trkpt>
      <trkpt lat="43.9457" lon="7.11929">
        <ele>666.79998779297</ele>
        <time>2022-03-19T14:05:26.000Z</time>
      </trkpt>
      <trkpt lat="43.9457" lon="7.11927">
        <ele>667</ele>
        <time>2022-03-19T14:05:27.000Z</time>
      </trkpt>
      <trkpt lat="43.9457" lon="7.11927">
        <ele>667.20001220703</ele>
        <time>2022-03-19T14:05:28.000Z</time>
      </trkpt>
      <trkpt lat="43.94571" lon="7.11926">
        <ele>667.79998779297</ele>
        <time>2022-03-19T14:05:31.000Z</time>
      </trkpt>
      <trkpt lat="43.94572" lon="7.11924">
        <ele>668.20001220703</ele>
        <time>2022-03-19T14:05:33.000Z</time>
      </trkpt>
      <trkpt lat="43.94574" lon="7.11922">
        <ele>669</ele>
        <time>2022-03-19T14:05:39.000Z</time>
      </trkpt>
      <trkpt lat="43.94576" lon="7.11921">
        <ele>669.40002441406</ele>
        <time>2022-03-19T14:05:40.000Z</time>
      </trkpt>
      <trkpt lat="43.94577" lon="7.1192">
        <ele>670</ele>
        <time>2022-03-19T14:05:43.000Z</time>
      </trkpt>
      <trkpt lat="43.94579" lon="7.11918">
        <ele>670.20001220703</ele>
        <time>2022-03-19T14:05:45.000Z</time>
      </trkpt>
      <trkpt lat="43.94581" lon="7.11914">
        <ele>670.59997558594</ele>
        <time>2022-03-19T14:05:50.000Z</time>
      </trkpt>
      <trkpt lat="43.94583" lon="7.11914">
        <ele>671.20001220703</ele>
        <time>2022-03-19T14:05:53.000Z</time>
      </trkpt>
      <trkpt lat="43.94585" lon="7.11913">
        <ele>671.59997558594</ele>
        <time>2022-03-19T14:05:56.000Z</time>
      </trkpt>
      <trkpt lat="43.94589" lon="7.11912">
        <ele>672.20001220703</ele>
        <time>2022-03-19T14:06:01.000Z</time>
      </trkpt>
      <trkpt lat="43.94588" lon="7.11912">
        <ele>672.40002441406</ele>
        <time>2022-03-19T14:06:02.000Z</time>
      </trkpt>
      <trkpt lat="43.94592" lon="7.11908">
        <ele>673.40002441406</ele>
        <time>2022-03-19T14:06:08.000Z</time>
      </trkpt>
      <trkpt lat="43.94593" lon="7.11906">
        <ele>673.59997558594</ele>
        <time>2022-03-19T14:06:10.000Z</time>
      </trkpt>
      <trkpt lat="43.94595" lon="7.11904">
        <ele>674</ele>
        <time>2022-03-19T14:06:13.000Z</time>
      </trkpt>
      <trkpt lat="43.94596" lon="7.11903">
        <ele>674.40002441406</ele>
        <time>2022-03-19T14:06:16.000Z</time>
      </trkpt>
      <trkpt lat="43.94598" lon="7.11899">
        <ele>675</ele>
        <time>2022-03-19T14:06:20.000Z</time>
      </trkpt>
      <trkpt lat="43.94599" lon="7.11899">
        <ele>675.40002441406</ele>
        <time>2022-03-19T14:06:22.000Z</time>
      </trkpt>
      <trkpt lat="43.94601" lon="7.11897">
        <ele>676.20001220703</ele>
        <time>2022-03-19T14:06:27.000Z</time>
      </trkpt>
      <trkpt lat="43.94602" lon="7.11896">
        <ele>676.59997558594</ele>
        <time>2022-03-19T14:06:29.000Z</time>
      </trkpt>
      <trkpt lat="43.94605" lon="7.11893">
        <ele>677.20001220703</ele>
        <time>2022-03-19T14:06:33.000Z</time>
      </trkpt>
      <trkpt lat="43.94605" lon="7.11892">
        <ele>677.40002441406</ele>
        <time>2022-03-19T14:06:34.000Z</time>
      </trkpt>
      <trkpt lat="43.94606" lon="7.11891">
        <ele>677.59997558594</ele>
        <time>2022-03-19T14:06:35.000Z</time>
      </trkpt>
      <trkpt lat="43.94607" lon="7.11889">
        <ele>678</ele>
        <time>2022-03-19T14:06:38.000Z</time>
      </trkpt>
      <trkpt lat="43.94608" lon="7.11887">
        <ele>678.59997558594</ele>
        <time>2022-03-19T14:06:42.000Z</time>
      </trkpt>
      <trkpt lat="43.94609" lon="7.11886">
        <ele>679</ele>
        <time>2022-03-19T14:06:44.000Z</time>
      </trkpt>
      <trkpt lat="43.94611" lon="7.11883">
        <ele>679.79998779297</ele>
        <time>2022-03-19T14:06:48.000Z</time>
      </trkpt>
      <trkpt lat="43.94613" lon="7.11881">
        <ele>680.20001220703</ele>
        <time>2022-03-19T14:06:51.000Z</time>
      </trkpt>
      <trkpt lat="43.94614" lon="7.11877">
        <ele>680.79998779297</ele>
        <time>2022-03-19T14:06:55.000Z</time>
      </trkpt>
      <trkpt lat="43.94615" lon="7.11876">
        <ele>681</ele>
        <time>2022-03-19T14:06:56.000Z</time>
      </trkpt>
      <trkpt lat="43.94616" lon="7.11871">
        <ele>681.79998779297</ele>
        <time>2022-03-19T14:07:01.000Z</time>
      </trkpt>
      <trkpt lat="43.94616" lon="7.1187">
        <ele>681.79998779297</ele>
        <time>2022-03-19T14:07:02.000Z</time>
      </trkpt>
      <trkpt lat="43.94616" lon="7.11865">
        <ele>682.79998779297</ele>
        <time>2022-03-19T14:07:07.000Z</time>
      </trkpt>
      <trkpt lat="43.94616" lon="7.11865">
        <ele>683</ele>
        <time>2022-03-19T14:07:08.000Z</time>
      </trkpt>
      <trkpt lat="43.94617" lon="7.11861">
        <ele>684</ele>
        <time>2022-03-19T14:07:13.000Z</time>
      </trkpt>
      <trkpt lat="43.94617" lon="7.1186">
        <ele>684</ele>
        <time>2022-03-19T14:07:14.000Z</time>
      </trkpt>
      <trkpt lat="43.94618" lon="7.11857">
        <ele>684.59997558594</ele>
        <time>2022-03-19T14:07:18.000Z</time>
      </trkpt>
      <trkpt lat="43.94619" lon="7.11855">
        <ele>685</ele>
        <time>2022-03-19T14:07:21.000Z</time>
      </trkpt>
      <trkpt lat="43.94619" lon="7.11853">
        <ele>685.59997558594</ele>
        <time>2022-03-19T14:07:24.000Z</time>
      </trkpt>
      <trkpt lat="43.94619" lon="7.11852">
        <ele>686.20001220703</ele>
        <time>2022-03-19T14:07:27.000Z</time>
      </trkpt>
      <trkpt lat="43.94619" lon="7.11847">
        <ele>686.79998779297</ele>
        <time>2022-03-19T14:07:31.000Z</time>
      </trkpt>
      <trkpt lat="43.94619" lon="7.11845">
        <ele>687.40002441406</ele>
        <time>2022-03-19T14:07:34.000Z</time>
      </trkpt>
      <trkpt lat="43.9462" lon="7.11842">
        <ele>688.20001220703</ele>
        <time>2022-03-19T14:07:39.000Z</time>
      </trkpt>
      <trkpt lat="43.9462" lon="7.1184">
        <ele>688.40002441406</ele>
        <time>2022-03-19T14:07:40.000Z</time>
      </trkpt>
      <trkpt lat="43.94619" lon="7.11837">
        <ele>689.20001220703</ele>
        <time>2022-03-19T14:07:44.000Z</time>
      </trkpt>
      <trkpt lat="43.94619" lon="7.11836">
        <ele>689.40002441406</ele>
        <time>2022-03-19T14:07:46.000Z</time>
      </trkpt>
      <trkpt lat="43.94618" lon="7.11833">
        <ele>690.40002441406</ele>
        <time>2022-03-19T14:07:50.000Z</time>
      </trkpt>
      <trkpt lat="43.94618" lon="7.11831">
        <ele>690.59997558594</ele>
        <time>2022-03-19T14:07:52.000Z</time>
      </trkpt>
      <trkpt lat="43.94619" lon="7.11827">
        <ele>691.40002441406</ele>
        <time>2022-03-19T14:07:57.000Z</time>
      </trkpt>
      <trkpt lat="43.94619" lon="7.11825">
        <ele>691.79998779297</ele>
        <time>2022-03-19T14:07:59.000Z</time>
      </trkpt>
      <trkpt lat="43.9462" lon="7.11822">
        <ele>692.40002441406</ele>
        <time>2022-03-19T14:08:03.000Z</time>
      </trkpt>
      <trkpt lat="43.9462" lon="7.11821">
        <ele>692.59997558594</ele>
        <time>2022-03-19T14:08:04.000Z</time>
      </trkpt>
      <trkpt lat="43.9462" lon="7.11821">
        <ele>692.79998779297</ele>
        <time>2022-03-19T14:08:05.000Z</time>
      </trkpt>
      <trkpt lat="43.94619" lon="7.11819">
        <ele>693.40002441406</ele>
        <time>2022-03-19T14:08:08.000Z</time>
      </trkpt>
      <trkpt lat="43.94619" lon="7.11817">
        <ele>694</ele>
        <time>2022-03-19T14:08:11.000Z</time>
      </trkpt>
      <trkpt lat="43.94619" lon="7.11815">
        <ele>694.20001220703</ele>
        <time>2022-03-19T14:08:14.000Z</time>
      </trkpt>
      <trkpt lat="43.9462" lon="7.11811">
        <ele>695.20001220703</ele>
        <time>2022-03-19T14:08:20.000Z</time>
      </trkpt>
      <trkpt lat="43.94619" lon="7.11809">
        <ele>696.20001220703</ele>
        <time>2022-03-19T14:08:25.000Z</time>
      </trkpt>
      <trkpt lat="43.94618" lon="7.11806">
        <ele>697.20001220703</ele>
        <time>2022-03-19T14:08:31.000Z</time>
      </trkpt>
      <trkpt lat="43.94616" lon="7.11807">
        <ele>698</ele>
        <time>2022-03-19T14:08:35.000Z</time>
      </trkpt>
      <trkpt lat="43.94616" lon="7.11807">
        <ele>698.20001220703</ele>
        <time>2022-03-19T14:08:36.000Z</time>
      </trkpt>
      <trkpt lat="43.94616" lon="7.11808">
        <ele>698.40002441406</ele>
        <time>2022-03-19T14:08:37.000Z</time>
      </trkpt>
      <trkpt lat="43.94613" lon="7.11813">
        <ele>699.40002441406</ele>
        <time>2022-03-19T14:08:43.000Z</time>
      </trkpt>
      <trkpt lat="43.94612" lon="7.11815">
        <ele>700.40002441406</ele>
        <time>2022-03-19T14:08:48.000Z</time>
      </trkpt>
      <trkpt lat="43.94611" lon="7.11821">
        <ele>701.40002441406</ele>
        <time>2022-03-19T14:08:54.000Z</time>
      </trkpt>
      <trkpt lat="43.9461" lon="7.11822">
        <ele>701.59997558594</ele>
        <time>2022-03-19T14:08:55.000Z</time>
      </trkpt>
      <trkpt lat="43.9461" lon="7.11823">
        <ele>701.59997558594</ele>
        <time>2022-03-19T14:08:56.000Z</time>
      </trkpt>
      <trkpt lat="43.94609" lon="7.11825">
        <ele>702.40002441406</ele>
        <time>2022-03-19T14:09:00.000Z</time>
      </trkpt>
      <trkpt lat="43.94609" lon="7.11826">
        <ele>702.59997558594</ele>
        <time>2022-03-19T14:09:01.000Z</time>
      </trkpt>
      <trkpt lat="43.94609" lon="7.11827">
        <ele>703.20001220703</ele>
        <time>2022-03-19T14:09:06.000Z</time>
      </trkpt>
      <trkpt lat="43.9461" lon="7.11827">
        <ele>703.40002441406</ele>
        <time>2022-03-19T14:09:24.000Z</time>
      </trkpt>
      <trkpt lat="43.9461" lon="7.11828">
        <ele>703.40002441406</ele>
        <time>2022-03-19T14:09:51.000Z</time>
      </trkpt>
      <trkpt lat="43.94609" lon="7.11832">
        <ele>703.59997558594</ele>
        <time>2022-03-19T14:10:02.000Z</time>
      </trkpt>
      <trkpt lat="43.94609" lon="7.11833">
        <ele>703.59997558594</ele>
        <time>2022-03-19T14:10:03.000Z</time>
      </trkpt>
      <trkpt lat="43.94608" lon="7.11834">
        <ele>703.59997558594</ele>
        <time>2022-03-19T14:10:08.000Z</time>
      </trkpt>
      <trkpt lat="43.94608" lon="7.11835">
        <ele>703.59997558594</ele>
        <time>2022-03-19T14:10:09.000Z</time>
      </trkpt>
      <trkpt lat="43.9461" lon="7.1183">
        <ele>703.40002441406</ele>
        <time>2022-03-19T14:10:14.000Z</time>
      </trkpt>
      <trkpt lat="43.94611" lon="7.11828">
        <ele>703.40002441406</ele>
        <time>2022-03-19T14:10:20.000Z</time>
      </trkpt>
      <trkpt lat="43.94611" lon="7.11827">
        <ele>703.79998779297</ele>
        <time>2022-03-19T14:10:39.000Z</time>
      </trkpt>
      <trkpt lat="43.9461" lon="7.11827">
        <ele>704</ele>
        <time>2022-03-19T14:10:53.000Z</time>
      </trkpt>
      <trkpt lat="43.9461" lon="7.11826">
        <ele>703.59997558594</ele>
        <time>2022-03-19T14:11:02.000Z</time>
      </trkpt>
      <trkpt lat="43.9461" lon="7.11826">
        <ele>703.40002441406</ele>
        <time>2022-03-19T14:11:09.000Z</time>
      </trkpt>
      <trkpt lat="43.94609" lon="7.11825">
        <ele>703.59997558594</ele>
        <time>2022-03-19T14:11:27.000Z</time>
      </trkpt>
      <trkpt lat="43.94608" lon="7.11825">
        <ele>703.79998779297</ele>
        <time>2022-03-19T14:11:44.000Z</time>
      </trkpt>
      <trkpt lat="43.94607" lon="7.11824">
        <ele>703.40002441406</ele>
        <time>2022-03-19T14:11:57.000Z</time>
      </trkpt>
      <trkpt lat="43.94606" lon="7.11823">
        <ele>702.79998779297</ele>
        <time>2022-03-19T14:12:08.000Z</time>
      </trkpt>
      <trkpt lat="43.94606" lon="7.11823">
        <ele>703</ele>
        <time>2022-03-19T14:12:19.000Z</time>
      </trkpt>
      <trkpt lat="43.94607" lon="7.11824">
        <ele>702.59997558594</ele>
        <time>2022-03-19T14:12:31.000Z</time>
      </trkpt>
      <trkpt lat="43.94607" lon="7.11826">
        <ele>703</ele>
        <time>2022-03-19T14:12:40.000Z</time>
      </trkpt>
      <trkpt lat="43.94607" lon="7.11828">
        <ele>703</ele>
        <time>2022-03-19T14:12:50.000Z</time>
      </trkpt>
      <trkpt lat="43.94608" lon="7.11827">
        <ele>703</ele>
        <time>2022-03-19T14:13:00.000Z</time>
      </trkpt>
      <trkpt lat="43.94608" lon="7.11827">
        <ele>703.20001220703</ele>
        <time>2022-03-19T14:13:07.000Z</time>
      </trkpt>
      <trkpt lat="43.94608" lon="7.11828">
        <ele>703.20001220703</ele>
        <time>2022-03-19T14:13:18.000Z</time>
      </trkpt>
      <trkpt lat="43.94608" lon="7.11827">
        <ele>703</ele>
        <time>2022-03-19T14:13:26.000Z</time>
      </trkpt>
      <trkpt lat="43.94608" lon="7.11827">
        <ele>703</ele>
        <time>2022-03-19T14:13:37.000Z</time>
      </trkpt>
      <trkpt lat="43.94608" lon="7.11827">
        <ele>703</ele>
        <time>2022-03-19T14:13:46.000Z</time>
      </trkpt>
      <trkpt lat="43.94607" lon="7.11828">
        <ele>703</ele>
        <time>2022-03-19T14:13:55.000Z</time>
      </trkpt>
      <trkpt lat="43.94607" lon="7.11827">
        <ele>703.59997558594</ele>
        <time>2022-03-19T14:14:03.000Z</time>
      </trkpt>
      <trkpt lat="43.94607" lon="7.11829">
        <ele>703.59997558594</ele>
        <time>2022-03-19T14:14:15.000Z</time>
      </trkpt>
      <trkpt lat="43.94608" lon="7.11829">
        <ele>703.79998779297</ele>
        <time>2022-03-19T14:14:32.000Z</time>
      </trkpt>
      <trkpt lat="43.94608" lon="7.11828">
        <ele>703.59997558594</ele>
        <time>2022-03-19T14:14:50.000Z</time>
      </trkpt>
      <trkpt lat="43.94608" lon="7.11827">
        <ele>703.40002441406</ele>
        <time>2022-03-19T14:15:07.000Z</time>
      </trkpt>
      <trkpt lat="43.94607" lon="7.11826">
        <ele>703</ele>
        <time>2022-03-19T14:15:19.000Z</time>
      </trkpt>
      <trkpt lat="43.94607" lon="7.11825">
        <ele>703.59997558594</ele>
        <time>2022-03-19T14:15:26.000Z</time>
      </trkpt>
      <trkpt lat="43.94607" lon="7.11824">
        <ele>703.79998779297</ele>
        <time>2022-03-19T14:15:34.000Z</time>
      </trkpt>
      <trkpt lat="43.94607" lon="7.11822">
        <ele>704</ele>
        <time>2022-03-19T14:15:45.000Z</time>
      </trkpt>
      <trkpt lat="43.94606" lon="7.11821">
        <ele>703.79998779297</ele>
        <time>2022-03-19T14:15:55.000Z</time>
      </trkpt>
      <trkpt lat="43.94606" lon="7.11822">
        <ele>703.79998779297</ele>
        <time>2022-03-19T14:16:08.000Z</time>
      </trkpt>
      <trkpt lat="43.94606" lon="7.11821">
        <ele>703.79998779297</ele>
        <time>2022-03-19T14:16:12.000Z</time>
      </trkpt>
      <trkpt lat="43.94606" lon="7.1182">
        <ele>703.59997558594</ele>
        <time>2022-03-19T14:16:22.000Z</time>
      </trkpt>
      <trkpt lat="43.94606" lon="7.1182">
        <ele>703.59997558594</ele>
        <time>2022-03-19T14:16:28.000Z</time>
      </trkpt>
      <trkpt lat="43.94606" lon="7.11819">
        <ele>703.59997558594</ele>
        <time>2022-03-19T14:16:38.000Z</time>
      </trkpt>
      <trkpt lat="43.94606" lon="7.11819">
        <ele>703.79998779297</ele>
        <time>2022-03-19T14:16:46.000Z</time>
      </trkpt>
      <trkpt lat="43.94607" lon="7.11819">
        <ele>703.59997558594</ele>
        <time>2022-03-19T14:16:55.000Z</time>
      </trkpt>
      <trkpt lat="43.94608" lon="7.11819">
        <ele>703.59997558594</ele>
        <time>2022-03-19T14:17:03.000Z</time>
      </trkpt>
      <trkpt lat="43.94608" lon="7.11818">
        <ele>703.59997558594</ele>
        <time>2022-03-19T14:17:10.000Z</time>
      </trkpt>
      <trkpt lat="43.94609" lon="7.11818">
        <ele>703.59997558594</ele>
        <time>2022-03-19T14:17:20.000Z</time>
      </trkpt>
      <trkpt lat="43.9461" lon="7.11817">
        <ele>703.59997558594</ele>
        <time>2022-03-19T14:17:39.000Z</time>
      </trkpt>
      <trkpt lat="43.94611" lon="7.11817">
        <ele>703.59997558594</ele>
        <time>2022-03-19T14:17:47.000Z</time>
      </trkpt>
      <trkpt lat="43.94612" lon="7.11818">
        <ele>703.59997558594</ele>
        <time>2022-03-19T14:17:57.000Z</time>
      </trkpt>
      <trkpt lat="43.94616" lon="7.11818">
        <ele>703.59997558594</ele>
        <time>2022-03-19T14:18:12.000Z</time>
      </trkpt>
      <trkpt lat="43.94614" lon="7.11819">
        <ele>703.79998779297</ele>
        <time>2022-03-19T14:18:21.000Z</time>
      </trkpt>
      <trkpt lat="43.94613" lon="7.11819">
        <ele>703.59997558594</ele>
        <time>2022-03-19T14:18:28.000Z</time>
      </trkpt>
      <trkpt lat="43.94612" lon="7.11818">
        <ele>703.40002441406</ele>
        <time>2022-03-19T14:18:42.000Z</time>
      </trkpt>
      <trkpt lat="43.94613" lon="7.11815">
        <ele>704</ele>
        <time>2022-03-19T14:18:56.000Z</time>
      </trkpt>
      <trkpt lat="43.94614" lon="7.11815">
        <ele>704.59997558594</ele>
        <time>2022-03-19T14:19:05.000Z</time>
      </trkpt>
      <trkpt lat="43.94614" lon="7.11815">
        <ele>704.59997558594</ele>
        <time>2022-03-19T14:19:06.000Z</time>
      </trkpt>
      <trkpt lat="43.94614" lon="7.11818">
        <ele>704.59997558594</ele>
        <time>2022-03-19T14:19:20.000Z</time>
      </trkpt>
      <trkpt lat="43.94613" lon="7.11818">
        <ele>703.79998779297</ele>
        <time>2022-03-19T14:19:29.000Z</time>
      </trkpt>
      <trkpt lat="43.94612" lon="7.11818">
        <ele>703.59997558594</ele>
        <time>2022-03-19T14:19:32.000Z</time>
      </trkpt>
      <trkpt lat="43.94612" lon="7.11818">
        <ele>703.59997558594</ele>
        <time>2022-03-19T14:19:40.000Z</time>
      </trkpt>
      <trkpt lat="43.94612" lon="7.11818">
        <ele>704</ele>
        <time>2022-03-19T14:19:48.000Z</time>
      </trkpt>
      <trkpt lat="43.94612" lon="7.11819">
        <ele>703.59997558594</ele>
        <time>2022-03-19T14:19:59.000Z</time>
      </trkpt>
      <trkpt lat="43.94611" lon="7.1182">
        <ele>703.59997558594</ele>
        <time>2022-03-19T14:20:06.000Z</time>
      </trkpt>
      <trkpt lat="43.94612" lon="7.1182">
        <ele>703.59997558594</ele>
        <time>2022-03-19T14:20:15.000Z</time>
      </trkpt>
      <trkpt lat="43.94612" lon="7.11823">
        <ele>703.40002441406</ele>
        <time>2022-03-19T14:20:20.000Z</time>
      </trkpt>
      <trkpt lat="43.94612" lon="7.11824">
        <ele>703.40002441406</ele>
        <time>2022-03-19T14:20:26.000Z</time>
      </trkpt>
      <trkpt lat="43.94609" lon="7.11828">
        <ele>703.20001220703</ele>
        <time>2022-03-19T14:20:34.000Z</time>
      </trkpt>
      <trkpt lat="43.94608" lon="7.11832">
        <ele>703.40002441406</ele>
        <time>2022-03-19T14:20:40.000Z</time>
      </trkpt>
      <trkpt lat="43.94607" lon="7.11834">
        <ele>702.59997558594</ele>
        <time>2022-03-19T14:20:44.000Z</time>
      </trkpt>
      <trkpt lat="43.94607" lon="7.11834">
        <ele>702.40002441406</ele>
        <time>2022-03-19T14:20:47.000Z</time>
      </trkpt>
      <trkpt lat="43.94607" lon="7.11835">
        <ele>703.40002441406</ele>
        <time>2022-03-19T14:20:54.000Z</time>
      </trkpt>
      <trkpt lat="43.94606" lon="7.11838">
        <ele>703.40002441406</ele>
        <time>2022-03-19T14:20:59.000Z</time>
      </trkpt>
      <trkpt lat="43.94606" lon="7.1184">
        <ele>703.40002441406</ele>
        <time>2022-03-19T14:21:00.000Z</time>
      </trkpt>
      <trkpt lat="43.94603" lon="7.11846">
        <ele>703.40002441406</ele>
        <time>2022-03-19T14:21:03.000Z</time>
      </trkpt>
      <trkpt lat="43.94599" lon="7.11852">
        <ele>703.20001220703</ele>
        <time>2022-03-19T14:21:06.000Z</time>
      </trkpt>
      <trkpt lat="43.94593" lon="7.11856">
        <ele>703.20001220703</ele>
        <time>2022-03-19T14:21:09.000Z</time>
      </trkpt>
      <trkpt lat="43.94588" lon="7.11858">
        <ele>703</ele>
        <time>2022-03-19T14:21:11.000Z</time>
      </trkpt>
      <trkpt lat="43.94574" lon="7.11866">
        <ele>702.59997558594</ele>
        <time>2022-03-19T14:21:16.000Z</time>
      </trkpt>
      <trkpt lat="43.94557" lon="7.11874">
        <ele>702.20001220703</ele>
        <time>2022-03-19T14:21:22.000Z</time>
      </trkpt>
      <trkpt lat="43.9454" lon="7.11879">
        <ele>702.20001220703</ele>
        <time>2022-03-19T14:21:28.000Z</time>
      </trkpt>
      <trkpt lat="43.9453" lon="7.11881">
        <ele>701.59997558594</ele>
        <time>2022-03-19T14:21:31.000Z</time>
      </trkpt>
      <trkpt lat="43.94521" lon="7.11884">
        <ele>701.20001220703</ele>
        <time>2022-03-19T14:21:34.000Z</time>
      </trkpt>
      <trkpt lat="43.94514" lon="7.11882">
        <ele>701.40002441406</ele>
        <time>2022-03-19T14:21:36.000Z</time>
      </trkpt>
      <trkpt lat="43.94511" lon="7.11875">
        <ele>701.40002441406</ele>
        <time>2022-03-19T14:21:38.000Z</time>
      </trkpt>
      <trkpt lat="43.94507" lon="7.11862">
        <ele>701.40002441406</ele>
        <time>2022-03-19T14:21:41.000Z</time>
      </trkpt>
      <trkpt lat="43.94504" lon="7.11853">
        <ele>701</ele>
        <time>2022-03-19T14:21:43.000Z</time>
      </trkpt>
      <trkpt lat="43.94501" lon="7.11842">
        <ele>700.20001220703</ele>
        <time>2022-03-19T14:21:45.000Z</time>
      </trkpt>
      <trkpt lat="43.94499" lon="7.11841">
        <ele>699</ele>
        <time>2022-03-19T14:21:47.000Z</time>
      </trkpt>
      <trkpt lat="43.94499" lon="7.11842">
        <ele>698.59997558594</ele>
        <time>2022-03-19T14:21:48.000Z</time>
      </trkpt>
      <trkpt lat="43.945" lon="7.11849">
        <ele>697.79998779297</ele>
        <time>2022-03-19T14:21:50.000Z</time>
      </trkpt>
      <trkpt lat="43.94501" lon="7.11854">
        <ele>697.59997558594</ele>
        <time>2022-03-19T14:21:51.000Z</time>
      </trkpt>
      <trkpt lat="43.94501" lon="7.1186">
        <ele>697.40002441406</ele>
        <time>2022-03-19T14:21:52.000Z</time>
      </trkpt>
      <trkpt lat="43.945" lon="7.11872">
        <ele>696.40002441406</ele>
        <time>2022-03-19T14:21:54.000Z</time>
      </trkpt>
      <trkpt lat="43.945" lon="7.11877">
        <ele>695.79998779297</ele>
        <time>2022-03-19T14:21:55.000Z</time>
      </trkpt>
      <trkpt lat="43.94498" lon="7.11877">
        <ele>695</ele>
        <time>2022-03-19T14:21:56.000Z</time>
      </trkpt>
      <trkpt lat="43.94497" lon="7.11875">
        <ele>694.40002441406</ele>
        <time>2022-03-19T14:21:57.000Z</time>
      </trkpt>
      <trkpt lat="43.94496" lon="7.11868">
        <ele>693.79998779297</ele>
        <time>2022-03-19T14:21:59.000Z</time>
      </trkpt>
      <trkpt lat="43.94494" lon="7.11857">
        <ele>693.40002441406</ele>
        <time>2022-03-19T14:22:01.000Z</time>
      </trkpt>
      <trkpt lat="43.94489" lon="7.11843">
        <ele>692.40002441406</ele>
        <time>2022-03-19T14:22:03.000Z</time>
      </trkpt>
      <trkpt lat="43.94487" lon="7.11836">
        <ele>691.79998779297</ele>
        <time>2022-03-19T14:22:04.000Z</time>
      </trkpt>
      <trkpt lat="43.94484" lon="7.1183">
        <ele>690.79998779297</ele>
        <time>2022-03-19T14:22:05.000Z</time>
      </trkpt>
      <trkpt lat="43.9448" lon="7.11819">
        <ele>688.79998779297</ele>
        <time>2022-03-19T14:22:07.000Z</time>
      </trkpt>
      <trkpt lat="43.94476" lon="7.11806">
        <ele>687.20001220703</ele>
        <time>2022-03-19T14:22:09.000Z</time>
      </trkpt>
      <trkpt lat="43.94474" lon="7.11801">
        <ele>686.40002441406</ele>
        <time>2022-03-19T14:22:10.000Z</time>
      </trkpt>
      <trkpt lat="43.94473" lon="7.11795">
        <ele>685.59997558594</ele>
        <time>2022-03-19T14:22:11.000Z</time>
      </trkpt>
      <trkpt lat="43.94469" lon="7.11785">
        <ele>684</ele>
        <time>2022-03-19T14:22:13.000Z</time>
      </trkpt>
      <trkpt lat="43.94466" lon="7.1178">
        <ele>683</ele>
        <time>2022-03-19T14:22:14.000Z</time>
      </trkpt>
      <trkpt lat="43.94463" lon="7.11776">
        <ele>682.40002441406</ele>
        <time>2022-03-19T14:22:15.000Z</time>
      </trkpt>
      <trkpt lat="43.94461" lon="7.11772">
        <ele>682</ele>
        <time>2022-03-19T14:22:16.000Z</time>
      </trkpt>
      <trkpt lat="43.94459" lon="7.11766">
        <ele>680.79998779297</ele>
        <time>2022-03-19T14:22:17.000Z</time>
      </trkpt>
      <trkpt lat="43.94458" lon="7.11753">
        <ele>679.40002441406</ele>
        <time>2022-03-19T14:22:19.000Z</time>
      </trkpt>
      <trkpt lat="43.9446" lon="7.11742">
        <ele>678.20001220703</ele>
        <time>2022-03-19T14:22:21.000Z</time>
      </trkpt>
      <trkpt lat="43.94461" lon="7.11734">
        <ele>677.79998779297</ele>
        <time>2022-03-19T14:22:23.000Z</time>
      </trkpt>
      <trkpt lat="43.94461" lon="7.11723">
        <ele>677.20001220703</ele>
        <time>2022-03-19T14:22:25.000Z</time>
      </trkpt>
      <trkpt lat="43.94458" lon="7.11718">
        <ele>677</ele>
        <time>2022-03-19T14:22:26.000Z</time>
      </trkpt>
      <trkpt lat="43.94456" lon="7.11713">
        <ele>676.79998779297</ele>
        <time>2022-03-19T14:22:27.000Z</time>
      </trkpt>
      <trkpt lat="43.94455" lon="7.11707">
        <ele>676.20001220703</ele>
        <time>2022-03-19T14:22:28.000Z</time>
      </trkpt>
      <trkpt lat="43.94455" lon="7.11688">
        <ele>675.20001220703</ele>
        <time>2022-03-19T14:22:31.000Z</time>
      </trkpt>
      <trkpt lat="43.94451" lon="7.1168">
        <ele>674</ele>
        <time>2022-03-19T14:22:34.000Z</time>
      </trkpt>
      <trkpt lat="43.94441" lon="7.11678">
        <ele>673.79998779297</ele>
        <time>2022-03-19T14:22:38.000Z</time>
      </trkpt>
      <trkpt lat="43.94438" lon="7.11676">
        <ele>674.20001220703</ele>
        <time>2022-03-19T14:22:39.000Z</time>
      </trkpt>
      <trkpt lat="43.94427" lon="7.11666">
        <ele>674.59997558594</ele>
        <time>2022-03-19T14:22:43.000Z</time>
      </trkpt>
      <trkpt lat="43.94423" lon="7.11656">
        <ele>674.79998779297</ele>
        <time>2022-03-19T14:22:45.000Z</time>
      </trkpt>
      <trkpt lat="43.9442" lon="7.11645">
        <ele>674.59997558594</ele>
        <time>2022-03-19T14:22:47.000Z</time>
      </trkpt>
      <trkpt lat="43.94419" lon="7.11639">
        <ele>674</ele>
        <time>2022-03-19T14:22:48.000Z</time>
      </trkpt>
      <trkpt lat="43.94418" lon="7.11633">
        <ele>673.40002441406</ele>
        <time>2022-03-19T14:22:49.000Z</time>
      </trkpt>
      <trkpt lat="43.94417" lon="7.11627">
        <ele>672.79998779297</ele>
        <time>2022-03-19T14:22:50.000Z</time>
      </trkpt>
      <trkpt lat="43.94415" lon="7.11623">
        <ele>672.20001220703</ele>
        <time>2022-03-19T14:22:51.000Z</time>
      </trkpt>
      <trkpt lat="43.94413" lon="7.11621">
        <ele>671.59997558594</ele>
        <time>2022-03-19T14:22:52.000Z</time>
      </trkpt>
      <trkpt lat="43.94401" lon="7.11601">
        <ele>670.79998779297</ele>
        <time>2022-03-19T14:22:56.000Z</time>
      </trkpt>
      <trkpt lat="43.944" lon="7.11595">
        <ele>670.40002441406</ele>
        <time>2022-03-19T14:22:57.000Z</time>
      </trkpt>
      <trkpt lat="43.94399" lon="7.11583">
        <ele>670.20001220703</ele>
        <time>2022-03-19T14:22:59.000Z</time>
      </trkpt>
      <trkpt lat="43.94397" lon="7.11577">
        <ele>669.79998779297</ele>
        <time>2022-03-19T14:23:00.000Z</time>
      </trkpt>
      <trkpt lat="43.94395" lon="7.1157">
        <ele>669.40002441406</ele>
        <time>2022-03-19T14:23:01.000Z</time>
      </trkpt>
      <trkpt lat="43.9439" lon="7.11551">
        <ele>668.40002441406</ele>
        <time>2022-03-19T14:23:04.000Z</time>
      </trkpt>
      <trkpt lat="43.94388" lon="7.11544">
        <ele>668.20001220703</ele>
        <time>2022-03-19T14:23:05.000Z</time>
      </trkpt>
      <trkpt lat="43.94385" lon="7.11522">
        <ele>667</ele>
        <time>2022-03-19T14:23:08.000Z</time>
      </trkpt>
      <trkpt lat="43.94382" lon="7.1151">
        <ele>666.20001220703</ele>
        <time>2022-03-19T14:23:10.000Z</time>
      </trkpt>
      <trkpt lat="43.94379" lon="7.11505">
        <ele>665.79998779297</ele>
        <time>2022-03-19T14:23:11.000Z</time>
      </trkpt>
      <trkpt lat="43.9438" lon="7.11496">
        <ele>665.20001220703</ele>
        <time>2022-03-19T14:23:13.000Z</time>
      </trkpt>
      <trkpt lat="43.94386" lon="7.11489">
        <ele>665</ele>
        <time>2022-03-19T14:23:15.000Z</time>
      </trkpt>
      <trkpt lat="43.94389" lon="7.11484">
        <ele>665</ele>
        <time>2022-03-19T14:23:16.000Z</time>
      </trkpt>
      <trkpt lat="43.94389" lon="7.11475">
        <ele>664.79998779297</ele>
        <time>2022-03-19T14:23:18.000Z</time>
      </trkpt>
      <trkpt lat="43.94389" lon="7.11471">
        <ele>664.59997558594</ele>
        <time>2022-03-19T14:23:19.000Z</time>
      </trkpt>
      <trkpt lat="43.94374" lon="7.11458">
        <ele>663.20001220703</ele>
        <time>2022-03-19T14:23:22.000Z</time>
      </trkpt>
      <trkpt lat="43.94367" lon="7.1145">
        <ele>661.40002441406</ele>
        <time>2022-03-19T14:23:24.000Z</time>
      </trkpt>
      <trkpt lat="43.94364" lon="7.11446">
        <ele>660.20001220703</ele>
        <time>2022-03-19T14:23:25.000Z</time>
      </trkpt>
      <trkpt lat="43.94362" lon="7.11435">
        <ele>659.20001220703</ele>
        <time>2022-03-19T14:23:27.000Z</time>
      </trkpt>
      <trkpt lat="43.9436" lon="7.1143">
        <ele>658.79998779297</ele>
        <time>2022-03-19T14:23:28.000Z</time>
      </trkpt>
      <trkpt lat="43.94356" lon="7.11418">
        <ele>657.79998779297</ele>
        <time>2022-03-19T14:23:30.000Z</time>
      </trkpt>
      <trkpt lat="43.94357" lon="7.11413">
        <ele>657</ele>
        <time>2022-03-19T14:23:31.000Z</time>
      </trkpt>
      <trkpt lat="43.94356" lon="7.11406">
        <ele>656.20001220703</ele>
        <time>2022-03-19T14:23:32.000Z</time>
      </trkpt>
      <trkpt lat="43.94354" lon="7.11394">
        <ele>654.79998779297</ele>
        <time>2022-03-19T14:23:34.000Z</time>
      </trkpt>
      <trkpt lat="43.94355" lon="7.11388">
        <ele>654.40002441406</ele>
        <time>2022-03-19T14:23:35.000Z</time>
      </trkpt>
      <trkpt lat="43.94349" lon="7.11369">
        <ele>653.20001220703</ele>
        <time>2022-03-19T14:23:38.000Z</time>
      </trkpt>
      <trkpt lat="43.94342" lon="7.11355">
        <ele>652</ele>
        <time>2022-03-19T14:23:40.000Z</time>
      </trkpt>
      <trkpt lat="43.94338" lon="7.11347">
        <ele>651.40002441406</ele>
        <time>2022-03-19T14:23:41.000Z</time>
      </trkpt>
      <trkpt lat="43.94335" lon="7.11342">
        <ele>650.40002441406</ele>
        <time>2022-03-19T14:23:42.000Z</time>
      </trkpt>
      <trkpt lat="43.94332" lon="7.11332">
        <ele>648.59997558594</ele>
        <time>2022-03-19T14:23:45.000Z</time>
      </trkpt>
      <trkpt lat="43.94332" lon="7.11335">
        <ele>647.20001220703</ele>
        <time>2022-03-19T14:23:48.000Z</time>
      </trkpt>
      <trkpt lat="43.94332" lon="7.11338">
        <ele>646.59997558594</ele>
        <time>2022-03-19T14:23:49.000Z</time>
      </trkpt>
      <trkpt lat="43.94334" lon="7.11348">
        <ele>646.20001220703</ele>
        <time>2022-03-19T14:23:51.000Z</time>
      </trkpt>
      <trkpt lat="43.94336" lon="7.11357">
        <ele>645.40002441406</ele>
        <time>2022-03-19T14:23:53.000Z</time>
      </trkpt>
      <trkpt lat="43.94337" lon="7.1136">
        <ele>645</ele>
        <time>2022-03-19T14:23:54.000Z</time>
      </trkpt>
      <trkpt lat="43.94336" lon="7.11362">
        <ele>644.59997558594</ele>
        <time>2022-03-19T14:23:55.000Z</time>
      </trkpt>
      <trkpt lat="43.94335" lon="7.1136">
        <ele>644.40002441406</ele>
        <time>2022-03-19T14:23:56.000Z</time>
      </trkpt>
      <trkpt lat="43.94334" lon="7.11359">
        <ele>644</ele>
        <time>2022-03-19T14:23:57.000Z</time>
      </trkpt>
      <trkpt lat="43.94329" lon="7.11347">
        <ele>643.79998779297</ele>
        <time>2022-03-19T14:24:00.000Z</time>
      </trkpt>
      <trkpt lat="43.94323" lon="7.11332">
        <ele>643</ele>
        <time>2022-03-19T14:24:04.000Z</time>
      </trkpt>
      <trkpt lat="43.94321" lon="7.11337">
        <ele>642</ele>
        <time>2022-03-19T14:24:07.000Z</time>
      </trkpt>
      <trkpt lat="43.94324" lon="7.11347">
        <ele>640.79998779297</ele>
        <time>2022-03-19T14:24:09.000Z</time>
      </trkpt>
      <trkpt lat="43.94326" lon="7.11354">
        <ele>640.20001220703</ele>
        <time>2022-03-19T14:24:11.000Z</time>
      </trkpt>
      <trkpt lat="43.94325" lon="7.11357">
        <ele>640</ele>
        <time>2022-03-19T14:24:12.000Z</time>
      </trkpt>
      <trkpt lat="43.94324" lon="7.11357">
        <ele>639.59997558594</ele>
        <time>2022-03-19T14:24:13.000Z</time>
      </trkpt>
      <trkpt lat="43.94323" lon="7.11356">
        <ele>639.20001220703</ele>
        <time>2022-03-19T14:24:14.000Z</time>
      </trkpt>
      <trkpt lat="43.94323" lon="7.11356">
        <ele>638.20001220703</ele>
        <time>2022-03-19T14:24:16.000Z</time>
      </trkpt>
      <trkpt lat="43.94321" lon="7.11351">
        <ele>637.59997558594</ele>
        <time>2022-03-19T14:24:18.000Z</time>
      </trkpt>
      <trkpt lat="43.94315" lon="7.1134">
        <ele>637.59997558594</ele>
        <time>2022-03-19T14:24:21.000Z</time>
      </trkpt>
      <trkpt lat="43.94312" lon="7.11334">
        <ele>637.59997558594</ele>
        <time>2022-03-19T14:24:22.000Z</time>
      </trkpt>
      <trkpt lat="43.9431" lon="7.11327">
        <ele>637</ele>
        <time>2022-03-19T14:24:24.000Z</time>
      </trkpt>
      <trkpt lat="43.9431" lon="7.11329">
        <ele>636.40002441406</ele>
        <time>2022-03-19T14:24:25.000Z</time>
      </trkpt>
      <trkpt lat="43.9431" lon="7.11329">
        <ele>635.79998779297</ele>
        <time>2022-03-19T14:24:26.000Z</time>
      </trkpt>
      <trkpt lat="43.9431" lon="7.11332">
        <ele>635.20001220703</ele>
        <time>2022-03-19T14:24:27.000Z</time>
      </trkpt>
      <trkpt lat="43.94313" lon="7.11341">
        <ele>634.59997558594</ele>
        <time>2022-03-19T14:24:29.000Z</time>
      </trkpt>
      <trkpt lat="43.94318" lon="7.11354">
        <ele>633.40002441406</ele>
        <time>2022-03-19T14:24:32.000Z</time>
      </trkpt>
      <trkpt lat="43.94317" lon="7.11357">
        <ele>633</ele>
        <time>2022-03-19T14:24:33.000Z</time>
      </trkpt>
      <trkpt lat="43.94314" lon="7.11355">
        <ele>632</ele>
        <time>2022-03-19T14:24:35.000Z</time>
      </trkpt>
      <trkpt lat="43.94312" lon="7.11351">
        <ele>631.59997558594</ele>
        <time>2022-03-19T14:24:36.000Z</time>
      </trkpt>
      <trkpt lat="43.94303" lon="7.11335">
        <ele>630.79998779297</ele>
        <time>2022-03-19T14:24:39.000Z</time>
      </trkpt>
      <trkpt lat="43.94301" lon="7.11331">
        <ele>630.20001220703</ele>
        <time>2022-03-19T14:24:40.000Z</time>
      </trkpt>
      <trkpt lat="43.943" lon="7.11328">
        <ele>629.59997558594</ele>
        <time>2022-03-19T14:24:41.000Z</time>
      </trkpt>
      <trkpt lat="43.943" lon="7.11329">
        <ele>628.59997558594</ele>
        <time>2022-03-19T14:24:42.000Z</time>
      </trkpt>
      <trkpt lat="43.94299" lon="7.1133">
        <ele>628</ele>
        <time>2022-03-19T14:24:43.000Z</time>
      </trkpt>
      <trkpt lat="43.943" lon="7.11331">
        <ele>627.59997558594</ele>
        <time>2022-03-19T14:24:44.000Z</time>
      </trkpt>
      <trkpt lat="43.94301" lon="7.11335">
        <ele>627.40002441406</ele>
        <time>2022-03-19T14:24:45.000Z</time>
      </trkpt>
      <trkpt lat="43.94302" lon="7.1134">
        <ele>627.20001220703</ele>
        <time>2022-03-19T14:24:46.000Z</time>
      </trkpt>
      <trkpt lat="43.94308" lon="7.11351">
        <ele>626.20001220703</ele>
        <time>2022-03-19T14:24:49.000Z</time>
      </trkpt>
      <trkpt lat="43.94305" lon="7.11348">
        <ele>625.40002441406</ele>
        <time>2022-03-19T14:24:51.000Z</time>
      </trkpt>
      <trkpt lat="43.94303" lon="7.11346">
        <ele>625</ele>
        <time>2022-03-19T14:24:52.000Z</time>
      </trkpt>
      <trkpt lat="43.94295" lon="7.11334">
        <ele>624.40002441406</ele>
        <time>2022-03-19T14:24:55.000Z</time>
      </trkpt>
      <trkpt lat="43.94294" lon="7.11331">
        <ele>624</ele>
        <time>2022-03-19T14:24:56.000Z</time>
      </trkpt>
      <trkpt lat="43.94293" lon="7.11332">
        <ele>623.59997558594</ele>
        <time>2022-03-19T14:24:57.000Z</time>
      </trkpt>
      <trkpt lat="43.94293" lon="7.11333">
        <ele>622.59997558594</ele>
        <time>2022-03-19T14:24:58.000Z</time>
      </trkpt>
      <trkpt lat="43.94293" lon="7.11334">
        <ele>622</ele>
        <time>2022-03-19T14:24:59.000Z</time>
      </trkpt>
      <trkpt lat="43.94295" lon="7.11337">
        <ele>621.40002441406</ele>
        <time>2022-03-19T14:25:00.000Z</time>
      </trkpt>
      <trkpt lat="43.94297" lon="7.11342">
        <ele>621</ele>
        <time>2022-03-19T14:25:01.000Z</time>
      </trkpt>
      <trkpt lat="43.94301" lon="7.11349">
        <ele>620.40002441406</ele>
        <time>2022-03-19T14:25:03.000Z</time>
      </trkpt>
      <trkpt lat="43.943" lon="7.11352">
        <ele>619.59997558594</ele>
        <time>2022-03-19T14:25:05.000Z</time>
      </trkpt>
      <trkpt lat="43.94299" lon="7.11353">
        <ele>619.40002441406</ele>
        <time>2022-03-19T14:25:06.000Z</time>
      </trkpt>
      <trkpt lat="43.94297" lon="7.11351">
        <ele>618.79998779297</ele>
        <time>2022-03-19T14:25:09.000Z</time>
      </trkpt>
      <trkpt lat="43.94295" lon="7.11349">
        <ele>618.79998779297</ele>
        <time>2022-03-19T14:25:10.000Z</time>
      </trkpt>
      <trkpt lat="43.94289" lon="7.11341">
        <ele>618.20001220703</ele>
        <time>2022-03-19T14:25:13.000Z</time>
      </trkpt>
      <trkpt lat="43.94289" lon="7.11343">
        <ele>617.79998779297</ele>
        <time>2022-03-19T14:25:14.000Z</time>
      </trkpt>
      <trkpt lat="43.9429" lon="7.11346">
        <ele>617</ele>
        <time>2022-03-19T14:25:17.000Z</time>
      </trkpt>
      <trkpt lat="43.94291" lon="7.1135">
        <ele>616.79998779297</ele>
        <time>2022-03-19T14:25:18.000Z</time>
      </trkpt>
      <trkpt lat="43.94295" lon="7.11359">
        <ele>615.79998779297</ele>
        <time>2022-03-19T14:25:21.000Z</time>
      </trkpt>
      <trkpt lat="43.94294" lon="7.11357">
        <ele>615.40002441406</ele>
        <time>2022-03-19T14:25:22.000Z</time>
      </trkpt>
      <trkpt lat="43.94294" lon="7.1136">
        <ele>615</ele>
        <time>2022-03-19T14:25:23.000Z</time>
      </trkpt>
      <trkpt lat="43.94293" lon="7.1136">
        <ele>614.79998779297</ele>
        <time>2022-03-19T14:25:24.000Z</time>
      </trkpt>
      <trkpt lat="43.94291" lon="7.11359">
        <ele>614.40002441406</ele>
        <time>2022-03-19T14:25:26.000Z</time>
      </trkpt>
      <trkpt lat="43.94284" lon="7.11349">
        <ele>613.79998779297</ele>
        <time>2022-03-19T14:25:30.000Z</time>
      </trkpt>
      <trkpt lat="43.94282" lon="7.11347">
        <ele>613.40002441406</ele>
        <time>2022-03-19T14:25:31.000Z</time>
      </trkpt>
      <trkpt lat="43.94282" lon="7.11348">
        <ele>613</ele>
        <time>2022-03-19T14:25:33.000Z</time>
      </trkpt>
      <trkpt lat="43.94283" lon="7.11351">
        <ele>612.59997558594</ele>
        <time>2022-03-19T14:25:34.000Z</time>
      </trkpt>
      <trkpt lat="43.94284" lon="7.11353">
        <ele>612.20001220703</ele>
        <time>2022-03-19T14:25:35.000Z</time>
      </trkpt>
      <trkpt lat="43.94287" lon="7.11361">
        <ele>612</ele>
        <time>2022-03-19T14:25:37.000Z</time>
      </trkpt>
      <trkpt lat="43.94289" lon="7.11365">
        <ele>611.59997558594</ele>
        <time>2022-03-19T14:25:39.000Z</time>
      </trkpt>
      <trkpt lat="43.94288" lon="7.11366">
        <ele>611.40002441406</ele>
        <time>2022-03-19T14:25:40.000Z</time>
      </trkpt>
      <trkpt lat="43.94287" lon="7.11367">
        <ele>611.20001220703</ele>
        <time>2022-03-19T14:25:41.000Z</time>
      </trkpt>
      <trkpt lat="43.94283" lon="7.11363">
        <ele>610.40002441406</ele>
        <time>2022-03-19T14:25:44.000Z</time>
      </trkpt>
      <trkpt lat="43.94281" lon="7.1136">
        <ele>609.79998779297</ele>
        <time>2022-03-19T14:25:45.000Z</time>
      </trkpt>
      <trkpt lat="43.94278" lon="7.11356">
        <ele>609</ele>
        <time>2022-03-19T14:25:47.000Z</time>
      </trkpt>
      <trkpt lat="43.94278" lon="7.11358">
        <ele>608.59997558594</ele>
        <time>2022-03-19T14:25:48.000Z</time>
      </trkpt>
      <trkpt lat="43.94279" lon="7.11361">
        <ele>607.79998779297</ele>
        <time>2022-03-19T14:25:50.000Z</time>
      </trkpt>
      <trkpt lat="43.94283" lon="7.11368">
        <ele>607.20001220703</ele>
        <time>2022-03-19T14:25:52.000Z</time>
      </trkpt>
      <trkpt lat="43.94291" lon="7.1138">
        <ele>606.20001220703</ele>
        <time>2022-03-19T14:25:55.000Z</time>
      </trkpt>
      <trkpt lat="43.94294" lon="7.11385">
        <ele>605.79998779297</ele>
        <time>2022-03-19T14:25:56.000Z</time>
      </trkpt>
      <trkpt lat="43.94297" lon="7.11388">
        <ele>605.59997558594</ele>
        <time>2022-03-19T14:25:57.000Z</time>
      </trkpt>
      <trkpt lat="43.94297" lon="7.11396">
        <ele>605</ele>
        <time>2022-03-19T14:25:59.000Z</time>
      </trkpt>
      <trkpt lat="43.94295" lon="7.11399">
        <ele>604.59997558594</ele>
        <time>2022-03-19T14:26:00.000Z</time>
      </trkpt>
      <trkpt lat="43.94293" lon="7.11408">
        <ele>604</ele>
        <time>2022-03-19T14:26:02.000Z</time>
      </trkpt>
      <trkpt lat="43.94291" lon="7.11413">
        <ele>603.59997558594</ele>
        <time>2022-03-19T14:26:03.000Z</time>
      </trkpt>
      <trkpt lat="43.94292" lon="7.11419">
        <ele>602.79998779297</ele>
        <time>2022-03-19T14:26:05.000Z</time>
      </trkpt>
      <trkpt lat="43.9429" lon="7.11421">
        <ele>602.40002441406</ele>
        <time>2022-03-19T14:26:06.000Z</time>
      </trkpt>
      <trkpt lat="43.94289" lon="7.11417">
        <ele>601.59997558594</ele>
        <time>2022-03-19T14:26:08.000Z</time>
      </trkpt>
      <trkpt lat="43.94289" lon="7.11414">
        <ele>601.40002441406</ele>
        <time>2022-03-19T14:26:09.000Z</time>
      </trkpt>
      <trkpt lat="43.9429" lon="7.11412">
        <ele>601.20001220703</ele>
        <time>2022-03-19T14:26:10.000Z</time>
      </trkpt>
      <trkpt lat="43.94292" lon="7.11398">
        <ele>600.59997558594</ele>
        <time>2022-03-19T14:26:13.000Z</time>
      </trkpt>
      <trkpt lat="43.9429" lon="7.11394">
        <ele>600.40002441406</ele>
        <time>2022-03-19T14:26:14.000Z</time>
      </trkpt>
      <trkpt lat="43.94288" lon="7.1139">
        <ele>600.20001220703</ele>
        <time>2022-03-19T14:26:15.000Z</time>
      </trkpt>
      <trkpt lat="43.9428" lon="7.11384">
        <ele>599.79998779297</ele>
        <time>2022-03-19T14:26:17.000Z</time>
      </trkpt>
      <trkpt lat="43.94272" lon="7.11378">
        <ele>599</ele>
        <time>2022-03-19T14:26:19.000Z</time>
      </trkpt>
      <trkpt lat="43.94266" lon="7.11377">
        <ele>598.20001220703</ele>
        <time>2022-03-19T14:26:21.000Z</time>
      </trkpt>
      <trkpt lat="43.94265" lon="7.11373">
        <ele>597.40002441406</ele>
        <time>2022-03-19T14:26:22.000Z</time>
      </trkpt>
      <trkpt lat="43.94264" lon="7.11368">
        <ele>597</ele>
        <time>2022-03-19T14:26:24.000Z</time>
      </trkpt>
      <trkpt lat="43.9426" lon="7.11361">
        <ele>596.79998779297</ele>
        <time>2022-03-19T14:26:27.000Z</time>
      </trkpt>
      <trkpt lat="43.94263" lon="7.11356">
        <ele>596.20001220703</ele>
        <time>2022-03-19T14:26:29.000Z</time>
      </trkpt>
      <trkpt lat="43.94263" lon="7.11347">
        <ele>595.79998779297</ele>
        <time>2022-03-19T14:26:31.000Z</time>
      </trkpt>
      <trkpt lat="43.94263" lon="7.11343">
        <ele>595.59997558594</ele>
        <time>2022-03-19T14:26:32.000Z</time>
      </trkpt>
      <trkpt lat="43.9426" lon="7.11341">
        <ele>595.40002441406</ele>
        <time>2022-03-19T14:26:33.000Z</time>
      </trkpt>
      <trkpt lat="43.94259" lon="7.11338">
        <ele>595.20001220703</ele>
        <time>2022-03-19T14:26:34.000Z</time>
      </trkpt>
      <trkpt lat="43.94258" lon="7.11333">
        <ele>595</ele>
        <time>2022-03-19T14:26:36.000Z</time>
      </trkpt>
      <trkpt lat="43.94258" lon="7.1133">
        <ele>595</ele>
        <time>2022-03-19T14:26:37.000Z</time>
      </trkpt>
      <trkpt lat="43.94257" lon="7.11329">
        <ele>595</ele>
        <time>2022-03-19T14:26:38.000Z</time>
      </trkpt>
      <trkpt lat="43.94254" lon="7.11328">
        <ele>594.59997558594</ele>
        <time>2022-03-19T14:26:42.000Z</time>
      </trkpt>
      <trkpt lat="43.94243" lon="7.11318">
        <ele>594.59997558594</ele>
        <time>2022-03-19T14:26:47.000Z</time>
      </trkpt>
      <trkpt lat="43.94241" lon="7.11313">
        <ele>594.40002441406</ele>
        <time>2022-03-19T14:26:48.000Z</time>
      </trkpt>
      <trkpt lat="43.94237" lon="7.11307">
        <ele>594.40002441406</ele>
        <time>2022-03-19T14:26:50.000Z</time>
      </trkpt>
      <trkpt lat="43.94227" lon="7.11305">
        <ele>594</ele>
        <time>2022-03-19T14:26:53.000Z</time>
      </trkpt>
      <trkpt lat="43.9421" lon="7.11297">
        <ele>593.20001220703</ele>
        <time>2022-03-19T14:26:57.000Z</time>
      </trkpt>
      <trkpt lat="43.94207" lon="7.11294">
        <ele>593</ele>
        <time>2022-03-19T14:26:58.000Z</time>
      </trkpt>
      <trkpt lat="43.94205" lon="7.1129">
        <ele>592.79998779297</ele>
        <time>2022-03-19T14:26:59.000Z</time>
      </trkpt>
      <trkpt lat="43.94201" lon="7.11287">
        <ele>592.20001220703</ele>
        <time>2022-03-19T14:27:01.000Z</time>
      </trkpt>
      <trkpt lat="43.94199" lon="7.11286">
        <ele>591.59997558594</ele>
        <time>2022-03-19T14:27:02.000Z</time>
      </trkpt>
      <trkpt lat="43.94196" lon="7.11281">
        <ele>590</ele>
        <time>2022-03-19T14:27:04.000Z</time>
      </trkpt>
      <trkpt lat="43.94195" lon="7.11281">
        <ele>589.40002441406</ele>
        <time>2022-03-19T14:27:05.000Z</time>
      </trkpt>
      <trkpt lat="43.94195" lon="7.11281">
        <ele>589</ele>
        <time>2022-03-19T14:27:06.000Z</time>
      </trkpt>
      <trkpt lat="43.94194" lon="7.11283">
        <ele>588.20001220703</ele>
        <time>2022-03-19T14:27:07.000Z</time>
      </trkpt>
      <trkpt lat="43.94193" lon="7.11285">
        <ele>587.79998779297</ele>
        <time>2022-03-19T14:27:08.000Z</time>
      </trkpt>
      <trkpt lat="43.94191" lon="7.11286">
        <ele>587.40002441406</ele>
        <time>2022-03-19T14:27:09.000Z</time>
      </trkpt>
      <trkpt lat="43.94189" lon="7.11277">
        <ele>586.59997558594</ele>
        <time>2022-03-19T14:27:12.000Z</time>
      </trkpt>
      <trkpt lat="43.94185" lon="7.11269">
        <ele>585.59997558594</ele>
        <time>2022-03-19T14:27:15.000Z</time>
      </trkpt>
      <trkpt lat="43.94182" lon="7.11277">
        <ele>584.20001220703</ele>
        <time>2022-03-19T14:27:18.000Z</time>
      </trkpt>
      <trkpt lat="43.9418" lon="7.11286">
        <ele>583.20001220703</ele>
        <time>2022-03-19T14:27:20.000Z</time>
      </trkpt>
      <trkpt lat="43.94179" lon="7.11284">
        <ele>582.59997558594</ele>
        <time>2022-03-19T14:27:21.000Z</time>
      </trkpt>
      <trkpt lat="43.94178" lon="7.11282">
        <ele>582.20001220703</ele>
        <time>2022-03-19T14:27:22.000Z</time>
      </trkpt>
      <trkpt lat="43.94178" lon="7.11272">
        <ele>581.79998779297</ele>
        <time>2022-03-19T14:27:24.000Z</time>
      </trkpt>
      <trkpt lat="43.94177" lon="7.11266">
        <ele>581.59997558594</ele>
        <time>2022-03-19T14:27:25.000Z</time>
      </trkpt>
      <trkpt lat="43.94176" lon="7.11253">
        <ele>581</ele>
        <time>2022-03-19T14:27:27.000Z</time>
      </trkpt>
      <trkpt lat="43.94176" lon="7.1125">
        <ele>580.59997558594</ele>
        <time>2022-03-19T14:27:28.000Z</time>
      </trkpt>
      <trkpt lat="43.94174" lon="7.1125">
        <ele>580</ele>
        <time>2022-03-19T14:27:29.000Z</time>
      </trkpt>
      <trkpt lat="43.94173" lon="7.11252">
        <ele>579.59997558594</ele>
        <time>2022-03-19T14:27:30.000Z</time>
      </trkpt>
      <trkpt lat="43.9417" lon="7.11258">
        <ele>579</ele>
        <time>2022-03-19T14:27:31.000Z</time>
      </trkpt>
      <trkpt lat="43.94166" lon="7.1127">
        <ele>578.20001220703</ele>
        <time>2022-03-19T14:27:33.000Z</time>
      </trkpt>
      <trkpt lat="43.94161" lon="7.11284">
        <ele>577.59997558594</ele>
        <time>2022-03-19T14:27:35.000Z</time>
      </trkpt>
      <trkpt lat="43.9416" lon="7.11289">
        <ele>576.79998779297</ele>
        <time>2022-03-19T14:27:36.000Z</time>
      </trkpt>
      <trkpt lat="43.94158" lon="7.1129">
        <ele>576.40002441406</ele>
        <time>2022-03-19T14:27:37.000Z</time>
      </trkpt>
      <trkpt lat="43.94156" lon="7.11288">
        <ele>575.79998779297</ele>
        <time>2022-03-19T14:27:38.000Z</time>
      </trkpt>
      <trkpt lat="43.94156" lon="7.1128">
        <ele>574.40002441406</ele>
        <time>2022-03-19T14:27:40.000Z</time>
      </trkpt>
      <trkpt lat="43.94156" lon="7.11274">
        <ele>574</ele>
        <time>2022-03-19T14:27:41.000Z</time>
      </trkpt>
      <trkpt lat="43.94156" lon="7.11268">
        <ele>573.40002441406</ele>
        <time>2022-03-19T14:27:42.000Z</time>
      </trkpt>
      <trkpt lat="43.94156" lon="7.11259">
        <ele>573</ele>
        <time>2022-03-19T14:27:43.000Z</time>
      </trkpt>
      <trkpt lat="43.94156" lon="7.11249">
        <ele>572.20001220703</ele>
        <time>2022-03-19T14:27:44.000Z</time>
      </trkpt>
      <trkpt lat="43.94157" lon="7.11239">
        <ele>571.59997558594</ele>
        <time>2022-03-19T14:27:45.000Z</time>
      </trkpt>
      <trkpt lat="43.94158" lon="7.11222">
        <ele>570</ele>
        <time>2022-03-19T14:27:47.000Z</time>
      </trkpt>
      <trkpt lat="43.94158" lon="7.11212">
        <ele>569</ele>
        <time>2022-03-19T14:27:48.000Z</time>
      </trkpt>
      <trkpt lat="43.94159" lon="7.11198">
        <ele>567.59997558594</ele>
        <time>2022-03-19T14:27:50.000Z</time>
      </trkpt>
      <trkpt lat="43.94159" lon="7.11197">
        <ele>567.20001220703</ele>
        <time>2022-03-19T14:27:51.000Z</time>
      </trkpt>
      <trkpt lat="43.94156" lon="7.112">
        <ele>566.59997558594</ele>
        <time>2022-03-19T14:27:53.000Z</time>
      </trkpt>
      <trkpt lat="43.94155" lon="7.11204">
        <ele>566</ele>
        <time>2022-03-19T14:27:54.000Z</time>
      </trkpt>
      <trkpt lat="43.9415" lon="7.11214">
        <ele>565</ele>
        <time>2022-03-19T14:27:56.000Z</time>
      </trkpt>
      <trkpt lat="43.94148" lon="7.11218">
        <ele>564.59997558594</ele>
        <time>2022-03-19T14:27:57.000Z</time>
      </trkpt>
      <trkpt lat="43.94146" lon="7.1122">
        <ele>564.20001220703</ele>
        <time>2022-03-19T14:27:58.000Z</time>
      </trkpt>
      <trkpt lat="43.94145" lon="7.1122">
        <ele>563.79998779297</ele>
        <time>2022-03-19T14:27:59.000Z</time>
      </trkpt>
      <trkpt lat="43.94144" lon="7.11216">
        <ele>563.40002441406</ele>
        <time>2022-03-19T14:28:01.000Z</time>
      </trkpt>
      <trkpt lat="43.94145" lon="7.11207">
        <ele>562.59997558594</ele>
        <time>2022-03-19T14:28:04.000Z</time>
      </trkpt>
      <trkpt lat="43.94145" lon="7.11198">
        <ele>562.40002441406</ele>
        <time>2022-03-19T14:28:06.000Z</time>
      </trkpt>
      <trkpt lat="43.94145" lon="7.1119">
        <ele>561.59997558594</ele>
        <time>2022-03-19T14:28:09.000Z</time>
      </trkpt>
      <trkpt lat="43.94145" lon="7.11191">
        <ele>561.20001220703</ele>
        <time>2022-03-19T14:28:10.000Z</time>
      </trkpt>
      <trkpt lat="43.94142" lon="7.11196">
        <ele>560</ele>
        <time>2022-03-19T14:28:12.000Z</time>
      </trkpt>
      <trkpt lat="43.9414" lon="7.112">
        <ele>559.59997558594</ele>
        <time>2022-03-19T14:28:13.000Z</time>
      </trkpt>
      <trkpt lat="43.94137" lon="7.11205">
        <ele>559.20001220703</ele>
        <time>2022-03-19T14:28:14.000Z</time>
      </trkpt>
      <trkpt lat="43.94136" lon="7.11208">
        <ele>558.79998779297</ele>
        <time>2022-03-19T14:28:15.000Z</time>
      </trkpt>
      <trkpt lat="43.94134" lon="7.11207">
        <ele>558.40002441406</ele>
        <time>2022-03-19T14:28:16.000Z</time>
      </trkpt>
      <trkpt lat="43.94133" lon="7.11204">
        <ele>558</ele>
        <time>2022-03-19T14:28:17.000Z</time>
      </trkpt>
      <trkpt lat="43.94132" lon="7.11201">
        <ele>557.59997558594</ele>
        <time>2022-03-19T14:28:18.000Z</time>
      </trkpt>
      <trkpt lat="43.94126" lon="7.11197">
        <ele>556.79998779297</ele>
        <time>2022-03-19T14:28:21.000Z</time>
      </trkpt>
      <trkpt lat="43.94125" lon="7.11196">
        <ele>556.40002441406</ele>
        <time>2022-03-19T14:28:22.000Z</time>
      </trkpt>
      <trkpt lat="43.9412" lon="7.11191">
        <ele>554.59997558594</ele>
        <time>2022-03-19T14:28:24.000Z</time>
      </trkpt>
      <trkpt lat="43.94121" lon="7.11185">
        <ele>553.59997558594</ele>
        <time>2022-03-19T14:28:25.000Z</time>
      </trkpt>
      <trkpt lat="43.94121" lon="7.11179">
        <ele>552.79998779297</ele>
        <time>2022-03-19T14:28:26.000Z</time>
      </trkpt>
      <trkpt lat="43.94121" lon="7.11174">
        <ele>551.79998779297</ele>
        <time>2022-03-19T14:28:27.000Z</time>
      </trkpt>
      <trkpt lat="43.9412" lon="7.11174">
        <ele>550</ele>
        <time>2022-03-19T14:28:29.000Z</time>
      </trkpt>
      <trkpt lat="43.94117" lon="7.1118">
        <ele>548.59997558594</ele>
        <time>2022-03-19T14:28:31.000Z</time>
      </trkpt>
      <trkpt lat="43.94114" lon="7.11185">
        <ele>548</ele>
        <time>2022-03-19T14:28:32.000Z</time>
      </trkpt>
      <trkpt lat="43.94113" lon="7.1119">
        <ele>547.59997558594</ele>
        <time>2022-03-19T14:28:33.000Z</time>
      </trkpt>
      <trkpt lat="43.94112" lon="7.11186">
        <ele>546.79998779297</ele>
        <time>2022-03-19T14:28:35.000Z</time>
      </trkpt>
      <trkpt lat="43.94112" lon="7.11183">
        <ele>546.59997558594</ele>
        <time>2022-03-19T14:28:36.000Z</time>
      </trkpt>
      <trkpt lat="43.94111" lon="7.11164">
        <ele>545.79998779297</ele>
        <time>2022-03-19T14:28:39.000Z</time>
      </trkpt>
      <trkpt lat="43.94111" lon="7.11157">
        <ele>545.40002441406</ele>
        <time>2022-03-19T14:28:40.000Z</time>
      </trkpt>
      <trkpt lat="43.9411" lon="7.1114">
        <ele>543.79998779297</ele>
        <time>2022-03-19T14:28:42.000Z</time>
      </trkpt>
      <trkpt lat="43.9411" lon="7.11129">
        <ele>542.20001220703</ele>
        <time>2022-03-19T14:28:44.000Z</time>
      </trkpt>
      <trkpt lat="43.94108" lon="7.11127">
        <ele>541</ele>
        <time>2022-03-19T14:28:47.000Z</time>
      </trkpt>
      <trkpt lat="43.94104" lon="7.11137">
        <ele>540.59997558594</ele>
        <time>2022-03-19T14:28:50.000Z</time>
      </trkpt>
      <trkpt lat="43.94102" lon="7.11143">
        <ele>540</ele>
        <time>2022-03-19T14:28:51.000Z</time>
      </trkpt>
      <trkpt lat="43.94097" lon="7.11161">
        <ele>538.40002441406</ele>
        <time>2022-03-19T14:28:53.000Z</time>
      </trkpt>
      <trkpt lat="43.94094" lon="7.11168">
        <ele>537.40002441406</ele>
        <time>2022-03-19T14:28:54.000Z</time>
      </trkpt>
      <trkpt lat="43.94091" lon="7.11171">
        <ele>535.59997558594</ele>
        <time>2022-03-19T14:28:56.000Z</time>
      </trkpt>
      <trkpt lat="43.94088" lon="7.11153">
        <ele>534.79998779297</ele>
        <time>2022-03-19T14:28:59.000Z</time>
      </trkpt>
      <trkpt lat="43.94087" lon="7.11141">
        <ele>534.40002441406</ele>
        <time>2022-03-19T14:29:00.000Z</time>
      </trkpt>
      <trkpt lat="43.94084" lon="7.11122">
        <ele>532.59997558594</ele>
        <time>2022-03-19T14:29:02.000Z</time>
      </trkpt>
      <trkpt lat="43.94082" lon="7.11113">
        <ele>531.59997558594</ele>
        <time>2022-03-19T14:29:03.000Z</time>
      </trkpt>
      <trkpt lat="43.94081" lon="7.11101">
        <ele>530.59997558594</ele>
        <time>2022-03-19T14:29:04.000Z</time>
      </trkpt>
      <trkpt lat="43.94078" lon="7.11086">
        <ele>529</ele>
        <time>2022-03-19T14:29:06.000Z</time>
      </trkpt>
      <trkpt lat="43.94075" lon="7.11088">
        <ele>528.20001220703</ele>
        <time>2022-03-19T14:29:08.000Z</time>
      </trkpt>
      <trkpt lat="43.94073" lon="7.11094">
        <ele>527.59997558594</ele>
        <time>2022-03-19T14:29:09.000Z</time>
      </trkpt>
      <trkpt lat="43.94068" lon="7.11107">
        <ele>526.79998779297</ele>
        <time>2022-03-19T14:29:11.000Z</time>
      </trkpt>
      <trkpt lat="43.94066" lon="7.11115">
        <ele>526.20001220703</ele>
        <time>2022-03-19T14:29:12.000Z</time>
      </trkpt>
      <trkpt lat="43.94065" lon="7.1112">
        <ele>525.20001220703</ele>
        <time>2022-03-19T14:29:13.000Z</time>
      </trkpt>
      <trkpt lat="43.94063" lon="7.11119">
        <ele>524.79998779297</ele>
        <time>2022-03-19T14:29:14.000Z</time>
      </trkpt>
      <trkpt lat="43.9406" lon="7.11107">
        <ele>523.40002441406</ele>
        <time>2022-03-19T14:29:16.000Z</time>
      </trkpt>
      <trkpt lat="43.94058" lon="7.11091">
        <ele>522.79998779297</ele>
        <time>2022-03-19T14:29:18.000Z</time>
      </trkpt>
      <trkpt lat="43.94056" lon="7.11082">
        <ele>522.20001220703</ele>
        <time>2022-03-19T14:29:19.000Z</time>
      </trkpt>
      <trkpt lat="43.94055" lon="7.11073">
        <ele>521.79998779297</ele>
        <time>2022-03-19T14:29:20.000Z</time>
      </trkpt>
      <trkpt lat="43.94054" lon="7.11066">
        <ele>521</ele>
        <time>2022-03-19T14:29:21.000Z</time>
      </trkpt>
      <trkpt lat="43.94052" lon="7.11059">
        <ele>519.79998779297</ele>
        <time>2022-03-19T14:29:23.000Z</time>
      </trkpt>
      <trkpt lat="43.9405" lon="7.1106">
        <ele>519.20001220703</ele>
        <time>2022-03-19T14:29:24.000Z</time>
      </trkpt>
      <trkpt lat="43.94048" lon="7.11063">
        <ele>518.59997558594</ele>
        <time>2022-03-19T14:29:25.000Z</time>
      </trkpt>
      <trkpt lat="43.94046" lon="7.11067">
        <ele>518.40002441406</ele>
        <time>2022-03-19T14:29:26.000Z</time>
      </trkpt>
      <trkpt lat="43.94041" lon="7.11077">
        <ele>517.20001220703</ele>
        <time>2022-03-19T14:29:28.000Z</time>
      </trkpt>
      <trkpt lat="43.94039" lon="7.11085">
        <ele>516.79998779297</ele>
        <time>2022-03-19T14:29:29.000Z</time>
      </trkpt>
      <trkpt lat="43.94036" lon="7.11087">
        <ele>516.20001220703</ele>
        <time>2022-03-19T14:29:30.000Z</time>
      </trkpt>
      <trkpt lat="43.94034" lon="7.11084">
        <ele>515.59997558594</ele>
        <time>2022-03-19T14:29:31.000Z</time>
      </trkpt>
      <trkpt lat="43.94033" lon="7.11078">
        <ele>515.20001220703</ele>
        <time>2022-03-19T14:29:32.000Z</time>
      </trkpt>
      <trkpt lat="43.94029" lon="7.11065">
        <ele>514.20001220703</ele>
        <time>2022-03-19T14:29:34.000Z</time>
      </trkpt>
      <trkpt lat="43.94024" lon="7.11046">
        <ele>513.20001220703</ele>
        <time>2022-03-19T14:29:36.000Z</time>
      </trkpt>
      <trkpt lat="43.94021" lon="7.11038">
        <ele>512.79998779297</ele>
        <time>2022-03-19T14:29:37.000Z</time>
      </trkpt>
      <trkpt lat="43.94016" lon="7.1102">
        <ele>511.20001220703</ele>
        <time>2022-03-19T14:29:39.000Z</time>
      </trkpt>
      <trkpt lat="43.94014" lon="7.11011">
        <ele>510</ele>
        <time>2022-03-19T14:29:40.000Z</time>
      </trkpt>
      <trkpt lat="43.94013" lon="7.11006">
        <ele>508.79998779297</ele>
        <time>2022-03-19T14:29:41.000Z</time>
      </trkpt>
      <trkpt lat="43.94011" lon="7.11006">
        <ele>507.60000610352</ele>
        <time>2022-03-19T14:29:42.000Z</time>
      </trkpt>
      <trkpt lat="43.94009" lon="7.11009">
        <ele>506.79998779297</ele>
        <time>2022-03-19T14:29:43.000Z</time>
      </trkpt>
      <trkpt lat="43.94007" lon="7.11014">
        <ele>506.39999389648</ele>
        <time>2022-03-19T14:29:44.000Z</time>
      </trkpt>
      <trkpt lat="43.94005" lon="7.11026">
        <ele>506.39999389648</ele>
        <time>2022-03-19T14:29:46.000Z</time>
      </trkpt>
      <trkpt lat="43.93999" lon="7.11046">
        <ele>505.20001220703</ele>
        <time>2022-03-19T14:29:49.000Z</time>
      </trkpt>
      <trkpt lat="43.93997" lon="7.11047">
        <ele>504.60000610352</ele>
        <time>2022-03-19T14:29:50.000Z</time>
      </trkpt>
      <trkpt lat="43.93995" lon="7.11044">
        <ele>504.20001220703</ele>
        <time>2022-03-19T14:29:51.000Z</time>
      </trkpt>
      <trkpt lat="43.93992" lon="7.11041">
        <ele>503.79998779297</ele>
        <time>2022-03-19T14:29:52.000Z</time>
      </trkpt>
      <trkpt lat="43.93986" lon="7.11031">
        <ele>502.79998779297</ele>
        <time>2022-03-19T14:29:54.000Z</time>
      </trkpt>
      <trkpt lat="43.93982" lon="7.11025">
        <ele>502</ele>
        <time>2022-03-19T14:29:56.000Z</time>
      </trkpt>
      <trkpt lat="43.93979" lon="7.11031">
        <ele>501.39999389648</ele>
        <time>2022-03-19T14:29:58.000Z</time>
      </trkpt>
      <trkpt lat="43.93971" lon="7.11047">
        <ele>500</ele>
        <time>2022-03-19T14:30:01.000Z</time>
      </trkpt>
      <trkpt lat="43.93966" lon="7.11044">
        <ele>498.79998779297</ele>
        <time>2022-03-19T14:30:03.000Z</time>
      </trkpt>
      <trkpt lat="43.93963" lon="7.11033">
        <ele>497.79998779297</ele>
        <time>2022-03-19T14:30:05.000Z</time>
      </trkpt>
      <trkpt lat="43.93962" lon="7.11028">
        <ele>497.39999389648</ele>
        <time>2022-03-19T14:30:06.000Z</time>
      </trkpt>
      <trkpt lat="43.9396" lon="7.11023">
        <ele>496.20001220703</ele>
        <time>2022-03-19T14:30:08.000Z</time>
      </trkpt>
      <trkpt lat="43.93958" lon="7.11025">
        <ele>495.79998779297</ele>
        <time>2022-03-19T14:30:09.000Z</time>
      </trkpt>
      <trkpt lat="43.93953" lon="7.11034">
        <ele>494.79998779297</ele>
        <time>2022-03-19T14:30:11.000Z</time>
      </trkpt>
      <trkpt lat="43.9395" lon="7.1104">
        <ele>494.39999389648</ele>
        <time>2022-03-19T14:30:12.000Z</time>
      </trkpt>
      <trkpt lat="43.93946" lon="7.11044">
        <ele>494.20001220703</ele>
        <time>2022-03-19T14:30:13.000Z</time>
      </trkpt>
      <trkpt lat="43.93942" lon="7.11049">
        <ele>493.60000610352</ele>
        <time>2022-03-19T14:30:14.000Z</time>
      </trkpt>
      <trkpt lat="43.9394" lon="7.11057">
        <ele>492.60000610352</ele>
        <time>2022-03-19T14:30:16.000Z</time>
      </trkpt>
      <trkpt lat="43.93943" lon="7.11062">
        <ele>491.60000610352</ele>
        <time>2022-03-19T14:30:18.000Z</time>
      </trkpt>
      <trkpt lat="43.93943" lon="7.11068">
        <ele>491</ele>
        <time>2022-03-19T14:30:19.000Z</time>
      </trkpt>
      <trkpt lat="43.93943" lon="7.11069">
        <ele>490.20001220703</ele>
        <time>2022-03-19T14:30:20.000Z</time>
      </trkpt>
      <trkpt lat="43.93941" lon="7.11073">
        <ele>489.60000610352</ele>
        <time>2022-03-19T14:30:22.000Z</time>
      </trkpt>
      <trkpt lat="43.93939" lon="7.11075">
        <ele>489.20001220703</ele>
        <time>2022-03-19T14:30:23.000Z</time>
      </trkpt>
      <trkpt lat="43.93936" lon="7.11074">
        <ele>488.20001220703</ele>
        <time>2022-03-19T14:30:25.000Z</time>
      </trkpt>
      <trkpt lat="43.93936" lon="7.11074">
        <ele>487.60000610352</ele>
        <time>2022-03-19T14:30:26.000Z</time>
      </trkpt>
      <trkpt lat="43.9394" lon="7.11076">
        <ele>486.60000610352</ele>
        <time>2022-03-19T14:30:29.000Z</time>
      </trkpt>
      <trkpt lat="43.93942" lon="7.11077">
        <ele>486.39999389648</ele>
        <time>2022-03-19T14:30:30.000Z</time>
      </trkpt>
      <trkpt lat="43.93939" lon="7.11081">
        <ele>485.79998779297</ele>
        <time>2022-03-19T14:30:32.000Z</time>
      </trkpt>
      <trkpt lat="43.93937" lon="7.1108">
        <ele>485.60000610352</ele>
        <time>2022-03-19T14:30:33.000Z</time>
      </trkpt>
      <trkpt lat="43.93929" lon="7.11081">
        <ele>484.60000610352</ele>
        <time>2022-03-19T14:30:36.000Z</time>
      </trkpt>
      <trkpt lat="43.9393" lon="7.11082">
        <ele>484.39999389648</ele>
        <time>2022-03-19T14:30:37.000Z</time>
      </trkpt>
      <trkpt lat="43.93932" lon="7.11083">
        <ele>483.60000610352</ele>
        <time>2022-03-19T14:30:39.000Z</time>
      </trkpt>
      <trkpt lat="43.93934" lon="7.11083">
        <ele>483.20001220703</ele>
        <time>2022-03-19T14:30:40.000Z</time>
      </trkpt>
      <trkpt lat="43.9394" lon="7.11087">
        <ele>483</ele>
        <time>2022-03-19T14:30:42.000Z</time>
      </trkpt>
      <trkpt lat="43.93938" lon="7.11088">
        <ele>482.60000610352</ele>
        <time>2022-03-19T14:30:44.000Z</time>
      </trkpt>
      <trkpt lat="43.93933" lon="7.11087">
        <ele>482.20001220703</ele>
        <time>2022-03-19T14:30:46.000Z</time>
      </trkpt>
      <trkpt lat="43.93927" lon="7.11087">
        <ele>481.60000610352</ele>
        <time>2022-03-19T14:30:48.000Z</time>
      </trkpt>
      <trkpt lat="43.93927" lon="7.11088">
        <ele>481</ele>
        <time>2022-03-19T14:30:50.000Z</time>
      </trkpt>
      <trkpt lat="43.93927" lon="7.11088">
        <ele>480.79998779297</ele>
        <time>2022-03-19T14:30:51.000Z</time>
      </trkpt>
      <trkpt lat="43.93928" lon="7.1109">
        <ele>480.60000610352</ele>
        <time>2022-03-19T14:30:57.000Z</time>
      </trkpt>
      <trkpt lat="43.93935" lon="7.11095">
        <ele>480.20001220703</ele>
        <time>2022-03-19T14:31:00.000Z</time>
      </trkpt>
      <trkpt lat="43.93934" lon="7.11096">
        <ele>479.79998779297</ele>
        <time>2022-03-19T14:31:01.000Z</time>
      </trkpt>
      <trkpt lat="43.93928" lon="7.11097">
        <ele>479.20001220703</ele>
        <time>2022-03-19T14:31:03.000Z</time>
      </trkpt>
      <trkpt lat="43.93924" lon="7.11098">
        <ele>478.79998779297</ele>
        <time>2022-03-19T14:31:04.000Z</time>
      </trkpt>
      <trkpt lat="43.93914" lon="7.11092">
        <ele>477.39999389648</ele>
        <time>2022-03-19T14:31:07.000Z</time>
      </trkpt>
      <trkpt lat="43.93912" lon="7.1109">
        <ele>477.20001220703</ele>
        <time>2022-03-19T14:31:11.000Z</time>
      </trkpt>
      <trkpt lat="43.93912" lon="7.1109">
        <ele>477.60000610352</ele>
        <time>2022-03-19T14:31:25.000Z</time>
      </trkpt>
      <trkpt lat="43.93912" lon="7.1109">
        <ele>477.60000610352</ele>
        <time>2022-03-19T14:31:36.000Z</time>
      </trkpt>
      <trkpt lat="43.93911" lon="7.1109">
        <ele>477.39999389648</ele>
        <time>2022-03-19T14:31:49.000Z</time>
      </trkpt>
      <trkpt lat="43.93911" lon="7.11089">
        <ele>477.79998779297</ele>
        <time>2022-03-19T14:32:04.000Z</time>
      </trkpt>
      <trkpt lat="43.9391" lon="7.11089">
        <ele>478</ele>
        <time>2022-03-19T14:32:20.000Z</time>
      </trkpt>
      <trkpt lat="43.93909" lon="7.1109">
        <ele>477.79998779297</ele>
        <time>2022-03-19T14:32:39.000Z</time>
      </trkpt>
      <trkpt lat="43.93909" lon="7.11087">
        <ele>477.60000610352</ele>
        <time>2022-03-19T14:32:49.000Z</time>
      </trkpt>
      <trkpt lat="43.93909" lon="7.11075">
        <ele>477.60000610352</ele>
        <time>2022-03-19T14:32:55.000Z</time>
      </trkpt>
      <trkpt lat="43.93905" lon="7.11054">
        <ele>477.60000610352</ele>
        <time>2022-03-19T14:33:02.000Z</time>
      </trkpt>
      <trkpt lat="43.93899" lon="7.11021">
        <ele>477.39999389648</ele>
        <time>2022-03-19T14:33:10.000Z</time>
      </trkpt>
      <trkpt lat="43.93901" lon="7.11004">
        <ele>477</ele>
        <time>2022-03-19T14:33:13.000Z</time>
      </trkpt>
      <trkpt lat="43.93904" lon="7.10999">
        <ele>476.79998779297</ele>
        <time>2022-03-19T14:33:14.000Z</time>
      </trkpt>
      <trkpt lat="43.93915" lon="7.10984">
        <ele>476.20001220703</ele>
        <time>2022-03-19T14:33:17.000Z</time>
      </trkpt>
      <trkpt lat="43.93919" lon="7.1098">
        <ele>475.79998779297</ele>
        <time>2022-03-19T14:33:18.000Z</time>
      </trkpt>
      <trkpt lat="43.93923" lon="7.10974">
        <ele>475.39999389648</ele>
        <time>2022-03-19T14:33:19.000Z</time>
      </trkpt>
      <trkpt lat="43.93926" lon="7.10968">
        <ele>475</ele>
        <time>2022-03-19T14:33:20.000Z</time>
      </trkpt>
      <trkpt lat="43.93932" lon="7.10955">
        <ele>474.39999389648</ele>
        <time>2022-03-19T14:33:22.000Z</time>
      </trkpt>
      <trkpt lat="43.93935" lon="7.10949">
        <ele>474</ele>
        <time>2022-03-19T14:33:23.000Z</time>
      </trkpt>
      <trkpt lat="43.93946" lon="7.10934">
        <ele>473.20001220703</ele>
        <time>2022-03-19T14:33:26.000Z</time>
      </trkpt>
      <trkpt lat="43.9395" lon="7.1093">
        <ele>472.79998779297</ele>
        <time>2022-03-19T14:33:27.000Z</time>
      </trkpt>
      <trkpt lat="43.93953" lon="7.10926">
        <ele>472.60000610352</ele>
        <time>2022-03-19T14:33:28.000Z</time>
      </trkpt>
      <trkpt lat="43.93967" lon="7.10917">
        <ele>471.79998779297</ele>
        <time>2022-03-19T14:33:32.000Z</time>
      </trkpt>
      <trkpt lat="43.9397" lon="7.10916">
        <ele>471.60000610352</ele>
        <time>2022-03-19T14:33:33.000Z</time>
      </trkpt>
      <trkpt lat="43.93973" lon="7.10916">
        <ele>471.60000610352</ele>
        <time>2022-03-19T14:33:34.000Z</time>
      </trkpt>
      <trkpt lat="43.93984" lon="7.10914">
        <ele>471</ele>
        <time>2022-03-19T14:33:36.000Z</time>
      </trkpt>
      <trkpt lat="43.93988" lon="7.10913">
        <ele>470.79998779297</ele>
        <time>2022-03-19T14:33:37.000Z</time>
      </trkpt>
      <trkpt lat="43.93993" lon="7.10912">
        <ele>470.39999389648</ele>
        <time>2022-03-19T14:33:38.000Z</time>
      </trkpt>
      <trkpt lat="43.9401" lon="7.10912">
        <ele>469.39999389648</ele>
        <time>2022-03-19T14:33:41.000Z</time>
      </trkpt>
      <trkpt lat="43.94016" lon="7.10914">
        <ele>469.20001220703</ele>
        <time>2022-03-19T14:33:42.000Z</time>
      </trkpt>
      <trkpt lat="43.94022" lon="7.10917">
        <ele>468.79998779297</ele>
        <time>2022-03-19T14:33:43.000Z</time>
      </trkpt>
      <trkpt lat="43.94029" lon="7.1092">
        <ele>468.39999389648</ele>
        <time>2022-03-19T14:33:44.000Z</time>
      </trkpt>
      <trkpt lat="43.94035" lon="7.10922">
        <ele>468</ele>
        <time>2022-03-19T14:33:45.000Z</time>
      </trkpt>
      <trkpt lat="43.94048" lon="7.10915">
        <ele>467.20001220703</ele>
        <time>2022-03-19T14:33:47.000Z</time>
      </trkpt>
      <trkpt lat="43.94056" lon="7.10902">
        <ele>466.20001220703</ele>
        <time>2022-03-19T14:33:49.000Z</time>
      </trkpt>
      <trkpt lat="43.9406" lon="7.10896">
        <ele>466</ele>
        <time>2022-03-19T14:33:50.000Z</time>
      </trkpt>
      <trkpt lat="43.94067" lon="7.10885">
        <ele>466</ele>
        <time>2022-03-19T14:33:52.000Z</time>
      </trkpt>
      <trkpt lat="43.94073" lon="7.10867">
        <ele>466.60000610352</ele>
        <time>2022-03-19T14:33:55.000Z</time>
      </trkpt>
      <trkpt lat="43.94073" lon="7.10856">
        <ele>467</ele>
        <time>2022-03-19T14:33:57.000Z</time>
      </trkpt>
      <trkpt lat="43.94072" lon="7.10845">
        <ele>467.39999389648</ele>
        <time>2022-03-19T14:33:59.000Z</time>
      </trkpt>
      <trkpt lat="43.9407" lon="7.1084">
        <ele>467.60000610352</ele>
        <time>2022-03-19T14:34:00.000Z</time>
      </trkpt>
      <trkpt lat="43.94068" lon="7.10817">
        <ele>468</ele>
        <time>2022-03-19T14:34:04.000Z</time>
      </trkpt>
      <trkpt lat="43.94068" lon="7.10811">
        <ele>468.20001220703</ele>
        <time>2022-03-19T14:34:05.000Z</time>
      </trkpt>
      <trkpt lat="43.94068" lon="7.10805">
        <ele>468.39999389648</ele>
        <time>2022-03-19T14:34:06.000Z</time>
      </trkpt>
      <trkpt lat="43.94071" lon="7.10778">
        <ele>469.39999389648</ele>
        <time>2022-03-19T14:34:11.000Z</time>
      </trkpt>
      <trkpt lat="43.94075" lon="7.10758">
        <ele>470.39999389648</ele>
        <time>2022-03-19T14:34:15.000Z</time>
      </trkpt>
      <trkpt lat="43.94087" lon="7.10722">
        <ele>471.20001220703</ele>
        <time>2022-03-19T14:34:23.000Z</time>
      </trkpt>
      <trkpt lat="43.94088" lon="7.10717">
        <ele>471.20001220703</ele>
        <time>2022-03-19T14:34:27.000Z</time>
      </trkpt>
      <trkpt lat="43.94088" lon="7.10716">
        <ele>471.39999389648</ele>
        <time>2022-03-19T14:34:32.000Z</time>
      </trkpt>
      <trkpt lat="43.94087" lon="7.10713">
        <ele>471.39999389648</ele>
        <time>2022-03-19T14:34:38.000Z</time>
      </trkpt>
      <trkpt lat="43.94085" lon="7.10695">
        <ele>471.20001220703</ele>
        <time>2022-03-19T14:34:42.000Z</time>
      </trkpt>
      <trkpt lat="43.94082" lon="7.10682">
        <ele>471</ele>
        <time>2022-03-19T14:34:46.000Z</time>
      </trkpt>
      <trkpt lat="43.94072" lon="7.10675">
        <ele>472.20001220703</ele>
        <time>2022-03-19T14:34:50.000Z</time>
      </trkpt>
      <trkpt lat="43.94073" lon="7.10669">
        <ele>472.60000610352</ele>
        <time>2022-03-19T14:34:52.000Z</time>
      </trkpt>
      <trkpt lat="43.94072" lon="7.10665">
        <ele>472.79998779297</ele>
        <time>2022-03-19T14:34:53.000Z</time>
      </trkpt>
      <trkpt lat="43.94065" lon="7.10651">
        <ele>472.79998779297</ele>
        <time>2022-03-19T14:34:57.000Z</time>
      </trkpt>
      <trkpt lat="43.94061" lon="7.10648">
        <ele>472.79998779297</ele>
        <time>2022-03-19T14:34:59.000Z</time>
      </trkpt>
      <trkpt lat="43.94057" lon="7.10647">
        <ele>473.39999389648</ele>
        <time>2022-03-19T14:35:01.000Z</time>
      </trkpt>
      <trkpt lat="43.94056" lon="7.10645">
        <ele>473.79998779297</ele>
        <time>2022-03-19T14:35:02.000Z</time>
      </trkpt>
      <trkpt lat="43.94055" lon="7.10641">
        <ele>474.79998779297</ele>
        <time>2022-03-19T14:35:04.000Z</time>
      </trkpt>
      <trkpt lat="43.94052" lon="7.10637">
        <ele>475.60000610352</ele>
        <time>2022-03-19T14:35:06.000Z</time>
      </trkpt>
      <trkpt lat="43.94046" lon="7.10635">
        <ele>476</ele>
        <time>2022-03-19T14:35:11.000Z</time>
      </trkpt>
      <trkpt lat="43.94043" lon="7.10629">
        <ele>477</ele>
        <time>2022-03-19T14:35:15.000Z</time>
      </trkpt>
      <trkpt lat="43.94043" lon="7.10626">
        <ele>477.39999389648</ele>
        <time>2022-03-19T14:35:16.000Z</time>
      </trkpt>
      <trkpt lat="43.94044" lon="7.10624">
        <ele>477.60000610352</ele>
        <time>2022-03-19T14:35:17.000Z</time>
      </trkpt>
      <trkpt lat="43.94047" lon="7.10617">
        <ele>478.20001220703</ele>
        <time>2022-03-19T14:35:19.000Z</time>
      </trkpt>
      <trkpt lat="43.94049" lon="7.10609">
        <ele>478</ele>
        <time>2022-03-19T14:35:21.000Z</time>
      </trkpt>
      <trkpt lat="43.94048" lon="7.10594">
        <ele>477.20001220703</ele>
        <time>2022-03-19T14:35:26.000Z</time>
      </trkpt>
      <trkpt lat="43.94047" lon="7.10592">
        <ele>477.20001220703</ele>
        <time>2022-03-19T14:35:27.000Z</time>
      </trkpt>
      <trkpt lat="43.94043" lon="7.10586">
        <ele>477.79998779297</ele>
        <time>2022-03-19T14:35:30.000Z</time>
      </trkpt>
      <trkpt lat="43.94043" lon="7.10576">
        <ele>478.20001220703</ele>
        <time>2022-03-19T14:35:33.000Z</time>
      </trkpt>
      <trkpt lat="43.94042" lon="7.10573">
        <ele>478.39999389648</ele>
        <time>2022-03-19T14:35:34.000Z</time>
      </trkpt>
      <trkpt lat="43.94041" lon="7.1057">
        <ele>478.39999389648</ele>
        <time>2022-03-19T14:35:35.000Z</time>
      </trkpt>
      <trkpt lat="43.94033" lon="7.10559">
        <ele>478.79998779297</ele>
        <time>2022-03-19T14:35:40.000Z</time>
      </trkpt>
      <trkpt lat="43.94027" lon="7.10558">
        <ele>479.20001220703</ele>
        <time>2022-03-19T14:35:43.000Z</time>
      </trkpt>
      <trkpt lat="43.94025" lon="7.10559">
        <ele>479.39999389648</ele>
        <time>2022-03-19T14:35:44.000Z</time>
      </trkpt>
      <trkpt lat="43.94016" lon="7.10559">
        <ele>480.39999389648</ele>
        <time>2022-03-19T14:35:48.000Z</time>
      </trkpt>
      <trkpt lat="43.94009" lon="7.10557">
        <ele>481.20001220703</ele>
        <time>2022-03-19T14:35:51.000Z</time>
      </trkpt>
      <trkpt lat="43.94007" lon="7.10558">
        <ele>481.39999389648</ele>
        <time>2022-03-19T14:35:52.000Z</time>
      </trkpt>
      <trkpt lat="43.94001" lon="7.10558">
        <ele>481.39999389648</ele>
        <time>2022-03-19T14:35:55.000Z</time>
      </trkpt>
      <trkpt lat="43.93995" lon="7.10558">
        <ele>481.79998779297</ele>
        <time>2022-03-19T14:35:58.000Z</time>
      </trkpt>
      <trkpt lat="43.9399" lon="7.10558">
        <ele>482.20001220703</ele>
        <time>2022-03-19T14:36:00.000Z</time>
      </trkpt>
      <trkpt lat="43.93985" lon="7.10554">
        <ele>482.39999389648</ele>
        <time>2022-03-19T14:36:02.000Z</time>
      </trkpt>
      <trkpt lat="43.9398" lon="7.10552">
        <ele>482.39999389648</ele>
        <time>2022-03-19T14:36:04.000Z</time>
      </trkpt>
      <trkpt lat="43.9397" lon="7.10547">
        <ele>482.79998779297</ele>
        <time>2022-03-19T14:36:09.000Z</time>
      </trkpt>
      <trkpt lat="43.93958" lon="7.10545">
        <ele>483</ele>
        <time>2022-03-19T14:36:14.000Z</time>
      </trkpt>
      <trkpt lat="43.93954" lon="7.10544">
        <ele>483.39999389648</ele>
        <time>2022-03-19T14:36:16.000Z</time>
      </trkpt>
      <trkpt lat="43.93949" lon="7.10541">
        <ele>484</ele>
        <time>2022-03-19T14:36:18.000Z</time>
      </trkpt>
      <trkpt lat="43.93947" lon="7.10541">
        <ele>484</ele>
        <time>2022-03-19T14:36:19.000Z</time>
      </trkpt>
      <trkpt lat="43.93937" lon="7.10533">
        <ele>484.20001220703</ele>
        <time>2022-03-19T14:36:23.000Z</time>
      </trkpt>
      <trkpt lat="43.9393" lon="7.1053">
        <ele>484</ele>
        <time>2022-03-19T14:36:26.000Z</time>
      </trkpt>
      <trkpt lat="43.93928" lon="7.10528">
        <ele>484.20001220703</ele>
        <time>2022-03-19T14:36:27.000Z</time>
      </trkpt>
      <trkpt lat="43.93924" lon="7.10519">
        <ele>484.39999389648</ele>
        <time>2022-03-19T14:36:30.000Z</time>
      </trkpt>
      <trkpt lat="43.93921" lon="7.10513">
        <ele>484.60000610352</ele>
        <time>2022-03-19T14:36:32.000Z</time>
      </trkpt>
      <trkpt lat="43.93916" lon="7.105">
        <ele>485.20001220703</ele>
        <time>2022-03-19T14:36:36.000Z</time>
      </trkpt>
      <trkpt lat="43.93915" lon="7.10495">
        <ele>485.60000610352</ele>
        <time>2022-03-19T14:36:38.000Z</time>
      </trkpt>
      <trkpt lat="43.93914" lon="7.10489">
        <ele>485.79998779297</ele>
        <time>2022-03-19T14:36:40.000Z</time>
      </trkpt>
      <trkpt lat="43.93912" lon="7.10486">
        <ele>485.79998779297</ele>
        <time>2022-03-19T14:36:41.000Z</time>
      </trkpt>
      <trkpt lat="43.93906" lon="7.10474">
        <ele>486.20001220703</ele>
        <time>2022-03-19T14:36:45.000Z</time>
      </trkpt>
      <trkpt lat="43.93903" lon="7.10471">
        <ele>486.60000610352</ele>
        <time>2022-03-19T14:36:47.000Z</time>
      </trkpt>
      <trkpt lat="43.93901" lon="7.10469">
        <ele>487.39999389648</ele>
        <time>2022-03-19T14:36:49.000Z</time>
      </trkpt>
      <trkpt lat="43.93899" lon="7.10469">
        <ele>487.60000610352</ele>
        <time>2022-03-19T14:36:50.000Z</time>
      </trkpt>
      <trkpt lat="43.93898" lon="7.10468">
        <ele>488.79998779297</ele>
        <time>2022-03-19T14:36:53.000Z</time>
      </trkpt>
      <trkpt lat="43.93897" lon="7.10468">
        <ele>489.39999389648</ele>
        <time>2022-03-19T14:36:55.000Z</time>
      </trkpt>
      <trkpt lat="43.93896" lon="7.10468">
        <ele>489.39999389648</ele>
        <time>2022-03-19T14:36:56.000Z</time>
      </trkpt>
      <trkpt lat="43.9389" lon="7.10466">
        <ele>489.60000610352</ele>
        <time>2022-03-19T14:36:59.000Z</time>
      </trkpt>
      <trkpt lat="43.93889" lon="7.10465">
        <ele>489.79998779297</ele>
        <time>2022-03-19T14:37:00.000Z</time>
      </trkpt>
      <trkpt lat="43.93888" lon="7.10463">
        <ele>489.79998779297</ele>
        <time>2022-03-19T14:37:01.000Z</time>
      </trkpt>
      <trkpt lat="43.93887" lon="7.10461">
        <ele>490</ele>
        <time>2022-03-19T14:37:02.000Z</time>
      </trkpt>
      <trkpt lat="43.93886" lon="7.10457">
        <ele>490.39999389648</ele>
        <time>2022-03-19T14:37:04.000Z</time>
      </trkpt>
      <trkpt lat="43.93881" lon="7.10455">
        <ele>490.79998779297</ele>
        <time>2022-03-19T14:37:09.000Z</time>
      </trkpt>
      <trkpt lat="43.9388" lon="7.10455">
        <ele>491.20001220703</ele>
        <time>2022-03-19T14:37:10.000Z</time>
      </trkpt>
      <trkpt lat="43.93874" lon="7.10453">
        <ele>491.79998779297</ele>
        <time>2022-03-19T14:37:13.000Z</time>
      </trkpt>
      <trkpt lat="43.93867" lon="7.10445">
        <ele>491.79998779297</ele>
        <time>2022-03-19T14:37:17.000Z</time>
      </trkpt>
      <trkpt lat="43.93866" lon="7.10443">
        <ele>491.79998779297</ele>
        <time>2022-03-19T14:37:18.000Z</time>
      </trkpt>
      <trkpt lat="43.93858" lon="7.10438">
        <ele>492.20001220703</ele>
        <time>2022-03-19T14:37:22.000Z</time>
      </trkpt>
      <trkpt lat="43.93856" lon="7.10438">
        <ele>492.20001220703</ele>
        <time>2022-03-19T14:37:23.000Z</time>
      </trkpt>
      <trkpt lat="43.93848" lon="7.10435">
        <ele>492.60000610352</ele>
        <time>2022-03-19T14:37:27.000Z</time>
      </trkpt>
      <trkpt lat="43.9384" lon="7.10433">
        <ele>493.39999389648</ele>
        <time>2022-03-19T14:37:31.000Z</time>
      </trkpt>
      <trkpt lat="43.93837" lon="7.10431">
        <ele>493.60000610352</ele>
        <time>2022-03-19T14:37:33.000Z</time>
      </trkpt>
      <trkpt lat="43.93827" lon="7.10427">
        <ele>494.39999389648</ele>
        <time>2022-03-19T14:37:38.000Z</time>
      </trkpt>
      <trkpt lat="43.93824" lon="7.10426">
        <ele>494.79998779297</ele>
        <time>2022-03-19T14:37:40.000Z</time>
      </trkpt>
      <trkpt lat="43.93819" lon="7.10426">
        <ele>495.20001220703</ele>
        <time>2022-03-19T14:37:43.000Z</time>
      </trkpt>
      <trkpt lat="43.93815" lon="7.10424">
        <ele>495.39999389648</ele>
        <time>2022-03-19T14:37:45.000Z</time>
      </trkpt>
      <trkpt lat="43.938" lon="7.10417">
        <ele>494.60000610352</ele>
        <time>2022-03-19T14:37:51.000Z</time>
      </trkpt>
      <trkpt lat="43.93794" lon="7.10415">
        <ele>493</ele>
        <time>2022-03-19T14:37:54.000Z</time>
      </trkpt>
      <trkpt lat="43.93791" lon="7.10412">
        <ele>492.60000610352</ele>
        <time>2022-03-19T14:37:55.000Z</time>
      </trkpt>
      <trkpt lat="43.93781" lon="7.10397">
        <ele>492.20001220703</ele>
        <time>2022-03-19T14:37:59.000Z</time>
      </trkpt>
      <trkpt lat="43.93777" lon="7.10388">
        <ele>491.79998779297</ele>
        <time>2022-03-19T14:38:01.000Z</time>
      </trkpt>
      <trkpt lat="43.93772" lon="7.10385">
        <ele>491.60000610352</ele>
        <time>2022-03-19T14:38:03.000Z</time>
      </trkpt>
      <trkpt lat="43.93768" lon="7.10385">
        <ele>490.79998779297</ele>
        <time>2022-03-19T14:38:05.000Z</time>
      </trkpt>
      <trkpt lat="43.93764" lon="7.10391">
        <ele>489.79998779297</ele>
        <time>2022-03-19T14:38:07.000Z</time>
      </trkpt>
      <trkpt lat="43.9376" lon="7.10401">
        <ele>489.39999389648</ele>
        <time>2022-03-19T14:38:09.000Z</time>
      </trkpt>
      <trkpt lat="43.93756" lon="7.1041">
        <ele>488.60000610352</ele>
        <time>2022-03-19T14:38:11.000Z</time>
      </trkpt>
      <trkpt lat="43.93754" lon="7.10415">
        <ele>488.60000610352</ele>
        <time>2022-03-19T14:38:12.000Z</time>
      </trkpt>
      <trkpt lat="43.93751" lon="7.10424">
        <ele>488</ele>
        <time>2022-03-19T14:38:14.000Z</time>
      </trkpt>
      <trkpt lat="43.9375" lon="7.10427">
        <ele>487.79998779297</ele>
        <time>2022-03-19T14:38:15.000Z</time>
      </trkpt>
      <trkpt lat="43.93748" lon="7.1043">
        <ele>487.60000610352</ele>
        <time>2022-03-19T14:38:16.000Z</time>
      </trkpt>
      <trkpt lat="43.93743" lon="7.10439">
        <ele>486.79998779297</ele>
        <time>2022-03-19T14:38:18.000Z</time>
      </trkpt>
      <trkpt lat="43.93739" lon="7.10444">
        <ele>486.39999389648</ele>
        <time>2022-03-19T14:38:19.000Z</time>
      </trkpt>
      <trkpt lat="43.9373" lon="7.10452">
        <ele>485.20001220703</ele>
        <time>2022-03-19T14:38:21.000Z</time>
      </trkpt>
      <trkpt lat="43.9372" lon="7.10456">
        <ele>484.39999389648</ele>
        <time>2022-03-19T14:38:23.000Z</time>
      </trkpt>
      <trkpt lat="43.93715" lon="7.10459">
        <ele>483.79998779297</ele>
        <time>2022-03-19T14:38:24.000Z</time>
      </trkpt>
      <trkpt lat="43.9371" lon="7.10462">
        <ele>483.60000610352</ele>
        <time>2022-03-19T14:38:25.000Z</time>
      </trkpt>
      <trkpt lat="43.93701" lon="7.10466">
        <ele>483.20001220703</ele>
        <time>2022-03-19T14:38:27.000Z</time>
      </trkpt>
      <trkpt lat="43.93697" lon="7.10466">
        <ele>483</ele>
        <time>2022-03-19T14:38:28.000Z</time>
      </trkpt>
      <trkpt lat="43.93692" lon="7.10466">
        <ele>482.79998779297</ele>
        <time>2022-03-19T14:38:29.000Z</time>
      </trkpt>
      <trkpt lat="43.93683" lon="7.10467">
        <ele>482.39999389648</ele>
        <time>2022-03-19T14:38:31.000Z</time>
      </trkpt>
      <trkpt lat="43.93671" lon="7.1048">
        <ele>481.60000610352</ele>
        <time>2022-03-19T14:38:34.000Z</time>
      </trkpt>
      <trkpt lat="43.93656" lon="7.1048">
        <ele>480.20001220703</ele>
        <time>2022-03-19T14:38:37.000Z</time>
      </trkpt>
      <trkpt lat="43.93646" lon="7.10482">
        <ele>478.60000610352</ele>
        <time>2022-03-19T14:38:39.000Z</time>
      </trkpt>
      <trkpt lat="43.9364" lon="7.10481">
        <ele>478</ele>
        <time>2022-03-19T14:38:40.000Z</time>
      </trkpt>
      <trkpt lat="43.93634" lon="7.10478">
        <ele>477</ele>
        <time>2022-03-19T14:38:41.000Z</time>
      </trkpt>
      <trkpt lat="43.9363" lon="7.10476">
        <ele>475.79998779297</ele>
        <time>2022-03-19T14:38:42.000Z</time>
      </trkpt>
      <trkpt lat="43.93624" lon="7.10474">
        <ele>474.79998779297</ele>
        <time>2022-03-19T14:38:44.000Z</time>
      </trkpt>
      <trkpt lat="43.93614" lon="7.10472">
        <ele>473.20001220703</ele>
        <time>2022-03-19T14:38:47.000Z</time>
      </trkpt>
      <trkpt lat="43.93606" lon="7.10476">
        <ele>471.79998779297</ele>
        <time>2022-03-19T14:38:50.000Z</time>
      </trkpt>
      <trkpt lat="43.93601" lon="7.10477">
        <ele>470.60000610352</ele>
        <time>2022-03-19T14:38:52.000Z</time>
      </trkpt>
      <trkpt lat="43.93598" lon="7.1048">
        <ele>470.20001220703</ele>
        <time>2022-03-19T14:38:53.000Z</time>
      </trkpt>
      <trkpt lat="43.93589" lon="7.10487">
        <ele>468.79998779297</ele>
        <time>2022-03-19T14:38:55.000Z</time>
      </trkpt>
      <trkpt lat="43.93584" lon="7.10489">
        <ele>468.39999389648</ele>
        <time>2022-03-19T14:38:56.000Z</time>
      </trkpt>
      <trkpt lat="43.93578" lon="7.10491">
        <ele>467.79998779297</ele>
        <time>2022-03-19T14:38:57.000Z</time>
      </trkpt>
      <trkpt lat="43.93572" lon="7.10494">
        <ele>466.79998779297</ele>
        <time>2022-03-19T14:38:58.000Z</time>
      </trkpt>
      <trkpt lat="43.93565" lon="7.10495">
        <ele>465.60000610352</ele>
        <time>2022-03-19T14:38:59.000Z</time>
      </trkpt>
      <trkpt lat="43.93559" lon="7.10494">
        <ele>464.39999389648</ele>
        <time>2022-03-19T14:39:00.000Z</time>
      </trkpt>
      <trkpt lat="43.93555" lon="7.10494">
        <ele>463.39999389648</ele>
        <time>2022-03-19T14:39:01.000Z</time>
      </trkpt>
      <trkpt lat="43.93552" lon="7.10495">
        <ele>462.39999389648</ele>
        <time>2022-03-19T14:39:02.000Z</time>
      </trkpt>
      <trkpt lat="43.9355" lon="7.10494">
        <ele>461.60000610352</ele>
        <time>2022-03-19T14:39:03.000Z</time>
      </trkpt>
      <trkpt lat="43.93551" lon="7.10491">
        <ele>461</ele>
        <time>2022-03-19T14:39:04.000Z</time>
      </trkpt>
      <trkpt lat="43.93552" lon="7.1049">
        <ele>460.60000610352</ele>
        <time>2022-03-19T14:39:05.000Z</time>
      </trkpt>
      <trkpt lat="43.93555" lon="7.1049">
        <ele>460</ele>
        <time>2022-03-19T14:39:06.000Z</time>
      </trkpt>
      <trkpt lat="43.93559" lon="7.10489">
        <ele>459.39999389648</ele>
        <time>2022-03-19T14:39:07.000Z</time>
      </trkpt>
      <trkpt lat="43.93563" lon="7.10488">
        <ele>459</ele>
        <time>2022-03-19T14:39:08.000Z</time>
      </trkpt>
      <trkpt lat="43.93567" lon="7.10486">
        <ele>458.79998779297</ele>
        <time>2022-03-19T14:39:09.000Z</time>
      </trkpt>
      <trkpt lat="43.93573" lon="7.10478">
        <ele>458.20001220703</ele>
        <time>2022-03-19T14:39:11.000Z</time>
      </trkpt>
      <trkpt lat="43.93579" lon="7.10477">
        <ele>457.39999389648</ele>
        <time>2022-03-19T14:39:13.000Z</time>
      </trkpt>
      <trkpt lat="43.93582" lon="7.10475">
        <ele>457</ele>
        <time>2022-03-19T14:39:14.000Z</time>
      </trkpt>
      <trkpt lat="43.93587" lon="7.10467">
        <ele>456</ele>
        <time>2022-03-19T14:39:16.000Z</time>
      </trkpt>
      <trkpt lat="43.93593" lon="7.10459">
        <ele>455.20001220703</ele>
        <time>2022-03-19T14:39:18.000Z</time>
      </trkpt>
      <trkpt lat="43.93597" lon="7.10457">
        <ele>454.79998779297</ele>
        <time>2022-03-19T14:39:19.000Z</time>
      </trkpt>
      <trkpt lat="43.93603" lon="7.1045">
        <ele>454</ele>
        <time>2022-03-19T14:39:22.000Z</time>
      </trkpt>
      <trkpt lat="43.93601" lon="7.10436">
        <ele>453.60000610352</ele>
        <time>2022-03-19T14:39:24.000Z</time>
      </trkpt>
      <trkpt lat="43.93599" lon="7.10429">
        <ele>453.20001220703</ele>
        <time>2022-03-19T14:39:25.000Z</time>
      </trkpt>
      <trkpt lat="43.93596" lon="7.10423">
        <ele>452.60000610352</ele>
        <time>2022-03-19T14:39:26.000Z</time>
      </trkpt>
      <trkpt lat="43.93587" lon="7.1041">
        <ele>450.79998779297</ele>
        <time>2022-03-19T14:39:28.000Z</time>
      </trkpt>
      <trkpt lat="43.93585" lon="7.10404">
        <ele>449.60000610352</ele>
        <time>2022-03-19T14:39:29.000Z</time>
      </trkpt>
      <trkpt lat="43.93586" lon="7.10403">
        <ele>448.60000610352</ele>
        <time>2022-03-19T14:39:30.000Z</time>
      </trkpt>
      <trkpt lat="43.93587" lon="7.10405">
        <ele>447.20001220703</ele>
        <time>2022-03-19T14:39:32.000Z</time>
      </trkpt>
      <trkpt lat="43.93588" lon="7.10406">
        <ele>446.79998779297</ele>
        <time>2022-03-19T14:39:33.000Z</time>
      </trkpt>
      <trkpt lat="43.93595" lon="7.10416">
        <ele>446.39999389648</ele>
        <time>2022-03-19T14:39:36.000Z</time>
      </trkpt>
      <trkpt lat="43.93601" lon="7.10421">
        <ele>445.79998779297</ele>
        <time>2022-03-19T14:39:38.000Z</time>
      </trkpt>
      <trkpt lat="43.93606" lon="7.10429">
        <ele>445</ele>
        <time>2022-03-19T14:39:40.000Z</time>
      </trkpt>
      <trkpt lat="43.93609" lon="7.10432">
        <ele>444.79998779297</ele>
        <time>2022-03-19T14:39:41.000Z</time>
      </trkpt>
      <trkpt lat="43.93617" lon="7.10432">
        <ele>444.20001220703</ele>
        <time>2022-03-19T14:39:43.000Z</time>
      </trkpt>
      <trkpt lat="43.93622" lon="7.10423">
        <ele>443.60000610352</ele>
        <time>2022-03-19T14:39:45.000Z</time>
      </trkpt>
      <trkpt lat="43.93624" lon="7.10423">
        <ele>443.39999389648</ele>
        <time>2022-03-19T14:39:46.000Z</time>
      </trkpt>
      <trkpt lat="43.93629" lon="7.10424">
        <ele>442.79998779297</ele>
        <time>2022-03-19T14:39:48.000Z</time>
      </trkpt>
      <trkpt lat="43.93632" lon="7.10422">
        <ele>442.39999389648</ele>
        <time>2022-03-19T14:39:49.000Z</time>
      </trkpt>
      <trkpt lat="43.93642" lon="7.10415">
        <ele>441</ele>
        <time>2022-03-19T14:39:52.000Z</time>
      </trkpt>
      <trkpt lat="43.93642" lon="7.10415">
        <ele>440</ele>
        <time>2022-03-19T14:39:53.000Z</time>
      </trkpt>
      <trkpt lat="43.93643" lon="7.10413">
        <ele>439.60000610352</ele>
        <time>2022-03-19T14:39:54.000Z</time>
      </trkpt>
      <trkpt lat="43.93651" lon="7.10402">
        <ele>438.39999389648</ele>
        <time>2022-03-19T14:39:57.000Z</time>
      </trkpt>
      <trkpt lat="43.93659" lon="7.10391">
        <ele>436.79998779297</ele>
        <time>2022-03-19T14:40:00.000Z</time>
      </trkpt>
      <trkpt lat="43.93671" lon="7.10381">
        <ele>435</ele>
        <time>2022-03-19T14:40:03.000Z</time>
      </trkpt>
      <trkpt lat="43.93674" lon="7.10378">
        <ele>434.60000610352</ele>
        <time>2022-03-19T14:40:04.000Z</time>
      </trkpt>
      <trkpt lat="43.93678" lon="7.10377">
        <ele>433.39999389648</ele>
        <time>2022-03-19T14:40:05.000Z</time>
      </trkpt>
      <trkpt lat="43.93679" lon="7.10374">
        <ele>432.60000610352</ele>
        <time>2022-03-19T14:40:06.000Z</time>
      </trkpt>
      <trkpt lat="43.9368" lon="7.1037">
        <ele>432</ele>
        <time>2022-03-19T14:40:07.000Z</time>
      </trkpt>
      <trkpt lat="43.93678" lon="7.10359">
        <ele>430.79998779297</ele>
        <time>2022-03-19T14:40:09.000Z</time>
      </trkpt>
      <trkpt lat="43.93677" lon="7.10353">
        <ele>430.60000610352</ele>
        <time>2022-03-19T14:40:10.000Z</time>
      </trkpt>
      <trkpt lat="43.93677" lon="7.10347">
        <ele>429.60000610352</ele>
        <time>2022-03-19T14:40:11.000Z</time>
      </trkpt>
      <trkpt lat="43.93677" lon="7.10343">
        <ele>428.39999389648</ele>
        <time>2022-03-19T14:40:12.000Z</time>
      </trkpt>
      <trkpt lat="43.93677" lon="7.10337">
        <ele>427.39999389648</ele>
        <time>2022-03-19T14:40:13.000Z</time>
      </trkpt>
      <trkpt lat="43.93678" lon="7.10332">
        <ele>426.79998779297</ele>
        <time>2022-03-19T14:40:14.000Z</time>
      </trkpt>
      <trkpt lat="43.93675" lon="7.10327">
        <ele>425.79998779297</ele>
        <time>2022-03-19T14:40:17.000Z</time>
      </trkpt>
      <trkpt lat="43.93675" lon="7.1034">
        <ele>424.39999389648</ele>
        <time>2022-03-19T14:40:20.000Z</time>
      </trkpt>
      <trkpt lat="43.9367" lon="7.10353">
        <ele>423.20001220703</ele>
        <time>2022-03-19T14:40:23.000Z</time>
      </trkpt>
      <trkpt lat="43.93663" lon="7.10366">
        <ele>421.79998779297</ele>
        <time>2022-03-19T14:40:26.000Z</time>
      </trkpt>
      <trkpt lat="43.93652" lon="7.10361">
        <ele>420.79998779297</ele>
        <time>2022-03-19T14:40:28.000Z</time>
      </trkpt>
      <trkpt lat="43.93643" lon="7.10355">
        <ele>419.39999389648</ele>
        <time>2022-03-19T14:40:30.000Z</time>
      </trkpt>
      <trkpt lat="43.93641" lon="7.10356">
        <ele>418.60000610352</ele>
        <time>2022-03-19T14:40:31.000Z</time>
      </trkpt>
      <trkpt lat="43.9364" lon="7.10359">
        <ele>418</ele>
        <time>2022-03-19T14:40:32.000Z</time>
      </trkpt>
      <trkpt lat="43.93638" lon="7.10363">
        <ele>417.39999389648</ele>
        <time>2022-03-19T14:40:33.000Z</time>
      </trkpt>
      <trkpt lat="43.93634" lon="7.10369">
        <ele>416.60000610352</ele>
        <time>2022-03-19T14:40:34.000Z</time>
      </trkpt>
      <trkpt lat="43.9363" lon="7.10368">
        <ele>416.20001220703</ele>
        <time>2022-03-19T14:40:35.000Z</time>
      </trkpt>
      <trkpt lat="43.93625" lon="7.10365">
        <ele>415.79998779297</ele>
        <time>2022-03-19T14:40:36.000Z</time>
      </trkpt>
      <trkpt lat="43.93622" lon="7.10361">
        <ele>415.39999389648</ele>
        <time>2022-03-19T14:40:37.000Z</time>
      </trkpt>
      <trkpt lat="43.93616" lon="7.1035">
        <ele>414.60000610352</ele>
        <time>2022-03-19T14:40:39.000Z</time>
      </trkpt>
      <trkpt lat="43.93613" lon="7.10345">
        <ele>414</ele>
        <time>2022-03-19T14:40:40.000Z</time>
      </trkpt>
      <trkpt lat="43.93604" lon="7.10333">
        <ele>412.60000610352</ele>
        <time>2022-03-19T14:40:42.000Z</time>
      </trkpt>
      <trkpt lat="43.93602" lon="7.10329">
        <ele>411.79998779297</ele>
        <time>2022-03-19T14:40:43.000Z</time>
      </trkpt>
      <trkpt lat="43.93601" lon="7.10327">
        <ele>410.79998779297</ele>
        <time>2022-03-19T14:40:44.000Z</time>
      </trkpt>
      <trkpt lat="43.93602" lon="7.10326">
        <ele>409.39999389648</ele>
        <time>2022-03-19T14:40:46.000Z</time>
      </trkpt>
      <trkpt lat="43.93604" lon="7.10327">
        <ele>408.20001220703</ele>
        <time>2022-03-19T14:40:47.000Z</time>
      </trkpt>
      <trkpt lat="43.93611" lon="7.1033">
        <ele>407.60000610352</ele>
        <time>2022-03-19T14:40:49.000Z</time>
      </trkpt>
      <trkpt lat="43.93616" lon="7.10333">
        <ele>406.79998779297</ele>
        <time>2022-03-19T14:40:50.000Z</time>
      </trkpt>
      <trkpt lat="43.9362" lon="7.10332">
        <ele>405.20001220703</ele>
        <time>2022-03-19T14:40:52.000Z</time>
      </trkpt>
      <trkpt lat="43.93619" lon="7.10331">
        <ele>403.60000610352</ele>
        <time>2022-03-19T14:40:54.000Z</time>
      </trkpt>
      <trkpt lat="43.93617" lon="7.10328">
        <ele>402.79998779297</ele>
        <time>2022-03-19T14:40:55.000Z</time>
      </trkpt>
      <trkpt lat="43.93613" lon="7.10326">
        <ele>402.39999389648</ele>
        <time>2022-03-19T14:40:56.000Z</time>
      </trkpt>
      <trkpt lat="43.93606" lon="7.10316">
        <ele>401.20001220703</ele>
        <time>2022-03-19T14:40:58.000Z</time>
      </trkpt>
      <trkpt lat="43.93602" lon="7.10309">
        <ele>400.39999389648</ele>
        <time>2022-03-19T14:40:59.000Z</time>
      </trkpt>
      <trkpt lat="43.93598" lon="7.10305">
        <ele>399.60000610352</ele>
        <time>2022-03-19T14:41:00.000Z</time>
      </trkpt>
      <trkpt lat="43.93595" lon="7.10303">
        <ele>398.20001220703</ele>
        <time>2022-03-19T14:41:01.000Z</time>
      </trkpt>
      <trkpt lat="43.93594" lon="7.103">
        <ele>397</ele>
        <time>2022-03-19T14:41:02.000Z</time>
      </trkpt>
      <trkpt lat="43.93599" lon="7.10302">
        <ele>395.39999389648</ele>
        <time>2022-03-19T14:41:04.000Z</time>
      </trkpt>
      <trkpt lat="43.93603" lon="7.10304">
        <ele>395</ele>
        <time>2022-03-19T14:41:05.000Z</time>
      </trkpt>
      <trkpt lat="43.93613" lon="7.10306">
        <ele>394.39999389648</ele>
        <time>2022-03-19T14:41:07.000Z</time>
      </trkpt>
      <trkpt lat="43.93618" lon="7.10308">
        <ele>393.79998779297</ele>
        <time>2022-03-19T14:41:08.000Z</time>
      </trkpt>
      <trkpt lat="43.93624" lon="7.1031">
        <ele>393.20001220703</ele>
        <time>2022-03-19T14:41:09.000Z</time>
      </trkpt>
      <trkpt lat="43.93628" lon="7.1031">
        <ele>392.60000610352</ele>
        <time>2022-03-19T14:41:10.000Z</time>
      </trkpt>
      <trkpt lat="43.9363" lon="7.10307">
        <ele>392</ele>
        <time>2022-03-19T14:41:11.000Z</time>
      </trkpt>
      <trkpt lat="43.93632" lon="7.10303">
        <ele>391</ele>
        <time>2022-03-19T14:41:12.000Z</time>
      </trkpt>
      <trkpt lat="43.93634" lon="7.10299">
        <ele>390.20001220703</ele>
        <time>2022-03-19T14:41:13.000Z</time>
      </trkpt>
      <trkpt lat="43.93642" lon="7.10291">
        <ele>388.39999389648</ele>
        <time>2022-03-19T14:41:15.000Z</time>
      </trkpt>
      <trkpt lat="43.93645" lon="7.10286">
        <ele>387.39999389648</ele>
        <time>2022-03-19T14:41:16.000Z</time>
      </trkpt>
      <trkpt lat="43.93651" lon="7.10279">
        <ele>386.20001220703</ele>
        <time>2022-03-19T14:41:18.000Z</time>
      </trkpt>
      <trkpt lat="43.9365" lon="7.10275">
        <ele>385.60000610352</ele>
        <time>2022-03-19T14:41:19.000Z</time>
      </trkpt>
      <trkpt lat="43.93646" lon="7.10267">
        <ele>385.20001220703</ele>
        <time>2022-03-19T14:41:21.000Z</time>
      </trkpt>
      <trkpt lat="43.93647" lon="7.10261">
        <ele>384.39999389648</ele>
        <time>2022-03-19T14:41:22.000Z</time>
      </trkpt>
      <trkpt lat="43.93649" lon="7.10253">
        <ele>384.20001220703</ele>
        <time>2022-03-19T14:41:23.000Z</time>
      </trkpt>
      <trkpt lat="43.93651" lon="7.10237">
        <ele>382.79998779297</ele>
        <time>2022-03-19T14:41:25.000Z</time>
      </trkpt>
      <trkpt lat="43.93655" lon="7.10232">
        <ele>382</ele>
        <time>2022-03-19T14:41:26.000Z</time>
      </trkpt>
      <trkpt lat="43.9366" lon="7.10232">
        <ele>381.60000610352</ele>
        <time>2022-03-19T14:41:27.000Z</time>
      </trkpt>
      <trkpt lat="43.93672" lon="7.10231">
        <ele>380.39999389648</ele>
        <time>2022-03-19T14:41:29.000Z</time>
      </trkpt>
      <trkpt lat="43.9368" lon="7.10228">
        <ele>379</ele>
        <time>2022-03-19T14:41:31.000Z</time>
      </trkpt>
      <trkpt lat="43.93684" lon="7.10229">
        <ele>377.79998779297</ele>
        <time>2022-03-19T14:41:32.000Z</time>
      </trkpt>
      <trkpt lat="43.93688" lon="7.10227">
        <ele>376.60000610352</ele>
        <time>2022-03-19T14:41:33.000Z</time>
      </trkpt>
      <trkpt lat="43.93693" lon="7.10217">
        <ele>376</ele>
        <time>2022-03-19T14:41:35.000Z</time>
      </trkpt>
      <trkpt lat="43.93696" lon="7.10215">
        <ele>375.39999389648</ele>
        <time>2022-03-19T14:41:36.000Z</time>
      </trkpt>
      <trkpt lat="43.937" lon="7.10216">
        <ele>374.60000610352</ele>
        <time>2022-03-19T14:41:38.000Z</time>
      </trkpt>
      <trkpt lat="43.93704" lon="7.10216">
        <ele>374.20001220703</ele>
        <time>2022-03-19T14:41:39.000Z</time>
      </trkpt>
      <trkpt lat="43.93713" lon="7.10214">
        <ele>373.79998779297</ele>
        <time>2022-03-19T14:41:41.000Z</time>
      </trkpt>
      <trkpt lat="43.93718" lon="7.10209">
        <ele>373.60000610352</ele>
        <time>2022-03-19T14:41:44.000Z</time>
      </trkpt>
      <trkpt lat="43.93725" lon="7.10198">
        <ele>373.39999389648</ele>
        <time>2022-03-19T14:41:47.000Z</time>
      </trkpt>
      <trkpt lat="43.93729" lon="7.10192">
        <ele>373</ele>
        <time>2022-03-19T14:41:48.000Z</time>
      </trkpt>
      <trkpt lat="43.93733" lon="7.10187">
        <ele>372</ele>
        <time>2022-03-19T14:41:49.000Z</time>
      </trkpt>
      <trkpt lat="43.93736" lon="7.10183">
        <ele>371</ele>
        <time>2022-03-19T14:41:50.000Z</time>
      </trkpt>
      <trkpt lat="43.9374" lon="7.10178">
        <ele>369.79998779297</ele>
        <time>2022-03-19T14:41:51.000Z</time>
      </trkpt>
      <trkpt lat="43.93744" lon="7.10175">
        <ele>368.79998779297</ele>
        <time>2022-03-19T14:41:52.000Z</time>
      </trkpt>
      <trkpt lat="43.93753" lon="7.10174">
        <ele>367.20001220703</ele>
        <time>2022-03-19T14:41:54.000Z</time>
      </trkpt>
      <trkpt lat="43.93754" lon="7.10172">
        <ele>366.60000610352</ele>
        <time>2022-03-19T14:41:55.000Z</time>
      </trkpt>
      <trkpt lat="43.93756" lon="7.10168">
        <ele>366</ele>
        <time>2022-03-19T14:41:56.000Z</time>
      </trkpt>
      <trkpt lat="43.93762" lon="7.10164">
        <ele>364.79998779297</ele>
        <time>2022-03-19T14:41:58.000Z</time>
      </trkpt>
      <trkpt lat="43.93773" lon="7.10169">
        <ele>364</ele>
        <time>2022-03-19T14:42:01.000Z</time>
      </trkpt>
      <trkpt lat="43.93777" lon="7.10168">
        <ele>363.60000610352</ele>
        <time>2022-03-19T14:42:02.000Z</time>
      </trkpt>
      <trkpt lat="43.93783" lon="7.10161">
        <ele>362.79998779297</ele>
        <time>2022-03-19T14:42:04.000Z</time>
      </trkpt>
      <trkpt lat="43.93786" lon="7.1016">
        <ele>362.20001220703</ele>
        <time>2022-03-19T14:42:05.000Z</time>
      </trkpt>
      <trkpt lat="43.93792" lon="7.10158">
        <ele>361.20001220703</ele>
        <time>2022-03-19T14:42:07.000Z</time>
      </trkpt>
      <trkpt lat="43.93794" lon="7.10156">
        <ele>360.60000610352</ele>
        <time>2022-03-19T14:42:08.000Z</time>
      </trkpt>
      <trkpt lat="43.93796" lon="7.10151">
        <ele>360</ele>
        <time>2022-03-19T14:42:09.000Z</time>
      </trkpt>
      <trkpt lat="43.93804" lon="7.10144">
        <ele>359</ele>
        <time>2022-03-19T14:42:11.000Z</time>
      </trkpt>
      <trkpt lat="43.93811" lon="7.10136">
        <ele>357.79998779297</ele>
        <time>2022-03-19T14:42:13.000Z</time>
      </trkpt>
      <trkpt lat="43.93819" lon="7.10128">
        <ele>356.79998779297</ele>
        <time>2022-03-19T14:42:15.000Z</time>
      </trkpt>
      <trkpt lat="43.93822" lon="7.10125">
        <ele>355.39999389648</ele>
        <time>2022-03-19T14:42:16.000Z</time>
      </trkpt>
      <trkpt lat="43.93824" lon="7.10116">
        <ele>354.39999389648</ele>
        <time>2022-03-19T14:42:18.000Z</time>
      </trkpt>
      <trkpt lat="43.93824" lon="7.1011">
        <ele>353</ele>
        <time>2022-03-19T14:42:20.000Z</time>
      </trkpt>
      <trkpt lat="43.93823" lon="7.10107">
        <ele>351.79998779297</ele>
        <time>2022-03-19T14:42:22.000Z</time>
      </trkpt>
      <trkpt lat="43.93821" lon="7.10096">
        <ele>351.60000610352</ele>
        <time>2022-03-19T14:42:26.000Z</time>
      </trkpt>
      <trkpt lat="43.93819" lon="7.10094">
        <ele>351.60000610352</ele>
        <time>2022-03-19T14:42:28.000Z</time>
      </trkpt>
      <trkpt lat="43.93819" lon="7.10095">
        <ele>352.60000610352</ele>
        <time>2022-03-19T14:42:31.000Z</time>
      </trkpt>
      <trkpt lat="43.93818" lon="7.10095">
        <ele>353</ele>
        <time>2022-03-19T14:42:32.000Z</time>
      </trkpt>
      <trkpt lat="43.93817" lon="7.10093">
        <ele>353.79998779297</ele>
        <time>2022-03-19T14:42:38.000Z</time>
      </trkpt>
      <trkpt lat="43.93817" lon="7.10094">
        <ele>354</ele>
        <time>2022-03-19T14:42:39.000Z</time>
      </trkpt>
      <trkpt lat="43.93814" lon="7.10092">
        <ele>355</ele>
        <time>2022-03-19T14:42:44.000Z</time>
      </trkpt>
      <trkpt lat="43.93813" lon="7.10092">
        <ele>355</ele>
        <time>2022-03-19T14:42:45.000Z</time>
      </trkpt>
      <trkpt lat="43.93811" lon="7.10091">
        <ele>356.20001220703</ele>
        <time>2022-03-19T14:42:50.000Z</time>
      </trkpt>
      <trkpt lat="43.9381" lon="7.10089">
        <ele>356.79998779297</ele>
        <time>2022-03-19T14:42:52.000Z</time>
      </trkpt>
      <trkpt lat="43.93809" lon="7.10088">
        <ele>357.20001220703</ele>
        <time>2022-03-19T14:42:54.000Z</time>
      </trkpt>
      <trkpt lat="43.93806" lon="7.10086">
        <ele>358.39999389648</ele>
        <time>2022-03-19T14:42:58.000Z</time>
      </trkpt>
      <trkpt lat="43.93805" lon="7.10085">
        <ele>359</ele>
        <time>2022-03-19T14:43:00.000Z</time>
      </trkpt>
      <trkpt lat="43.93803" lon="7.10084">
        <ele>359.39999389648</ele>
        <time>2022-03-19T14:43:02.000Z</time>
      </trkpt>
      <trkpt lat="43.93799" lon="7.10076">
        <ele>360.60000610352</ele>
        <time>2022-03-19T14:43:09.000Z</time>
      </trkpt>
      <trkpt lat="43.938" lon="7.10074">
        <ele>360.60000610352</ele>
        <time>2022-03-19T14:43:10.000Z</time>
      </trkpt>
      <trkpt lat="43.938" lon="7.10072">
        <ele>361.20001220703</ele>
        <time>2022-03-19T14:43:13.000Z</time>
      </trkpt>
      <trkpt lat="43.93802" lon="7.10064">
        <ele>361.20001220703</ele>
        <time>2022-03-19T14:43:17.000Z</time>
      </trkpt>
      <trkpt lat="43.93802" lon="7.10061">
        <ele>361.20001220703</ele>
        <time>2022-03-19T14:43:18.000Z</time>
      </trkpt>
      <trkpt lat="43.93806" lon="7.10038">
        <ele>361.20001220703</ele>
        <time>2022-03-19T14:43:24.000Z</time>
      </trkpt>
      <trkpt lat="43.93811" lon="7.10006">
        <ele>361</ele>
        <time>2022-03-19T14:43:31.000Z</time>
      </trkpt>
      <trkpt lat="43.93805" lon="7.09986">
        <ele>359.20001220703</ele>
        <time>2022-03-19T14:43:35.000Z</time>
      </trkpt>
      <trkpt lat="43.93804" lon="7.09976">
        <ele>358.79998779297</ele>
        <time>2022-03-19T14:43:37.000Z</time>
      </trkpt>
      <trkpt lat="43.93805" lon="7.09973">
        <ele>359</ele>
        <time>2022-03-19T14:43:38.000Z</time>
      </trkpt>
      <trkpt lat="43.93805" lon="7.09961">
        <ele>360.39999389648</ele>
        <time>2022-03-19T14:43:43.000Z</time>
      </trkpt>
      <trkpt lat="43.93805" lon="7.09959">
        <ele>360.60000610352</ele>
        <time>2022-03-19T14:43:44.000Z</time>
      </trkpt>
      <trkpt lat="43.93808" lon="7.09955">
        <ele>361.20001220703</ele>
        <time>2022-03-19T14:43:47.000Z</time>
      </trkpt>
      <trkpt lat="43.93809" lon="7.09953">
        <ele>361.39999389648</ele>
        <time>2022-03-19T14:43:48.000Z</time>
      </trkpt>
      <trkpt lat="43.93817" lon="7.09946">
        <ele>361.60000610352</ele>
        <time>2022-03-19T14:43:53.000Z</time>
      </trkpt>
      <trkpt lat="43.93832" lon="7.09939">
        <ele>361.60000610352</ele>
        <time>2022-03-19T14:44:00.000Z</time>
      </trkpt>
      <trkpt lat="43.93847" lon="7.09932">
        <ele>362.20001220703</ele>
        <time>2022-03-19T14:44:07.000Z</time>
      </trkpt>
      <trkpt lat="43.93851" lon="7.0993">
        <ele>362.39999389648</ele>
        <time>2022-03-19T14:44:09.000Z</time>
      </trkpt>
      <trkpt lat="43.9386" lon="7.09931">
        <ele>362.60000610352</ele>
        <time>2022-03-19T14:44:13.000Z</time>
      </trkpt>
      <trkpt lat="43.93874" lon="7.09939">
        <ele>363.20001220703</ele>
        <time>2022-03-19T14:44:19.000Z</time>
      </trkpt>
      <trkpt lat="43.93876" lon="7.0994">
        <ele>363.39999389648</ele>
        <time>2022-03-19T14:44:20.000Z</time>
      </trkpt>
      <trkpt lat="43.93891" lon="7.0995">
        <ele>364.20001220703</ele>
        <time>2022-03-19T14:44:27.000Z</time>
      </trkpt>
      <trkpt lat="43.93897" lon="7.09954">
        <ele>364.60000610352</ele>
        <time>2022-03-19T14:44:30.000Z</time>
      </trkpt>
      <trkpt lat="43.93905" lon="7.09959">
        <ele>365</ele>
        <time>2022-03-19T14:44:34.000Z</time>
      </trkpt>
      <trkpt lat="43.93911" lon="7.09962">
        <ele>365.60000610352</ele>
        <time>2022-03-19T14:44:37.000Z</time>
      </trkpt>
      <trkpt lat="43.93919" lon="7.09959">
        <ele>366.39999389648</ele>
        <time>2022-03-19T14:44:41.000Z</time>
      </trkpt>
      <trkpt lat="43.93922" lon="7.09956">
        <ele>366.79998779297</ele>
        <time>2022-03-19T14:44:43.000Z</time>
      </trkpt>
      <trkpt lat="43.93931" lon="7.09946">
        <ele>367.79998779297</ele>
        <time>2022-03-19T14:44:48.000Z</time>
      </trkpt>
      <trkpt lat="43.93932" lon="7.09944">
        <ele>368</ele>
        <time>2022-03-19T14:44:49.000Z</time>
      </trkpt>
      <trkpt lat="43.93936" lon="7.09933">
        <ele>369</ele>
        <time>2022-03-19T14:44:54.000Z</time>
      </trkpt>
      <trkpt lat="43.93937" lon="7.0993">
        <ele>369.60000610352</ele>
        <time>2022-03-19T14:44:56.000Z</time>
      </trkpt>
      <trkpt lat="43.93938" lon="7.09927">
        <ele>370.20001220703</ele>
        <time>2022-03-19T14:44:58.000Z</time>
      </trkpt>
      <trkpt lat="43.93938" lon="7.0992">
        <ele>370.79998779297</ele>
        <time>2022-03-19T14:45:01.000Z</time>
      </trkpt>
      <trkpt lat="43.93939" lon="7.09916">
        <ele>371.20001220703</ele>
        <time>2022-03-19T14:45:03.000Z</time>
      </trkpt>
      <trkpt lat="43.93941" lon="7.09909">
        <ele>372.39999389648</ele>
        <time>2022-03-19T14:45:07.000Z</time>
      </trkpt>
      <trkpt lat="43.93942" lon="7.09907">
        <ele>372.60000610352</ele>
        <time>2022-03-19T14:45:08.000Z</time>
      </trkpt>
      <trkpt lat="43.93944" lon="7.09899">
        <ele>373.60000610352</ele>
        <time>2022-03-19T14:45:12.000Z</time>
      </trkpt>
      <trkpt lat="43.93948" lon="7.09892">
        <ele>374.20001220703</ele>
        <time>2022-03-19T14:45:16.000Z</time>
      </trkpt>
      <trkpt lat="43.93951" lon="7.09885">
        <ele>374.60000610352</ele>
        <time>2022-03-19T14:45:19.000Z</time>
      </trkpt>
      <trkpt lat="43.93957" lon="7.09875">
        <ele>375.60000610352</ele>
        <time>2022-03-19T14:45:24.000Z</time>
      </trkpt>
      <trkpt lat="43.93958" lon="7.09873">
        <ele>375.79998779297</ele>
        <time>2022-03-19T14:45:25.000Z</time>
      </trkpt>
      <trkpt lat="43.93971" lon="7.09857">
        <ele>376.79998779297</ele>
        <time>2022-03-19T14:45:33.000Z</time>
      </trkpt>
      <trkpt lat="43.93983" lon="7.09843">
        <ele>377.79998779297</ele>
        <time>2022-03-19T14:45:40.000Z</time>
      </trkpt>
      <trkpt lat="43.93985" lon="7.09841">
        <ele>378</ele>
        <time>2022-03-19T14:45:41.000Z</time>
      </trkpt>
      <trkpt lat="43.93994" lon="7.09827">
        <ele>378.79998779297</ele>
        <time>2022-03-19T14:45:47.000Z</time>
      </trkpt>
      <trkpt lat="43.93997" lon="7.09817">
        <ele>379</ele>
        <time>2022-03-19T14:45:50.000Z</time>
      </trkpt>
      <trkpt lat="43.94011" lon="7.09793">
        <ele>379.20001220703</ele>
        <time>2022-03-19T14:45:57.000Z</time>
      </trkpt>
      <trkpt lat="43.94036" lon="7.09765">
        <ele>379</ele>
        <time>2022-03-19T14:46:06.000Z</time>
      </trkpt>
      <trkpt lat="43.94048" lon="7.0976">
        <ele>379.79998779297</ele>
        <time>2022-03-19T14:46:11.000Z</time>
      </trkpt>
      <trkpt lat="43.94055" lon="7.09764">
        <ele>381.20001220703</ele>
        <time>2022-03-19T14:46:14.000Z</time>
      </trkpt>
      <trkpt lat="43.9406" lon="7.09769">
        <ele>381.39999389648</ele>
        <time>2022-03-19T14:46:16.000Z</time>
      </trkpt>
      <trkpt lat="43.94083" lon="7.09791">
        <ele>381.39999389648</ele>
        <time>2022-03-19T14:46:25.000Z</time>
      </trkpt>
      <trkpt lat="43.9409" lon="7.09798">
        <ele>382.20001220703</ele>
        <time>2022-03-19T14:46:28.000Z</time>
      </trkpt>
      <trkpt lat="43.94101" lon="7.09811">
        <ele>383.39999389648</ele>
        <time>2022-03-19T14:46:33.000Z</time>
      </trkpt>
      <trkpt lat="43.94103" lon="7.09814">
        <ele>383.60000610352</ele>
        <time>2022-03-19T14:46:34.000Z</time>
      </trkpt>
      <trkpt lat="43.94119" lon="7.09828">
        <ele>384.60000610352</ele>
        <time>2022-03-19T14:46:40.000Z</time>
      </trkpt>
      <trkpt lat="43.94126" lon="7.09833">
        <ele>385.20001220703</ele>
        <time>2022-03-19T14:46:43.000Z</time>
      </trkpt>
      <trkpt lat="43.94132" lon="7.09836">
        <ele>385.60000610352</ele>
        <time>2022-03-19T14:46:45.000Z</time>
      </trkpt>
      <trkpt lat="43.94144" lon="7.09836">
        <ele>386.20001220703</ele>
        <time>2022-03-19T14:46:49.000Z</time>
      </trkpt>
      <trkpt lat="43.94153" lon="7.09835">
        <ele>386.79998779297</ele>
        <time>2022-03-19T14:46:52.000Z</time>
      </trkpt>
      <trkpt lat="43.94168" lon="7.0983">
        <ele>388</ele>
        <time>2022-03-19T14:46:57.000Z</time>
      </trkpt>
      <trkpt lat="43.94177" lon="7.09829">
        <ele>389</ele>
        <time>2022-03-19T14:47:01.000Z</time>
      </trkpt>
      <trkpt lat="43.94185" lon="7.0983">
        <ele>389.60000610352</ele>
        <time>2022-03-19T14:47:04.000Z</time>
      </trkpt>
      <trkpt lat="43.94192" lon="7.09834">
        <ele>390.20001220703</ele>
        <time>2022-03-19T14:47:07.000Z</time>
      </trkpt>
      <trkpt lat="43.94198" lon="7.09837">
        <ele>390.60000610352</ele>
        <time>2022-03-19T14:47:10.000Z</time>
      </trkpt>
      <trkpt lat="43.94208" lon="7.09839">
        <ele>391.20001220703</ele>
        <time>2022-03-19T14:47:14.000Z</time>
      </trkpt>
      <trkpt lat="43.9422" lon="7.09839">
        <ele>392.20001220703</ele>
        <time>2022-03-19T14:47:19.000Z</time>
      </trkpt>
      <trkpt lat="43.94225" lon="7.09839">
        <ele>392.39999389648</ele>
        <time>2022-03-19T14:47:21.000Z</time>
      </trkpt>
      <trkpt lat="43.94243" lon="7.09837">
        <ele>393.39999389648</ele>
        <time>2022-03-19T14:47:28.000Z</time>
      </trkpt>
      <trkpt lat="43.94244" lon="7.09836">
        <ele>393.60000610352</ele>
        <time>2022-03-19T14:47:29.000Z</time>
      </trkpt>
      <trkpt lat="43.94256" lon="7.09835">
        <ele>394.79998779297</ele>
        <time>2022-03-19T14:47:35.000Z</time>
      </trkpt>
      <trkpt lat="43.94263" lon="7.09831">
        <ele>395.79998779297</ele>
        <time>2022-03-19T14:47:40.000Z</time>
      </trkpt>
      <trkpt lat="43.94264" lon="7.0983">
        <ele>396.20001220703</ele>
        <time>2022-03-19T14:47:41.000Z</time>
      </trkpt>
      <trkpt lat="43.94268" lon="7.09827">
        <ele>397</ele>
        <time>2022-03-19T14:47:45.000Z</time>
      </trkpt>
      <trkpt lat="43.94273" lon="7.09827">
        <ele>398</ele>
        <time>2022-03-19T14:47:49.000Z</time>
      </trkpt>
      <trkpt lat="43.94274" lon="7.09828">
        <ele>398.20001220703</ele>
        <time>2022-03-19T14:47:50.000Z</time>
      </trkpt>
      <trkpt lat="43.9428" lon="7.09827">
        <ele>399.20001220703</ele>
        <time>2022-03-19T14:47:55.000Z</time>
      </trkpt>
      <trkpt lat="43.94282" lon="7.09828">
        <ele>399.39999389648</ele>
        <time>2022-03-19T14:47:56.000Z</time>
      </trkpt>
      <trkpt lat="43.94286" lon="7.09832">
        <ele>400.39999389648</ele>
        <time>2022-03-19T14:48:00.000Z</time>
      </trkpt>
      <trkpt lat="43.94293" lon="7.09836">
        <ele>401.39999389648</ele>
        <time>2022-03-19T14:48:05.000Z</time>
      </trkpt>
      <trkpt lat="43.94294" lon="7.09837">
        <ele>401.79998779297</ele>
        <time>2022-03-19T14:48:07.000Z</time>
      </trkpt>
      <trkpt lat="43.94297" lon="7.09839">
        <ele>402.60000610352</ele>
        <time>2022-03-19T14:48:10.000Z</time>
      </trkpt>
      <trkpt lat="43.94301" lon="7.09843">
        <ele>403.39999389648</ele>
        <time>2022-03-19T14:48:13.000Z</time>
      </trkpt>
      <trkpt lat="43.94301" lon="7.09844">
        <ele>403.60000610352</ele>
        <time>2022-03-19T14:48:14.000Z</time>
      </trkpt>
      <trkpt lat="43.94303" lon="7.09846">
        <ele>404.20001220703</ele>
        <time>2022-03-19T14:48:16.000Z</time>
      </trkpt>
      <trkpt lat="43.94305" lon="7.09846">
        <ele>404.60000610352</ele>
        <time>2022-03-19T14:48:18.000Z</time>
      </trkpt>
      <trkpt lat="43.94307" lon="7.09847">
        <ele>404.79998779297</ele>
        <time>2022-03-19T14:48:19.000Z</time>
      </trkpt>
      <trkpt lat="43.9431" lon="7.09851">
        <ele>405.79998779297</ele>
        <time>2022-03-19T14:48:23.000Z</time>
      </trkpt>
      <trkpt lat="43.94311" lon="7.09852">
        <ele>406</ele>
        <time>2022-03-19T14:48:24.000Z</time>
      </trkpt>
      <trkpt lat="43.94315" lon="7.09854">
        <ele>407</ele>
        <time>2022-03-19T14:48:28.000Z</time>
      </trkpt>
      <trkpt lat="43.94316" lon="7.09856">
        <ele>407.20001220703</ele>
        <time>2022-03-19T14:48:29.000Z</time>
      </trkpt>
      <trkpt lat="43.94318" lon="7.09858">
        <ele>408</ele>
        <time>2022-03-19T14:48:32.000Z</time>
      </trkpt>
      <trkpt lat="43.94319" lon="7.09858">
        <ele>408.20001220703</ele>
        <time>2022-03-19T14:48:33.000Z</time>
      </trkpt>
      <trkpt lat="43.94321" lon="7.09858">
        <ele>408.39999389648</ele>
        <time>2022-03-19T14:48:34.000Z</time>
      </trkpt>
      <trkpt lat="43.94324" lon="7.09861">
        <ele>408.79998779297</ele>
        <time>2022-03-19T14:48:37.000Z</time>
      </trkpt>
      <trkpt lat="43.94325" lon="7.09862">
        <ele>409.20001220703</ele>
        <time>2022-03-19T14:48:38.000Z</time>
      </trkpt>
      <trkpt lat="43.94327" lon="7.09865">
        <ele>409.60000610352</ele>
        <time>2022-03-19T14:48:40.000Z</time>
      </trkpt>
      <trkpt lat="43.94331" lon="7.0987">
        <ele>410.79998779297</ele>
        <time>2022-03-19T14:48:45.000Z</time>
      </trkpt>
      <trkpt lat="43.94332" lon="7.09872">
        <ele>411</ele>
        <time>2022-03-19T14:48:46.000Z</time>
      </trkpt>
      <trkpt lat="43.94336" lon="7.09879">
        <ele>412</ele>
        <time>2022-03-19T14:48:51.000Z</time>
      </trkpt>
      <trkpt lat="43.94341" lon="7.09888">
        <ele>413</ele>
        <time>2022-03-19T14:48:57.000Z</time>
      </trkpt>
      <trkpt lat="43.94342" lon="7.09892">
        <ele>413.39999389648</ele>
        <time>2022-03-19T14:48:59.000Z</time>
      </trkpt>
      <trkpt lat="43.94346" lon="7.09898">
        <ele>414</ele>
        <time>2022-03-19T14:49:03.000Z</time>
      </trkpt>
      <trkpt lat="43.94351" lon="7.09905">
        <ele>415</ele>
        <time>2022-03-19T14:49:08.000Z</time>
      </trkpt>
      <trkpt lat="43.94352" lon="7.09907">
        <ele>415</ele>
        <time>2022-03-19T14:49:09.000Z</time>
      </trkpt>
      <trkpt lat="43.94358" lon="7.09916">
        <ele>416</ele>
        <time>2022-03-19T14:49:15.000Z</time>
      </trkpt>
      <trkpt lat="43.94359" lon="7.09917">
        <ele>416.20001220703</ele>
        <time>2022-03-19T14:49:16.000Z</time>
      </trkpt>
      <trkpt lat="43.94365" lon="7.09925">
        <ele>417</ele>
        <time>2022-03-19T14:49:21.000Z</time>
      </trkpt>
      <trkpt lat="43.94367" lon="7.09928">
        <ele>417.39999389648</ele>
        <time>2022-03-19T14:49:23.000Z</time>
      </trkpt>
      <trkpt lat="43.94372" lon="7.0994">
        <ele>418.39999389648</ele>
        <time>2022-03-19T14:49:29.000Z</time>
      </trkpt>
      <trkpt lat="43.94373" lon="7.09942">
        <ele>418.39999389648</ele>
        <time>2022-03-19T14:49:30.000Z</time>
      </trkpt>
      <trkpt lat="43.94379" lon="7.09954">
        <ele>419.39999389648</ele>
        <time>2022-03-19T14:49:36.000Z</time>
      </trkpt>
      <trkpt lat="43.94382" lon="7.09958">
        <ele>419.60000610352</ele>
        <time>2022-03-19T14:49:38.000Z</time>
      </trkpt>
      <trkpt lat="43.94387" lon="7.09966">
        <ele>420</ele>
        <time>2022-03-19T14:49:42.000Z</time>
      </trkpt>
      <trkpt lat="43.94392" lon="7.09975">
        <ele>420.60000610352</ele>
        <time>2022-03-19T14:49:46.000Z</time>
      </trkpt>
      <trkpt lat="43.94396" lon="7.09978">
        <ele>420.79998779297</ele>
        <time>2022-03-19T14:49:48.000Z</time>
      </trkpt>
      <trkpt lat="43.944" lon="7.09979">
        <ele>421</ele>
        <time>2022-03-19T14:49:50.000Z</time>
      </trkpt>
      <trkpt lat="43.94403" lon="7.09976">
        <ele>421.20001220703</ele>
        <time>2022-03-19T14:49:52.000Z</time>
      </trkpt>
      <trkpt lat="43.94405" lon="7.0997">
        <ele>421.79998779297</ele>
        <time>2022-03-19T14:49:55.000Z</time>
      </trkpt>
      <trkpt lat="43.94405" lon="7.09966">
        <ele>422.20001220703</ele>
        <time>2022-03-19T14:49:57.000Z</time>
      </trkpt>
      <trkpt lat="43.94405" lon="7.09964">
        <ele>422.39999389648</ele>
        <time>2022-03-19T14:49:58.000Z</time>
      </trkpt>
      <trkpt lat="43.94405" lon="7.0996">
        <ele>422.79998779297</ele>
        <time>2022-03-19T14:50:00.000Z</time>
      </trkpt>
      <trkpt lat="43.94405" lon="7.0995">
        <ele>424</ele>
        <time>2022-03-19T14:50:06.000Z</time>
      </trkpt>
      <trkpt lat="43.94406" lon="7.09946">
        <ele>424.20001220703</ele>
        <time>2022-03-19T14:50:08.000Z</time>
      </trkpt>
      <trkpt lat="43.94407" lon="7.09939">
        <ele>425</ele>
        <time>2022-03-19T14:50:12.000Z</time>
      </trkpt>
      <trkpt lat="43.94409" lon="7.09927">
        <ele>426.20001220703</ele>
        <time>2022-03-19T14:50:18.000Z</time>
      </trkpt>
      <trkpt lat="43.94408" lon="7.09914">
        <ele>427.20001220703</ele>
        <time>2022-03-19T14:50:24.000Z</time>
      </trkpt>
      <trkpt lat="43.94407" lon="7.09908">
        <ele>427.79998779297</ele>
        <time>2022-03-19T14:50:27.000Z</time>
      </trkpt>
      <trkpt lat="43.94406" lon="7.09903">
        <ele>428.39999389648</ele>
        <time>2022-03-19T14:50:30.000Z</time>
      </trkpt>
      <trkpt lat="43.94406" lon="7.09898">
        <ele>428.79998779297</ele>
        <time>2022-03-19T14:50:33.000Z</time>
      </trkpt>
      <trkpt lat="43.94406" lon="7.09893">
        <ele>429.60000610352</ele>
        <time>2022-03-19T14:50:36.000Z</time>
      </trkpt>
      <trkpt lat="43.94406" lon="7.0989">
        <ele>429.79998779297</ele>
        <time>2022-03-19T14:50:38.000Z</time>
      </trkpt>
      <trkpt lat="43.94407" lon="7.09882">
        <ele>430.60000610352</ele>
        <time>2022-03-19T14:50:42.000Z</time>
      </trkpt>
      <trkpt lat="43.94408" lon="7.09875">
        <ele>431.39999389648</ele>
        <time>2022-03-19T14:50:46.000Z</time>
      </trkpt>
      <trkpt lat="43.94408" lon="7.09872">
        <ele>431.79998779297</ele>
        <time>2022-03-19T14:50:48.000Z</time>
      </trkpt>
      <trkpt lat="43.9441" lon="7.0987">
        <ele>432.20001220703</ele>
        <time>2022-03-19T14:50:50.000Z</time>
      </trkpt>
      <trkpt lat="43.94412" lon="7.09866">
        <ele>432.39999389648</ele>
        <time>2022-03-19T14:50:52.000Z</time>
      </trkpt>
      <trkpt lat="43.9441" lon="7.09851">
        <ele>431.79998779297</ele>
        <time>2022-03-19T14:50:56.000Z</time>
      </trkpt>
      <trkpt lat="43.94408" lon="7.09845">
        <ele>431.60000610352</ele>
        <time>2022-03-19T14:50:57.000Z</time>
      </trkpt>
      <trkpt lat="43.94405" lon="7.0984">
        <ele>431.20001220703</ele>
        <time>2022-03-19T14:50:58.000Z</time>
      </trkpt>
      <trkpt lat="43.94396" lon="7.09829">
        <ele>430.79998779297</ele>
        <time>2022-03-19T14:51:00.000Z</time>
      </trkpt>
      <trkpt lat="43.94391" lon="7.09825">
        <ele>430.39999389648</ele>
        <time>2022-03-19T14:51:01.000Z</time>
      </trkpt>
      <trkpt lat="43.94386" lon="7.0982">
        <ele>430.20001220703</ele>
        <time>2022-03-19T14:51:02.000Z</time>
      </trkpt>
      <trkpt lat="43.94382" lon="7.09813">
        <ele>429.60000610352</ele>
        <time>2022-03-19T14:51:03.000Z</time>
      </trkpt>
      <trkpt lat="43.9438" lon="7.09804">
        <ele>429.20001220703</ele>
        <time>2022-03-19T14:51:04.000Z</time>
      </trkpt>
      <trkpt lat="43.94387" lon="7.09794">
        <ele>428.20001220703</ele>
        <time>2022-03-19T14:51:06.000Z</time>
      </trkpt>
      <trkpt lat="43.94391" lon="7.09793">
        <ele>427.79998779297</ele>
        <time>2022-03-19T14:51:07.000Z</time>
      </trkpt>
      <trkpt lat="43.94397" lon="7.09794">
        <ele>427.39999389648</ele>
        <time>2022-03-19T14:51:08.000Z</time>
      </trkpt>
      <trkpt lat="43.94402" lon="7.09793">
        <ele>427.20001220703</ele>
        <time>2022-03-19T14:51:09.000Z</time>
      </trkpt>
      <trkpt lat="43.94409" lon="7.09793">
        <ele>426.60000610352</ele>
        <time>2022-03-19T14:51:10.000Z</time>
      </trkpt>
      <trkpt lat="43.94416" lon="7.09791">
        <ele>426</ele>
        <time>2022-03-19T14:51:11.000Z</time>
      </trkpt>
      <trkpt lat="43.94429" lon="7.09784">
        <ele>425</ele>
        <time>2022-03-19T14:51:13.000Z</time>
      </trkpt>
      <trkpt lat="43.94443" lon="7.09775">
        <ele>424</ele>
        <time>2022-03-19T14:51:15.000Z</time>
      </trkpt>
      <trkpt lat="43.94472" lon="7.09761">
        <ele>422.79998779297</ele>
        <time>2022-03-19T14:51:19.000Z</time>
      </trkpt>
      <trkpt lat="43.94481" lon="7.09742">
        <ele>422</ele>
        <time>2022-03-19T14:51:21.000Z</time>
      </trkpt>
      <trkpt lat="43.94482" lon="7.09731">
        <ele>421.20001220703</ele>
        <time>2022-03-19T14:51:22.000Z</time>
      </trkpt>
      <trkpt lat="43.94482" lon="7.09709">
        <ele>419.79998779297</ele>
        <time>2022-03-19T14:51:24.000Z</time>
      </trkpt>
      <trkpt lat="43.94474" lon="7.09691">
        <ele>418.79998779297</ele>
        <time>2022-03-19T14:51:26.000Z</time>
      </trkpt>
      <trkpt lat="43.94468" lon="7.09684">
        <ele>418.60000610352</ele>
        <time>2022-03-19T14:51:27.000Z</time>
      </trkpt>
      <trkpt lat="43.94456" lon="7.09675">
        <ele>417.20001220703</ele>
        <time>2022-03-19T14:51:29.000Z</time>
      </trkpt>
      <trkpt lat="43.9445" lon="7.09671">
        <ele>416.79998779297</ele>
        <time>2022-03-19T14:51:30.000Z</time>
      </trkpt>
      <trkpt lat="43.94426" lon="7.09673">
        <ele>417.39999389648</ele>
        <time>2022-03-19T14:51:34.000Z</time>
      </trkpt>
      <trkpt lat="43.94411" lon="7.09677">
        <ele>418.20001220703</ele>
        <time>2022-03-19T14:51:37.000Z</time>
      </trkpt>
      <trkpt lat="43.94401" lon="7.09679">
        <ele>418</ele>
        <time>2022-03-19T14:51:39.000Z</time>
      </trkpt>
      <trkpt lat="43.94396" lon="7.09679">
        <ele>418.20001220703</ele>
        <time>2022-03-19T14:51:40.000Z</time>
      </trkpt>
      <trkpt lat="43.94391" lon="7.09678">
        <ele>418.20001220703</ele>
        <time>2022-03-19T14:51:41.000Z</time>
      </trkpt>
      <trkpt lat="43.94372" lon="7.09675">
        <ele>418.60000610352</ele>
        <time>2022-03-19T14:51:45.000Z</time>
      </trkpt>
      <trkpt lat="43.94334" lon="7.09673">
        <ele>419</ele>
        <time>2022-03-19T14:51:53.000Z</time>
      </trkpt>
      <trkpt lat="43.94323" lon="7.09673">
        <ele>419.39999389648</ele>
        <time>2022-03-19T14:51:56.000Z</time>
      </trkpt>
      <trkpt lat="43.94321" lon="7.09673">
        <ele>419.60000610352</ele>
        <time>2022-03-19T14:51:58.000Z</time>
      </trkpt>
      <trkpt lat="43.94322" lon="7.09673">
        <ele>420</ele>
        <time>2022-03-19T14:52:02.000Z</time>
      </trkpt>
      <trkpt lat="43.94325" lon="7.09675">
        <ele>420</ele>
        <time>2022-03-19T14:52:08.000Z</time>
      </trkpt>
      <trkpt lat="43.94325" lon="7.09683">
        <ele>419.79998779297</ele>
        <time>2022-03-19T14:52:15.000Z</time>
      </trkpt>
      <trkpt lat="43.94325" lon="7.09686">
        <ele>419.79998779297</ele>
        <time>2022-03-19T14:52:25.000Z</time>
      </trkpt>
      <trkpt lat="43.94327" lon="7.09687">
        <ele>420.20001220703</ele>
        <time>2022-03-19T14:52:39.000Z</time>
      </trkpt>
      <trkpt lat="43.94328" lon="7.09686">
        <ele>420.39999389648</ele>
        <time>2022-03-19T14:52:45.000Z</time>
      </trkpt>
      <trkpt lat="43.94328" lon="7.09686">
        <ele>420.39999389648</ele>
        <time>2022-03-19T14:52:46.000Z</time>
      </trkpt>
      <trkpt lat="43.94327" lon="7.09686">
        <ele>420.60000610352</ele>
        <time>2022-03-19T14:52:52.000Z</time>
      </trkpt>
      <trkpt lat="43.94325" lon="7.09687">
        <ele>420.79998779297</ele>
        <time>2022-03-19T14:52:56.000Z</time>
      </trkpt>
      <trkpt lat="43.94324" lon="7.09688">
        <ele>420.79998779297</ele>
        <time>2022-03-19T14:52:57.000Z</time>
      </trkpt>
      <trkpt lat="43.9431" lon="7.09692">
        <ele>420.60000610352</ele>
        <time>2022-03-19T14:53:02.000Z</time>
      </trkpt>
      <trkpt lat="43.94307" lon="7.09692">
        <ele>420.60000610352</ele>
        <time>2022-03-19T14:53:03.000Z</time>
      </trkpt>
      <trkpt lat="43.94298" lon="7.09694">
        <ele>420.60000610352</ele>
        <time>2022-03-19T14:53:05.000Z</time>
      </trkpt>
      <trkpt lat="43.9429" lon="7.09698">
        <ele>420.60000610352</ele>
        <time>2022-03-19T14:53:07.000Z</time>
      </trkpt>
      <trkpt lat="43.94282" lon="7.09704">
        <ele>420.60000610352</ele>
        <time>2022-03-19T14:53:09.000Z</time>
      </trkpt>
      <trkpt lat="43.94273" lon="7.09717">
        <ele>420.60000610352</ele>
        <time>2022-03-19T14:53:12.000Z</time>
      </trkpt>
      <trkpt lat="43.9427" lon="7.09722">
        <ele>420.60000610352</ele>
        <time>2022-03-19T14:53:13.000Z</time>
      </trkpt>
      <trkpt lat="43.94258" lon="7.09749">
        <ele>420.79998779297</ele>
        <time>2022-03-19T14:53:18.000Z</time>
      </trkpt>
      <trkpt lat="43.94255" lon="7.09754">
        <ele>420.79998779297</ele>
        <time>2022-03-19T14:53:19.000Z</time>
      </trkpt>
      <trkpt lat="43.94242" lon="7.09762">
        <ele>421</ele>
        <time>2022-03-19T14:53:22.000Z</time>
      </trkpt>
      <trkpt lat="43.94223" lon="7.09763">
        <ele>421</ele>
        <time>2022-03-19T14:53:26.000Z</time>
      </trkpt>
      <trkpt lat="43.94205" lon="7.09753">
        <ele>421.20001220703</ele>
        <time>2022-03-19T14:53:30.000Z</time>
      </trkpt>
      <trkpt lat="43.942" lon="7.0975">
        <ele>421.39999389648</ele>
        <time>2022-03-19T14:53:31.000Z</time>
      </trkpt>
      <trkpt lat="43.94168" lon="7.09723">
        <ele>421.39999389648</ele>
        <time>2022-03-19T14:53:39.000Z</time>
      </trkpt>
      <trkpt lat="43.94151" lon="7.09718">
        <ele>421.60000610352</ele>
        <time>2022-03-19T14:53:43.000Z</time>
      </trkpt>
      <trkpt lat="43.94142" lon="7.09716">
        <ele>421.60000610352</ele>
        <time>2022-03-19T14:53:45.000Z</time>
      </trkpt>
      <trkpt lat="43.94125" lon="7.09711">
        <ele>421.60000610352</ele>
        <time>2022-03-19T14:53:49.000Z</time>
      </trkpt>
      <trkpt lat="43.94113" lon="7.09703">
        <ele>422</ele>
        <time>2022-03-19T14:53:52.000Z</time>
      </trkpt>
      <trkpt lat="43.94104" lon="7.0969">
        <ele>422.39999389648</ele>
        <time>2022-03-19T14:53:55.000Z</time>
      </trkpt>
      <trkpt lat="43.94101" lon="7.09687">
        <ele>422.60000610352</ele>
        <time>2022-03-19T14:53:56.000Z</time>
      </trkpt>
      <trkpt lat="43.94078" lon="7.09675">
        <ele>423.20001220703</ele>
        <time>2022-03-19T14:54:02.000Z</time>
      </trkpt>
      <trkpt lat="43.9407" lon="7.09674">
        <ele>423.20001220703</ele>
        <time>2022-03-19T14:54:04.000Z</time>
      </trkpt>
      <trkpt lat="43.94058" lon="7.09678">
        <ele>423.60000610352</ele>
        <time>2022-03-19T14:54:07.000Z</time>
      </trkpt>
      <trkpt lat="43.94051" lon="7.09683">
        <ele>423.79998779297</ele>
        <time>2022-03-19T14:54:09.000Z</time>
      </trkpt>
      <trkpt lat="43.94036" lon="7.09691">
        <ele>424.39999389648</ele>
        <time>2022-03-19T14:54:13.000Z</time>
      </trkpt>
      <trkpt lat="43.94032" lon="7.09692">
        <ele>424.60000610352</ele>
        <time>2022-03-19T14:54:14.000Z</time>
      </trkpt>
      <trkpt lat="43.93997" lon="7.09698">
        <ele>425.60000610352</ele>
        <time>2022-03-19T14:54:22.000Z</time>
      </trkpt>
      <trkpt lat="43.93987" lon="7.097">
        <ele>425.60000610352</ele>
        <time>2022-03-19T14:54:24.000Z</time>
      </trkpt>
      <trkpt lat="43.9397" lon="7.09708">
        <ele>426</ele>
        <time>2022-03-19T14:54:28.000Z</time>
      </trkpt>
      <trkpt lat="43.93966" lon="7.09712">
        <ele>426.20001220703</ele>
        <time>2022-03-19T14:54:29.000Z</time>
      </trkpt>
      <trkpt lat="43.93952" lon="7.09729">
        <ele>426.20001220703</ele>
        <time>2022-03-19T14:54:33.000Z</time>
      </trkpt>
      <trkpt lat="43.93946" lon="7.09738">
        <ele>426.20001220703</ele>
        <time>2022-03-19T14:54:35.000Z</time>
      </trkpt>
      <trkpt lat="43.93913" lon="7.0979">
        <ele>426.39999389648</ele>
        <time>2022-03-19T14:54:46.000Z</time>
      </trkpt>
      <trkpt lat="43.93901" lon="7.09809">
        <ele>426.39999389648</ele>
        <time>2022-03-19T14:54:50.000Z</time>
      </trkpt>
      <trkpt lat="43.93889" lon="7.09815">
        <ele>426.20001220703</ele>
        <time>2022-03-19T14:54:53.000Z</time>
      </trkpt>
      <trkpt lat="43.93871" lon="7.0981">
        <ele>426.20001220703</ele>
        <time>2022-03-19T14:54:57.000Z</time>
      </trkpt>
      <trkpt lat="43.93867" lon="7.09808">
        <ele>426.60000610352</ele>
        <time>2022-03-19T14:54:58.000Z</time>
      </trkpt>
      <trkpt lat="43.93863" lon="7.09806">
        <ele>426.79998779297</ele>
        <time>2022-03-19T14:54:59.000Z</time>
      </trkpt>
      <trkpt lat="43.93847" lon="7.098">
        <ele>427.20001220703</ele>
        <time>2022-03-19T14:55:03.000Z</time>
      </trkpt>
      <trkpt lat="43.93842" lon="7.09801">
        <ele>427.20001220703</ele>
        <time>2022-03-19T14:55:04.000Z</time>
      </trkpt>
      <trkpt lat="43.93824" lon="7.09813">
        <ele>427.79998779297</ele>
        <time>2022-03-19T14:55:09.000Z</time>
      </trkpt>
      <trkpt lat="43.93811" lon="7.09819">
        <ele>428.20001220703</ele>
        <time>2022-03-19T14:55:12.000Z</time>
      </trkpt>
      <trkpt lat="43.93803" lon="7.09818">
        <ele>428.20001220703</ele>
        <time>2022-03-19T14:55:14.000Z</time>
      </trkpt>
      <trkpt lat="43.93786" lon="7.09816">
        <ele>428.79998779297</ele>
        <time>2022-03-19T14:55:18.000Z</time>
      </trkpt>
      <trkpt lat="43.93778" lon="7.09821">
        <ele>429</ele>
        <time>2022-03-19T14:55:20.000Z</time>
      </trkpt>
      <trkpt lat="43.93771" lon="7.09829">
        <ele>429.20001220703</ele>
        <time>2022-03-19T14:55:22.000Z</time>
      </trkpt>
      <trkpt lat="43.93768" lon="7.09833">
        <ele>429.39999389648</ele>
        <time>2022-03-19T14:55:23.000Z</time>
      </trkpt>
      <trkpt lat="43.93764" lon="7.09837">
        <ele>429.60000610352</ele>
        <time>2022-03-19T14:55:24.000Z</time>
      </trkpt>
      <trkpt lat="43.93751" lon="7.09842">
        <ele>430</ele>
        <time>2022-03-19T14:55:27.000Z</time>
      </trkpt>
      <trkpt lat="43.9373" lon="7.09838">
        <ele>430</ele>
        <time>2022-03-19T14:55:32.000Z</time>
      </trkpt>
      <trkpt lat="43.93726" lon="7.09836">
        <ele>430</ele>
        <time>2022-03-19T14:55:33.000Z</time>
      </trkpt>
      <trkpt lat="43.93722" lon="7.09834">
        <ele>430</ele>
        <time>2022-03-19T14:55:34.000Z</time>
      </trkpt>
      <trkpt lat="43.93706" lon="7.09825">
        <ele>430.39999389648</ele>
        <time>2022-03-19T14:55:39.000Z</time>
      </trkpt>
      <trkpt lat="43.93691" lon="7.09817">
        <ele>431</ele>
        <time>2022-03-19T14:55:44.000Z</time>
      </trkpt>
      <trkpt lat="43.93688" lon="7.09814">
        <ele>431.20001220703</ele>
        <time>2022-03-19T14:55:45.000Z</time>
      </trkpt>
      <trkpt lat="43.9367" lon="7.09797">
        <ele>431.79998779297</ele>
        <time>2022-03-19T14:55:51.000Z</time>
      </trkpt>
      <trkpt lat="43.93669" lon="7.09793">
        <ele>431.79998779297</ele>
        <time>2022-03-19T14:55:52.000Z</time>
      </trkpt>
      <trkpt lat="43.93667" lon="7.09788">
        <ele>432.20001220703</ele>
        <time>2022-03-19T14:55:53.000Z</time>
      </trkpt>
      <trkpt lat="43.93664" lon="7.09781">
        <ele>432.60000610352</ele>
        <time>2022-03-19T14:55:55.000Z</time>
      </trkpt>
      <trkpt lat="43.93662" lon="7.09773">
        <ele>433.20001220703</ele>
        <time>2022-03-19T14:55:57.000Z</time>
      </trkpt>
      <trkpt lat="43.93656" lon="7.09757">
        <ele>434.20001220703</ele>
        <time>2022-03-19T14:56:01.000Z</time>
      </trkpt>
      <trkpt lat="43.93654" lon="7.09752">
        <ele>434.39999389648</ele>
        <time>2022-03-19T14:56:02.000Z</time>
      </trkpt>
      <trkpt lat="43.93651" lon="7.09746">
        <ele>434</ele>
        <time>2022-03-19T14:56:05.000Z</time>
      </trkpt>
      <trkpt lat="43.93649" lon="7.09738">
        <ele>434</ele>
        <time>2022-03-19T14:56:10.000Z</time>
      </trkpt>
      <trkpt lat="43.93649" lon="7.09737">
        <ele>434</ele>
        <time>2022-03-19T14:56:11.000Z</time>
      </trkpt>
      <trkpt lat="43.93646" lon="7.09732">
        <ele>434</ele>
        <time>2022-03-19T14:56:16.000Z</time>
      </trkpt>
      <trkpt lat="43.93646" lon="7.09729">
        <ele>434</ele>
        <time>2022-03-19T14:56:21.000Z</time>
      </trkpt>
      <trkpt lat="43.93648" lon="7.09724">
        <ele>433.60000610352</ele>
        <time>2022-03-19T14:56:27.000Z</time>
      </trkpt>
      <trkpt lat="43.93649" lon="7.09724">
        <ele>433.60000610352</ele>
        <time>2022-03-19T14:56:33.000Z</time>
      </trkpt>
      <trkpt lat="43.93649" lon="7.09725">
        <ele>434</ele>
        <time>2022-03-19T14:56:40.000Z</time>
      </trkpt>
      <trkpt lat="43.9365" lon="7.09728">
        <ele>433.79998779297</ele>
        <time>2022-03-19T14:56:45.000Z</time>
      </trkpt>
      <trkpt lat="43.93651" lon="7.0973">
        <ele>433.60000610352</ele>
        <time>2022-03-19T14:56:47.000Z</time>
      </trkpt>
      <trkpt lat="43.9365" lon="7.09735">
        <ele>433.60000610352</ele>
        <time>2022-03-19T14:56:53.000Z</time>
      </trkpt>
      <trkpt lat="43.93649" lon="7.09735">
        <ele>433.60000610352</ele>
        <time>2022-03-19T14:56:54.000Z</time>
      </trkpt>
      <trkpt lat="43.93651" lon="7.09734">
        <ele>434</ele>
        <time>2022-03-19T14:56:58.000Z</time>
      </trkpt>
      <trkpt lat="43.93653" lon="7.09739">
        <ele>434.20001220703</ele>
        <time>2022-03-19T14:57:03.000Z</time>
      </trkpt>
      <trkpt lat="43.93653" lon="7.0974">
        <ele>434.39999389648</ele>
        <time>2022-03-19T14:57:10.000Z</time>
      </trkpt>
      <trkpt lat="43.93654" lon="7.09742">
        <ele>434.39999389648</ele>
        <time>2022-03-19T14:57:18.000Z</time>
      </trkpt>
      <trkpt lat="43.93654" lon="7.09743">
        <ele>434.39999389648</ele>
        <time>2022-03-19T14:57:26.000Z</time>
      </trkpt>
      <trkpt lat="43.93654" lon="7.09743">
        <ele>434.39999389648</ele>
        <time>2022-03-19T14:57:34.000Z</time>
      </trkpt>
      <trkpt lat="43.93654" lon="7.09743">
        <ele>434.20001220703</ele>
        <time>2022-03-19T14:57:45.000Z</time>
      </trkpt>
      <trkpt lat="43.93656" lon="7.0974">
        <ele>434.20001220703</ele>
        <time>2022-03-19T14:57:54.000Z</time>
      </trkpt>
      <trkpt lat="43.93655" lon="7.09741">
        <ele>434</ele>
        <time>2022-03-19T14:57:55.000Z</time>
      </trkpt>
      <trkpt lat="43.93653" lon="7.09741">
        <ele>434.39999389648</ele>
        <time>2022-03-19T14:58:14.000Z</time>
      </trkpt>
      <trkpt lat="43.9365" lon="7.09743">
        <ele>434.39999389648</ele>
        <time>2022-03-19T14:58:43.000Z</time>
      </trkpt>
      <trkpt lat="43.93649" lon="7.09743">
        <ele>434.39999389648</ele>
        <time>2022-03-19T14:59:07.000Z</time>
      </trkpt>
    </trkseg>
  </trk>
</gpx>